<?xml version="1.0" encoding="UTF-8"?>
<gpx version="1.1" creator="https://www.youtrack.es" xsi:schemaLocation="http://www.topografix.com/GPX/1/1 http://www.topografix.com/GPX/1/1/gpx.xsd http://www.garmin.com/xmlschemas/GpxExtensions/v3 http://www.garmin.com/xmlschemas/GpxExtensionsv3.xsd http://www.garmin.com/xmlschemas/TrackPointExtension/v1 http://www.garmin.com/xmlschemas/TrackPointExtensionv1.xsd" xmlns:gpxtpx="http://www.garmin.com/xmlschemas/TrackPointExtension/v1" xmlns:gpxx="http://www.garmin.com/xmlschemas/GpxExtensions/v3" xmlns:xsi="http://www.w3.org/2001/XMLSchema-instance">
  <metadata>
    <link href="https://www.youtrack.es">
      <text>YouTrack.es</text>
    </link>
    <time>2026-05-08T22:51:50Z</time>
  </metadata>
  <trk>
    <src>https://www.youtrack.es</src>
    <link href="https://www.youtrack.es/ruta/16064-leiden">
      <text>YouTrack.es</text>
    </link>
    <trkseg>
      <trkpt lat="52.169205" lon="4.4881983">
        <ele>2000.0</ele>
        <time>2020-09-21T08:32:13Z</time>
      </trkpt>
      <trkpt lat="52.16919" lon="4.4882073">
        <ele>2000.0</ele>
        <time>2020-09-21T08:32:14Z</time>
      </trkpt>
      <trkpt lat="52.16914" lon="4.4882274">
        <ele>2000.0</ele>
        <time>2020-09-21T08:32:15Z</time>
      </trkpt>
      <trkpt lat="52.169083" lon="4.488247">
        <ele>2000.0</ele>
        <time>2020-09-21T08:32:16Z</time>
      </trkpt>
      <trkpt lat="52.169003" lon="4.4882555">
        <ele>2000.0</ele>
        <time>2020-09-21T08:32:17Z</time>
      </trkpt>
      <trkpt lat="52.168934" lon="4.4882603">
        <ele>2000.0</ele>
        <time>2020-09-21T08:32:18Z</time>
      </trkpt>
      <trkpt lat="52.168884" lon="4.48826">
        <ele>2000.0</ele>
        <time>2020-09-21T08:32:19Z</time>
      </trkpt>
      <trkpt lat="52.168842" lon="4.4882574">
        <ele>2000.0</ele>
        <time>2020-09-21T08:32:20Z</time>
      </trkpt>
      <trkpt lat="52.168827" lon="4.488261">
        <ele>2000.0</ele>
        <time>2020-09-21T08:32:21Z</time>
      </trkpt>
      <trkpt lat="52.168816" lon="4.4882665">
        <ele>2000.0</ele>
        <time>2020-09-21T08:32:22Z</time>
      </trkpt>
      <trkpt lat="52.1688" lon="4.488275">
        <ele>2000.0</ele>
        <time>2020-09-21T08:32:23Z</time>
      </trkpt>
      <trkpt lat="52.168785" lon="4.4882874">
        <ele>2000.0</ele>
        <time>2020-09-21T08:32:24Z</time>
      </trkpt>
      <trkpt lat="52.168777" lon="4.4883037">
        <ele>2000.0</ele>
        <time>2020-09-21T08:32:25Z</time>
      </trkpt>
      <trkpt lat="52.16878" lon="4.4883213">
        <ele>2000.0</ele>
        <time>2020-09-21T08:32:26Z</time>
      </trkpt>
      <trkpt lat="52.16878" lon="4.4883385">
        <ele>2000.0</ele>
        <time>2020-09-21T08:32:27Z</time>
      </trkpt>
      <trkpt lat="52.168785" lon="4.4883566">
        <ele>2000.0</ele>
        <time>2020-09-21T08:32:28Z</time>
      </trkpt>
      <trkpt lat="52.168793" lon="4.4883795">
        <ele>2000.0</ele>
        <time>2020-09-21T08:32:29Z</time>
      </trkpt>
      <trkpt lat="52.1688" lon="4.4884033">
        <ele>2000.0</ele>
        <time>2020-09-21T08:32:30Z</time>
      </trkpt>
      <trkpt lat="52.168808" lon="4.4884267">
        <ele>2000.0</ele>
        <time>2020-09-21T08:32:31Z</time>
      </trkpt>
      <trkpt lat="52.168808" lon="4.4884524">
        <ele>2000.0</ele>
        <time>2020-09-21T08:32:32Z</time>
      </trkpt>
      <trkpt lat="52.168808" lon="4.4884734">
        <ele>2000.0</ele>
        <time>2020-09-21T08:32:33Z</time>
      </trkpt>
      <trkpt lat="52.16881" lon="4.488493">
        <ele>2000.0</ele>
        <time>2020-09-21T08:32:34Z</time>
      </trkpt>
      <trkpt lat="52.168816" lon="4.4885035">
        <ele>2000.0</ele>
        <time>2020-09-21T08:32:35Z</time>
      </trkpt>
      <trkpt lat="52.168823" lon="4.488506">
        <ele>2000.0</ele>
        <time>2020-09-21T08:32:36Z</time>
      </trkpt>
      <trkpt lat="52.168827" lon="4.4885077">
        <ele>2000.0</ele>
        <time>2020-09-21T08:32:37Z</time>
      </trkpt>
      <trkpt lat="52.16884" lon="4.4885135">
        <ele>2000.0</ele>
        <time>2020-09-21T08:32:38Z</time>
      </trkpt>
      <trkpt lat="52.168858" lon="4.488523">
        <ele>2000.0</ele>
        <time>2020-09-21T08:32:39Z</time>
      </trkpt>
      <trkpt lat="52.168873" lon="4.4885416">
        <ele>2000.0</ele>
        <time>2020-09-21T08:32:40Z</time>
      </trkpt>
      <trkpt lat="52.168903" lon="4.488562">
        <ele>2000.0</ele>
        <time>2020-09-21T08:32:41Z</time>
      </trkpt>
      <trkpt lat="52.168945" lon="4.4885836">
        <ele>2000.0</ele>
        <time>2020-09-21T08:32:42Z</time>
      </trkpt>
      <trkpt lat="52.168964" lon="4.4886036">
        <ele>2000.0</ele>
        <time>2020-09-21T08:32:43Z</time>
      </trkpt>
      <trkpt lat="52.168976" lon="4.488628">
        <ele>2000.0</ele>
        <time>2020-09-21T08:32:44Z</time>
      </trkpt>
      <trkpt lat="52.16898" lon="4.488658">
        <ele>2000.0</ele>
        <time>2020-09-21T08:32:45Z</time>
      </trkpt>
      <trkpt lat="52.168987" lon="4.488691">
        <ele>2000.0</ele>
        <time>2020-09-21T08:32:46Z</time>
      </trkpt>
      <trkpt lat="52.168995" lon="4.4887195">
        <ele>2000.0</ele>
        <time>2020-09-21T08:32:47Z</time>
      </trkpt>
      <trkpt lat="52.169018" lon="4.4887424">
        <ele>2000.0</ele>
        <time>2020-09-21T08:32:48Z</time>
      </trkpt>
      <trkpt lat="52.169037" lon="4.4887643">
        <ele>2000.0</ele>
        <time>2020-09-21T08:32:49Z</time>
      </trkpt>
      <trkpt lat="52.169064" lon="4.4887857">
        <ele>2000.0</ele>
        <time>2020-09-21T08:32:50Z</time>
      </trkpt>
      <trkpt lat="52.169086" lon="4.4888062">
        <ele>2000.0</ele>
        <time>2020-09-21T08:32:51Z</time>
      </trkpt>
      <trkpt lat="52.169117" lon="4.488826">
        <ele>2000.0</ele>
        <time>2020-09-21T08:32:52Z</time>
      </trkpt>
      <trkpt lat="52.169113" lon="4.488858">
        <ele>2000.0</ele>
        <time>2020-09-21T08:32:53Z</time>
      </trkpt>
      <trkpt lat="52.169098" lon="4.488893">
        <ele>2000.0</ele>
        <time>2020-09-21T08:32:54Z</time>
      </trkpt>
      <trkpt lat="52.169086" lon="4.488922">
        <ele>2000.0</ele>
        <time>2020-09-21T08:32:55Z</time>
      </trkpt>
      <trkpt lat="52.16908" lon="4.488942">
        <ele>2000.0</ele>
        <time>2020-09-21T08:32:56Z</time>
      </trkpt>
      <trkpt lat="52.16907" lon="4.4889565">
        <ele>2000.0</ele>
        <time>2020-09-21T08:32:57Z</time>
      </trkpt>
      <trkpt lat="52.169067" lon="4.48897">
        <ele>2000.0</ele>
        <time>2020-09-21T08:32:58Z</time>
      </trkpt>
      <trkpt lat="52.169064" lon="4.4889827">
        <ele>2000.0</ele>
        <time>2020-09-21T08:32:59Z</time>
      </trkpt>
      <trkpt lat="52.169056" lon="4.488992">
        <ele>2000.0</ele>
        <time>2020-09-21T08:33:00Z</time>
      </trkpt>
      <trkpt lat="52.16904" lon="4.488998">
        <ele>2000.0</ele>
        <time>2020-09-21T08:33:01Z</time>
      </trkpt>
      <trkpt lat="52.169037" lon="4.489007">
        <ele>2000.0</ele>
        <time>2020-09-21T08:33:02Z</time>
      </trkpt>
      <trkpt lat="52.169025" lon="4.4890223">
        <ele>2000.0</ele>
        <time>2020-09-21T08:33:03Z</time>
      </trkpt>
      <trkpt lat="52.169025" lon="4.4890404">
        <ele>2000.0</ele>
        <time>2020-09-21T08:33:04Z</time>
      </trkpt>
      <trkpt lat="52.16902" lon="4.4890614">
        <ele>2000.0</ele>
        <time>2020-09-21T08:33:05Z</time>
      </trkpt>
      <trkpt lat="52.169018" lon="4.4890785">
        <ele>2000.0</ele>
        <time>2020-09-21T08:33:06Z</time>
      </trkpt>
      <trkpt lat="52.16901" lon="4.4890933">
        <ele>2000.0</ele>
        <time>2020-09-21T08:33:07Z</time>
      </trkpt>
      <trkpt lat="52.16901" lon="4.489108">
        <ele>2000.0</ele>
        <time>2020-09-21T08:33:08Z</time>
      </trkpt>
      <trkpt lat="52.16901" lon="4.4891253">
        <ele>2000.0</ele>
        <time>2020-09-21T08:33:09Z</time>
      </trkpt>
      <trkpt lat="52.16902" lon="4.489142">
        <ele>2000.0</ele>
        <time>2020-09-21T08:33:10Z</time>
      </trkpt>
      <trkpt lat="52.169037" lon="4.4891577">
        <ele>2000.0</ele>
        <time>2020-09-21T08:33:11Z</time>
      </trkpt>
      <trkpt lat="52.169052" lon="4.489176">
        <ele>2000.0</ele>
        <time>2020-09-21T08:33:12Z</time>
      </trkpt>
      <trkpt lat="52.169067" lon="4.489198">
        <ele>2000.0</ele>
        <time>2020-09-21T08:33:13Z</time>
      </trkpt>
      <trkpt lat="52.169083" lon="4.4892244">
        <ele>2000.0</ele>
        <time>2020-09-21T08:33:14Z</time>
      </trkpt>
      <trkpt lat="52.1691" lon="4.489254">
        <ele>2000.0</ele>
        <time>2020-09-21T08:33:15Z</time>
      </trkpt>
      <trkpt lat="52.169117" lon="4.489285">
        <ele>2100.0</ele>
        <time>2020-09-21T08:33:16Z</time>
      </trkpt>
      <trkpt lat="52.169132" lon="4.489319">
        <ele>2100.0</ele>
        <time>2020-09-21T08:33:17Z</time>
      </trkpt>
      <trkpt lat="52.16915" lon="4.489353">
        <ele>2100.0</ele>
        <time>2020-09-21T08:33:18Z</time>
      </trkpt>
      <trkpt lat="52.169167" lon="4.489386">
        <ele>2100.0</ele>
        <time>2020-09-21T08:33:19Z</time>
      </trkpt>
      <trkpt lat="52.16918" lon="4.48942">
        <ele>2100.0</ele>
        <time>2020-09-21T08:33:20Z</time>
      </trkpt>
      <trkpt lat="52.1692" lon="4.489451">
        <ele>2100.0</ele>
        <time>2020-09-21T08:33:21Z</time>
      </trkpt>
      <trkpt lat="52.169228" lon="4.4894757">
        <ele>2100.0</ele>
        <time>2020-09-21T08:33:22Z</time>
      </trkpt>
      <trkpt lat="52.16925" lon="4.4894958">
        <ele>2100.0</ele>
        <time>2020-09-21T08:33:23Z</time>
      </trkpt>
      <trkpt lat="52.169277" lon="4.4895115">
        <ele>2100.0</ele>
        <time>2020-09-21T08:33:24Z</time>
      </trkpt>
      <trkpt lat="52.169308" lon="4.489529">
        <ele>2100.0</ele>
        <time>2020-09-21T08:33:25Z</time>
      </trkpt>
      <trkpt lat="52.16934" lon="4.4895496">
        <ele>2100.0</ele>
        <time>2020-09-21T08:33:26Z</time>
      </trkpt>
      <trkpt lat="52.169365" lon="4.4895706">
        <ele>2100.0</ele>
        <time>2020-09-21T08:33:27Z</time>
      </trkpt>
      <trkpt lat="52.169395" lon="4.4895916">
        <ele>2100.0</ele>
        <time>2020-09-21T08:33:28Z</time>
      </trkpt>
      <trkpt lat="52.169426" lon="4.4896116">
        <ele>2100.0</ele>
        <time>2020-09-21T08:33:29Z</time>
      </trkpt>
      <trkpt lat="52.16946" lon="4.489632">
        <ele>2100.0</ele>
        <time>2020-09-21T08:33:30Z</time>
      </trkpt>
      <trkpt lat="52.169487" lon="4.489645">
        <ele>2100.0</ele>
        <time>2020-09-21T08:33:31Z</time>
      </trkpt>
      <trkpt lat="52.169506" lon="4.489649">
        <ele>2100.0</ele>
        <time>2020-09-21T08:33:32Z</time>
      </trkpt>
      <trkpt lat="52.16952" lon="4.4896474">
        <ele>2100.0</ele>
        <time>2020-09-21T08:33:33Z</time>
      </trkpt>
      <trkpt lat="52.169533" lon="4.489636">
        <ele>2100.0</ele>
        <time>2020-09-21T08:33:34Z</time>
      </trkpt>
      <trkpt lat="52.169544" lon="4.489617">
        <ele>2100.0</ele>
        <time>2020-09-21T08:33:35Z</time>
      </trkpt>
      <trkpt lat="52.169548" lon="4.489591">
        <ele>2100.0</ele>
        <time>2020-09-21T08:33:36Z</time>
      </trkpt>
      <trkpt lat="52.169556" lon="4.48956">
        <ele>2100.0</ele>
        <time>2020-09-21T08:33:37Z</time>
      </trkpt>
      <trkpt lat="52.169563" lon="4.489525">
        <ele>2100.0</ele>
        <time>2020-09-21T08:33:38Z</time>
      </trkpt>
      <trkpt lat="52.16957" lon="4.489485">
        <ele>2100.0</ele>
        <time>2020-09-21T08:33:39Z</time>
      </trkpt>
      <trkpt lat="52.169575" lon="4.4894404">
        <ele>2100.0</ele>
        <time>2020-09-21T08:33:40Z</time>
      </trkpt>
      <trkpt lat="52.169586" lon="4.4893947">
        <ele>2100.0</ele>
        <time>2020-09-21T08:33:41Z</time>
      </trkpt>
      <trkpt lat="52.169594" lon="4.4893484">
        <ele>2100.0</ele>
        <time>2020-09-21T08:33:42Z</time>
      </trkpt>
      <trkpt lat="52.16961" lon="4.4892993">
        <ele>2100.0</ele>
        <time>2020-09-21T08:33:43Z</time>
      </trkpt>
      <trkpt lat="52.169632" lon="4.489249">
        <ele>2100.0</ele>
        <time>2020-09-21T08:33:44Z</time>
      </trkpt>
      <trkpt lat="52.16965" lon="4.489198">
        <ele>2100.0</ele>
        <time>2020-09-21T08:33:45Z</time>
      </trkpt>
      <trkpt lat="52.16967" lon="4.489147">
        <ele>2100.0</ele>
        <time>2020-09-21T08:33:46Z</time>
      </trkpt>
      <trkpt lat="52.169693" lon="4.489095">
        <ele>2100.0</ele>
        <time>2020-09-21T08:33:47Z</time>
      </trkpt>
      <trkpt lat="52.169712" lon="4.4890437">
        <ele>2100.0</ele>
        <time>2020-09-21T08:33:48Z</time>
      </trkpt>
      <trkpt lat="52.16974" lon="4.4889946">
        <ele>2100.0</ele>
        <time>2020-09-21T08:33:49Z</time>
      </trkpt>
      <trkpt lat="52.169758" lon="4.488944">
        <ele>2100.0</ele>
        <time>2020-09-21T08:33:50Z</time>
      </trkpt>
      <trkpt lat="52.16978" lon="4.488896">
        <ele>2100.0</ele>
        <time>2020-09-21T08:33:51Z</time>
      </trkpt>
      <trkpt lat="52.1698" lon="4.488848">
        <ele>2100.0</ele>
        <time>2020-09-21T08:33:52Z</time>
      </trkpt>
      <trkpt lat="52.16982" lon="4.4888096">
        <ele>2100.0</ele>
        <time>2020-09-21T08:33:53Z</time>
      </trkpt>
      <trkpt lat="52.16983" lon="4.488779">
        <ele>2100.0</ele>
        <time>2020-09-21T08:33:54Z</time>
      </trkpt>
      <trkpt lat="52.16984" lon="4.4887567">
        <ele>2100.0</ele>
        <time>2020-09-21T08:33:55Z</time>
      </trkpt>
      <trkpt lat="52.169857" lon="4.4887333">
        <ele>2100.0</ele>
        <time>2020-09-21T08:33:57Z</time>
      </trkpt>
      <trkpt lat="52.169857" lon="4.488737">
        <ele>2100.0</ele>
        <time>2020-09-21T08:33:58Z</time>
      </trkpt>
      <trkpt lat="52.16985" lon="4.4887447">
        <ele>2100.0</ele>
        <time>2020-09-21T08:33:59Z</time>
      </trkpt>
      <trkpt lat="52.169834" lon="4.488753">
        <ele>2100.0</ele>
        <time>2020-09-21T08:34:00Z</time>
      </trkpt>
      <trkpt lat="52.169815" lon="4.4887586">
        <ele>2100.0</ele>
        <time>2020-09-21T08:34:01Z</time>
      </trkpt>
      <trkpt lat="52.1698" lon="4.4887652">
        <ele>2100.0</ele>
        <time>2020-09-21T08:34:02Z</time>
      </trkpt>
      <trkpt lat="52.16978" lon="4.4887724">
        <ele>2100.0</ele>
        <time>2020-09-21T08:34:03Z</time>
      </trkpt>
      <trkpt lat="52.169765" lon="4.4887757">
        <ele>2100.0</ele>
        <time>2020-09-21T08:34:04Z</time>
      </trkpt>
      <trkpt lat="52.16975" lon="4.48878">
        <ele>2100.0</ele>
        <time>2020-09-21T08:34:05Z</time>
      </trkpt>
      <trkpt lat="52.169735" lon="4.488783">
        <ele>2100.0</ele>
        <time>2020-09-21T08:34:07Z</time>
      </trkpt>
      <trkpt lat="52.16967" lon="4.4887996">
        <ele>2100.0</ele>
        <time>2020-09-21T08:34:08Z</time>
      </trkpt>
      <trkpt lat="52.169666" lon="4.4888005">
        <ele>2100.0</ele>
        <time>2020-09-21T08:34:09Z</time>
      </trkpt>
      <trkpt lat="52.169662" lon="4.4888053">
        <ele>2100.0</ele>
        <time>2020-09-21T08:34:10Z</time>
      </trkpt>
      <trkpt lat="52.169655" lon="4.4888124">
        <ele>2100.0</ele>
        <time>2020-09-21T08:34:11Z</time>
      </trkpt>
      <trkpt lat="52.16965" lon="4.48882">
        <ele>2100.0</ele>
        <time>2020-09-21T08:34:12Z</time>
      </trkpt>
      <trkpt lat="52.169647" lon="4.488825">
        <ele>2100.0</ele>
        <time>2020-09-21T08:34:13Z</time>
      </trkpt>
      <trkpt lat="52.169647" lon="4.488823">
        <ele>2100.0</ele>
        <time>2020-09-21T08:34:14Z</time>
      </trkpt>
      <trkpt lat="52.169647" lon="4.4888167">
        <ele>2100.0</ele>
        <time>2020-09-21T08:34:15Z</time>
      </trkpt>
      <trkpt lat="52.169655" lon="4.4888062">
        <ele>2100.0</ele>
        <time>2020-09-21T08:34:16Z</time>
      </trkpt>
      <trkpt lat="52.16967" lon="4.4887958">
        <ele>2100.0</ele>
        <time>2020-09-21T08:34:18Z</time>
      </trkpt>
      <trkpt lat="52.169685" lon="4.4887824">
        <ele>2100.0</ele>
        <time>2020-09-21T08:34:18Z</time>
      </trkpt>
      <trkpt lat="52.1697" lon="4.488768">
        <ele>2100.0</ele>
        <time>2020-09-21T08:34:19Z</time>
      </trkpt>
      <trkpt lat="52.169727" lon="4.4887547">
        <ele>2100.0</ele>
        <time>2020-09-21T08:34:20Z</time>
      </trkpt>
      <trkpt lat="52.169754" lon="4.4887395">
        <ele>2100.0</ele>
        <time>2020-09-21T08:34:21Z</time>
      </trkpt>
      <trkpt lat="52.169785" lon="4.4887233">
        <ele>2100.0</ele>
        <time>2020-09-21T08:34:22Z</time>
      </trkpt>
      <trkpt lat="52.169815" lon="4.488705">
        <ele>2100.0</ele>
        <time>2020-09-21T08:34:23Z</time>
      </trkpt>
      <trkpt lat="52.16985" lon="4.488686">
        <ele>2100.0</ele>
        <time>2020-09-21T08:34:24Z</time>
      </trkpt>
      <trkpt lat="52.16988" lon="4.4886656">
        <ele>2100.0</ele>
        <time>2020-09-21T08:34:25Z</time>
      </trkpt>
      <trkpt lat="52.169918" lon="4.4886475">
        <ele>2100.0</ele>
        <time>2020-09-21T08:34:26Z</time>
      </trkpt>
      <trkpt lat="52.169952" lon="4.488633">
        <ele>2000.0</ele>
        <time>2020-09-21T08:34:28Z</time>
      </trkpt>
      <trkpt lat="52.16999" lon="4.488625">
        <ele>2000.0</ele>
        <time>2020-09-21T08:34:28Z</time>
      </trkpt>
      <trkpt lat="52.17003" lon="4.488624">
        <ele>2000.0</ele>
        <time>2020-09-21T08:34:29Z</time>
      </trkpt>
      <trkpt lat="52.17007" lon="4.4886227">
        <ele>2000.0</ele>
        <time>2020-09-21T08:34:30Z</time>
      </trkpt>
      <trkpt lat="52.170113" lon="4.488621">
        <ele>2000.0</ele>
        <time>2020-09-21T08:34:31Z</time>
      </trkpt>
      <trkpt lat="52.170147" lon="4.488622">
        <ele>2000.0</ele>
        <time>2020-09-21T08:34:32Z</time>
      </trkpt>
      <trkpt lat="52.170193" lon="4.488625">
        <ele>2000.0</ele>
        <time>2020-09-21T08:34:33Z</time>
      </trkpt>
      <trkpt lat="52.170235" lon="4.488629">
        <ele>2000.0</ele>
        <time>2020-09-21T08:34:34Z</time>
      </trkpt>
      <trkpt lat="52.17028" lon="4.4886327">
        <ele>2000.0</ele>
        <time>2020-09-21T08:34:35Z</time>
      </trkpt>
      <trkpt lat="52.170326" lon="4.48864">
        <ele>2000.0</ele>
        <time>2020-09-21T08:34:36Z</time>
      </trkpt>
      <trkpt lat="52.17037" lon="4.4886494">
        <ele>2000.0</ele>
        <time>2020-09-21T08:34:37Z</time>
      </trkpt>
      <trkpt lat="52.170414" lon="4.488661">
        <ele>2000.0</ele>
        <time>2020-09-21T08:34:39Z</time>
      </trkpt>
      <trkpt lat="52.170456" lon="4.488671">
        <ele>2000.0</ele>
        <time>2020-09-21T08:34:39Z</time>
      </trkpt>
      <trkpt lat="52.170498" lon="4.48868">
        <ele>2000.0</ele>
        <time>2020-09-21T08:34:40Z</time>
      </trkpt>
      <trkpt lat="52.170532" lon="4.4886847">
        <ele>2000.0</ele>
        <time>2020-09-21T08:34:41Z</time>
      </trkpt>
      <trkpt lat="52.170563" lon="4.4886866">
        <ele>2000.0</ele>
        <time>2020-09-21T08:34:42Z</time>
      </trkpt>
      <trkpt lat="52.170593" lon="4.4886856">
        <ele>2000.0</ele>
        <time>2020-09-21T08:34:43Z</time>
      </trkpt>
      <trkpt lat="52.17062" lon="4.4886827">
        <ele>2000.0</ele>
        <time>2020-09-21T08:34:44Z</time>
      </trkpt>
      <trkpt lat="52.170643" lon="4.48868">
        <ele>2000.0</ele>
        <time>2020-09-21T08:34:45Z</time>
      </trkpt>
      <trkpt lat="52.17067" lon="4.4886794">
        <ele>2000.0</ele>
        <time>2020-09-21T08:34:46Z</time>
      </trkpt>
      <trkpt lat="52.170692" lon="4.488682">
        <ele>2000.0</ele>
        <time>2020-09-21T08:34:47Z</time>
      </trkpt>
      <trkpt lat="52.170715" lon="4.4886856">
        <ele>2000.0</ele>
        <time>2020-09-21T08:34:49Z</time>
      </trkpt>
      <trkpt lat="52.170742" lon="4.488692">
        <ele>2000.0</ele>
        <time>2020-09-21T08:34:49Z</time>
      </trkpt>
      <trkpt lat="52.17077" lon="4.4887033">
        <ele>2000.0</ele>
        <time>2020-09-21T08:34:50Z</time>
      </trkpt>
      <trkpt lat="52.170788" lon="4.48872">
        <ele>2000.0</ele>
        <time>2020-09-21T08:34:51Z</time>
      </trkpt>
      <trkpt lat="52.17082" lon="4.4887433">
        <ele>2000.0</ele>
        <time>2020-09-21T08:34:52Z</time>
      </trkpt>
      <trkpt lat="52.170845" lon="4.4887733">
        <ele>2000.0</ele>
        <time>2020-09-21T08:34:53Z</time>
      </trkpt>
      <trkpt lat="52.170876" lon="4.4888062">
        <ele>2000.0</ele>
        <time>2020-09-21T08:34:54Z</time>
      </trkpt>
      <trkpt lat="52.170906" lon="4.4888406">
        <ele>2000.0</ele>
        <time>2020-09-21T08:34:55Z</time>
      </trkpt>
      <trkpt lat="52.170937" lon="4.4888735">
        <ele>2000.0</ele>
        <time>2020-09-21T08:34:56Z</time>
      </trkpt>
      <trkpt lat="52.17097" lon="4.488903">
        <ele>2000.0</ele>
        <time>2020-09-21T08:34:57Z</time>
      </trkpt>
      <trkpt lat="52.171" lon="4.488929">
        <ele>2000.0</ele>
        <time>2020-09-21T08:34:59Z</time>
      </trkpt>
      <trkpt lat="52.17104" lon="4.4889507">
        <ele>2000.0</ele>
        <time>2020-09-21T08:34:59Z</time>
      </trkpt>
      <trkpt lat="52.17108" lon="4.4889684">
        <ele>2000.0</ele>
        <time>2020-09-21T08:35:00Z</time>
      </trkpt>
      <trkpt lat="52.17112" lon="4.4889817">
        <ele>2000.0</ele>
        <time>2020-09-21T08:35:01Z</time>
      </trkpt>
      <trkpt lat="52.17116" lon="4.4889927">
        <ele>2000.0</ele>
        <time>2020-09-21T08:35:02Z</time>
      </trkpt>
      <trkpt lat="52.171192" lon="4.489001">
        <ele>2000.0</ele>
        <time>2020-09-21T08:35:03Z</time>
      </trkpt>
      <trkpt lat="52.171223" lon="4.4890084">
        <ele>2000.0</ele>
        <time>2020-09-21T08:35:04Z</time>
      </trkpt>
      <trkpt lat="52.171257" lon="4.4890127">
        <ele>2000.0</ele>
        <time>2020-09-21T08:35:05Z</time>
      </trkpt>
      <trkpt lat="52.17129" lon="4.4890175">
        <ele>2000.0</ele>
        <time>2020-09-21T08:35:06Z</time>
      </trkpt>
      <trkpt lat="52.17132" lon="4.489025">
        <ele>2000.0</ele>
        <time>2020-09-21T08:35:07Z</time>
      </trkpt>
      <trkpt lat="52.17233" lon="4.4885817">
        <ele>2000.0</ele>
        <time>2020-09-21T08:35:26Z</time>
      </trkpt>
      <trkpt lat="52.172318" lon="4.488568">
        <ele>2000.0</ele>
        <time>2020-09-21T08:35:28Z</time>
      </trkpt>
      <trkpt lat="52.1723" lon="4.4885426">
        <ele>2000.0</ele>
        <time>2020-09-21T08:35:28Z</time>
      </trkpt>
      <trkpt lat="52.17231" lon="4.488494">
        <ele>2000.0</ele>
        <time>2020-09-21T08:35:29Z</time>
      </trkpt>
      <trkpt lat="52.17231" lon="4.488453">
        <ele>2000.0</ele>
        <time>2020-09-21T08:35:30Z</time>
      </trkpt>
      <trkpt lat="52.172318" lon="4.4884124">
        <ele>2000.0</ele>
        <time>2020-09-21T08:35:31Z</time>
      </trkpt>
      <trkpt lat="52.172333" lon="4.4883695">
        <ele>2000.0</ele>
        <time>2020-09-21T08:35:32Z</time>
      </trkpt>
      <trkpt lat="52.17236" lon="4.4883256">
        <ele>2000.0</ele>
        <time>2020-09-21T08:35:33Z</time>
      </trkpt>
      <trkpt lat="52.17238" lon="4.48828">
        <ele>2000.0</ele>
        <time>2020-09-21T08:35:34Z</time>
      </trkpt>
      <trkpt lat="52.1724" lon="4.488237">
        <ele>2000.0</ele>
        <time>2020-09-21T08:35:35Z</time>
      </trkpt>
      <trkpt lat="52.17243" lon="4.4881964">
        <ele>2000.0</ele>
        <time>2020-09-21T08:35:37Z</time>
      </trkpt>
      <trkpt lat="52.17245" lon="4.4881563">
        <ele>2000.0</ele>
        <time>2020-09-21T08:35:37Z</time>
      </trkpt>
      <trkpt lat="52.17248" lon="4.4881177">
        <ele>2000.0</ele>
        <time>2020-09-21T08:35:38Z</time>
      </trkpt>
      <trkpt lat="52.172512" lon="4.4880776">
        <ele>2000.0</ele>
        <time>2020-09-21T08:35:39Z</time>
      </trkpt>
      <trkpt lat="52.172543" lon="4.4880385">
        <ele>2000.0</ele>
        <time>2020-09-21T08:35:40Z</time>
      </trkpt>
      <trkpt lat="52.17257" lon="4.4880037">
        <ele>2000.0</ele>
        <time>2020-09-21T08:35:41Z</time>
      </trkpt>
      <trkpt lat="52.172604" lon="4.4879675">
        <ele>2000.0</ele>
        <time>2020-09-21T08:35:42Z</time>
      </trkpt>
      <trkpt lat="52.172638" lon="4.487937">
        <ele>2000.0</ele>
        <time>2020-09-21T08:35:43Z</time>
      </trkpt>
      <trkpt lat="52.172672" lon="4.4879103">
        <ele>2000.0</ele>
        <time>2020-09-21T08:35:44Z</time>
      </trkpt>
      <trkpt lat="52.172707" lon="4.487885">
        <ele>2000.0</ele>
        <time>2020-09-21T08:35:45Z</time>
      </trkpt>
      <trkpt lat="52.172737" lon="4.4878616">
        <ele>2000.0</ele>
        <time>2020-09-21T08:35:46Z</time>
      </trkpt>
      <trkpt lat="52.172775" lon="4.4878373">
        <ele>2000.0</ele>
        <time>2020-09-21T08:35:47Z</time>
      </trkpt>
      <trkpt lat="52.172817" lon="4.487814">
        <ele>2000.0</ele>
        <time>2020-09-21T08:35:48Z</time>
      </trkpt>
      <trkpt lat="52.17285" lon="4.4877934">
        <ele>2000.0</ele>
        <time>2020-09-21T08:35:49Z</time>
      </trkpt>
      <trkpt lat="52.172886" lon="4.4877725">
        <ele>2000.0</ele>
        <time>2020-09-21T08:35:50Z</time>
      </trkpt>
      <trkpt lat="52.172924" lon="4.487753">
        <ele>2000.0</ele>
        <time>2020-09-21T08:35:51Z</time>
      </trkpt>
      <trkpt lat="52.17296" lon="4.487734">
        <ele>2000.0</ele>
        <time>2020-09-21T08:35:52Z</time>
      </trkpt>
      <trkpt lat="52.17299" lon="4.487716">
        <ele>2000.0</ele>
        <time>2020-09-21T08:35:53Z</time>
      </trkpt>
      <trkpt lat="52.17302" lon="4.4877005">
        <ele>2000.0</ele>
        <time>2020-09-21T08:35:54Z</time>
      </trkpt>
      <trkpt lat="52.17305" lon="4.4876842">
        <ele>2000.0</ele>
        <time>2020-09-21T08:35:56Z</time>
      </trkpt>
      <trkpt lat="52.17308" lon="4.4876676">
        <ele>2000.0</ele>
        <time>2020-09-21T08:35:56Z</time>
      </trkpt>
      <trkpt lat="52.17311" lon="4.4876494">
        <ele>2000.0</ele>
        <time>2020-09-21T08:35:57Z</time>
      </trkpt>
      <trkpt lat="52.17314" lon="4.48763">
        <ele>2000.0</ele>
        <time>2020-09-21T08:35:58Z</time>
      </trkpt>
      <trkpt lat="52.173164" lon="4.4876122">
        <ele>2000.0</ele>
        <time>2020-09-21T08:35:59Z</time>
      </trkpt>
      <trkpt lat="52.173187" lon="4.487597">
        <ele>2000.0</ele>
        <time>2020-09-21T08:36:00Z</time>
      </trkpt>
      <trkpt lat="52.17322" lon="4.4875855">
        <ele>2000.0</ele>
        <time>2020-09-21T08:36:01Z</time>
      </trkpt>
      <trkpt lat="52.17326" lon="4.4875627">
        <ele>2000.0</ele>
        <time>2020-09-21T08:36:03Z</time>
      </trkpt>
      <trkpt lat="52.173298" lon="4.487542">
        <ele>2000.0</ele>
        <time>2020-09-21T08:36:03Z</time>
      </trkpt>
      <trkpt lat="52.173336" lon="4.4875245">
        <ele>2000.0</ele>
        <time>2020-09-21T08:36:04Z</time>
      </trkpt>
      <trkpt lat="52.173374" lon="4.487505">
        <ele>2000.0</ele>
        <time>2020-09-21T08:36:05Z</time>
      </trkpt>
      <trkpt lat="52.173405" lon="4.4874825">
        <ele>2000.0</ele>
        <time>2020-09-21T08:36:06Z</time>
      </trkpt>
      <trkpt lat="52.173435" lon="4.487459">
        <ele>2000.0</ele>
        <time>2020-09-21T08:36:07Z</time>
      </trkpt>
      <trkpt lat="52.173466" lon="4.487432">
        <ele>2000.0</ele>
        <time>2020-09-21T08:36:08Z</time>
      </trkpt>
      <trkpt lat="52.1735" lon="4.4874043">
        <ele>2000.0</ele>
        <time>2020-09-21T08:36:09Z</time>
      </trkpt>
      <trkpt lat="52.17353" lon="4.487378">
        <ele>2000.0</ele>
        <time>2020-09-21T08:36:10Z</time>
      </trkpt>
      <trkpt lat="52.17357" lon="4.487354">
        <ele>2000.0</ele>
        <time>2020-09-21T08:36:11Z</time>
      </trkpt>
      <trkpt lat="52.1736" lon="4.487334">
        <ele>2000.0</ele>
        <time>2020-09-21T08:36:12Z</time>
      </trkpt>
      <trkpt lat="52.173634" lon="4.4873176">
        <ele>2000.0</ele>
        <time>2020-09-21T08:36:14Z</time>
      </trkpt>
      <trkpt lat="52.17367" lon="4.4873023">
        <ele>2000.0</ele>
        <time>2020-09-21T08:36:14Z</time>
      </trkpt>
      <trkpt lat="52.173717" lon="4.487289">
        <ele>2000.0</ele>
        <time>2020-09-21T08:36:15Z</time>
      </trkpt>
      <trkpt lat="52.17375" lon="4.4872756">
        <ele>2000.0</ele>
        <time>2020-09-21T08:36:16Z</time>
      </trkpt>
      <trkpt lat="52.173794" lon="4.487264">
        <ele>2000.0</ele>
        <time>2020-09-21T08:36:17Z</time>
      </trkpt>
      <trkpt lat="52.173824" lon="4.4872556">
        <ele>2000.0</ele>
        <time>2020-09-21T08:36:18Z</time>
      </trkpt>
      <trkpt lat="52.17386" lon="4.487254">
        <ele>2000.0</ele>
        <time>2020-09-21T08:36:19Z</time>
      </trkpt>
      <trkpt lat="52.173885" lon="4.487261">
        <ele>2000.0</ele>
        <time>2020-09-21T08:36:20Z</time>
      </trkpt>
      <trkpt lat="52.173912" lon="4.487276">
        <ele>2000.0</ele>
        <time>2020-09-21T08:36:21Z</time>
      </trkpt>
      <trkpt lat="52.173927" lon="4.487297">
        <ele>2000.0</ele>
        <time>2020-09-21T08:36:22Z</time>
      </trkpt>
      <trkpt lat="52.173943" lon="4.4873223">
        <ele>2000.0</ele>
        <time>2020-09-21T08:36:23Z</time>
      </trkpt>
      <trkpt lat="52.17395" lon="4.48735">
        <ele>2000.0</ele>
        <time>2020-09-21T08:36:24Z</time>
      </trkpt>
      <trkpt lat="52.17396" lon="4.48738">
        <ele>2000.0</ele>
        <time>2020-09-21T08:36:25Z</time>
      </trkpt>
      <trkpt lat="52.173965" lon="4.487417">
        <ele>2000.0</ele>
        <time>2020-09-21T08:36:26Z</time>
      </trkpt>
      <trkpt lat="52.173977" lon="4.4874535">
        <ele>2000.0</ele>
        <time>2020-09-21T08:36:26Z</time>
      </trkpt>
      <trkpt lat="52.173985" lon="4.487488">
        <ele>2000.0</ele>
        <time>2020-09-21T08:36:27Z</time>
      </trkpt>
      <trkpt lat="52.173992" lon="4.4875197">
        <ele>2000.0</ele>
        <time>2020-09-21T08:36:28Z</time>
      </trkpt>
      <trkpt lat="52.174004" lon="4.4875464">
        <ele>2000.0</ele>
        <time>2020-09-21T08:36:29Z</time>
      </trkpt>
      <trkpt lat="52.174023" lon="4.4875674">
        <ele>2000.0</ele>
        <time>2020-09-21T08:36:30Z</time>
      </trkpt>
      <trkpt lat="52.174038" lon="4.487583">
        <ele>2000.0</ele>
        <time>2020-09-21T08:36:31Z</time>
      </trkpt>
      <trkpt lat="52.174053" lon="4.4875927">
        <ele>2000.0</ele>
        <time>2020-09-21T08:36:32Z</time>
      </trkpt>
      <trkpt lat="52.174076" lon="4.487595">
        <ele>2000.0</ele>
        <time>2020-09-21T08:36:34Z</time>
      </trkpt>
      <trkpt lat="52.17409" lon="4.487593">
        <ele>2000.0</ele>
        <time>2020-09-21T08:36:34Z</time>
      </trkpt>
      <trkpt lat="52.17411" lon="4.4875875">
        <ele>2000.0</ele>
        <time>2020-09-21T08:36:35Z</time>
      </trkpt>
      <trkpt lat="52.174126" lon="4.487579">
        <ele>2000.0</ele>
        <time>2020-09-21T08:36:36Z</time>
      </trkpt>
      <trkpt lat="52.174145" lon="4.487572">
        <ele>2000.0</ele>
        <time>2020-09-21T08:36:37Z</time>
      </trkpt>
      <trkpt lat="52.174168" lon="4.4875665">
        <ele>2000.0</ele>
        <time>2020-09-21T08:36:38Z</time>
      </trkpt>
      <trkpt lat="52.174194" lon="4.4875617">
        <ele>2000.0</ele>
        <time>2020-09-21T08:36:39Z</time>
      </trkpt>
      <trkpt lat="52.174217" lon="4.487557">
        <ele>2000.0</ele>
        <time>2020-09-21T08:36:40Z</time>
      </trkpt>
      <trkpt lat="52.174244" lon="4.48755">
        <ele>2000.0</ele>
        <time>2020-09-21T08:36:41Z</time>
      </trkpt>
      <trkpt lat="52.17427" lon="4.48754">
        <ele>2000.0</ele>
        <time>2020-09-21T08:36:42Z</time>
      </trkpt>
      <trkpt lat="52.1743" lon="4.4875298">
        <ele>2000.0</ele>
        <time>2020-09-21T08:36:43Z</time>
      </trkpt>
      <trkpt lat="52.17433" lon="4.487521">
        <ele>2000.0</ele>
        <time>2020-09-21T08:36:45Z</time>
      </trkpt>
      <trkpt lat="52.174362" lon="4.4875135">
        <ele>2000.0</ele>
        <time>2020-09-21T08:36:45Z</time>
      </trkpt>
      <trkpt lat="52.174393" lon="4.487506">
        <ele>2000.0</ele>
        <time>2020-09-21T08:36:46Z</time>
      </trkpt>
      <trkpt lat="52.174423" lon="4.4874964">
        <ele>2000.0</ele>
        <time>2020-09-21T08:36:47Z</time>
      </trkpt>
      <trkpt lat="52.174458" lon="4.4874864">
        <ele>2000.0</ele>
        <time>2020-09-21T08:36:48Z</time>
      </trkpt>
      <trkpt lat="52.174496" lon="4.4874754">
        <ele>2000.0</ele>
        <time>2020-09-21T08:36:49Z</time>
      </trkpt>
      <trkpt lat="52.17453" lon="4.4874587">
        <ele>2000.0</ele>
        <time>2020-09-21T08:36:50Z</time>
      </trkpt>
      <trkpt lat="52.174572" lon="4.487438">
        <ele>2000.0</ele>
        <time>2020-09-21T08:36:51Z</time>
      </trkpt>
      <trkpt lat="52.174606" lon="4.4874167">
        <ele>2000.0</ele>
        <time>2020-09-21T08:36:52Z</time>
      </trkpt>
      <trkpt lat="52.17465" lon="4.4873962">
        <ele>2000.0</ele>
        <time>2020-09-21T08:36:53Z</time>
      </trkpt>
      <trkpt lat="52.174683" lon="4.4873753">
        <ele>2000.0</ele>
        <time>2020-09-21T08:36:55Z</time>
      </trkpt>
      <trkpt lat="52.17472" lon="4.487354">
        <ele>2000.0</ele>
        <time>2020-09-21T08:36:55Z</time>
      </trkpt>
      <trkpt lat="52.174755" lon="4.4873333">
        <ele>2000.0</ele>
        <time>2020-09-21T08:36:56Z</time>
      </trkpt>
      <trkpt lat="52.174793" lon="4.4873157">
        <ele>2000.0</ele>
        <time>2020-09-21T08:36:57Z</time>
      </trkpt>
      <trkpt lat="52.174828" lon="4.4873033">
        <ele>2000.0</ele>
        <time>2020-09-21T08:36:58Z</time>
      </trkpt>
      <trkpt lat="52.174862" lon="4.487295">
        <ele>2000.0</ele>
        <time>2020-09-21T08:36:59Z</time>
      </trkpt>
      <trkpt lat="52.1749" lon="4.487288">
        <ele>2000.0</ele>
        <time>2020-09-21T08:37:00Z</time>
      </trkpt>
      <trkpt lat="52.17493" lon="4.4872813">
        <ele>2000.0</ele>
        <time>2020-09-21T08:37:01Z</time>
      </trkpt>
      <trkpt lat="52.174965" lon="4.4872766">
        <ele>2000.0</ele>
        <time>2020-09-21T08:37:03Z</time>
      </trkpt>
      <trkpt lat="52.174995" lon="4.487272">
        <ele>2000.0</ele>
        <time>2020-09-21T08:37:03Z</time>
      </trkpt>
      <trkpt lat="52.175034" lon="4.487269">
        <ele>2000.0</ele>
        <time>2020-09-21T08:37:04Z</time>
      </trkpt>
      <trkpt lat="52.175068" lon="4.487264">
        <ele>2000.0</ele>
        <time>2020-09-21T08:37:05Z</time>
      </trkpt>
      <trkpt lat="52.1751" lon="4.48726">
        <ele>2000.0</ele>
        <time>2020-09-21T08:37:06Z</time>
      </trkpt>
      <trkpt lat="52.175137" lon="4.487255">
        <ele>2000.0</ele>
        <time>2020-09-21T08:37:07Z</time>
      </trkpt>
      <trkpt lat="52.17517" lon="4.4872537">
        <ele>2000.0</ele>
        <time>2020-09-21T08:37:08Z</time>
      </trkpt>
      <trkpt lat="52.1752" lon="4.4872513">
        <ele>2000.0</ele>
        <time>2020-09-21T08:37:09Z</time>
      </trkpt>
      <trkpt lat="52.175232" lon="4.4872484">
        <ele>2000.0</ele>
        <time>2020-09-21T08:37:10Z</time>
      </trkpt>
      <trkpt lat="52.175262" lon="4.487243">
        <ele>2000.0</ele>
        <time>2020-09-21T08:37:11Z</time>
      </trkpt>
      <trkpt lat="52.175297" lon="4.487237">
        <ele>2000.0</ele>
        <time>2020-09-21T08:37:12Z</time>
      </trkpt>
      <trkpt lat="52.175335" lon="4.4872303">
        <ele>2000.0</ele>
        <time>2020-09-21T08:37:14Z</time>
      </trkpt>
      <trkpt lat="52.17537" lon="4.487223">
        <ele>2000.0</ele>
        <time>2020-09-21T08:37:14Z</time>
      </trkpt>
      <trkpt lat="52.175407" lon="4.4872174">
        <ele>2000.0</ele>
        <time>2020-09-21T08:37:15Z</time>
      </trkpt>
      <trkpt lat="52.17544" lon="4.4872136">
        <ele>2000.0</ele>
        <time>2020-09-21T08:37:16Z</time>
      </trkpt>
      <trkpt lat="52.175476" lon="4.487211">
        <ele>2000.0</ele>
        <time>2020-09-21T08:37:17Z</time>
      </trkpt>
      <trkpt lat="52.175507" lon="4.4872084">
        <ele>2000.0</ele>
        <time>2020-09-21T08:37:18Z</time>
      </trkpt>
      <trkpt lat="52.17554" lon="4.4872084">
        <ele>2000.0</ele>
        <time>2020-09-21T08:37:19Z</time>
      </trkpt>
      <trkpt lat="52.175575" lon="4.487206">
        <ele>2000.0</ele>
        <time>2020-09-21T08:37:20Z</time>
      </trkpt>
      <trkpt lat="52.17561" lon="4.487203">
        <ele>2000.0</ele>
        <time>2020-09-21T08:37:21Z</time>
      </trkpt>
      <trkpt lat="52.175655" lon="4.487197">
        <ele>2000.0</ele>
        <time>2020-09-21T08:37:22Z</time>
      </trkpt>
      <trkpt lat="52.175697" lon="4.4871907">
        <ele>2000.0</ele>
        <time>2020-09-21T08:37:23Z</time>
      </trkpt>
      <trkpt lat="52.17574" lon="4.487183">
        <ele>2000.0</ele>
        <time>2020-09-21T08:37:24Z</time>
      </trkpt>
      <trkpt lat="52.17578" lon="4.487176">
        <ele>2000.0</ele>
        <time>2020-09-21T08:37:25Z</time>
      </trkpt>
      <trkpt lat="52.175816" lon="4.4871683">
        <ele>2000.0</ele>
        <time>2020-09-21T08:37:26Z</time>
      </trkpt>
      <trkpt lat="52.175846" lon="4.48716">
        <ele>2000.0</ele>
        <time>2020-09-21T08:37:28Z</time>
      </trkpt>
      <trkpt lat="52.17588" lon="4.4871497">
        <ele>2000.0</ele>
        <time>2020-09-21T08:37:28Z</time>
      </trkpt>
      <trkpt lat="52.175922" lon="4.4871387">
        <ele>2000.0</ele>
        <time>2020-09-21T08:37:29Z</time>
      </trkpt>
      <trkpt lat="52.175964" lon="4.4871306">
        <ele>2000.0</ele>
        <time>2020-09-21T08:37:30Z</time>
      </trkpt>
      <trkpt lat="52.176006" lon="4.4871244">
        <ele>2000.0</ele>
        <time>2020-09-21T08:37:31Z</time>
      </trkpt>
      <trkpt lat="52.17604" lon="4.4871154">
        <ele>2000.0</ele>
        <time>2020-09-21T08:37:32Z</time>
      </trkpt>
      <trkpt lat="52.176083" lon="4.4871044">
        <ele>2000.0</ele>
        <time>2020-09-21T08:37:33Z</time>
      </trkpt>
      <trkpt lat="52.176117" lon="4.4870944">
        <ele>2000.0</ele>
        <time>2020-09-21T08:37:34Z</time>
      </trkpt>
      <trkpt lat="52.176147" lon="4.4870844">
        <ele>2000.0</ele>
        <time>2020-09-21T08:37:35Z</time>
      </trkpt>
      <trkpt lat="52.17619" lon="4.487075">
        <ele>2000.0</ele>
        <time>2020-09-21T08:37:36Z</time>
      </trkpt>
      <trkpt lat="52.176224" lon="4.4870687">
        <ele>2000.0</ele>
        <time>2020-09-21T08:37:37Z</time>
      </trkpt>
      <trkpt lat="52.176254" lon="4.4870625">
        <ele>2000.0</ele>
        <time>2020-09-21T08:37:39Z</time>
      </trkpt>
      <trkpt lat="52.17629" lon="4.487055">
        <ele>2000.0</ele>
        <time>2020-09-21T08:37:39Z</time>
      </trkpt>
      <trkpt lat="52.17631" lon="4.487047">
        <ele>2000.0</ele>
        <time>2020-09-21T08:37:40Z</time>
      </trkpt>
      <trkpt lat="52.17635" lon="4.4870386">
        <ele>2000.0</ele>
        <time>2020-09-21T08:37:41Z</time>
      </trkpt>
      <trkpt lat="52.17638" lon="4.487031">
        <ele>2000.0</ele>
        <time>2020-09-21T08:37:42Z</time>
      </trkpt>
      <trkpt lat="52.176414" lon="4.487025">
        <ele>2000.0</ele>
        <time>2020-09-21T08:37:43Z</time>
      </trkpt>
      <trkpt lat="52.176445" lon="4.487021">
        <ele>2000.0</ele>
        <time>2020-09-21T08:37:44Z</time>
      </trkpt>
      <trkpt lat="52.176476" lon="4.4870176">
        <ele>2000.0</ele>
        <time>2020-09-21T08:37:45Z</time>
      </trkpt>
      <trkpt lat="52.176517" lon="4.4870143">
        <ele>2000.0</ele>
        <time>2020-09-21T08:37:46Z</time>
      </trkpt>
      <trkpt lat="52.17655" lon="4.487012">
        <ele>2000.0</ele>
        <time>2020-09-21T08:37:47Z</time>
      </trkpt>
      <trkpt lat="52.176594" lon="4.487008">
        <ele>2000.0</ele>
        <time>2020-09-21T08:37:48Z</time>
      </trkpt>
      <trkpt lat="52.17663" lon="4.487">
        <ele>2000.0</ele>
        <time>2020-09-21T08:37:49Z</time>
      </trkpt>
      <trkpt lat="52.17667" lon="4.486987">
        <ele>2000.0</ele>
        <time>2020-09-21T08:37:50Z</time>
      </trkpt>
      <trkpt lat="52.17671" lon="4.4869704">
        <ele>2000.0</ele>
        <time>2020-09-21T08:37:51Z</time>
      </trkpt>
      <trkpt lat="52.176743" lon="4.4869537">
        <ele>2000.0</ele>
        <time>2020-09-21T08:37:52Z</time>
      </trkpt>
      <trkpt lat="52.176785" lon="4.486936">
        <ele>2000.0</ele>
        <time>2020-09-21T08:37:53Z</time>
      </trkpt>
      <trkpt lat="52.176815" lon="4.486921">
        <ele>2000.0</ele>
        <time>2020-09-21T08:37:54Z</time>
      </trkpt>
      <trkpt lat="52.17685" lon="4.486904">
        <ele>2000.0</ele>
        <time>2020-09-21T08:37:55Z</time>
      </trkpt>
      <trkpt lat="52.17688" lon="4.486889">
        <ele>2000.0</ele>
        <time>2020-09-21T08:37:57Z</time>
      </trkpt>
      <trkpt lat="52.17691" lon="4.486877">
        <ele>2000.0</ele>
        <time>2020-09-21T08:37:57Z</time>
      </trkpt>
      <trkpt lat="52.176937" lon="4.486865">
        <ele>2000.0</ele>
        <time>2020-09-21T08:37:58Z</time>
      </trkpt>
      <trkpt lat="52.176968" lon="4.4868507">
        <ele>2000.0</ele>
        <time>2020-09-21T08:37:59Z</time>
      </trkpt>
      <trkpt lat="52.176994" lon="4.486831">
        <ele>2000.0</ele>
        <time>2020-09-21T08:38:00Z</time>
      </trkpt>
      <trkpt lat="52.177017" lon="4.486808">
        <ele>2000.0</ele>
        <time>2020-09-21T08:38:01Z</time>
      </trkpt>
      <trkpt lat="52.177044" lon="4.486782">
        <ele>2000.0</ele>
        <time>2020-09-21T08:38:02Z</time>
      </trkpt>
      <trkpt lat="52.177067" lon="4.4867525">
        <ele>2000.0</ele>
        <time>2020-09-21T08:38:03Z</time>
      </trkpt>
      <trkpt lat="52.17709" lon="4.486719">
        <ele>2000.0</ele>
        <time>2020-09-21T08:38:04Z</time>
      </trkpt>
      <trkpt lat="52.177113" lon="4.4866815">
        <ele>2000.0</ele>
        <time>2020-09-21T08:38:05Z</time>
      </trkpt>
      <trkpt lat="52.177143" lon="4.486636">
        <ele>2000.0</ele>
        <time>2020-09-21T08:38:06Z</time>
      </trkpt>
      <trkpt lat="52.177166" lon="4.486589">
        <ele>2000.0</ele>
        <time>2020-09-21T08:38:07Z</time>
      </trkpt>
      <trkpt lat="52.177193" lon="4.486544">
        <ele>2000.0</ele>
        <time>2020-09-21T08:38:08Z</time>
      </trkpt>
      <trkpt lat="52.17722" lon="4.4865003">
        <ele>2000.0</ele>
        <time>2020-09-21T08:38:09Z</time>
      </trkpt>
      <trkpt lat="52.17724" lon="4.486457">
        <ele>2000.0</ele>
        <time>2020-09-21T08:38:10Z</time>
      </trkpt>
      <trkpt lat="52.17726" lon="4.486413">
        <ele>2000.0</ele>
        <time>2020-09-21T08:38:11Z</time>
      </trkpt>
      <trkpt lat="52.17728" lon="4.4863696">
        <ele>2000.0</ele>
        <time>2020-09-21T08:38:12Z</time>
      </trkpt>
      <trkpt lat="52.177307" lon="4.4863243">
        <ele>2000.0</ele>
        <time>2020-09-21T08:38:13Z</time>
      </trkpt>
      <trkpt lat="52.177326" lon="4.4862833">
        <ele>2000.0</ele>
        <time>2020-09-21T08:38:14Z</time>
      </trkpt>
      <trkpt lat="52.177345" lon="4.486243">
        <ele>2000.0</ele>
        <time>2020-09-21T08:38:15Z</time>
      </trkpt>
      <trkpt lat="52.177372" lon="4.486199">
        <ele>2000.0</ele>
        <time>2020-09-21T08:38:16Z</time>
      </trkpt>
      <trkpt lat="52.17739" lon="4.4861517">
        <ele>2000.0</ele>
        <time>2020-09-21T08:38:17Z</time>
      </trkpt>
      <trkpt lat="52.177414" lon="4.486107">
        <ele>2000.0</ele>
        <time>2020-09-21T08:38:18Z</time>
      </trkpt>
      <trkpt lat="52.177433" lon="4.486062">
        <ele>2000.0</ele>
        <time>2020-09-21T08:38:19Z</time>
      </trkpt>
      <trkpt lat="52.177456" lon="4.4860125">
        <ele>2000.0</ele>
        <time>2020-09-21T08:38:20Z</time>
      </trkpt>
      <trkpt lat="52.177475" lon="4.4859657">
        <ele>2000.0</ele>
        <time>2020-09-21T08:38:21Z</time>
      </trkpt>
      <trkpt lat="52.17749" lon="4.4859214">
        <ele>2000.0</ele>
        <time>2020-09-21T08:38:22Z</time>
      </trkpt>
      <trkpt lat="52.17751" lon="4.4858794">
        <ele>2000.0</ele>
        <time>2020-09-21T08:38:23Z</time>
      </trkpt>
      <trkpt lat="52.177536" lon="4.485839">
        <ele>2000.0</ele>
        <time>2020-09-21T08:38:25Z</time>
      </trkpt>
      <trkpt lat="52.177555" lon="4.4857936">
        <ele>2000.0</ele>
        <time>2020-09-21T08:38:25Z</time>
      </trkpt>
      <trkpt lat="52.17758" lon="4.48575">
        <ele>2000.0</ele>
        <time>2020-09-21T08:38:26Z</time>
      </trkpt>
      <trkpt lat="52.1776" lon="4.485705">
        <ele>2000.0</ele>
        <time>2020-09-21T08:38:27Z</time>
      </trkpt>
      <trkpt lat="52.177616" lon="4.485661">
        <ele>2000.0</ele>
        <time>2020-09-21T08:38:28Z</time>
      </trkpt>
      <trkpt lat="52.17763" lon="4.485622">
        <ele>2000.0</ele>
        <time>2020-09-21T08:38:29Z</time>
      </trkpt>
      <trkpt lat="52.17765" lon="4.4855857">
        <ele>2000.0</ele>
        <time>2020-09-21T08:38:30Z</time>
      </trkpt>
      <trkpt lat="52.177666" lon="4.4855537">
        <ele>2000.0</ele>
        <time>2020-09-21T08:38:31Z</time>
      </trkpt>
      <trkpt lat="52.17768" lon="4.4855237">
        <ele>2000.0</ele>
        <time>2020-09-21T08:38:32Z</time>
      </trkpt>
      <trkpt lat="52.177696" lon="4.4854903">
        <ele>2000.0</ele>
        <time>2020-09-21T08:38:33Z</time>
      </trkpt>
      <trkpt lat="52.177715" lon="4.4854565">
        <ele>2000.0</ele>
        <time>2020-09-21T08:38:34Z</time>
      </trkpt>
      <trkpt lat="52.17773" lon="4.4854217">
        <ele>2000.0</ele>
        <time>2020-09-21T08:38:36Z</time>
      </trkpt>
      <trkpt lat="52.177746" lon="4.4853883">
        <ele>2000.0</ele>
        <time>2020-09-21T08:38:36Z</time>
      </trkpt>
      <trkpt lat="52.17776" lon="4.4853554">
        <ele>2000.0</ele>
        <time>2020-09-21T08:38:37Z</time>
      </trkpt>
      <trkpt lat="52.177776" lon="4.48532">
        <ele>2000.0</ele>
        <time>2020-09-21T08:38:38Z</time>
      </trkpt>
      <trkpt lat="52.17779" lon="4.485288">
        <ele>2000.0</ele>
        <time>2020-09-21T08:38:39Z</time>
      </trkpt>
      <trkpt lat="52.177803" lon="4.485256">
        <ele>2000.0</ele>
        <time>2020-09-21T08:38:40Z</time>
      </trkpt>
      <trkpt lat="52.17781" lon="4.485226">
        <ele>2000.0</ele>
        <time>2020-09-21T08:38:41Z</time>
      </trkpt>
      <trkpt lat="52.17783" lon="4.4851956">
        <ele>2000.0</ele>
        <time>2020-09-21T08:38:42Z</time>
      </trkpt>
      <trkpt lat="52.177845" lon="4.4851656">
        <ele>2000.0</ele>
        <time>2020-09-21T08:38:43Z</time>
      </trkpt>
      <trkpt lat="52.177853" lon="4.4851356">
        <ele>2000.0</ele>
        <time>2020-09-21T08:38:44Z</time>
      </trkpt>
      <trkpt lat="52.177868" lon="4.485103">
        <ele>2000.0</ele>
        <time>2020-09-21T08:38:45Z</time>
      </trkpt>
      <trkpt lat="52.177883" lon="4.4850698">
        <ele>2000.0</ele>
        <time>2020-09-21T08:38:46Z</time>
      </trkpt>
      <trkpt lat="52.1779" lon="4.4850345">
        <ele>2000.0</ele>
        <time>2020-09-21T08:38:47Z</time>
      </trkpt>
      <trkpt lat="52.17792" lon="4.484995">
        <ele>2000.0</ele>
        <time>2020-09-21T08:38:48Z</time>
      </trkpt>
      <trkpt lat="52.17794" lon="4.4849586">
        <ele>2000.0</ele>
        <time>2020-09-21T08:38:49Z</time>
      </trkpt>
      <trkpt lat="52.17796" lon="4.4849253">
        <ele>2000.0</ele>
        <time>2020-09-21T08:38:50Z</time>
      </trkpt>
      <trkpt lat="52.177982" lon="4.4848924">
        <ele>2000.0</ele>
        <time>2020-09-21T08:38:51Z</time>
      </trkpt>
      <trkpt lat="52.178" lon="4.4848585">
        <ele>2000.0</ele>
        <time>2020-09-21T08:38:52Z</time>
      </trkpt>
      <trkpt lat="52.178017" lon="4.4848213">
        <ele>2000.0</ele>
        <time>2020-09-21T08:38:53Z</time>
      </trkpt>
      <trkpt lat="52.17804" lon="4.484785">
        <ele>2000.0</ele>
        <time>2020-09-21T08:38:54Z</time>
      </trkpt>
      <trkpt lat="52.17806" lon="4.484748">
        <ele>2000.0</ele>
        <time>2020-09-21T08:38:56Z</time>
      </trkpt>
      <trkpt lat="52.178078" lon="4.4847097">
        <ele>2000.0</ele>
        <time>2020-09-21T08:38:56Z</time>
      </trkpt>
      <trkpt lat="52.178093" lon="4.484669">
        <ele>2000.0</ele>
        <time>2020-09-21T08:38:57Z</time>
      </trkpt>
      <trkpt lat="52.178116" lon="4.4846234">
        <ele>2000.0</ele>
        <time>2020-09-21T08:38:58Z</time>
      </trkpt>
      <trkpt lat="52.178135" lon="4.4845734">
        <ele>2000.0</ele>
        <time>2020-09-21T08:38:59Z</time>
      </trkpt>
      <trkpt lat="52.17816" lon="4.484524">
        <ele>2000.0</ele>
        <time>2020-09-21T08:39:00Z</time>
      </trkpt>
      <trkpt lat="52.17818" lon="4.484474">
        <ele>2000.0</ele>
        <time>2020-09-21T08:39:01Z</time>
      </trkpt>
      <trkpt lat="52.178207" lon="4.484425">
        <ele>2000.0</ele>
        <time>2020-09-21T08:39:02Z</time>
      </trkpt>
      <trkpt lat="52.178226" lon="4.4843764">
        <ele>2000.0</ele>
        <time>2020-09-21T08:39:03Z</time>
      </trkpt>
      <trkpt lat="52.178253" lon="4.4843264">
        <ele>2000.0</ele>
        <time>2020-09-21T08:39:04Z</time>
      </trkpt>
      <trkpt lat="52.17827" lon="4.4842787">
        <ele>2000.0</ele>
        <time>2020-09-21T08:39:05Z</time>
      </trkpt>
      <trkpt lat="52.178288" lon="4.484231">
        <ele>2000.0</ele>
        <time>2020-09-21T08:39:06Z</time>
      </trkpt>
      <trkpt lat="52.17831" lon="4.4841824">
        <ele>2000.0</ele>
        <time>2020-09-21T08:39:07Z</time>
      </trkpt>
      <trkpt lat="52.178326" lon="4.4841356">
        <ele>2000.0</ele>
        <time>2020-09-21T08:39:08Z</time>
      </trkpt>
      <trkpt lat="52.178345" lon="4.484091">
        <ele>2000.0</ele>
        <time>2020-09-21T08:39:10Z</time>
      </trkpt>
      <trkpt lat="52.178364" lon="4.4840455">
        <ele>2000.0</ele>
        <time>2020-09-21T08:39:10Z</time>
      </trkpt>
      <trkpt lat="52.17838" lon="4.4839973">
        <ele>2000.0</ele>
        <time>2020-09-21T08:39:11Z</time>
      </trkpt>
      <trkpt lat="52.178406" lon="4.4839487">
        <ele>2000.0</ele>
        <time>2020-09-21T08:39:12Z</time>
      </trkpt>
      <trkpt lat="52.17843" lon="4.483902">
        <ele>2000.0</ele>
        <time>2020-09-21T08:39:14Z</time>
      </trkpt>
      <trkpt lat="52.178448" lon="4.483852">
        <ele>2000.0</ele>
        <time>2020-09-21T08:39:14Z</time>
      </trkpt>
      <trkpt lat="52.178467" lon="4.4837985">
        <ele>2000.0</ele>
        <time>2020-09-21T08:39:15Z</time>
      </trkpt>
      <trkpt lat="52.17849" lon="4.483745">
        <ele>2000.0</ele>
        <time>2020-09-21T08:39:16Z</time>
      </trkpt>
      <trkpt lat="52.178513" lon="4.483692">
        <ele>2000.0</ele>
        <time>2020-09-21T08:39:17Z</time>
      </trkpt>
      <trkpt lat="52.178535" lon="4.483644">
        <ele>2000.0</ele>
        <time>2020-09-21T08:39:18Z</time>
      </trkpt>
      <trkpt lat="52.178555" lon="4.4835978">
        <ele>2000.0</ele>
        <time>2020-09-21T08:39:19Z</time>
      </trkpt>
      <trkpt lat="52.178574" lon="4.483553">
        <ele>2000.0</ele>
        <time>2020-09-21T08:39:20Z</time>
      </trkpt>
      <trkpt lat="52.17859" lon="4.483512">
        <ele>2000.0</ele>
        <time>2020-09-21T08:39:21Z</time>
      </trkpt>
      <trkpt lat="52.17861" lon="4.483473">
        <ele>2000.0</ele>
        <time>2020-09-21T08:39:22Z</time>
      </trkpt>
      <trkpt lat="52.17863" lon="4.4834366">
        <ele>2000.0</ele>
        <time>2020-09-21T08:39:23Z</time>
      </trkpt>
      <trkpt lat="52.178658" lon="4.4834037">
        <ele>2000.0</ele>
        <time>2020-09-21T08:39:24Z</time>
      </trkpt>
      <trkpt lat="52.178677" lon="4.483373">
        <ele>2000.0</ele>
        <time>2020-09-21T08:39:25Z</time>
      </trkpt>
      <trkpt lat="52.1787" lon="4.4833407">
        <ele>2000.0</ele>
        <time>2020-09-21T08:39:26Z</time>
      </trkpt>
      <trkpt lat="52.17872" lon="4.4833055">
        <ele>2000.0</ele>
        <time>2020-09-21T08:39:27Z</time>
      </trkpt>
      <trkpt lat="52.178738" lon="4.483269">
        <ele>2000.0</ele>
        <time>2020-09-21T08:39:28Z</time>
      </trkpt>
      <trkpt lat="52.17876" lon="4.4832315">
        <ele>2000.0</ele>
        <time>2020-09-21T08:39:29Z</time>
      </trkpt>
      <trkpt lat="52.178776" lon="4.4831963">
        <ele>2000.0</ele>
        <time>2020-09-21T08:39:30Z</time>
      </trkpt>
      <trkpt lat="52.17879" lon="4.4831624">
        <ele>2000.0</ele>
        <time>2020-09-21T08:39:31Z</time>
      </trkpt>
      <trkpt lat="52.17881" lon="4.483128">
        <ele>2000.0</ele>
        <time>2020-09-21T08:39:32Z</time>
      </trkpt>
      <trkpt lat="52.178825" lon="4.4830933">
        <ele>2000.0</ele>
        <time>2020-09-21T08:39:33Z</time>
      </trkpt>
      <trkpt lat="52.178852" lon="4.4830556">
        <ele>2000.0</ele>
        <time>2020-09-21T08:39:35Z</time>
      </trkpt>
      <trkpt lat="52.178867" lon="4.4830146">
        <ele>2000.0</ele>
        <time>2020-09-21T08:39:35Z</time>
      </trkpt>
      <trkpt lat="52.178883" lon="4.4829736">
        <ele>2000.0</ele>
        <time>2020-09-21T08:39:36Z</time>
      </trkpt>
      <trkpt lat="52.178898" lon="4.482932">
        <ele>2000.0</ele>
        <time>2020-09-21T08:39:37Z</time>
      </trkpt>
      <trkpt lat="52.178917" lon="4.482892">
        <ele>2000.0</ele>
        <time>2020-09-21T08:39:38Z</time>
      </trkpt>
      <trkpt lat="52.178944" lon="4.4828506">
        <ele>2000.0</ele>
        <time>2020-09-21T08:39:39Z</time>
      </trkpt>
      <trkpt lat="52.17897" lon="4.482806">
        <ele>2000.0</ele>
        <time>2020-09-21T08:39:40Z</time>
      </trkpt>
      <trkpt lat="52.17899" lon="4.4827595">
        <ele>2000.0</ele>
        <time>2020-09-21T08:39:41Z</time>
      </trkpt>
      <trkpt lat="52.179016" lon="4.482713">
        <ele>2000.0</ele>
        <time>2020-09-21T08:39:42Z</time>
      </trkpt>
      <trkpt lat="52.179035" lon="4.482669">
        <ele>2000.0</ele>
        <time>2020-09-21T08:39:43Z</time>
      </trkpt>
      <trkpt lat="52.17906" lon="4.4826283">
        <ele>2000.0</ele>
        <time>2020-09-21T08:39:44Z</time>
      </trkpt>
      <trkpt lat="52.17908" lon="4.482591">
        <ele>2000.0</ele>
        <time>2020-09-21T08:39:45Z</time>
      </trkpt>
      <trkpt lat="52.179104" lon="4.4825583">
        <ele>2000.0</ele>
        <time>2020-09-21T08:39:46Z</time>
      </trkpt>
      <trkpt lat="52.179123" lon="4.482527">
        <ele>2000.0</ele>
        <time>2020-09-21T08:39:47Z</time>
      </trkpt>
      <trkpt lat="52.17915" lon="4.482494">
        <ele>2000.0</ele>
        <time>2020-09-21T08:39:48Z</time>
      </trkpt>
      <trkpt lat="52.17917" lon="4.48246">
        <ele>2000.0</ele>
        <time>2020-09-21T08:39:49Z</time>
      </trkpt>
      <trkpt lat="52.1792" lon="4.4824247">
        <ele>2000.0</ele>
        <time>2020-09-21T08:39:50Z</time>
      </trkpt>
      <trkpt lat="52.179226" lon="4.482389">
        <ele>2000.0</ele>
        <time>2020-09-21T08:39:51Z</time>
      </trkpt>
      <trkpt lat="52.179253" lon="4.4823523">
        <ele>2000.0</ele>
        <time>2020-09-21T08:39:52Z</time>
      </trkpt>
      <trkpt lat="52.179283" lon="4.482316">
        <ele>2000.0</ele>
        <time>2020-09-21T08:39:53Z</time>
      </trkpt>
      <trkpt lat="52.179314" lon="4.4822807">
        <ele>2000.0</ele>
        <time>2020-09-21T08:39:54Z</time>
      </trkpt>
      <trkpt lat="52.179344" lon="4.4822497">
        <ele>2000.0</ele>
        <time>2020-09-21T08:39:55Z</time>
      </trkpt>
      <trkpt lat="52.17938" lon="4.482216">
        <ele>2000.0</ele>
        <time>2020-09-21T08:39:56Z</time>
      </trkpt>
      <trkpt lat="52.17941" lon="4.482177">
        <ele>2000.0</ele>
        <time>2020-09-21T08:39:57Z</time>
      </trkpt>
      <trkpt lat="52.179436" lon="4.482133">
        <ele>2000.0</ele>
        <time>2020-09-21T08:39:58Z</time>
      </trkpt>
      <trkpt lat="52.179466" lon="4.482092">
        <ele>2000.0</ele>
        <time>2020-09-21T08:39:59Z</time>
      </trkpt>
      <trkpt lat="52.179493" lon="4.4820466">
        <ele>2000.0</ele>
        <time>2020-09-21T08:40:00Z</time>
      </trkpt>
      <trkpt lat="52.179516" lon="4.482001">
        <ele>2000.0</ele>
        <time>2020-09-21T08:40:01Z</time>
      </trkpt>
      <trkpt lat="52.179546" lon="4.4819517">
        <ele>2000.0</ele>
        <time>2020-09-21T08:40:03Z</time>
      </trkpt>
      <trkpt lat="52.17958" lon="4.4819016">
        <ele>2000.0</ele>
        <time>2020-09-21T08:40:03Z</time>
      </trkpt>
      <trkpt lat="52.179604" lon="4.481857">
        <ele>2000.0</ele>
        <time>2020-09-21T08:40:04Z</time>
      </trkpt>
      <trkpt lat="52.17963" lon="4.481814">
        <ele>2000.0</ele>
        <time>2020-09-21T08:40:05Z</time>
      </trkpt>
      <trkpt lat="52.179657" lon="4.481777">
        <ele>2000.0</ele>
        <time>2020-09-21T08:40:06Z</time>
      </trkpt>
      <trkpt lat="52.179676" lon="4.481743">
        <ele>2000.0</ele>
        <time>2020-09-21T08:40:07Z</time>
      </trkpt>
      <trkpt lat="52.179703" lon="4.48171">
        <ele>2000.0</ele>
        <time>2020-09-21T08:40:08Z</time>
      </trkpt>
      <trkpt lat="52.179726" lon="4.4816813">
        <ele>2000.0</ele>
        <time>2020-09-21T08:40:09Z</time>
      </trkpt>
      <trkpt lat="52.179752" lon="4.481653">
        <ele>2000.0</ele>
        <time>2020-09-21T08:40:10Z</time>
      </trkpt>
      <trkpt lat="52.17978" lon="4.481607">
        <ele>2000.0</ele>
        <time>2020-09-21T08:40:11Z</time>
      </trkpt>
      <trkpt lat="52.179794" lon="4.481556">
        <ele>2000.0</ele>
        <time>2020-09-21T08:40:12Z</time>
      </trkpt>
      <trkpt lat="52.17981" lon="4.4815054">
        <ele>2000.0</ele>
        <time>2020-09-21T08:40:14Z</time>
      </trkpt>
      <trkpt lat="52.179825" lon="4.481457">
        <ele>2000.0</ele>
        <time>2020-09-21T08:40:14Z</time>
      </trkpt>
      <trkpt lat="52.17984" lon="4.481417">
        <ele>2000.0</ele>
        <time>2020-09-21T08:40:15Z</time>
      </trkpt>
      <trkpt lat="52.17985" lon="4.481384">
        <ele>2000.0</ele>
        <time>2020-09-21T08:40:16Z</time>
      </trkpt>
      <trkpt lat="52.179867" lon="4.4813547">
        <ele>2000.0</ele>
        <time>2020-09-21T08:40:17Z</time>
      </trkpt>
      <trkpt lat="52.179874" lon="4.4813294">
        <ele>2000.0</ele>
        <time>2020-09-21T08:40:18Z</time>
      </trkpt>
      <trkpt lat="52.179886" lon="4.4813037">
        <ele>2000.0</ele>
        <time>2020-09-21T08:40:19Z</time>
      </trkpt>
      <trkpt lat="52.179897" lon="4.481279">
        <ele>2000.0</ele>
        <time>2020-09-21T08:40:20Z</time>
      </trkpt>
      <trkpt lat="52.179913" lon="4.481257">
        <ele>2000.0</ele>
        <time>2020-09-21T08:40:21Z</time>
      </trkpt>
      <trkpt lat="52.179928" lon="4.481239">
        <ele>2000.0</ele>
        <time>2020-09-21T08:40:22Z</time>
      </trkpt>
      <trkpt lat="52.179947" lon="4.4812207">
        <ele>2000.0</ele>
        <time>2020-09-21T08:40:24Z</time>
      </trkpt>
      <trkpt lat="52.179962" lon="4.481202">
        <ele>2000.0</ele>
        <time>2020-09-21T08:40:24Z</time>
      </trkpt>
      <trkpt lat="52.179977" lon="4.48118">
        <ele>2000.0</ele>
        <time>2020-09-21T08:40:25Z</time>
      </trkpt>
      <trkpt lat="52.18" lon="4.4811535">
        <ele>2000.0</ele>
        <time>2020-09-21T08:40:26Z</time>
      </trkpt>
      <trkpt lat="52.18002" lon="4.481124">
        <ele>2000.0</ele>
        <time>2020-09-21T08:40:27Z</time>
      </trkpt>
      <trkpt lat="52.18004" lon="4.4810925">
        <ele>2000.0</ele>
        <time>2020-09-21T08:40:28Z</time>
      </trkpt>
      <trkpt lat="52.180065" lon="4.481056">
        <ele>2000.0</ele>
        <time>2020-09-21T08:40:29Z</time>
      </trkpt>
      <trkpt lat="52.180096" lon="4.481016">
        <ele>2000.0</ele>
        <time>2020-09-21T08:40:30Z</time>
      </trkpt>
      <trkpt lat="52.180122" lon="4.4809694">
        <ele>2000.0</ele>
        <time>2020-09-21T08:40:31Z</time>
      </trkpt>
      <trkpt lat="52.18015" lon="4.480923">
        <ele>2000.0</ele>
        <time>2020-09-21T08:40:32Z</time>
      </trkpt>
      <trkpt lat="52.18018" lon="4.480886">
        <ele>2000.0</ele>
        <time>2020-09-21T08:40:33Z</time>
      </trkpt>
      <trkpt lat="52.180202" lon="4.4808626">
        <ele>2000.0</ele>
        <time>2020-09-21T08:40:35Z</time>
      </trkpt>
      <trkpt lat="52.18023" lon="4.480853">
        <ele>2000.0</ele>
        <time>2020-09-21T08:40:35Z</time>
      </trkpt>
      <trkpt lat="52.18026" lon="4.4808564">
        <ele>2000.0</ele>
        <time>2020-09-21T08:40:36Z</time>
      </trkpt>
      <trkpt lat="52.180286" lon="4.480868">
        <ele>2000.0</ele>
        <time>2020-09-21T08:40:37Z</time>
      </trkpt>
      <trkpt lat="52.180317" lon="4.480886">
        <ele>2000.0</ele>
        <time>2020-09-21T08:40:38Z</time>
      </trkpt>
      <trkpt lat="52.180344" lon="4.4809074">
        <ele>2000.0</ele>
        <time>2020-09-21T08:40:39Z</time>
      </trkpt>
      <trkpt lat="52.180374" lon="4.480934">
        <ele>2000.0</ele>
        <time>2020-09-21T08:40:40Z</time>
      </trkpt>
      <trkpt lat="52.180405" lon="4.4809647">
        <ele>2000.0</ele>
        <time>2020-09-21T08:40:41Z</time>
      </trkpt>
      <trkpt lat="52.180428" lon="4.4809995">
        <ele>2000.0</ele>
        <time>2020-09-21T08:40:41Z</time>
      </trkpt>
      <trkpt lat="52.18045" lon="4.4810367">
        <ele>2000.0</ele>
        <time>2020-09-21T08:40:42Z</time>
      </trkpt>
      <trkpt lat="52.18047" lon="4.481074">
        <ele>2000.0</ele>
        <time>2020-09-21T08:40:44Z</time>
      </trkpt>
      <trkpt lat="52.18049" lon="4.481113">
        <ele>2000.0</ele>
        <time>2020-09-21T08:40:44Z</time>
      </trkpt>
      <trkpt lat="52.18051" lon="4.481152">
        <ele>2000.0</ele>
        <time>2020-09-21T08:40:45Z</time>
      </trkpt>
      <trkpt lat="52.18053" lon="4.4811916">
        <ele>2000.0</ele>
        <time>2020-09-21T08:40:46Z</time>
      </trkpt>
      <trkpt lat="52.180553" lon="4.481228">
        <ele>2000.0</ele>
        <time>2020-09-21T08:40:47Z</time>
      </trkpt>
      <trkpt lat="52.180573" lon="4.481264">
        <ele>2000.0</ele>
        <time>2020-09-21T08:40:48Z</time>
      </trkpt>
      <trkpt lat="52.18059" lon="4.4813">
        <ele>2000.0</ele>
        <time>2020-09-21T08:40:49Z</time>
      </trkpt>
      <trkpt lat="52.180614" lon="4.4813385">
        <ele>2000.0</ele>
        <time>2020-09-21T08:40:50Z</time>
      </trkpt>
      <trkpt lat="52.180634" lon="4.481379">
        <ele>2000.0</ele>
        <time>2020-09-21T08:40:51Z</time>
      </trkpt>
      <trkpt lat="52.180653" lon="4.48142">
        <ele>2000.0</ele>
        <time>2020-09-21T08:40:52Z</time>
      </trkpt>
      <trkpt lat="52.180668" lon="4.481461">
        <ele>2000.0</ele>
        <time>2020-09-21T08:40:53Z</time>
      </trkpt>
      <trkpt lat="52.18069" lon="4.4815006">
        <ele>2000.0</ele>
        <time>2020-09-21T08:40:54Z</time>
      </trkpt>
      <trkpt lat="52.18071" lon="4.481539">
        <ele>2000.0</ele>
        <time>2020-09-21T08:40:55Z</time>
      </trkpt>
      <trkpt lat="52.180737" lon="4.4815745">
        <ele>2000.0</ele>
        <time>2020-09-21T08:40:56Z</time>
      </trkpt>
      <trkpt lat="52.180756" lon="4.4816113">
        <ele>2000.0</ele>
        <time>2020-09-21T08:40:57Z</time>
      </trkpt>
      <trkpt lat="52.180782" lon="4.4816475">
        <ele>2000.0</ele>
        <time>2020-09-21T08:40:58Z</time>
      </trkpt>
      <trkpt lat="52.18081" lon="4.4816847">
        <ele>2000.0</ele>
        <time>2020-09-21T08:40:59Z</time>
      </trkpt>
      <trkpt lat="52.18083" lon="4.4817185">
        <ele>2000.0</ele>
        <time>2020-09-21T08:41:00Z</time>
      </trkpt>
      <trkpt lat="52.180847" lon="4.481754">
        <ele>2000.0</ele>
        <time>2020-09-21T08:41:02Z</time>
      </trkpt>
      <trkpt lat="52.18086" lon="4.4817905">
        <ele>2000.0</ele>
        <time>2020-09-21T08:41:02Z</time>
      </trkpt>
      <trkpt lat="52.18086" lon="4.4818296">
        <ele>2000.0</ele>
        <time>2020-09-21T08:41:03Z</time>
      </trkpt>
      <trkpt lat="52.18086" lon="4.4818664">
        <ele>2000.0</ele>
        <time>2020-09-21T08:41:04Z</time>
      </trkpt>
      <trkpt lat="52.180855" lon="4.4819007">
        <ele>2000.0</ele>
        <time>2020-09-21T08:41:05Z</time>
      </trkpt>
      <trkpt lat="52.180843" lon="4.4819326">
        <ele>2000.0</ele>
        <time>2020-09-21T08:41:06Z</time>
      </trkpt>
      <trkpt lat="52.180832" lon="4.4819655">
        <ele>2000.0</ele>
        <time>2020-09-21T08:41:07Z</time>
      </trkpt>
      <trkpt lat="52.180824" lon="4.4819984">
        <ele>2000.0</ele>
        <time>2020-09-21T08:41:08Z</time>
      </trkpt>
      <trkpt lat="52.180813" lon="4.4820323">
        <ele>2000.0</ele>
        <time>2020-09-21T08:41:09Z</time>
      </trkpt>
      <trkpt lat="52.180798" lon="4.482067">
        <ele>2000.0</ele>
        <time>2020-09-21T08:41:10Z</time>
      </trkpt>
      <trkpt lat="52.180786" lon="4.4821">
        <ele>2000.0</ele>
        <time>2020-09-21T08:41:11Z</time>
      </trkpt>
      <trkpt lat="52.18077" lon="4.4821343">
        <ele>2000.0</ele>
        <time>2020-09-21T08:41:12Z</time>
      </trkpt>
      <trkpt lat="52.180756" lon="4.4821677">
        <ele>2000.0</ele>
        <time>2020-09-21T08:41:13Z</time>
      </trkpt>
      <trkpt lat="52.180748" lon="4.4821997">
        <ele>2000.0</ele>
        <time>2020-09-21T08:41:14Z</time>
      </trkpt>
      <trkpt lat="52.180733" lon="4.4822307">
        <ele>2000.0</ele>
        <time>2020-09-21T08:41:15Z</time>
      </trkpt>
      <trkpt lat="52.180714" lon="4.482261">
        <ele>2000.0</ele>
        <time>2020-09-21T08:41:16Z</time>
      </trkpt>
      <trkpt lat="52.180706" lon="4.4822903">
        <ele>2000.0</ele>
        <time>2020-09-21T08:41:17Z</time>
      </trkpt>
      <trkpt lat="52.18069" lon="4.4823155">
        <ele>2000.0</ele>
        <time>2020-09-21T08:41:18Z</time>
      </trkpt>
      <trkpt lat="52.18068" lon="4.4823422">
        <ele>2000.0</ele>
        <time>2020-09-21T08:41:19Z</time>
      </trkpt>
      <trkpt lat="52.180668" lon="4.482372">
        <ele>2000.0</ele>
        <time>2020-09-21T08:41:20Z</time>
      </trkpt>
      <trkpt lat="52.18066" lon="4.482402">
        <ele>2000.0</ele>
        <time>2020-09-21T08:41:21Z</time>
      </trkpt>
      <trkpt lat="52.180653" lon="4.482433">
        <ele>2000.0</ele>
        <time>2020-09-21T08:41:23Z</time>
      </trkpt>
      <trkpt lat="52.180645" lon="4.482465">
        <ele>2000.0</ele>
        <time>2020-09-21T08:41:23Z</time>
      </trkpt>
      <trkpt lat="52.180634" lon="4.482497">
        <ele>2000.0</ele>
        <time>2020-09-21T08:41:24Z</time>
      </trkpt>
      <trkpt lat="52.180622" lon="4.482526">
        <ele>2000.0</ele>
        <time>2020-09-21T08:41:25Z</time>
      </trkpt>
      <trkpt lat="52.18062" lon="4.4825506">
        <ele>2000.0</ele>
        <time>2020-09-21T08:41:26Z</time>
      </trkpt>
      <trkpt lat="52.180614" lon="4.4825706">
        <ele>2000.0</ele>
        <time>2020-09-21T08:41:27Z</time>
      </trkpt>
      <trkpt lat="52.180603" lon="4.4825854">
        <ele>2000.0</ele>
        <time>2020-09-21T08:41:28Z</time>
      </trkpt>
      <trkpt lat="52.18059" lon="4.4825954">
        <ele>2000.0</ele>
        <time>2020-09-21T08:41:29Z</time>
      </trkpt>
      <trkpt lat="52.180584" lon="4.4826">
        <ele>2000.0</ele>
        <time>2020-09-21T08:41:30Z</time>
      </trkpt>
      <trkpt lat="52.18057" lon="4.4826">
        <ele>2000.0</ele>
        <time>2020-09-21T08:41:31Z</time>
      </trkpt>
      <trkpt lat="52.180557" lon="4.482598">
        <ele>2000.0</ele>
        <time>2020-09-21T08:41:32Z</time>
      </trkpt>
      <trkpt lat="52.180553" lon="4.482594">
        <ele>2000.0</ele>
        <time>2020-09-21T08:41:33Z</time>
      </trkpt>
      <trkpt lat="52.180546" lon="4.4825907">
        <ele>2000.0</ele>
        <time>2020-09-21T08:41:34Z</time>
      </trkpt>
      <trkpt lat="52.180542" lon="4.482589">
        <ele>2000.0</ele>
        <time>2020-09-21T08:41:35Z</time>
      </trkpt>
      <trkpt lat="52.18054" lon="4.4825845">
        <ele>2000.0</ele>
        <time>2020-09-21T08:41:36Z</time>
      </trkpt>
      <trkpt lat="52.18053" lon="4.4825797">
        <ele>2000.0</ele>
        <time>2020-09-21T08:41:37Z</time>
      </trkpt>
      <trkpt lat="52.18053" lon="4.482576">
        <ele>2000.0</ele>
        <time>2020-09-21T08:41:38Z</time>
      </trkpt>
      <trkpt lat="52.180527" lon="4.4825716">
        <ele>2000.0</ele>
        <time>2020-09-21T08:41:39Z</time>
      </trkpt>
      <trkpt lat="52.180527" lon="4.482566">
        <ele>2000.0</ele>
        <time>2020-09-21T08:41:40Z</time>
      </trkpt>
      <trkpt lat="52.18052" lon="4.48256">
        <ele>2000.0</ele>
        <time>2020-09-21T08:41:41Z</time>
      </trkpt>
      <trkpt lat="52.18052" lon="4.482554">
        <ele>2000.0</ele>
        <time>2020-09-21T08:41:42Z</time>
      </trkpt>
      <trkpt lat="52.180527" lon="4.4825463">
        <ele>2000.0</ele>
        <time>2020-09-21T08:41:44Z</time>
      </trkpt>
      <trkpt lat="52.180527" lon="4.4825397">
        <ele>2000.0</ele>
        <time>2020-09-21T08:41:44Z</time>
      </trkpt>
      <trkpt lat="52.180527" lon="4.482535">
        <ele>2000.0</ele>
        <time>2020-09-21T08:41:45Z</time>
      </trkpt>
      <trkpt lat="52.180527" lon="4.4825287">
        <ele>2000.0</ele>
        <time>2020-09-21T08:41:46Z</time>
      </trkpt>
      <trkpt lat="52.18052" lon="4.482523">
        <ele>2000.0</ele>
        <time>2020-09-21T08:41:47Z</time>
      </trkpt>
      <trkpt lat="52.18052" lon="4.482519">
        <ele>2000.0</ele>
        <time>2020-09-21T08:41:49Z</time>
      </trkpt>
      <trkpt lat="52.180527" lon="4.4825215">
        <ele>2000.0</ele>
        <time>2020-09-21T08:41:50Z</time>
      </trkpt>
      <trkpt lat="52.18053" lon="4.4825273">
        <ele>2000.0</ele>
        <time>2020-09-21T08:41:51Z</time>
      </trkpt>
      <trkpt lat="52.18054" lon="4.4825325">
        <ele>2000.0</ele>
        <time>2020-09-21T08:41:52Z</time>
      </trkpt>
      <trkpt lat="52.180546" lon="4.4825406">
        <ele>2000.0</ele>
        <time>2020-09-21T08:41:55Z</time>
      </trkpt>
      <trkpt lat="52.180546" lon="4.4825397">
        <ele>2000.0</ele>
        <time>2020-09-21T08:41:55Z</time>
      </trkpt>
      <trkpt lat="52.180546" lon="4.482536">
        <ele>2000.0</ele>
        <time>2020-09-21T08:41:57Z</time>
      </trkpt>
      <trkpt lat="52.180546" lon="4.482535">
        <ele>2000.0</ele>
        <time>2020-09-21T08:41:58Z</time>
      </trkpt>
      <trkpt lat="52.180546" lon="4.4825344">
        <ele>2000.0</ele>
        <time>2020-09-21T08:41:59Z</time>
      </trkpt>
      <trkpt lat="52.180553" lon="4.482534">
        <ele>1900.0</ele>
        <time>2020-09-21T08:42:00Z</time>
      </trkpt>
      <trkpt lat="52.180557" lon="4.482532">
        <ele>1900.0</ele>
        <time>2020-09-21T08:42:01Z</time>
      </trkpt>
      <trkpt lat="52.18056" lon="4.4825306">
        <ele>1900.0</ele>
        <time>2020-09-21T08:42:02Z</time>
      </trkpt>
      <trkpt lat="52.18056" lon="4.4825296">
        <ele>1900.0</ele>
        <time>2020-09-21T08:42:03Z</time>
      </trkpt>
      <trkpt lat="52.18057" lon="4.4825273">
        <ele>1900.0</ele>
        <time>2020-09-21T08:42:04Z</time>
      </trkpt>
      <trkpt lat="52.18057" lon="4.4825253">
        <ele>1900.0</ele>
        <time>2020-09-21T08:42:05Z</time>
      </trkpt>
      <trkpt lat="52.180573" lon="4.482522">
        <ele>1900.0</ele>
        <time>2020-09-21T08:42:06Z</time>
      </trkpt>
      <trkpt lat="52.18057" lon="4.482515">
        <ele>1900.0</ele>
        <time>2020-09-21T08:42:07Z</time>
      </trkpt>
      <trkpt lat="52.18057" lon="4.482509">
        <ele>1900.0</ele>
        <time>2020-09-21T08:42:08Z</time>
      </trkpt>
      <trkpt lat="52.18056" lon="4.4825068">
        <ele>1900.0</ele>
        <time>2020-09-21T08:42:09Z</time>
      </trkpt>
      <trkpt lat="52.18056" lon="4.482506">
        <ele>1900.0</ele>
        <time>2020-09-21T08:42:10Z</time>
      </trkpt>
      <trkpt lat="52.180557" lon="4.482503">
        <ele>1900.0</ele>
        <time>2020-09-21T08:42:11Z</time>
      </trkpt>
      <trkpt lat="52.180557" lon="4.4825">
        <ele>1900.0</ele>
        <time>2020-09-21T08:42:12Z</time>
      </trkpt>
      <trkpt lat="52.180573" lon="4.4824824">
        <ele>1900.0</ele>
        <time>2020-09-21T08:42:15Z</time>
      </trkpt>
      <trkpt lat="52.180573" lon="4.4824824">
        <ele>1900.0</ele>
        <time>2020-09-21T08:42:16Z</time>
      </trkpt>
      <trkpt lat="52.180573" lon="4.4824815">
        <ele>1900.0</ele>
        <time>2020-09-21T08:42:17Z</time>
      </trkpt>
      <trkpt lat="52.180588" lon="4.4824777">
        <ele>1900.0</ele>
        <time>2020-09-21T08:42:19Z</time>
      </trkpt>
      <trkpt lat="52.18059" lon="4.4824743">
        <ele>1900.0</ele>
        <time>2020-09-21T08:42:21Z</time>
      </trkpt>
      <trkpt lat="52.18059" lon="4.4824734">
        <ele>1900.0</ele>
        <time>2020-09-21T08:42:22Z</time>
      </trkpt>
      <trkpt lat="52.18059" lon="4.4824743">
        <ele>1900.0</ele>
        <time>2020-09-21T08:42:35Z</time>
      </trkpt>
      <trkpt lat="52.180588" lon="4.4824758">
        <ele>1900.0</ele>
        <time>2020-09-21T08:42:37Z</time>
      </trkpt>
      <trkpt lat="52.180588" lon="4.4824777">
        <ele>1900.0</ele>
        <time>2020-09-21T08:42:39Z</time>
      </trkpt>
      <trkpt lat="52.180584" lon="4.4824777">
        <ele>1900.0</ele>
        <time>2020-09-21T08:42:41Z</time>
      </trkpt>
      <trkpt lat="52.180576" lon="4.4824843">
        <ele>1900.0</ele>
        <time>2020-09-21T08:42:47Z</time>
      </trkpt>
      <trkpt lat="52.180573" lon="4.4824843">
        <ele>1900.0</ele>
        <time>2020-09-21T08:42:48Z</time>
      </trkpt>
      <trkpt lat="52.180573" lon="4.4824853">
        <ele>1900.0</ele>
        <time>2020-09-21T08:42:49Z</time>
      </trkpt>
      <trkpt lat="52.180573" lon="4.482487">
        <ele>1900.0</ele>
        <time>2020-09-21T08:42:51Z</time>
      </trkpt>
      <trkpt lat="52.18056" lon="4.482491">
        <ele>1900.0</ele>
        <time>2020-09-21T08:42:53Z</time>
      </trkpt>
      <trkpt lat="52.180557" lon="4.482496">
        <ele>1900.0</ele>
        <time>2020-09-21T08:42:55Z</time>
      </trkpt>
      <trkpt lat="52.18054" lon="4.4825106">
        <ele>1900.0</ele>
        <time>2020-09-21T08:42:57Z</time>
      </trkpt>
      <trkpt lat="52.18054" lon="4.48251">
        <ele>1900.0</ele>
        <time>2020-09-21T08:42:58Z</time>
      </trkpt>
      <trkpt lat="52.18053" lon="4.482503">
        <ele>1900.0</ele>
        <time>2020-09-21T08:42:59Z</time>
      </trkpt>
      <trkpt lat="52.180527" lon="4.482495">
        <ele>1900.0</ele>
        <time>2020-09-21T08:43:01Z</time>
      </trkpt>
      <trkpt lat="52.180515" lon="4.482491">
        <ele>1900.0</ele>
        <time>2020-09-21T08:43:01Z</time>
      </trkpt>
      <trkpt lat="52.180504" lon="4.482489">
        <ele>1900.0</ele>
        <time>2020-09-21T08:43:02Z</time>
      </trkpt>
      <trkpt lat="52.180496" lon="4.4824886">
        <ele>1900.0</ele>
        <time>2020-09-21T08:43:03Z</time>
      </trkpt>
      <trkpt lat="52.18048" lon="4.482496">
        <ele>1900.0</ele>
        <time>2020-09-21T08:43:05Z</time>
      </trkpt>
      <trkpt lat="52.18048" lon="4.4824977">
        <ele>1900.0</ele>
        <time>2020-09-21T08:43:06Z</time>
      </trkpt>
      <trkpt lat="52.180485" lon="4.482502">
        <ele>1900.0</ele>
        <time>2020-09-21T08:43:07Z</time>
      </trkpt>
      <trkpt lat="52.18049" lon="4.482506">
        <ele>1900.0</ele>
        <time>2020-09-21T08:43:08Z</time>
      </trkpt>
      <trkpt lat="52.180496" lon="4.4825115">
        <ele>1900.0</ele>
        <time>2020-09-21T08:43:09Z</time>
      </trkpt>
      <trkpt lat="52.1805" lon="4.4825163">
        <ele>1900.0</ele>
        <time>2020-09-21T08:43:10Z</time>
      </trkpt>
      <trkpt lat="52.180504" lon="4.48252">
        <ele>1900.0</ele>
        <time>2020-09-21T08:43:12Z</time>
      </trkpt>
      <trkpt lat="52.180504" lon="4.4825206">
        <ele>1900.0</ele>
        <time>2020-09-21T08:43:12Z</time>
      </trkpt>
      <trkpt lat="52.180504" lon="4.4825206">
        <ele>1900.0</ele>
        <time>2020-09-21T08:43:13Z</time>
      </trkpt>
      <trkpt lat="52.1805" lon="4.482522">
        <ele>1900.0</ele>
        <time>2020-09-21T08:43:14Z</time>
      </trkpt>
      <trkpt lat="52.1805" lon="4.482525">
        <ele>1900.0</ele>
        <time>2020-09-21T08:43:15Z</time>
      </trkpt>
      <trkpt lat="52.1805" lon="4.482529">
        <ele>1900.0</ele>
        <time>2020-09-21T08:43:16Z</time>
      </trkpt>
      <trkpt lat="52.1805" lon="4.482535">
        <ele>1900.0</ele>
        <time>2020-09-21T08:43:17Z</time>
      </trkpt>
      <trkpt lat="52.1805" lon="4.4825406">
        <ele>1900.0</ele>
        <time>2020-09-21T08:43:18Z</time>
      </trkpt>
      <trkpt lat="52.180496" lon="4.4825425">
        <ele>1900.0</ele>
        <time>2020-09-21T08:43:19Z</time>
      </trkpt>
      <trkpt lat="52.180496" lon="4.482541">
        <ele>1900.0</ele>
        <time>2020-09-21T08:43:20Z</time>
      </trkpt>
      <trkpt lat="52.180485" lon="4.4825387">
        <ele>1900.0</ele>
        <time>2020-09-21T08:43:21Z</time>
      </trkpt>
      <trkpt lat="52.18048" lon="4.482537">
        <ele>1900.0</ele>
        <time>2020-09-21T08:43:23Z</time>
      </trkpt>
      <trkpt lat="52.18047" lon="4.482537">
        <ele>1900.0</ele>
        <time>2020-09-21T08:43:23Z</time>
      </trkpt>
      <trkpt lat="52.180454" lon="4.4825387">
        <ele>1900.0</ele>
        <time>2020-09-21T08:43:24Z</time>
      </trkpt>
      <trkpt lat="52.180443" lon="4.4825387">
        <ele>1900.0</ele>
        <time>2020-09-21T08:43:25Z</time>
      </trkpt>
      <trkpt lat="52.180435" lon="4.4825344">
        <ele>1900.0</ele>
        <time>2020-09-21T08:43:26Z</time>
      </trkpt>
      <trkpt lat="52.180424" lon="4.48253">
        <ele>1900.0</ele>
        <time>2020-09-21T08:43:27Z</time>
      </trkpt>
      <trkpt lat="52.180412" lon="4.482525">
        <ele>1900.0</ele>
        <time>2020-09-21T08:43:28Z</time>
      </trkpt>
      <trkpt lat="52.18041" lon="4.4825206">
        <ele>1900.0</ele>
        <time>2020-09-21T08:43:29Z</time>
      </trkpt>
      <trkpt lat="52.18041" lon="4.482519">
        <ele>1900.0</ele>
        <time>2020-09-21T08:43:30Z</time>
      </trkpt>
      <trkpt lat="52.18041" lon="4.48252">
        <ele>1900.0</ele>
        <time>2020-09-21T08:43:31Z</time>
      </trkpt>
      <trkpt lat="52.180405" lon="4.482521">
        <ele>1900.0</ele>
        <time>2020-09-21T08:43:33Z</time>
      </trkpt>
      <trkpt lat="52.180397" lon="4.4825215">
        <ele>1900.0</ele>
        <time>2020-09-21T08:43:33Z</time>
      </trkpt>
      <trkpt lat="52.180393" lon="4.4825244">
        <ele>1900.0</ele>
        <time>2020-09-21T08:43:34Z</time>
      </trkpt>
      <trkpt lat="52.18039" lon="4.482532">
        <ele>1900.0</ele>
        <time>2020-09-21T08:43:35Z</time>
      </trkpt>
      <trkpt lat="52.18038" lon="4.4825406">
        <ele>1900.0</ele>
        <time>2020-09-21T08:43:36Z</time>
      </trkpt>
      <trkpt lat="52.180378" lon="4.4825478">
        <ele>1900.0</ele>
        <time>2020-09-21T08:43:37Z</time>
      </trkpt>
      <trkpt lat="52.180367" lon="4.4825525">
        <ele>1900.0</ele>
        <time>2020-09-21T08:43:38Z</time>
      </trkpt>
      <trkpt lat="52.18036" lon="4.4825535">
        <ele>1900.0</ele>
        <time>2020-09-21T08:43:39Z</time>
      </trkpt>
      <trkpt lat="52.180344" lon="4.4825535">
        <ele>1900.0</ele>
        <time>2020-09-21T08:43:40Z</time>
      </trkpt>
      <trkpt lat="52.180325" lon="4.4825535">
        <ele>1900.0</ele>
        <time>2020-09-21T08:43:41Z</time>
      </trkpt>
      <trkpt lat="52.18031" lon="4.4825544">
        <ele>1900.0</ele>
        <time>2020-09-21T08:43:42Z</time>
      </trkpt>
      <trkpt lat="52.1803" lon="4.482556">
        <ele>1900.0</ele>
        <time>2020-09-21T08:43:43Z</time>
      </trkpt>
      <trkpt lat="52.18029" lon="4.4825583">
        <ele>1900.0</ele>
        <time>2020-09-21T08:43:44Z</time>
      </trkpt>
      <trkpt lat="52.180286" lon="4.48256">
        <ele>1900.0</ele>
        <time>2020-09-21T08:43:45Z</time>
      </trkpt>
      <trkpt lat="52.18028" lon="4.4825616">
        <ele>1900.0</ele>
        <time>2020-09-21T08:43:46Z</time>
      </trkpt>
      <trkpt lat="52.180275" lon="4.482562">
        <ele>1900.0</ele>
        <time>2020-09-21T08:43:47Z</time>
      </trkpt>
      <trkpt lat="52.180264" lon="4.4825644">
        <ele>1900.0</ele>
        <time>2020-09-21T08:43:48Z</time>
      </trkpt>
      <trkpt lat="52.180264" lon="4.4825664">
        <ele>1900.0</ele>
        <time>2020-09-21T08:43:49Z</time>
      </trkpt>
      <trkpt lat="52.18026" lon="4.4825673">
        <ele>1900.0</ele>
        <time>2020-09-21T08:43:50Z</time>
      </trkpt>
      <trkpt lat="52.180256" lon="4.482568">
        <ele>1900.0</ele>
        <time>2020-09-21T08:43:51Z</time>
      </trkpt>
      <trkpt lat="52.180244" lon="4.4825697">
        <ele>1900.0</ele>
        <time>2020-09-21T08:43:52Z</time>
      </trkpt>
      <trkpt lat="52.180233" lon="4.4825716">
        <ele>1900.0</ele>
        <time>2020-09-21T08:43:54Z</time>
      </trkpt>
      <trkpt lat="52.180225" lon="4.482575">
        <ele>1900.0</ele>
        <time>2020-09-21T08:43:54Z</time>
      </trkpt>
      <trkpt lat="52.180214" lon="4.48258">
        <ele>1900.0</ele>
        <time>2020-09-21T08:43:55Z</time>
      </trkpt>
      <trkpt lat="52.18021" lon="4.4825854">
        <ele>1900.0</ele>
        <time>2020-09-21T08:43:56Z</time>
      </trkpt>
      <trkpt lat="52.1802" lon="4.48259">
        <ele>1900.0</ele>
        <time>2020-09-21T08:43:57Z</time>
      </trkpt>
      <trkpt lat="52.180183" lon="4.4825945">
        <ele>1900.0</ele>
        <time>2020-09-21T08:43:58Z</time>
      </trkpt>
      <trkpt lat="52.180172" lon="4.482599">
        <ele>1900.0</ele>
        <time>2020-09-21T08:43:59Z</time>
      </trkpt>
      <trkpt lat="52.180164" lon="4.482599">
        <ele>1900.0</ele>
        <time>2020-09-21T08:44:01Z</time>
      </trkpt>
      <trkpt lat="52.180153" lon="4.482599">
        <ele>1900.0</ele>
        <time>2020-09-21T08:44:01Z</time>
      </trkpt>
      <trkpt lat="52.18015" lon="4.4826">
        <ele>1900.0</ele>
        <time>2020-09-21T08:44:02Z</time>
      </trkpt>
      <trkpt lat="52.180138" lon="4.482601">
        <ele>1900.0</ele>
        <time>2020-09-21T08:44:03Z</time>
      </trkpt>
      <trkpt lat="52.18013" lon="4.482602">
        <ele>1900.0</ele>
        <time>2020-09-21T08:44:04Z</time>
      </trkpt>
      <trkpt lat="52.180122" lon="4.482601">
        <ele>1900.0</ele>
        <time>2020-09-21T08:44:05Z</time>
      </trkpt>
      <trkpt lat="52.18011" lon="4.4826007">
        <ele>1900.0</ele>
        <time>2020-09-21T08:44:06Z</time>
      </trkpt>
      <trkpt lat="52.180107" lon="4.482601">
        <ele>1900.0</ele>
        <time>2020-09-21T08:44:07Z</time>
      </trkpt>
      <trkpt lat="52.1801" lon="4.482604">
        <ele>1900.0</ele>
        <time>2020-09-21T08:44:08Z</time>
      </trkpt>
      <trkpt lat="52.18009" lon="4.4826097">
        <ele>1900.0</ele>
        <time>2020-09-21T08:44:09Z</time>
      </trkpt>
      <trkpt lat="52.18008" lon="4.4826174">
        <ele>1900.0</ele>
        <time>2020-09-21T08:44:10Z</time>
      </trkpt>
      <trkpt lat="52.18007" lon="4.4826245">
        <ele>1900.0</ele>
        <time>2020-09-21T08:44:12Z</time>
      </trkpt>
      <trkpt lat="52.180054" lon="4.482628">
        <ele>1900.0</ele>
        <time>2020-09-21T08:44:12Z</time>
      </trkpt>
      <trkpt lat="52.18004" lon="4.4826307">
        <ele>1900.0</ele>
        <time>2020-09-21T08:44:13Z</time>
      </trkpt>
      <trkpt lat="52.18003" lon="4.4826336">
        <ele>1900.0</ele>
        <time>2020-09-21T08:44:14Z</time>
      </trkpt>
      <trkpt lat="52.180023" lon="4.4826393">
        <ele>1900.0</ele>
        <time>2020-09-21T08:44:15Z</time>
      </trkpt>
      <trkpt lat="52.180016" lon="4.4826465">
        <ele>1900.0</ele>
        <time>2020-09-21T08:44:16Z</time>
      </trkpt>
      <trkpt lat="52.180004" lon="4.4826546">
        <ele>1900.0</ele>
        <time>2020-09-21T08:44:17Z</time>
      </trkpt>
      <trkpt lat="52.179993" lon="4.4826617">
        <ele>1900.0</ele>
        <time>2020-09-21T08:44:18Z</time>
      </trkpt>
      <trkpt lat="52.17999" lon="4.4826655">
        <ele>1900.0</ele>
        <time>2020-09-21T08:44:19Z</time>
      </trkpt>
      <trkpt lat="52.179985" lon="4.4826703">
        <ele>1900.0</ele>
        <time>2020-09-21T08:44:20Z</time>
      </trkpt>
      <trkpt lat="52.179977" lon="4.482676">
        <ele>1900.0</ele>
        <time>2020-09-21T08:44:21Z</time>
      </trkpt>
      <trkpt lat="52.17997" lon="4.4826803">
        <ele>1900.0</ele>
        <time>2020-09-21T08:44:22Z</time>
      </trkpt>
      <trkpt lat="52.179962" lon="4.4826837">
        <ele>1900.0</ele>
        <time>2020-09-21T08:44:23Z</time>
      </trkpt>
      <trkpt lat="52.179955" lon="4.482688">
        <ele>1900.0</ele>
        <time>2020-09-21T08:44:24Z</time>
      </trkpt>
      <trkpt lat="52.179943" lon="4.4826913">
        <ele>1900.0</ele>
        <time>2020-09-21T08:44:25Z</time>
      </trkpt>
      <trkpt lat="52.179928" lon="4.4826937">
        <ele>1900.0</ele>
        <time>2020-09-21T08:44:26Z</time>
      </trkpt>
      <trkpt lat="52.179916" lon="4.4826903">
        <ele>1900.0</ele>
        <time>2020-09-21T08:44:27Z</time>
      </trkpt>
      <trkpt lat="52.179913" lon="4.4826846">
        <ele>1900.0</ele>
        <time>2020-09-21T08:44:28Z</time>
      </trkpt>
      <trkpt lat="52.1799" lon="4.4826765">
        <ele>1900.0</ele>
        <time>2020-09-21T08:44:29Z</time>
      </trkpt>
      <trkpt lat="52.179897" lon="4.482671">
        <ele>1900.0</ele>
        <time>2020-09-21T08:44:30Z</time>
      </trkpt>
      <trkpt lat="52.179886" lon="4.4826655">
        <ele>1900.0</ele>
        <time>2020-09-21T08:44:31Z</time>
      </trkpt>
      <trkpt lat="52.179882" lon="4.482662">
        <ele>1900.0</ele>
        <time>2020-09-21T08:44:32Z</time>
      </trkpt>
      <trkpt lat="52.179874" lon="4.4826593">
        <ele>1900.0</ele>
        <time>2020-09-21T08:44:33Z</time>
      </trkpt>
      <trkpt lat="52.17987" lon="4.482657">
        <ele>1900.0</ele>
        <time>2020-09-21T08:44:34Z</time>
      </trkpt>
      <trkpt lat="52.179867" lon="4.4826508">
        <ele>1900.0</ele>
        <time>2020-09-21T08:44:35Z</time>
      </trkpt>
      <trkpt lat="52.17986" lon="4.4826436">
        <ele>1900.0</ele>
        <time>2020-09-21T08:44:37Z</time>
      </trkpt>
      <trkpt lat="52.179855" lon="4.4826374">
        <ele>1900.0</ele>
        <time>2020-09-21T08:44:37Z</time>
      </trkpt>
      <trkpt lat="52.17985" lon="4.482632">
        <ele>1900.0</ele>
        <time>2020-09-21T08:44:38Z</time>
      </trkpt>
      <trkpt lat="52.179844" lon="4.4826283">
        <ele>1900.0</ele>
        <time>2020-09-21T08:44:39Z</time>
      </trkpt>
      <trkpt lat="52.179836" lon="4.4826236">
        <ele>1900.0</ele>
        <time>2020-09-21T08:44:40Z</time>
      </trkpt>
      <trkpt lat="52.179825" lon="4.4826183">
        <ele>1900.0</ele>
        <time>2020-09-21T08:44:41Z</time>
      </trkpt>
      <trkpt lat="52.17981" lon="4.4826155">
        <ele>1900.0</ele>
        <time>2020-09-21T08:44:42Z</time>
      </trkpt>
      <trkpt lat="52.179794" lon="4.4826164">
        <ele>1900.0</ele>
        <time>2020-09-21T08:44:43Z</time>
      </trkpt>
      <trkpt lat="52.17978" lon="4.482621">
        <ele>1900.0</ele>
        <time>2020-09-21T08:44:44Z</time>
      </trkpt>
      <trkpt lat="52.179764" lon="4.482629">
        <ele>1900.0</ele>
        <time>2020-09-21T08:44:45Z</time>
      </trkpt>
      <trkpt lat="52.17974" lon="4.4826384">
        <ele>1900.0</ele>
        <time>2020-09-21T08:44:46Z</time>
      </trkpt>
      <trkpt lat="52.179726" lon="4.4826484">
        <ele>1900.0</ele>
        <time>2020-09-21T08:44:48Z</time>
      </trkpt>
      <trkpt lat="52.17971" lon="4.4826593">
        <ele>1900.0</ele>
        <time>2020-09-21T08:44:48Z</time>
      </trkpt>
      <trkpt lat="52.179703" lon="4.4826703">
        <ele>1900.0</ele>
        <time>2020-09-21T08:44:49Z</time>
      </trkpt>
      <trkpt lat="52.179688" lon="4.482679">
        <ele>1900.0</ele>
        <time>2020-09-21T08:44:50Z</time>
      </trkpt>
      <trkpt lat="52.179672" lon="4.4826827">
        <ele>1900.0</ele>
        <time>2020-09-21T08:44:51Z</time>
      </trkpt>
      <trkpt lat="52.17966" lon="4.4826875">
        <ele>1900.0</ele>
        <time>2020-09-21T08:44:52Z</time>
      </trkpt>
      <trkpt lat="52.179646" lon="4.4826903">
        <ele>1900.0</ele>
        <time>2020-09-21T08:44:53Z</time>
      </trkpt>
      <trkpt lat="52.17963" lon="4.482694">
        <ele>1900.0</ele>
        <time>2020-09-21T08:44:54Z</time>
      </trkpt>
      <trkpt lat="52.179615" lon="4.4826975">
        <ele>1900.0</ele>
        <time>2020-09-21T08:44:55Z</time>
      </trkpt>
      <trkpt lat="52.1796" lon="4.4827023">
        <ele>1900.0</ele>
        <time>2020-09-21T08:44:56Z</time>
      </trkpt>
      <trkpt lat="52.179585" lon="4.482706">
        <ele>1900.0</ele>
        <time>2020-09-21T08:44:56Z</time>
      </trkpt>
      <trkpt lat="52.179573" lon="4.4827104">
        <ele>1900.0</ele>
        <time>2020-09-21T08:44:57Z</time>
      </trkpt>
      <trkpt lat="52.17956" lon="4.4827156">
        <ele>1900.0</ele>
        <time>2020-09-21T08:44:58Z</time>
      </trkpt>
      <trkpt lat="52.179554" lon="4.4827213">
        <ele>1900.0</ele>
        <time>2020-09-21T08:44:59Z</time>
      </trkpt>
      <trkpt lat="52.17954" lon="4.4827247">
        <ele>1900.0</ele>
        <time>2020-09-21T08:45:00Z</time>
      </trkpt>
      <trkpt lat="52.179527" lon="4.4827275">
        <ele>1900.0</ele>
        <time>2020-09-21T08:45:01Z</time>
      </trkpt>
      <trkpt lat="52.179516" lon="4.4827313">
        <ele>1900.0</ele>
        <time>2020-09-21T08:45:02Z</time>
      </trkpt>
      <trkpt lat="52.179512" lon="4.482738">
        <ele>1900.0</ele>
        <time>2020-09-21T08:45:03Z</time>
      </trkpt>
      <trkpt lat="52.1795" lon="4.482744">
        <ele>1900.0</ele>
        <time>2020-09-21T08:45:05Z</time>
      </trkpt>
      <trkpt lat="52.179497" lon="4.482751">
        <ele>1900.0</ele>
        <time>2020-09-21T08:45:05Z</time>
      </trkpt>
      <trkpt lat="52.179485" lon="4.4827595">
        <ele>1900.0</ele>
        <time>2020-09-21T08:45:06Z</time>
      </trkpt>
      <trkpt lat="52.179478" lon="4.4827695">
        <ele>1900.0</ele>
        <time>2020-09-21T08:45:07Z</time>
      </trkpt>
      <trkpt lat="52.179466" lon="4.482779">
        <ele>1900.0</ele>
        <time>2020-09-21T08:45:08Z</time>
      </trkpt>
      <trkpt lat="52.179455" lon="4.482785">
        <ele>1900.0</ele>
        <time>2020-09-21T08:45:09Z</time>
      </trkpt>
      <trkpt lat="52.179447" lon="4.4827886">
        <ele>1900.0</ele>
        <time>2020-09-21T08:45:10Z</time>
      </trkpt>
      <trkpt lat="52.179424" lon="4.482793">
        <ele>1900.0</ele>
        <time>2020-09-21T08:45:11Z</time>
      </trkpt>
      <trkpt lat="52.17941" lon="4.4827995">
        <ele>1900.0</ele>
        <time>2020-09-21T08:45:12Z</time>
      </trkpt>
      <trkpt lat="52.179394" lon="4.482807">
        <ele>1900.0</ele>
        <time>2020-09-21T08:45:13Z</time>
      </trkpt>
      <trkpt lat="52.179386" lon="4.4828157">
        <ele>1900.0</ele>
        <time>2020-09-21T08:45:15Z</time>
      </trkpt>
      <trkpt lat="52.179375" lon="4.4828224">
        <ele>1900.0</ele>
        <time>2020-09-21T08:45:15Z</time>
      </trkpt>
      <trkpt lat="52.179363" lon="4.4828286">
        <ele>1900.0</ele>
        <time>2020-09-21T08:45:16Z</time>
      </trkpt>
      <trkpt lat="52.17936" lon="4.4828343">
        <ele>1900.0</ele>
        <time>2020-09-21T08:45:17Z</time>
      </trkpt>
      <trkpt lat="52.17935" lon="4.482841">
        <ele>1900.0</ele>
        <time>2020-09-21T08:45:18Z</time>
      </trkpt>
      <trkpt lat="52.179344" lon="4.482849">
        <ele>1900.0</ele>
        <time>2020-09-21T08:45:19Z</time>
      </trkpt>
      <trkpt lat="52.179337" lon="4.4828577">
        <ele>1900.0</ele>
        <time>2020-09-21T08:45:20Z</time>
      </trkpt>
      <trkpt lat="52.179333" lon="4.482865">
        <ele>1900.0</ele>
        <time>2020-09-21T08:45:21Z</time>
      </trkpt>
      <trkpt lat="52.17933" lon="4.482874">
        <ele>1900.0</ele>
        <time>2020-09-21T08:45:22Z</time>
      </trkpt>
      <trkpt lat="52.17933" lon="4.482885">
        <ele>1900.0</ele>
        <time>2020-09-21T08:45:23Z</time>
      </trkpt>
      <trkpt lat="52.17932" lon="4.4828978">
        <ele>1900.0</ele>
        <time>2020-09-21T08:45:24Z</time>
      </trkpt>
      <trkpt lat="52.17933" lon="4.4829116">
        <ele>1900.0</ele>
        <time>2020-09-21T08:45:26Z</time>
      </trkpt>
      <trkpt lat="52.179333" lon="4.482928">
        <ele>1900.0</ele>
        <time>2020-09-21T08:45:26Z</time>
      </trkpt>
      <trkpt lat="52.179337" lon="4.4829445">
        <ele>1900.0</ele>
        <time>2020-09-21T08:45:27Z</time>
      </trkpt>
      <trkpt lat="52.179337" lon="4.482961">
        <ele>1900.0</ele>
        <time>2020-09-21T08:45:28Z</time>
      </trkpt>
      <trkpt lat="52.179337" lon="4.4829803">
        <ele>1900.0</ele>
        <time>2020-09-21T08:45:29Z</time>
      </trkpt>
      <trkpt lat="52.179337" lon="4.483">
        <ele>1900.0</ele>
        <time>2020-09-21T08:45:30Z</time>
      </trkpt>
      <trkpt lat="52.179337" lon="4.483019">
        <ele>1900.0</ele>
        <time>2020-09-21T08:45:31Z</time>
      </trkpt>
      <trkpt lat="52.179337" lon="4.483036">
        <ele>1900.0</ele>
        <time>2020-09-21T08:45:32Z</time>
      </trkpt>
      <trkpt lat="52.179333" lon="4.4830503">
        <ele>1900.0</ele>
        <time>2020-09-21T08:45:33Z</time>
      </trkpt>
      <trkpt lat="52.17933" lon="4.483063">
        <ele>1900.0</ele>
        <time>2020-09-21T08:45:34Z</time>
      </trkpt>
      <trkpt lat="52.17933" lon="4.4830766">
        <ele>1900.0</ele>
        <time>2020-09-21T08:45:35Z</time>
      </trkpt>
      <trkpt lat="52.17933" lon="4.483091">
        <ele>1900.0</ele>
        <time>2020-09-21T08:45:36Z</time>
      </trkpt>
      <trkpt lat="52.179333" lon="4.4831038">
        <ele>1900.0</ele>
        <time>2020-09-21T08:45:37Z</time>
      </trkpt>
      <trkpt lat="52.179333" lon="4.4831147">
        <ele>1900.0</ele>
        <time>2020-09-21T08:45:38Z</time>
      </trkpt>
      <trkpt lat="52.179337" lon="4.4831243">
        <ele>1900.0</ele>
        <time>2020-09-21T08:45:39Z</time>
      </trkpt>
      <trkpt lat="52.179337" lon="4.483133">
        <ele>1900.0</ele>
        <time>2020-09-21T08:45:40Z</time>
      </trkpt>
      <trkpt lat="52.179337" lon="4.4831448">
        <ele>1900.0</ele>
        <time>2020-09-21T08:45:41Z</time>
      </trkpt>
      <trkpt lat="52.179344" lon="4.4831586">
        <ele>1900.0</ele>
        <time>2020-09-21T08:45:42Z</time>
      </trkpt>
      <trkpt lat="52.179344" lon="4.483174">
        <ele>1900.0</ele>
        <time>2020-09-21T08:45:43Z</time>
      </trkpt>
      <trkpt lat="52.179344" lon="4.4831905">
        <ele>1900.0</ele>
        <time>2020-09-21T08:45:44Z</time>
      </trkpt>
      <trkpt lat="52.179344" lon="4.483207">
        <ele>1900.0</ele>
        <time>2020-09-21T08:45:45Z</time>
      </trkpt>
      <trkpt lat="52.179344" lon="4.483223">
        <ele>1900.0</ele>
        <time>2020-09-21T08:45:47Z</time>
      </trkpt>
      <trkpt lat="52.179344" lon="4.483239">
        <ele>1900.0</ele>
        <time>2020-09-21T08:45:47Z</time>
      </trkpt>
      <trkpt lat="52.179344" lon="4.4832554">
        <ele>1900.0</ele>
        <time>2020-09-21T08:45:48Z</time>
      </trkpt>
      <trkpt lat="52.179337" lon="4.483272">
        <ele>1900.0</ele>
        <time>2020-09-21T08:45:49Z</time>
      </trkpt>
      <trkpt lat="52.179337" lon="4.4832883">
        <ele>1900.0</ele>
        <time>2020-09-21T08:45:50Z</time>
      </trkpt>
      <trkpt lat="52.179333" lon="4.4833035">
        <ele>1900.0</ele>
        <time>2020-09-21T08:45:51Z</time>
      </trkpt>
      <trkpt lat="52.17933" lon="4.483316">
        <ele>1900.0</ele>
        <time>2020-09-21T08:45:52Z</time>
      </trkpt>
      <trkpt lat="52.179317" lon="4.48333">
        <ele>1900.0</ele>
        <time>2020-09-21T08:45:53Z</time>
      </trkpt>
      <trkpt lat="52.179317" lon="4.483347">
        <ele>1900.0</ele>
        <time>2020-09-21T08:45:54Z</time>
      </trkpt>
      <trkpt lat="52.179314" lon="4.4833636">
        <ele>1900.0</ele>
        <time>2020-09-21T08:45:55Z</time>
      </trkpt>
      <trkpt lat="52.179306" lon="4.483381">
        <ele>1900.0</ele>
        <time>2020-09-21T08:45:56Z</time>
      </trkpt>
      <trkpt lat="52.179306" lon="4.4833975">
        <ele>1900.0</ele>
        <time>2020-09-21T08:45:57Z</time>
      </trkpt>
      <trkpt lat="52.179306" lon="4.483412">
        <ele>1900.0</ele>
        <time>2020-09-21T08:45:58Z</time>
      </trkpt>
      <trkpt lat="52.179306" lon="4.483426">
        <ele>1900.0</ele>
        <time>2020-09-21T08:45:59Z</time>
      </trkpt>
      <trkpt lat="52.179306" lon="4.483443">
        <ele>1900.0</ele>
        <time>2020-09-21T08:46:00Z</time>
      </trkpt>
      <trkpt lat="52.179306" lon="4.483465">
        <ele>1900.0</ele>
        <time>2020-09-21T08:46:01Z</time>
      </trkpt>
      <trkpt lat="52.179306" lon="4.4834895">
        <ele>1900.0</ele>
        <time>2020-09-21T08:46:02Z</time>
      </trkpt>
      <trkpt lat="52.179306" lon="4.48351">
        <ele>1900.0</ele>
        <time>2020-09-21T08:46:03Z</time>
      </trkpt>
      <trkpt lat="52.179306" lon="4.4835243">
        <ele>1900.0</ele>
        <time>2020-09-21T08:46:05Z</time>
      </trkpt>
      <trkpt lat="52.179302" lon="4.483537">
        <ele>1900.0</ele>
        <time>2020-09-21T08:46:05Z</time>
      </trkpt>
      <trkpt lat="52.1793" lon="4.4835486">
        <ele>1900.0</ele>
        <time>2020-09-21T08:46:06Z</time>
      </trkpt>
      <trkpt lat="52.17929" lon="4.4835596">
        <ele>1900.0</ele>
        <time>2020-09-21T08:46:07Z</time>
      </trkpt>
      <trkpt lat="52.179283" lon="4.483568">
        <ele>1900.0</ele>
        <time>2020-09-21T08:46:08Z</time>
      </trkpt>
      <trkpt lat="52.179276" lon="4.4835763">
        <ele>1900.0</ele>
        <time>2020-09-21T08:46:09Z</time>
      </trkpt>
      <trkpt lat="52.179276" lon="4.4835835">
        <ele>1900.0</ele>
        <time>2020-09-21T08:46:10Z</time>
      </trkpt>
      <trkpt lat="52.179283" lon="4.4835877">
        <ele>1900.0</ele>
        <time>2020-09-21T08:46:11Z</time>
      </trkpt>
      <trkpt lat="52.179283" lon="4.4835925">
        <ele>1900.0</ele>
        <time>2020-09-21T08:46:12Z</time>
      </trkpt>
      <trkpt lat="52.179287" lon="4.483595">
        <ele>1900.0</ele>
        <time>2020-09-21T08:46:13Z</time>
      </trkpt>
      <trkpt lat="52.17929" lon="4.483596">
        <ele>1900.0</ele>
        <time>2020-09-21T08:46:14Z</time>
      </trkpt>
      <trkpt lat="52.17929" lon="4.4835997">
        <ele>1900.0</ele>
        <time>2020-09-21T08:46:15Z</time>
      </trkpt>
      <trkpt lat="52.17929" lon="4.483606">
        <ele>1900.0</ele>
        <time>2020-09-21T08:46:16Z</time>
      </trkpt>
      <trkpt lat="52.179283" lon="4.4836154">
        <ele>1900.0</ele>
        <time>2020-09-21T08:46:17Z</time>
      </trkpt>
      <trkpt lat="52.17927" lon="4.4836245">
        <ele>1900.0</ele>
        <time>2020-09-21T08:46:18Z</time>
      </trkpt>
      <trkpt lat="52.179256" lon="4.483631">
        <ele>1900.0</ele>
        <time>2020-09-21T08:46:19Z</time>
      </trkpt>
      <trkpt lat="52.179245" lon="4.4836354">
        <ele>1900.0</ele>
        <time>2020-09-21T08:46:20Z</time>
      </trkpt>
      <trkpt lat="52.17923" lon="4.4836373">
        <ele>1900.0</ele>
        <time>2020-09-21T08:46:21Z</time>
      </trkpt>
      <trkpt lat="52.179222" lon="4.48364">
        <ele>1900.0</ele>
        <time>2020-09-21T08:46:22Z</time>
      </trkpt>
      <trkpt lat="52.17921" lon="4.483643">
        <ele>1900.0</ele>
        <time>2020-09-21T08:46:23Z</time>
      </trkpt>
      <trkpt lat="52.1792" lon="4.4836483">
        <ele>1900.0</ele>
        <time>2020-09-21T08:46:24Z</time>
      </trkpt>
      <trkpt lat="52.179195" lon="4.483657">
        <ele>1900.0</ele>
        <time>2020-09-21T08:46:26Z</time>
      </trkpt>
      <trkpt lat="52.179184" lon="4.4836674">
        <ele>1900.0</ele>
        <time>2020-09-21T08:46:26Z</time>
      </trkpt>
      <trkpt lat="52.179173" lon="4.483678">
        <ele>1900.0</ele>
        <time>2020-09-21T08:46:27Z</time>
      </trkpt>
      <trkpt lat="52.17917" lon="4.4836893">
        <ele>1900.0</ele>
        <time>2020-09-21T08:46:28Z</time>
      </trkpt>
      <trkpt lat="52.179157" lon="4.4837">
        <ele>1900.0</ele>
        <time>2020-09-21T08:46:29Z</time>
      </trkpt>
      <trkpt lat="52.17915" lon="4.4837093">
        <ele>1900.0</ele>
        <time>2020-09-21T08:46:30Z</time>
      </trkpt>
      <trkpt lat="52.179127" lon="4.48372">
        <ele>1900.0</ele>
        <time>2020-09-21T08:46:31Z</time>
      </trkpt>
      <trkpt lat="52.179108" lon="4.4837346">
        <ele>1900.0</ele>
        <time>2020-09-21T08:46:32Z</time>
      </trkpt>
      <trkpt lat="52.17908" lon="4.48375">
        <ele>1900.0</ele>
        <time>2020-09-21T08:46:33Z</time>
      </trkpt>
      <trkpt lat="52.17906" lon="4.483762">
        <ele>1900.0</ele>
        <time>2020-09-21T08:46:34Z</time>
      </trkpt>
      <trkpt lat="52.179047" lon="4.4837723">
        <ele>1900.0</ele>
        <time>2020-09-21T08:46:35Z</time>
      </trkpt>
      <trkpt lat="52.179035" lon="4.4837804">
        <ele>1900.0</ele>
        <time>2020-09-21T08:46:36Z</time>
      </trkpt>
      <trkpt lat="52.179028" lon="4.483784">
        <ele>1900.0</ele>
        <time>2020-09-21T08:46:37Z</time>
      </trkpt>
      <trkpt lat="52.17902" lon="4.483787">
        <ele>1900.0</ele>
        <time>2020-09-21T08:46:38Z</time>
      </trkpt>
      <trkpt lat="52.179016" lon="4.4837914">
        <ele>1900.0</ele>
        <time>2020-09-21T08:46:39Z</time>
      </trkpt>
      <trkpt lat="52.179012" lon="4.4837966">
        <ele>1900.0</ele>
        <time>2020-09-21T08:46:40Z</time>
      </trkpt>
      <trkpt lat="52.179012" lon="4.483803">
        <ele>1900.0</ele>
        <time>2020-09-21T08:46:41Z</time>
      </trkpt>
      <trkpt lat="52.179012" lon="4.4838114">
        <ele>1900.0</ele>
        <time>2020-09-21T08:46:42Z</time>
      </trkpt>
      <trkpt lat="52.179012" lon="4.48382">
        <ele>1900.0</ele>
        <time>2020-09-21T08:46:43Z</time>
      </trkpt>
      <trkpt lat="52.179012" lon="4.483826">
        <ele>1900.0</ele>
        <time>2020-09-21T08:46:44Z</time>
      </trkpt>
      <trkpt lat="52.179005" lon="4.483829">
        <ele>1900.0</ele>
        <time>2020-09-21T08:46:45Z</time>
      </trkpt>
      <trkpt lat="52.179005" lon="4.48383">
        <ele>1900.0</ele>
        <time>2020-09-21T08:46:47Z</time>
      </trkpt>
      <trkpt lat="52.179" lon="4.483828">
        <ele>1900.0</ele>
        <time>2020-09-21T08:46:47Z</time>
      </trkpt>
      <trkpt lat="52.179" lon="4.4838295">
        <ele>1900.0</ele>
        <time>2020-09-21T08:46:48Z</time>
      </trkpt>
      <trkpt lat="52.178997" lon="4.4838376">
        <ele>1900.0</ele>
        <time>2020-09-21T08:46:49Z</time>
      </trkpt>
      <trkpt lat="52.178997" lon="4.483848">
        <ele>1900.0</ele>
        <time>2020-09-21T08:46:50Z</time>
      </trkpt>
      <trkpt lat="52.178986" lon="4.483863">
        <ele>1900.0</ele>
        <time>2020-09-21T08:46:51Z</time>
      </trkpt>
      <trkpt lat="52.178978" lon="4.4838796">
        <ele>1900.0</ele>
        <time>2020-09-21T08:46:52Z</time>
      </trkpt>
      <trkpt lat="52.178974" lon="4.4838967">
        <ele>1900.0</ele>
        <time>2020-09-21T08:46:53Z</time>
      </trkpt>
      <trkpt lat="52.178974" lon="4.4839134">
        <ele>1900.0</ele>
        <time>2020-09-21T08:46:54Z</time>
      </trkpt>
      <trkpt lat="52.178963" lon="4.483929">
        <ele>1900.0</ele>
        <time>2020-09-21T08:46:55Z</time>
      </trkpt>
      <trkpt lat="52.178955" lon="4.4839444">
        <ele>1900.0</ele>
        <time>2020-09-21T08:46:56Z</time>
      </trkpt>
      <trkpt lat="52.178944" lon="4.4839563">
        <ele>1900.0</ele>
        <time>2020-09-21T08:46:57Z</time>
      </trkpt>
      <trkpt lat="52.178932" lon="4.483966">
        <ele>1900.0</ele>
        <time>2020-09-21T08:46:58Z</time>
      </trkpt>
      <trkpt lat="52.17893" lon="4.483976">
        <ele>1900.0</ele>
        <time>2020-09-21T08:46:59Z</time>
      </trkpt>
      <trkpt lat="52.178917" lon="4.483988">
        <ele>1900.0</ele>
        <time>2020-09-21T08:47:00Z</time>
      </trkpt>
      <trkpt lat="52.17891" lon="4.484">
        <ele>1900.0</ele>
        <time>2020-09-21T08:47:01Z</time>
      </trkpt>
      <trkpt lat="52.1789" lon="4.4840145">
        <ele>1900.0</ele>
        <time>2020-09-21T08:47:02Z</time>
      </trkpt>
      <trkpt lat="52.178894" lon="4.4840302">
        <ele>1900.0</ele>
        <time>2020-09-21T08:47:03Z</time>
      </trkpt>
      <trkpt lat="52.178886" lon="4.484047">
        <ele>1900.0</ele>
        <time>2020-09-21T08:47:05Z</time>
      </trkpt>
      <trkpt lat="52.17888" lon="4.484064">
        <ele>1900.0</ele>
        <time>2020-09-21T08:47:05Z</time>
      </trkpt>
      <trkpt lat="52.17887" lon="4.4840813">
        <ele>1900.0</ele>
        <time>2020-09-21T08:47:06Z</time>
      </trkpt>
      <trkpt lat="52.178864" lon="4.4840975">
        <ele>1900.0</ele>
        <time>2020-09-21T08:47:07Z</time>
      </trkpt>
      <trkpt lat="52.178852" lon="4.484116">
        <ele>1900.0</ele>
        <time>2020-09-21T08:47:08Z</time>
      </trkpt>
      <trkpt lat="52.17884" lon="4.4841375">
        <ele>1900.0</ele>
        <time>2020-09-21T08:47:09Z</time>
      </trkpt>
      <trkpt lat="52.178833" lon="4.4841576">
        <ele>1900.0</ele>
        <time>2020-09-21T08:47:10Z</time>
      </trkpt>
      <trkpt lat="52.178818" lon="4.4841757">
        <ele>1900.0</ele>
        <time>2020-09-21T08:47:11Z</time>
      </trkpt>
      <trkpt lat="52.178806" lon="4.4841986">
        <ele>1900.0</ele>
        <time>2020-09-21T08:47:12Z</time>
      </trkpt>
      <trkpt lat="52.178802" lon="4.484222">
        <ele>1900.0</ele>
        <time>2020-09-21T08:47:13Z</time>
      </trkpt>
      <trkpt lat="52.178795" lon="4.4842453">
        <ele>1900.0</ele>
        <time>2020-09-21T08:47:14Z</time>
      </trkpt>
      <trkpt lat="52.178795" lon="4.4842687">
        <ele>1900.0</ele>
        <time>2020-09-21T08:47:15Z</time>
      </trkpt>
      <trkpt lat="52.178795" lon="4.4842906">
        <ele>1900.0</ele>
        <time>2020-09-21T08:47:16Z</time>
      </trkpt>
      <trkpt lat="52.178802" lon="4.4843116">
        <ele>1900.0</ele>
        <time>2020-09-21T08:47:17Z</time>
      </trkpt>
      <trkpt lat="52.178806" lon="4.4843297">
        <ele>1900.0</ele>
        <time>2020-09-21T08:47:18Z</time>
      </trkpt>
      <trkpt lat="52.17881" lon="4.4843464">
        <ele>1900.0</ele>
        <time>2020-09-21T08:47:19Z</time>
      </trkpt>
      <trkpt lat="52.17882" lon="4.4843593">
        <ele>1900.0</ele>
        <time>2020-09-21T08:47:20Z</time>
      </trkpt>
      <trkpt lat="52.178825" lon="4.4843736">
        <ele>1900.0</ele>
        <time>2020-09-21T08:47:21Z</time>
      </trkpt>
      <trkpt lat="52.178837" lon="4.4843874">
        <ele>1900.0</ele>
        <time>2020-09-21T08:47:22Z</time>
      </trkpt>
      <trkpt lat="52.17884" lon="4.4844">
        <ele>1900.0</ele>
        <time>2020-09-21T08:47:23Z</time>
      </trkpt>
      <trkpt lat="52.178852" lon="4.4844127">
        <ele>1900.0</ele>
        <time>2020-09-21T08:47:24Z</time>
      </trkpt>
      <trkpt lat="52.178864" lon="4.484426">
        <ele>1900.0</ele>
        <time>2020-09-21T08:47:26Z</time>
      </trkpt>
      <trkpt lat="52.178867" lon="4.48444">
        <ele>1900.0</ele>
        <time>2020-09-21T08:47:26Z</time>
      </trkpt>
      <trkpt lat="52.17888" lon="4.4844522">
        <ele>1900.0</ele>
        <time>2020-09-21T08:47:27Z</time>
      </trkpt>
      <trkpt lat="52.178886" lon="4.4844656">
        <ele>1900.0</ele>
        <time>2020-09-21T08:47:28Z</time>
      </trkpt>
      <trkpt lat="52.1789" lon="4.484477">
        <ele>1900.0</ele>
        <time>2020-09-21T08:47:29Z</time>
      </trkpt>
      <trkpt lat="52.178913" lon="4.4844885">
        <ele>1900.0</ele>
        <time>2020-09-21T08:47:30Z</time>
      </trkpt>
      <trkpt lat="52.178925" lon="4.4845">
        <ele>1900.0</ele>
        <time>2020-09-21T08:47:31Z</time>
      </trkpt>
      <trkpt lat="52.17894" lon="4.484512">
        <ele>1900.0</ele>
        <time>2020-09-21T08:47:32Z</time>
      </trkpt>
      <trkpt lat="52.17896" lon="4.4845233">
        <ele>1900.0</ele>
        <time>2020-09-21T08:47:33Z</time>
      </trkpt>
      <trkpt lat="52.178974" lon="4.484535">
        <ele>1900.0</ele>
        <time>2020-09-21T08:47:34Z</time>
      </trkpt>
      <trkpt lat="52.178986" lon="4.4845505">
        <ele>1900.0</ele>
        <time>2020-09-21T08:47:35Z</time>
      </trkpt>
      <trkpt lat="52.178997" lon="4.484567">
        <ele>1900.0</ele>
        <time>2020-09-21T08:47:37Z</time>
      </trkpt>
      <trkpt lat="52.179012" lon="4.4845862">
        <ele>1900.0</ele>
        <time>2020-09-21T08:47:37Z</time>
      </trkpt>
      <trkpt lat="52.17902" lon="4.4846053">
        <ele>1900.0</ele>
        <time>2020-09-21T08:47:38Z</time>
      </trkpt>
      <trkpt lat="52.179028" lon="4.4846234">
        <ele>1900.0</ele>
        <time>2020-09-21T08:47:39Z</time>
      </trkpt>
      <trkpt lat="52.179028" lon="4.4846406">
        <ele>1900.0</ele>
        <time>2020-09-21T08:47:40Z</time>
      </trkpt>
      <trkpt lat="52.179028" lon="4.4846573">
        <ele>1900.0</ele>
        <time>2020-09-21T08:47:41Z</time>
      </trkpt>
      <trkpt lat="52.179028" lon="4.484675">
        <ele>1900.0</ele>
        <time>2020-09-21T08:47:42Z</time>
      </trkpt>
      <trkpt lat="52.17902" lon="4.4846945">
        <ele>1900.0</ele>
        <time>2020-09-21T08:47:43Z</time>
      </trkpt>
      <trkpt lat="52.179016" lon="4.484716">
        <ele>1900.0</ele>
        <time>2020-09-21T08:47:44Z</time>
      </trkpt>
      <trkpt lat="52.179012" lon="4.4847374">
        <ele>1900.0</ele>
        <time>2020-09-21T08:47:45Z</time>
      </trkpt>
      <trkpt lat="52.179005" lon="4.484757">
        <ele>1900.0</ele>
        <time>2020-09-21T08:47:47Z</time>
      </trkpt>
      <trkpt lat="52.179" lon="4.4847755">
        <ele>1900.0</ele>
        <time>2020-09-21T08:47:47Z</time>
      </trkpt>
      <trkpt lat="52.17899" lon="4.484793">
        <ele>1900.0</ele>
        <time>2020-09-21T08:47:48Z</time>
      </trkpt>
      <trkpt lat="52.178986" lon="4.4848113">
        <ele>1900.0</ele>
        <time>2020-09-21T08:47:49Z</time>
      </trkpt>
      <trkpt lat="52.178974" lon="4.48483">
        <ele>1900.0</ele>
        <time>2020-09-21T08:47:50Z</time>
      </trkpt>
      <trkpt lat="52.17897" lon="4.4848485">
        <ele>1900.0</ele>
        <time>2020-09-21T08:47:51Z</time>
      </trkpt>
      <trkpt lat="52.17896" lon="4.4848666">
        <ele>1900.0</ele>
        <time>2020-09-21T08:47:52Z</time>
      </trkpt>
      <trkpt lat="52.178955" lon="4.4848843">
        <ele>1900.0</ele>
        <time>2020-09-21T08:47:53Z</time>
      </trkpt>
      <trkpt lat="52.178947" lon="4.4849005">
        <ele>1900.0</ele>
        <time>2020-09-21T08:47:54Z</time>
      </trkpt>
      <trkpt lat="52.178947" lon="4.4849186">
        <ele>1900.0</ele>
        <time>2020-09-21T08:47:55Z</time>
      </trkpt>
      <trkpt lat="52.178947" lon="4.4849358">
        <ele>1900.0</ele>
        <time>2020-09-21T08:47:56Z</time>
      </trkpt>
      <trkpt lat="52.178947" lon="4.48495">
        <ele>1900.0</ele>
        <time>2020-09-21T08:47:57Z</time>
      </trkpt>
      <trkpt lat="52.178947" lon="4.4849625">
        <ele>1900.0</ele>
        <time>2020-09-21T08:47:58Z</time>
      </trkpt>
      <trkpt lat="52.178944" lon="4.4849734">
        <ele>1900.0</ele>
        <time>2020-09-21T08:47:59Z</time>
      </trkpt>
      <trkpt lat="52.17894" lon="4.484986">
        <ele>1900.0</ele>
        <time>2020-09-21T08:48:00Z</time>
      </trkpt>
      <trkpt lat="52.178932" lon="4.4850006">
        <ele>1900.0</ele>
        <time>2020-09-21T08:48:01Z</time>
      </trkpt>
      <trkpt lat="52.17893" lon="4.485015">
        <ele>1900.0</ele>
        <time>2020-09-21T08:48:02Z</time>
      </trkpt>
      <trkpt lat="52.17893" lon="4.48503">
        <ele>1900.0</ele>
        <time>2020-09-21T08:48:03Z</time>
      </trkpt>
      <trkpt lat="52.178925" lon="4.485048">
        <ele>1900.0</ele>
        <time>2020-09-21T08:48:05Z</time>
      </trkpt>
      <trkpt lat="52.178913" lon="4.4850683">
        <ele>1900.0</ele>
        <time>2020-09-21T08:48:05Z</time>
      </trkpt>
      <trkpt lat="52.17891" lon="4.485089">
        <ele>1900.0</ele>
        <time>2020-09-21T08:48:06Z</time>
      </trkpt>
      <trkpt lat="52.1789" lon="4.4851093">
        <ele>1900.0</ele>
        <time>2020-09-21T08:48:07Z</time>
      </trkpt>
      <trkpt lat="52.178898" lon="4.485128">
        <ele>1900.0</ele>
        <time>2020-09-21T08:48:08Z</time>
      </trkpt>
      <trkpt lat="52.178894" lon="4.485145">
        <ele>1900.0</ele>
        <time>2020-09-21T08:48:09Z</time>
      </trkpt>
      <trkpt lat="52.178894" lon="4.4851613">
        <ele>1900.0</ele>
        <time>2020-09-21T08:48:10Z</time>
      </trkpt>
      <trkpt lat="52.178886" lon="4.4851785">
        <ele>1900.0</ele>
        <time>2020-09-21T08:48:11Z</time>
      </trkpt>
      <trkpt lat="52.178886" lon="4.4851933">
        <ele>1900.0</ele>
        <time>2020-09-21T08:48:12Z</time>
      </trkpt>
      <trkpt lat="52.178894" lon="4.4852095">
        <ele>1900.0</ele>
        <time>2020-09-21T08:48:13Z</time>
      </trkpt>
      <trkpt lat="52.178894" lon="4.485225">
        <ele>1900.0</ele>
        <time>2020-09-21T08:48:14Z</time>
      </trkpt>
      <trkpt lat="52.178898" lon="4.4852386">
        <ele>1900.0</ele>
        <time>2020-09-21T08:48:16Z</time>
      </trkpt>
      <trkpt lat="52.17891" lon="4.48525">
        <ele>1900.0</ele>
        <time>2020-09-21T08:48:16Z</time>
      </trkpt>
      <trkpt lat="52.178917" lon="4.48526">
        <ele>1900.0</ele>
        <time>2020-09-21T08:48:17Z</time>
      </trkpt>
      <trkpt lat="52.178925" lon="4.4852676">
        <ele>1900.0</ele>
        <time>2020-09-21T08:48:18Z</time>
      </trkpt>
      <trkpt lat="52.178932" lon="4.485278">
        <ele>1900.0</ele>
        <time>2020-09-21T08:48:19Z</time>
      </trkpt>
      <trkpt lat="52.178944" lon="4.48529">
        <ele>1900.0</ele>
        <time>2020-09-21T08:48:20Z</time>
      </trkpt>
      <trkpt lat="52.178947" lon="4.4853034">
        <ele>1900.0</ele>
        <time>2020-09-21T08:48:21Z</time>
      </trkpt>
      <trkpt lat="52.17896" lon="4.4853153">
        <ele>1900.0</ele>
        <time>2020-09-21T08:48:22Z</time>
      </trkpt>
      <trkpt lat="52.17896" lon="4.485328">
        <ele>1900.0</ele>
        <time>2020-09-21T08:48:23Z</time>
      </trkpt>
      <trkpt lat="52.178963" lon="4.4853396">
        <ele>1900.0</ele>
        <time>2020-09-21T08:48:24Z</time>
      </trkpt>
      <trkpt lat="52.178974" lon="4.4853525">
        <ele>1900.0</ele>
        <time>2020-09-21T08:48:25Z</time>
      </trkpt>
      <trkpt lat="52.178974" lon="4.4853644">
        <ele>1900.0</ele>
        <time>2020-09-21T08:48:26Z</time>
      </trkpt>
      <trkpt lat="52.178978" lon="4.4853745">
        <ele>1900.0</ele>
        <time>2020-09-21T08:48:27Z</time>
      </trkpt>
      <trkpt lat="52.178986" lon="4.4853816">
        <ele>1900.0</ele>
        <time>2020-09-21T08:48:28Z</time>
      </trkpt>
      <trkpt lat="52.17899" lon="4.485389">
        <ele>1900.0</ele>
        <time>2020-09-21T08:48:29Z</time>
      </trkpt>
      <trkpt lat="52.179" lon="4.4853954">
        <ele>1900.0</ele>
        <time>2020-09-21T08:48:30Z</time>
      </trkpt>
      <trkpt lat="52.179005" lon="4.4854007">
        <ele>1900.0</ele>
        <time>2020-09-21T08:48:31Z</time>
      </trkpt>
      <trkpt lat="52.179016" lon="4.4854064">
        <ele>1900.0</ele>
        <time>2020-09-21T08:48:32Z</time>
      </trkpt>
      <trkpt lat="52.179028" lon="4.4854136">
        <ele>1900.0</ele>
        <time>2020-09-21T08:48:33Z</time>
      </trkpt>
      <trkpt lat="52.17903" lon="4.4854217">
        <ele>1900.0</ele>
        <time>2020-09-21T08:48:34Z</time>
      </trkpt>
      <trkpt lat="52.179035" lon="4.48543">
        <ele>1900.0</ele>
        <time>2020-09-21T08:48:35Z</time>
      </trkpt>
      <trkpt lat="52.179035" lon="4.4854374">
        <ele>1900.0</ele>
        <time>2020-09-21T08:48:36Z</time>
      </trkpt>
      <trkpt lat="52.179043" lon="4.485443">
        <ele>1900.0</ele>
        <time>2020-09-21T08:48:37Z</time>
      </trkpt>
      <trkpt lat="52.179035" lon="4.4854465">
        <ele>1900.0</ele>
        <time>2020-09-21T08:48:38Z</time>
      </trkpt>
      <trkpt lat="52.179035" lon="4.4854507">
        <ele>1900.0</ele>
        <time>2020-09-21T08:48:39Z</time>
      </trkpt>
      <trkpt lat="52.179035" lon="4.4854527">
        <ele>1900.0</ele>
        <time>2020-09-21T08:48:40Z</time>
      </trkpt>
      <trkpt lat="52.179035" lon="4.485453">
        <ele>1900.0</ele>
        <time>2020-09-21T08:48:41Z</time>
      </trkpt>
      <trkpt lat="52.179035" lon="4.4854546">
        <ele>1900.0</ele>
        <time>2020-09-21T08:48:42Z</time>
      </trkpt>
      <trkpt lat="52.179043" lon="4.485457">
        <ele>1900.0</ele>
        <time>2020-09-21T08:48:43Z</time>
      </trkpt>
      <trkpt lat="52.179043" lon="4.4854617">
        <ele>1900.0</ele>
        <time>2020-09-21T08:48:44Z</time>
      </trkpt>
      <trkpt lat="52.179047" lon="4.4854693">
        <ele>2000.0</ele>
        <time>2020-09-21T08:48:45Z</time>
      </trkpt>
      <trkpt lat="52.17905" lon="4.4854813">
        <ele>2000.0</ele>
        <time>2020-09-21T08:48:46Z</time>
      </trkpt>
      <trkpt lat="52.179058" lon="4.4854927">
        <ele>2000.0</ele>
        <time>2020-09-21T08:48:47Z</time>
      </trkpt>
      <trkpt lat="52.179066" lon="4.485518">
        <ele>2000.0</ele>
        <time>2020-09-21T08:48:49Z</time>
      </trkpt>
      <trkpt lat="52.17906" lon="4.485518">
        <ele>2000.0</ele>
        <time>2020-09-21T08:48:51Z</time>
      </trkpt>
      <trkpt lat="52.17906" lon="4.485518">
        <ele>2000.0</ele>
        <time>2020-09-21T08:48:52Z</time>
      </trkpt>
      <trkpt lat="52.17906" lon="4.485518">
        <ele>2000.0</ele>
        <time>2020-09-21T08:48:53Z</time>
      </trkpt>
      <trkpt lat="52.17906" lon="4.485516">
        <ele>2000.0</ele>
        <time>2020-09-21T08:48:54Z</time>
      </trkpt>
      <trkpt lat="52.17906" lon="4.485517">
        <ele>2000.0</ele>
        <time>2020-09-21T08:48:55Z</time>
      </trkpt>
      <trkpt lat="52.17906" lon="4.485518">
        <ele>2000.0</ele>
        <time>2020-09-21T08:48:56Z</time>
      </trkpt>
      <trkpt lat="52.17906" lon="4.485521">
        <ele>2000.0</ele>
        <time>2020-09-21T08:48:57Z</time>
      </trkpt>
      <trkpt lat="52.17906" lon="4.4855227">
        <ele>2000.0</ele>
        <time>2020-09-21T08:48:58Z</time>
      </trkpt>
      <trkpt lat="52.17906" lon="4.4855237">
        <ele>2000.0</ele>
        <time>2020-09-21T08:48:59Z</time>
      </trkpt>
      <trkpt lat="52.17906" lon="4.4855256">
        <ele>2000.0</ele>
        <time>2020-09-21T08:49:00Z</time>
      </trkpt>
      <trkpt lat="52.17906" lon="4.4855266">
        <ele>2000.0</ele>
        <time>2020-09-21T08:49:02Z</time>
      </trkpt>
      <trkpt lat="52.179066" lon="4.4855275">
        <ele>2000.0</ele>
        <time>2020-09-21T08:49:02Z</time>
      </trkpt>
      <trkpt lat="52.179073" lon="4.485528">
        <ele>2000.0</ele>
        <time>2020-09-21T08:49:03Z</time>
      </trkpt>
      <trkpt lat="52.179077" lon="4.4855266">
        <ele>2000.0</ele>
        <time>2020-09-21T08:49:04Z</time>
      </trkpt>
      <trkpt lat="52.17908" lon="4.4855237">
        <ele>2000.0</ele>
        <time>2020-09-21T08:49:05Z</time>
      </trkpt>
      <trkpt lat="52.17908" lon="4.4855127">
        <ele>2000.0</ele>
        <time>2020-09-21T08:49:07Z</time>
      </trkpt>
      <trkpt lat="52.17908" lon="4.485504">
        <ele>2000.0</ele>
        <time>2020-09-21T08:49:10Z</time>
      </trkpt>
      <trkpt lat="52.17908" lon="4.485503">
        <ele>2000.0</ele>
        <time>2020-09-21T08:49:11Z</time>
      </trkpt>
      <trkpt lat="52.17908" lon="4.4855046">
        <ele>2000.0</ele>
        <time>2020-09-21T08:49:11Z</time>
      </trkpt>
      <trkpt lat="52.17908" lon="4.485508">
        <ele>2000.0</ele>
        <time>2020-09-21T08:49:13Z</time>
      </trkpt>
      <trkpt lat="52.179077" lon="4.4855103">
        <ele>2000.0</ele>
        <time>2020-09-21T08:49:13Z</time>
      </trkpt>
      <trkpt lat="52.179073" lon="4.4855127">
        <ele>2000.0</ele>
        <time>2020-09-21T08:49:14Z</time>
      </trkpt>
      <trkpt lat="52.17906" lon="4.485518">
        <ele>2000.0</ele>
        <time>2020-09-21T08:49:30Z</time>
      </trkpt>
      <trkpt lat="52.179066" lon="4.485521">
        <ele>2000.0</ele>
        <time>2020-09-21T08:49:40Z</time>
      </trkpt>
      <trkpt lat="52.179073" lon="4.485521">
        <ele>2000.0</ele>
        <time>2020-09-21T08:49:41Z</time>
      </trkpt>
      <trkpt lat="52.179077" lon="4.48552">
        <ele>2000.0</ele>
        <time>2020-09-21T08:49:42Z</time>
      </trkpt>
      <trkpt lat="52.17909" lon="4.485519">
        <ele>2000.0</ele>
        <time>2020-09-21T08:49:43Z</time>
      </trkpt>
      <trkpt lat="52.179092" lon="4.485518">
        <ele>2000.0</ele>
        <time>2020-09-21T08:49:44Z</time>
      </trkpt>
      <trkpt lat="52.179104" lon="4.485518">
        <ele>2000.0</ele>
        <time>2020-09-21T08:49:45Z</time>
      </trkpt>
      <trkpt lat="52.17911" lon="4.485518">
        <ele>2000.0</ele>
        <time>2020-09-21T08:49:46Z</time>
      </trkpt>
      <trkpt lat="52.179127" lon="4.4855185">
        <ele>2000.0</ele>
        <time>2020-09-21T08:49:47Z</time>
      </trkpt>
      <trkpt lat="52.17914" lon="4.4855204">
        <ele>2000.0</ele>
        <time>2020-09-21T08:49:48Z</time>
      </trkpt>
      <trkpt lat="52.179153" lon="4.4855247">
        <ele>2000.0</ele>
        <time>2020-09-21T08:49:49Z</time>
      </trkpt>
      <trkpt lat="52.179165" lon="4.485528">
        <ele>2000.0</ele>
        <time>2020-09-21T08:49:50Z</time>
      </trkpt>
      <trkpt lat="52.17917" lon="4.4855313">
        <ele>2000.0</ele>
        <time>2020-09-21T08:49:51Z</time>
      </trkpt>
      <trkpt lat="52.17918" lon="4.485533">
        <ele>2000.0</ele>
        <time>2020-09-21T08:49:52Z</time>
      </trkpt>
      <trkpt lat="52.17919" lon="4.485533">
        <ele>2000.0</ele>
        <time>2020-09-21T08:49:53Z</time>
      </trkpt>
      <trkpt lat="52.179195" lon="4.4855323">
        <ele>2000.0</ele>
        <time>2020-09-21T08:49:54Z</time>
      </trkpt>
      <trkpt lat="52.179207" lon="4.485532">
        <ele>2000.0</ele>
        <time>2020-09-21T08:49:55Z</time>
      </trkpt>
      <trkpt lat="52.179214" lon="4.4855328">
        <ele>2000.0</ele>
        <time>2020-09-21T08:49:56Z</time>
      </trkpt>
      <trkpt lat="52.179226" lon="4.4855356">
        <ele>2000.0</ele>
        <time>2020-09-21T08:49:57Z</time>
      </trkpt>
      <trkpt lat="52.179237" lon="4.4855394">
        <ele>2000.0</ele>
        <time>2020-09-21T08:49:58Z</time>
      </trkpt>
      <trkpt lat="52.179245" lon="4.4855423">
        <ele>2000.0</ele>
        <time>2020-09-21T08:49:59Z</time>
      </trkpt>
      <trkpt lat="52.17926" lon="4.485548">
        <ele>2000.0</ele>
        <time>2020-09-21T08:50:00Z</time>
      </trkpt>
      <trkpt lat="52.179276" lon="4.4855556">
        <ele>2000.0</ele>
        <time>2020-09-21T08:50:01Z</time>
      </trkpt>
      <trkpt lat="52.17929" lon="4.485568">
        <ele>2000.0</ele>
        <time>2020-09-21T08:50:02Z</time>
      </trkpt>
      <trkpt lat="52.179306" lon="4.485583">
        <ele>2000.0</ele>
        <time>2020-09-21T08:50:03Z</time>
      </trkpt>
      <trkpt lat="52.17933" lon="4.4855914">
        <ele>2000.0</ele>
        <time>2020-09-21T08:50:04Z</time>
      </trkpt>
      <trkpt lat="52.179344" lon="4.4855976">
        <ele>2000.0</ele>
        <time>2020-09-21T08:50:05Z</time>
      </trkpt>
      <trkpt lat="52.17935" lon="4.4856052">
        <ele>2000.0</ele>
        <time>2020-09-21T08:50:06Z</time>
      </trkpt>
      <trkpt lat="52.179363" lon="4.4856133">
        <ele>2000.0</ele>
        <time>2020-09-21T08:50:07Z</time>
      </trkpt>
      <trkpt lat="52.179375" lon="4.485625">
        <ele>2000.0</ele>
        <time>2020-09-21T08:50:08Z</time>
      </trkpt>
      <trkpt lat="52.17938" lon="4.4856358">
        <ele>2000.0</ele>
        <time>2020-09-21T08:50:09Z</time>
      </trkpt>
      <trkpt lat="52.17939" lon="4.4856462">
        <ele>2000.0</ele>
        <time>2020-09-21T08:50:10Z</time>
      </trkpt>
      <trkpt lat="52.1794" lon="4.485656">
        <ele>2000.0</ele>
        <time>2020-09-21T08:50:11Z</time>
      </trkpt>
      <trkpt lat="52.179405" lon="4.485665">
        <ele>2000.0</ele>
        <time>2020-09-21T08:50:13Z</time>
      </trkpt>
      <trkpt lat="52.179417" lon="4.4856744">
        <ele>2000.0</ele>
        <time>2020-09-21T08:50:13Z</time>
      </trkpt>
      <trkpt lat="52.17942" lon="4.485686">
        <ele>2000.0</ele>
        <time>2020-09-21T08:50:14Z</time>
      </trkpt>
      <trkpt lat="52.179424" lon="4.485697">
        <ele>2000.0</ele>
        <time>2020-09-21T08:50:15Z</time>
      </trkpt>
      <trkpt lat="52.179432" lon="4.4857063">
        <ele>2000.0</ele>
        <time>2020-09-21T08:50:16Z</time>
      </trkpt>
      <trkpt lat="52.179436" lon="4.4857183">
        <ele>2000.0</ele>
        <time>2020-09-21T08:50:17Z</time>
      </trkpt>
      <trkpt lat="52.17944" lon="4.48573">
        <ele>2000.0</ele>
        <time>2020-09-21T08:50:18Z</time>
      </trkpt>
      <trkpt lat="52.179447" lon="4.4857445">
        <ele>2000.0</ele>
        <time>2020-09-21T08:50:19Z</time>
      </trkpt>
      <trkpt lat="52.17945" lon="4.4857574">
        <ele>2000.0</ele>
        <time>2020-09-21T08:50:20Z</time>
      </trkpt>
      <trkpt lat="52.179455" lon="4.48577">
        <ele>1900.0</ele>
        <time>2020-09-21T08:50:21Z</time>
      </trkpt>
      <trkpt lat="52.179462" lon="4.485781">
        <ele>1900.0</ele>
        <time>2020-09-21T08:50:22Z</time>
      </trkpt>
      <trkpt lat="52.179466" lon="4.4857883">
        <ele>1900.0</ele>
        <time>2020-09-21T08:50:23Z</time>
      </trkpt>
      <trkpt lat="52.17947" lon="4.4857945">
        <ele>1900.0</ele>
        <time>2020-09-21T08:50:24Z</time>
      </trkpt>
      <trkpt lat="52.179478" lon="4.4858007">
        <ele>1900.0</ele>
        <time>2020-09-21T08:50:25Z</time>
      </trkpt>
      <trkpt lat="52.17948" lon="4.485807">
        <ele>1900.0</ele>
        <time>2020-09-21T08:50:26Z</time>
      </trkpt>
      <trkpt lat="52.179485" lon="4.4858146">
        <ele>1900.0</ele>
        <time>2020-09-21T08:50:27Z</time>
      </trkpt>
      <trkpt lat="52.179497" lon="4.4858236">
        <ele>1900.0</ele>
        <time>2020-09-21T08:50:28Z</time>
      </trkpt>
      <trkpt lat="52.1795" lon="4.485833">
        <ele>1900.0</ele>
        <time>2020-09-21T08:50:29Z</time>
      </trkpt>
      <trkpt lat="52.17951" lon="4.4858418">
        <ele>1900.0</ele>
        <time>2020-09-21T08:50:30Z</time>
      </trkpt>
      <trkpt lat="52.179516" lon="4.4858513">
        <ele>1900.0</ele>
        <time>2020-09-21T08:50:31Z</time>
      </trkpt>
      <trkpt lat="52.179527" lon="4.4858603">
        <ele>1900.0</ele>
        <time>2020-09-21T08:50:32Z</time>
      </trkpt>
      <trkpt lat="52.17953" lon="4.48587">
        <ele>1900.0</ele>
        <time>2020-09-21T08:50:34Z</time>
      </trkpt>
      <trkpt lat="52.179543" lon="4.485877">
        <ele>1900.0</ele>
        <time>2020-09-21T08:50:34Z</time>
      </trkpt>
      <trkpt lat="52.179554" lon="4.4858847">
        <ele>1900.0</ele>
        <time>2020-09-21T08:50:35Z</time>
      </trkpt>
      <trkpt lat="52.179558" lon="4.4858904">
        <ele>1900.0</ele>
        <time>2020-09-21T08:50:36Z</time>
      </trkpt>
      <trkpt lat="52.179558" lon="4.485896">
        <ele>1900.0</ele>
        <time>2020-09-21T08:50:37Z</time>
      </trkpt>
      <trkpt lat="52.17956" lon="4.485901">
        <ele>1900.0</ele>
        <time>2020-09-21T08:50:38Z</time>
      </trkpt>
      <trkpt lat="52.17957" lon="4.4859056">
        <ele>1900.0</ele>
        <time>2020-09-21T08:50:39Z</time>
      </trkpt>
      <trkpt lat="52.17957" lon="4.4859095">
        <ele>1900.0</ele>
        <time>2020-09-21T08:50:40Z</time>
      </trkpt>
      <trkpt lat="52.17958" lon="4.4859157">
        <ele>1900.0</ele>
        <time>2020-09-21T08:50:42Z</time>
      </trkpt>
      <trkpt lat="52.17958" lon="4.4859166">
        <ele>1900.0</ele>
        <time>2020-09-21T08:50:43Z</time>
      </trkpt>
      <trkpt lat="52.179585" lon="4.485918">
        <ele>1900.0</ele>
        <time>2020-09-21T08:50:45Z</time>
      </trkpt>
      <trkpt lat="52.17959" lon="4.4859214">
        <ele>1900.0</ele>
        <time>2020-09-21T08:50:45Z</time>
      </trkpt>
      <trkpt lat="52.179596" lon="4.4859233">
        <ele>1900.0</ele>
        <time>2020-09-21T08:50:46Z</time>
      </trkpt>
      <trkpt lat="52.179604" lon="4.485925">
        <ele>1900.0</ele>
        <time>2020-09-21T08:50:47Z</time>
      </trkpt>
      <trkpt lat="52.179615" lon="4.4859285">
        <ele>1900.0</ele>
        <time>2020-09-21T08:50:48Z</time>
      </trkpt>
      <trkpt lat="52.179626" lon="4.4859324">
        <ele>1900.0</ele>
        <time>2020-09-21T08:50:49Z</time>
      </trkpt>
      <trkpt lat="52.179634" lon="4.485938">
        <ele>1900.0</ele>
        <time>2020-09-21T08:50:50Z</time>
      </trkpt>
      <trkpt lat="52.179646" lon="4.4859433">
        <ele>1900.0</ele>
        <time>2020-09-21T08:50:51Z</time>
      </trkpt>
      <trkpt lat="52.17965" lon="4.48595">
        <ele>1900.0</ele>
        <time>2020-09-21T08:50:52Z</time>
      </trkpt>
      <trkpt lat="52.17966" lon="4.485959">
        <ele>1900.0</ele>
        <time>2020-09-21T08:50:53Z</time>
      </trkpt>
      <trkpt lat="52.179665" lon="4.485968">
        <ele>1900.0</ele>
        <time>2020-09-21T08:50:55Z</time>
      </trkpt>
      <trkpt lat="52.179672" lon="4.4859786">
        <ele>1900.0</ele>
        <time>2020-09-21T08:50:55Z</time>
      </trkpt>
      <trkpt lat="52.179665" lon="4.4859905">
        <ele>1900.0</ele>
        <time>2020-09-21T08:50:56Z</time>
      </trkpt>
      <trkpt lat="52.17966" lon="4.4860053">
        <ele>1900.0</ele>
        <time>2020-09-21T08:50:57Z</time>
      </trkpt>
      <trkpt lat="52.179657" lon="4.486022">
        <ele>1900.0</ele>
        <time>2020-09-21T08:50:58Z</time>
      </trkpt>
      <trkpt lat="52.179646" lon="4.486038">
        <ele>1900.0</ele>
        <time>2020-09-21T08:50:59Z</time>
      </trkpt>
      <trkpt lat="52.17964" lon="4.4860544">
        <ele>1900.0</ele>
        <time>2020-09-21T08:51:00Z</time>
      </trkpt>
      <trkpt lat="52.17964" lon="4.486069">
        <ele>1900.0</ele>
        <time>2020-09-21T08:51:01Z</time>
      </trkpt>
      <trkpt lat="52.179634" lon="4.486083">
        <ele>1900.0</ele>
        <time>2020-09-21T08:51:03Z</time>
      </trkpt>
      <trkpt lat="52.17963" lon="4.486096">
        <ele>1900.0</ele>
        <time>2020-09-21T08:51:03Z</time>
      </trkpt>
      <trkpt lat="52.17963" lon="4.4861093">
        <ele>1900.0</ele>
        <time>2020-09-21T08:51:04Z</time>
      </trkpt>
      <trkpt lat="52.179626" lon="4.486124">
        <ele>1900.0</ele>
        <time>2020-09-21T08:51:05Z</time>
      </trkpt>
      <trkpt lat="52.17962" lon="4.4861383">
        <ele>1900.0</ele>
        <time>2020-09-21T08:51:06Z</time>
      </trkpt>
      <trkpt lat="52.179615" lon="4.4861503">
        <ele>1900.0</ele>
        <time>2020-09-21T08:51:07Z</time>
      </trkpt>
      <trkpt lat="52.179615" lon="4.4861627">
        <ele>1900.0</ele>
        <time>2020-09-21T08:51:08Z</time>
      </trkpt>
      <trkpt lat="52.17961" lon="4.486175">
        <ele>1900.0</ele>
        <time>2020-09-21T08:51:09Z</time>
      </trkpt>
      <trkpt lat="52.17961" lon="4.486189">
        <ele>1900.0</ele>
        <time>2020-09-21T08:51:10Z</time>
      </trkpt>
      <trkpt lat="52.179604" lon="4.486204">
        <ele>1900.0</ele>
        <time>2020-09-21T08:51:11Z</time>
      </trkpt>
      <trkpt lat="52.179604" lon="4.4862204">
        <ele>1900.0</ele>
        <time>2020-09-21T08:51:12Z</time>
      </trkpt>
      <trkpt lat="52.179604" lon="4.486237">
        <ele>1900.0</ele>
        <time>2020-09-21T08:51:14Z</time>
      </trkpt>
      <trkpt lat="52.179604" lon="4.4862533">
        <ele>1900.0</ele>
        <time>2020-09-21T08:51:14Z</time>
      </trkpt>
      <trkpt lat="52.179604" lon="4.4862695">
        <ele>1900.0</ele>
        <time>2020-09-21T08:51:15Z</time>
      </trkpt>
      <trkpt lat="52.179604" lon="4.4862843">
        <ele>1900.0</ele>
        <time>2020-09-21T08:51:16Z</time>
      </trkpt>
      <trkpt lat="52.179604" lon="4.486298">
        <ele>1900.0</ele>
        <time>2020-09-21T08:51:17Z</time>
      </trkpt>
      <trkpt lat="52.1796" lon="4.4863114">
        <ele>1900.0</ele>
        <time>2020-09-21T08:51:18Z</time>
      </trkpt>
      <trkpt lat="52.1796" lon="4.4863253">
        <ele>1900.0</ele>
        <time>2020-09-21T08:51:19Z</time>
      </trkpt>
      <trkpt lat="52.1796" lon="4.486341">
        <ele>1900.0</ele>
        <time>2020-09-21T08:51:20Z</time>
      </trkpt>
      <trkpt lat="52.1796" lon="4.486357">
        <ele>1900.0</ele>
        <time>2020-09-21T08:51:21Z</time>
      </trkpt>
      <trkpt lat="52.1796" lon="4.4863706">
        <ele>1900.0</ele>
        <time>2020-09-21T08:51:22Z</time>
      </trkpt>
      <trkpt lat="52.179596" lon="4.486381">
        <ele>1900.0</ele>
        <time>2020-09-21T08:51:24Z</time>
      </trkpt>
      <trkpt lat="52.179596" lon="4.486389">
        <ele>1900.0</ele>
        <time>2020-09-21T08:51:24Z</time>
      </trkpt>
      <trkpt lat="52.179596" lon="4.486395">
        <ele>1900.0</ele>
        <time>2020-09-21T08:51:25Z</time>
      </trkpt>
      <trkpt lat="52.17959" lon="4.4863997">
        <ele>1900.0</ele>
        <time>2020-09-21T08:51:26Z</time>
      </trkpt>
      <trkpt lat="52.179596" lon="4.486403">
        <ele>1900.0</ele>
        <time>2020-09-21T08:51:27Z</time>
      </trkpt>
      <trkpt lat="52.179596" lon="4.486407">
        <ele>1900.0</ele>
        <time>2020-09-21T08:51:28Z</time>
      </trkpt>
      <trkpt lat="52.179596" lon="4.486412">
        <ele>1900.0</ele>
        <time>2020-09-21T08:51:29Z</time>
      </trkpt>
      <trkpt lat="52.179596" lon="4.486417">
        <ele>1900.0</ele>
        <time>2020-09-21T08:51:30Z</time>
      </trkpt>
      <trkpt lat="52.17959" lon="4.4864197">
        <ele>1900.0</ele>
        <time>2020-09-21T08:51:31Z</time>
      </trkpt>
      <trkpt lat="52.179585" lon="4.486423">
        <ele>1900.0</ele>
        <time>2020-09-21T08:51:32Z</time>
      </trkpt>
      <trkpt lat="52.17958" lon="4.486422">
        <ele>1900.0</ele>
        <time>2020-09-21T08:51:33Z</time>
      </trkpt>
      <trkpt lat="52.179573" lon="4.486421">
        <ele>1900.0</ele>
        <time>2020-09-21T08:51:35Z</time>
      </trkpt>
      <trkpt lat="52.17957" lon="4.4864216">
        <ele>1900.0</ele>
        <time>2020-09-21T08:51:35Z</time>
      </trkpt>
      <trkpt lat="52.179554" lon="4.4864225">
        <ele>1900.0</ele>
        <time>2020-09-21T08:51:37Z</time>
      </trkpt>
      <trkpt lat="52.179554" lon="4.486421">
        <ele>1900.0</ele>
        <time>2020-09-21T08:51:38Z</time>
      </trkpt>
      <trkpt lat="52.179554" lon="4.486419">
        <ele>1900.0</ele>
        <time>2020-09-21T08:51:39Z</time>
      </trkpt>
      <trkpt lat="52.179558" lon="4.4864187">
        <ele>1900.0</ele>
        <time>2020-09-21T08:51:41Z</time>
      </trkpt>
      <trkpt lat="52.179558" lon="4.4864182">
        <ele>1900.0</ele>
        <time>2020-09-21T08:51:42Z</time>
      </trkpt>
      <trkpt lat="52.179558" lon="4.4864225">
        <ele>1900.0</ele>
        <time>2020-09-21T08:51:56Z</time>
      </trkpt>
      <trkpt lat="52.179554" lon="4.486429">
        <ele>1900.0</ele>
        <time>2020-09-21T08:52:00Z</time>
      </trkpt>
      <trkpt lat="52.179554" lon="4.4864297">
        <ele>1900.0</ele>
        <time>2020-09-21T08:52:01Z</time>
      </trkpt>
      <trkpt lat="52.179554" lon="4.486431">
        <ele>1900.0</ele>
        <time>2020-09-21T08:52:02Z</time>
      </trkpt>
      <trkpt lat="52.179546" lon="4.4864306">
        <ele>1900.0</ele>
        <time>2020-09-21T08:52:21Z</time>
      </trkpt>
      <trkpt lat="52.179546" lon="4.4864306">
        <ele>1900.0</ele>
        <time>2020-09-21T08:52:31Z</time>
      </trkpt>
      <trkpt lat="52.179546" lon="4.486432">
        <ele>1900.0</ele>
        <time>2020-09-21T08:52:32Z</time>
      </trkpt>
      <trkpt lat="52.179546" lon="4.486435">
        <ele>1900.0</ele>
        <time>2020-09-21T08:52:33Z</time>
      </trkpt>
      <trkpt lat="52.179546" lon="4.486439">
        <ele>1900.0</ele>
        <time>2020-09-21T08:52:34Z</time>
      </trkpt>
      <trkpt lat="52.179546" lon="4.486445">
        <ele>1900.0</ele>
        <time>2020-09-21T08:52:35Z</time>
      </trkpt>
      <trkpt lat="52.179554" lon="4.4864507">
        <ele>1900.0</ele>
        <time>2020-09-21T08:52:36Z</time>
      </trkpt>
      <trkpt lat="52.179554" lon="4.4864564">
        <ele>1900.0</ele>
        <time>2020-09-21T08:52:37Z</time>
      </trkpt>
      <trkpt lat="52.179558" lon="4.4864616">
        <ele>1900.0</ele>
        <time>2020-09-21T08:52:38Z</time>
      </trkpt>
      <trkpt lat="52.179573" lon="4.486472">
        <ele>1900.0</ele>
        <time>2020-09-21T08:52:50Z</time>
      </trkpt>
      <trkpt lat="52.179573" lon="4.4864755">
        <ele>1900.0</ele>
        <time>2020-09-21T08:52:53Z</time>
      </trkpt>
      <trkpt lat="52.179573" lon="4.486476">
        <ele>1900.0</ele>
        <time>2020-09-21T08:52:54Z</time>
      </trkpt>
      <trkpt lat="52.179573" lon="4.486478">
        <ele>1900.0</ele>
        <time>2020-09-21T08:52:55Z</time>
      </trkpt>
      <trkpt lat="52.179573" lon="4.486481">
        <ele>1900.0</ele>
        <time>2020-09-21T08:52:57Z</time>
      </trkpt>
      <trkpt lat="52.179573" lon="4.4864864">
        <ele>1900.0</ele>
        <time>2020-09-21T08:52:57Z</time>
      </trkpt>
      <trkpt lat="52.179573" lon="4.4864926">
        <ele>1900.0</ele>
        <time>2020-09-21T08:52:58Z</time>
      </trkpt>
      <trkpt lat="52.179573" lon="4.4864974">
        <ele>1900.0</ele>
        <time>2020-09-21T08:52:59Z</time>
      </trkpt>
      <trkpt lat="52.17958" lon="4.4865108">
        <ele>2000.0</ele>
        <time>2020-09-21T08:53:05Z</time>
      </trkpt>
      <trkpt lat="52.179585" lon="4.486512">
        <ele>2000.0</ele>
        <time>2020-09-21T08:53:08Z</time>
      </trkpt>
      <trkpt lat="52.1796" lon="4.486509">
        <ele>2000.0</ele>
        <time>2020-09-21T08:53:17Z</time>
      </trkpt>
      <trkpt lat="52.1796" lon="4.4865055">
        <ele>2000.0</ele>
        <time>2020-09-21T08:53:18Z</time>
      </trkpt>
      <trkpt lat="52.179604" lon="4.486501">
        <ele>2000.0</ele>
        <time>2020-09-21T08:53:19Z</time>
      </trkpt>
      <trkpt lat="52.17961" lon="4.486497">
        <ele>2000.0</ele>
        <time>2020-09-21T08:53:20Z</time>
      </trkpt>
      <trkpt lat="52.179626" lon="4.4864855">
        <ele>2000.0</ele>
        <time>2020-09-21T08:53:25Z</time>
      </trkpt>
      <trkpt lat="52.179626" lon="4.486482">
        <ele>2000.0</ele>
        <time>2020-09-21T08:53:27Z</time>
      </trkpt>
      <trkpt lat="52.17962" lon="4.486469">
        <ele>2000.0</ele>
        <time>2020-09-21T08:53:45Z</time>
      </trkpt>
      <trkpt lat="52.17962" lon="4.4864655">
        <ele>2000.0</ele>
        <time>2020-09-21T08:53:47Z</time>
      </trkpt>
      <trkpt lat="52.17962" lon="4.486465">
        <ele>2000.0</ele>
        <time>2020-09-21T08:53:48Z</time>
      </trkpt>
      <trkpt lat="52.179615" lon="4.4864645">
        <ele>2000.0</ele>
        <time>2020-09-21T08:53:49Z</time>
      </trkpt>
      <trkpt lat="52.179615" lon="4.486463">
        <ele>2000.0</ele>
        <time>2020-09-21T08:53:50Z</time>
      </trkpt>
      <trkpt lat="52.17961" lon="4.4864597">
        <ele>2000.0</ele>
        <time>2020-09-21T08:53:51Z</time>
      </trkpt>
      <trkpt lat="52.179604" lon="4.486457">
        <ele>2000.0</ele>
        <time>2020-09-21T08:53:52Z</time>
      </trkpt>
      <trkpt lat="52.17959" lon="4.486464">
        <ele>2000.0</ele>
        <time>2020-09-21T08:54:10Z</time>
      </trkpt>
      <trkpt lat="52.17959" lon="4.4864697">
        <ele>2000.0</ele>
        <time>2020-09-21T08:54:10Z</time>
      </trkpt>
      <trkpt lat="52.17959" lon="4.486483">
        <ele>2000.0</ele>
        <time>2020-09-21T08:54:11Z</time>
      </trkpt>
      <trkpt lat="52.17959" lon="4.4865017">
        <ele>2000.0</ele>
        <time>2020-09-21T08:54:12Z</time>
      </trkpt>
      <trkpt lat="52.179596" lon="4.486523">
        <ele>2000.0</ele>
        <time>2020-09-21T08:54:13Z</time>
      </trkpt>
      <trkpt lat="52.1796" lon="4.4865456">
        <ele>2000.0</ele>
        <time>2020-09-21T08:54:14Z</time>
      </trkpt>
      <trkpt lat="52.179604" lon="4.4865675">
        <ele>2000.0</ele>
        <time>2020-09-21T08:54:15Z</time>
      </trkpt>
      <trkpt lat="52.17961" lon="4.4865885">
        <ele>2000.0</ele>
        <time>2020-09-21T08:54:16Z</time>
      </trkpt>
      <trkpt lat="52.179615" lon="4.4866076">
        <ele>2000.0</ele>
        <time>2020-09-21T08:54:17Z</time>
      </trkpt>
      <trkpt lat="52.17962" lon="4.4866257">
        <ele>2000.0</ele>
        <time>2020-09-21T08:54:18Z</time>
      </trkpt>
      <trkpt lat="52.17962" lon="4.4866385">
        <ele>2000.0</ele>
        <time>2020-09-21T08:54:19Z</time>
      </trkpt>
      <trkpt lat="52.17963" lon="4.486649">
        <ele>2000.0</ele>
        <time>2020-09-21T08:54:20Z</time>
      </trkpt>
      <trkpt lat="52.179634" lon="4.486658">
        <ele>2000.0</ele>
        <time>2020-09-21T08:54:21Z</time>
      </trkpt>
      <trkpt lat="52.179646" lon="4.486665">
        <ele>2000.0</ele>
        <time>2020-09-21T08:54:22Z</time>
      </trkpt>
      <trkpt lat="52.17965" lon="4.4866695">
        <ele>2000.0</ele>
        <time>2020-09-21T08:54:23Z</time>
      </trkpt>
      <trkpt lat="52.17966" lon="4.486675">
        <ele>2000.0</ele>
        <time>2020-09-21T08:54:24Z</time>
      </trkpt>
      <trkpt lat="52.179665" lon="4.4866805">
        <ele>2000.0</ele>
        <time>2020-09-21T08:54:25Z</time>
      </trkpt>
      <trkpt lat="52.179665" lon="4.4866853">
        <ele>2000.0</ele>
        <time>2020-09-21T08:54:26Z</time>
      </trkpt>
      <trkpt lat="52.179672" lon="4.486691">
        <ele>2000.0</ele>
        <time>2020-09-21T08:54:27Z</time>
      </trkpt>
      <trkpt lat="52.179672" lon="4.486695">
        <ele>2000.0</ele>
        <time>2020-09-21T08:54:28Z</time>
      </trkpt>
      <trkpt lat="52.179676" lon="4.4866962">
        <ele>2000.0</ele>
        <time>2020-09-21T08:54:29Z</time>
      </trkpt>
      <trkpt lat="52.17968" lon="4.486696">
        <ele>2000.0</ele>
        <time>2020-09-21T08:54:31Z</time>
      </trkpt>
      <trkpt lat="52.179688" lon="4.486695">
        <ele>2000.0</ele>
        <time>2020-09-21T08:54:31Z</time>
      </trkpt>
      <trkpt lat="52.179695" lon="4.4866953">
        <ele>2000.0</ele>
        <time>2020-09-21T08:54:32Z</time>
      </trkpt>
      <trkpt lat="52.179703" lon="4.4866953">
        <ele>2000.0</ele>
        <time>2020-09-21T08:54:33Z</time>
      </trkpt>
      <trkpt lat="52.17971" lon="4.486695">
        <ele>2000.0</ele>
        <time>2020-09-21T08:54:34Z</time>
      </trkpt>
      <trkpt lat="52.179726" lon="4.486695">
        <ele>2000.0</ele>
        <time>2020-09-21T08:54:35Z</time>
      </trkpt>
      <trkpt lat="52.179737" lon="4.486697">
        <ele>2000.0</ele>
        <time>2020-09-21T08:54:36Z</time>
      </trkpt>
      <trkpt lat="52.17975" lon="4.486702">
        <ele>2000.0</ele>
        <time>2020-09-21T08:54:37Z</time>
      </trkpt>
      <trkpt lat="52.17975" lon="4.486707">
        <ele>2000.0</ele>
        <time>2020-09-21T08:54:38Z</time>
      </trkpt>
      <trkpt lat="52.17976" lon="4.4867153">
        <ele>2000.0</ele>
        <time>2020-09-21T08:54:39Z</time>
      </trkpt>
      <trkpt lat="52.179764" lon="4.486725">
        <ele>2000.0</ele>
        <time>2020-09-21T08:54:40Z</time>
      </trkpt>
      <trkpt lat="52.179764" lon="4.486732">
        <ele>2000.0</ele>
        <time>2020-09-21T08:54:41Z</time>
      </trkpt>
      <trkpt lat="52.179768" lon="4.486737">
        <ele>2000.0</ele>
        <time>2020-09-21T08:54:42Z</time>
      </trkpt>
      <trkpt lat="52.179775" lon="4.4867406">
        <ele>2000.0</ele>
        <time>2020-09-21T08:54:43Z</time>
      </trkpt>
      <trkpt lat="52.17978" lon="4.4867435">
        <ele>2000.0</ele>
        <time>2020-09-21T08:54:44Z</time>
      </trkpt>
      <trkpt lat="52.17979" lon="4.486747">
        <ele>2000.0</ele>
        <time>2020-09-21T08:54:45Z</time>
      </trkpt>
      <trkpt lat="52.1798" lon="4.4867496">
        <ele>2000.0</ele>
        <time>2020-09-21T08:54:46Z</time>
      </trkpt>
      <trkpt lat="52.17981" lon="4.4867516">
        <ele>2000.0</ele>
        <time>2020-09-21T08:54:47Z</time>
      </trkpt>
      <trkpt lat="52.17982" lon="4.486753">
        <ele>2000.0</ele>
        <time>2020-09-21T08:54:48Z</time>
      </trkpt>
      <trkpt lat="52.17983" lon="4.4867563">
        <ele>2000.0</ele>
        <time>2020-09-21T08:54:49Z</time>
      </trkpt>
      <trkpt lat="52.17984" lon="4.486761">
        <ele>2000.0</ele>
        <time>2020-09-21T08:54:50Z</time>
      </trkpt>
      <trkpt lat="52.179844" lon="4.486766">
        <ele>2000.0</ele>
        <time>2020-09-21T08:54:52Z</time>
      </trkpt>
      <trkpt lat="52.17985" lon="4.486772">
        <ele>2000.0</ele>
        <time>2020-09-21T08:54:52Z</time>
      </trkpt>
      <trkpt lat="52.17986" lon="4.48678">
        <ele>2000.0</ele>
        <time>2020-09-21T08:54:53Z</time>
      </trkpt>
      <trkpt lat="52.179867" lon="4.4867926">
        <ele>2000.0</ele>
        <time>2020-09-21T08:54:54Z</time>
      </trkpt>
      <trkpt lat="52.179874" lon="4.486809">
        <ele>2000.0</ele>
        <time>2020-09-21T08:54:55Z</time>
      </trkpt>
      <trkpt lat="52.179882" lon="4.486825">
        <ele>2000.0</ele>
        <time>2020-09-21T08:54:56Z</time>
      </trkpt>
      <trkpt lat="52.179886" lon="4.4868393">
        <ele>2000.0</ele>
        <time>2020-09-21T08:54:57Z</time>
      </trkpt>
      <trkpt lat="52.17989" lon="4.4868484">
        <ele>2000.0</ele>
        <time>2020-09-21T08:54:58Z</time>
      </trkpt>
      <trkpt lat="52.179897" lon="4.4868555">
        <ele>2000.0</ele>
        <time>2020-09-21T08:55:00Z</time>
      </trkpt>
      <trkpt lat="52.1799" lon="4.486861">
        <ele>2000.0</ele>
        <time>2020-09-21T08:55:00Z</time>
      </trkpt>
      <trkpt lat="52.1799" lon="4.486865">
        <ele>2000.0</ele>
        <time>2020-09-21T08:55:01Z</time>
      </trkpt>
      <trkpt lat="52.1799" lon="4.4868712">
        <ele>2000.0</ele>
        <time>2020-09-21T08:55:02Z</time>
      </trkpt>
      <trkpt lat="52.179905" lon="4.48688">
        <ele>2000.0</ele>
        <time>2020-09-21T08:55:03Z</time>
      </trkpt>
      <trkpt lat="52.179905" lon="4.48689">
        <ele>2000.0</ele>
        <time>2020-09-21T08:55:04Z</time>
      </trkpt>
      <trkpt lat="52.179913" lon="4.4869003">
        <ele>2000.0</ele>
        <time>2020-09-21T08:55:05Z</time>
      </trkpt>
      <trkpt lat="52.17992" lon="4.4869084">
        <ele>2000.0</ele>
        <time>2020-09-21T08:55:06Z</time>
      </trkpt>
      <trkpt lat="52.179928" lon="4.486915">
        <ele>2000.0</ele>
        <time>2020-09-21T08:55:07Z</time>
      </trkpt>
      <trkpt lat="52.179935" lon="4.4869227">
        <ele>2000.0</ele>
        <time>2020-09-21T08:55:08Z</time>
      </trkpt>
      <trkpt lat="52.179947" lon="4.4869304">
        <ele>2000.0</ele>
        <time>2020-09-21T08:55:10Z</time>
      </trkpt>
      <trkpt lat="52.179962" lon="4.4869375">
        <ele>2000.0</ele>
        <time>2020-09-21T08:55:10Z</time>
      </trkpt>
      <trkpt lat="52.179974" lon="4.4869423">
        <ele>2000.0</ele>
        <time>2020-09-21T08:55:11Z</time>
      </trkpt>
      <trkpt lat="52.179977" lon="4.486945">
        <ele>2000.0</ele>
        <time>2020-09-21T08:55:12Z</time>
      </trkpt>
      <trkpt lat="52.17999" lon="4.486947">
        <ele>2000.0</ele>
        <time>2020-09-21T08:55:13Z</time>
      </trkpt>
      <trkpt lat="52.18" lon="4.4869514">
        <ele>2000.0</ele>
        <time>2020-09-21T08:55:14Z</time>
      </trkpt>
      <trkpt lat="52.180008" lon="4.4869585">
        <ele>2000.0</ele>
        <time>2020-09-21T08:55:15Z</time>
      </trkpt>
      <trkpt lat="52.180023" lon="4.48697">
        <ele>2000.0</ele>
        <time>2020-09-21T08:55:16Z</time>
      </trkpt>
      <trkpt lat="52.18004" lon="4.486982">
        <ele>2000.0</ele>
        <time>2020-09-21T08:55:17Z</time>
      </trkpt>
      <trkpt lat="52.180054" lon="4.4869957">
        <ele>2000.0</ele>
        <time>2020-09-21T08:55:18Z</time>
      </trkpt>
      <trkpt lat="52.180065" lon="4.4870076">
        <ele>2000.0</ele>
        <time>2020-09-21T08:55:19Z</time>
      </trkpt>
      <trkpt lat="52.18008" lon="4.487017">
        <ele>2000.0</ele>
        <time>2020-09-21T08:55:21Z</time>
      </trkpt>
      <trkpt lat="52.18009" lon="4.4870257">
        <ele>2000.0</ele>
        <time>2020-09-21T08:55:21Z</time>
      </trkpt>
      <trkpt lat="52.1801" lon="4.4870324">
        <ele>2000.0</ele>
        <time>2020-09-21T08:55:22Z</time>
      </trkpt>
      <trkpt lat="52.180107" lon="4.4870396">
        <ele>2000.0</ele>
        <time>2020-09-21T08:55:23Z</time>
      </trkpt>
      <trkpt lat="52.180115" lon="4.4870467">
        <ele>2000.0</ele>
        <time>2020-09-21T08:55:24Z</time>
      </trkpt>
      <trkpt lat="52.180122" lon="4.487054">
        <ele>2000.0</ele>
        <time>2020-09-21T08:55:25Z</time>
      </trkpt>
      <trkpt lat="52.180126" lon="4.48706">
        <ele>2000.0</ele>
        <time>2020-09-21T08:55:26Z</time>
      </trkpt>
      <trkpt lat="52.18013" lon="4.4870663">
        <ele>2000.0</ele>
        <time>2020-09-21T08:55:27Z</time>
      </trkpt>
      <trkpt lat="52.18014" lon="4.487072">
        <ele>2000.0</ele>
        <time>2020-09-21T08:55:28Z</time>
      </trkpt>
      <trkpt lat="52.18015" lon="4.4870777">
        <ele>2000.0</ele>
        <time>2020-09-21T08:55:29Z</time>
      </trkpt>
      <trkpt lat="52.180153" lon="4.4870844">
        <ele>2000.0</ele>
        <time>2020-09-21T08:55:31Z</time>
      </trkpt>
      <trkpt lat="52.180164" lon="4.4870934">
        <ele>2000.0</ele>
        <time>2020-09-21T08:55:31Z</time>
      </trkpt>
      <trkpt lat="52.18017" lon="4.487104">
        <ele>2000.0</ele>
        <time>2020-09-21T08:55:32Z</time>
      </trkpt>
      <trkpt lat="52.180172" lon="4.4871154">
        <ele>2000.0</ele>
        <time>2020-09-21T08:55:33Z</time>
      </trkpt>
      <trkpt lat="52.18018" lon="4.487126">
        <ele>2000.0</ele>
        <time>2020-09-21T08:55:34Z</time>
      </trkpt>
      <trkpt lat="52.180183" lon="4.487137">
        <ele>2000.0</ele>
        <time>2020-09-21T08:55:35Z</time>
      </trkpt>
      <trkpt lat="52.180187" lon="4.487146">
        <ele>2000.0</ele>
        <time>2020-09-21T08:55:36Z</time>
      </trkpt>
      <trkpt lat="52.180195" lon="4.4871545">
        <ele>2000.0</ele>
        <time>2020-09-21T08:55:37Z</time>
      </trkpt>
      <trkpt lat="52.180195" lon="4.487163">
        <ele>2000.0</ele>
        <time>2020-09-21T08:55:38Z</time>
      </trkpt>
      <trkpt lat="52.1802" lon="4.487171">
        <ele>2000.0</ele>
        <time>2020-09-21T08:55:39Z</time>
      </trkpt>
      <trkpt lat="52.180202" lon="4.487179">
        <ele>2000.0</ele>
        <time>2020-09-21T08:55:40Z</time>
      </trkpt>
      <trkpt lat="52.18021" lon="4.487185">
        <ele>2000.0</ele>
        <time>2020-09-21T08:55:42Z</time>
      </trkpt>
      <trkpt lat="52.180214" lon="4.4871893">
        <ele>2000.0</ele>
        <time>2020-09-21T08:55:42Z</time>
      </trkpt>
      <trkpt lat="52.180218" lon="4.487192">
        <ele>2000.0</ele>
        <time>2020-09-21T08:55:43Z</time>
      </trkpt>
      <trkpt lat="52.180225" lon="4.487195">
        <ele>2000.0</ele>
        <time>2020-09-21T08:55:44Z</time>
      </trkpt>
      <trkpt lat="52.18023" lon="4.4871984">
        <ele>2000.0</ele>
        <time>2020-09-21T08:55:45Z</time>
      </trkpt>
      <trkpt lat="52.18024" lon="4.4872026">
        <ele>2000.0</ele>
        <time>2020-09-21T08:55:46Z</time>
      </trkpt>
      <trkpt lat="52.18025" lon="4.487207">
        <ele>2000.0</ele>
        <time>2020-09-21T08:55:47Z</time>
      </trkpt>
      <trkpt lat="52.180256" lon="4.487209">
        <ele>2000.0</ele>
        <time>2020-09-21T08:55:48Z</time>
      </trkpt>
      <trkpt lat="52.180264" lon="4.4872093">
        <ele>2000.0</ele>
        <time>2020-09-21T08:55:49Z</time>
      </trkpt>
      <trkpt lat="52.18027" lon="4.487211">
        <ele>2000.0</ele>
        <time>2020-09-21T08:55:50Z</time>
      </trkpt>
      <trkpt lat="52.180275" lon="4.4872127">
        <ele>2000.0</ele>
        <time>2020-09-21T08:55:52Z</time>
      </trkpt>
      <trkpt lat="52.18028" lon="4.487214">
        <ele>2000.0</ele>
        <time>2020-09-21T08:55:52Z</time>
      </trkpt>
      <trkpt lat="52.180286" lon="4.4872155">
        <ele>2000.0</ele>
        <time>2020-09-21T08:55:53Z</time>
      </trkpt>
      <trkpt lat="52.18029" lon="4.4872184">
        <ele>2000.0</ele>
        <time>2020-09-21T08:55:54Z</time>
      </trkpt>
      <trkpt lat="52.18029" lon="4.4872212">
        <ele>2000.0</ele>
        <time>2020-09-21T08:55:55Z</time>
      </trkpt>
      <trkpt lat="52.180294" lon="4.4872246">
        <ele>2000.0</ele>
        <time>2020-09-21T08:55:56Z</time>
      </trkpt>
      <trkpt lat="52.180294" lon="4.4872255">
        <ele>2000.0</ele>
        <time>2020-09-21T08:55:57Z</time>
      </trkpt>
      <trkpt lat="52.1803" lon="4.487226">
        <ele>2000.0</ele>
        <time>2020-09-21T08:55:58Z</time>
      </trkpt>
      <trkpt lat="52.180305" lon="4.487225">
        <ele>2000.0</ele>
        <time>2020-09-21T08:56:00Z</time>
      </trkpt>
      <trkpt lat="52.18031" lon="4.487223">
        <ele>2000.0</ele>
        <time>2020-09-21T08:56:00Z</time>
      </trkpt>
      <trkpt lat="52.18032" lon="4.4872193">
        <ele>2000.0</ele>
        <time>2020-09-21T08:56:01Z</time>
      </trkpt>
      <trkpt lat="52.180325" lon="4.487213">
        <ele>2000.0</ele>
        <time>2020-09-21T08:56:02Z</time>
      </trkpt>
      <trkpt lat="52.180336" lon="4.487209">
        <ele>2000.0</ele>
        <time>2020-09-21T08:56:03Z</time>
      </trkpt>
      <trkpt lat="52.180344" lon="4.487206">
        <ele>2000.0</ele>
        <time>2020-09-21T08:56:04Z</time>
      </trkpt>
      <trkpt lat="52.180347" lon="4.487204">
        <ele>2000.0</ele>
        <time>2020-09-21T08:56:05Z</time>
      </trkpt>
      <trkpt lat="52.18036" lon="4.487202">
        <ele>2000.0</ele>
        <time>2020-09-21T08:56:06Z</time>
      </trkpt>
      <trkpt lat="52.180363" lon="4.4872">
        <ele>2000.0</ele>
        <time>2020-09-21T08:56:07Z</time>
      </trkpt>
      <trkpt lat="52.180374" lon="4.487198">
        <ele>2000.0</ele>
        <time>2020-09-21T08:56:08Z</time>
      </trkpt>
      <trkpt lat="52.180378" lon="4.487194">
        <ele>2000.0</ele>
        <time>2020-09-21T08:56:10Z</time>
      </trkpt>
      <trkpt lat="52.18039" lon="4.487189">
        <ele>2000.0</ele>
        <time>2020-09-21T08:56:10Z</time>
      </trkpt>
      <trkpt lat="52.180397" lon="4.4871817">
        <ele>2000.0</ele>
        <time>2020-09-21T08:56:11Z</time>
      </trkpt>
      <trkpt lat="52.18041" lon="4.4871736">
        <ele>2000.0</ele>
        <time>2020-09-21T08:56:12Z</time>
      </trkpt>
      <trkpt lat="52.18042" lon="4.487163">
        <ele>2000.0</ele>
        <time>2020-09-21T08:56:13Z</time>
      </trkpt>
      <trkpt lat="52.180428" lon="4.487151">
        <ele>2000.0</ele>
        <time>2020-09-21T08:56:14Z</time>
      </trkpt>
      <trkpt lat="52.18044" lon="4.4871383">
        <ele>2000.0</ele>
        <time>2020-09-21T08:56:15Z</time>
      </trkpt>
      <trkpt lat="52.180443" lon="4.487125">
        <ele>2000.0</ele>
        <time>2020-09-21T08:56:16Z</time>
      </trkpt>
      <trkpt lat="52.180454" lon="4.4871135">
        <ele>2000.0</ele>
        <time>2020-09-21T08:56:17Z</time>
      </trkpt>
      <trkpt lat="52.180458" lon="4.487101">
        <ele>2000.0</ele>
        <time>2020-09-21T08:56:18Z</time>
      </trkpt>
      <trkpt lat="52.180466" lon="4.487092">
        <ele>2000.0</ele>
        <time>2020-09-21T08:56:19Z</time>
      </trkpt>
      <trkpt lat="52.18047" lon="4.487086">
        <ele>2000.0</ele>
        <time>2020-09-21T08:56:21Z</time>
      </trkpt>
      <trkpt lat="52.18048" lon="4.487081">
        <ele>2000.0</ele>
        <time>2020-09-21T08:56:21Z</time>
      </trkpt>
      <trkpt lat="52.180485" lon="4.487078">
        <ele>2000.0</ele>
        <time>2020-09-21T08:56:22Z</time>
      </trkpt>
      <trkpt lat="52.180496" lon="4.487075">
        <ele>2000.0</ele>
        <time>2020-09-21T08:56:23Z</time>
      </trkpt>
      <trkpt lat="52.180504" lon="4.4870715">
        <ele>2000.0</ele>
        <time>2020-09-21T08:56:24Z</time>
      </trkpt>
      <trkpt lat="52.18051" lon="4.487067">
        <ele>2000.0</ele>
        <time>2020-09-21T08:56:25Z</time>
      </trkpt>
      <trkpt lat="52.180515" lon="4.487059">
        <ele>2000.0</ele>
        <time>2020-09-21T08:56:26Z</time>
      </trkpt>
      <trkpt lat="52.180527" lon="4.4870462">
        <ele>2000.0</ele>
        <time>2020-09-21T08:56:27Z</time>
      </trkpt>
      <trkpt lat="52.18053" lon="4.4870296">
        <ele>2000.0</ele>
        <time>2020-09-21T08:56:28Z</time>
      </trkpt>
      <trkpt lat="52.18054" lon="4.4870152">
        <ele>2000.0</ele>
        <time>2020-09-21T08:56:29Z</time>
      </trkpt>
      <trkpt lat="52.180542" lon="4.4870033">
        <ele>2000.0</ele>
        <time>2020-09-21T08:56:31Z</time>
      </trkpt>
      <trkpt lat="52.180542" lon="4.4869943">
        <ele>2000.0</ele>
        <time>2020-09-21T08:56:31Z</time>
      </trkpt>
      <trkpt lat="52.180546" lon="4.486984">
        <ele>2000.0</ele>
        <time>2020-09-21T08:56:32Z</time>
      </trkpt>
      <trkpt lat="52.180553" lon="4.486971">
        <ele>2000.0</ele>
        <time>2020-09-21T08:56:33Z</time>
      </trkpt>
      <trkpt lat="52.180557" lon="4.486953">
        <ele>2000.0</ele>
        <time>2020-09-21T08:56:34Z</time>
      </trkpt>
      <trkpt lat="52.18057" lon="4.486936">
        <ele>2000.0</ele>
        <time>2020-09-21T08:56:35Z</time>
      </trkpt>
      <trkpt lat="52.180576" lon="4.4869204">
        <ele>2000.0</ele>
        <time>2020-09-21T08:56:36Z</time>
      </trkpt>
      <trkpt lat="52.180584" lon="4.4869075">
        <ele>2000.0</ele>
        <time>2020-09-21T08:56:37Z</time>
      </trkpt>
      <trkpt lat="52.18059" lon="4.4868956">
        <ele>2000.0</ele>
        <time>2020-09-21T08:56:38Z</time>
      </trkpt>
      <trkpt lat="52.180603" lon="4.4868827">
        <ele>2000.0</ele>
        <time>2020-09-21T08:56:39Z</time>
      </trkpt>
      <trkpt lat="52.180614" lon="4.4868684">
        <ele>2000.0</ele>
        <time>2020-09-21T08:56:40Z</time>
      </trkpt>
      <trkpt lat="52.18062" lon="4.4868555">
        <ele>2000.0</ele>
        <time>2020-09-21T08:56:42Z</time>
      </trkpt>
      <trkpt lat="52.180622" lon="4.486842">
        <ele>2000.0</ele>
        <time>2020-09-21T08:56:42Z</time>
      </trkpt>
      <trkpt lat="52.180622" lon="4.486829">
        <ele>2000.0</ele>
        <time>2020-09-21T08:56:43Z</time>
      </trkpt>
      <trkpt lat="52.18063" lon="4.4868145">
        <ele>2000.0</ele>
        <time>2020-09-21T08:56:44Z</time>
      </trkpt>
      <trkpt lat="52.180634" lon="4.486801">
        <ele>2000.0</ele>
        <time>2020-09-21T08:56:45Z</time>
      </trkpt>
      <trkpt lat="52.180634" lon="4.4867897">
        <ele>2000.0</ele>
        <time>2020-09-21T08:56:46Z</time>
      </trkpt>
      <trkpt lat="52.180637" lon="4.486779">
        <ele>2000.0</ele>
        <time>2020-09-21T08:56:47Z</time>
      </trkpt>
      <trkpt lat="52.180645" lon="4.4867687">
        <ele>2000.0</ele>
        <time>2020-09-21T08:56:48Z</time>
      </trkpt>
      <trkpt lat="52.18065" lon="4.4867578">
        <ele>2000.0</ele>
        <time>2020-09-21T08:56:49Z</time>
      </trkpt>
      <trkpt lat="52.180653" lon="4.4867477">
        <ele>2000.0</ele>
        <time>2020-09-21T08:56:50Z</time>
      </trkpt>
      <trkpt lat="52.18066" lon="4.4867396">
        <ele>2000.0</ele>
        <time>2020-09-21T08:56:52Z</time>
      </trkpt>
      <trkpt lat="52.180676" lon="4.4867253">
        <ele>2000.0</ele>
        <time>2020-09-21T08:56:53Z</time>
      </trkpt>
      <trkpt lat="52.18068" lon="4.4867234">
        <ele>2000.0</ele>
        <time>2020-09-21T08:56:54Z</time>
      </trkpt>
      <trkpt lat="52.18068" lon="4.486718">
        <ele>2000.0</ele>
        <time>2020-09-21T08:56:55Z</time>
      </trkpt>
      <trkpt lat="52.180683" lon="4.48671">
        <ele>2000.0</ele>
        <time>2020-09-21T08:56:56Z</time>
      </trkpt>
      <trkpt lat="52.18069" lon="4.4867005">
        <ele>2000.0</ele>
        <time>2020-09-21T08:56:57Z</time>
      </trkpt>
      <trkpt lat="52.180695" lon="4.486689">
        <ele>2000.0</ele>
        <time>2020-09-21T08:56:58Z</time>
      </trkpt>
      <trkpt lat="52.180706" lon="4.486677">
        <ele>2000.0</ele>
        <time>2020-09-21T08:56:59Z</time>
      </trkpt>
      <trkpt lat="52.18071" lon="4.486666">
        <ele>2000.0</ele>
        <time>2020-09-21T08:57:00Z</time>
      </trkpt>
      <trkpt lat="52.18071" lon="4.486656">
        <ele>2000.0</ele>
        <time>2020-09-21T08:57:01Z</time>
      </trkpt>
      <trkpt lat="52.180714" lon="4.4866457">
        <ele>2000.0</ele>
        <time>2020-09-21T08:57:02Z</time>
      </trkpt>
      <trkpt lat="52.18072" lon="4.486634">
        <ele>2000.0</ele>
        <time>2020-09-21T08:57:03Z</time>
      </trkpt>
      <trkpt lat="52.180725" lon="4.48662">
        <ele>2000.0</ele>
        <time>2020-09-21T08:57:04Z</time>
      </trkpt>
      <trkpt lat="52.180733" lon="4.4866033">
        <ele>2000.0</ele>
        <time>2020-09-21T08:57:05Z</time>
      </trkpt>
      <trkpt lat="52.180737" lon="4.48658">
        <ele>2000.0</ele>
        <time>2020-09-21T08:57:06Z</time>
      </trkpt>
      <trkpt lat="52.18074" lon="4.486553">
        <ele>2000.0</ele>
        <time>2020-09-21T08:57:07Z</time>
      </trkpt>
      <trkpt lat="52.180748" lon="4.48653">
        <ele>2000.0</ele>
        <time>2020-09-21T08:57:08Z</time>
      </trkpt>
      <trkpt lat="52.180748" lon="4.48651">
        <ele>2000.0</ele>
        <time>2020-09-21T08:57:09Z</time>
      </trkpt>
      <trkpt lat="52.18075" lon="4.4864917">
        <ele>2000.0</ele>
        <time>2020-09-21T08:57:11Z</time>
      </trkpt>
      <trkpt lat="52.180756" lon="4.486475">
        <ele>2000.0</ele>
        <time>2020-09-21T08:57:11Z</time>
      </trkpt>
      <trkpt lat="52.180763" lon="4.486459">
        <ele>2000.0</ele>
        <time>2020-09-21T08:57:12Z</time>
      </trkpt>
      <trkpt lat="52.180763" lon="4.486444">
        <ele>2000.0</ele>
        <time>2020-09-21T08:57:13Z</time>
      </trkpt>
      <trkpt lat="52.180763" lon="4.486431">
        <ele>2000.0</ele>
        <time>2020-09-21T08:57:14Z</time>
      </trkpt>
      <trkpt lat="52.180763" lon="4.48642">
        <ele>2000.0</ele>
        <time>2020-09-21T08:57:15Z</time>
      </trkpt>
      <trkpt lat="52.180767" lon="4.486411">
        <ele>2000.0</ele>
        <time>2020-09-21T08:57:16Z</time>
      </trkpt>
      <trkpt lat="52.180767" lon="4.4864">
        <ele>2000.0</ele>
        <time>2020-09-21T08:57:17Z</time>
      </trkpt>
      <trkpt lat="52.18077" lon="4.4863877">
        <ele>2000.0</ele>
        <time>2020-09-21T08:57:18Z</time>
      </trkpt>
      <trkpt lat="52.18078" lon="4.4863744">
        <ele>2000.0</ele>
        <time>2020-09-21T08:57:19Z</time>
      </trkpt>
      <trkpt lat="52.180782" lon="4.4863605">
        <ele>2000.0</ele>
        <time>2020-09-21T08:57:20Z</time>
      </trkpt>
      <trkpt lat="52.180782" lon="4.486342">
        <ele>2000.0</ele>
        <time>2020-09-21T08:57:21Z</time>
      </trkpt>
      <trkpt lat="52.180786" lon="4.4863167">
        <ele>2000.0</ele>
        <time>2020-09-21T08:57:22Z</time>
      </trkpt>
      <trkpt lat="52.180794" lon="4.4862933">
        <ele>2000.0</ele>
        <time>2020-09-21T08:57:23Z</time>
      </trkpt>
      <trkpt lat="52.180794" lon="4.486273">
        <ele>2000.0</ele>
        <time>2020-09-21T08:57:24Z</time>
      </trkpt>
      <trkpt lat="52.180794" lon="4.4862556">
        <ele>2000.0</ele>
        <time>2020-09-21T08:57:25Z</time>
      </trkpt>
      <trkpt lat="52.180798" lon="4.486241">
        <ele>2000.0</ele>
        <time>2020-09-21T08:57:26Z</time>
      </trkpt>
      <trkpt lat="52.180798" lon="4.486229">
        <ele>2000.0</ele>
        <time>2020-09-21T08:57:27Z</time>
      </trkpt>
      <trkpt lat="52.180798" lon="4.4862194">
        <ele>2000.0</ele>
        <time>2020-09-21T08:57:28Z</time>
      </trkpt>
      <trkpt lat="52.1808" lon="4.4862103">
        <ele>2000.0</ele>
        <time>2020-09-21T08:57:29Z</time>
      </trkpt>
      <trkpt lat="52.1808" lon="4.486201">
        <ele>2000.0</ele>
        <time>2020-09-21T08:57:30Z</time>
      </trkpt>
      <trkpt lat="52.1808" lon="4.486187">
        <ele>2000.0</ele>
        <time>2020-09-21T08:57:32Z</time>
      </trkpt>
      <trkpt lat="52.180798" lon="4.4861727">
        <ele>2000.0</ele>
        <time>2020-09-21T08:57:32Z</time>
      </trkpt>
      <trkpt lat="52.180798" lon="4.486159">
        <ele>2000.0</ele>
        <time>2020-09-21T08:57:33Z</time>
      </trkpt>
      <trkpt lat="52.180798" lon="4.4861436">
        <ele>2000.0</ele>
        <time>2020-09-21T08:57:34Z</time>
      </trkpt>
      <trkpt lat="52.1808" lon="4.486127">
        <ele>2000.0</ele>
        <time>2020-09-21T08:57:35Z</time>
      </trkpt>
      <trkpt lat="52.1808" lon="4.48611">
        <ele>2000.0</ele>
        <time>2020-09-21T08:57:36Z</time>
      </trkpt>
      <trkpt lat="52.18081" lon="4.486094">
        <ele>2000.0</ele>
        <time>2020-09-21T08:57:37Z</time>
      </trkpt>
      <trkpt lat="52.180813" lon="4.4860783">
        <ele>2000.0</ele>
        <time>2020-09-21T08:57:38Z</time>
      </trkpt>
      <trkpt lat="52.180817" lon="4.4860625">
        <ele>2000.0</ele>
        <time>2020-09-21T08:57:39Z</time>
      </trkpt>
      <trkpt lat="52.180817" lon="4.4860477">
        <ele>2000.0</ele>
        <time>2020-09-21T08:57:40Z</time>
      </trkpt>
      <trkpt lat="52.180813" lon="4.486035">
        <ele>2000.0</ele>
        <time>2020-09-21T08:57:41Z</time>
      </trkpt>
      <trkpt lat="52.180813" lon="4.486022">
        <ele>2000.0</ele>
        <time>2020-09-21T08:57:41Z</time>
      </trkpt>
      <trkpt lat="52.180813" lon="4.486007">
        <ele>2000.0</ele>
        <time>2020-09-21T08:57:42Z</time>
      </trkpt>
      <trkpt lat="52.180813" lon="4.485993">
        <ele>2000.0</ele>
        <time>2020-09-21T08:57:43Z</time>
      </trkpt>
      <trkpt lat="52.180817" lon="4.485979">
        <ele>2000.0</ele>
        <time>2020-09-21T08:57:44Z</time>
      </trkpt>
      <trkpt lat="52.180817" lon="4.485963">
        <ele>2000.0</ele>
        <time>2020-09-21T08:57:45Z</time>
      </trkpt>
      <trkpt lat="52.180824" lon="4.485943">
        <ele>2000.0</ele>
        <time>2020-09-21T08:57:46Z</time>
      </trkpt>
      <trkpt lat="52.180824" lon="4.4859214">
        <ele>2000.0</ele>
        <time>2020-09-21T08:57:47Z</time>
      </trkpt>
      <trkpt lat="52.180824" lon="4.485902">
        <ele>2000.0</ele>
        <time>2020-09-21T08:57:48Z</time>
      </trkpt>
      <trkpt lat="52.18083" lon="4.4858828">
        <ele>2000.0</ele>
        <time>2020-09-21T08:57:49Z</time>
      </trkpt>
      <trkpt lat="52.18083" lon="4.4858656">
        <ele>2000.0</ele>
        <time>2020-09-21T08:57:50Z</time>
      </trkpt>
      <trkpt lat="52.180832" lon="4.4858503">
        <ele>2000.0</ele>
        <time>2020-09-21T08:57:52Z</time>
      </trkpt>
      <trkpt lat="52.180832" lon="4.4858384">
        <ele>2000.0</ele>
        <time>2020-09-21T08:57:52Z</time>
      </trkpt>
      <trkpt lat="52.18084" lon="4.485827">
        <ele>2000.0</ele>
        <time>2020-09-21T08:57:53Z</time>
      </trkpt>
      <trkpt lat="52.18084" lon="4.485814">
        <ele>2000.0</ele>
        <time>2020-09-21T08:57:54Z</time>
      </trkpt>
      <trkpt lat="52.180843" lon="4.4858">
        <ele>2000.0</ele>
        <time>2020-09-21T08:57:55Z</time>
      </trkpt>
      <trkpt lat="52.180843" lon="4.4857855">
        <ele>2000.0</ele>
        <time>2020-09-21T08:57:56Z</time>
      </trkpt>
      <trkpt lat="52.180847" lon="4.4857717">
        <ele>2000.0</ele>
        <time>2020-09-21T08:57:57Z</time>
      </trkpt>
      <trkpt lat="52.180855" lon="4.4857574">
        <ele>2000.0</ele>
        <time>2020-09-21T08:57:58Z</time>
      </trkpt>
      <trkpt lat="52.18086" lon="4.4857426">
        <ele>2000.0</ele>
        <time>2020-09-21T08:57:59Z</time>
      </trkpt>
      <trkpt lat="52.18087" lon="4.4857287">
        <ele>2000.0</ele>
        <time>2020-09-21T08:58:00Z</time>
      </trkpt>
      <trkpt lat="52.180874" lon="4.4857154">
        <ele>2000.0</ele>
        <time>2020-09-21T08:58:01Z</time>
      </trkpt>
      <trkpt lat="52.180878" lon="4.4856997">
        <ele>2000.0</ele>
        <time>2020-09-21T08:58:02Z</time>
      </trkpt>
      <trkpt lat="52.180885" lon="4.4856853">
        <ele>2000.0</ele>
        <time>2020-09-21T08:58:03Z</time>
      </trkpt>
      <trkpt lat="52.180885" lon="4.4856706">
        <ele>2000.0</ele>
        <time>2020-09-21T08:58:04Z</time>
      </trkpt>
      <trkpt lat="52.180885" lon="4.4856515">
        <ele>2000.0</ele>
        <time>2020-09-21T08:58:05Z</time>
      </trkpt>
      <trkpt lat="52.180885" lon="4.4856358">
        <ele>2000.0</ele>
        <time>2020-09-21T08:58:06Z</time>
      </trkpt>
      <trkpt lat="52.18089" lon="4.485623">
        <ele>2000.0</ele>
        <time>2020-09-21T08:58:07Z</time>
      </trkpt>
      <trkpt lat="52.180893" lon="4.485612">
        <ele>2000.0</ele>
        <time>2020-09-21T08:58:08Z</time>
      </trkpt>
      <trkpt lat="52.1809" lon="4.4856024">
        <ele>2000.0</ele>
        <time>2020-09-21T08:58:10Z</time>
      </trkpt>
      <trkpt lat="52.180904" lon="4.4855924">
        <ele>2000.0</ele>
        <time>2020-09-21T08:58:10Z</time>
      </trkpt>
      <trkpt lat="52.180916" lon="4.485581">
        <ele>2000.0</ele>
        <time>2020-09-21T08:58:11Z</time>
      </trkpt>
      <trkpt lat="52.18092" lon="4.4855666">
        <ele>2000.0</ele>
        <time>2020-09-21T08:58:12Z</time>
      </trkpt>
      <trkpt lat="52.18093" lon="4.4855504">
        <ele>2000.0</ele>
        <time>2020-09-21T08:58:13Z</time>
      </trkpt>
      <trkpt lat="52.180943" lon="4.485534">
        <ele>2000.0</ele>
        <time>2020-09-21T08:58:14Z</time>
      </trkpt>
      <trkpt lat="52.180946" lon="4.485519">
        <ele>2000.0</ele>
        <time>2020-09-21T08:58:15Z</time>
      </trkpt>
      <trkpt lat="52.180958" lon="4.4855065">
        <ele>2000.0</ele>
        <time>2020-09-21T08:58:16Z</time>
      </trkpt>
      <trkpt lat="52.180965" lon="4.4854937">
        <ele>2000.0</ele>
        <time>2020-09-21T08:58:17Z</time>
      </trkpt>
      <trkpt lat="52.180973" lon="4.4854827">
        <ele>2000.0</ele>
        <time>2020-09-21T08:58:18Z</time>
      </trkpt>
      <trkpt lat="52.18098" lon="4.485471">
        <ele>2000.0</ele>
        <time>2020-09-21T08:58:19Z</time>
      </trkpt>
      <trkpt lat="52.180992" lon="4.485458">
        <ele>2000.0</ele>
        <time>2020-09-21T08:58:20Z</time>
      </trkpt>
      <trkpt lat="52.180996" lon="4.4854445">
        <ele>2000.0</ele>
        <time>2020-09-21T08:58:21Z</time>
      </trkpt>
      <trkpt lat="52.181007" lon="4.4854283">
        <ele>2000.0</ele>
        <time>2020-09-21T08:58:22Z</time>
      </trkpt>
      <trkpt lat="52.18101" lon="4.485412">
        <ele>2000.0</ele>
        <time>2020-09-21T08:58:23Z</time>
      </trkpt>
      <trkpt lat="52.181023" lon="4.4853964">
        <ele>2000.0</ele>
        <time>2020-09-21T08:58:24Z</time>
      </trkpt>
      <trkpt lat="52.181026" lon="4.4853835">
        <ele>2000.0</ele>
        <time>2020-09-21T08:58:25Z</time>
      </trkpt>
      <trkpt lat="52.181034" lon="4.4853745">
        <ele>2000.0</ele>
        <time>2020-09-21T08:58:26Z</time>
      </trkpt>
      <trkpt lat="52.181038" lon="4.485366">
        <ele>2000.0</ele>
        <time>2020-09-21T08:58:27Z</time>
      </trkpt>
      <trkpt lat="52.18104" lon="4.4853554">
        <ele>2000.0</ele>
        <time>2020-09-21T08:58:28Z</time>
      </trkpt>
      <trkpt lat="52.18105" lon="4.4853425">
        <ele>2000.0</ele>
        <time>2020-09-21T08:58:29Z</time>
      </trkpt>
      <trkpt lat="52.18105" lon="4.485328">
        <ele>2000.0</ele>
        <time>2020-09-21T08:58:31Z</time>
      </trkpt>
      <trkpt lat="52.181053" lon="4.485314">
        <ele>2000.0</ele>
        <time>2020-09-21T08:58:31Z</time>
      </trkpt>
      <trkpt lat="52.181057" lon="4.4853">
        <ele>2000.0</ele>
        <time>2020-09-21T08:58:32Z</time>
      </trkpt>
      <trkpt lat="52.181057" lon="4.4852877">
        <ele>2000.0</ele>
        <time>2020-09-21T08:58:33Z</time>
      </trkpt>
      <trkpt lat="52.181065" lon="4.485275">
        <ele>2000.0</ele>
        <time>2020-09-21T08:58:34Z</time>
      </trkpt>
      <trkpt lat="52.181065" lon="4.4852633">
        <ele>2000.0</ele>
        <time>2020-09-21T08:58:35Z</time>
      </trkpt>
      <trkpt lat="52.181065" lon="4.485249">
        <ele>2000.0</ele>
        <time>2020-09-21T08:58:36Z</time>
      </trkpt>
      <trkpt lat="52.181065" lon="4.485233">
        <ele>2000.0</ele>
        <time>2020-09-21T08:58:37Z</time>
      </trkpt>
      <trkpt lat="52.18107" lon="4.4852195">
        <ele>2000.0</ele>
        <time>2020-09-21T08:58:38Z</time>
      </trkpt>
      <trkpt lat="52.18107" lon="4.4852085">
        <ele>2000.0</ele>
        <time>2020-09-21T08:58:39Z</time>
      </trkpt>
      <trkpt lat="52.181072" lon="4.4851937">
        <ele>2000.0</ele>
        <time>2020-09-21T08:58:41Z</time>
      </trkpt>
      <trkpt lat="52.181072" lon="4.4851794">
        <ele>2000.0</ele>
        <time>2020-09-21T08:58:41Z</time>
      </trkpt>
      <trkpt lat="52.18108" lon="4.4851646">
        <ele>2000.0</ele>
        <time>2020-09-21T08:58:42Z</time>
      </trkpt>
      <trkpt lat="52.18108" lon="4.48515">
        <ele>2000.0</ele>
        <time>2020-09-21T08:58:43Z</time>
      </trkpt>
      <trkpt lat="52.181084" lon="4.4851327">
        <ele>2000.0</ele>
        <time>2020-09-21T08:58:44Z</time>
      </trkpt>
      <trkpt lat="52.181084" lon="4.485116">
        <ele>2000.0</ele>
        <time>2020-09-21T08:58:45Z</time>
      </trkpt>
      <trkpt lat="52.181087" lon="4.4850993">
        <ele>2000.0</ele>
        <time>2020-09-21T08:58:46Z</time>
      </trkpt>
      <trkpt lat="52.181087" lon="4.4850817">
        <ele>2000.0</ele>
        <time>2020-09-21T08:58:47Z</time>
      </trkpt>
      <trkpt lat="52.181095" lon="4.4850664">
        <ele>2000.0</ele>
        <time>2020-09-21T08:58:48Z</time>
      </trkpt>
      <trkpt lat="52.181095" lon="4.4850526">
        <ele>2000.0</ele>
        <time>2020-09-21T08:58:49Z</time>
      </trkpt>
      <trkpt lat="52.181095" lon="4.485039">
        <ele>2000.0</ele>
        <time>2020-09-21T08:58:50Z</time>
      </trkpt>
      <trkpt lat="52.181095" lon="4.485025">
        <ele>2000.0</ele>
        <time>2020-09-21T08:58:52Z</time>
      </trkpt>
      <trkpt lat="52.181087" lon="4.48501">
        <ele>2000.0</ele>
        <time>2020-09-21T08:58:52Z</time>
      </trkpt>
      <trkpt lat="52.181087" lon="4.4849944">
        <ele>2000.0</ele>
        <time>2020-09-21T08:58:53Z</time>
      </trkpt>
      <trkpt lat="52.181087" lon="4.4849815">
        <ele>2000.0</ele>
        <time>2020-09-21T08:58:54Z</time>
      </trkpt>
      <trkpt lat="52.181087" lon="4.4849696">
        <ele>2000.0</ele>
        <time>2020-09-21T08:58:55Z</time>
      </trkpt>
      <trkpt lat="52.181095" lon="4.4849496">
        <ele>2000.0</ele>
        <time>2020-09-21T08:58:57Z</time>
      </trkpt>
      <trkpt lat="52.181095" lon="4.48495">
        <ele>2000.0</ele>
        <time>2020-09-21T08:58:58Z</time>
      </trkpt>
      <trkpt lat="52.181087" lon="4.4849505">
        <ele>2000.0</ele>
        <time>2020-09-21T08:59:00Z</time>
      </trkpt>
      <trkpt lat="52.181084" lon="4.484946">
        <ele>2000.0</ele>
        <time>2020-09-21T08:59:01Z</time>
      </trkpt>
      <trkpt lat="52.181084" lon="4.484947">
        <ele>2000.0</ele>
        <time>2020-09-21T08:59:02Z</time>
      </trkpt>
      <trkpt lat="52.18108" lon="4.4849534">
        <ele>2000.0</ele>
        <time>2020-09-21T08:59:03Z</time>
      </trkpt>
      <trkpt lat="52.181072" lon="4.4849586">
        <ele>2000.0</ele>
        <time>2020-09-21T08:59:04Z</time>
      </trkpt>
      <trkpt lat="52.181072" lon="4.4849634">
        <ele>2000.0</ele>
        <time>2020-09-21T08:59:05Z</time>
      </trkpt>
      <trkpt lat="52.18107" lon="4.4849687">
        <ele>2000.0</ele>
        <time>2020-09-21T08:59:06Z</time>
      </trkpt>
      <trkpt lat="52.181065" lon="4.4849744">
        <ele>2000.0</ele>
        <time>2020-09-21T08:59:07Z</time>
      </trkpt>
      <trkpt lat="52.181053" lon="4.4849815">
        <ele>2000.0</ele>
        <time>2020-09-21T08:59:08Z</time>
      </trkpt>
      <trkpt lat="52.18104" lon="4.48499">
        <ele>2000.0</ele>
        <time>2020-09-21T08:59:09Z</time>
      </trkpt>
      <trkpt lat="52.181026" lon="4.4849963">
        <ele>2000.0</ele>
        <time>2020-09-21T08:59:11Z</time>
      </trkpt>
      <trkpt lat="52.18102" lon="4.4850044">
        <ele>2000.0</ele>
        <time>2020-09-21T08:59:11Z</time>
      </trkpt>
      <trkpt lat="52.181007" lon="4.485011">
        <ele>2000.0</ele>
        <time>2020-09-21T08:59:12Z</time>
      </trkpt>
      <trkpt lat="52.181004" lon="4.4850154">
        <ele>2000.0</ele>
        <time>2020-09-21T08:59:13Z</time>
      </trkpt>
      <trkpt lat="52.180992" lon="4.485018">
        <ele>2000.0</ele>
        <time>2020-09-21T08:59:14Z</time>
      </trkpt>
      <trkpt lat="52.18098" lon="4.4850197">
        <ele>2000.0</ele>
        <time>2020-09-21T08:59:15Z</time>
      </trkpt>
      <trkpt lat="52.180973" lon="4.485021">
        <ele>2000.0</ele>
        <time>2020-09-21T08:59:16Z</time>
      </trkpt>
      <trkpt lat="52.18096" lon="4.485019">
        <ele>2000.0</ele>
        <time>2020-09-21T08:59:17Z</time>
      </trkpt>
      <trkpt lat="52.18095" lon="4.485017">
        <ele>2000.0</ele>
        <time>2020-09-21T08:59:18Z</time>
      </trkpt>
      <trkpt lat="52.180946" lon="4.485013">
        <ele>2000.0</ele>
        <time>2020-09-21T08:59:19Z</time>
      </trkpt>
      <trkpt lat="52.180943" lon="4.485009">
        <ele>2000.0</ele>
        <time>2020-09-21T08:59:21Z</time>
      </trkpt>
      <trkpt lat="52.180935" lon="4.485006">
        <ele>2000.0</ele>
        <time>2020-09-21T08:59:21Z</time>
      </trkpt>
      <trkpt lat="52.180927" lon="4.4850035">
        <ele>2000.0</ele>
        <time>2020-09-21T08:59:22Z</time>
      </trkpt>
      <trkpt lat="52.18092" lon="4.484999">
        <ele>2000.0</ele>
        <time>2020-09-21T08:59:23Z</time>
      </trkpt>
      <trkpt lat="52.18091" lon="4.484994">
        <ele>2000.0</ele>
        <time>2020-09-21T08:59:24Z</time>
      </trkpt>
      <trkpt lat="52.1809" lon="4.4849896">
        <ele>2000.0</ele>
        <time>2020-09-21T08:59:25Z</time>
      </trkpt>
      <trkpt lat="52.180893" lon="4.484983">
        <ele>2000.0</ele>
        <time>2020-09-21T08:59:26Z</time>
      </trkpt>
      <trkpt lat="52.180885" lon="4.4849777">
        <ele>2000.0</ele>
        <time>2020-09-21T08:59:27Z</time>
      </trkpt>
      <trkpt lat="52.180874" lon="4.4849706">
        <ele>2000.0</ele>
        <time>2020-09-21T08:59:28Z</time>
      </trkpt>
      <trkpt lat="52.180862" lon="4.48496">
        <ele>2000.0</ele>
        <time>2020-09-21T08:59:29Z</time>
      </trkpt>
      <trkpt lat="52.18086" lon="4.4849477">
        <ele>2000.0</ele>
        <time>2020-09-21T08:59:30Z</time>
      </trkpt>
      <trkpt lat="52.180847" lon="4.484936">
        <ele>2000.0</ele>
        <time>2020-09-21T08:59:32Z</time>
      </trkpt>
      <trkpt lat="52.180843" lon="4.484926">
        <ele>2000.0</ele>
        <time>2020-09-21T08:59:32Z</time>
      </trkpt>
      <trkpt lat="52.18084" lon="4.4849195">
        <ele>2000.0</ele>
        <time>2020-09-21T08:59:33Z</time>
      </trkpt>
      <trkpt lat="52.18083" lon="4.484914">
        <ele>2000.0</ele>
        <time>2020-09-21T08:59:34Z</time>
      </trkpt>
      <trkpt lat="52.180817" lon="4.4849067">
        <ele>2000.0</ele>
        <time>2020-09-21T08:59:35Z</time>
      </trkpt>
      <trkpt lat="52.18081" lon="4.484899">
        <ele>2000.0</ele>
        <time>2020-09-21T08:59:36Z</time>
      </trkpt>
      <trkpt lat="52.1808" lon="4.4848924">
        <ele>2000.0</ele>
        <time>2020-09-21T08:59:37Z</time>
      </trkpt>
      <trkpt lat="52.180794" lon="4.4848843">
        <ele>2000.0</ele>
        <time>2020-09-21T08:59:38Z</time>
      </trkpt>
      <trkpt lat="52.180786" lon="4.4848766">
        <ele>2000.0</ele>
        <time>2020-09-21T08:59:39Z</time>
      </trkpt>
      <trkpt lat="52.18078" lon="4.484868">
        <ele>2000.0</ele>
        <time>2020-09-21T08:59:40Z</time>
      </trkpt>
      <trkpt lat="52.18077" lon="4.4848585">
        <ele>2000.0</ele>
        <time>2020-09-21T08:59:42Z</time>
      </trkpt>
      <trkpt lat="52.18077" lon="4.4848514">
        <ele>2000.0</ele>
        <time>2020-09-21T08:59:42Z</time>
      </trkpt>
      <trkpt lat="52.180767" lon="4.484845">
        <ele>2000.0</ele>
        <time>2020-09-21T08:59:43Z</time>
      </trkpt>
      <trkpt lat="52.180763" lon="4.4848385">
        <ele>2000.0</ele>
        <time>2020-09-21T08:59:44Z</time>
      </trkpt>
      <trkpt lat="52.180756" lon="4.4848304">
        <ele>2000.0</ele>
        <time>2020-09-21T08:59:45Z</time>
      </trkpt>
      <trkpt lat="52.180748" lon="4.4848204">
        <ele>2000.0</ele>
        <time>2020-09-21T08:59:46Z</time>
      </trkpt>
      <trkpt lat="52.180737" lon="4.4848094">
        <ele>2000.0</ele>
        <time>2020-09-21T08:59:47Z</time>
      </trkpt>
      <trkpt lat="52.180725" lon="4.4847975">
        <ele>2000.0</ele>
        <time>2020-09-21T08:59:48Z</time>
      </trkpt>
      <trkpt lat="52.180714" lon="4.4847846">
        <ele>2000.0</ele>
        <time>2020-09-21T08:59:49Z</time>
      </trkpt>
      <trkpt lat="52.180706" lon="4.484772">
        <ele>2000.0</ele>
        <time>2020-09-21T08:59:50Z</time>
      </trkpt>
      <trkpt lat="52.180695" lon="4.484761">
        <ele>2000.0</ele>
        <time>2020-09-21T08:59:51Z</time>
      </trkpt>
      <trkpt lat="52.18068" lon="4.484752">
        <ele>2000.0</ele>
        <time>2020-09-21T08:59:53Z</time>
      </trkpt>
      <trkpt lat="52.180668" lon="4.4847426">
        <ele>2000.0</ele>
        <time>2020-09-21T08:59:53Z</time>
      </trkpt>
      <trkpt lat="52.18066" lon="4.484731">
        <ele>2000.0</ele>
        <time>2020-09-21T08:59:54Z</time>
      </trkpt>
      <trkpt lat="52.18065" lon="4.484718">
        <ele>2000.0</ele>
        <time>2020-09-21T08:59:55Z</time>
      </trkpt>
      <trkpt lat="52.180637" lon="4.4847054">
        <ele>2000.0</ele>
        <time>2020-09-21T08:59:56Z</time>
      </trkpt>
      <trkpt lat="52.18063" lon="4.484695">
        <ele>2000.0</ele>
        <time>2020-09-21T08:59:57Z</time>
      </trkpt>
      <trkpt lat="52.180614" lon="4.484687">
        <ele>2000.0</ele>
        <time>2020-09-21T08:59:58Z</time>
      </trkpt>
      <trkpt lat="52.180603" lon="4.4846773">
        <ele>2000.0</ele>
        <time>2020-09-21T08:59:59Z</time>
      </trkpt>
      <trkpt lat="52.18059" lon="4.4846683">
        <ele>2000.0</ele>
        <time>2020-09-21T09:00:00Z</time>
      </trkpt>
      <trkpt lat="52.180576" lon="4.4846597">
        <ele>2000.0</ele>
        <time>2020-09-21T09:00:01Z</time>
      </trkpt>
      <trkpt lat="52.18056" lon="4.484655">
        <ele>2000.0</ele>
        <time>2020-09-21T09:00:02Z</time>
      </trkpt>
      <trkpt lat="52.180553" lon="4.484653">
        <ele>2000.0</ele>
        <time>2020-09-21T09:00:03Z</time>
      </trkpt>
      <trkpt lat="52.18054" lon="4.484651">
        <ele>2000.0</ele>
        <time>2020-09-21T09:00:04Z</time>
      </trkpt>
      <trkpt lat="52.18052" lon="4.4846478">
        <ele>2000.0</ele>
        <time>2020-09-21T09:00:05Z</time>
      </trkpt>
      <trkpt lat="52.18051" lon="4.484642">
        <ele>2000.0</ele>
        <time>2020-09-21T09:00:06Z</time>
      </trkpt>
      <trkpt lat="52.1805" lon="4.484634">
        <ele>2000.0</ele>
        <time>2020-09-21T09:00:07Z</time>
      </trkpt>
      <trkpt lat="52.18049" lon="4.484625">
        <ele>2000.0</ele>
        <time>2020-09-21T09:00:08Z</time>
      </trkpt>
      <trkpt lat="52.18048" lon="4.484614">
        <ele>2000.0</ele>
        <time>2020-09-21T09:00:09Z</time>
      </trkpt>
      <trkpt lat="52.18047" lon="4.484602">
        <ele>2000.0</ele>
        <time>2020-09-21T09:00:11Z</time>
      </trkpt>
      <trkpt lat="52.180458" lon="4.4845905">
        <ele>2000.0</ele>
        <time>2020-09-21T09:00:11Z</time>
      </trkpt>
      <trkpt lat="52.18045" lon="4.48458">
        <ele>2000.0</ele>
        <time>2020-09-21T09:00:12Z</time>
      </trkpt>
      <trkpt lat="52.18044" lon="4.484569">
        <ele>2000.0</ele>
        <time>2020-09-21T09:00:13Z</time>
      </trkpt>
      <trkpt lat="52.180428" lon="4.484556">
        <ele>2000.0</ele>
        <time>2020-09-21T09:00:14Z</time>
      </trkpt>
      <trkpt lat="52.18042" lon="4.484542">
        <ele>2000.0</ele>
        <time>2020-09-21T09:00:15Z</time>
      </trkpt>
      <trkpt lat="52.18041" lon="4.484525">
        <ele>2000.0</ele>
        <time>2020-09-21T09:00:16Z</time>
      </trkpt>
      <trkpt lat="52.180397" lon="4.48451">
        <ele>2000.0</ele>
        <time>2020-09-21T09:00:17Z</time>
      </trkpt>
      <trkpt lat="52.18039" lon="4.484497">
        <ele>2000.0</ele>
        <time>2020-09-21T09:00:18Z</time>
      </trkpt>
      <trkpt lat="52.18038" lon="4.4844875">
        <ele>2000.0</ele>
        <time>2020-09-21T09:00:19Z</time>
      </trkpt>
      <trkpt lat="52.180374" lon="4.484478">
        <ele>2000.0</ele>
        <time>2020-09-21T09:00:20Z</time>
      </trkpt>
      <trkpt lat="52.180363" lon="4.48447">
        <ele>2000.0</ele>
        <time>2020-09-21T09:00:21Z</time>
      </trkpt>
      <trkpt lat="52.18035" lon="4.484462">
        <ele>2000.0</ele>
        <time>2020-09-21T09:00:22Z</time>
      </trkpt>
      <trkpt lat="52.180336" lon="4.4844575">
        <ele>2000.0</ele>
        <time>2020-09-21T09:00:23Z</time>
      </trkpt>
      <trkpt lat="52.180325" lon="4.4844537">
        <ele>2000.0</ele>
        <time>2020-09-21T09:00:24Z</time>
      </trkpt>
      <trkpt lat="52.180317" lon="4.4844494">
        <ele>2000.0</ele>
        <time>2020-09-21T09:00:25Z</time>
      </trkpt>
      <trkpt lat="52.180305" lon="4.4844446">
        <ele>2000.0</ele>
        <time>2020-09-21T09:00:26Z</time>
      </trkpt>
      <trkpt lat="52.180294" lon="4.484438">
        <ele>2000.0</ele>
        <time>2020-09-21T09:00:27Z</time>
      </trkpt>
      <trkpt lat="52.18028" lon="4.4844303">
        <ele>2000.0</ele>
        <time>2020-09-21T09:00:28Z</time>
      </trkpt>
      <trkpt lat="52.18027" lon="4.484422">
        <ele>2000.0</ele>
        <time>2020-09-21T09:00:29Z</time>
      </trkpt>
      <trkpt lat="52.18026" lon="4.4844136">
        <ele>2000.0</ele>
        <time>2020-09-21T09:00:30Z</time>
      </trkpt>
      <trkpt lat="52.180244" lon="4.484407">
        <ele>2000.0</ele>
        <time>2020-09-21T09:00:32Z</time>
      </trkpt>
      <trkpt lat="52.180233" lon="4.4844017">
        <ele>2000.0</ele>
        <time>2020-09-21T09:00:32Z</time>
      </trkpt>
      <trkpt lat="52.180225" lon="4.484399">
        <ele>2000.0</ele>
        <time>2020-09-21T09:00:33Z</time>
      </trkpt>
      <trkpt lat="52.18021" lon="4.484398">
        <ele>2000.0</ele>
        <time>2020-09-21T09:00:34Z</time>
      </trkpt>
      <trkpt lat="52.1802" lon="4.484397">
        <ele>2000.0</ele>
        <time>2020-09-21T09:00:35Z</time>
      </trkpt>
      <trkpt lat="52.180187" lon="4.484395">
        <ele>2000.0</ele>
        <time>2020-09-21T09:00:36Z</time>
      </trkpt>
      <trkpt lat="52.180172" lon="4.4843903">
        <ele>2000.0</ele>
        <time>2020-09-21T09:00:37Z</time>
      </trkpt>
      <trkpt lat="52.180164" lon="4.4843826">
        <ele>2000.0</ele>
        <time>2020-09-21T09:00:38Z</time>
      </trkpt>
      <trkpt lat="52.180153" lon="4.484373">
        <ele>2000.0</ele>
        <time>2020-09-21T09:00:39Z</time>
      </trkpt>
      <trkpt lat="52.18014" lon="4.4843645">
        <ele>2000.0</ele>
        <time>2020-09-21T09:00:40Z</time>
      </trkpt>
      <trkpt lat="52.18013" lon="4.4843574">
        <ele>2000.0</ele>
        <time>2020-09-21T09:00:41Z</time>
      </trkpt>
      <trkpt lat="52.180126" lon="4.48435">
        <ele>2000.0</ele>
        <time>2020-09-21T09:00:42Z</time>
      </trkpt>
      <trkpt lat="52.180115" lon="4.4843397">
        <ele>2000.0</ele>
        <time>2020-09-21T09:00:43Z</time>
      </trkpt>
      <trkpt lat="52.180107" lon="4.484326">
        <ele>2000.0</ele>
        <time>2020-09-21T09:00:44Z</time>
      </trkpt>
      <trkpt lat="52.180096" lon="4.484309">
        <ele>2000.0</ele>
        <time>2020-09-21T09:00:45Z</time>
      </trkpt>
      <trkpt lat="52.180084" lon="4.484288">
        <ele>2000.0</ele>
        <time>2020-09-21T09:00:46Z</time>
      </trkpt>
      <trkpt lat="52.18007" lon="4.4842687">
        <ele>2000.0</ele>
        <time>2020-09-21T09:00:47Z</time>
      </trkpt>
      <trkpt lat="52.180065" lon="4.484252">
        <ele>2000.0</ele>
        <time>2020-09-21T09:00:48Z</time>
      </trkpt>
      <trkpt lat="52.18006" lon="4.484239">
        <ele>2000.0</ele>
        <time>2020-09-21T09:00:49Z</time>
      </trkpt>
      <trkpt lat="52.180054" lon="4.4842257">
        <ele>2000.0</ele>
        <time>2020-09-21T09:00:50Z</time>
      </trkpt>
      <trkpt lat="52.18005" lon="4.4842134">
        <ele>2000.0</ele>
        <time>2020-09-21T09:00:51Z</time>
      </trkpt>
      <trkpt lat="52.18005" lon="4.484201">
        <ele>2000.0</ele>
        <time>2020-09-21T09:00:52Z</time>
      </trkpt>
      <trkpt lat="52.18005" lon="4.484188">
        <ele>2000.0</ele>
        <time>2020-09-21T09:00:53Z</time>
      </trkpt>
      <trkpt lat="52.180046" lon="4.4841733">
        <ele>2000.0</ele>
        <time>2020-09-21T09:00:54Z</time>
      </trkpt>
      <trkpt lat="52.180046" lon="4.484156">
        <ele>2000.0</ele>
        <time>2020-09-21T09:00:55Z</time>
      </trkpt>
      <trkpt lat="52.180046" lon="4.484137">
        <ele>2000.0</ele>
        <time>2020-09-21T09:00:56Z</time>
      </trkpt>
      <trkpt lat="52.180046" lon="4.484118">
        <ele>2000.0</ele>
        <time>2020-09-21T09:00:57Z</time>
      </trkpt>
      <trkpt lat="52.180046" lon="4.484098">
        <ele>2000.0</ele>
        <time>2020-09-21T09:00:58Z</time>
      </trkpt>
      <trkpt lat="52.18005" lon="4.4840803">
        <ele>2000.0</ele>
        <time>2020-09-21T09:01:00Z</time>
      </trkpt>
      <trkpt lat="52.180054" lon="4.484065">
        <ele>2000.0</ele>
        <time>2020-09-21T09:01:00Z</time>
      </trkpt>
      <trkpt lat="52.18006" lon="4.4840508">
        <ele>2000.0</ele>
        <time>2020-09-21T09:01:01Z</time>
      </trkpt>
      <trkpt lat="52.18006" lon="4.484038">
        <ele>2000.0</ele>
        <time>2020-09-21T09:01:02Z</time>
      </trkpt>
      <trkpt lat="52.18006" lon="4.484024">
        <ele>2000.0</ele>
        <time>2020-09-21T09:01:03Z</time>
      </trkpt>
      <trkpt lat="52.180065" lon="4.48401">
        <ele>2000.0</ele>
        <time>2020-09-21T09:01:04Z</time>
      </trkpt>
      <trkpt lat="52.18007" lon="4.4839954">
        <ele>2000.0</ele>
        <time>2020-09-21T09:01:05Z</time>
      </trkpt>
      <trkpt lat="52.180077" lon="4.483979">
        <ele>2000.0</ele>
        <time>2020-09-21T09:01:06Z</time>
      </trkpt>
      <trkpt lat="52.180077" lon="4.4839625">
        <ele>2000.0</ele>
        <time>2020-09-21T09:01:07Z</time>
      </trkpt>
      <trkpt lat="52.180077" lon="4.483947">
        <ele>2000.0</ele>
        <time>2020-09-21T09:01:08Z</time>
      </trkpt>
      <trkpt lat="52.18008" lon="4.48393">
        <ele>2000.0</ele>
        <time>2020-09-21T09:01:10Z</time>
      </trkpt>
      <trkpt lat="52.18008" lon="4.4839087">
        <ele>2000.0</ele>
        <time>2020-09-21T09:01:10Z</time>
      </trkpt>
      <trkpt lat="52.180084" lon="4.4838862">
        <ele>2000.0</ele>
        <time>2020-09-21T09:01:11Z</time>
      </trkpt>
      <trkpt lat="52.18009" lon="4.483865">
        <ele>2100.0</ele>
        <time>2020-09-21T09:01:12Z</time>
      </trkpt>
      <trkpt lat="52.1801" lon="4.4838457">
        <ele>2100.0</ele>
        <time>2020-09-21T09:01:13Z</time>
      </trkpt>
      <trkpt lat="52.180107" lon="4.483827">
        <ele>2100.0</ele>
        <time>2020-09-21T09:01:14Z</time>
      </trkpt>
      <trkpt lat="52.18011" lon="4.4838047">
        <ele>2100.0</ele>
        <time>2020-09-21T09:01:15Z</time>
      </trkpt>
      <trkpt lat="52.180122" lon="4.4837837">
        <ele>2100.0</ele>
        <time>2020-09-21T09:01:16Z</time>
      </trkpt>
      <trkpt lat="52.18013" lon="4.483765">
        <ele>2100.0</ele>
        <time>2020-09-21T09:01:17Z</time>
      </trkpt>
      <trkpt lat="52.180138" lon="4.483745">
        <ele>2100.0</ele>
        <time>2020-09-21T09:01:18Z</time>
      </trkpt>
      <trkpt lat="52.18014" lon="4.4837265">
        <ele>2100.0</ele>
        <time>2020-09-21T09:01:19Z</time>
      </trkpt>
      <trkpt lat="52.18014" lon="4.4837084">
        <ele>2100.0</ele>
        <time>2020-09-21T09:01:21Z</time>
      </trkpt>
      <trkpt lat="52.18015" lon="4.4836917">
        <ele>2100.0</ele>
        <time>2020-09-21T09:01:21Z</time>
      </trkpt>
      <trkpt lat="52.18015" lon="4.4836774">
        <ele>2100.0</ele>
        <time>2020-09-21T09:01:22Z</time>
      </trkpt>
      <trkpt lat="52.18015" lon="4.4836664">
        <ele>2100.0</ele>
        <time>2020-09-21T09:01:23Z</time>
      </trkpt>
      <trkpt lat="52.18015" lon="4.4836526">
        <ele>2100.0</ele>
        <time>2020-09-21T09:01:24Z</time>
      </trkpt>
      <trkpt lat="52.18015" lon="4.4836397">
        <ele>2100.0</ele>
        <time>2020-09-21T09:01:25Z</time>
      </trkpt>
      <trkpt lat="52.180153" lon="4.4836264">
        <ele>2100.0</ele>
        <time>2020-09-21T09:01:26Z</time>
      </trkpt>
      <trkpt lat="52.180157" lon="4.483614">
        <ele>2100.0</ele>
        <time>2020-09-21T09:01:27Z</time>
      </trkpt>
      <trkpt lat="52.18017" lon="4.4836025">
        <ele>2100.0</ele>
        <time>2020-09-21T09:01:28Z</time>
      </trkpt>
      <trkpt lat="52.180172" lon="4.483593">
        <ele>2100.0</ele>
        <time>2020-09-21T09:01:29Z</time>
      </trkpt>
      <trkpt lat="52.18018" lon="4.483585">
        <ele>2100.0</ele>
        <time>2020-09-21T09:01:31Z</time>
      </trkpt>
      <trkpt lat="52.180183" lon="4.483577">
        <ele>2100.0</ele>
        <time>2020-09-21T09:01:31Z</time>
      </trkpt>
      <trkpt lat="52.180187" lon="4.4835706">
        <ele>2100.0</ele>
        <time>2020-09-21T09:01:32Z</time>
      </trkpt>
      <trkpt lat="52.180195" lon="4.483565">
        <ele>2100.0</ele>
        <time>2020-09-21T09:01:33Z</time>
      </trkpt>
      <trkpt lat="52.180202" lon="4.483559">
        <ele>2100.0</ele>
        <time>2020-09-21T09:01:34Z</time>
      </trkpt>
      <trkpt lat="52.18021" lon="4.4835515">
        <ele>2100.0</ele>
        <time>2020-09-21T09:01:35Z</time>
      </trkpt>
      <trkpt lat="52.180214" lon="4.483543">
        <ele>2100.0</ele>
        <time>2020-09-21T09:01:36Z</time>
      </trkpt>
      <trkpt lat="52.180214" lon="4.4835334">
        <ele>2100.0</ele>
        <time>2020-09-21T09:01:37Z</time>
      </trkpt>
      <trkpt lat="52.180214" lon="4.4835243">
        <ele>2100.0</ele>
        <time>2020-09-21T09:01:38Z</time>
      </trkpt>
      <trkpt lat="52.180218" lon="4.4835157">
        <ele>2100.0</ele>
        <time>2020-09-21T09:01:39Z</time>
      </trkpt>
      <trkpt lat="52.180225" lon="4.4835057">
        <ele>2100.0</ele>
        <time>2020-09-21T09:01:40Z</time>
      </trkpt>
      <trkpt lat="52.18023" lon="4.483494">
        <ele>2100.0</ele>
        <time>2020-09-21T09:01:42Z</time>
      </trkpt>
      <trkpt lat="52.18024" lon="4.48348">
        <ele>2100.0</ele>
        <time>2020-09-21T09:01:42Z</time>
      </trkpt>
      <trkpt lat="52.180244" lon="4.4834647">
        <ele>2100.0</ele>
        <time>2020-09-21T09:01:43Z</time>
      </trkpt>
      <trkpt lat="52.180256" lon="4.4834476">
        <ele>2100.0</ele>
        <time>2020-09-21T09:01:44Z</time>
      </trkpt>
      <trkpt lat="52.180256" lon="4.483428">
        <ele>2100.0</ele>
        <time>2020-09-21T09:01:45Z</time>
      </trkpt>
      <trkpt lat="52.18026" lon="4.4834056">
        <ele>2100.0</ele>
        <time>2020-09-21T09:01:46Z</time>
      </trkpt>
      <trkpt lat="52.18026" lon="4.4833827">
        <ele>2100.0</ele>
        <time>2020-09-21T09:01:47Z</time>
      </trkpt>
      <trkpt lat="52.180264" lon="4.483361">
        <ele>2100.0</ele>
        <time>2020-09-21T09:01:48Z</time>
      </trkpt>
      <trkpt lat="52.18027" lon="4.483342">
        <ele>2100.0</ele>
        <time>2020-09-21T09:01:49Z</time>
      </trkpt>
      <trkpt lat="52.180275" lon="4.483327">
        <ele>2100.0</ele>
        <time>2020-09-21T09:01:50Z</time>
      </trkpt>
      <trkpt lat="52.180286" lon="4.4833117">
        <ele>2100.0</ele>
        <time>2020-09-21T09:01:51Z</time>
      </trkpt>
      <trkpt lat="52.18029" lon="4.483295">
        <ele>2100.0</ele>
        <time>2020-09-21T09:01:52Z</time>
      </trkpt>
      <trkpt lat="52.180294" lon="4.483278">
        <ele>2100.0</ele>
        <time>2020-09-21T09:01:53Z</time>
      </trkpt>
      <trkpt lat="52.180305" lon="4.4832597">
        <ele>2100.0</ele>
        <time>2020-09-21T09:01:54Z</time>
      </trkpt>
      <trkpt lat="52.18031" lon="4.48324">
        <ele>2100.0</ele>
        <time>2020-09-21T09:01:55Z</time>
      </trkpt>
      <trkpt lat="52.180317" lon="4.48322">
        <ele>2100.0</ele>
        <time>2020-09-21T09:01:56Z</time>
      </trkpt>
      <trkpt lat="52.18032" lon="4.4832015">
        <ele>2100.0</ele>
        <time>2020-09-21T09:01:56Z</time>
      </trkpt>
      <trkpt lat="52.18032" lon="4.4831843">
        <ele>2100.0</ele>
        <time>2020-09-21T09:01:57Z</time>
      </trkpt>
      <trkpt lat="52.180325" lon="4.483169">
        <ele>2100.0</ele>
        <time>2020-09-21T09:01:59Z</time>
      </trkpt>
      <trkpt lat="52.180332" lon="4.4831576">
        <ele>2100.0</ele>
        <time>2020-09-21T09:01:59Z</time>
      </trkpt>
      <trkpt lat="52.180336" lon="4.4831467">
        <ele>2100.0</ele>
        <time>2020-09-21T09:02:00Z</time>
      </trkpt>
      <trkpt lat="52.180344" lon="4.4831357">
        <ele>2100.0</ele>
        <time>2020-09-21T09:02:01Z</time>
      </trkpt>
      <trkpt lat="52.180344" lon="4.4831233">
        <ele>2100.0</ele>
        <time>2020-09-21T09:02:02Z</time>
      </trkpt>
      <trkpt lat="52.180347" lon="4.48311">
        <ele>2100.0</ele>
        <time>2020-09-21T09:02:03Z</time>
      </trkpt>
      <trkpt lat="52.180347" lon="4.483095">
        <ele>2100.0</ele>
        <time>2020-09-21T09:02:04Z</time>
      </trkpt>
      <trkpt lat="52.180347" lon="4.48308">
        <ele>2100.0</ele>
        <time>2020-09-21T09:02:05Z</time>
      </trkpt>
      <trkpt lat="52.180347" lon="4.483065">
        <ele>2100.0</ele>
        <time>2020-09-21T09:02:06Z</time>
      </trkpt>
      <trkpt lat="52.180347" lon="4.483053">
        <ele>2100.0</ele>
        <time>2020-09-21T09:02:07Z</time>
      </trkpt>
      <trkpt lat="52.18035" lon="4.483043">
        <ele>2100.0</ele>
        <time>2020-09-21T09:02:09Z</time>
      </trkpt>
      <trkpt lat="52.18036" lon="4.483033">
        <ele>2100.0</ele>
        <time>2020-09-21T09:02:09Z</time>
      </trkpt>
      <trkpt lat="52.180363" lon="4.483023">
        <ele>2100.0</ele>
        <time>2020-09-21T09:02:10Z</time>
      </trkpt>
      <trkpt lat="52.180367" lon="4.4830155">
        <ele>2100.0</ele>
        <time>2020-09-21T09:02:11Z</time>
      </trkpt>
      <trkpt lat="52.180367" lon="4.4830084">
        <ele>2100.0</ele>
        <time>2020-09-21T09:02:12Z</time>
      </trkpt>
      <trkpt lat="52.180374" lon="4.4830008">
        <ele>2100.0</ele>
        <time>2020-09-21T09:02:13Z</time>
      </trkpt>
      <trkpt lat="52.180378" lon="4.482992">
        <ele>2100.0</ele>
        <time>2020-09-21T09:02:14Z</time>
      </trkpt>
      <trkpt lat="52.18038" lon="4.482982">
        <ele>2100.0</ele>
        <time>2020-09-21T09:02:15Z</time>
      </trkpt>
      <trkpt lat="52.18039" lon="4.4829717">
        <ele>2100.0</ele>
        <time>2020-09-21T09:02:16Z</time>
      </trkpt>
      <trkpt lat="52.180393" lon="4.4829626">
        <ele>2100.0</ele>
        <time>2020-09-21T09:02:17Z</time>
      </trkpt>
      <trkpt lat="52.180405" lon="4.482954">
        <ele>2100.0</ele>
        <time>2020-09-21T09:02:18Z</time>
      </trkpt>
      <trkpt lat="52.180412" lon="4.4829445">
        <ele>2100.0</ele>
        <time>2020-09-21T09:02:20Z</time>
      </trkpt>
      <trkpt lat="52.18042" lon="4.482934">
        <ele>2100.0</ele>
        <time>2020-09-21T09:02:20Z</time>
      </trkpt>
      <trkpt lat="52.180428" lon="4.4829206">
        <ele>2100.0</ele>
        <time>2020-09-21T09:02:21Z</time>
      </trkpt>
      <trkpt lat="52.18044" lon="4.4829054">
        <ele>2100.0</ele>
        <time>2020-09-21T09:02:22Z</time>
      </trkpt>
      <trkpt lat="52.180454" lon="4.482888">
        <ele>2100.0</ele>
        <time>2020-09-21T09:02:23Z</time>
      </trkpt>
      <trkpt lat="52.180466" lon="4.482872">
        <ele>2100.0</ele>
        <time>2020-09-21T09:02:24Z</time>
      </trkpt>
      <trkpt lat="52.180473" lon="4.4828568">
        <ele>2100.0</ele>
        <time>2020-09-21T09:02:25Z</time>
      </trkpt>
      <trkpt lat="52.180485" lon="4.482843">
        <ele>2100.0</ele>
        <time>2020-09-21T09:02:26Z</time>
      </trkpt>
      <trkpt lat="52.18049" lon="4.4828296">
        <ele>2100.0</ele>
        <time>2020-09-21T09:02:27Z</time>
      </trkpt>
      <trkpt lat="52.180496" lon="4.482816">
        <ele>2100.0</ele>
        <time>2020-09-21T09:02:28Z</time>
      </trkpt>
      <trkpt lat="52.1805" lon="4.4828014">
        <ele>2100.0</ele>
        <time>2020-09-21T09:02:30Z</time>
      </trkpt>
      <trkpt lat="52.18051" lon="4.482787">
        <ele>2100.0</ele>
        <time>2020-09-21T09:02:30Z</time>
      </trkpt>
      <trkpt lat="52.180515" lon="4.482774">
        <ele>2100.0</ele>
        <time>2020-09-21T09:02:31Z</time>
      </trkpt>
      <trkpt lat="52.18052" lon="4.482764">
        <ele>2100.0</ele>
        <time>2020-09-21T09:02:32Z</time>
      </trkpt>
      <trkpt lat="52.180527" lon="4.482756">
        <ele>2100.0</ele>
        <time>2020-09-21T09:02:33Z</time>
      </trkpt>
      <trkpt lat="52.18053" lon="4.4827437">
        <ele>2100.0</ele>
        <time>2020-09-21T09:02:34Z</time>
      </trkpt>
      <trkpt lat="52.18053" lon="4.482729">
        <ele>2100.0</ele>
        <time>2020-09-21T09:02:35Z</time>
      </trkpt>
      <trkpt lat="52.18053" lon="4.482706">
        <ele>2100.0</ele>
        <time>2020-09-21T09:02:36Z</time>
      </trkpt>
      <trkpt lat="52.180527" lon="4.4826894">
        <ele>2100.0</ele>
        <time>2020-09-21T09:02:37Z</time>
      </trkpt>
      <trkpt lat="52.18052" lon="4.482674">
        <ele>2100.0</ele>
        <time>2020-09-21T09:02:38Z</time>
      </trkpt>
      <trkpt lat="52.18051" lon="4.482663">
        <ele>2100.0</ele>
        <time>2020-09-21T09:02:39Z</time>
      </trkpt>
      <trkpt lat="52.180504" lon="4.482654">
        <ele>2100.0</ele>
        <time>2020-09-21T09:02:40Z</time>
      </trkpt>
      <trkpt lat="52.1805" lon="4.4826465">
        <ele>2100.0</ele>
        <time>2020-09-21T09:02:41Z</time>
      </trkpt>
      <trkpt lat="52.180496" lon="4.482639">
        <ele>2100.0</ele>
        <time>2020-09-21T09:02:42Z</time>
      </trkpt>
      <trkpt lat="52.18049" lon="4.4826303">
        <ele>2100.0</ele>
        <time>2020-09-21T09:02:43Z</time>
      </trkpt>
      <trkpt lat="52.18049" lon="4.48262">
        <ele>2100.0</ele>
        <time>2020-09-21T09:02:45Z</time>
      </trkpt>
      <trkpt lat="52.18049" lon="4.482609">
        <ele>2100.0</ele>
        <time>2020-09-21T09:02:45Z</time>
      </trkpt>
      <trkpt lat="52.180485" lon="4.4825964">
        <ele>2100.0</ele>
        <time>2020-09-21T09:02:46Z</time>
      </trkpt>
      <trkpt lat="52.180485" lon="4.482583">
        <ele>2100.0</ele>
        <time>2020-09-21T09:02:47Z</time>
      </trkpt>
      <trkpt lat="52.180485" lon="4.482569">
        <ele>2100.0</ele>
        <time>2020-09-21T09:02:48Z</time>
      </trkpt>
      <trkpt lat="52.180485" lon="4.4825583">
        <ele>2100.0</ele>
        <time>2020-09-21T09:02:49Z</time>
      </trkpt>
      <trkpt lat="52.18049" lon="4.4825506">
        <ele>2100.0</ele>
        <time>2020-09-21T09:02:50Z</time>
      </trkpt>
      <trkpt lat="52.18049" lon="4.482546">
        <ele>2100.0</ele>
        <time>2020-09-21T09:02:52Z</time>
      </trkpt>
      <trkpt lat="52.18049" lon="4.4825435">
        <ele>2100.0</ele>
        <time>2020-09-21T09:02:52Z</time>
      </trkpt>
      <trkpt lat="52.18049" lon="4.482543">
        <ele>2100.0</ele>
        <time>2020-09-21T09:02:53Z</time>
      </trkpt>
      <trkpt lat="52.180496" lon="4.4825454">
        <ele>2100.0</ele>
        <time>2020-09-21T09:02:54Z</time>
      </trkpt>
      <trkpt lat="52.180496" lon="4.4825506">
        <ele>2000.0</ele>
        <time>2020-09-21T09:02:55Z</time>
      </trkpt>
      <trkpt lat="52.1805" lon="4.4825583">
        <ele>2000.0</ele>
        <time>2020-09-21T09:02:56Z</time>
      </trkpt>
      <trkpt lat="52.180504" lon="4.4825673">
        <ele>2000.0</ele>
        <time>2020-09-21T09:02:57Z</time>
      </trkpt>
      <trkpt lat="52.18051" lon="4.482577">
        <ele>2000.0</ele>
        <time>2020-09-21T09:03:08Z</time>
      </trkpt>
      <trkpt lat="52.18051" lon="4.48257">
        <ele>2000.0</ele>
        <time>2020-09-21T09:03:10Z</time>
      </trkpt>
      <trkpt lat="52.18051" lon="4.4825635">
        <ele>2000.0</ele>
        <time>2020-09-21T09:03:14Z</time>
      </trkpt>
      <trkpt lat="52.18051" lon="4.4825625">
        <ele>2000.0</ele>
        <time>2020-09-21T09:03:15Z</time>
      </trkpt>
      <trkpt lat="52.180504" lon="4.4825635">
        <ele>2000.0</ele>
        <time>2020-09-21T09:03:21Z</time>
      </trkpt>
      <trkpt lat="52.18051" lon="4.482567">
        <ele>2000.0</ele>
        <time>2020-09-21T09:03:22Z</time>
      </trkpt>
      <trkpt lat="52.180504" lon="4.4825573">
        <ele>2000.0</ele>
        <time>2020-09-21T09:03:37Z</time>
      </trkpt>
      <trkpt lat="52.180504" lon="4.4825487">
        <ele>2000.0</ele>
        <time>2020-09-21T09:03:45Z</time>
      </trkpt>
      <trkpt lat="52.180504" lon="4.4825454">
        <ele>2000.0</ele>
        <time>2020-09-21T09:03:46Z</time>
      </trkpt>
      <trkpt lat="52.180504" lon="4.4825425">
        <ele>2000.0</ele>
        <time>2020-09-21T09:03:47Z</time>
      </trkpt>
      <trkpt lat="52.1805" lon="4.48253">
        <ele>2000.0</ele>
        <time>2020-09-21T09:03:52Z</time>
      </trkpt>
      <trkpt lat="52.1805" lon="4.4825253">
        <ele>2000.0</ele>
        <time>2020-09-21T09:03:54Z</time>
      </trkpt>
      <trkpt lat="52.180496" lon="4.482522">
        <ele>2000.0</ele>
        <time>2020-09-21T09:04:01Z</time>
      </trkpt>
      <trkpt lat="52.180496" lon="4.482522">
        <ele>2000.0</ele>
        <time>2020-09-21T09:04:02Z</time>
      </trkpt>
      <trkpt lat="52.180485" lon="4.4825234">
        <ele>2000.0</ele>
        <time>2020-09-21T09:04:04Z</time>
      </trkpt>
      <trkpt lat="52.180485" lon="4.4825253">
        <ele>2000.0</ele>
        <time>2020-09-21T09:04:06Z</time>
      </trkpt>
      <trkpt lat="52.180485" lon="4.482526">
        <ele>2000.0</ele>
        <time>2020-09-21T09:04:07Z</time>
      </trkpt>
      <trkpt lat="52.18048" lon="4.48253">
        <ele>2000.0</ele>
        <time>2020-09-21T09:04:09Z</time>
      </trkpt>
      <trkpt lat="52.18048" lon="4.482534">
        <ele>2000.0</ele>
        <time>2020-09-21T09:04:11Z</time>
      </trkpt>
      <trkpt lat="52.180485" lon="4.482537">
        <ele>2000.0</ele>
        <time>2020-09-21T09:04:32Z</time>
      </trkpt>
      <trkpt lat="52.18049" lon="4.482536">
        <ele>2000.0</ele>
        <time>2020-09-21T09:04:32Z</time>
      </trkpt>
      <trkpt lat="52.18049" lon="4.4825335">
        <ele>2000.0</ele>
        <time>2020-09-21T09:04:33Z</time>
      </trkpt>
      <trkpt lat="52.18049" lon="4.48253">
        <ele>2000.0</ele>
        <time>2020-09-21T09:04:34Z</time>
      </trkpt>
      <trkpt lat="52.180496" lon="4.4825277">
        <ele>2000.0</ele>
        <time>2020-09-21T09:04:35Z</time>
      </trkpt>
      <trkpt lat="52.180496" lon="4.4825253">
        <ele>2000.0</ele>
        <time>2020-09-21T09:04:36Z</time>
      </trkpt>
      <trkpt lat="52.1805" lon="4.482523">
        <ele>2000.0</ele>
        <time>2020-09-21T09:04:37Z</time>
      </trkpt>
      <trkpt lat="52.18051" lon="4.4825172">
        <ele>2000.0</ele>
        <time>2020-09-21T09:04:39Z</time>
      </trkpt>
      <trkpt lat="52.180515" lon="4.4825172">
        <ele>2000.0</ele>
        <time>2020-09-21T09:04:40Z</time>
      </trkpt>
      <trkpt lat="52.18052" lon="4.4825153">
        <ele>2000.0</ele>
        <time>2020-09-21T09:04:41Z</time>
      </trkpt>
      <trkpt lat="52.180527" lon="4.4825172">
        <ele>2000.0</ele>
        <time>2020-09-21T09:04:43Z</time>
      </trkpt>
      <trkpt lat="52.180542" lon="4.482521">
        <ele>2000.0</ele>
        <time>2020-09-21T09:04:43Z</time>
      </trkpt>
      <trkpt lat="52.180553" lon="4.4825253">
        <ele>2000.0</ele>
        <time>2020-09-21T09:04:44Z</time>
      </trkpt>
      <trkpt lat="52.18056" lon="4.482529">
        <ele>2000.0</ele>
        <time>2020-09-21T09:04:45Z</time>
      </trkpt>
      <trkpt lat="52.180576" lon="4.482532">
        <ele>2000.0</ele>
        <time>2020-09-21T09:04:46Z</time>
      </trkpt>
      <trkpt lat="52.18059" lon="4.482532">
        <ele>2000.0</ele>
        <time>2020-09-21T09:04:47Z</time>
      </trkpt>
      <trkpt lat="52.180607" lon="4.4825296">
        <ele>2000.0</ele>
        <time>2020-09-21T09:04:48Z</time>
      </trkpt>
      <trkpt lat="52.18062" lon="4.482526">
        <ele>2000.0</ele>
        <time>2020-09-21T09:04:49Z</time>
      </trkpt>
      <trkpt lat="52.180634" lon="4.4825177">
        <ele>2000.0</ele>
        <time>2020-09-21T09:04:50Z</time>
      </trkpt>
      <trkpt lat="52.180645" lon="4.482506">
        <ele>2000.0</ele>
        <time>2020-09-21T09:04:51Z</time>
      </trkpt>
      <trkpt lat="52.18065" lon="4.482493">
        <ele>2000.0</ele>
        <time>2020-09-21T09:04:52Z</time>
      </trkpt>
      <trkpt lat="52.18066" lon="4.4824758">
        <ele>2000.0</ele>
        <time>2020-09-21T09:04:53Z</time>
      </trkpt>
      <trkpt lat="52.180668" lon="4.482456">
        <ele>2000.0</ele>
        <time>2020-09-21T09:04:54Z</time>
      </trkpt>
      <trkpt lat="52.180676" lon="4.4824376">
        <ele>2000.0</ele>
        <time>2020-09-21T09:04:55Z</time>
      </trkpt>
      <trkpt lat="52.18068" lon="4.48242">
        <ele>2000.0</ele>
        <time>2020-09-21T09:04:56Z</time>
      </trkpt>
      <trkpt lat="52.18069" lon="4.4824014">
        <ele>2000.0</ele>
        <time>2020-09-21T09:04:57Z</time>
      </trkpt>
      <trkpt lat="52.180695" lon="4.482382">
        <ele>2000.0</ele>
        <time>2020-09-21T09:04:58Z</time>
      </trkpt>
      <trkpt lat="52.1807" lon="4.482356">
        <ele>2000.0</ele>
        <time>2020-09-21T09:04:59Z</time>
      </trkpt>
      <trkpt lat="52.18071" lon="4.4823265">
        <ele>2000.0</ele>
        <time>2020-09-21T09:05:01Z</time>
      </trkpt>
      <trkpt lat="52.18072" lon="4.482297">
        <ele>2000.0</ele>
        <time>2020-09-21T09:05:01Z</time>
      </trkpt>
      <trkpt lat="52.180737" lon="4.482267">
        <ele>2000.0</ele>
        <time>2020-09-21T09:05:02Z</time>
      </trkpt>
      <trkpt lat="52.180748" lon="4.482235">
        <ele>2000.0</ele>
        <time>2020-09-21T09:05:03Z</time>
      </trkpt>
      <trkpt lat="52.180756" lon="4.4822">
        <ele>2000.0</ele>
        <time>2020-09-21T09:05:04Z</time>
      </trkpt>
      <trkpt lat="52.18077" lon="4.482165">
        <ele>2000.0</ele>
        <time>2020-09-21T09:05:05Z</time>
      </trkpt>
      <trkpt lat="52.180786" lon="4.4821286">
        <ele>2000.0</ele>
        <time>2020-09-21T09:05:06Z</time>
      </trkpt>
      <trkpt lat="52.180798" lon="4.482088">
        <ele>2000.0</ele>
        <time>2020-09-21T09:05:07Z</time>
      </trkpt>
      <trkpt lat="52.180813" lon="4.4820476">
        <ele>2000.0</ele>
        <time>2020-09-21T09:05:08Z</time>
      </trkpt>
      <trkpt lat="52.180824" lon="4.4820075">
        <ele>2000.0</ele>
        <time>2020-09-21T09:05:09Z</time>
      </trkpt>
      <trkpt lat="52.180832" lon="4.4819674">
        <ele>2000.0</ele>
        <time>2020-09-21T09:05:10Z</time>
      </trkpt>
      <trkpt lat="52.180847" lon="4.48193">
        <ele>2000.0</ele>
        <time>2020-09-21T09:05:11Z</time>
      </trkpt>
      <trkpt lat="52.180862" lon="4.4818926">
        <ele>2000.0</ele>
        <time>2020-09-21T09:05:12Z</time>
      </trkpt>
      <trkpt lat="52.180878" lon="4.4818587">
        <ele>2000.0</ele>
        <time>2020-09-21T09:05:13Z</time>
      </trkpt>
      <trkpt lat="52.18089" lon="4.481826">
        <ele>2000.0</ele>
        <time>2020-09-21T09:05:14Z</time>
      </trkpt>
      <trkpt lat="52.180904" lon="4.481792">
        <ele>2000.0</ele>
        <time>2020-09-21T09:05:15Z</time>
      </trkpt>
      <trkpt lat="52.18092" lon="4.481759">
        <ele>2000.0</ele>
        <time>2020-09-21T09:05:16Z</time>
      </trkpt>
      <trkpt lat="52.18093" lon="4.481726">
        <ele>2000.0</ele>
        <time>2020-09-21T09:05:17Z</time>
      </trkpt>
      <trkpt lat="52.180943" lon="4.4816923">
        <ele>2000.0</ele>
        <time>2020-09-21T09:05:18Z</time>
      </trkpt>
      <trkpt lat="52.180946" lon="4.4816575">
        <ele>2000.0</ele>
        <time>2020-09-21T09:05:19Z</time>
      </trkpt>
      <trkpt lat="52.18095" lon="4.481621">
        <ele>2000.0</ele>
        <time>2020-09-21T09:05:20Z</time>
      </trkpt>
      <trkpt lat="52.180946" lon="4.4815817">
        <ele>2000.0</ele>
        <time>2020-09-21T09:05:21Z</time>
      </trkpt>
      <trkpt lat="52.180943" lon="4.4815416">
        <ele>2000.0</ele>
        <time>2020-09-21T09:05:22Z</time>
      </trkpt>
      <trkpt lat="52.18093" lon="4.4815025">
        <ele>2000.0</ele>
        <time>2020-09-21T09:05:23Z</time>
      </trkpt>
      <trkpt lat="52.18092" lon="4.481463">
        <ele>2000.0</ele>
        <time>2020-09-21T09:05:24Z</time>
      </trkpt>
      <trkpt lat="52.180904" lon="4.481425">
        <ele>2000.0</ele>
        <time>2020-09-21T09:05:25Z</time>
      </trkpt>
      <trkpt lat="52.18089" lon="4.481387">
        <ele>2000.0</ele>
        <time>2020-09-21T09:05:26Z</time>
      </trkpt>
      <trkpt lat="52.180874" lon="4.481349">
        <ele>2000.0</ele>
        <time>2020-09-21T09:05:27Z</time>
      </trkpt>
      <trkpt lat="52.18086" lon="4.481314">
        <ele>2000.0</ele>
        <time>2020-09-21T09:05:28Z</time>
      </trkpt>
      <trkpt lat="52.180843" lon="4.481281">
        <ele>2000.0</ele>
        <time>2020-09-21T09:05:29Z</time>
      </trkpt>
      <trkpt lat="52.18083" lon="4.4812512">
        <ele>2000.0</ele>
        <time>2020-09-21T09:05:30Z</time>
      </trkpt>
      <trkpt lat="52.180813" lon="4.4812193">
        <ele>2000.0</ele>
        <time>2020-09-21T09:05:31Z</time>
      </trkpt>
      <trkpt lat="52.180798" lon="4.4811916">
        <ele>2000.0</ele>
        <time>2020-09-21T09:05:33Z</time>
      </trkpt>
      <trkpt lat="52.180782" lon="4.4811597">
        <ele>2000.0</ele>
        <time>2020-09-21T09:05:33Z</time>
      </trkpt>
      <trkpt lat="52.18077" lon="4.4811296">
        <ele>2000.0</ele>
        <time>2020-09-21T09:05:34Z</time>
      </trkpt>
      <trkpt lat="52.180756" lon="4.4810996">
        <ele>2000.0</ele>
        <time>2020-09-21T09:05:35Z</time>
      </trkpt>
      <trkpt lat="52.18074" lon="4.481068">
        <ele>2000.0</ele>
        <time>2020-09-21T09:05:36Z</time>
      </trkpt>
      <trkpt lat="52.180725" lon="4.4810357">
        <ele>2000.0</ele>
        <time>2020-09-21T09:05:37Z</time>
      </trkpt>
      <trkpt lat="52.180706" lon="4.4810014">
        <ele>2000.0</ele>
        <time>2020-09-21T09:05:38Z</time>
      </trkpt>
      <trkpt lat="52.18069" lon="4.480967">
        <ele>2000.0</ele>
        <time>2020-09-21T09:05:39Z</time>
      </trkpt>
      <trkpt lat="52.180676" lon="4.4809327">
        <ele>2000.0</ele>
        <time>2020-09-21T09:05:40Z</time>
      </trkpt>
      <trkpt lat="52.18066" lon="4.4808993">
        <ele>2000.0</ele>
        <time>2020-09-21T09:05:41Z</time>
      </trkpt>
      <trkpt lat="52.180645" lon="4.4808664">
        <ele>2000.0</ele>
        <time>2020-09-21T09:05:43Z</time>
      </trkpt>
      <trkpt lat="52.18063" lon="4.480835">
        <ele>2000.0</ele>
        <time>2020-09-21T09:05:43Z</time>
      </trkpt>
      <trkpt lat="52.180614" lon="4.480802">
        <ele>2000.0</ele>
        <time>2020-09-21T09:05:44Z</time>
      </trkpt>
      <trkpt lat="52.1806" lon="4.480768">
        <ele>2000.0</ele>
        <time>2020-09-21T09:05:45Z</time>
      </trkpt>
      <trkpt lat="52.180584" lon="4.480734">
        <ele>2000.0</ele>
        <time>2020-09-21T09:05:46Z</time>
      </trkpt>
      <trkpt lat="52.18057" lon="4.4807">
        <ele>2000.0</ele>
        <time>2020-09-21T09:05:47Z</time>
      </trkpt>
      <trkpt lat="52.180546" lon="4.480668">
        <ele>2000.0</ele>
        <time>2020-09-21T09:05:48Z</time>
      </trkpt>
      <trkpt lat="52.18053" lon="4.4806385">
        <ele>2000.0</ele>
        <time>2020-09-21T09:05:49Z</time>
      </trkpt>
      <trkpt lat="52.180515" lon="4.4806123">
        <ele>2000.0</ele>
        <time>2020-09-21T09:05:50Z</time>
      </trkpt>
      <trkpt lat="52.1805" lon="4.480586">
        <ele>2000.0</ele>
        <time>2020-09-21T09:05:51Z</time>
      </trkpt>
      <trkpt lat="52.180485" lon="4.480561">
        <ele>2000.0</ele>
        <time>2020-09-21T09:05:52Z</time>
      </trkpt>
      <trkpt lat="52.18047" lon="4.4805346">
        <ele>2000.0</ele>
        <time>2020-09-21T09:05:53Z</time>
      </trkpt>
      <trkpt lat="52.18045" lon="4.480508">
        <ele>2000.0</ele>
        <time>2020-09-21T09:05:54Z</time>
      </trkpt>
      <trkpt lat="52.180428" lon="4.4804845">
        <ele>2000.0</ele>
        <time>2020-09-21T09:05:55Z</time>
      </trkpt>
      <trkpt lat="52.18041" lon="4.480463">
        <ele>2000.0</ele>
        <time>2020-09-21T09:05:56Z</time>
      </trkpt>
      <trkpt lat="52.180393" lon="4.480446">
        <ele>2000.0</ele>
        <time>2020-09-21T09:05:57Z</time>
      </trkpt>
      <trkpt lat="52.180374" lon="4.480438">
        <ele>2000.0</ele>
        <time>2020-09-21T09:05:58Z</time>
      </trkpt>
      <trkpt lat="52.18035" lon="4.4804378">
        <ele>2000.0</ele>
        <time>2020-09-21T09:05:59Z</time>
      </trkpt>
      <trkpt lat="52.180336" lon="4.480442">
        <ele>2000.0</ele>
        <time>2020-09-21T09:06:01Z</time>
      </trkpt>
      <trkpt lat="52.180317" lon="4.480451">
        <ele>2000.0</ele>
        <time>2020-09-21T09:06:01Z</time>
      </trkpt>
      <trkpt lat="52.180294" lon="4.480457">
        <ele>2000.0</ele>
        <time>2020-09-21T09:06:02Z</time>
      </trkpt>
      <trkpt lat="52.180275" lon="4.4804587">
        <ele>2000.0</ele>
        <time>2020-09-21T09:06:03Z</time>
      </trkpt>
      <trkpt lat="52.180256" lon="4.480452">
        <ele>2000.0</ele>
        <time>2020-09-21T09:06:04Z</time>
      </trkpt>
      <trkpt lat="52.180233" lon="4.4804363">
        <ele>2000.0</ele>
        <time>2020-09-21T09:06:05Z</time>
      </trkpt>
      <trkpt lat="52.180214" lon="4.480415">
        <ele>2000.0</ele>
        <time>2020-09-21T09:06:06Z</time>
      </trkpt>
      <trkpt lat="52.180195" lon="4.48039">
        <ele>2000.0</ele>
        <time>2020-09-21T09:06:07Z</time>
      </trkpt>
      <trkpt lat="52.180172" lon="4.4803624">
        <ele>2000.0</ele>
        <time>2020-09-21T09:06:08Z</time>
      </trkpt>
      <trkpt lat="52.180157" lon="4.480337">
        <ele>2000.0</ele>
        <time>2020-09-21T09:06:09Z</time>
      </trkpt>
      <trkpt lat="52.18014" lon="4.480316">
        <ele>2000.0</ele>
        <time>2020-09-21T09:06:10Z</time>
      </trkpt>
      <trkpt lat="52.180126" lon="4.480306">
        <ele>2000.0</ele>
        <time>2020-09-21T09:06:11Z</time>
      </trkpt>
      <trkpt lat="52.180107" lon="4.480305">
        <ele>2000.0</ele>
        <time>2020-09-21T09:06:11Z</time>
      </trkpt>
      <trkpt lat="52.18009" lon="4.480314">
        <ele>2000.0</ele>
        <time>2020-09-21T09:06:12Z</time>
      </trkpt>
      <trkpt lat="52.180077" lon="4.4803305">
        <ele>2000.0</ele>
        <time>2020-09-21T09:06:13Z</time>
      </trkpt>
      <trkpt lat="52.18006" lon="4.480353">
        <ele>2000.0</ele>
        <time>2020-09-21T09:06:14Z</time>
      </trkpt>
      <trkpt lat="52.18004" lon="4.480382">
        <ele>2000.0</ele>
        <time>2020-09-21T09:06:15Z</time>
      </trkpt>
      <trkpt lat="52.180023" lon="4.4804144">
        <ele>2000.0</ele>
        <time>2020-09-21T09:06:16Z</time>
      </trkpt>
      <trkpt lat="52.180004" lon="4.4804525">
        <ele>2000.0</ele>
        <time>2020-09-21T09:06:17Z</time>
      </trkpt>
      <trkpt lat="52.179985" lon="4.4804916">
        <ele>2000.0</ele>
        <time>2020-09-21T09:06:18Z</time>
      </trkpt>
      <trkpt lat="52.179962" lon="4.4805317">
        <ele>2000.0</ele>
        <time>2020-09-21T09:06:19Z</time>
      </trkpt>
      <trkpt lat="52.179943" lon="4.480569">
        <ele>2000.0</ele>
        <time>2020-09-21T09:06:20Z</time>
      </trkpt>
      <trkpt lat="52.179928" lon="4.4806075">
        <ele>2000.0</ele>
        <time>2020-09-21T09:06:21Z</time>
      </trkpt>
      <trkpt lat="52.1799" lon="4.480651">
        <ele>2000.0</ele>
        <time>2020-09-21T09:06:22Z</time>
      </trkpt>
      <trkpt lat="52.179882" lon="4.480699">
        <ele>2000.0</ele>
        <time>2020-09-21T09:06:23Z</time>
      </trkpt>
      <trkpt lat="52.17986" lon="4.480742">
        <ele>2000.0</ele>
        <time>2020-09-21T09:06:24Z</time>
      </trkpt>
      <trkpt lat="52.17984" lon="4.4807787">
        <ele>2000.0</ele>
        <time>2020-09-21T09:06:25Z</time>
      </trkpt>
      <trkpt lat="52.17982" lon="4.4808145">
        <ele>2000.0</ele>
        <time>2020-09-21T09:06:26Z</time>
      </trkpt>
      <trkpt lat="52.1798" lon="4.480847">
        <ele>2000.0</ele>
        <time>2020-09-21T09:06:27Z</time>
      </trkpt>
      <trkpt lat="52.17978" lon="4.4808764">
        <ele>2000.0</ele>
        <time>2020-09-21T09:06:28Z</time>
      </trkpt>
      <trkpt lat="52.179752" lon="4.4809003">
        <ele>2000.0</ele>
        <time>2020-09-21T09:06:29Z</time>
      </trkpt>
      <trkpt lat="52.179733" lon="4.480918">
        <ele>2000.0</ele>
        <time>2020-09-21T09:06:30Z</time>
      </trkpt>
      <trkpt lat="52.17971" lon="4.480932">
        <ele>2000.0</ele>
        <time>2020-09-21T09:06:32Z</time>
      </trkpt>
      <trkpt lat="52.17969" lon="4.480945">
        <ele>2000.0</ele>
        <time>2020-09-21T09:06:32Z</time>
      </trkpt>
      <trkpt lat="52.179672" lon="4.4809556">
        <ele>2000.0</ele>
        <time>2020-09-21T09:06:33Z</time>
      </trkpt>
      <trkpt lat="52.17965" lon="4.4809623">
        <ele>2000.0</ele>
        <time>2020-09-21T09:06:34Z</time>
      </trkpt>
      <trkpt lat="52.179634" lon="4.4809647">
        <ele>2000.0</ele>
        <time>2020-09-21T09:06:35Z</time>
      </trkpt>
      <trkpt lat="52.179615" lon="4.4809647">
        <ele>2000.0</ele>
        <time>2020-09-21T09:06:36Z</time>
      </trkpt>
      <trkpt lat="52.179596" lon="4.480964">
        <ele>2000.0</ele>
        <time>2020-09-21T09:06:37Z</time>
      </trkpt>
      <trkpt lat="52.17958" lon="4.4809613">
        <ele>2000.0</ele>
        <time>2020-09-21T09:06:38Z</time>
      </trkpt>
      <trkpt lat="52.179558" lon="4.4809556">
        <ele>2000.0</ele>
        <time>2020-09-21T09:06:39Z</time>
      </trkpt>
      <trkpt lat="52.179546" lon="4.480948">
        <ele>2000.0</ele>
        <time>2020-09-21T09:06:40Z</time>
      </trkpt>
      <trkpt lat="52.179527" lon="4.4809365">
        <ele>2000.0</ele>
        <time>2020-09-21T09:06:41Z</time>
      </trkpt>
      <trkpt lat="52.179512" lon="4.48092">
        <ele>2000.0</ele>
        <time>2020-09-21T09:06:42Z</time>
      </trkpt>
      <trkpt lat="52.179485" lon="4.480898">
        <ele>2000.0</ele>
        <time>2020-09-21T09:06:43Z</time>
      </trkpt>
      <trkpt lat="52.179466" lon="4.480879">
        <ele>2000.0</ele>
        <time>2020-09-21T09:06:44Z</time>
      </trkpt>
      <trkpt lat="52.179447" lon="4.4808607">
        <ele>2000.0</ele>
        <time>2020-09-21T09:06:45Z</time>
      </trkpt>
      <trkpt lat="52.17942" lon="4.480844">
        <ele>2000.0</ele>
        <time>2020-09-21T09:06:46Z</time>
      </trkpt>
      <trkpt lat="52.17939" lon="4.480831">
        <ele>2000.0</ele>
        <time>2020-09-21T09:06:47Z</time>
      </trkpt>
      <trkpt lat="52.179363" lon="4.4808197">
        <ele>2000.0</ele>
        <time>2020-09-21T09:06:48Z</time>
      </trkpt>
      <trkpt lat="52.179337" lon="4.480807">
        <ele>2000.0</ele>
        <time>2020-09-21T09:06:49Z</time>
      </trkpt>
      <trkpt lat="52.179306" lon="4.48079">
        <ele>2000.0</ele>
        <time>2020-09-21T09:06:50Z</time>
      </trkpt>
      <trkpt lat="52.179276" lon="4.480773">
        <ele>2000.0</ele>
        <time>2020-09-21T09:06:51Z</time>
      </trkpt>
      <trkpt lat="52.179245" lon="4.4807577">
        <ele>2000.0</ele>
        <time>2020-09-21T09:06:52Z</time>
      </trkpt>
      <trkpt lat="52.179222" lon="4.4807525">
        <ele>2000.0</ele>
        <time>2020-09-21T09:06:53Z</time>
      </trkpt>
      <trkpt lat="52.179195" lon="4.480756">
        <ele>2000.0</ele>
        <time>2020-09-21T09:06:54Z</time>
      </trkpt>
      <trkpt lat="52.17917" lon="4.4807625">
        <ele>2000.0</ele>
        <time>2020-09-21T09:06:55Z</time>
      </trkpt>
      <trkpt lat="52.179142" lon="4.480774">
        <ele>2000.0</ele>
        <time>2020-09-21T09:06:56Z</time>
      </trkpt>
      <trkpt lat="52.179123" lon="4.480786">
        <ele>2000.0</ele>
        <time>2020-09-21T09:06:57Z</time>
      </trkpt>
      <trkpt lat="52.179104" lon="4.480801">
        <ele>2000.0</ele>
        <time>2020-09-21T09:06:58Z</time>
      </trkpt>
      <trkpt lat="52.17908" lon="4.4808187">
        <ele>2000.0</ele>
        <time>2020-09-21T09:07:00Z</time>
      </trkpt>
      <trkpt lat="52.17906" lon="4.480839">
        <ele>2000.0</ele>
        <time>2020-09-21T09:07:00Z</time>
      </trkpt>
      <trkpt lat="52.179035" lon="4.4808598">
        <ele>2000.0</ele>
        <time>2020-09-21T09:07:01Z</time>
      </trkpt>
      <trkpt lat="52.179012" lon="4.4808865">
        <ele>2000.0</ele>
        <time>2020-09-21T09:07:02Z</time>
      </trkpt>
      <trkpt lat="52.178978" lon="4.480916">
        <ele>2000.0</ele>
        <time>2020-09-21T09:07:03Z</time>
      </trkpt>
      <trkpt lat="52.178947" lon="4.480947">
        <ele>2000.0</ele>
        <time>2020-09-21T09:07:04Z</time>
      </trkpt>
      <trkpt lat="52.178925" lon="4.480975">
        <ele>2000.0</ele>
        <time>2020-09-21T09:07:05Z</time>
      </trkpt>
      <trkpt lat="52.178894" lon="4.4809976">
        <ele>2000.0</ele>
        <time>2020-09-21T09:07:06Z</time>
      </trkpt>
      <trkpt lat="52.178864" lon="4.4810166">
        <ele>2000.0</ele>
        <time>2020-09-21T09:07:07Z</time>
      </trkpt>
      <trkpt lat="52.178825" lon="4.481036">
        <ele>2000.0</ele>
        <time>2020-09-21T09:07:08Z</time>
      </trkpt>
      <trkpt lat="52.178783" lon="4.481057">
        <ele>2000.0</ele>
        <time>2020-09-21T09:07:09Z</time>
      </trkpt>
      <trkpt lat="52.178745" lon="4.4810734">
        <ele>2000.0</ele>
        <time>2020-09-21T09:07:11Z</time>
      </trkpt>
      <trkpt lat="52.1787" lon="4.4810853">
        <ele>2000.0</ele>
        <time>2020-09-21T09:07:11Z</time>
      </trkpt>
      <trkpt lat="52.178658" lon="4.481092">
        <ele>2000.0</ele>
        <time>2020-09-21T09:07:12Z</time>
      </trkpt>
      <trkpt lat="52.178623" lon="4.4810963">
        <ele>2000.0</ele>
        <time>2020-09-21T09:07:13Z</time>
      </trkpt>
      <trkpt lat="52.17858" lon="4.481097">
        <ele>2000.0</ele>
        <time>2020-09-21T09:07:14Z</time>
      </trkpt>
      <trkpt lat="52.17855" lon="4.4810944">
        <ele>2000.0</ele>
        <time>2020-09-21T09:07:15Z</time>
      </trkpt>
      <trkpt lat="52.178513" lon="4.481087">
        <ele>2000.0</ele>
        <time>2020-09-21T09:07:16Z</time>
      </trkpt>
      <trkpt lat="52.17849" lon="4.4810767">
        <ele>2000.0</ele>
        <time>2020-09-21T09:07:17Z</time>
      </trkpt>
      <trkpt lat="52.17846" lon="4.481065">
        <ele>2000.0</ele>
        <time>2020-09-21T09:07:18Z</time>
      </trkpt>
      <trkpt lat="52.178432" lon="4.481051">
        <ele>2000.0</ele>
        <time>2020-09-21T09:07:19Z</time>
      </trkpt>
      <trkpt lat="52.178406" lon="4.4810357">
        <ele>2000.0</ele>
        <time>2020-09-21T09:07:20Z</time>
      </trkpt>
      <trkpt lat="52.178387" lon="4.481015">
        <ele>2000.0</ele>
        <time>2020-09-21T09:07:21Z</time>
      </trkpt>
      <trkpt lat="52.17836" lon="4.480988">
        <ele>2000.0</ele>
        <time>2020-09-21T09:07:22Z</time>
      </trkpt>
      <trkpt lat="52.17834" lon="4.48096">
        <ele>2000.0</ele>
        <time>2020-09-21T09:07:23Z</time>
      </trkpt>
      <trkpt lat="52.178314" lon="4.480933">
        <ele>2000.0</ele>
        <time>2020-09-21T09:07:24Z</time>
      </trkpt>
      <trkpt lat="52.178284" lon="4.4809074">
        <ele>2000.0</ele>
        <time>2020-09-21T09:07:25Z</time>
      </trkpt>
      <trkpt lat="52.178257" lon="4.480882">
        <ele>2000.0</ele>
        <time>2020-09-21T09:07:26Z</time>
      </trkpt>
      <trkpt lat="52.178234" lon="4.4808507">
        <ele>2000.0</ele>
        <time>2020-09-21T09:07:27Z</time>
      </trkpt>
      <trkpt lat="52.178207" lon="4.4808145">
        <ele>2000.0</ele>
        <time>2020-09-21T09:07:28Z</time>
      </trkpt>
      <trkpt lat="52.178192" lon="4.48078">
        <ele>2000.0</ele>
        <time>2020-09-21T09:07:29Z</time>
      </trkpt>
      <trkpt lat="52.17818" lon="4.48075">
        <ele>2000.0</ele>
        <time>2020-09-21T09:07:30Z</time>
      </trkpt>
      <trkpt lat="52.178177" lon="4.480723">
        <ele>2000.0</ele>
        <time>2020-09-21T09:07:32Z</time>
      </trkpt>
      <trkpt lat="52.178177" lon="4.480697">
        <ele>2000.0</ele>
        <time>2020-09-21T09:07:32Z</time>
      </trkpt>
      <trkpt lat="52.178177" lon="4.480672">
        <ele>2000.0</ele>
        <time>2020-09-21T09:07:33Z</time>
      </trkpt>
      <trkpt lat="52.178177" lon="4.4806476">
        <ele>2000.0</ele>
        <time>2020-09-21T09:07:34Z</time>
      </trkpt>
      <trkpt lat="52.17818" lon="4.480625">
        <ele>2000.0</ele>
        <time>2020-09-21T09:07:35Z</time>
      </trkpt>
      <trkpt lat="52.178192" lon="4.4806056">
        <ele>2000.0</ele>
        <time>2020-09-21T09:07:36Z</time>
      </trkpt>
      <trkpt lat="52.178196" lon="4.480588">
        <ele>2000.0</ele>
        <time>2020-09-21T09:07:37Z</time>
      </trkpt>
      <trkpt lat="52.17821" lon="4.4805694">
        <ele>2000.0</ele>
        <time>2020-09-21T09:07:38Z</time>
      </trkpt>
      <trkpt lat="52.178223" lon="4.4805517">
        <ele>2000.0</ele>
        <time>2020-09-21T09:07:39Z</time>
      </trkpt>
      <trkpt lat="52.178234" lon="4.4805326">
        <ele>2000.0</ele>
        <time>2020-09-21T09:07:40Z</time>
      </trkpt>
      <trkpt lat="52.17825" lon="4.48051">
        <ele>2000.0</ele>
        <time>2020-09-21T09:07:41Z</time>
      </trkpt>
      <trkpt lat="52.178265" lon="4.4804907">
        <ele>2000.0</ele>
        <time>2020-09-21T09:07:42Z</time>
      </trkpt>
      <trkpt lat="52.17828" lon="4.4804645">
        <ele>2000.0</ele>
        <time>2020-09-21T09:07:43Z</time>
      </trkpt>
      <trkpt lat="52.1783" lon="4.4804363">
        <ele>2000.0</ele>
        <time>2020-09-21T09:07:44Z</time>
      </trkpt>
      <trkpt lat="52.178326" lon="4.4804087">
        <ele>2000.0</ele>
        <time>2020-09-21T09:07:45Z</time>
      </trkpt>
      <trkpt lat="52.178345" lon="4.480382">
        <ele>2000.0</ele>
        <time>2020-09-21T09:07:46Z</time>
      </trkpt>
      <trkpt lat="52.17837" lon="4.480353">
        <ele>2000.0</ele>
        <time>2020-09-21T09:07:47Z</time>
      </trkpt>
      <trkpt lat="52.178387" lon="4.480325">
        <ele>2000.0</ele>
        <time>2020-09-21T09:07:48Z</time>
      </trkpt>
      <trkpt lat="52.178402" lon="4.480297">
        <ele>2000.0</ele>
        <time>2020-09-21T09:07:49Z</time>
      </trkpt>
      <trkpt lat="52.178417" lon="4.4802637">
        <ele>2000.0</ele>
        <time>2020-09-21T09:07:50Z</time>
      </trkpt>
      <trkpt lat="52.17842" lon="4.4802284">
        <ele>2000.0</ele>
        <time>2020-09-21T09:07:51Z</time>
      </trkpt>
      <trkpt lat="52.178432" lon="4.4801965">
        <ele>2000.0</ele>
        <time>2020-09-21T09:07:52Z</time>
      </trkpt>
      <trkpt lat="52.178436" lon="4.4801645">
        <ele>2000.0</ele>
        <time>2020-09-21T09:07:53Z</time>
      </trkpt>
      <trkpt lat="52.178448" lon="4.4801335">
        <ele>2000.0</ele>
        <time>2020-09-21T09:07:54Z</time>
      </trkpt>
      <trkpt lat="52.17846" lon="4.480104">
        <ele>2000.0</ele>
        <time>2020-09-21T09:07:55Z</time>
      </trkpt>
      <trkpt lat="52.178467" lon="4.480076">
        <ele>2000.0</ele>
        <time>2020-09-21T09:07:56Z</time>
      </trkpt>
      <trkpt lat="52.17848" lon="4.4800487">
        <ele>2000.0</ele>
        <time>2020-09-21T09:07:57Z</time>
      </trkpt>
      <trkpt lat="52.178482" lon="4.480022">
        <ele>2000.0</ele>
        <time>2020-09-21T09:07:58Z</time>
      </trkpt>
      <trkpt lat="52.178493" lon="4.4799957">
        <ele>2000.0</ele>
        <time>2020-09-21T09:08:00Z</time>
      </trkpt>
      <trkpt lat="52.17851" lon="4.479971">
        <ele>2000.0</ele>
        <time>2020-09-21T09:08:00Z</time>
      </trkpt>
      <trkpt lat="52.17852" lon="4.479946">
        <ele>2000.0</ele>
        <time>2020-09-21T09:08:01Z</time>
      </trkpt>
      <trkpt lat="52.178528" lon="4.47992">
        <ele>2000.0</ele>
        <time>2020-09-21T09:08:02Z</time>
      </trkpt>
      <trkpt lat="52.178543" lon="4.4798894">
        <ele>2000.0</ele>
        <time>2020-09-21T09:08:03Z</time>
      </trkpt>
      <trkpt lat="52.17856" lon="4.479858">
        <ele>2000.0</ele>
        <time>2020-09-21T09:08:04Z</time>
      </trkpt>
      <trkpt lat="52.17858" lon="4.4798274">
        <ele>2000.0</ele>
        <time>2020-09-21T09:08:05Z</time>
      </trkpt>
      <trkpt lat="52.1786" lon="4.4797955">
        <ele>2000.0</ele>
        <time>2020-09-21T09:08:06Z</time>
      </trkpt>
      <trkpt lat="52.178623" lon="4.479764">
        <ele>2000.0</ele>
        <time>2020-09-21T09:08:07Z</time>
      </trkpt>
      <trkpt lat="52.178642" lon="4.479733">
        <ele>2000.0</ele>
        <time>2020-09-21T09:08:08Z</time>
      </trkpt>
      <trkpt lat="52.17866" lon="4.479706">
        <ele>2000.0</ele>
        <time>2020-09-21T09:08:09Z</time>
      </trkpt>
      <trkpt lat="52.178684" lon="4.4796753">
        <ele>2000.0</ele>
        <time>2020-09-21T09:08:11Z</time>
      </trkpt>
      <trkpt lat="52.178707" lon="4.4796457">
        <ele>2000.0</ele>
        <time>2020-09-21T09:08:11Z</time>
      </trkpt>
      <trkpt lat="52.178722" lon="4.479619">
        <ele>2000.0</ele>
        <time>2020-09-21T09:08:12Z</time>
      </trkpt>
      <trkpt lat="52.178745" lon="4.479591">
        <ele>2000.0</ele>
        <time>2020-09-21T09:08:13Z</time>
      </trkpt>
      <trkpt lat="52.178753" lon="4.479564">
        <ele>2000.0</ele>
        <time>2020-09-21T09:08:14Z</time>
      </trkpt>
      <trkpt lat="52.178764" lon="4.4795394">
        <ele>2000.0</ele>
        <time>2020-09-21T09:08:15Z</time>
      </trkpt>
      <trkpt lat="52.17877" lon="4.4795165">
        <ele>2000.0</ele>
        <time>2020-09-21T09:08:16Z</time>
      </trkpt>
      <trkpt lat="52.17877" lon="4.479493">
        <ele>2000.0</ele>
        <time>2020-09-21T09:08:17Z</time>
      </trkpt>
      <trkpt lat="52.178764" lon="4.47947">
        <ele>2000.0</ele>
        <time>2020-09-21T09:08:18Z</time>
      </trkpt>
      <trkpt lat="52.17876" lon="4.479447">
        <ele>2000.0</ele>
        <time>2020-09-21T09:08:19Z</time>
      </trkpt>
      <trkpt lat="52.178753" lon="4.479427">
        <ele>2000.0</ele>
        <time>2020-09-21T09:08:20Z</time>
      </trkpt>
      <trkpt lat="52.17875" lon="4.4794097">
        <ele>2000.0</ele>
        <time>2020-09-21T09:08:21Z</time>
      </trkpt>
      <trkpt lat="52.178738" lon="4.4793944">
        <ele>2000.0</ele>
        <time>2020-09-21T09:08:22Z</time>
      </trkpt>
      <trkpt lat="52.178722" lon="4.4793825">
        <ele>2000.0</ele>
        <time>2020-09-21T09:08:23Z</time>
      </trkpt>
      <trkpt lat="52.178707" lon="4.479375">
        <ele>2000.0</ele>
        <time>2020-09-21T09:08:24Z</time>
      </trkpt>
      <trkpt lat="52.1787" lon="4.479372">
        <ele>2000.0</ele>
        <time>2020-09-21T09:08:25Z</time>
      </trkpt>
      <trkpt lat="52.178684" lon="4.479376">
        <ele>2000.0</ele>
        <time>2020-09-21T09:08:26Z</time>
      </trkpt>
      <trkpt lat="52.17867" lon="4.479384">
        <ele>2000.0</ele>
        <time>2020-09-21T09:08:27Z</time>
      </trkpt>
      <trkpt lat="52.178658" lon="4.4793944">
        <ele>2000.0</ele>
        <time>2020-09-21T09:08:28Z</time>
      </trkpt>
      <trkpt lat="52.178646" lon="4.479407">
        <ele>2000.0</ele>
        <time>2020-09-21T09:08:29Z</time>
      </trkpt>
      <trkpt lat="52.17864" lon="4.479421">
        <ele>2000.0</ele>
        <time>2020-09-21T09:08:30Z</time>
      </trkpt>
      <trkpt lat="52.178627" lon="4.479437">
        <ele>2000.0</ele>
        <time>2020-09-21T09:08:32Z</time>
      </trkpt>
      <trkpt lat="52.178616" lon="4.4794555">
        <ele>2000.0</ele>
        <time>2020-09-21T09:08:32Z</time>
      </trkpt>
      <trkpt lat="52.1786" lon="4.479475">
        <ele>2000.0</ele>
        <time>2020-09-21T09:08:33Z</time>
      </trkpt>
      <trkpt lat="52.178585" lon="4.479495">
        <ele>2000.0</ele>
        <time>2020-09-21T09:08:34Z</time>
      </trkpt>
      <trkpt lat="52.17857" lon="4.479515">
        <ele>2000.0</ele>
        <time>2020-09-21T09:08:35Z</time>
      </trkpt>
      <trkpt lat="52.178555" lon="4.4795394">
        <ele>2000.0</ele>
        <time>2020-09-21T09:08:36Z</time>
      </trkpt>
      <trkpt lat="52.17854" lon="4.4795637">
        <ele>2000.0</ele>
        <time>2020-09-21T09:08:37Z</time>
      </trkpt>
      <trkpt lat="52.17852" lon="4.479591">
        <ele>2000.0</ele>
        <time>2020-09-21T09:08:38Z</time>
      </trkpt>
      <trkpt lat="52.178505" lon="4.4796185">
        <ele>2000.0</ele>
        <time>2020-09-21T09:08:39Z</time>
      </trkpt>
      <trkpt lat="52.178482" lon="4.479647">
        <ele>2000.0</ele>
        <time>2020-09-21T09:08:40Z</time>
      </trkpt>
      <trkpt lat="52.178463" lon="4.4796777">
        <ele>2000.0</ele>
        <time>2020-09-21T09:08:41Z</time>
      </trkpt>
      <trkpt lat="52.178444" lon="4.479704">
        <ele>2000.0</ele>
        <time>2020-09-21T09:08:42Z</time>
      </trkpt>
      <trkpt lat="52.17842" lon="4.479728">
        <ele>2000.0</ele>
        <time>2020-09-21T09:08:43Z</time>
      </trkpt>
      <trkpt lat="52.178402" lon="4.47975">
        <ele>2000.0</ele>
        <time>2020-09-21T09:08:44Z</time>
      </trkpt>
      <trkpt lat="52.17838" lon="4.479772">
        <ele>2000.0</ele>
        <time>2020-09-21T09:08:45Z</time>
      </trkpt>
      <trkpt lat="52.17836" lon="4.4797945">
        <ele>2000.0</ele>
        <time>2020-09-21T09:08:46Z</time>
      </trkpt>
      <trkpt lat="52.17834" lon="4.479817">
        <ele>2000.0</ele>
        <time>2020-09-21T09:08:47Z</time>
      </trkpt>
      <trkpt lat="52.178318" lon="4.479838">
        <ele>2000.0</ele>
        <time>2020-09-21T09:08:48Z</time>
      </trkpt>
      <trkpt lat="52.178295" lon="4.479862">
        <ele>2000.0</ele>
        <time>2020-09-21T09:08:49Z</time>
      </trkpt>
      <trkpt lat="52.17827" lon="4.4798856">
        <ele>2000.0</ele>
        <time>2020-09-21T09:08:51Z</time>
      </trkpt>
      <trkpt lat="52.17824" lon="4.479904">
        <ele>2000.0</ele>
        <time>2020-09-21T09:08:51Z</time>
      </trkpt>
      <trkpt lat="52.178223" lon="4.4799166">
        <ele>2000.0</ele>
        <time>2020-09-21T09:08:52Z</time>
      </trkpt>
      <trkpt lat="52.178207" lon="4.4799256">
        <ele>2000.0</ele>
        <time>2020-09-21T09:08:53Z</time>
      </trkpt>
      <trkpt lat="52.178192" lon="4.4799285">
        <ele>2000.0</ele>
        <time>2020-09-21T09:08:54Z</time>
      </trkpt>
      <trkpt lat="52.178177" lon="4.4799266">
        <ele>2000.0</ele>
        <time>2020-09-21T09:08:55Z</time>
      </trkpt>
      <trkpt lat="52.17816" lon="4.4799223">
        <ele>2000.0</ele>
        <time>2020-09-21T09:08:56Z</time>
      </trkpt>
      <trkpt lat="52.178146" lon="4.4799175">
        <ele>2000.0</ele>
        <time>2020-09-21T09:08:57Z</time>
      </trkpt>
      <trkpt lat="52.178135" lon="4.479912">
        <ele>2000.0</ele>
        <time>2020-09-21T09:08:58Z</time>
      </trkpt>
      <trkpt lat="52.17812" lon="4.479903">
        <ele>2000.0</ele>
        <time>2020-09-21T09:08:59Z</time>
      </trkpt>
      <trkpt lat="52.178104" lon="4.479893">
        <ele>2000.0</ele>
        <time>2020-09-21T09:09:01Z</time>
      </trkpt>
      <trkpt lat="52.178093" lon="4.479882">
        <ele>2000.0</ele>
        <time>2020-09-21T09:09:01Z</time>
      </trkpt>
      <trkpt lat="52.178078" lon="4.47987">
        <ele>2000.0</ele>
        <time>2020-09-21T09:09:02Z</time>
      </trkpt>
      <trkpt lat="52.17806" lon="4.4798594">
        <ele>2000.0</ele>
        <time>2020-09-21T09:09:03Z</time>
      </trkpt>
      <trkpt lat="52.178032" lon="4.479848">
        <ele>2000.0</ele>
        <time>2020-09-21T09:09:04Z</time>
      </trkpt>
      <trkpt lat="52.178005" lon="4.479839">
        <ele>2000.0</ele>
        <time>2020-09-21T09:09:05Z</time>
      </trkpt>
      <trkpt lat="52.177975" lon="4.4798346">
        <ele>2000.0</ele>
        <time>2020-09-21T09:09:06Z</time>
      </trkpt>
      <trkpt lat="52.17795" lon="4.479837">
        <ele>2000.0</ele>
        <time>2020-09-21T09:09:07Z</time>
      </trkpt>
      <trkpt lat="52.177925" lon="4.479844">
        <ele>2100.0</ele>
        <time>2020-09-21T09:09:08Z</time>
      </trkpt>
      <trkpt lat="52.177906" lon="4.4798527">
        <ele>2100.0</ele>
        <time>2020-09-21T09:09:09Z</time>
      </trkpt>
      <trkpt lat="52.17788" lon="4.479863">
        <ele>2100.0</ele>
        <time>2020-09-21T09:09:11Z</time>
      </trkpt>
      <trkpt lat="52.177853" lon="4.479876">
        <ele>2100.0</ele>
        <time>2020-09-21T09:09:11Z</time>
      </trkpt>
      <trkpt lat="52.177834" lon="4.4798937">
        <ele>2100.0</ele>
        <time>2020-09-21T09:09:12Z</time>
      </trkpt>
      <trkpt lat="52.17781" lon="4.4799166">
        <ele>2100.0</ele>
        <time>2020-09-21T09:09:13Z</time>
      </trkpt>
      <trkpt lat="52.177795" lon="4.4799447">
        <ele>2100.0</ele>
        <time>2020-09-21T09:09:14Z</time>
      </trkpt>
      <trkpt lat="52.177776" lon="4.479975">
        <ele>2100.0</ele>
        <time>2020-09-21T09:09:15Z</time>
      </trkpt>
      <trkpt lat="52.177757" lon="4.480008">
        <ele>2100.0</ele>
        <time>2020-09-21T09:09:16Z</time>
      </trkpt>
      <trkpt lat="52.177734" lon="4.480042">
        <ele>2100.0</ele>
        <time>2020-09-21T09:09:17Z</time>
      </trkpt>
      <trkpt lat="52.177715" lon="4.4800754">
        <ele>2100.0</ele>
        <time>2020-09-21T09:09:18Z</time>
      </trkpt>
      <trkpt lat="52.17769" lon="4.4801054">
        <ele>2100.0</ele>
        <time>2020-09-21T09:09:19Z</time>
      </trkpt>
      <trkpt lat="52.17767" lon="4.480135">
        <ele>2100.0</ele>
        <time>2020-09-21T09:09:20Z</time>
      </trkpt>
      <trkpt lat="52.177643" lon="4.480167">
        <ele>2100.0</ele>
        <time>2020-09-21T09:09:22Z</time>
      </trkpt>
      <trkpt lat="52.177624" lon="4.480198">
        <ele>2100.0</ele>
        <time>2020-09-21T09:09:22Z</time>
      </trkpt>
      <trkpt lat="52.1776" lon="4.4802265">
        <ele>2100.0</ele>
        <time>2020-09-21T09:09:23Z</time>
      </trkpt>
      <trkpt lat="52.17758" lon="4.4802547">
        <ele>2100.0</ele>
        <time>2020-09-21T09:09:24Z</time>
      </trkpt>
      <trkpt lat="52.177563" lon="4.4802847">
        <ele>2100.0</ele>
        <time>2020-09-21T09:09:25Z</time>
      </trkpt>
      <trkpt lat="52.17754" lon="4.480314">
        <ele>2100.0</ele>
        <time>2020-09-21T09:09:26Z</time>
      </trkpt>
      <trkpt lat="52.177517" lon="4.480338">
        <ele>2100.0</ele>
        <time>2020-09-21T09:09:27Z</time>
      </trkpt>
      <trkpt lat="52.17749" lon="4.4803605">
        <ele>2100.0</ele>
        <time>2020-09-21T09:09:28Z</time>
      </trkpt>
      <trkpt lat="52.17746" lon="4.4803867">
        <ele>2100.0</ele>
        <time>2020-09-21T09:09:29Z</time>
      </trkpt>
      <trkpt lat="52.177433" lon="4.4804125">
        <ele>2100.0</ele>
        <time>2020-09-21T09:09:30Z</time>
      </trkpt>
      <trkpt lat="52.177402" lon="4.480437">
        <ele>2100.0</ele>
        <time>2020-09-21T09:09:32Z</time>
      </trkpt>
      <trkpt lat="52.177376" lon="4.4804626">
        <ele>2100.0</ele>
        <time>2020-09-21T09:09:32Z</time>
      </trkpt>
      <trkpt lat="52.177353" lon="4.480487">
        <ele>2100.0</ele>
        <time>2020-09-21T09:09:33Z</time>
      </trkpt>
      <trkpt lat="52.177326" lon="4.4805098">
        <ele>2100.0</ele>
        <time>2020-09-21T09:09:34Z</time>
      </trkpt>
      <trkpt lat="52.1773" lon="4.480534">
        <ele>2100.0</ele>
        <time>2020-09-21T09:09:35Z</time>
      </trkpt>
      <trkpt lat="52.177277" lon="4.480559">
        <ele>2100.0</ele>
        <time>2020-09-21T09:09:36Z</time>
      </trkpt>
      <trkpt lat="52.17725" lon="4.4805827">
        <ele>2100.0</ele>
        <time>2020-09-21T09:09:37Z</time>
      </trkpt>
      <trkpt lat="52.177227" lon="4.480607">
        <ele>2100.0</ele>
        <time>2020-09-21T09:09:38Z</time>
      </trkpt>
      <trkpt lat="52.177197" lon="4.4806323">
        <ele>2100.0</ele>
        <time>2020-09-21T09:09:39Z</time>
      </trkpt>
      <trkpt lat="52.177174" lon="4.480654">
        <ele>2100.0</ele>
        <time>2020-09-21T09:09:40Z</time>
      </trkpt>
      <trkpt lat="52.17715" lon="4.480673">
        <ele>2100.0</ele>
        <time>2020-09-21T09:09:41Z</time>
      </trkpt>
      <trkpt lat="52.17713" lon="4.48069">
        <ele>2100.0</ele>
        <time>2020-09-21T09:09:42Z</time>
      </trkpt>
      <trkpt lat="52.177116" lon="4.4807067">
        <ele>2100.0</ele>
        <time>2020-09-21T09:09:43Z</time>
      </trkpt>
      <trkpt lat="52.177097" lon="4.4807205">
        <ele>2100.0</ele>
        <time>2020-09-21T09:09:44Z</time>
      </trkpt>
      <trkpt lat="52.177082" lon="4.480731">
        <ele>2100.0</ele>
        <time>2020-09-21T09:09:45Z</time>
      </trkpt>
      <trkpt lat="52.17706" lon="4.480741">
        <ele>2100.0</ele>
        <time>2020-09-21T09:09:46Z</time>
      </trkpt>
      <trkpt lat="52.17704" lon="4.480751">
        <ele>2100.0</ele>
        <time>2020-09-21T09:09:47Z</time>
      </trkpt>
      <trkpt lat="52.177013" lon="4.4807606">
        <ele>2100.0</ele>
        <time>2020-09-21T09:09:48Z</time>
      </trkpt>
      <trkpt lat="52.176983" lon="4.480776">
        <ele>2100.0</ele>
        <time>2020-09-21T09:09:49Z</time>
      </trkpt>
      <trkpt lat="52.176952" lon="4.4807925">
        <ele>2100.0</ele>
        <time>2020-09-21T09:09:51Z</time>
      </trkpt>
      <trkpt lat="52.17692" lon="4.4808106">
        <ele>2100.0</ele>
        <time>2020-09-21T09:09:51Z</time>
      </trkpt>
      <trkpt lat="52.17689" lon="4.480832">
        <ele>2100.0</ele>
        <time>2020-09-21T09:09:52Z</time>
      </trkpt>
      <trkpt lat="52.176853" lon="4.480859">
        <ele>2100.0</ele>
        <time>2020-09-21T09:09:53Z</time>
      </trkpt>
      <trkpt lat="52.176823" lon="4.4808874">
        <ele>2100.0</ele>
        <time>2020-09-21T09:09:54Z</time>
      </trkpt>
      <trkpt lat="52.1768" lon="4.4809146">
        <ele>2100.0</ele>
        <time>2020-09-21T09:09:55Z</time>
      </trkpt>
      <trkpt lat="52.17677" lon="4.480939">
        <ele>2100.0</ele>
        <time>2020-09-21T09:09:56Z</time>
      </trkpt>
      <trkpt lat="52.176743" lon="4.4809604">
        <ele>2100.0</ele>
        <time>2020-09-21T09:09:57Z</time>
      </trkpt>
      <trkpt lat="52.176723" lon="4.480979">
        <ele>2100.0</ele>
        <time>2020-09-21T09:09:58Z</time>
      </trkpt>
      <trkpt lat="52.176697" lon="4.4809976">
        <ele>2100.0</ele>
        <time>2020-09-21T09:09:59Z</time>
      </trkpt>
      <trkpt lat="52.176678" lon="4.481017">
        <ele>2100.0</ele>
        <time>2020-09-21T09:10:01Z</time>
      </trkpt>
      <trkpt lat="52.17666" lon="4.4810376">
        <ele>2100.0</ele>
        <time>2020-09-21T09:10:01Z</time>
      </trkpt>
      <trkpt lat="52.176643" lon="4.481057">
        <ele>2100.0</ele>
        <time>2020-09-21T09:10:02Z</time>
      </trkpt>
      <trkpt lat="52.176624" lon="4.4810824">
        <ele>2100.0</ele>
        <time>2020-09-21T09:10:03Z</time>
      </trkpt>
      <trkpt lat="52.17661" lon="4.4811106">
        <ele>2100.0</ele>
        <time>2020-09-21T09:10:04Z</time>
      </trkpt>
      <trkpt lat="52.17659" lon="4.4811397">
        <ele>2100.0</ele>
        <time>2020-09-21T09:10:05Z</time>
      </trkpt>
      <trkpt lat="52.176567" lon="4.481168">
        <ele>2100.0</ele>
        <time>2020-09-21T09:10:06Z</time>
      </trkpt>
      <trkpt lat="52.17655" lon="4.481197">
        <ele>2100.0</ele>
        <time>2020-09-21T09:10:07Z</time>
      </trkpt>
      <trkpt lat="52.176533" lon="4.4812284">
        <ele>2100.0</ele>
        <time>2020-09-21T09:10:08Z</time>
      </trkpt>
      <trkpt lat="52.176514" lon="4.4812603">
        <ele>2100.0</ele>
        <time>2020-09-21T09:10:09Z</time>
      </trkpt>
      <trkpt lat="52.17649" lon="4.481291">
        <ele>2100.0</ele>
        <time>2020-09-21T09:10:11Z</time>
      </trkpt>
      <trkpt lat="52.17647" lon="4.481322">
        <ele>2100.0</ele>
        <time>2020-09-21T09:10:11Z</time>
      </trkpt>
      <trkpt lat="52.176456" lon="4.48135">
        <ele>2100.0</ele>
        <time>2020-09-21T09:10:12Z</time>
      </trkpt>
      <trkpt lat="52.176434" lon="4.481382">
        <ele>2100.0</ele>
        <time>2020-09-21T09:10:13Z</time>
      </trkpt>
      <trkpt lat="52.176414" lon="4.481416">
        <ele>2100.0</ele>
        <time>2020-09-21T09:10:14Z</time>
      </trkpt>
      <trkpt lat="52.176395" lon="4.4814506">
        <ele>2100.0</ele>
        <time>2020-09-21T09:10:15Z</time>
      </trkpt>
      <trkpt lat="52.176373" lon="4.4814844">
        <ele>2100.0</ele>
        <time>2020-09-21T09:10:16Z</time>
      </trkpt>
      <trkpt lat="52.176353" lon="4.4815183">
        <ele>2100.0</ele>
        <time>2020-09-21T09:10:17Z</time>
      </trkpt>
      <trkpt lat="52.176334" lon="4.481552">
        <ele>2100.0</ele>
        <time>2020-09-21T09:10:18Z</time>
      </trkpt>
      <trkpt lat="52.17631" lon="4.481579">
        <ele>2100.0</ele>
        <time>2020-09-21T09:10:19Z</time>
      </trkpt>
      <trkpt lat="52.176296" lon="4.4816027">
        <ele>2100.0</ele>
        <time>2020-09-21T09:10:20Z</time>
      </trkpt>
      <trkpt lat="52.17628" lon="4.481623">
        <ele>2100.0</ele>
        <time>2020-09-21T09:10:22Z</time>
      </trkpt>
      <trkpt lat="52.17627" lon="4.481642">
        <ele>2100.0</ele>
        <time>2020-09-21T09:10:22Z</time>
      </trkpt>
      <trkpt lat="52.176254" lon="4.481657">
        <ele>2100.0</ele>
        <time>2020-09-21T09:10:23Z</time>
      </trkpt>
      <trkpt lat="52.176247" lon="4.4816704">
        <ele>2100.0</ele>
        <time>2020-09-21T09:10:24Z</time>
      </trkpt>
      <trkpt lat="52.176235" lon="4.4816833">
        <ele>2100.0</ele>
        <time>2020-09-21T09:10:25Z</time>
      </trkpt>
      <trkpt lat="52.17623" lon="4.481696">
        <ele>2100.0</ele>
        <time>2020-09-21T09:10:26Z</time>
      </trkpt>
      <trkpt lat="52.17622" lon="4.48171">
        <ele>2100.0</ele>
        <time>2020-09-21T09:10:26Z</time>
      </trkpt>
      <trkpt lat="52.176216" lon="4.4817224">
        <ele>2100.0</ele>
        <time>2020-09-21T09:10:27Z</time>
      </trkpt>
      <trkpt lat="52.17621" lon="4.4817348">
        <ele>2100.0</ele>
        <time>2020-09-21T09:10:28Z</time>
      </trkpt>
      <trkpt lat="52.176205" lon="4.48175">
        <ele>2100.0</ele>
        <time>2020-09-21T09:10:29Z</time>
      </trkpt>
      <trkpt lat="52.176193" lon="4.481766">
        <ele>2100.0</ele>
        <time>2020-09-21T09:10:31Z</time>
      </trkpt>
      <trkpt lat="52.17619" lon="4.481781">
        <ele>2100.0</ele>
        <time>2020-09-21T09:10:31Z</time>
      </trkpt>
      <trkpt lat="52.176186" lon="4.4817934">
        <ele>2100.0</ele>
        <time>2020-09-21T09:10:32Z</time>
      </trkpt>
      <trkpt lat="52.176178" lon="4.4818053">
        <ele>2100.0</ele>
        <time>2020-09-21T09:10:33Z</time>
      </trkpt>
      <trkpt lat="52.176174" lon="4.4818144">
        <ele>2100.0</ele>
        <time>2020-09-21T09:10:34Z</time>
      </trkpt>
      <trkpt lat="52.176163" lon="4.4818306">
        <ele>2100.0</ele>
        <time>2020-09-21T09:10:36Z</time>
      </trkpt>
      <trkpt lat="52.17616" lon="4.4818273">
        <ele>2100.0</ele>
        <time>2020-09-21T09:10:39Z</time>
      </trkpt>
      <trkpt lat="52.17616" lon="4.4818277">
        <ele>2100.0</ele>
        <time>2020-09-21T09:10:40Z</time>
      </trkpt>
      <trkpt lat="52.176155" lon="4.4818354">
        <ele>2100.0</ele>
        <time>2020-09-21T09:10:43Z</time>
      </trkpt>
      <trkpt lat="52.176155" lon="4.4818373">
        <ele>2100.0</ele>
        <time>2020-09-21T09:10:45Z</time>
      </trkpt>
      <trkpt lat="52.176155" lon="4.481838">
        <ele>2100.0</ele>
        <time>2020-09-21T09:10:46Z</time>
      </trkpt>
      <trkpt lat="52.176147" lon="4.4818406">
        <ele>2100.0</ele>
        <time>2020-09-21T09:10:47Z</time>
      </trkpt>
      <trkpt lat="52.176147" lon="4.4818387">
        <ele>2100.0</ele>
        <time>2020-09-21T09:10:49Z</time>
      </trkpt>
      <trkpt lat="52.176147" lon="4.4818397">
        <ele>2100.0</ele>
        <time>2020-09-21T09:10:50Z</time>
      </trkpt>
      <trkpt lat="52.176144" lon="4.4818416">
        <ele>2100.0</ele>
        <time>2020-09-21T09:10:52Z</time>
      </trkpt>
      <trkpt lat="52.176144" lon="4.481844">
        <ele>2100.0</ele>
        <time>2020-09-21T09:10:52Z</time>
      </trkpt>
      <trkpt lat="52.176144" lon="4.4818444">
        <ele>2100.0</ele>
        <time>2020-09-21T09:10:53Z</time>
      </trkpt>
      <trkpt lat="52.17614" lon="4.481846">
        <ele>2100.0</ele>
        <time>2020-09-21T09:10:54Z</time>
      </trkpt>
      <trkpt lat="52.17614" lon="4.4818444">
        <ele>2100.0</ele>
        <time>2020-09-21T09:10:55Z</time>
      </trkpt>
      <trkpt lat="52.17614" lon="4.481839">
        <ele>2100.0</ele>
        <time>2020-09-21T09:10:56Z</time>
      </trkpt>
      <trkpt lat="52.17614" lon="4.481835">
        <ele>2100.0</ele>
        <time>2020-09-21T09:10:57Z</time>
      </trkpt>
      <trkpt lat="52.176132" lon="4.4818316">
        <ele>2100.0</ele>
        <time>2020-09-21T09:10:58Z</time>
      </trkpt>
      <trkpt lat="52.176132" lon="4.4818277">
        <ele>2100.0</ele>
        <time>2020-09-21T09:10:59Z</time>
      </trkpt>
      <trkpt lat="52.176132" lon="4.4818225">
        <ele>2100.0</ele>
        <time>2020-09-21T09:11:00Z</time>
      </trkpt>
      <trkpt lat="52.17613" lon="4.481818">
        <ele>2100.0</ele>
        <time>2020-09-21T09:11:01Z</time>
      </trkpt>
      <trkpt lat="52.17613" lon="4.481816">
        <ele>2100.0</ele>
        <time>2020-09-21T09:11:03Z</time>
      </trkpt>
      <trkpt lat="52.176125" lon="4.481816">
        <ele>2100.0</ele>
        <time>2020-09-21T09:11:03Z</time>
      </trkpt>
      <trkpt lat="52.176117" lon="4.481817">
        <ele>2100.0</ele>
        <time>2020-09-21T09:11:04Z</time>
      </trkpt>
      <trkpt lat="52.176117" lon="4.4818196">
        <ele>2100.0</ele>
        <time>2020-09-21T09:11:05Z</time>
      </trkpt>
      <trkpt lat="52.176117" lon="4.4818225">
        <ele>2100.0</ele>
        <time>2020-09-21T09:11:06Z</time>
      </trkpt>
      <trkpt lat="52.176113" lon="4.4818234">
        <ele>2100.0</ele>
        <time>2020-09-21T09:11:07Z</time>
      </trkpt>
      <trkpt lat="52.176113" lon="4.4818225">
        <ele>2100.0</ele>
        <time>2020-09-21T09:11:08Z</time>
      </trkpt>
      <trkpt lat="52.17611" lon="4.481822">
        <ele>2100.0</ele>
        <time>2020-09-21T09:11:09Z</time>
      </trkpt>
      <trkpt lat="52.17611" lon="4.4818225">
        <ele>2100.0</ele>
        <time>2020-09-21T09:11:10Z</time>
      </trkpt>
      <trkpt lat="52.1761" lon="4.4818215">
        <ele>2100.0</ele>
        <time>2020-09-21T09:11:11Z</time>
      </trkpt>
      <trkpt lat="52.1761" lon="4.481814">
        <ele>2100.0</ele>
        <time>2020-09-21T09:11:13Z</time>
      </trkpt>
      <trkpt lat="52.1761" lon="4.4818015">
        <ele>2100.0</ele>
        <time>2020-09-21T09:11:13Z</time>
      </trkpt>
      <trkpt lat="52.1761" lon="4.481787">
        <ele>2100.0</ele>
        <time>2020-09-21T09:11:14Z</time>
      </trkpt>
      <trkpt lat="52.1761" lon="4.481773">
        <ele>2100.0</ele>
        <time>2020-09-21T09:11:15Z</time>
      </trkpt>
      <trkpt lat="52.17611" lon="4.4817586">
        <ele>2100.0</ele>
        <time>2020-09-21T09:11:16Z</time>
      </trkpt>
      <trkpt lat="52.176113" lon="4.4817457">
        <ele>2100.0</ele>
        <time>2020-09-21T09:11:17Z</time>
      </trkpt>
      <trkpt lat="52.176125" lon="4.4817324">
        <ele>2100.0</ele>
        <time>2020-09-21T09:11:18Z</time>
      </trkpt>
      <trkpt lat="52.17613" lon="4.4817195">
        <ele>2100.0</ele>
        <time>2020-09-21T09:11:19Z</time>
      </trkpt>
      <trkpt lat="52.17614" lon="4.481708">
        <ele>2100.0</ele>
        <time>2020-09-21T09:11:20Z</time>
      </trkpt>
      <trkpt lat="52.17614" lon="4.481695">
        <ele>2100.0</ele>
        <time>2020-09-21T09:11:21Z</time>
      </trkpt>
      <trkpt lat="52.17614" lon="4.48168">
        <ele>2100.0</ele>
        <time>2020-09-21T09:11:22Z</time>
      </trkpt>
      <trkpt lat="52.176132" lon="4.481665">
        <ele>2100.0</ele>
        <time>2020-09-21T09:11:23Z</time>
      </trkpt>
      <trkpt lat="52.176125" lon="4.4816475">
        <ele>2100.0</ele>
        <time>2020-09-21T09:11:24Z</time>
      </trkpt>
      <trkpt lat="52.176113" lon="4.4816246">
        <ele>2100.0</ele>
        <time>2020-09-21T09:11:25Z</time>
      </trkpt>
      <trkpt lat="52.176098" lon="4.481596">
        <ele>2100.0</ele>
        <time>2020-09-21T09:11:26Z</time>
      </trkpt>
      <trkpt lat="52.176086" lon="4.481567">
        <ele>2100.0</ele>
        <time>2020-09-21T09:11:27Z</time>
      </trkpt>
      <trkpt lat="52.17607" lon="4.481537">
        <ele>2100.0</ele>
        <time>2020-09-21T09:11:28Z</time>
      </trkpt>
      <trkpt lat="52.176056" lon="4.481506">
        <ele>2100.0</ele>
        <time>2020-09-21T09:11:29Z</time>
      </trkpt>
      <trkpt lat="52.176044" lon="4.481473">
        <ele>2100.0</ele>
        <time>2020-09-21T09:11:30Z</time>
      </trkpt>
      <trkpt lat="52.176044" lon="4.481437">
        <ele>2100.0</ele>
        <time>2020-09-21T09:11:31Z</time>
      </trkpt>
      <trkpt lat="52.176044" lon="4.4814014">
        <ele>2100.0</ele>
        <time>2020-09-21T09:11:32Z</time>
      </trkpt>
      <trkpt lat="52.176052" lon="4.481368">
        <ele>2100.0</ele>
        <time>2020-09-21T09:11:33Z</time>
      </trkpt>
      <trkpt lat="52.17606" lon="4.4813323">
        <ele>2100.0</ele>
        <time>2020-09-21T09:11:34Z</time>
      </trkpt>
      <trkpt lat="52.17607" lon="4.481297">
        <ele>2100.0</ele>
        <time>2020-09-21T09:11:35Z</time>
      </trkpt>
      <trkpt lat="52.176083" lon="4.4812627">
        <ele>2100.0</ele>
        <time>2020-09-21T09:11:36Z</time>
      </trkpt>
      <trkpt lat="52.176094" lon="4.4812307">
        <ele>2100.0</ele>
        <time>2020-09-21T09:11:38Z</time>
      </trkpt>
      <trkpt lat="52.1761" lon="4.481201">
        <ele>2100.0</ele>
        <time>2020-09-21T09:11:38Z</time>
      </trkpt>
      <trkpt lat="52.176117" lon="4.4811735">
        <ele>2100.0</ele>
        <time>2020-09-21T09:11:39Z</time>
      </trkpt>
      <trkpt lat="52.176132" lon="4.4811454">
        <ele>2100.0</ele>
        <time>2020-09-21T09:11:40Z</time>
      </trkpt>
      <trkpt lat="52.176147" lon="4.481117">
        <ele>2100.0</ele>
        <time>2020-09-21T09:11:41Z</time>
      </trkpt>
      <trkpt lat="52.176163" lon="4.48109">
        <ele>2100.0</ele>
        <time>2020-09-21T09:11:42Z</time>
      </trkpt>
      <trkpt lat="52.176174" lon="4.481065">
        <ele>2100.0</ele>
        <time>2020-09-21T09:11:43Z</time>
      </trkpt>
      <trkpt lat="52.17619" lon="4.4810395">
        <ele>2100.0</ele>
        <time>2020-09-21T09:11:44Z</time>
      </trkpt>
      <trkpt lat="52.1762" lon="4.4810147">
        <ele>2100.0</ele>
        <time>2020-09-21T09:11:45Z</time>
      </trkpt>
      <trkpt lat="52.176216" lon="4.4809885">
        <ele>2100.0</ele>
        <time>2020-09-21T09:11:46Z</time>
      </trkpt>
      <trkpt lat="52.17623" lon="4.4809604">
        <ele>2100.0</ele>
        <time>2020-09-21T09:11:47Z</time>
      </trkpt>
      <trkpt lat="52.17625" lon="4.4809275">
        <ele>2100.0</ele>
        <time>2020-09-21T09:11:48Z</time>
      </trkpt>
      <trkpt lat="52.176266" lon="4.480892">
        <ele>2100.0</ele>
        <time>2020-09-21T09:11:49Z</time>
      </trkpt>
      <trkpt lat="52.17629" lon="4.4808564">
        <ele>2100.0</ele>
        <time>2020-09-21T09:11:50Z</time>
      </trkpt>
      <trkpt lat="52.176304" lon="4.480816">
        <ele>2100.0</ele>
        <time>2020-09-21T09:11:51Z</time>
      </trkpt>
      <trkpt lat="52.176327" lon="4.480769">
        <ele>2100.0</ele>
        <time>2020-09-21T09:11:52Z</time>
      </trkpt>
      <trkpt lat="52.176353" lon="4.480715">
        <ele>2100.0</ele>
        <time>2020-09-21T09:11:53Z</time>
      </trkpt>
      <trkpt lat="52.17638" lon="4.4806504">
        <ele>2100.0</ele>
        <time>2020-09-21T09:11:54Z</time>
      </trkpt>
      <trkpt lat="52.1764" lon="4.4805975">
        <ele>2100.0</ele>
        <time>2020-09-21T09:11:56Z</time>
      </trkpt>
      <trkpt lat="52.17642" lon="4.4805546">
        <ele>2100.0</ele>
        <time>2020-09-21T09:11:56Z</time>
      </trkpt>
      <trkpt lat="52.17643" lon="4.480519">
        <ele>2100.0</ele>
        <time>2020-09-21T09:11:57Z</time>
      </trkpt>
      <trkpt lat="52.17643" lon="4.480487">
        <ele>2100.0</ele>
        <time>2020-09-21T09:11:58Z</time>
      </trkpt>
      <trkpt lat="52.17643" lon="4.480455">
        <ele>2100.0</ele>
        <time>2020-09-21T09:11:59Z</time>
      </trkpt>
      <trkpt lat="52.176426" lon="4.4804215">
        <ele>2100.0</ele>
        <time>2020-09-21T09:12:00Z</time>
      </trkpt>
      <trkpt lat="52.17642" lon="4.480387">
        <ele>2100.0</ele>
        <time>2020-09-21T09:12:01Z</time>
      </trkpt>
      <trkpt lat="52.17641" lon="4.4803514">
        <ele>2100.0</ele>
        <time>2020-09-21T09:12:02Z</time>
      </trkpt>
      <trkpt lat="52.1764" lon="4.480315">
        <ele>2100.0</ele>
        <time>2020-09-21T09:12:03Z</time>
      </trkpt>
      <trkpt lat="52.176388" lon="4.4802794">
        <ele>2100.0</ele>
        <time>2020-09-21T09:12:04Z</time>
      </trkpt>
      <trkpt lat="52.176373" lon="4.4802427">
        <ele>2100.0</ele>
        <time>2020-09-21T09:12:05Z</time>
      </trkpt>
      <trkpt lat="52.176357" lon="4.4802074">
        <ele>2100.0</ele>
        <time>2020-09-21T09:12:07Z</time>
      </trkpt>
      <trkpt lat="52.176342" lon="4.480175">
        <ele>2100.0</ele>
        <time>2020-09-21T09:12:07Z</time>
      </trkpt>
      <trkpt lat="52.176327" lon="4.4801493">
        <ele>2100.0</ele>
        <time>2020-09-21T09:12:08Z</time>
      </trkpt>
      <trkpt lat="52.17631" lon="4.480133">
        <ele>2100.0</ele>
        <time>2020-09-21T09:12:09Z</time>
      </trkpt>
      <trkpt lat="52.176304" lon="4.4801235">
        <ele>2100.0</ele>
        <time>2020-09-21T09:12:10Z</time>
      </trkpt>
      <trkpt lat="52.176292" lon="4.4801207">
        <ele>2100.0</ele>
        <time>2020-09-21T09:12:11Z</time>
      </trkpt>
      <trkpt lat="52.17628" lon="4.480121">
        <ele>2100.0</ele>
        <time>2020-09-21T09:12:12Z</time>
      </trkpt>
      <trkpt lat="52.17627" lon="4.480124">
        <ele>2100.0</ele>
        <time>2020-09-21T09:12:13Z</time>
      </trkpt>
      <trkpt lat="52.17625" lon="4.480134">
        <ele>2100.0</ele>
        <time>2020-09-21T09:12:15Z</time>
      </trkpt>
      <trkpt lat="52.176247" lon="4.4801345">
        <ele>2100.0</ele>
        <time>2020-09-21T09:12:16Z</time>
      </trkpt>
      <trkpt lat="52.17624" lon="4.4801335">
        <ele>2100.0</ele>
        <time>2020-09-21T09:12:18Z</time>
      </trkpt>
      <trkpt lat="52.17624" lon="4.4801316">
        <ele>2100.0</ele>
        <time>2020-09-21T09:12:18Z</time>
      </trkpt>
      <trkpt lat="52.176235" lon="4.480129">
        <ele>2100.0</ele>
        <time>2020-09-21T09:12:19Z</time>
      </trkpt>
      <trkpt lat="52.176224" lon="4.4801216">
        <ele>2100.0</ele>
        <time>2020-09-21T09:12:20Z</time>
      </trkpt>
      <trkpt lat="52.17622" lon="4.4801126">
        <ele>2100.0</ele>
        <time>2020-09-21T09:12:21Z</time>
      </trkpt>
      <trkpt lat="52.176216" lon="4.480102">
        <ele>2100.0</ele>
        <time>2020-09-21T09:12:22Z</time>
      </trkpt>
      <trkpt lat="52.17621" lon="4.480094">
        <ele>2100.0</ele>
        <time>2020-09-21T09:12:23Z</time>
      </trkpt>
      <trkpt lat="52.1762" lon="4.480083">
        <ele>2100.0</ele>
        <time>2020-09-21T09:12:24Z</time>
      </trkpt>
      <trkpt lat="52.176193" lon="4.4800706">
        <ele>2100.0</ele>
        <time>2020-09-21T09:12:25Z</time>
      </trkpt>
      <trkpt lat="52.17619" lon="4.4800606">
        <ele>2100.0</ele>
        <time>2020-09-21T09:12:26Z</time>
      </trkpt>
      <trkpt lat="52.176186" lon="4.4800525">
        <ele>2100.0</ele>
        <time>2020-09-21T09:12:28Z</time>
      </trkpt>
      <trkpt lat="52.176186" lon="4.4800463">
        <ele>2100.0</ele>
        <time>2020-09-21T09:12:28Z</time>
      </trkpt>
      <trkpt lat="52.176186" lon="4.4800415">
        <ele>2100.0</ele>
        <time>2020-09-21T09:12:29Z</time>
      </trkpt>
      <trkpt lat="52.176174" lon="4.4800305">
        <ele>2100.0</ele>
        <time>2020-09-21T09:12:31Z</time>
      </trkpt>
      <trkpt lat="52.176174" lon="4.4800315">
        <ele>2100.0</ele>
        <time>2020-09-21T09:12:32Z</time>
      </trkpt>
      <trkpt lat="52.176174" lon="4.480033">
        <ele>2100.0</ele>
        <time>2020-09-21T09:12:33Z</time>
      </trkpt>
      <trkpt lat="52.176174" lon="4.480034">
        <ele>2100.0</ele>
        <time>2020-09-21T09:12:34Z</time>
      </trkpt>
      <trkpt lat="52.176174" lon="4.4800315">
        <ele>2100.0</ele>
        <time>2020-09-21T09:12:35Z</time>
      </trkpt>
      <trkpt lat="52.176174" lon="4.480028">
        <ele>2100.0</ele>
        <time>2020-09-21T09:12:36Z</time>
      </trkpt>
      <trkpt lat="52.17617" lon="4.4800243">
        <ele>2100.0</ele>
        <time>2020-09-21T09:12:37Z</time>
      </trkpt>
      <trkpt lat="52.17617" lon="4.48002">
        <ele>2100.0</ele>
        <time>2020-09-21T09:12:39Z</time>
      </trkpt>
      <trkpt lat="52.17617" lon="4.480014">
        <ele>2100.0</ele>
        <time>2020-09-21T09:12:39Z</time>
      </trkpt>
      <trkpt lat="52.176163" lon="4.4800053">
        <ele>2100.0</ele>
        <time>2020-09-21T09:12:40Z</time>
      </trkpt>
      <trkpt lat="52.176163" lon="4.479995">
        <ele>2100.0</ele>
        <time>2020-09-21T09:12:41Z</time>
      </trkpt>
      <trkpt lat="52.17616" lon="4.479941">
        <ele>2100.0</ele>
        <time>2020-09-21T09:12:43Z</time>
      </trkpt>
      <trkpt lat="52.176163" lon="4.4799275">
        <ele>2100.0</ele>
        <time>2020-09-21T09:12:45Z</time>
      </trkpt>
      <trkpt lat="52.176163" lon="4.4799256">
        <ele>2100.0</ele>
        <time>2020-09-21T09:12:46Z</time>
      </trkpt>
      <trkpt lat="52.17617" lon="4.479922">
        <ele>2100.0</ele>
        <time>2020-09-21T09:12:47Z</time>
      </trkpt>
      <trkpt lat="52.17617" lon="4.4799166">
        <ele>2100.0</ele>
        <time>2020-09-21T09:12:48Z</time>
      </trkpt>
      <trkpt lat="52.176163" lon="4.47991">
        <ele>2100.0</ele>
        <time>2020-09-21T09:12:49Z</time>
      </trkpt>
      <trkpt lat="52.17616" lon="4.4798894">
        <ele>2100.0</ele>
        <time>2020-09-21T09:12:51Z</time>
      </trkpt>
      <trkpt lat="52.17616" lon="4.4798884">
        <ele>2100.0</ele>
        <time>2020-09-21T09:12:52Z</time>
      </trkpt>
      <trkpt lat="52.176163" lon="4.4798837">
        <ele>2100.0</ele>
        <time>2020-09-21T09:12:53Z</time>
      </trkpt>
      <trkpt lat="52.176163" lon="4.479875">
        <ele>2100.0</ele>
        <time>2020-09-21T09:12:54Z</time>
      </trkpt>
      <trkpt lat="52.176163" lon="4.479864">
        <ele>2100.0</ele>
        <time>2020-09-21T09:12:55Z</time>
      </trkpt>
      <trkpt lat="52.176163" lon="4.4798527">
        <ele>2100.0</ele>
        <time>2020-09-21T09:12:56Z</time>
      </trkpt>
      <trkpt lat="52.176163" lon="4.4798427">
        <ele>2100.0</ele>
        <time>2020-09-21T09:12:58Z</time>
      </trkpt>
      <trkpt lat="52.176163" lon="4.479835">
        <ele>2100.0</ele>
        <time>2020-09-21T09:12:58Z</time>
      </trkpt>
      <trkpt lat="52.17617" lon="4.479814">
        <ele>2100.0</ele>
        <time>2020-09-21T09:13:01Z</time>
      </trkpt>
      <trkpt lat="52.17617" lon="4.479815">
        <ele>2100.0</ele>
        <time>2020-09-21T09:13:02Z</time>
      </trkpt>
      <trkpt lat="52.17617" lon="4.4798245">
        <ele>2100.0</ele>
        <time>2020-09-21T09:13:04Z</time>
      </trkpt>
      <trkpt lat="52.17617" lon="4.4798255">
        <ele>2100.0</ele>
        <time>2020-09-21T09:13:05Z</time>
      </trkpt>
      <trkpt lat="52.176174" lon="4.4798274">
        <ele>2100.0</ele>
        <time>2020-09-21T09:13:07Z</time>
      </trkpt>
      <trkpt lat="52.176174" lon="4.479826">
        <ele>2100.0</ele>
        <time>2020-09-21T09:13:08Z</time>
      </trkpt>
      <trkpt lat="52.176178" lon="4.479823">
        <ele>2100.0</ele>
        <time>2020-09-21T09:13:09Z</time>
      </trkpt>
      <trkpt lat="52.176178" lon="4.479821">
        <ele>2100.0</ele>
        <time>2020-09-21T09:13:10Z</time>
      </trkpt>
      <trkpt lat="52.176186" lon="4.4798207">
        <ele>2100.0</ele>
        <time>2020-09-21T09:13:11Z</time>
      </trkpt>
      <trkpt lat="52.17619" lon="4.479821">
        <ele>2100.0</ele>
        <time>2020-09-21T09:13:12Z</time>
      </trkpt>
      <trkpt lat="52.17619" lon="4.4798236">
        <ele>2100.0</ele>
        <time>2020-09-21T09:13:13Z</time>
      </trkpt>
      <trkpt lat="52.176193" lon="4.479827">
        <ele>2100.0</ele>
        <time>2020-09-21T09:13:14Z</time>
      </trkpt>
      <trkpt lat="52.176193" lon="4.4798374">
        <ele>2100.0</ele>
        <time>2020-09-21T09:13:31Z</time>
      </trkpt>
      <trkpt lat="52.17619" lon="4.479848">
        <ele>2100.0</ele>
        <time>2020-09-21T09:13:34Z</time>
      </trkpt>
      <trkpt lat="52.17619" lon="4.47985">
        <ele>2100.0</ele>
        <time>2020-09-21T09:13:35Z</time>
      </trkpt>
      <trkpt lat="52.17619" lon="4.4798565">
        <ele>2100.0</ele>
        <time>2020-09-21T09:13:36Z</time>
      </trkpt>
      <trkpt lat="52.17619" lon="4.479862">
        <ele>2100.0</ele>
        <time>2020-09-21T09:13:37Z</time>
      </trkpt>
      <trkpt lat="52.176186" lon="4.479879">
        <ele>2100.0</ele>
        <time>2020-09-21T09:13:39Z</time>
      </trkpt>
      <trkpt lat="52.176186" lon="4.4798827">
        <ele>2100.0</ele>
        <time>2020-09-21T09:13:41Z</time>
      </trkpt>
      <trkpt lat="52.176186" lon="4.479883">
        <ele>2100.0</ele>
        <time>2020-09-21T09:13:42Z</time>
      </trkpt>
      <trkpt lat="52.176178" lon="4.4798856">
        <ele>2100.0</ele>
        <time>2020-09-21T09:13:44Z</time>
      </trkpt>
      <trkpt lat="52.176163" lon="4.479876">
        <ele>2100.0</ele>
        <time>2020-09-21T09:13:56Z</time>
      </trkpt>
      <trkpt lat="52.176163" lon="4.4798737">
        <ele>2100.0</ele>
        <time>2020-09-21T09:13:57Z</time>
      </trkpt>
      <trkpt lat="52.17617" lon="4.479874">
        <ele>2100.0</ele>
        <time>2020-09-21T09:13:58Z</time>
      </trkpt>
      <trkpt lat="52.17617" lon="4.4798756">
        <ele>2100.0</ele>
        <time>2020-09-21T09:13:59Z</time>
      </trkpt>
      <trkpt lat="52.176174" lon="4.4798765">
        <ele>2100.0</ele>
        <time>2020-09-21T09:14:00Z</time>
      </trkpt>
      <trkpt lat="52.176186" lon="4.47988">
        <ele>2100.0</ele>
        <time>2020-09-21T09:14:01Z</time>
      </trkpt>
      <trkpt lat="52.176186" lon="4.4798827">
        <ele>2100.0</ele>
        <time>2020-09-21T09:14:02Z</time>
      </trkpt>
      <trkpt lat="52.17619" lon="4.479886">
        <ele>2100.0</ele>
        <time>2020-09-21T09:14:03Z</time>
      </trkpt>
      <trkpt lat="52.176193" lon="4.4798865">
        <ele>2100.0</ele>
        <time>2020-09-21T09:14:04Z</time>
      </trkpt>
      <trkpt lat="52.176193" lon="4.479885">
        <ele>2100.0</ele>
        <time>2020-09-21T09:14:05Z</time>
      </trkpt>
      <trkpt lat="52.176193" lon="4.479883">
        <ele>2100.0</ele>
        <time>2020-09-21T09:14:06Z</time>
      </trkpt>
      <trkpt lat="52.176193" lon="4.4798813">
        <ele>2100.0</ele>
        <time>2020-09-21T09:14:07Z</time>
      </trkpt>
      <trkpt lat="52.176193" lon="4.479877">
        <ele>2100.0</ele>
        <time>2020-09-21T09:14:08Z</time>
      </trkpt>
      <trkpt lat="52.176193" lon="4.479877">
        <ele>2100.0</ele>
        <time>2020-09-21T09:14:09Z</time>
      </trkpt>
      <trkpt lat="52.1762" lon="4.479878">
        <ele>2100.0</ele>
        <time>2020-09-21T09:14:10Z</time>
      </trkpt>
      <trkpt lat="52.176205" lon="4.479882">
        <ele>2100.0</ele>
        <time>2020-09-21T09:14:11Z</time>
      </trkpt>
      <trkpt lat="52.17621" lon="4.479884">
        <ele>2100.0</ele>
        <time>2020-09-21T09:14:12Z</time>
      </trkpt>
      <trkpt lat="52.176216" lon="4.479886">
        <ele>2100.0</ele>
        <time>2020-09-21T09:14:14Z</time>
      </trkpt>
      <trkpt lat="52.176224" lon="4.4798827">
        <ele>2100.0</ele>
        <time>2020-09-21T09:14:23Z</time>
      </trkpt>
      <trkpt lat="52.176224" lon="4.4798727">
        <ele>2100.0</ele>
        <time>2020-09-21T09:14:32Z</time>
      </trkpt>
      <trkpt lat="52.176224" lon="4.4798713">
        <ele>2100.0</ele>
        <time>2020-09-21T09:14:33Z</time>
      </trkpt>
      <trkpt lat="52.17623" lon="4.4798694">
        <ele>2100.0</ele>
        <time>2020-09-21T09:14:34Z</time>
      </trkpt>
      <trkpt lat="52.17623" lon="4.4798646">
        <ele>2200.0</ele>
        <time>2020-09-21T09:14:35Z</time>
      </trkpt>
      <trkpt lat="52.176235" lon="4.4798594">
        <ele>2200.0</ele>
        <time>2020-09-21T09:14:37Z</time>
      </trkpt>
      <trkpt lat="52.176247" lon="4.479848">
        <ele>2200.0</ele>
        <time>2020-09-21T09:14:38Z</time>
      </trkpt>
      <trkpt lat="52.176247" lon="4.4798408">
        <ele>2200.0</ele>
        <time>2020-09-21T09:14:41Z</time>
      </trkpt>
      <trkpt lat="52.176247" lon="4.4798374">
        <ele>2200.0</ele>
        <time>2020-09-21T09:14:44Z</time>
      </trkpt>
      <trkpt lat="52.176254" lon="4.479836">
        <ele>2200.0</ele>
        <time>2020-09-21T09:14:52Z</time>
      </trkpt>
      <trkpt lat="52.17626" lon="4.479836">
        <ele>2200.0</ele>
        <time>2020-09-21T09:14:53Z</time>
      </trkpt>
      <trkpt lat="52.17626" lon="4.479836">
        <ele>2200.0</ele>
        <time>2020-09-21T09:14:54Z</time>
      </trkpt>
      <trkpt lat="52.176266" lon="4.479836">
        <ele>2200.0</ele>
        <time>2020-09-21T09:14:55Z</time>
      </trkpt>
      <trkpt lat="52.176266" lon="4.479836">
        <ele>2200.0</ele>
        <time>2020-09-21T09:14:56Z</time>
      </trkpt>
      <trkpt lat="52.17628" lon="4.479839">
        <ele>2200.0</ele>
        <time>2020-09-21T09:14:59Z</time>
      </trkpt>
      <trkpt lat="52.17628" lon="4.47984">
        <ele>2200.0</ele>
        <time>2020-09-21T09:15:01Z</time>
      </trkpt>
      <trkpt lat="52.17628" lon="4.479841">
        <ele>2200.0</ele>
        <time>2020-09-21T09:15:01Z</time>
      </trkpt>
      <trkpt lat="52.17629" lon="4.4798427">
        <ele>2200.0</ele>
        <time>2020-09-21T09:15:02Z</time>
      </trkpt>
      <trkpt lat="52.176292" lon="4.479844">
        <ele>2200.0</ele>
        <time>2020-09-21T09:15:03Z</time>
      </trkpt>
      <trkpt lat="52.176292" lon="4.479847">
        <ele>2200.0</ele>
        <time>2020-09-21T09:15:04Z</time>
      </trkpt>
      <trkpt lat="52.176292" lon="4.479852">
        <ele>2200.0</ele>
        <time>2020-09-21T09:15:05Z</time>
      </trkpt>
      <trkpt lat="52.176296" lon="4.4798565">
        <ele>2200.0</ele>
        <time>2020-09-21T09:15:06Z</time>
      </trkpt>
      <trkpt lat="52.176296" lon="4.4798603">
        <ele>2200.0</ele>
        <time>2020-09-21T09:15:07Z</time>
      </trkpt>
      <trkpt lat="52.176304" lon="4.479876">
        <ele>2200.0</ele>
        <time>2020-09-21T09:15:10Z</time>
      </trkpt>
      <trkpt lat="52.176304" lon="4.479877">
        <ele>2200.0</ele>
        <time>2020-09-21T09:15:12Z</time>
      </trkpt>
      <trkpt lat="52.176304" lon="4.4798803">
        <ele>2200.0</ele>
        <time>2020-09-21T09:15:12Z</time>
      </trkpt>
      <trkpt lat="52.176304" lon="4.479884">
        <ele>2200.0</ele>
        <time>2020-09-21T09:15:13Z</time>
      </trkpt>
      <trkpt lat="52.176296" lon="4.479901">
        <ele>2200.0</ele>
        <time>2020-09-21T09:15:31Z</time>
      </trkpt>
      <trkpt lat="52.176292" lon="4.4798965">
        <ele>2200.0</ele>
        <time>2020-09-21T09:15:32Z</time>
      </trkpt>
      <trkpt lat="52.17628" lon="4.4798927">
        <ele>2200.0</ele>
        <time>2020-09-21T09:15:33Z</time>
      </trkpt>
      <trkpt lat="52.17627" lon="4.4798884">
        <ele>2200.0</ele>
        <time>2020-09-21T09:15:35Z</time>
      </trkpt>
      <trkpt lat="52.176266" lon="4.4798837">
        <ele>2200.0</ele>
        <time>2020-09-21T09:15:35Z</time>
      </trkpt>
      <trkpt lat="52.17625" lon="4.479876">
        <ele>2200.0</ele>
        <time>2020-09-21T09:15:36Z</time>
      </trkpt>
      <trkpt lat="52.17624" lon="4.4798636">
        <ele>2200.0</ele>
        <time>2020-09-21T09:15:37Z</time>
      </trkpt>
      <trkpt lat="52.17623" lon="4.4798517">
        <ele>2200.0</ele>
        <time>2020-09-21T09:15:38Z</time>
      </trkpt>
      <trkpt lat="52.17622" lon="4.4798417">
        <ele>2200.0</ele>
        <time>2020-09-21T09:15:39Z</time>
      </trkpt>
      <trkpt lat="52.17621" lon="4.479834">
        <ele>2200.0</ele>
        <time>2020-09-21T09:15:40Z</time>
      </trkpt>
      <trkpt lat="52.176193" lon="4.4798207">
        <ele>2200.0</ele>
        <time>2020-09-21T09:15:42Z</time>
      </trkpt>
      <trkpt lat="52.176193" lon="4.479821">
        <ele>2200.0</ele>
        <time>2020-09-21T09:15:43Z</time>
      </trkpt>
      <trkpt lat="52.176193" lon="4.4798226">
        <ele>2200.0</ele>
        <time>2020-09-21T09:15:44Z</time>
      </trkpt>
      <trkpt lat="52.1762" lon="4.4798126">
        <ele>2200.0</ele>
        <time>2020-09-21T09:15:46Z</time>
      </trkpt>
      <trkpt lat="52.176205" lon="4.479811">
        <ele>2200.0</ele>
        <time>2020-09-21T09:15:47Z</time>
      </trkpt>
      <trkpt lat="52.17621" lon="4.4798136">
        <ele>2200.0</ele>
        <time>2020-09-21T09:15:48Z</time>
      </trkpt>
      <trkpt lat="52.17621" lon="4.479818">
        <ele>2200.0</ele>
        <time>2020-09-21T09:15:49Z</time>
      </trkpt>
      <trkpt lat="52.176216" lon="4.4798226">
        <ele>2200.0</ele>
        <time>2020-09-21T09:15:50Z</time>
      </trkpt>
      <trkpt lat="52.176224" lon="4.4798293">
        <ele>2200.0</ele>
        <time>2020-09-21T09:15:56Z</time>
      </trkpt>
      <trkpt lat="52.176224" lon="4.4798236">
        <ele>2200.0</ele>
        <time>2020-09-21T09:15:57Z</time>
      </trkpt>
      <trkpt lat="52.17623" lon="4.4798126">
        <ele>2200.0</ele>
        <time>2020-09-21T09:15:58Z</time>
      </trkpt>
      <trkpt lat="52.176235" lon="4.4797974">
        <ele>2200.0</ele>
        <time>2020-09-21T09:15:59Z</time>
      </trkpt>
      <trkpt lat="52.17624" lon="4.479781">
        <ele>2200.0</ele>
        <time>2020-09-21T09:16:00Z</time>
      </trkpt>
      <trkpt lat="52.176247" lon="4.4797635">
        <ele>2200.0</ele>
        <time>2020-09-21T09:16:01Z</time>
      </trkpt>
      <trkpt lat="52.176247" lon="4.479745">
        <ele>2200.0</ele>
        <time>2020-09-21T09:16:02Z</time>
      </trkpt>
      <trkpt lat="52.17625" lon="4.479723">
        <ele>2200.0</ele>
        <time>2020-09-21T09:16:03Z</time>
      </trkpt>
      <trkpt lat="52.17625" lon="4.4797015">
        <ele>2200.0</ele>
        <time>2020-09-21T09:16:04Z</time>
      </trkpt>
      <trkpt lat="52.176247" lon="4.4796815">
        <ele>2200.0</ele>
        <time>2020-09-21T09:16:05Z</time>
      </trkpt>
      <trkpt lat="52.17624" lon="4.479665">
        <ele>2200.0</ele>
        <time>2020-09-21T09:16:06Z</time>
      </trkpt>
      <trkpt lat="52.17623" lon="4.479649">
        <ele>2200.0</ele>
        <time>2020-09-21T09:16:07Z</time>
      </trkpt>
      <trkpt lat="52.17622" lon="4.4796333">
        <ele>2200.0</ele>
        <time>2020-09-21T09:16:08Z</time>
      </trkpt>
      <trkpt lat="52.17621" lon="4.47962">
        <ele>2200.0</ele>
        <time>2020-09-21T09:16:09Z</time>
      </trkpt>
      <trkpt lat="52.17619" lon="4.47961">
        <ele>2200.0</ele>
        <time>2020-09-21T09:16:10Z</time>
      </trkpt>
      <trkpt lat="52.176174" lon="4.479601">
        <ele>2200.0</ele>
        <time>2020-09-21T09:16:11Z</time>
      </trkpt>
      <trkpt lat="52.17616" lon="4.479593">
        <ele>2200.0</ele>
        <time>2020-09-21T09:16:12Z</time>
      </trkpt>
      <trkpt lat="52.176144" lon="4.4795823">
        <ele>2200.0</ele>
        <time>2020-09-21T09:16:13Z</time>
      </trkpt>
      <trkpt lat="52.17613" lon="4.4795713">
        <ele>2200.0</ele>
        <time>2020-09-21T09:16:14Z</time>
      </trkpt>
      <trkpt lat="52.176117" lon="4.4795594">
        <ele>2200.0</ele>
        <time>2020-09-21T09:16:16Z</time>
      </trkpt>
      <trkpt lat="52.1761" lon="4.479547">
        <ele>2200.0</ele>
        <time>2020-09-21T09:16:17Z</time>
      </trkpt>
      <trkpt lat="52.176086" lon="4.4795356">
        <ele>2200.0</ele>
        <time>2020-09-21T09:16:17Z</time>
      </trkpt>
      <trkpt lat="52.176075" lon="4.4795265">
        <ele>2200.0</ele>
        <time>2020-09-21T09:16:18Z</time>
      </trkpt>
      <trkpt lat="52.176067" lon="4.47952">
        <ele>2200.0</ele>
        <time>2020-09-21T09:16:19Z</time>
      </trkpt>
      <trkpt lat="52.176056" lon="4.479516">
        <ele>2200.0</ele>
        <time>2020-09-21T09:16:20Z</time>
      </trkpt>
      <trkpt lat="52.176044" lon="4.479512">
        <ele>2200.0</ele>
        <time>2020-09-21T09:16:21Z</time>
      </trkpt>
      <trkpt lat="52.176037" lon="4.4795065">
        <ele>2200.0</ele>
        <time>2020-09-21T09:16:22Z</time>
      </trkpt>
      <trkpt lat="52.17602" lon="4.4794984">
        <ele>2200.0</ele>
        <time>2020-09-21T09:16:23Z</time>
      </trkpt>
      <trkpt lat="52.17601" lon="4.479489">
        <ele>2200.0</ele>
        <time>2020-09-21T09:16:24Z</time>
      </trkpt>
      <trkpt lat="52.176006" lon="4.479479">
        <ele>2200.0</ele>
        <time>2020-09-21T09:16:25Z</time>
      </trkpt>
      <trkpt lat="52.176" lon="4.479473">
        <ele>2200.0</ele>
        <time>2020-09-21T09:16:26Z</time>
      </trkpt>
      <trkpt lat="52.175983" lon="4.4794574">
        <ele>2200.0</ele>
        <time>2020-09-21T09:16:28Z</time>
      </trkpt>
      <trkpt lat="52.175983" lon="4.4794583">
        <ele>2200.0</ele>
        <time>2020-09-21T09:16:29Z</time>
      </trkpt>
      <trkpt lat="52.175983" lon="4.47946">
        <ele>2200.0</ele>
        <time>2020-09-21T09:16:30Z</time>
      </trkpt>
      <trkpt lat="52.17598" lon="4.4794574">
        <ele>2200.0</ele>
        <time>2020-09-21T09:16:32Z</time>
      </trkpt>
      <trkpt lat="52.17598" lon="4.4794593">
        <ele>2200.0</ele>
        <time>2020-09-21T09:16:33Z</time>
      </trkpt>
      <trkpt lat="52.175976" lon="4.4794636">
        <ele>2200.0</ele>
        <time>2020-09-21T09:16:34Z</time>
      </trkpt>
      <trkpt lat="52.175976" lon="4.4794664">
        <ele>2200.0</ele>
        <time>2020-09-21T09:16:35Z</time>
      </trkpt>
      <trkpt lat="52.175976" lon="4.4794703">
        <ele>2200.0</ele>
        <time>2020-09-21T09:16:36Z</time>
      </trkpt>
      <trkpt lat="52.17598" lon="4.4794726">
        <ele>2200.0</ele>
        <time>2020-09-21T09:16:37Z</time>
      </trkpt>
      <trkpt lat="52.175983" lon="4.479473">
        <ele>2200.0</ele>
        <time>2020-09-21T09:16:39Z</time>
      </trkpt>
      <trkpt lat="52.175995" lon="4.4794717">
        <ele>2200.0</ele>
        <time>2020-09-21T09:16:39Z</time>
      </trkpt>
      <trkpt lat="52.176" lon="4.479471">
        <ele>2200.0</ele>
        <time>2020-09-21T09:16:40Z</time>
      </trkpt>
      <trkpt lat="52.176014" lon="4.4794645">
        <ele>2200.0</ele>
        <time>2020-09-21T09:16:42Z</time>
      </trkpt>
      <trkpt lat="52.17602" lon="4.4794626">
        <ele>2200.0</ele>
        <time>2020-09-21T09:16:59Z</time>
      </trkpt>
      <trkpt lat="52.17602" lon="4.4794626">
        <ele>2200.0</ele>
        <time>2020-09-21T09:16:59Z</time>
      </trkpt>
      <trkpt lat="52.17602" lon="4.479462">
        <ele>2200.0</ele>
        <time>2020-09-21T09:17:00Z</time>
      </trkpt>
      <trkpt lat="52.17603" lon="4.4794593">
        <ele>2200.0</ele>
        <time>2020-09-21T09:17:04Z</time>
      </trkpt>
      <trkpt lat="52.176037" lon="4.4794593">
        <ele>2200.0</ele>
        <time>2020-09-21T09:17:07Z</time>
      </trkpt>
      <trkpt lat="52.17604" lon="4.4794574">
        <ele>2200.0</ele>
        <time>2020-09-21T09:17:10Z</time>
      </trkpt>
      <trkpt lat="52.17604" lon="4.4794574">
        <ele>2200.0</ele>
        <time>2020-09-21T09:17:11Z</time>
      </trkpt>
      <trkpt lat="52.17604" lon="4.4794574">
        <ele>2200.0</ele>
        <time>2020-09-21T09:17:13Z</time>
      </trkpt>
      <trkpt lat="52.176052" lon="4.4794545">
        <ele>2200.0</ele>
        <time>2020-09-21T09:17:14Z</time>
      </trkpt>
      <trkpt lat="52.176052" lon="4.4794536">
        <ele>2200.0</ele>
        <time>2020-09-21T09:17:15Z</time>
      </trkpt>
      <trkpt lat="52.176052" lon="4.479444">
        <ele>2200.0</ele>
        <time>2020-09-21T09:17:18Z</time>
      </trkpt>
      <trkpt lat="52.176052" lon="4.4794292">
        <ele>2200.0</ele>
        <time>2020-09-21T09:17:23Z</time>
      </trkpt>
      <trkpt lat="52.176044" lon="4.479426">
        <ele>2200.0</ele>
        <time>2020-09-21T09:17:27Z</time>
      </trkpt>
      <trkpt lat="52.176044" lon="4.479426">
        <ele>2200.0</ele>
        <time>2020-09-21T09:17:28Z</time>
      </trkpt>
      <trkpt lat="52.17604" lon="4.479426">
        <ele>2200.0</ele>
        <time>2020-09-21T09:17:29Z</time>
      </trkpt>
      <trkpt lat="52.17604" lon="4.479426">
        <ele>2200.0</ele>
        <time>2020-09-21T09:17:30Z</time>
      </trkpt>
      <trkpt lat="52.17603" lon="4.479421">
        <ele>2200.0</ele>
        <time>2020-09-21T09:17:35Z</time>
      </trkpt>
      <trkpt lat="52.176025" lon="4.4794145">
        <ele>2200.0</ele>
        <time>2020-09-21T09:17:46Z</time>
      </trkpt>
      <trkpt lat="52.17602" lon="4.479404">
        <ele>2200.0</ele>
        <time>2020-09-21T09:17:57Z</time>
      </trkpt>
      <trkpt lat="52.17602" lon="4.479399">
        <ele>2200.0</ele>
        <time>2020-09-21T09:18:00Z</time>
      </trkpt>
      <trkpt lat="52.17602" lon="4.4793983">
        <ele>2200.0</ele>
        <time>2020-09-21T09:18:01Z</time>
      </trkpt>
      <trkpt lat="52.17602" lon="4.4793963">
        <ele>2200.0</ele>
        <time>2020-09-21T09:18:02Z</time>
      </trkpt>
      <trkpt lat="52.17602" lon="4.4793925">
        <ele>2200.0</ele>
        <time>2020-09-21T09:18:03Z</time>
      </trkpt>
      <trkpt lat="52.17602" lon="4.479389">
        <ele>2200.0</ele>
        <time>2020-09-21T09:18:04Z</time>
      </trkpt>
      <trkpt lat="52.17602" lon="4.479373">
        <ele>2200.0</ele>
        <time>2020-09-21T09:18:06Z</time>
      </trkpt>
      <trkpt lat="52.17602" lon="4.4793715">
        <ele>2200.0</ele>
        <time>2020-09-21T09:18:08Z</time>
      </trkpt>
      <trkpt lat="52.17602" lon="4.4793677">
        <ele>2200.0</ele>
        <time>2020-09-21T09:18:08Z</time>
      </trkpt>
      <trkpt lat="52.17602" lon="4.4793625">
        <ele>2200.0</ele>
        <time>2020-09-21T09:18:09Z</time>
      </trkpt>
      <trkpt lat="52.17602" lon="4.479357">
        <ele>2200.0</ele>
        <time>2020-09-21T09:18:10Z</time>
      </trkpt>
      <trkpt lat="52.17602" lon="4.4793515">
        <ele>2200.0</ele>
        <time>2020-09-21T09:18:11Z</time>
      </trkpt>
      <trkpt lat="52.17602" lon="4.4793477">
        <ele>2200.0</ele>
        <time>2020-09-21T09:18:12Z</time>
      </trkpt>
      <trkpt lat="52.17602" lon="4.4793444">
        <ele>2200.0</ele>
        <time>2020-09-21T09:18:13Z</time>
      </trkpt>
      <trkpt lat="52.17603" lon="4.479341">
        <ele>2200.0</ele>
        <time>2020-09-21T09:18:33Z</time>
      </trkpt>
      <trkpt lat="52.17603" lon="4.479342">
        <ele>2200.0</ele>
        <time>2020-09-21T09:18:34Z</time>
      </trkpt>
      <trkpt lat="52.17603" lon="4.4793468">
        <ele>2200.0</ele>
        <time>2020-09-21T09:18:35Z</time>
      </trkpt>
      <trkpt lat="52.176025" lon="4.4793515">
        <ele>2200.0</ele>
        <time>2020-09-21T09:18:36Z</time>
      </trkpt>
      <trkpt lat="52.176025" lon="4.479357">
        <ele>2200.0</ele>
        <time>2020-09-21T09:18:37Z</time>
      </trkpt>
      <trkpt lat="52.176025" lon="4.4793615">
        <ele>2200.0</ele>
        <time>2020-09-21T09:18:38Z</time>
      </trkpt>
      <trkpt lat="52.176025" lon="4.4793663">
        <ele>2200.0</ele>
        <time>2020-09-21T09:18:39Z</time>
      </trkpt>
      <trkpt lat="52.17602" lon="4.479373">
        <ele>2200.0</ele>
        <time>2020-09-21T09:18:40Z</time>
      </trkpt>
      <trkpt lat="52.17602" lon="4.4793797">
        <ele>2200.0</ele>
        <time>2020-09-21T09:18:41Z</time>
      </trkpt>
      <trkpt lat="52.17602" lon="4.479385">
        <ele>2200.0</ele>
        <time>2020-09-21T09:18:42Z</time>
      </trkpt>
      <trkpt lat="52.17602" lon="4.479387">
        <ele>2200.0</ele>
        <time>2020-09-21T09:18:43Z</time>
      </trkpt>
      <trkpt lat="52.17602" lon="4.4793844">
        <ele>2200.0</ele>
        <time>2020-09-21T09:18:44Z</time>
      </trkpt>
      <trkpt lat="52.17602" lon="4.4793854">
        <ele>2200.0</ele>
        <time>2020-09-21T09:18:45Z</time>
      </trkpt>
      <trkpt lat="52.176014" lon="4.479413">
        <ele>2200.0</ele>
        <time>2020-09-21T09:19:09Z</time>
      </trkpt>
      <trkpt lat="52.176014" lon="4.4794164">
        <ele>2200.0</ele>
        <time>2020-09-21T09:19:10Z</time>
      </trkpt>
      <trkpt lat="52.176014" lon="4.4794235">
        <ele>2200.0</ele>
        <time>2020-09-21T09:19:11Z</time>
      </trkpt>
      <trkpt lat="52.176014" lon="4.4794526">
        <ele>2200.0</ele>
        <time>2020-09-21T09:19:14Z</time>
      </trkpt>
      <trkpt lat="52.17601" lon="4.4794536">
        <ele>2200.0</ele>
        <time>2020-09-21T09:19:16Z</time>
      </trkpt>
      <trkpt lat="52.176006" lon="4.4794555">
        <ele>2200.0</ele>
        <time>2020-09-21T09:19:16Z</time>
      </trkpt>
      <trkpt lat="52.176" lon="4.4794674">
        <ele>2200.0</ele>
        <time>2020-09-21T09:19:18Z</time>
      </trkpt>
      <trkpt lat="52.176006" lon="4.479468">
        <ele>2200.0</ele>
        <time>2020-09-21T09:19:19Z</time>
      </trkpt>
      <trkpt lat="52.17601" lon="4.4794674">
        <ele>2200.0</ele>
        <time>2020-09-21T09:19:21Z</time>
      </trkpt>
      <trkpt lat="52.176014" lon="4.479468">
        <ele>2200.0</ele>
        <time>2020-09-21T09:19:22Z</time>
      </trkpt>
      <trkpt lat="52.176014" lon="4.47947">
        <ele>2200.0</ele>
        <time>2020-09-21T09:19:23Z</time>
      </trkpt>
      <trkpt lat="52.176025" lon="4.479473">
        <ele>2200.0</ele>
        <time>2020-09-21T09:19:24Z</time>
      </trkpt>
      <trkpt lat="52.17603" lon="4.4794784">
        <ele>2200.0</ele>
        <time>2020-09-21T09:19:25Z</time>
      </trkpt>
      <trkpt lat="52.17604" lon="4.479486">
        <ele>2200.0</ele>
        <time>2020-09-21T09:19:26Z</time>
      </trkpt>
      <trkpt lat="52.176056" lon="4.4794955">
        <ele>2200.0</ele>
        <time>2020-09-21T09:19:27Z</time>
      </trkpt>
      <trkpt lat="52.176067" lon="4.479507">
        <ele>2200.0</ele>
        <time>2020-09-21T09:19:28Z</time>
      </trkpt>
      <trkpt lat="52.176083" lon="4.47952">
        <ele>2200.0</ele>
        <time>2020-09-21T09:19:29Z</time>
      </trkpt>
      <trkpt lat="52.176098" lon="4.479535">
        <ele>2200.0</ele>
        <time>2020-09-21T09:19:30Z</time>
      </trkpt>
      <trkpt lat="52.176117" lon="4.4795547">
        <ele>2200.0</ele>
        <time>2020-09-21T09:19:31Z</time>
      </trkpt>
      <trkpt lat="52.17614" lon="4.479577">
        <ele>2200.0</ele>
        <time>2020-09-21T09:19:32Z</time>
      </trkpt>
      <trkpt lat="52.17616" lon="4.479598">
        <ele>2200.0</ele>
        <time>2020-09-21T09:19:33Z</time>
      </trkpt>
      <trkpt lat="52.176174" lon="4.479616">
        <ele>2200.0</ele>
        <time>2020-09-21T09:19:34Z</time>
      </trkpt>
      <trkpt lat="52.176193" lon="4.4796333">
        <ele>2200.0</ele>
        <time>2020-09-21T09:19:35Z</time>
      </trkpt>
      <trkpt lat="52.176216" lon="4.4796543">
        <ele>2200.0</ele>
        <time>2020-09-21T09:19:36Z</time>
      </trkpt>
      <trkpt lat="52.176224" lon="4.4796786">
        <ele>2200.0</ele>
        <time>2020-09-21T09:19:38Z</time>
      </trkpt>
      <trkpt lat="52.17623" lon="4.4797034">
        <ele>2200.0</ele>
        <time>2020-09-21T09:19:38Z</time>
      </trkpt>
      <trkpt lat="52.17623" lon="4.479732">
        <ele>2200.0</ele>
        <time>2020-09-21T09:19:39Z</time>
      </trkpt>
      <trkpt lat="52.17623" lon="4.479767">
        <ele>2200.0</ele>
        <time>2020-09-21T09:19:40Z</time>
      </trkpt>
      <trkpt lat="52.17622" lon="4.4798026">
        <ele>2200.0</ele>
        <time>2020-09-21T09:19:41Z</time>
      </trkpt>
      <trkpt lat="52.176205" lon="4.479838">
        <ele>2200.0</ele>
        <time>2020-09-21T09:19:42Z</time>
      </trkpt>
      <trkpt lat="52.176193" lon="4.479875">
        <ele>2200.0</ele>
        <time>2020-09-21T09:19:43Z</time>
      </trkpt>
      <trkpt lat="52.176178" lon="4.4799128">
        <ele>2200.0</ele>
        <time>2020-09-21T09:19:44Z</time>
      </trkpt>
      <trkpt lat="52.17616" lon="4.479952">
        <ele>2200.0</ele>
        <time>2020-09-21T09:19:45Z</time>
      </trkpt>
      <trkpt lat="52.176144" lon="4.47999">
        <ele>2200.0</ele>
        <time>2020-09-21T09:19:46Z</time>
      </trkpt>
      <trkpt lat="52.176125" lon="4.4800296">
        <ele>2200.0</ele>
        <time>2020-09-21T09:19:47Z</time>
      </trkpt>
      <trkpt lat="52.176098" lon="4.4800706">
        <ele>2200.0</ele>
        <time>2020-09-21T09:19:48Z</time>
      </trkpt>
      <trkpt lat="52.176075" lon="4.480112">
        <ele>2200.0</ele>
        <time>2020-09-21T09:19:49Z</time>
      </trkpt>
      <trkpt lat="52.176056" lon="4.480154">
        <ele>2200.0</ele>
        <time>2020-09-21T09:19:50Z</time>
      </trkpt>
      <trkpt lat="52.176037" lon="4.480195">
        <ele>2200.0</ele>
        <time>2020-09-21T09:19:51Z</time>
      </trkpt>
      <trkpt lat="52.17602" lon="4.4802327">
        <ele>2200.0</ele>
        <time>2020-09-21T09:19:52Z</time>
      </trkpt>
      <trkpt lat="52.176" lon="4.480266">
        <ele>2200.0</ele>
        <time>2020-09-21T09:19:53Z</time>
      </trkpt>
      <trkpt lat="52.175983" lon="4.4802976">
        <ele>2200.0</ele>
        <time>2020-09-21T09:19:54Z</time>
      </trkpt>
      <trkpt lat="52.17597" lon="4.4803295">
        <ele>2200.0</ele>
        <time>2020-09-21T09:19:55Z</time>
      </trkpt>
      <trkpt lat="52.17596" lon="4.4803634">
        <ele>2200.0</ele>
        <time>2020-09-21T09:19:56Z</time>
      </trkpt>
      <trkpt lat="52.175945" lon="4.480398">
        <ele>2200.0</ele>
        <time>2020-09-21T09:19:57Z</time>
      </trkpt>
      <trkpt lat="52.175922" lon="4.4804344">
        <ele>2200.0</ele>
        <time>2020-09-21T09:19:58Z</time>
      </trkpt>
      <trkpt lat="52.175903" lon="4.48047">
        <ele>2200.0</ele>
        <time>2020-09-21T09:19:59Z</time>
      </trkpt>
      <trkpt lat="52.175877" lon="4.4805036">
        <ele>2200.0</ele>
        <time>2020-09-21T09:20:00Z</time>
      </trkpt>
      <trkpt lat="52.17585" lon="4.480539">
        <ele>2200.0</ele>
        <time>2020-09-21T09:20:01Z</time>
      </trkpt>
      <trkpt lat="52.17583" lon="4.4805737">
        <ele>2200.0</ele>
        <time>2020-09-21T09:20:02Z</time>
      </trkpt>
      <trkpt lat="52.17581" lon="4.4806075">
        <ele>2200.0</ele>
        <time>2020-09-21T09:20:03Z</time>
      </trkpt>
      <trkpt lat="52.17579" lon="4.4806404">
        <ele>2200.0</ele>
        <time>2020-09-21T09:20:04Z</time>
      </trkpt>
      <trkpt lat="52.17577" lon="4.4806714">
        <ele>2200.0</ele>
        <time>2020-09-21T09:20:05Z</time>
      </trkpt>
      <trkpt lat="52.175755" lon="4.4807">
        <ele>2200.0</ele>
        <time>2020-09-21T09:20:07Z</time>
      </trkpt>
      <trkpt lat="52.175728" lon="4.4807243">
        <ele>2200.0</ele>
        <time>2020-09-21T09:20:07Z</time>
      </trkpt>
      <trkpt lat="52.17571" lon="4.480751">
        <ele>2200.0</ele>
        <time>2020-09-21T09:20:08Z</time>
      </trkpt>
      <trkpt lat="52.175682" lon="4.480782">
        <ele>2200.0</ele>
        <time>2020-09-21T09:20:09Z</time>
      </trkpt>
      <trkpt lat="52.175663" lon="4.4808197">
        <ele>2200.0</ele>
        <time>2020-09-21T09:20:10Z</time>
      </trkpt>
      <trkpt lat="52.175636" lon="4.4808583">
        <ele>2200.0</ele>
        <time>2020-09-21T09:20:11Z</time>
      </trkpt>
      <trkpt lat="52.17561" lon="4.4808917">
        <ele>2200.0</ele>
        <time>2020-09-21T09:20:12Z</time>
      </trkpt>
      <trkpt lat="52.175587" lon="4.4809217">
        <ele>2200.0</ele>
        <time>2020-09-21T09:20:13Z</time>
      </trkpt>
      <trkpt lat="52.17556" lon="4.480953">
        <ele>2200.0</ele>
        <time>2020-09-21T09:20:14Z</time>
      </trkpt>
      <trkpt lat="52.17554" lon="4.480988">
        <ele>2200.0</ele>
        <time>2020-09-21T09:20:15Z</time>
      </trkpt>
      <trkpt lat="52.175514" lon="4.481025">
        <ele>2200.0</ele>
        <time>2020-09-21T09:20:16Z</time>
      </trkpt>
      <trkpt lat="52.17549" lon="4.4810643">
        <ele>2200.0</ele>
        <time>2020-09-21T09:20:17Z</time>
      </trkpt>
      <trkpt lat="52.175476" lon="4.4811015">
        <ele>2200.0</ele>
        <time>2020-09-21T09:20:18Z</time>
      </trkpt>
      <trkpt lat="52.175472" lon="4.4811387">
        <ele>2200.0</ele>
        <time>2020-09-21T09:20:19Z</time>
      </trkpt>
      <trkpt lat="52.17547" lon="4.4811745">
        <ele>2200.0</ele>
        <time>2020-09-21T09:20:20Z</time>
      </trkpt>
      <trkpt lat="52.17547" lon="4.481209">
        <ele>2200.0</ele>
        <time>2020-09-21T09:20:21Z</time>
      </trkpt>
      <trkpt lat="52.175472" lon="4.4812407">
        <ele>2200.0</ele>
        <time>2020-09-21T09:20:22Z</time>
      </trkpt>
      <trkpt lat="52.175476" lon="4.481269">
        <ele>2200.0</ele>
        <time>2020-09-21T09:20:23Z</time>
      </trkpt>
      <trkpt lat="52.175488" lon="4.4812927">
        <ele>2200.0</ele>
        <time>2020-09-21T09:20:24Z</time>
      </trkpt>
      <trkpt lat="52.175503" lon="4.4813156">
        <ele>2200.0</ele>
        <time>2020-09-21T09:20:25Z</time>
      </trkpt>
      <trkpt lat="52.175514" lon="4.4813404">
        <ele>2200.0</ele>
        <time>2020-09-21T09:20:26Z</time>
      </trkpt>
      <trkpt lat="52.175526" lon="4.4813666">
        <ele>2200.0</ele>
        <time>2020-09-21T09:20:28Z</time>
      </trkpt>
      <trkpt lat="52.175533" lon="4.481394">
        <ele>2200.0</ele>
        <time>2020-09-21T09:20:28Z</time>
      </trkpt>
      <trkpt lat="52.17554" lon="4.481422">
        <ele>2200.0</ele>
        <time>2020-09-21T09:20:29Z</time>
      </trkpt>
      <trkpt lat="52.175545" lon="4.4814515">
        <ele>2200.0</ele>
        <time>2020-09-21T09:20:30Z</time>
      </trkpt>
      <trkpt lat="52.17555" lon="4.481483">
        <ele>2200.0</ele>
        <time>2020-09-21T09:20:31Z</time>
      </trkpt>
      <trkpt lat="52.17555" lon="4.4815135">
        <ele>2200.0</ele>
        <time>2020-09-21T09:20:32Z</time>
      </trkpt>
      <trkpt lat="52.17555" lon="4.4815426">
        <ele>2200.0</ele>
        <time>2020-09-21T09:20:33Z</time>
      </trkpt>
      <trkpt lat="52.17555" lon="4.481571">
        <ele>2200.0</ele>
        <time>2020-09-21T09:20:34Z</time>
      </trkpt>
      <trkpt lat="52.17555" lon="4.481593">
        <ele>2200.0</ele>
        <time>2020-09-21T09:20:35Z</time>
      </trkpt>
      <trkpt lat="52.17555" lon="4.4816065">
        <ele>2200.0</ele>
        <time>2020-09-21T09:20:36Z</time>
      </trkpt>
      <trkpt lat="52.17555" lon="4.481624">
        <ele>2200.0</ele>
        <time>2020-09-21T09:20:39Z</time>
      </trkpt>
      <trkpt lat="52.17555" lon="4.4816227">
        <ele>2200.0</ele>
        <time>2020-09-21T09:20:39Z</time>
      </trkpt>
      <trkpt lat="52.17555" lon="4.4816184">
        <ele>2200.0</ele>
        <time>2020-09-21T09:20:40Z</time>
      </trkpt>
      <trkpt lat="52.17555" lon="4.4816136">
        <ele>2200.0</ele>
        <time>2020-09-21T09:20:41Z</time>
      </trkpt>
      <trkpt lat="52.17555" lon="4.48161">
        <ele>2200.0</ele>
        <time>2020-09-21T09:20:42Z</time>
      </trkpt>
      <trkpt lat="52.175556" lon="4.48161">
        <ele>2200.0</ele>
        <time>2020-09-21T09:20:43Z</time>
      </trkpt>
      <trkpt lat="52.17556" lon="4.481608">
        <ele>2200.0</ele>
        <time>2020-09-21T09:20:44Z</time>
      </trkpt>
      <trkpt lat="52.175564" lon="4.4816027">
        <ele>2200.0</ele>
        <time>2020-09-21T09:20:45Z</time>
      </trkpt>
      <trkpt lat="52.175575" lon="4.4815874">
        <ele>2200.0</ele>
        <time>2020-09-21T09:20:49Z</time>
      </trkpt>
      <trkpt lat="52.17557" lon="4.481592">
        <ele>2200.0</ele>
        <time>2020-09-21T09:21:06Z</time>
      </trkpt>
      <trkpt lat="52.17556" lon="4.481592">
        <ele>2200.0</ele>
        <time>2020-09-21T09:21:10Z</time>
      </trkpt>
      <trkpt lat="52.17556" lon="4.481592">
        <ele>2200.0</ele>
        <time>2020-09-21T09:21:13Z</time>
      </trkpt>
      <trkpt lat="52.17555" lon="4.4816008">
        <ele>2200.0</ele>
        <time>2020-09-21T09:21:21Z</time>
      </trkpt>
      <trkpt lat="52.17555" lon="4.4816027">
        <ele>2200.0</ele>
        <time>2020-09-21T09:21:22Z</time>
      </trkpt>
      <trkpt lat="52.17555" lon="4.481607">
        <ele>2200.0</ele>
        <time>2020-09-21T09:21:23Z</time>
      </trkpt>
      <trkpt lat="52.17555" lon="4.4816117">
        <ele>2200.0</ele>
        <time>2020-09-21T09:21:24Z</time>
      </trkpt>
      <trkpt lat="52.17555" lon="4.481627">
        <ele>2200.0</ele>
        <time>2020-09-21T09:21:27Z</time>
      </trkpt>
      <trkpt lat="52.17555" lon="4.4816284">
        <ele>2200.0</ele>
        <time>2020-09-21T09:21:28Z</time>
      </trkpt>
      <trkpt lat="52.175545" lon="4.481659">
        <ele>2200.0</ele>
        <time>2020-09-21T09:21:31Z</time>
      </trkpt>
      <trkpt lat="52.17554" lon="4.481659">
        <ele>2200.0</ele>
        <time>2020-09-21T09:21:33Z</time>
      </trkpt>
      <trkpt lat="52.17554" lon="4.4816594">
        <ele>2200.0</ele>
        <time>2020-09-21T09:21:33Z</time>
      </trkpt>
      <trkpt lat="52.175533" lon="4.481661">
        <ele>2200.0</ele>
        <time>2020-09-21T09:21:34Z</time>
      </trkpt>
      <trkpt lat="52.175533" lon="4.4816637">
        <ele>2200.0</ele>
        <time>2020-09-21T09:21:35Z</time>
      </trkpt>
      <trkpt lat="52.17553" lon="4.481666">
        <ele>2200.0</ele>
        <time>2020-09-21T09:21:36Z</time>
      </trkpt>
      <trkpt lat="52.17553" lon="4.4816685">
        <ele>2200.0</ele>
        <time>2020-09-21T09:21:37Z</time>
      </trkpt>
      <trkpt lat="52.175526" lon="4.481677">
        <ele>2200.0</ele>
        <time>2020-09-21T09:21:53Z</time>
      </trkpt>
      <trkpt lat="52.175526" lon="4.4816785">
        <ele>2200.0</ele>
        <time>2020-09-21T09:21:54Z</time>
      </trkpt>
      <trkpt lat="52.175526" lon="4.4816885">
        <ele>2200.0</ele>
        <time>2020-09-21T09:21:55Z</time>
      </trkpt>
      <trkpt lat="52.17553" lon="4.481708">
        <ele>2200.0</ele>
        <time>2020-09-21T09:21:56Z</time>
      </trkpt>
      <trkpt lat="52.17553" lon="4.481734">
        <ele>2200.0</ele>
        <time>2020-09-21T09:21:58Z</time>
      </trkpt>
      <trkpt lat="52.17553" lon="4.481762">
        <ele>2200.0</ele>
        <time>2020-09-21T09:21:58Z</time>
      </trkpt>
      <trkpt lat="52.17553" lon="4.4817886">
        <ele>2200.0</ele>
        <time>2020-09-21T09:21:59Z</time>
      </trkpt>
      <trkpt lat="52.175533" lon="4.481817">
        <ele>2200.0</ele>
        <time>2020-09-21T09:22:00Z</time>
      </trkpt>
      <trkpt lat="52.17554" lon="4.4818454">
        <ele>2200.0</ele>
        <time>2020-09-21T09:22:01Z</time>
      </trkpt>
      <trkpt lat="52.17554" lon="4.4818745">
        <ele>2200.0</ele>
        <time>2020-09-21T09:22:02Z</time>
      </trkpt>
      <trkpt lat="52.17554" lon="4.481904">
        <ele>2200.0</ele>
        <time>2020-09-21T09:22:03Z</time>
      </trkpt>
      <trkpt lat="52.175533" lon="4.4819326">
        <ele>2200.0</ele>
        <time>2020-09-21T09:22:04Z</time>
      </trkpt>
      <trkpt lat="52.17553" lon="4.4819603">
        <ele>2200.0</ele>
        <time>2020-09-21T09:22:05Z</time>
      </trkpt>
      <trkpt lat="52.175518" lon="4.481985">
        <ele>2200.0</ele>
        <time>2020-09-21T09:22:06Z</time>
      </trkpt>
      <trkpt lat="52.175507" lon="4.4820085">
        <ele>2200.0</ele>
        <time>2020-09-21T09:22:08Z</time>
      </trkpt>
      <trkpt lat="52.1755" lon="4.482031">
        <ele>2200.0</ele>
        <time>2020-09-21T09:22:08Z</time>
      </trkpt>
      <trkpt lat="52.175488" lon="4.482053">
        <ele>2200.0</ele>
        <time>2020-09-21T09:22:09Z</time>
      </trkpt>
      <trkpt lat="52.175476" lon="4.4820724">
        <ele>2200.0</ele>
        <time>2020-09-21T09:22:10Z</time>
      </trkpt>
      <trkpt lat="52.17546" lon="4.482089">
        <ele>2200.0</ele>
        <time>2020-09-21T09:22:11Z</time>
      </trkpt>
      <trkpt lat="52.175453" lon="4.482103">
        <ele>2200.0</ele>
        <time>2020-09-21T09:22:12Z</time>
      </trkpt>
      <trkpt lat="52.17544" lon="4.4821167">
        <ele>2200.0</ele>
        <time>2020-09-21T09:22:13Z</time>
      </trkpt>
      <trkpt lat="52.175426" lon="4.48213">
        <ele>2200.0</ele>
        <time>2020-09-21T09:22:14Z</time>
      </trkpt>
      <trkpt lat="52.175415" lon="4.4821434">
        <ele>2200.0</ele>
        <time>2020-09-21T09:22:15Z</time>
      </trkpt>
      <trkpt lat="52.17541" lon="4.4821563">
        <ele>2200.0</ele>
        <time>2020-09-21T09:22:16Z</time>
      </trkpt>
      <trkpt lat="52.175407" lon="4.482169">
        <ele>2200.0</ele>
        <time>2020-09-21T09:22:17Z</time>
      </trkpt>
      <trkpt lat="52.1754" lon="4.4821806">
        <ele>2200.0</ele>
        <time>2020-09-21T09:22:19Z</time>
      </trkpt>
      <trkpt lat="52.175396" lon="4.482191">
        <ele>2200.0</ele>
        <time>2020-09-21T09:22:19Z</time>
      </trkpt>
      <trkpt lat="52.175392" lon="4.4821973">
        <ele>2200.0</ele>
        <time>2020-09-21T09:22:20Z</time>
      </trkpt>
      <trkpt lat="52.175385" lon="4.4822">
        <ele>2200.0</ele>
        <time>2020-09-21T09:22:21Z</time>
      </trkpt>
      <trkpt lat="52.175385" lon="4.4822006">
        <ele>2200.0</ele>
        <time>2020-09-21T09:22:22Z</time>
      </trkpt>
      <trkpt lat="52.17538" lon="4.482199">
        <ele>2200.0</ele>
        <time>2020-09-21T09:22:23Z</time>
      </trkpt>
      <trkpt lat="52.175377" lon="4.482204">
        <ele>2200.0</ele>
        <time>2020-09-21T09:22:25Z</time>
      </trkpt>
      <trkpt lat="52.175377" lon="4.482204">
        <ele>2200.0</ele>
        <time>2020-09-21T09:22:26Z</time>
      </trkpt>
      <trkpt lat="52.17537" lon="4.482204">
        <ele>2200.0</ele>
        <time>2020-09-21T09:22:27Z</time>
      </trkpt>
      <trkpt lat="52.17537" lon="4.4822054">
        <ele>2200.0</ele>
        <time>2020-09-21T09:22:28Z</time>
      </trkpt>
      <trkpt lat="52.175365" lon="4.482212">
        <ele>2200.0</ele>
        <time>2020-09-21T09:22:48Z</time>
      </trkpt>
      <trkpt lat="52.175365" lon="4.482213">
        <ele>2200.0</ele>
        <time>2020-09-21T09:22:48Z</time>
      </trkpt>
      <trkpt lat="52.175365" lon="4.482216">
        <ele>2200.0</ele>
        <time>2020-09-21T09:22:49Z</time>
      </trkpt>
      <trkpt lat="52.175365" lon="4.4822197">
        <ele>2200.0</ele>
        <time>2020-09-21T09:22:50Z</time>
      </trkpt>
      <trkpt lat="52.175365" lon="4.4822226">
        <ele>2200.0</ele>
        <time>2020-09-21T09:22:51Z</time>
      </trkpt>
      <trkpt lat="52.175365" lon="4.4822254">
        <ele>2200.0</ele>
        <time>2020-09-21T09:22:52Z</time>
      </trkpt>
      <trkpt lat="52.17535" lon="4.4822373">
        <ele>2200.0</ele>
        <time>2020-09-21T09:23:12Z</time>
      </trkpt>
      <trkpt lat="52.17535" lon="4.4822373">
        <ele>2200.0</ele>
        <time>2020-09-21T09:23:14Z</time>
      </trkpt>
      <trkpt lat="52.175346" lon="4.482239">
        <ele>2200.0</ele>
        <time>2020-09-21T09:23:19Z</time>
      </trkpt>
      <trkpt lat="52.175346" lon="4.4822392">
        <ele>2200.0</ele>
        <time>2020-09-21T09:23:20Z</time>
      </trkpt>
      <trkpt lat="52.17534" lon="4.482243">
        <ele>2200.0</ele>
        <time>2020-09-21T09:23:21Z</time>
      </trkpt>
      <trkpt lat="52.17534" lon="4.4822493">
        <ele>2200.0</ele>
        <time>2020-09-21T09:23:22Z</time>
      </trkpt>
      <trkpt lat="52.175335" lon="4.4822607">
        <ele>2200.0</ele>
        <time>2020-09-21T09:23:23Z</time>
      </trkpt>
      <trkpt lat="52.17533" lon="4.482278">
        <ele>2200.0</ele>
        <time>2020-09-21T09:23:24Z</time>
      </trkpt>
      <trkpt lat="52.175323" lon="4.482303">
        <ele>2200.0</ele>
        <time>2020-09-21T09:23:25Z</time>
      </trkpt>
      <trkpt lat="52.175323" lon="4.4823327">
        <ele>2200.0</ele>
        <time>2020-09-21T09:23:27Z</time>
      </trkpt>
      <trkpt lat="52.175323" lon="4.4823627">
        <ele>2200.0</ele>
        <time>2020-09-21T09:23:27Z</time>
      </trkpt>
      <trkpt lat="52.175323" lon="4.4823937">
        <ele>2200.0</ele>
        <time>2020-09-21T09:23:28Z</time>
      </trkpt>
      <trkpt lat="52.17533" lon="4.4824257">
        <ele>2200.0</ele>
        <time>2020-09-21T09:23:29Z</time>
      </trkpt>
      <trkpt lat="52.175335" lon="4.4824586">
        <ele>2200.0</ele>
        <time>2020-09-21T09:23:30Z</time>
      </trkpt>
      <trkpt lat="52.17534" lon="4.4824886">
        <ele>2200.0</ele>
        <time>2020-09-21T09:23:31Z</time>
      </trkpt>
      <trkpt lat="52.17534" lon="4.4825144">
        <ele>2200.0</ele>
        <time>2020-09-21T09:23:32Z</time>
      </trkpt>
      <trkpt lat="52.175346" lon="4.482538">
        <ele>2200.0</ele>
        <time>2020-09-21T09:23:33Z</time>
      </trkpt>
      <trkpt lat="52.17534" lon="4.4825625">
        <ele>2200.0</ele>
        <time>2020-09-21T09:23:34Z</time>
      </trkpt>
      <trkpt lat="52.175335" lon="4.4825873">
        <ele>2200.0</ele>
        <time>2020-09-21T09:23:35Z</time>
      </trkpt>
      <trkpt lat="52.17532" lon="4.4826117">
        <ele>2200.0</ele>
        <time>2020-09-21T09:23:37Z</time>
      </trkpt>
      <trkpt lat="52.17531" lon="4.482633">
        <ele>2200.0</ele>
        <time>2020-09-21T09:23:37Z</time>
      </trkpt>
      <trkpt lat="52.175293" lon="4.482651">
        <ele>2200.0</ele>
        <time>2020-09-21T09:23:38Z</time>
      </trkpt>
      <trkpt lat="52.175278" lon="4.482668">
        <ele>2200.0</ele>
        <time>2020-09-21T09:23:39Z</time>
      </trkpt>
      <trkpt lat="52.175262" lon="4.482682">
        <ele>2200.0</ele>
        <time>2020-09-21T09:23:40Z</time>
      </trkpt>
      <trkpt lat="52.175247" lon="4.4826956">
        <ele>2200.0</ele>
        <time>2020-09-21T09:23:41Z</time>
      </trkpt>
      <trkpt lat="52.175236" lon="4.482709">
        <ele>2200.0</ele>
        <time>2020-09-21T09:23:42Z</time>
      </trkpt>
      <trkpt lat="52.17522" lon="4.4827237">
        <ele>2200.0</ele>
        <time>2020-09-21T09:23:43Z</time>
      </trkpt>
      <trkpt lat="52.175213" lon="4.4827385">
        <ele>2200.0</ele>
        <time>2020-09-21T09:23:44Z</time>
      </trkpt>
      <trkpt lat="52.1752" lon="4.482753">
        <ele>2200.0</ele>
        <time>2020-09-21T09:23:45Z</time>
      </trkpt>
      <trkpt lat="52.175186" lon="4.482768">
        <ele>2200.0</ele>
        <time>2020-09-21T09:23:46Z</time>
      </trkpt>
      <trkpt lat="52.175175" lon="4.4827833">
        <ele>2200.0</ele>
        <time>2020-09-21T09:23:47Z</time>
      </trkpt>
      <trkpt lat="52.17516" lon="4.482798">
        <ele>2200.0</ele>
        <time>2020-09-21T09:23:48Z</time>
      </trkpt>
      <trkpt lat="52.17515" lon="4.482815">
        <ele>2200.0</ele>
        <time>2020-09-21T09:23:49Z</time>
      </trkpt>
      <trkpt lat="52.175137" lon="4.4828315">
        <ele>2200.0</ele>
        <time>2020-09-21T09:23:50Z</time>
      </trkpt>
      <trkpt lat="52.175117" lon="4.482851">
        <ele>2200.0</ele>
        <time>2020-09-21T09:23:51Z</time>
      </trkpt>
      <trkpt lat="52.175102" lon="4.4828753">
        <ele>2200.0</ele>
        <time>2020-09-21T09:23:52Z</time>
      </trkpt>
      <trkpt lat="52.175095" lon="4.4829044">
        <ele>2200.0</ele>
        <time>2020-09-21T09:23:53Z</time>
      </trkpt>
      <trkpt lat="52.175087" lon="4.482938">
        <ele>2200.0</ele>
        <time>2020-09-21T09:23:55Z</time>
      </trkpt>
      <trkpt lat="52.175087" lon="4.4829736">
        <ele>2200.0</ele>
        <time>2020-09-21T09:23:55Z</time>
      </trkpt>
      <trkpt lat="52.175083" lon="4.483014">
        <ele>2200.0</ele>
        <time>2020-09-21T09:23:56Z</time>
      </trkpt>
      <trkpt lat="52.175083" lon="4.4830585">
        <ele>2200.0</ele>
        <time>2020-09-21T09:23:57Z</time>
      </trkpt>
      <trkpt lat="52.175083" lon="4.483107">
        <ele>2200.0</ele>
        <time>2020-09-21T09:23:58Z</time>
      </trkpt>
      <trkpt lat="52.17507" lon="4.483156">
        <ele>2200.0</ele>
        <time>2020-09-21T09:23:59Z</time>
      </trkpt>
      <trkpt lat="52.175064" lon="4.483203">
        <ele>2200.0</ele>
        <time>2020-09-21T09:24:00Z</time>
      </trkpt>
      <trkpt lat="52.175053" lon="4.4832454">
        <ele>2200.0</ele>
        <time>2020-09-21T09:24:01Z</time>
      </trkpt>
      <trkpt lat="52.175037" lon="4.483287">
        <ele>2200.0</ele>
        <time>2020-09-21T09:24:02Z</time>
      </trkpt>
      <trkpt lat="52.175022" lon="4.483329">
        <ele>2200.0</ele>
        <time>2020-09-21T09:24:03Z</time>
      </trkpt>
      <trkpt lat="52.175007" lon="4.48337">
        <ele>2200.0</ele>
        <time>2020-09-21T09:24:04Z</time>
      </trkpt>
      <trkpt lat="52.174995" lon="4.4834094">
        <ele>2200.0</ele>
        <time>2020-09-21T09:24:06Z</time>
      </trkpt>
      <trkpt lat="52.174976" lon="4.483447">
        <ele>2200.0</ele>
        <time>2020-09-21T09:24:06Z</time>
      </trkpt>
      <trkpt lat="52.174957" lon="4.4834824">
        <ele>2200.0</ele>
        <time>2020-09-21T09:24:07Z</time>
      </trkpt>
      <trkpt lat="52.174934" lon="4.483516">
        <ele>2200.0</ele>
        <time>2020-09-21T09:24:08Z</time>
      </trkpt>
      <trkpt lat="52.17492" lon="4.4835467">
        <ele>2200.0</ele>
        <time>2020-09-21T09:24:09Z</time>
      </trkpt>
      <trkpt lat="52.1749" lon="4.4835796">
        <ele>2200.0</ele>
        <time>2020-09-21T09:24:10Z</time>
      </trkpt>
      <trkpt lat="52.174877" lon="4.483615">
        <ele>2200.0</ele>
        <time>2020-09-21T09:24:11Z</time>
      </trkpt>
      <trkpt lat="52.174854" lon="4.4836564">
        <ele>2200.0</ele>
        <time>2020-09-21T09:24:12Z</time>
      </trkpt>
      <trkpt lat="52.174828" lon="4.483702">
        <ele>2200.0</ele>
        <time>2020-09-21T09:24:13Z</time>
      </trkpt>
      <trkpt lat="52.174797" lon="4.483751">
        <ele>2200.0</ele>
        <time>2020-09-21T09:24:14Z</time>
      </trkpt>
      <trkpt lat="52.17477" lon="4.4837966">
        <ele>2200.0</ele>
        <time>2020-09-21T09:24:16Z</time>
      </trkpt>
      <trkpt lat="52.17474" lon="4.4838395">
        <ele>2200.0</ele>
        <time>2020-09-21T09:24:16Z</time>
      </trkpt>
      <trkpt lat="52.174713" lon="4.4838805">
        <ele>2200.0</ele>
        <time>2020-09-21T09:24:17Z</time>
      </trkpt>
      <trkpt lat="52.17469" lon="4.48392">
        <ele>2200.0</ele>
        <time>2020-09-21T09:24:18Z</time>
      </trkpt>
      <trkpt lat="52.174664" lon="4.4839582">
        <ele>2200.0</ele>
        <time>2020-09-21T09:24:19Z</time>
      </trkpt>
      <trkpt lat="52.174637" lon="4.483994">
        <ele>2200.0</ele>
        <time>2020-09-21T09:24:20Z</time>
      </trkpt>
      <trkpt lat="52.174614" lon="4.4840283">
        <ele>2200.0</ele>
        <time>2020-09-21T09:24:21Z</time>
      </trkpt>
      <trkpt lat="52.174587" lon="4.4840617">
        <ele>2200.0</ele>
        <time>2020-09-21T09:24:22Z</time>
      </trkpt>
      <trkpt lat="52.17456" lon="4.484094">
        <ele>2200.0</ele>
        <time>2020-09-21T09:24:23Z</time>
      </trkpt>
      <trkpt lat="52.174534" lon="4.484127">
        <ele>2200.0</ele>
        <time>2020-09-21T09:24:24Z</time>
      </trkpt>
      <trkpt lat="52.17451" lon="4.4841623">
        <ele>2200.0</ele>
        <time>2020-09-21T09:24:25Z</time>
      </trkpt>
      <trkpt lat="52.17448" lon="4.4842005">
        <ele>2200.0</ele>
        <time>2020-09-21T09:24:27Z</time>
      </trkpt>
      <trkpt lat="52.17445" lon="4.48424">
        <ele>2200.0</ele>
        <time>2020-09-21T09:24:27Z</time>
      </trkpt>
      <trkpt lat="52.17442" lon="4.484276">
        <ele>2200.0</ele>
        <time>2020-09-21T09:24:28Z</time>
      </trkpt>
      <trkpt lat="52.174393" lon="4.4843097">
        <ele>2200.0</ele>
        <time>2020-09-21T09:24:29Z</time>
      </trkpt>
      <trkpt lat="52.174366" lon="4.4843464">
        <ele>2200.0</ele>
        <time>2020-09-21T09:24:30Z</time>
      </trkpt>
      <trkpt lat="52.174335" lon="4.484383">
        <ele>2200.0</ele>
        <time>2020-09-21T09:24:31Z</time>
      </trkpt>
      <trkpt lat="52.17431" lon="4.484419">
        <ele>2200.0</ele>
        <time>2020-09-21T09:24:32Z</time>
      </trkpt>
      <trkpt lat="52.174286" lon="4.4844537">
        <ele>2200.0</ele>
        <time>2020-09-21T09:24:33Z</time>
      </trkpt>
      <trkpt lat="52.17426" lon="4.4844856">
        <ele>2200.0</ele>
        <time>2020-09-21T09:24:34Z</time>
      </trkpt>
      <trkpt lat="52.174232" lon="4.4845185">
        <ele>2200.0</ele>
        <time>2020-09-21T09:24:35Z</time>
      </trkpt>
      <trkpt lat="52.17421" lon="4.4845533">
        <ele>2200.0</ele>
        <time>2020-09-21T09:24:37Z</time>
      </trkpt>
      <trkpt lat="52.174183" lon="4.4845905">
        <ele>2200.0</ele>
        <time>2020-09-21T09:24:37Z</time>
      </trkpt>
      <trkpt lat="52.174156" lon="4.4846272">
        <ele>2200.0</ele>
        <time>2020-09-21T09:24:38Z</time>
      </trkpt>
      <trkpt lat="52.17413" lon="4.484662">
        <ele>2200.0</ele>
        <time>2020-09-21T09:24:39Z</time>
      </trkpt>
      <trkpt lat="52.174107" lon="4.4846973">
        <ele>2200.0</ele>
        <time>2020-09-21T09:24:40Z</time>
      </trkpt>
      <trkpt lat="52.17408" lon="4.4847345">
        <ele>2200.0</ele>
        <time>2020-09-21T09:24:41Z</time>
      </trkpt>
      <trkpt lat="52.17405" lon="4.4847717">
        <ele>2200.0</ele>
        <time>2020-09-21T09:24:42Z</time>
      </trkpt>
      <trkpt lat="52.174023" lon="4.48481">
        <ele>2200.0</ele>
        <time>2020-09-21T09:24:43Z</time>
      </trkpt>
      <trkpt lat="52.174" lon="4.484848">
        <ele>2200.0</ele>
        <time>2020-09-21T09:24:44Z</time>
      </trkpt>
      <trkpt lat="52.173965" lon="4.484886">
        <ele>2200.0</ele>
        <time>2020-09-21T09:24:45Z</time>
      </trkpt>
      <trkpt lat="52.173943" lon="4.484924">
        <ele>2200.0</ele>
        <time>2020-09-21T09:24:46Z</time>
      </trkpt>
      <trkpt lat="52.173912" lon="4.484963">
        <ele>2200.0</ele>
        <time>2020-09-21T09:24:47Z</time>
      </trkpt>
      <trkpt lat="52.173885" lon="4.4850044">
        <ele>2200.0</ele>
        <time>2020-09-21T09:24:48Z</time>
      </trkpt>
      <trkpt lat="52.17386" lon="4.4850473">
        <ele>2200.0</ele>
        <time>2020-09-21T09:24:49Z</time>
      </trkpt>
      <trkpt lat="52.17383" lon="4.4850926">
        <ele>2200.0</ele>
        <time>2020-09-21T09:24:51Z</time>
      </trkpt>
      <trkpt lat="52.173798" lon="4.4851375">
        <ele>2200.0</ele>
        <time>2020-09-21T09:24:51Z</time>
      </trkpt>
      <trkpt lat="52.173763" lon="4.4851823">
        <ele>2200.0</ele>
        <time>2020-09-21T09:24:52Z</time>
      </trkpt>
      <trkpt lat="52.17372" lon="4.485229">
        <ele>2200.0</ele>
        <time>2020-09-21T09:24:53Z</time>
      </trkpt>
      <trkpt lat="52.173687" lon="4.4852753">
        <ele>2200.0</ele>
        <time>2020-09-21T09:24:54Z</time>
      </trkpt>
      <trkpt lat="52.17365" lon="4.48532">
        <ele>2200.0</ele>
        <time>2020-09-21T09:24:55Z</time>
      </trkpt>
      <trkpt lat="52.173626" lon="4.4853644">
        <ele>2200.0</ele>
        <time>2020-09-21T09:24:56Z</time>
      </trkpt>
      <trkpt lat="52.1736" lon="4.485403">
        <ele>2200.0</ele>
        <time>2020-09-21T09:24:57Z</time>
      </trkpt>
      <trkpt lat="52.173573" lon="4.4854355">
        <ele>2200.0</ele>
        <time>2020-09-21T09:24:58Z</time>
      </trkpt>
      <trkpt lat="52.173546" lon="4.4854665">
        <ele>2200.0</ele>
        <time>2020-09-21T09:24:59Z</time>
      </trkpt>
      <trkpt lat="52.173523" lon="4.4854975">
        <ele>2200.0</ele>
        <time>2020-09-21T09:25:01Z</time>
      </trkpt>
      <trkpt lat="52.173496" lon="4.485528">
        <ele>2200.0</ele>
        <time>2020-09-21T09:25:01Z</time>
      </trkpt>
      <trkpt lat="52.17347" lon="4.485563">
        <ele>2200.0</ele>
        <time>2020-09-21T09:25:02Z</time>
      </trkpt>
      <trkpt lat="52.173447" lon="4.4855976">
        <ele>2200.0</ele>
        <time>2020-09-21T09:25:03Z</time>
      </trkpt>
      <trkpt lat="52.17342" lon="4.4856334">
        <ele>2200.0</ele>
        <time>2020-09-21T09:25:04Z</time>
      </trkpt>
      <trkpt lat="52.173393" lon="4.4856706">
        <ele>2200.0</ele>
        <time>2020-09-21T09:25:05Z</time>
      </trkpt>
      <trkpt lat="52.173367" lon="4.4857073">
        <ele>2200.0</ele>
        <time>2020-09-21T09:25:06Z</time>
      </trkpt>
      <trkpt lat="52.173344" lon="4.4857454">
        <ele>2200.0</ele>
        <time>2020-09-21T09:25:08Z</time>
      </trkpt>
      <trkpt lat="52.173317" lon="4.4857864">
        <ele>2200.0</ele>
        <time>2020-09-21T09:25:08Z</time>
      </trkpt>
      <trkpt lat="52.173286" lon="4.48583">
        <ele>2200.0</ele>
        <time>2020-09-21T09:25:09Z</time>
      </trkpt>
      <trkpt lat="52.173256" lon="4.485878">
        <ele>2200.0</ele>
        <time>2020-09-21T09:25:10Z</time>
      </trkpt>
      <trkpt lat="52.173225" lon="4.4859242">
        <ele>2200.0</ele>
        <time>2020-09-21T09:25:11Z</time>
      </trkpt>
      <trkpt lat="52.1732" lon="4.485969">
        <ele>2200.0</ele>
        <time>2020-09-21T09:25:12Z</time>
      </trkpt>
      <trkpt lat="52.17317" lon="4.486013">
        <ele>2200.0</ele>
        <time>2020-09-21T09:25:13Z</time>
      </trkpt>
      <trkpt lat="52.173138" lon="4.486056">
        <ele>2200.0</ele>
        <time>2020-09-21T09:25:14Z</time>
      </trkpt>
      <trkpt lat="52.17311" lon="4.486101">
        <ele>2200.0</ele>
        <time>2020-09-21T09:25:15Z</time>
      </trkpt>
      <trkpt lat="52.17308" lon="4.4861455">
        <ele>2200.0</ele>
        <time>2020-09-21T09:25:16Z</time>
      </trkpt>
      <trkpt lat="52.17305" lon="4.486189">
        <ele>2200.0</ele>
        <time>2020-09-21T09:25:18Z</time>
      </trkpt>
      <trkpt lat="52.173027" lon="4.48623">
        <ele>2200.0</ele>
        <time>2020-09-21T09:25:18Z</time>
      </trkpt>
      <trkpt lat="52.173" lon="4.486267">
        <ele>2200.0</ele>
        <time>2020-09-21T09:25:19Z</time>
      </trkpt>
      <trkpt lat="52.172974" lon="4.4863024">
        <ele>2200.0</ele>
        <time>2020-09-21T09:25:20Z</time>
      </trkpt>
      <trkpt lat="52.172955" lon="4.486339">
        <ele>2200.0</ele>
        <time>2020-09-21T09:25:21Z</time>
      </trkpt>
      <trkpt lat="52.172928" lon="4.4863772">
        <ele>2200.0</ele>
        <time>2020-09-21T09:25:22Z</time>
      </trkpt>
      <trkpt lat="52.17291" lon="4.486414">
        <ele>2200.0</ele>
        <time>2020-09-21T09:25:23Z</time>
      </trkpt>
      <trkpt lat="52.172882" lon="4.4864492">
        <ele>2200.0</ele>
        <time>2020-09-21T09:25:24Z</time>
      </trkpt>
      <trkpt lat="52.172863" lon="4.486487">
        <ele>2200.0</ele>
        <time>2020-09-21T09:25:25Z</time>
      </trkpt>
      <trkpt lat="52.17284" lon="4.4865236">
        <ele>2200.0</ele>
        <time>2020-09-21T09:25:26Z</time>
      </trkpt>
      <trkpt lat="52.172817" lon="4.486558">
        <ele>2200.0</ele>
        <time>2020-09-21T09:25:27Z</time>
      </trkpt>
      <trkpt lat="52.172794" lon="4.486592">
        <ele>2200.0</ele>
        <time>2020-09-21T09:25:28Z</time>
      </trkpt>
      <trkpt lat="52.172775" lon="4.486628">
        <ele>2200.0</ele>
        <time>2020-09-21T09:25:29Z</time>
      </trkpt>
      <trkpt lat="52.172752" lon="4.48667">
        <ele>2200.0</ele>
        <time>2020-09-21T09:25:30Z</time>
      </trkpt>
      <trkpt lat="52.17273" lon="4.4867096">
        <ele>2200.0</ele>
        <time>2020-09-21T09:25:31Z</time>
      </trkpt>
      <trkpt lat="52.172703" lon="4.4867516">
        <ele>2200.0</ele>
        <time>2020-09-21T09:25:32Z</time>
      </trkpt>
      <trkpt lat="52.172676" lon="4.4867926">
        <ele>2200.0</ele>
        <time>2020-09-21T09:25:33Z</time>
      </trkpt>
      <trkpt lat="52.172646" lon="4.486835">
        <ele>2200.0</ele>
        <time>2020-09-21T09:25:34Z</time>
      </trkpt>
      <trkpt lat="52.17261" lon="4.486878">
        <ele>2200.0</ele>
        <time>2020-09-21T09:25:35Z</time>
      </trkpt>
      <trkpt lat="52.17258" lon="4.486922">
        <ele>2200.0</ele>
        <time>2020-09-21T09:25:36Z</time>
      </trkpt>
      <trkpt lat="52.17255" lon="4.4869637">
        <ele>2200.0</ele>
        <time>2020-09-21T09:25:37Z</time>
      </trkpt>
      <trkpt lat="52.172523" lon="4.4870043">
        <ele>2200.0</ele>
        <time>2020-09-21T09:25:38Z</time>
      </trkpt>
      <trkpt lat="52.172497" lon="4.487042">
        <ele>2200.0</ele>
        <time>2020-09-21T09:25:39Z</time>
      </trkpt>
      <trkpt lat="52.172466" lon="4.48708">
        <ele>2200.0</ele>
        <time>2020-09-21T09:25:40Z</time>
      </trkpt>
      <trkpt lat="52.172443" lon="4.48712">
        <ele>2200.0</ele>
        <time>2020-09-21T09:25:41Z</time>
      </trkpt>
      <trkpt lat="52.172417" lon="4.487162">
        <ele>2200.0</ele>
        <time>2020-09-21T09:25:42Z</time>
      </trkpt>
      <trkpt lat="52.17239" lon="4.4872017">
        <ele>2200.0</ele>
        <time>2020-09-21T09:25:43Z</time>
      </trkpt>
      <trkpt lat="52.17237" lon="4.487236">
        <ele>2200.0</ele>
        <time>2020-09-21T09:25:44Z</time>
      </trkpt>
      <trkpt lat="52.172348" lon="4.487265">
        <ele>2200.0</ele>
        <time>2020-09-21T09:25:45Z</time>
      </trkpt>
      <trkpt lat="52.172333" lon="4.487292">
        <ele>2200.0</ele>
        <time>2020-09-21T09:25:46Z</time>
      </trkpt>
      <trkpt lat="52.172318" lon="4.4873147">
        <ele>2200.0</ele>
        <time>2020-09-21T09:25:47Z</time>
      </trkpt>
      <trkpt lat="52.1723" lon="4.4873347">
        <ele>2200.0</ele>
        <time>2020-09-21T09:25:48Z</time>
      </trkpt>
      <trkpt lat="52.172283" lon="4.4873567">
        <ele>2200.0</ele>
        <time>2020-09-21T09:25:49Z</time>
      </trkpt>
      <trkpt lat="52.172264" lon="4.487379">
        <ele>2200.0</ele>
        <time>2020-09-21T09:25:51Z</time>
      </trkpt>
      <trkpt lat="52.17224" lon="4.4874034">
        <ele>2200.0</ele>
        <time>2020-09-21T09:25:51Z</time>
      </trkpt>
      <trkpt lat="52.172222" lon="4.4874296">
        <ele>2200.0</ele>
        <time>2020-09-21T09:25:52Z</time>
      </trkpt>
      <trkpt lat="52.1722" lon="4.4874616">
        <ele>2200.0</ele>
        <time>2020-09-21T09:25:53Z</time>
      </trkpt>
      <trkpt lat="52.17218" lon="4.4874964">
        <ele>2200.0</ele>
        <time>2020-09-21T09:25:54Z</time>
      </trkpt>
      <trkpt lat="52.17216" lon="4.4875298">
        <ele>2200.0</ele>
        <time>2020-09-21T09:25:55Z</time>
      </trkpt>
      <trkpt lat="52.172146" lon="4.4875593">
        <ele>2200.0</ele>
        <time>2020-09-21T09:25:56Z</time>
      </trkpt>
      <trkpt lat="52.17213" lon="4.487585">
        <ele>2200.0</ele>
        <time>2020-09-21T09:25:57Z</time>
      </trkpt>
      <trkpt lat="52.17212" lon="4.4876122">
        <ele>2200.0</ele>
        <time>2020-09-21T09:25:58Z</time>
      </trkpt>
      <trkpt lat="52.172104" lon="4.487642">
        <ele>2200.0</ele>
        <time>2020-09-21T09:25:59Z</time>
      </trkpt>
      <trkpt lat="52.17209" lon="4.4876733">
        <ele>2200.0</ele>
        <time>2020-09-21T09:26:01Z</time>
      </trkpt>
      <trkpt lat="52.17207" lon="4.487706">
        <ele>2200.0</ele>
        <time>2020-09-21T09:26:01Z</time>
      </trkpt>
      <trkpt lat="52.172054" lon="4.4877405">
        <ele>2200.0</ele>
        <time>2020-09-21T09:26:02Z</time>
      </trkpt>
      <trkpt lat="52.17203" lon="4.4877768">
        <ele>2200.0</ele>
        <time>2020-09-21T09:26:03Z</time>
      </trkpt>
      <trkpt lat="52.172016" lon="4.487814">
        <ele>2200.0</ele>
        <time>2020-09-21T09:26:04Z</time>
      </trkpt>
      <trkpt lat="52.171997" lon="4.4878488">
        <ele>2200.0</ele>
        <time>2020-09-21T09:26:05Z</time>
      </trkpt>
      <trkpt lat="52.171974" lon="4.4878845">
        <ele>2200.0</ele>
        <time>2020-09-21T09:26:06Z</time>
      </trkpt>
      <trkpt lat="52.17196" lon="4.4879227">
        <ele>2200.0</ele>
        <time>2020-09-21T09:26:07Z</time>
      </trkpt>
      <trkpt lat="52.171944" lon="4.4879627">
        <ele>2200.0</ele>
        <time>2020-09-21T09:26:08Z</time>
      </trkpt>
      <trkpt lat="52.17194" lon="4.4880056">
        <ele>2200.0</ele>
        <time>2020-09-21T09:26:09Z</time>
      </trkpt>
      <trkpt lat="52.171936" lon="4.4880524">
        <ele>2200.0</ele>
        <time>2020-09-21T09:26:10Z</time>
      </trkpt>
      <trkpt lat="52.171936" lon="4.488103">
        <ele>2200.0</ele>
        <time>2020-09-21T09:26:12Z</time>
      </trkpt>
      <trkpt lat="52.171936" lon="4.488156">
        <ele>2200.0</ele>
        <time>2020-09-21T09:26:12Z</time>
      </trkpt>
      <trkpt lat="52.17193" lon="4.4882145">
        <ele>2200.0</ele>
        <time>2020-09-21T09:26:13Z</time>
      </trkpt>
      <trkpt lat="52.17193" lon="4.4882703">
        <ele>2200.0</ele>
        <time>2020-09-21T09:26:14Z</time>
      </trkpt>
      <trkpt lat="52.171925" lon="4.4883275">
        <ele>2200.0</ele>
        <time>2020-09-21T09:26:15Z</time>
      </trkpt>
      <trkpt lat="52.171913" lon="4.488385">
        <ele>2300.0</ele>
        <time>2020-09-21T09:26:16Z</time>
      </trkpt>
      <trkpt lat="52.171898" lon="4.4884386">
        <ele>2300.0</ele>
        <time>2020-09-21T09:26:17Z</time>
      </trkpt>
      <trkpt lat="52.171883" lon="4.4884825">
        <ele>2300.0</ele>
        <time>2020-09-21T09:26:18Z</time>
      </trkpt>
      <trkpt lat="52.171864" lon="4.488519">
        <ele>2300.0</ele>
        <time>2020-09-21T09:26:19Z</time>
      </trkpt>
      <trkpt lat="52.17184" lon="4.48855">
        <ele>2300.0</ele>
        <time>2020-09-21T09:26:20Z</time>
      </trkpt>
      <trkpt lat="52.171253" lon="4.4887943">
        <ele>2200.0</ele>
        <time>2020-09-21T09:26:36Z</time>
      </trkpt>
      <trkpt lat="52.171257" lon="4.4887843">
        <ele>2200.0</ele>
        <time>2020-09-21T09:26:36Z</time>
      </trkpt>
      <trkpt lat="52.17124" lon="4.488768">
        <ele>2200.0</ele>
        <time>2020-09-21T09:26:37Z</time>
      </trkpt>
      <trkpt lat="52.17122" lon="4.4887495">
        <ele>2200.0</ele>
        <time>2020-09-21T09:26:38Z</time>
      </trkpt>
      <trkpt lat="52.17119" lon="4.4887304">
        <ele>2200.0</ele>
        <time>2020-09-21T09:26:39Z</time>
      </trkpt>
      <trkpt lat="52.17115" lon="4.4887185">
        <ele>2200.0</ele>
        <time>2020-09-21T09:26:40Z</time>
      </trkpt>
      <trkpt lat="52.171116" lon="4.4887085">
        <ele>2200.0</ele>
        <time>2020-09-21T09:26:41Z</time>
      </trkpt>
      <trkpt lat="52.17108" lon="4.4886956">
        <ele>2200.0</ele>
        <time>2020-09-21T09:26:42Z</time>
      </trkpt>
      <trkpt lat="52.171043" lon="4.4886827">
        <ele>2200.0</ele>
        <time>2020-09-21T09:26:43Z</time>
      </trkpt>
      <trkpt lat="52.171013" lon="4.488665">
        <ele>2200.0</ele>
        <time>2020-09-21T09:26:45Z</time>
      </trkpt>
      <trkpt lat="52.170982" lon="4.488644">
        <ele>2200.0</ele>
        <time>2020-09-21T09:26:45Z</time>
      </trkpt>
      <trkpt lat="52.170956" lon="4.4886217">
        <ele>2300.0</ele>
        <time>2020-09-21T09:26:46Z</time>
      </trkpt>
      <trkpt lat="52.170925" lon="4.4885983">
        <ele>2300.0</ele>
        <time>2020-09-21T09:26:47Z</time>
      </trkpt>
      <trkpt lat="52.170902" lon="4.4885697">
        <ele>2300.0</ele>
        <time>2020-09-21T09:26:48Z</time>
      </trkpt>
      <trkpt lat="52.17088" lon="4.488534">
        <ele>2300.0</ele>
        <time>2020-09-21T09:26:49Z</time>
      </trkpt>
      <trkpt lat="52.170864" lon="4.488493">
        <ele>2300.0</ele>
        <time>2020-09-21T09:26:51Z</time>
      </trkpt>
      <trkpt lat="52.17086" lon="4.48845">
        <ele>2300.0</ele>
        <time>2020-09-21T09:26:51Z</time>
      </trkpt>
      <trkpt lat="52.170864" lon="4.488407">
        <ele>2400.0</ele>
        <time>2020-09-21T09:26:52Z</time>
      </trkpt>
      <trkpt lat="52.170876" lon="4.4883704">
        <ele>2400.0</ele>
        <time>2020-09-21T09:26:53Z</time>
      </trkpt>
      <trkpt lat="52.170895" lon="4.4883413">
        <ele>2400.0</ele>
        <time>2020-09-21T09:26:54Z</time>
      </trkpt>
      <trkpt lat="52.170918" lon="4.4883246">
        <ele>2400.0</ele>
        <time>2020-09-21T09:26:55Z</time>
      </trkpt>
      <trkpt lat="52.17094" lon="4.488321">
        <ele>2400.0</ele>
        <time>2020-09-21T09:26:56Z</time>
      </trkpt>
      <trkpt lat="52.170967" lon="4.4883285">
        <ele>2500.0</ele>
        <time>2020-09-21T09:26:57Z</time>
      </trkpt>
      <trkpt lat="52.170994" lon="4.488344">
        <ele>2500.0</ele>
        <time>2020-09-21T09:26:58Z</time>
      </trkpt>
      <trkpt lat="52.171017" lon="4.488366">
        <ele>2500.0</ele>
        <time>2020-09-21T09:27:00Z</time>
      </trkpt>
      <trkpt lat="52.171047" lon="4.4883895">
        <ele>2500.0</ele>
        <time>2020-09-21T09:27:00Z</time>
      </trkpt>
      <trkpt lat="52.171074" lon="4.488416">
        <ele>2500.0</ele>
        <time>2020-09-21T09:27:01Z</time>
      </trkpt>
      <trkpt lat="52.1711" lon="4.4884424">
        <ele>2600.0</ele>
        <time>2020-09-21T09:27:02Z</time>
      </trkpt>
      <trkpt lat="52.171127" lon="4.4884696">
        <ele>2600.0</ele>
        <time>2020-09-21T09:27:03Z</time>
      </trkpt>
      <trkpt lat="52.17115" lon="4.488497">
        <ele>2600.0</ele>
        <time>2020-09-21T09:27:04Z</time>
      </trkpt>
      <trkpt lat="52.17118" lon="4.4885254">
        <ele>2600.0</ele>
        <time>2020-09-21T09:27:05Z</time>
      </trkpt>
      <trkpt lat="52.17121" lon="4.488556">
        <ele>2600.0</ele>
        <time>2020-09-21T09:27:06Z</time>
      </trkpt>
      <trkpt lat="52.17124" lon="4.4885864">
        <ele>2600.0</ele>
        <time>2020-09-21T09:27:07Z</time>
      </trkpt>
      <trkpt lat="52.17127" lon="4.488617">
        <ele>2600.0</ele>
        <time>2020-09-21T09:27:08Z</time>
      </trkpt>
      <trkpt lat="52.1713" lon="4.488646">
        <ele>2600.0</ele>
        <time>2020-09-21T09:27:09Z</time>
      </trkpt>
      <trkpt lat="52.171326" lon="4.4886737">
        <ele>2600.0</ele>
        <time>2020-09-21T09:27:10Z</time>
      </trkpt>
      <trkpt lat="52.171352" lon="4.4887047">
        <ele>2600.0</ele>
        <time>2020-09-21T09:27:11Z</time>
      </trkpt>
      <trkpt lat="52.17137" lon="4.4887395">
        <ele>2600.0</ele>
        <time>2020-09-21T09:27:12Z</time>
      </trkpt>
      <trkpt lat="52.1714" lon="4.488774">
        <ele>2700.0</ele>
        <time>2020-09-21T09:27:13Z</time>
      </trkpt>
      <trkpt lat="52.17142" lon="4.488807">
        <ele>2700.0</ele>
        <time>2020-09-21T09:27:14Z</time>
      </trkpt>
      <trkpt lat="52.17145" lon="4.4888425">
        <ele>2700.0</ele>
        <time>2020-09-21T09:27:15Z</time>
      </trkpt>
      <trkpt lat="52.17148" lon="4.4888783">
        <ele>2700.0</ele>
        <time>2020-09-21T09:27:17Z</time>
      </trkpt>
      <trkpt lat="52.171505" lon="4.488914">
        <ele>2700.0</ele>
        <time>2020-09-21T09:27:17Z</time>
      </trkpt>
      <trkpt lat="52.171535" lon="4.4889503">
        <ele>2700.0</ele>
        <time>2020-09-21T09:27:18Z</time>
      </trkpt>
      <trkpt lat="52.171566" lon="4.488985">
        <ele>2700.0</ele>
        <time>2020-09-21T09:27:19Z</time>
      </trkpt>
      <trkpt lat="52.171593" lon="4.4890194">
        <ele>2700.0</ele>
        <time>2020-09-21T09:27:20Z</time>
      </trkpt>
      <trkpt lat="52.171623" lon="4.4890537">
        <ele>2700.0</ele>
        <time>2020-09-21T09:27:21Z</time>
      </trkpt>
      <trkpt lat="52.171646" lon="4.4890866">
        <ele>2700.0</ele>
        <time>2020-09-21T09:27:22Z</time>
      </trkpt>
      <trkpt lat="52.171673" lon="4.4891195">
        <ele>2700.0</ele>
        <time>2020-09-21T09:27:23Z</time>
      </trkpt>
      <trkpt lat="52.1717" lon="4.489153">
        <ele>2700.0</ele>
        <time>2020-09-21T09:27:24Z</time>
      </trkpt>
      <trkpt lat="52.17173" lon="4.489186">
        <ele>2700.0</ele>
        <time>2020-09-21T09:27:25Z</time>
      </trkpt>
      <trkpt lat="52.17175" lon="4.4892187">
        <ele>2700.0</ele>
        <time>2020-09-21T09:27:26Z</time>
      </trkpt>
      <trkpt lat="52.171776" lon="4.4892526">
        <ele>2700.0</ele>
        <time>2020-09-21T09:27:26Z</time>
      </trkpt>
      <trkpt lat="52.171803" lon="4.489286">
        <ele>2700.0</ele>
        <time>2020-09-21T09:27:27Z</time>
      </trkpt>
      <trkpt lat="52.171825" lon="4.489319">
        <ele>2700.0</ele>
        <time>2020-09-21T09:27:28Z</time>
      </trkpt>
      <trkpt lat="52.17186" lon="4.4893513">
        <ele>2700.0</ele>
        <time>2020-09-21T09:27:29Z</time>
      </trkpt>
      <trkpt lat="52.171883" lon="4.489384">
        <ele>2700.0</ele>
        <time>2020-09-21T09:27:30Z</time>
      </trkpt>
      <trkpt lat="52.171913" lon="4.4894166">
        <ele>2700.0</ele>
        <time>2020-09-21T09:27:31Z</time>
      </trkpt>
      <trkpt lat="52.17194" lon="4.48945">
        <ele>2700.0</ele>
        <time>2020-09-21T09:27:32Z</time>
      </trkpt>
      <trkpt lat="52.17197" lon="4.489483">
        <ele>2700.0</ele>
        <time>2020-09-21T09:27:34Z</time>
      </trkpt>
      <trkpt lat="52.172" lon="4.4895163">
        <ele>2700.0</ele>
        <time>2020-09-21T09:27:34Z</time>
      </trkpt>
      <trkpt lat="52.172028" lon="4.4895506">
        <ele>2700.0</ele>
        <time>2020-09-21T09:27:35Z</time>
      </trkpt>
      <trkpt lat="52.17206" lon="4.4895864">
        <ele>2700.0</ele>
        <time>2020-09-21T09:27:36Z</time>
      </trkpt>
      <trkpt lat="52.172085" lon="4.4896245">
        <ele>2700.0</ele>
        <time>2020-09-21T09:27:37Z</time>
      </trkpt>
      <trkpt lat="52.172115" lon="4.489664">
        <ele>2700.0</ele>
        <time>2020-09-21T09:27:38Z</time>
      </trkpt>
      <trkpt lat="52.172146" lon="4.489705">
        <ele>2700.0</ele>
        <time>2020-09-21T09:27:39Z</time>
      </trkpt>
      <trkpt lat="52.172176" lon="4.489747">
        <ele>2700.0</ele>
        <time>2020-09-21T09:27:40Z</time>
      </trkpt>
      <trkpt lat="52.172207" lon="4.48979">
        <ele>2700.0</ele>
        <time>2020-09-21T09:27:41Z</time>
      </trkpt>
      <trkpt lat="52.172237" lon="4.489833">
        <ele>2700.0</ele>
        <time>2020-09-21T09:27:42Z</time>
      </trkpt>
      <trkpt lat="52.172268" lon="4.4898763">
        <ele>2700.0</ele>
        <time>2020-09-21T09:27:43Z</time>
      </trkpt>
      <trkpt lat="52.1723" lon="4.4899206">
        <ele>2700.0</ele>
        <time>2020-09-21T09:27:44Z</time>
      </trkpt>
      <trkpt lat="52.172333" lon="4.489967">
        <ele>2600.0</ele>
        <time>2020-09-21T09:27:45Z</time>
      </trkpt>
      <trkpt lat="52.17237" lon="4.490017">
        <ele>2600.0</ele>
        <time>2020-09-21T09:27:46Z</time>
      </trkpt>
      <trkpt lat="52.172405" lon="4.490069">
        <ele>2600.0</ele>
        <time>2020-09-21T09:27:47Z</time>
      </trkpt>
      <trkpt lat="52.172443" lon="4.490123">
        <ele>2600.0</ele>
        <time>2020-09-21T09:27:48Z</time>
      </trkpt>
      <trkpt lat="52.17248" lon="4.4901776">
        <ele>2500.0</ele>
        <time>2020-09-21T09:27:49Z</time>
      </trkpt>
      <trkpt lat="52.172523" lon="4.4902353">
        <ele>2500.0</ele>
        <time>2020-09-21T09:27:50Z</time>
      </trkpt>
      <trkpt lat="52.172565" lon="4.4902964">
        <ele>2500.0</ele>
        <time>2020-09-21T09:27:52Z</time>
      </trkpt>
      <trkpt lat="52.172604" lon="4.490359">
        <ele>2500.0</ele>
        <time>2020-09-21T09:27:52Z</time>
      </trkpt>
      <trkpt lat="52.172646" lon="4.490422">
        <ele>2500.0</ele>
        <time>2020-09-21T09:27:53Z</time>
      </trkpt>
      <trkpt lat="52.172688" lon="4.4904833">
        <ele>2500.0</ele>
        <time>2020-09-21T09:27:54Z</time>
      </trkpt>
      <trkpt lat="52.17273" lon="4.4905434">
        <ele>2500.0</ele>
        <time>2020-09-21T09:27:55Z</time>
      </trkpt>
      <trkpt lat="52.172768" lon="4.490601">
        <ele>2500.0</ele>
        <time>2020-09-21T09:27:56Z</time>
      </trkpt>
      <trkpt lat="52.17281" lon="4.490656">
        <ele>2500.0</ele>
        <time>2020-09-21T09:27:57Z</time>
      </trkpt>
      <trkpt lat="52.17285" lon="4.4907074">
        <ele>2500.0</ele>
        <time>2020-09-21T09:27:58Z</time>
      </trkpt>
      <trkpt lat="52.172886" lon="4.4907565">
        <ele>2500.0</ele>
        <time>2020-09-21T09:27:59Z</time>
      </trkpt>
      <trkpt lat="52.172928" lon="4.490803">
        <ele>2500.0</ele>
        <time>2020-09-21T09:28:00Z</time>
      </trkpt>
      <trkpt lat="52.172962" lon="4.4908476">
        <ele>2500.0</ele>
        <time>2020-09-21T09:28:01Z</time>
      </trkpt>
      <trkpt lat="52.173" lon="4.490892">
        <ele>2500.0</ele>
        <time>2020-09-21T09:28:03Z</time>
      </trkpt>
      <trkpt lat="52.173035" lon="4.490935">
        <ele>2500.0</ele>
        <time>2020-09-21T09:28:03Z</time>
      </trkpt>
      <trkpt lat="52.173073" lon="4.490977">
        <ele>2500.0</ele>
        <time>2020-09-21T09:28:04Z</time>
      </trkpt>
      <trkpt lat="52.173107" lon="4.4910173">
        <ele>2500.0</ele>
        <time>2020-09-21T09:28:05Z</time>
      </trkpt>
      <trkpt lat="52.173138" lon="4.491055">
        <ele>2500.0</ele>
        <time>2020-09-21T09:28:06Z</time>
      </trkpt>
      <trkpt lat="52.173172" lon="4.4910965">
        <ele>2500.0</ele>
        <time>2020-09-21T09:28:07Z</time>
      </trkpt>
      <trkpt lat="52.17321" lon="4.4911346">
        <ele>2500.0</ele>
        <time>2020-09-21T09:28:08Z</time>
      </trkpt>
      <trkpt lat="52.17324" lon="4.491172">
        <ele>2500.0</ele>
        <time>2020-09-21T09:28:09Z</time>
      </trkpt>
      <trkpt lat="52.173275" lon="4.491207">
        <ele>2500.0</ele>
        <time>2020-09-21T09:28:10Z</time>
      </trkpt>
      <trkpt lat="52.173313" lon="4.4912434">
        <ele>2500.0</ele>
        <time>2020-09-21T09:28:11Z</time>
      </trkpt>
      <trkpt lat="52.173344" lon="4.491279">
        <ele>2500.0</ele>
        <time>2020-09-21T09:28:13Z</time>
      </trkpt>
      <trkpt lat="52.173374" lon="4.491316">
        <ele>2500.0</ele>
        <time>2020-09-21T09:28:13Z</time>
      </trkpt>
      <trkpt lat="52.173405" lon="4.4913535">
        <ele>2500.0</ele>
        <time>2020-09-21T09:28:14Z</time>
      </trkpt>
      <trkpt lat="52.173435" lon="4.4913936">
        <ele>2500.0</ele>
        <time>2020-09-21T09:28:15Z</time>
      </trkpt>
      <trkpt lat="52.173466" lon="4.4914346">
        <ele>2500.0</ele>
        <time>2020-09-21T09:28:16Z</time>
      </trkpt>
      <trkpt lat="52.173496" lon="4.4914775">
        <ele>2500.0</ele>
        <time>2020-09-21T09:28:17Z</time>
      </trkpt>
      <trkpt lat="52.173527" lon="4.491522">
        <ele>2500.0</ele>
        <time>2020-09-21T09:28:18Z</time>
      </trkpt>
      <trkpt lat="52.173557" lon="4.4915676">
        <ele>2500.0</ele>
        <time>2020-09-21T09:28:19Z</time>
      </trkpt>
      <trkpt lat="52.173584" lon="4.491615">
        <ele>2500.0</ele>
        <time>2020-09-21T09:28:20Z</time>
      </trkpt>
      <trkpt lat="52.173615" lon="4.4916635">
        <ele>2500.0</ele>
        <time>2020-09-21T09:28:21Z</time>
      </trkpt>
      <trkpt lat="52.173645" lon="4.491714">
        <ele>2500.0</ele>
        <time>2020-09-21T09:28:22Z</time>
      </trkpt>
      <trkpt lat="52.173676" lon="4.491764">
        <ele>2500.0</ele>
        <time>2020-09-21T09:28:23Z</time>
      </trkpt>
      <trkpt lat="52.173706" lon="4.4918118">
        <ele>2500.0</ele>
        <time>2020-09-21T09:28:24Z</time>
      </trkpt>
      <trkpt lat="52.173733" lon="4.491858">
        <ele>2500.0</ele>
        <time>2020-09-21T09:28:25Z</time>
      </trkpt>
      <trkpt lat="52.173763" lon="4.4919057">
        <ele>2500.0</ele>
        <time>2020-09-21T09:28:26Z</time>
      </trkpt>
      <trkpt lat="52.17379" lon="4.4919534">
        <ele>2500.0</ele>
        <time>2020-09-21T09:28:27Z</time>
      </trkpt>
      <trkpt lat="52.173813" lon="4.492001">
        <ele>2500.0</ele>
        <time>2020-09-21T09:28:28Z</time>
      </trkpt>
      <trkpt lat="52.173843" lon="4.492049">
        <ele>2500.0</ele>
        <time>2020-09-21T09:28:29Z</time>
      </trkpt>
      <trkpt lat="52.17387" lon="4.4920983">
        <ele>2500.0</ele>
        <time>2020-09-21T09:28:30Z</time>
      </trkpt>
      <trkpt lat="52.1739" lon="4.4921484">
        <ele>2500.0</ele>
        <time>2020-09-21T09:28:31Z</time>
      </trkpt>
      <trkpt lat="52.173927" lon="4.492198">
        <ele>2500.0</ele>
        <time>2020-09-21T09:28:32Z</time>
      </trkpt>
      <trkpt lat="52.173958" lon="4.4922466">
        <ele>2500.0</ele>
        <time>2020-09-21T09:28:34Z</time>
      </trkpt>
      <trkpt lat="52.17399" lon="4.492296">
        <ele>2500.0</ele>
        <time>2020-09-21T09:28:34Z</time>
      </trkpt>
      <trkpt lat="52.174015" lon="4.492345">
        <ele>2500.0</ele>
        <time>2020-09-21T09:28:35Z</time>
      </trkpt>
      <trkpt lat="52.174046" lon="4.4923954">
        <ele>2400.0</ele>
        <time>2020-09-21T09:28:36Z</time>
      </trkpt>
      <trkpt lat="52.17407" lon="4.4924464">
        <ele>2400.0</ele>
        <time>2020-09-21T09:28:37Z</time>
      </trkpt>
      <trkpt lat="52.174095" lon="4.492498">
        <ele>2400.0</ele>
        <time>2020-09-21T09:28:38Z</time>
      </trkpt>
      <trkpt lat="52.174126" lon="4.49255">
        <ele>2400.0</ele>
        <time>2020-09-21T09:28:39Z</time>
      </trkpt>
      <trkpt lat="52.174152" lon="4.4926014">
        <ele>2400.0</ele>
        <time>2020-09-21T09:28:40Z</time>
      </trkpt>
      <trkpt lat="52.17418" lon="4.492652">
        <ele>2400.0</ele>
        <time>2020-09-21T09:28:41Z</time>
      </trkpt>
      <trkpt lat="52.17421" lon="4.492703">
        <ele>2400.0</ele>
        <time>2020-09-21T09:28:42Z</time>
      </trkpt>
      <trkpt lat="52.174232" lon="4.492754">
        <ele>2400.0</ele>
        <time>2020-09-21T09:28:43Z</time>
      </trkpt>
      <trkpt lat="52.174263" lon="4.492807">
        <ele>2400.0</ele>
        <time>2020-09-21T09:28:44Z</time>
      </trkpt>
      <trkpt lat="52.17429" lon="4.4928575">
        <ele>2300.0</ele>
        <time>2020-09-21T09:28:45Z</time>
      </trkpt>
      <trkpt lat="52.174316" lon="4.492907">
        <ele>2300.0</ele>
        <time>2020-09-21T09:28:46Z</time>
      </trkpt>
      <trkpt lat="52.17434" lon="4.492956">
        <ele>2300.0</ele>
        <time>2020-09-21T09:28:47Z</time>
      </trkpt>
      <trkpt lat="52.174374" lon="4.4930043">
        <ele>2300.0</ele>
        <time>2020-09-21T09:28:48Z</time>
      </trkpt>
      <trkpt lat="52.174397" lon="4.493052">
        <ele>2300.0</ele>
        <time>2020-09-21T09:28:49Z</time>
      </trkpt>
      <trkpt lat="52.174423" lon="4.4930997">
        <ele>2300.0</ele>
        <time>2020-09-21T09:28:50Z</time>
      </trkpt>
      <trkpt lat="52.174458" lon="4.4931455">
        <ele>2300.0</ele>
        <time>2020-09-21T09:28:52Z</time>
      </trkpt>
      <trkpt lat="52.174488" lon="4.4931936">
        <ele>2300.0</ele>
        <time>2020-09-21T09:28:52Z</time>
      </trkpt>
      <trkpt lat="52.174534" lon="4.493237">
        <ele>2300.0</ele>
        <time>2020-09-21T09:28:53Z</time>
      </trkpt>
      <trkpt lat="52.174576" lon="4.4932804">
        <ele>2300.0</ele>
        <time>2020-09-21T09:28:54Z</time>
      </trkpt>
      <trkpt lat="52.174614" lon="4.493321">
        <ele>2300.0</ele>
        <time>2020-09-21T09:28:55Z</time>
      </trkpt>
      <trkpt lat="52.174652" lon="4.4933586">
        <ele>2300.0</ele>
        <time>2020-09-21T09:28:56Z</time>
      </trkpt>
      <trkpt lat="52.17469" lon="4.493392">
        <ele>2300.0</ele>
        <time>2020-09-21T09:28:57Z</time>
      </trkpt>
      <trkpt lat="52.17473" lon="4.4934278">
        <ele>2300.0</ele>
        <time>2020-09-21T09:28:58Z</time>
      </trkpt>
      <trkpt lat="52.174767" lon="4.493467">
        <ele>2300.0</ele>
        <time>2020-09-21T09:28:59Z</time>
      </trkpt>
      <trkpt lat="52.1748" lon="4.4935083">
        <ele>2300.0</ele>
        <time>2020-09-21T09:29:00Z</time>
      </trkpt>
      <trkpt lat="52.17483" lon="4.4935513">
        <ele>2300.0</ele>
        <time>2020-09-21T09:29:01Z</time>
      </trkpt>
      <trkpt lat="52.174862" lon="4.493592">
        <ele>2300.0</ele>
        <time>2020-09-21T09:29:03Z</time>
      </trkpt>
      <trkpt lat="52.174892" lon="4.493628">
        <ele>2300.0</ele>
        <time>2020-09-21T09:29:03Z</time>
      </trkpt>
      <trkpt lat="52.174923" lon="4.4936614">
        <ele>2300.0</ele>
        <time>2020-09-21T09:29:04Z</time>
      </trkpt>
      <trkpt lat="52.17495" lon="4.4936924">
        <ele>2300.0</ele>
        <time>2020-09-21T09:29:05Z</time>
      </trkpt>
      <trkpt lat="52.174976" lon="4.4937205">
        <ele>2300.0</ele>
        <time>2020-09-21T09:29:06Z</time>
      </trkpt>
      <trkpt lat="52.174995" lon="4.4937468">
        <ele>2300.0</ele>
        <time>2020-09-21T09:29:07Z</time>
      </trkpt>
      <trkpt lat="52.175022" lon="4.493774">
        <ele>2300.0</ele>
        <time>2020-09-21T09:29:08Z</time>
      </trkpt>
      <trkpt lat="52.17505" lon="4.4938073">
        <ele>2300.0</ele>
        <time>2020-09-21T09:29:09Z</time>
      </trkpt>
      <trkpt lat="52.17507" lon="4.493841">
        <ele>2300.0</ele>
        <time>2020-09-21T09:29:10Z</time>
      </trkpt>
      <trkpt lat="52.1751" lon="4.493874">
        <ele>2300.0</ele>
        <time>2020-09-21T09:29:11Z</time>
      </trkpt>
      <trkpt lat="52.175125" lon="4.4939103">
        <ele>2300.0</ele>
        <time>2020-09-21T09:29:12Z</time>
      </trkpt>
      <trkpt lat="52.17516" lon="4.4939513">
        <ele>2300.0</ele>
        <time>2020-09-21T09:29:13Z</time>
      </trkpt>
      <trkpt lat="52.17519" lon="4.493997">
        <ele>2300.0</ele>
        <time>2020-09-21T09:29:14Z</time>
      </trkpt>
      <trkpt lat="52.175232" lon="4.494052">
        <ele>2300.0</ele>
        <time>2020-09-21T09:29:15Z</time>
      </trkpt>
      <trkpt lat="52.175266" lon="4.4941015">
        <ele>2300.0</ele>
        <time>2020-09-21T09:29:16Z</time>
      </trkpt>
      <trkpt lat="52.175304" lon="4.4941463">
        <ele>2300.0</ele>
        <time>2020-09-21T09:29:17Z</time>
      </trkpt>
      <trkpt lat="52.17534" lon="4.4941845">
        <ele>2300.0</ele>
        <time>2020-09-21T09:29:18Z</time>
      </trkpt>
      <trkpt lat="52.17537" lon="4.494217">
        <ele>2300.0</ele>
        <time>2020-09-21T09:29:19Z</time>
      </trkpt>
      <trkpt lat="52.1754" lon="4.494245">
        <ele>2300.0</ele>
        <time>2020-09-21T09:29:20Z</time>
      </trkpt>
      <trkpt lat="52.175426" lon="4.494272">
        <ele>2300.0</ele>
        <time>2020-09-21T09:29:21Z</time>
      </trkpt>
      <trkpt lat="52.175457" lon="4.4942985">
        <ele>2300.0</ele>
        <time>2020-09-21T09:29:22Z</time>
      </trkpt>
      <trkpt lat="52.175484" lon="4.4943237">
        <ele>2300.0</ele>
        <time>2020-09-21T09:29:24Z</time>
      </trkpt>
      <trkpt lat="52.175514" lon="4.494351">
        <ele>2300.0</ele>
        <time>2020-09-21T09:29:24Z</time>
      </trkpt>
      <trkpt lat="52.17554" lon="4.494379">
        <ele>2300.0</ele>
        <time>2020-09-21T09:29:25Z</time>
      </trkpt>
      <trkpt lat="52.17557" lon="4.4944053">
        <ele>2300.0</ele>
        <time>2020-09-21T09:29:26Z</time>
      </trkpt>
      <trkpt lat="52.175602" lon="4.494431">
        <ele>2300.0</ele>
        <time>2020-09-21T09:29:27Z</time>
      </trkpt>
      <trkpt lat="52.175625" lon="4.494459">
        <ele>2300.0</ele>
        <time>2020-09-21T09:29:28Z</time>
      </trkpt>
      <trkpt lat="52.175655" lon="4.4944873">
        <ele>2300.0</ele>
        <time>2020-09-21T09:29:29Z</time>
      </trkpt>
      <trkpt lat="52.175694" lon="4.4945145">
        <ele>2300.0</ele>
        <time>2020-09-21T09:29:30Z</time>
      </trkpt>
      <trkpt lat="52.17572" lon="4.4945397">
        <ele>2300.0</ele>
        <time>2020-09-21T09:29:31Z</time>
      </trkpt>
      <trkpt lat="52.17574" lon="4.494561">
        <ele>2300.0</ele>
        <time>2020-09-21T09:29:32Z</time>
      </trkpt>
      <trkpt lat="52.175766" lon="4.494584">
        <ele>2300.0</ele>
        <time>2020-09-21T09:29:33Z</time>
      </trkpt>
      <trkpt lat="52.175785" lon="4.494609">
        <ele>2300.0</ele>
        <time>2020-09-21T09:29:34Z</time>
      </trkpt>
      <trkpt lat="52.1758" lon="4.4946375">
        <ele>2300.0</ele>
        <time>2020-09-21T09:29:35Z</time>
      </trkpt>
      <trkpt lat="52.17582" lon="4.494664">
        <ele>2300.0</ele>
        <time>2020-09-21T09:29:36Z</time>
      </trkpt>
      <trkpt lat="52.175835" lon="4.4946895">
        <ele>2300.0</ele>
        <time>2020-09-21T09:29:37Z</time>
      </trkpt>
      <trkpt lat="52.175865" lon="4.4947195">
        <ele>2300.0</ele>
        <time>2020-09-21T09:29:38Z</time>
      </trkpt>
      <trkpt lat="52.175888" lon="4.4947524">
        <ele>2300.0</ele>
        <time>2020-09-21T09:29:39Z</time>
      </trkpt>
      <trkpt lat="52.175907" lon="4.494788">
        <ele>2300.0</ele>
        <time>2020-09-21T09:29:40Z</time>
      </trkpt>
      <trkpt lat="52.17593" lon="4.494827">
        <ele>2300.0</ele>
        <time>2020-09-21T09:29:41Z</time>
      </trkpt>
      <trkpt lat="52.17595" lon="4.4948635">
        <ele>2300.0</ele>
        <time>2020-09-21T09:29:42Z</time>
      </trkpt>
      <trkpt lat="52.17597" lon="4.4949007">
        <ele>2300.0</ele>
        <time>2020-09-21T09:29:43Z</time>
      </trkpt>
      <trkpt lat="52.175995" lon="4.4949393">
        <ele>2300.0</ele>
        <time>2020-09-21T09:29:45Z</time>
      </trkpt>
      <trkpt lat="52.17602" lon="4.4949765">
        <ele>2300.0</ele>
        <time>2020-09-21T09:29:45Z</time>
      </trkpt>
      <trkpt lat="52.176044" lon="4.495019">
        <ele>2300.0</ele>
        <time>2020-09-21T09:29:46Z</time>
      </trkpt>
      <trkpt lat="52.17607" lon="4.495064">
        <ele>2300.0</ele>
        <time>2020-09-21T09:29:47Z</time>
      </trkpt>
      <trkpt lat="52.176098" lon="4.4951124">
        <ele>2300.0</ele>
        <time>2020-09-21T09:29:48Z</time>
      </trkpt>
      <trkpt lat="52.176125" lon="4.495163">
        <ele>2300.0</ele>
        <time>2020-09-21T09:29:49Z</time>
      </trkpt>
      <trkpt lat="52.176147" lon="4.495215">
        <ele>2300.0</ele>
        <time>2020-09-21T09:29:50Z</time>
      </trkpt>
      <trkpt lat="52.176174" lon="4.4952703">
        <ele>2300.0</ele>
        <time>2020-09-21T09:29:52Z</time>
      </trkpt>
      <trkpt lat="52.176193" lon="4.4953265">
        <ele>2300.0</ele>
        <time>2020-09-21T09:29:52Z</time>
      </trkpt>
      <trkpt lat="52.17622" lon="4.4953823">
        <ele>2200.0</ele>
        <time>2020-09-21T09:29:53Z</time>
      </trkpt>
      <trkpt lat="52.176247" lon="4.495438">
        <ele>2200.0</ele>
        <time>2020-09-21T09:29:54Z</time>
      </trkpt>
      <trkpt lat="52.176266" lon="4.4954925">
        <ele>2200.0</ele>
        <time>2020-09-21T09:29:56Z</time>
      </trkpt>
      <trkpt lat="52.176292" lon="4.4955482">
        <ele>2200.0</ele>
        <time>2020-09-21T09:29:56Z</time>
      </trkpt>
      <trkpt lat="52.176323" lon="4.495603">
        <ele>2200.0</ele>
        <time>2020-09-21T09:29:57Z</time>
      </trkpt>
      <trkpt lat="52.176353" lon="4.4956603">
        <ele>2200.0</ele>
        <time>2020-09-21T09:29:58Z</time>
      </trkpt>
      <trkpt lat="52.17638" lon="4.4957175">
        <ele>2200.0</ele>
        <time>2020-09-21T09:29:59Z</time>
      </trkpt>
      <trkpt lat="52.17641" lon="4.495777">
        <ele>2200.0</ele>
        <time>2020-09-21T09:30:00Z</time>
      </trkpt>
      <trkpt lat="52.176434" lon="4.495829">
        <ele>2200.0</ele>
        <time>2020-09-21T09:30:01Z</time>
      </trkpt>
      <trkpt lat="52.17646" lon="4.4958835">
        <ele>2200.0</ele>
        <time>2020-09-21T09:30:02Z</time>
      </trkpt>
      <trkpt lat="52.176487" lon="4.495936">
        <ele>2200.0</ele>
        <time>2020-09-21T09:30:03Z</time>
      </trkpt>
      <trkpt lat="52.176506" lon="4.4959893">
        <ele>2200.0</ele>
        <time>2020-09-21T09:30:04Z</time>
      </trkpt>
      <trkpt lat="52.17653" lon="4.4960356">
        <ele>2200.0</ele>
        <time>2020-09-21T09:30:06Z</time>
      </trkpt>
      <trkpt lat="52.176544" lon="4.4960775">
        <ele>2200.0</ele>
        <time>2020-09-21T09:30:06Z</time>
      </trkpt>
      <trkpt lat="52.17655" lon="4.4961205">
        <ele>2200.0</ele>
        <time>2020-09-21T09:30:07Z</time>
      </trkpt>
      <trkpt lat="52.176567" lon="4.496165">
        <ele>2200.0</ele>
        <time>2020-09-21T09:30:08Z</time>
      </trkpt>
      <trkpt lat="52.176582" lon="4.4962053">
        <ele>2200.0</ele>
        <time>2020-09-21T09:30:09Z</time>
      </trkpt>
      <trkpt lat="52.176594" lon="4.4962487">
        <ele>2200.0</ele>
        <time>2020-09-21T09:30:10Z</time>
      </trkpt>
      <trkpt lat="52.17661" lon="4.4962907">
        <ele>2200.0</ele>
        <time>2020-09-21T09:30:11Z</time>
      </trkpt>
      <trkpt lat="52.176624" lon="4.4963336">
        <ele>2200.0</ele>
        <time>2020-09-21T09:30:12Z</time>
      </trkpt>
      <trkpt lat="52.17664" lon="4.4963794">
        <ele>2200.0</ele>
        <time>2020-09-21T09:30:13Z</time>
      </trkpt>
      <trkpt lat="52.17665" lon="4.49643">
        <ele>2200.0</ele>
        <time>2020-09-21T09:30:14Z</time>
      </trkpt>
      <trkpt lat="52.176666" lon="4.4964767">
        <ele>2200.0</ele>
        <time>2020-09-21T09:30:15Z</time>
      </trkpt>
      <trkpt lat="52.176685" lon="4.496524">
        <ele>2200.0</ele>
        <time>2020-09-21T09:30:17Z</time>
      </trkpt>
      <trkpt lat="52.17671" lon="4.4965744">
        <ele>2200.0</ele>
        <time>2020-09-21T09:30:17Z</time>
      </trkpt>
      <trkpt lat="52.176727" lon="4.49663">
        <ele>2200.0</ele>
        <time>2020-09-21T09:30:18Z</time>
      </trkpt>
      <trkpt lat="52.176746" lon="4.496688">
        <ele>2200.0</ele>
        <time>2020-09-21T09:30:19Z</time>
      </trkpt>
      <trkpt lat="52.17677" lon="4.496746">
        <ele>2200.0</ele>
        <time>2020-09-21T09:30:20Z</time>
      </trkpt>
      <trkpt lat="52.17679" lon="4.4968023">
        <ele>2200.0</ele>
        <time>2020-09-21T09:30:21Z</time>
      </trkpt>
      <trkpt lat="52.176804" lon="4.496859">
        <ele>2200.0</ele>
        <time>2020-09-21T09:30:22Z</time>
      </trkpt>
      <trkpt lat="52.17682" lon="4.4969163">
        <ele>2200.0</ele>
        <time>2020-09-21T09:30:23Z</time>
      </trkpt>
      <trkpt lat="52.176834" lon="4.4969754">
        <ele>2200.0</ele>
        <time>2020-09-21T09:30:24Z</time>
      </trkpt>
      <trkpt lat="52.176853" lon="4.4970326">
        <ele>2200.0</ele>
        <time>2020-09-21T09:30:25Z</time>
      </trkpt>
      <trkpt lat="52.176872" lon="4.4970894">
        <ele>2200.0</ele>
        <time>2020-09-21T09:30:26Z</time>
      </trkpt>
      <trkpt lat="52.17688" lon="4.4971375">
        <ele>2200.0</ele>
        <time>2020-09-21T09:30:27Z</time>
      </trkpt>
      <trkpt lat="52.176895" lon="4.497178">
        <ele>2200.0</ele>
        <time>2020-09-21T09:30:28Z</time>
      </trkpt>
      <trkpt lat="52.17691" lon="4.497221">
        <ele>2200.0</ele>
        <time>2020-09-21T09:30:29Z</time>
      </trkpt>
      <trkpt lat="52.176926" lon="4.497267">
        <ele>2200.0</ele>
        <time>2020-09-21T09:30:30Z</time>
      </trkpt>
      <trkpt lat="52.17694" lon="4.4973145">
        <ele>2200.0</ele>
        <time>2020-09-21T09:30:31Z</time>
      </trkpt>
      <trkpt lat="52.176956" lon="4.4973626">
        <ele>2200.0</ele>
        <time>2020-09-21T09:30:32Z</time>
      </trkpt>
      <trkpt lat="52.176968" lon="4.4974074">
        <ele>2200.0</ele>
        <time>2020-09-21T09:30:33Z</time>
      </trkpt>
      <trkpt lat="52.17698" lon="4.4974513">
        <ele>2200.0</ele>
        <time>2020-09-21T09:30:34Z</time>
      </trkpt>
      <trkpt lat="52.176994" lon="4.4974914">
        <ele>2200.0</ele>
        <time>2020-09-21T09:30:35Z</time>
      </trkpt>
      <trkpt lat="52.17701" lon="4.4975305">
        <ele>2200.0</ele>
        <time>2020-09-21T09:30:36Z</time>
      </trkpt>
      <trkpt lat="52.177025" lon="4.497571">
        <ele>2200.0</ele>
        <time>2020-09-21T09:30:38Z</time>
      </trkpt>
      <trkpt lat="52.177044" lon="4.497609">
        <ele>2200.0</ele>
        <time>2020-09-21T09:30:38Z</time>
      </trkpt>
      <trkpt lat="52.17707" lon="4.4976506">
        <ele>2200.0</ele>
        <time>2020-09-21T09:30:39Z</time>
      </trkpt>
      <trkpt lat="52.177097" lon="4.4976897">
        <ele>2200.0</ele>
        <time>2020-09-21T09:30:40Z</time>
      </trkpt>
      <trkpt lat="52.177116" lon="4.497731">
        <ele>2200.0</ele>
        <time>2020-09-21T09:30:41Z</time>
      </trkpt>
      <trkpt lat="52.17713" lon="4.497772">
        <ele>2200.0</ele>
        <time>2020-09-21T09:30:42Z</time>
      </trkpt>
      <trkpt lat="52.17715" lon="4.4978156">
        <ele>2200.0</ele>
        <time>2020-09-21T09:30:43Z</time>
      </trkpt>
      <trkpt lat="52.177166" lon="4.497862">
        <ele>2200.0</ele>
        <time>2020-09-21T09:30:44Z</time>
      </trkpt>
      <trkpt lat="52.17718" lon="4.497911">
        <ele>2200.0</ele>
        <time>2020-09-21T09:30:45Z</time>
      </trkpt>
      <trkpt lat="52.177204" lon="4.49796">
        <ele>2200.0</ele>
        <time>2020-09-21T09:30:46Z</time>
      </trkpt>
      <trkpt lat="52.17722" lon="4.4980083">
        <ele>2200.0</ele>
        <time>2020-09-21T09:30:47Z</time>
      </trkpt>
      <trkpt lat="52.17724" lon="4.4980564">
        <ele>2200.0</ele>
        <time>2020-09-21T09:30:48Z</time>
      </trkpt>
      <trkpt lat="52.177254" lon="4.4981027">
        <ele>2200.0</ele>
        <time>2020-09-21T09:30:49Z</time>
      </trkpt>
      <trkpt lat="52.17727" lon="4.498148">
        <ele>2200.0</ele>
        <time>2020-09-21T09:30:50Z</time>
      </trkpt>
      <trkpt lat="52.177284" lon="4.498191">
        <ele>2200.0</ele>
        <time>2020-09-21T09:30:51Z</time>
      </trkpt>
      <trkpt lat="52.1773" lon="4.498231">
        <ele>2200.0</ele>
        <time>2020-09-21T09:30:52Z</time>
      </trkpt>
      <trkpt lat="52.177315" lon="4.4982705">
        <ele>2200.0</ele>
        <time>2020-09-21T09:30:53Z</time>
      </trkpt>
      <trkpt lat="52.177338" lon="4.4983125">
        <ele>2200.0</ele>
        <time>2020-09-21T09:30:54Z</time>
      </trkpt>
      <trkpt lat="52.177353" lon="4.4983544">
        <ele>2200.0</ele>
        <time>2020-09-21T09:30:56Z</time>
      </trkpt>
      <trkpt lat="52.17737" lon="4.4983983">
        <ele>2200.0</ele>
        <time>2020-09-21T09:30:56Z</time>
      </trkpt>
      <trkpt lat="52.177383" lon="4.4984417">
        <ele>2200.0</ele>
        <time>2020-09-21T09:30:57Z</time>
      </trkpt>
      <trkpt lat="52.177402" lon="4.4984865">
        <ele>2200.0</ele>
        <time>2020-09-21T09:30:58Z</time>
      </trkpt>
      <trkpt lat="52.177418" lon="4.49853">
        <ele>2200.0</ele>
        <time>2020-09-21T09:30:59Z</time>
      </trkpt>
      <trkpt lat="52.177437" lon="4.498575">
        <ele>2200.0</ele>
        <time>2020-09-21T09:31:00Z</time>
      </trkpt>
      <trkpt lat="52.177456" lon="4.498617">
        <ele>2200.0</ele>
        <time>2020-09-21T09:31:01Z</time>
      </trkpt>
      <trkpt lat="52.177475" lon="4.4986563">
        <ele>2200.0</ele>
        <time>2020-09-21T09:31:02Z</time>
      </trkpt>
      <trkpt lat="52.177494" lon="4.498696">
        <ele>2200.0</ele>
        <time>2020-09-21T09:31:03Z</time>
      </trkpt>
      <trkpt lat="52.17751" lon="4.498738">
        <ele>2200.0</ele>
        <time>2020-09-21T09:31:04Z</time>
      </trkpt>
      <trkpt lat="52.177525" lon="4.4987774">
        <ele>2200.0</ele>
        <time>2020-09-21T09:31:06Z</time>
      </trkpt>
      <trkpt lat="52.17754" lon="4.4988165">
        <ele>2200.0</ele>
        <time>2020-09-21T09:31:06Z</time>
      </trkpt>
      <trkpt lat="52.177555" lon="4.4988546">
        <ele>2200.0</ele>
        <time>2020-09-21T09:31:07Z</time>
      </trkpt>
      <trkpt lat="52.177567" lon="4.4988923">
        <ele>2200.0</ele>
        <time>2020-09-21T09:31:08Z</time>
      </trkpt>
      <trkpt lat="52.177578" lon="4.49893">
        <ele>2200.0</ele>
        <time>2020-09-21T09:31:09Z</time>
      </trkpt>
      <trkpt lat="52.177593" lon="4.49897">
        <ele>2200.0</ele>
        <time>2020-09-21T09:31:10Z</time>
      </trkpt>
      <trkpt lat="52.17761" lon="4.499009">
        <ele>2200.0</ele>
        <time>2020-09-21T09:31:11Z</time>
      </trkpt>
      <trkpt lat="52.177616" lon="4.499048">
        <ele>2200.0</ele>
        <time>2020-09-21T09:31:12Z</time>
      </trkpt>
      <trkpt lat="52.17763" lon="4.499085">
        <ele>2200.0</ele>
        <time>2020-09-21T09:31:13Z</time>
      </trkpt>
      <trkpt lat="52.17765" lon="4.499121">
        <ele>2200.0</ele>
        <time>2020-09-21T09:31:14Z</time>
      </trkpt>
      <trkpt lat="52.177666" lon="4.499152">
        <ele>2200.0</ele>
        <time>2020-09-21T09:31:15Z</time>
      </trkpt>
      <trkpt lat="52.177685" lon="4.499183">
        <ele>2200.0</ele>
        <time>2020-09-21T09:31:17Z</time>
      </trkpt>
      <trkpt lat="52.177704" lon="4.499214">
        <ele>2200.0</ele>
        <time>2020-09-21T09:31:17Z</time>
      </trkpt>
      <trkpt lat="52.177727" lon="4.499246">
        <ele>2200.0</ele>
        <time>2020-09-21T09:31:18Z</time>
      </trkpt>
      <trkpt lat="52.177746" lon="4.4992805">
        <ele>2200.0</ele>
        <time>2020-09-21T09:31:19Z</time>
      </trkpt>
      <trkpt lat="52.177765" lon="4.4993186">
        <ele>2200.0</ele>
        <time>2020-09-21T09:31:20Z</time>
      </trkpt>
      <trkpt lat="52.177788" lon="4.4993563">
        <ele>2200.0</ele>
        <time>2020-09-21T09:31:21Z</time>
      </trkpt>
      <trkpt lat="52.177807" lon="4.4993944">
        <ele>2200.0</ele>
        <time>2020-09-21T09:31:22Z</time>
      </trkpt>
      <trkpt lat="52.177822" lon="4.4994335">
        <ele>2200.0</ele>
        <time>2020-09-21T09:31:23Z</time>
      </trkpt>
      <trkpt lat="52.177837" lon="4.499475">
        <ele>2200.0</ele>
        <time>2020-09-21T09:31:24Z</time>
      </trkpt>
      <trkpt lat="52.177853" lon="4.499518">
        <ele>2200.0</ele>
        <time>2020-09-21T09:31:25Z</time>
      </trkpt>
      <trkpt lat="52.177868" lon="4.499562">
        <ele>2200.0</ele>
        <time>2020-09-21T09:31:26Z</time>
      </trkpt>
      <trkpt lat="52.17788" lon="4.499607">
        <ele>2200.0</ele>
        <time>2020-09-21T09:31:27Z</time>
      </trkpt>
      <trkpt lat="52.17789" lon="4.4996533">
        <ele>2200.0</ele>
        <time>2020-09-21T09:31:29Z</time>
      </trkpt>
      <trkpt lat="52.177906" lon="4.4996996">
        <ele>2200.0</ele>
        <time>2020-09-21T09:31:29Z</time>
      </trkpt>
      <trkpt lat="52.177914" lon="4.4997497">
        <ele>2200.0</ele>
        <time>2020-09-21T09:31:30Z</time>
      </trkpt>
      <trkpt lat="52.17793" lon="4.499798">
        <ele>2200.0</ele>
        <time>2020-09-21T09:31:31Z</time>
      </trkpt>
      <trkpt lat="52.17794" lon="4.499844">
        <ele>2200.0</ele>
        <time>2020-09-21T09:31:32Z</time>
      </trkpt>
      <trkpt lat="52.177956" lon="4.4998894">
        <ele>2200.0</ele>
        <time>2020-09-21T09:31:33Z</time>
      </trkpt>
      <trkpt lat="52.177975" lon="4.499936">
        <ele>2200.0</ele>
        <time>2020-09-21T09:31:34Z</time>
      </trkpt>
      <trkpt lat="52.17799" lon="4.4999847">
        <ele>2200.0</ele>
        <time>2020-09-21T09:31:35Z</time>
      </trkpt>
      <trkpt lat="52.178017" lon="4.5000367">
        <ele>2200.0</ele>
        <time>2020-09-21T09:31:36Z</time>
      </trkpt>
      <trkpt lat="52.178043" lon="4.5000877">
        <ele>2200.0</ele>
        <time>2020-09-21T09:31:38Z</time>
      </trkpt>
      <trkpt lat="52.17807" lon="4.5001388">
        <ele>2200.0</ele>
        <time>2020-09-21T09:31:38Z</time>
      </trkpt>
      <trkpt lat="52.17809" lon="4.5001903">
        <ele>2200.0</ele>
        <time>2020-09-21T09:31:39Z</time>
      </trkpt>
      <trkpt lat="52.178104" lon="4.500244">
        <ele>2200.0</ele>
        <time>2020-09-21T09:31:40Z</time>
      </trkpt>
      <trkpt lat="52.178123" lon="4.500301">
        <ele>2200.0</ele>
        <time>2020-09-21T09:31:41Z</time>
      </trkpt>
      <trkpt lat="52.178146" lon="4.50036">
        <ele>2200.0</ele>
        <time>2020-09-21T09:31:41Z</time>
      </trkpt>
      <trkpt lat="52.17817" lon="4.5004196">
        <ele>2200.0</ele>
        <time>2020-09-21T09:31:42Z</time>
      </trkpt>
      <trkpt lat="52.178196" lon="4.5004807">
        <ele>2200.0</ele>
        <time>2020-09-21T09:31:43Z</time>
      </trkpt>
      <trkpt lat="52.17822" lon="4.5005403">
        <ele>2200.0</ele>
        <time>2020-09-21T09:31:44Z</time>
      </trkpt>
      <trkpt lat="52.17824" lon="4.500597">
        <ele>2200.0</ele>
        <time>2020-09-21T09:31:45Z</time>
      </trkpt>
      <trkpt lat="52.17827" lon="4.5006533">
        <ele>2200.0</ele>
        <time>2020-09-21T09:31:46Z</time>
      </trkpt>
      <trkpt lat="52.1783" lon="4.5007133">
        <ele>2200.0</ele>
        <time>2020-09-21T09:31:47Z</time>
      </trkpt>
      <trkpt lat="52.178326" lon="4.5007787">
        <ele>2200.0</ele>
        <time>2020-09-21T09:31:48Z</time>
      </trkpt>
      <trkpt lat="52.17835" lon="4.500842">
        <ele>2200.0</ele>
        <time>2020-09-21T09:31:49Z</time>
      </trkpt>
      <trkpt lat="52.178375" lon="4.5009046">
        <ele>2200.0</ele>
        <time>2020-09-21T09:31:50Z</time>
      </trkpt>
      <trkpt lat="52.178394" lon="4.500959">
        <ele>2200.0</ele>
        <time>2020-09-21T09:31:52Z</time>
      </trkpt>
      <trkpt lat="52.178413" lon="4.501006">
        <ele>2200.0</ele>
        <time>2020-09-21T09:31:52Z</time>
      </trkpt>
      <trkpt lat="52.17843" lon="4.501049">
        <ele>2200.0</ele>
        <time>2020-09-21T09:31:53Z</time>
      </trkpt>
      <trkpt lat="52.178444" lon="4.5010962">
        <ele>2200.0</ele>
        <time>2020-09-21T09:31:54Z</time>
      </trkpt>
      <trkpt lat="52.178463" lon="4.501141">
        <ele>2200.0</ele>
        <time>2020-09-21T09:31:55Z</time>
      </trkpt>
      <trkpt lat="52.17848" lon="4.5011883">
        <ele>2200.0</ele>
        <time>2020-09-21T09:31:56Z</time>
      </trkpt>
      <trkpt lat="52.178493" lon="4.5012355">
        <ele>2200.0</ele>
        <time>2020-09-21T09:31:57Z</time>
      </trkpt>
      <trkpt lat="52.17851" lon="4.5012846">
        <ele>2200.0</ele>
        <time>2020-09-21T09:31:58Z</time>
      </trkpt>
      <trkpt lat="52.17852" lon="4.501334">
        <ele>2200.0</ele>
        <time>2020-09-21T09:31:59Z</time>
      </trkpt>
      <trkpt lat="52.178528" lon="4.5013833">
        <ele>2200.0</ele>
        <time>2020-09-21T09:32:00Z</time>
      </trkpt>
      <trkpt lat="52.178543" lon="4.5014296">
        <ele>2200.0</ele>
        <time>2020-09-21T09:32:01Z</time>
      </trkpt>
      <trkpt lat="52.17856" lon="4.501475">
        <ele>2200.0</ele>
        <time>2020-09-21T09:32:02Z</time>
      </trkpt>
      <trkpt lat="52.17858" lon="4.5015182">
        <ele>2200.0</ele>
        <time>2020-09-21T09:32:03Z</time>
      </trkpt>
      <trkpt lat="52.178596" lon="4.501561">
        <ele>2200.0</ele>
        <time>2020-09-21T09:32:04Z</time>
      </trkpt>
      <trkpt lat="52.17861" lon="4.501605">
        <ele>2200.0</ele>
        <time>2020-09-21T09:32:05Z</time>
      </trkpt>
      <trkpt lat="52.178627" lon="4.5016494">
        <ele>2200.0</ele>
        <time>2020-09-21T09:32:06Z</time>
      </trkpt>
      <trkpt lat="52.178642" lon="4.5016966">
        <ele>2200.0</ele>
        <time>2020-09-21T09:32:07Z</time>
      </trkpt>
      <trkpt lat="52.178658" lon="4.501743">
        <ele>2200.0</ele>
        <time>2020-09-21T09:32:08Z</time>
      </trkpt>
      <trkpt lat="52.178673" lon="4.501792">
        <ele>2200.0</ele>
        <time>2020-09-21T09:32:09Z</time>
      </trkpt>
      <trkpt lat="52.178688" lon="4.501838">
        <ele>2200.0</ele>
        <time>2020-09-21T09:32:10Z</time>
      </trkpt>
      <trkpt lat="52.178703" lon="4.501888">
        <ele>2200.0</ele>
        <time>2020-09-21T09:32:11Z</time>
      </trkpt>
      <trkpt lat="52.17872" lon="4.5019403">
        <ele>2200.0</ele>
        <time>2020-09-21T09:32:13Z</time>
      </trkpt>
      <trkpt lat="52.178738" lon="4.501992">
        <ele>2200.0</ele>
        <time>2020-09-21T09:32:13Z</time>
      </trkpt>
      <trkpt lat="52.17876" lon="4.502043">
        <ele>2200.0</ele>
        <time>2020-09-21T09:32:14Z</time>
      </trkpt>
      <trkpt lat="52.17878" lon="4.5020914">
        <ele>2200.0</ele>
        <time>2020-09-21T09:32:15Z</time>
      </trkpt>
      <trkpt lat="52.178802" lon="4.502138">
        <ele>2200.0</ele>
        <time>2020-09-21T09:32:16Z</time>
      </trkpt>
      <trkpt lat="52.178818" lon="4.502184">
        <ele>2200.0</ele>
        <time>2020-09-21T09:32:17Z</time>
      </trkpt>
      <trkpt lat="52.178833" lon="4.5022264">
        <ele>2200.0</ele>
        <time>2020-09-21T09:32:18Z</time>
      </trkpt>
      <trkpt lat="52.17884" lon="4.50227">
        <ele>2200.0</ele>
        <time>2020-09-21T09:32:19Z</time>
      </trkpt>
      <trkpt lat="52.178856" lon="4.502315">
        <ele>2200.0</ele>
        <time>2020-09-21T09:32:20Z</time>
      </trkpt>
      <trkpt lat="52.17887" lon="4.5023627">
        <ele>2200.0</ele>
        <time>2020-09-21T09:32:21Z</time>
      </trkpt>
      <trkpt lat="52.178894" lon="4.5024085">
        <ele>2200.0</ele>
        <time>2020-09-21T09:32:22Z</time>
      </trkpt>
      <trkpt lat="52.178913" lon="4.5024543">
        <ele>2200.0</ele>
        <time>2020-09-21T09:32:23Z</time>
      </trkpt>
      <trkpt lat="52.178932" lon="4.502502">
        <ele>2200.0</ele>
        <time>2020-09-21T09:32:24Z</time>
      </trkpt>
      <trkpt lat="52.178955" lon="4.5025487">
        <ele>2200.0</ele>
        <time>2020-09-21T09:32:25Z</time>
      </trkpt>
      <trkpt lat="52.17897" lon="4.502595">
        <ele>2200.0</ele>
        <time>2020-09-21T09:32:26Z</time>
      </trkpt>
      <trkpt lat="52.17899" lon="4.5026393">
        <ele>2200.0</ele>
        <time>2020-09-21T09:32:27Z</time>
      </trkpt>
      <trkpt lat="52.179012" lon="4.5026836">
        <ele>2200.0</ele>
        <time>2020-09-21T09:32:28Z</time>
      </trkpt>
      <trkpt lat="52.17903" lon="4.502727">
        <ele>2200.0</ele>
        <time>2020-09-21T09:32:29Z</time>
      </trkpt>
      <trkpt lat="52.17905" lon="4.50277">
        <ele>2200.0</ele>
        <time>2020-09-21T09:32:30Z</time>
      </trkpt>
      <trkpt lat="52.179077" lon="4.502812">
        <ele>2200.0</ele>
        <time>2020-09-21T09:32:31Z</time>
      </trkpt>
      <trkpt lat="52.179096" lon="4.5028524">
        <ele>2200.0</ele>
        <time>2020-09-21T09:32:32Z</time>
      </trkpt>
      <trkpt lat="52.17912" lon="4.5028944">
        <ele>2200.0</ele>
        <time>2020-09-21T09:32:34Z</time>
      </trkpt>
      <trkpt lat="52.179134" lon="4.5029387">
        <ele>2200.0</ele>
        <time>2020-09-21T09:32:34Z</time>
      </trkpt>
      <trkpt lat="52.179153" lon="4.5029864">
        <ele>2200.0</ele>
        <time>2020-09-21T09:32:35Z</time>
      </trkpt>
      <trkpt lat="52.179165" lon="4.5030394">
        <ele>2200.0</ele>
        <time>2020-09-21T09:32:36Z</time>
      </trkpt>
      <trkpt lat="52.179173" lon="4.503093">
        <ele>2200.0</ele>
        <time>2020-09-21T09:32:37Z</time>
      </trkpt>
      <trkpt lat="52.179184" lon="4.503143">
        <ele>2200.0</ele>
        <time>2020-09-21T09:32:38Z</time>
      </trkpt>
      <trkpt lat="52.17919" lon="4.5031915">
        <ele>2200.0</ele>
        <time>2020-09-21T09:32:39Z</time>
      </trkpt>
      <trkpt lat="52.1792" lon="4.5032377">
        <ele>2200.0</ele>
        <time>2020-09-21T09:32:40Z</time>
      </trkpt>
      <trkpt lat="52.179207" lon="4.5032806">
        <ele>2200.0</ele>
        <time>2020-09-21T09:32:41Z</time>
      </trkpt>
      <trkpt lat="52.17921" lon="4.5033293">
        <ele>2200.0</ele>
        <time>2020-09-21T09:32:42Z</time>
      </trkpt>
      <trkpt lat="52.179214" lon="4.503384">
        <ele>2200.0</ele>
        <time>2020-09-21T09:32:43Z</time>
      </trkpt>
      <trkpt lat="52.179222" lon="4.503441">
        <ele>2200.0</ele>
        <time>2020-09-21T09:32:44Z</time>
      </trkpt>
      <trkpt lat="52.179222" lon="4.5034986">
        <ele>2200.0</ele>
        <time>2020-09-21T09:32:45Z</time>
      </trkpt>
      <trkpt lat="52.179222" lon="4.5035563">
        <ele>2200.0</ele>
        <time>2020-09-21T09:32:46Z</time>
      </trkpt>
      <trkpt lat="52.179226" lon="4.5036116">
        <ele>2200.0</ele>
        <time>2020-09-21T09:32:47Z</time>
      </trkpt>
      <trkpt lat="52.179226" lon="4.5036635">
        <ele>2200.0</ele>
        <time>2020-09-21T09:32:48Z</time>
      </trkpt>
      <trkpt lat="52.17923" lon="4.5037136">
        <ele>2200.0</ele>
        <time>2020-09-21T09:32:49Z</time>
      </trkpt>
      <trkpt lat="52.17923" lon="4.503764">
        <ele>2200.0</ele>
        <time>2020-09-21T09:32:50Z</time>
      </trkpt>
      <trkpt lat="52.179237" lon="4.5038133">
        <ele>2200.0</ele>
        <time>2020-09-21T09:32:52Z</time>
      </trkpt>
      <trkpt lat="52.179237" lon="4.5038624">
        <ele>2200.0</ele>
        <time>2020-09-21T09:32:52Z</time>
      </trkpt>
      <trkpt lat="52.17924" lon="4.5039096">
        <ele>2200.0</ele>
        <time>2020-09-21T09:32:53Z</time>
      </trkpt>
      <trkpt lat="52.179245" lon="4.5039563">
        <ele>2200.0</ele>
        <time>2020-09-21T09:32:54Z</time>
      </trkpt>
      <trkpt lat="52.179253" lon="4.504006">
        <ele>2200.0</ele>
        <time>2020-09-21T09:32:55Z</time>
      </trkpt>
      <trkpt lat="52.179256" lon="4.504056">
        <ele>2200.0</ele>
        <time>2020-09-21T09:32:56Z</time>
      </trkpt>
      <trkpt lat="52.17926" lon="4.5041046">
        <ele>2200.0</ele>
        <time>2020-09-21T09:32:57Z</time>
      </trkpt>
      <trkpt lat="52.179268" lon="4.504155">
        <ele>2200.0</ele>
        <time>2020-09-21T09:32:58Z</time>
      </trkpt>
      <trkpt lat="52.17927" lon="4.504205">
        <ele>2200.0</ele>
        <time>2020-09-21T09:32:59Z</time>
      </trkpt>
      <trkpt lat="52.179276" lon="4.504253">
        <ele>2200.0</ele>
        <time>2020-09-21T09:33:00Z</time>
      </trkpt>
      <trkpt lat="52.179283" lon="4.504298">
        <ele>2200.0</ele>
        <time>2020-09-21T09:33:01Z</time>
      </trkpt>
      <trkpt lat="52.179287" lon="4.504341">
        <ele>2200.0</ele>
        <time>2020-09-21T09:33:02Z</time>
      </trkpt>
      <trkpt lat="52.17929" lon="4.5043855">
        <ele>2200.0</ele>
        <time>2020-09-21T09:33:03Z</time>
      </trkpt>
      <trkpt lat="52.1793" lon="4.5044293">
        <ele>2200.0</ele>
        <time>2020-09-21T09:33:04Z</time>
      </trkpt>
      <trkpt lat="52.1793" lon="4.50447">
        <ele>2200.0</ele>
        <time>2020-09-21T09:33:05Z</time>
      </trkpt>
      <trkpt lat="52.1793" lon="4.5045023">
        <ele>2200.0</ele>
        <time>2020-09-21T09:33:06Z</time>
      </trkpt>
      <trkpt lat="52.179287" lon="4.504527">
        <ele>2200.0</ele>
        <time>2020-09-21T09:33:07Z</time>
      </trkpt>
      <trkpt lat="52.179283" lon="4.50454">
        <ele>2200.0</ele>
        <time>2020-09-21T09:33:08Z</time>
      </trkpt>
      <trkpt lat="52.179268" lon="4.5045447">
        <ele>2200.0</ele>
        <time>2020-09-21T09:33:09Z</time>
      </trkpt>
      <trkpt lat="52.179256" lon="4.5045447">
        <ele>2200.0</ele>
        <time>2020-09-21T09:33:10Z</time>
      </trkpt>
      <trkpt lat="52.179237" lon="4.504548">
        <ele>2200.0</ele>
        <time>2020-09-21T09:33:11Z</time>
      </trkpt>
      <trkpt lat="52.179222" lon="4.50455">
        <ele>2200.0</ele>
        <time>2020-09-21T09:33:13Z</time>
      </trkpt>
      <trkpt lat="52.179207" lon="4.504551">
        <ele>2200.0</ele>
        <time>2020-09-21T09:33:13Z</time>
      </trkpt>
      <trkpt lat="52.17919" lon="4.5045514">
        <ele>2200.0</ele>
        <time>2020-09-21T09:33:14Z</time>
      </trkpt>
      <trkpt lat="52.179173" lon="4.5045533">
        <ele>2200.0</ele>
        <time>2020-09-21T09:33:15Z</time>
      </trkpt>
      <trkpt lat="52.179157" lon="4.504557">
        <ele>2200.0</ele>
        <time>2020-09-21T09:33:16Z</time>
      </trkpt>
      <trkpt lat="52.179142" lon="4.5045633">
        <ele>2200.0</ele>
        <time>2020-09-21T09:33:17Z</time>
      </trkpt>
      <trkpt lat="52.179127" lon="4.5045695">
        <ele>2200.0</ele>
        <time>2020-09-21T09:33:18Z</time>
      </trkpt>
      <trkpt lat="52.179108" lon="4.5045743">
        <ele>2200.0</ele>
        <time>2020-09-21T09:33:19Z</time>
      </trkpt>
      <trkpt lat="52.17909" lon="4.5045767">
        <ele>2200.0</ele>
        <time>2020-09-21T09:33:20Z</time>
      </trkpt>
      <trkpt lat="52.17906" lon="4.504577">
        <ele>2200.0</ele>
        <time>2020-09-21T09:33:21Z</time>
      </trkpt>
      <trkpt lat="52.179035" lon="4.504579">
        <ele>2200.0</ele>
        <time>2020-09-21T09:33:22Z</time>
      </trkpt>
      <trkpt lat="52.179012" lon="4.504583">
        <ele>2200.0</ele>
        <time>2020-09-21T09:33:24Z</time>
      </trkpt>
      <trkpt lat="52.17899" lon="4.5045886">
        <ele>2200.0</ele>
        <time>2020-09-21T09:33:24Z</time>
      </trkpt>
      <trkpt lat="52.17897" lon="4.5045986">
        <ele>2200.0</ele>
        <time>2020-09-21T09:33:25Z</time>
      </trkpt>
      <trkpt lat="52.178955" lon="4.50461">
        <ele>2200.0</ele>
        <time>2020-09-21T09:33:26Z</time>
      </trkpt>
      <trkpt lat="52.17894" lon="4.5046244">
        <ele>2200.0</ele>
        <time>2020-09-21T09:33:27Z</time>
      </trkpt>
      <trkpt lat="52.17893" lon="4.5046406">
        <ele>2200.0</ele>
        <time>2020-09-21T09:33:28Z</time>
      </trkpt>
      <trkpt lat="52.178917" lon="4.504657">
        <ele>2200.0</ele>
        <time>2020-09-21T09:33:29Z</time>
      </trkpt>
      <trkpt lat="52.178913" lon="4.5046725">
        <ele>2200.0</ele>
        <time>2020-09-21T09:33:30Z</time>
      </trkpt>
      <trkpt lat="52.1789" lon="4.504691">
        <ele>2200.0</ele>
        <time>2020-09-21T09:33:31Z</time>
      </trkpt>
      <trkpt lat="52.1789" lon="4.504713">
        <ele>2200.0</ele>
        <time>2020-09-21T09:33:32Z</time>
      </trkpt>
      <trkpt lat="52.178898" lon="4.5047326">
        <ele>2200.0</ele>
        <time>2020-09-21T09:33:33Z</time>
      </trkpt>
      <trkpt lat="52.178886" lon="4.504747">
        <ele>2200.0</ele>
        <time>2020-09-21T09:33:34Z</time>
      </trkpt>
      <trkpt lat="52.178883" lon="4.5047545">
        <ele>2200.0</ele>
        <time>2020-09-21T09:33:35Z</time>
      </trkpt>
      <trkpt lat="52.17887" lon="4.504759">
        <ele>2200.0</ele>
        <time>2020-09-21T09:33:36Z</time>
      </trkpt>
      <trkpt lat="52.178867" lon="4.504764">
        <ele>2200.0</ele>
        <time>2020-09-21T09:33:37Z</time>
      </trkpt>
      <trkpt lat="52.178864" lon="4.504769">
        <ele>2200.0</ele>
        <time>2020-09-21T09:33:38Z</time>
      </trkpt>
      <trkpt lat="52.178856" lon="4.5047727">
        <ele>2200.0</ele>
        <time>2020-09-21T09:33:39Z</time>
      </trkpt>
      <trkpt lat="52.178852" lon="4.504777">
        <ele>2200.0</ele>
        <time>2020-09-21T09:33:40Z</time>
      </trkpt>
      <trkpt lat="52.178852" lon="4.5047784">
        <ele>2200.0</ele>
        <time>2020-09-21T09:33:41Z</time>
      </trkpt>
      <trkpt lat="52.17885" lon="4.5047803">
        <ele>2200.0</ele>
        <time>2020-09-21T09:33:42Z</time>
      </trkpt>
      <trkpt lat="52.17885" lon="4.504782">
        <ele>2200.0</ele>
        <time>2020-09-21T09:33:43Z</time>
      </trkpt>
      <trkpt lat="52.178852" lon="4.5047793">
        <ele>2200.0</ele>
        <time>2020-09-21T09:33:45Z</time>
      </trkpt>
      <trkpt lat="52.178852" lon="4.504776">
        <ele>2200.0</ele>
        <time>2020-09-21T09:33:46Z</time>
      </trkpt>
      <trkpt lat="52.178852" lon="4.504772">
        <ele>2200.0</ele>
        <time>2020-09-21T09:33:47Z</time>
      </trkpt>
      <trkpt lat="52.178852" lon="4.5047674">
        <ele>2200.0</ele>
        <time>2020-09-21T09:33:48Z</time>
      </trkpt>
      <trkpt lat="52.178852" lon="4.504764">
        <ele>2200.0</ele>
        <time>2020-09-21T09:33:49Z</time>
      </trkpt>
      <trkpt lat="52.17885" lon="4.504763">
        <ele>2200.0</ele>
        <time>2020-09-21T09:33:50Z</time>
      </trkpt>
      <trkpt lat="52.17884" lon="4.5047574">
        <ele>2200.0</ele>
        <time>2020-09-21T09:33:54Z</time>
      </trkpt>
      <trkpt lat="52.17885" lon="4.5047536">
        <ele>2200.0</ele>
        <time>2020-09-21T09:33:55Z</time>
      </trkpt>
      <trkpt lat="52.178852" lon="4.5047464">
        <ele>2200.0</ele>
        <time>2020-09-21T09:33:56Z</time>
      </trkpt>
      <trkpt lat="52.178864" lon="4.504735">
        <ele>2200.0</ele>
        <time>2020-09-21T09:33:57Z</time>
      </trkpt>
      <trkpt lat="52.178867" lon="4.5047235">
        <ele>2200.0</ele>
        <time>2020-09-21T09:33:58Z</time>
      </trkpt>
      <trkpt lat="52.17888" lon="4.5047154">
        <ele>2200.0</ele>
        <time>2020-09-21T09:33:59Z</time>
      </trkpt>
      <trkpt lat="52.178886" lon="4.5047116">
        <ele>2200.0</ele>
        <time>2020-09-21T09:34:00Z</time>
      </trkpt>
      <trkpt lat="52.178898" lon="4.504709">
        <ele>2200.0</ele>
        <time>2020-09-21T09:34:01Z</time>
      </trkpt>
      <trkpt lat="52.1789" lon="4.504705">
        <ele>2200.0</ele>
        <time>2020-09-21T09:34:02Z</time>
      </trkpt>
      <trkpt lat="52.178913" lon="4.504699">
        <ele>2200.0</ele>
        <time>2020-09-21T09:34:03Z</time>
      </trkpt>
      <trkpt lat="52.178917" lon="4.504692">
        <ele>2200.0</ele>
        <time>2020-09-21T09:34:05Z</time>
      </trkpt>
      <trkpt lat="52.17893" lon="4.5046854">
        <ele>2200.0</ele>
        <time>2020-09-21T09:34:05Z</time>
      </trkpt>
      <trkpt lat="52.178932" lon="4.5046797">
        <ele>2200.0</ele>
        <time>2020-09-21T09:34:06Z</time>
      </trkpt>
      <trkpt lat="52.178947" lon="4.5046744">
        <ele>2200.0</ele>
        <time>2020-09-21T09:34:07Z</time>
      </trkpt>
      <trkpt lat="52.178963" lon="4.5046706">
        <ele>2200.0</ele>
        <time>2020-09-21T09:34:08Z</time>
      </trkpt>
      <trkpt lat="52.178978" lon="4.5046687">
        <ele>2200.0</ele>
        <time>2020-09-21T09:34:09Z</time>
      </trkpt>
      <trkpt lat="52.179" lon="4.504668">
        <ele>2200.0</ele>
        <time>2020-09-21T09:34:10Z</time>
      </trkpt>
      <trkpt lat="52.179016" lon="4.5046697">
        <ele>2200.0</ele>
        <time>2020-09-21T09:34:11Z</time>
      </trkpt>
      <trkpt lat="52.179035" lon="4.5046706">
        <ele>2200.0</ele>
        <time>2020-09-21T09:34:12Z</time>
      </trkpt>
      <trkpt lat="52.179058" lon="4.5046697">
        <ele>2200.0</ele>
        <time>2020-09-21T09:34:13Z</time>
      </trkpt>
      <trkpt lat="52.179077" lon="4.5046678">
        <ele>2200.0</ele>
        <time>2020-09-21T09:34:14Z</time>
      </trkpt>
      <trkpt lat="52.179096" lon="4.5046663">
        <ele>2200.0</ele>
        <time>2020-09-21T09:34:15Z</time>
      </trkpt>
      <trkpt lat="52.17911" lon="4.5046663">
        <ele>2200.0</ele>
        <time>2020-09-21T09:34:16Z</time>
      </trkpt>
      <trkpt lat="52.179127" lon="4.504667">
        <ele>2200.0</ele>
        <time>2020-09-21T09:34:17Z</time>
      </trkpt>
      <trkpt lat="52.179142" lon="4.504667">
        <ele>2200.0</ele>
        <time>2020-09-21T09:34:18Z</time>
      </trkpt>
      <trkpt lat="52.179165" lon="4.504669">
        <ele>2200.0</ele>
        <time>2020-09-21T09:34:19Z</time>
      </trkpt>
      <trkpt lat="52.17919" lon="4.5046754">
        <ele>2200.0</ele>
        <time>2020-09-21T09:34:20Z</time>
      </trkpt>
      <trkpt lat="52.17921" lon="4.504688">
        <ele>2200.0</ele>
        <time>2020-09-21T09:34:21Z</time>
      </trkpt>
      <trkpt lat="52.179237" lon="4.504709">
        <ele>2200.0</ele>
        <time>2020-09-21T09:34:22Z</time>
      </trkpt>
      <trkpt lat="52.179256" lon="4.5047355">
        <ele>2200.0</ele>
        <time>2020-09-21T09:34:23Z</time>
      </trkpt>
      <trkpt lat="52.17927" lon="4.504767">
        <ele>2200.0</ele>
        <time>2020-09-21T09:34:24Z</time>
      </trkpt>
      <trkpt lat="52.179287" lon="4.5048018">
        <ele>2200.0</ele>
        <time>2020-09-21T09:34:26Z</time>
      </trkpt>
      <trkpt lat="52.1793" lon="4.504838">
        <ele>2200.0</ele>
        <time>2020-09-21T09:34:26Z</time>
      </trkpt>
      <trkpt lat="52.179314" lon="4.5048776">
        <ele>2200.0</ele>
        <time>2020-09-21T09:34:27Z</time>
      </trkpt>
      <trkpt lat="52.17932" lon="4.504916">
        <ele>2200.0</ele>
        <time>2020-09-21T09:34:28Z</time>
      </trkpt>
      <trkpt lat="52.179333" lon="4.504956">
        <ele>2200.0</ele>
        <time>2020-09-21T09:34:29Z</time>
      </trkpt>
      <trkpt lat="52.179344" lon="4.5049963">
        <ele>2200.0</ele>
        <time>2020-09-21T09:34:30Z</time>
      </trkpt>
      <trkpt lat="52.17936" lon="4.5050373">
        <ele>2200.0</ele>
        <time>2020-09-21T09:34:31Z</time>
      </trkpt>
      <trkpt lat="52.17938" lon="4.5050793">
        <ele>2200.0</ele>
        <time>2020-09-21T09:34:32Z</time>
      </trkpt>
      <trkpt lat="52.1794" lon="4.50512">
        <ele>2200.0</ele>
        <time>2020-09-21T09:34:33Z</time>
      </trkpt>
      <trkpt lat="52.17942" lon="4.505161">
        <ele>2200.0</ele>
        <time>2020-09-21T09:34:34Z</time>
      </trkpt>
      <trkpt lat="52.179447" lon="4.5052013">
        <ele>2200.0</ele>
        <time>2020-09-21T09:34:35Z</time>
      </trkpt>
      <trkpt lat="52.179466" lon="4.5052443">
        <ele>2200.0</ele>
        <time>2020-09-21T09:34:36Z</time>
      </trkpt>
      <trkpt lat="52.179493" lon="4.505293">
        <ele>2200.0</ele>
        <time>2020-09-21T09:34:37Z</time>
      </trkpt>
      <trkpt lat="52.179516" lon="4.505341">
        <ele>2200.0</ele>
        <time>2020-09-21T09:34:38Z</time>
      </trkpt>
      <trkpt lat="52.17954" lon="4.5053883">
        <ele>2200.0</ele>
        <time>2020-09-21T09:34:39Z</time>
      </trkpt>
      <trkpt lat="52.179546" lon="4.505432">
        <ele>2200.0</ele>
        <time>2020-09-21T09:34:40Z</time>
      </trkpt>
      <trkpt lat="52.17956" lon="4.505476">
        <ele>2200.0</ele>
        <time>2020-09-21T09:34:41Z</time>
      </trkpt>
      <trkpt lat="52.17958" lon="4.5055246">
        <ele>2200.0</ele>
        <time>2020-09-21T09:34:42Z</time>
      </trkpt>
      <trkpt lat="52.179596" lon="4.5055723">
        <ele>2200.0</ele>
        <time>2020-09-21T09:34:43Z</time>
      </trkpt>
      <trkpt lat="52.17961" lon="4.5056205">
        <ele>2200.0</ele>
        <time>2020-09-21T09:34:44Z</time>
      </trkpt>
      <trkpt lat="52.17962" lon="4.5056667">
        <ele>2200.0</ele>
        <time>2020-09-21T09:34:45Z</time>
      </trkpt>
      <trkpt lat="52.179634" lon="4.5057116">
        <ele>2200.0</ele>
        <time>2020-09-21T09:34:46Z</time>
      </trkpt>
      <trkpt lat="52.17965" lon="4.505752">
        <ele>2200.0</ele>
        <time>2020-09-21T09:34:47Z</time>
      </trkpt>
      <trkpt lat="52.17966" lon="4.5057898">
        <ele>2200.0</ele>
        <time>2020-09-21T09:34:48Z</time>
      </trkpt>
      <trkpt lat="52.179672" lon="4.505825">
        <ele>2200.0</ele>
        <time>2020-09-21T09:34:49Z</time>
      </trkpt>
      <trkpt lat="52.17968" lon="4.5058618">
        <ele>2200.0</ele>
        <time>2020-09-21T09:34:50Z</time>
      </trkpt>
      <trkpt lat="52.17969" lon="4.5059">
        <ele>2200.0</ele>
        <time>2020-09-21T09:34:51Z</time>
      </trkpt>
      <trkpt lat="52.179695" lon="4.505936">
        <ele>2200.0</ele>
        <time>2020-09-21T09:34:52Z</time>
      </trkpt>
      <trkpt lat="52.179703" lon="4.505973">
        <ele>2200.0</ele>
        <time>2020-09-21T09:34:53Z</time>
      </trkpt>
      <trkpt lat="52.179707" lon="4.5060105">
        <ele>2200.0</ele>
        <time>2020-09-21T09:34:54Z</time>
      </trkpt>
      <trkpt lat="52.179718" lon="4.5060525">
        <ele>2200.0</ele>
        <time>2020-09-21T09:34:55Z</time>
      </trkpt>
      <trkpt lat="52.17972" lon="4.5060954">
        <ele>2200.0</ele>
        <time>2020-09-21T09:34:56Z</time>
      </trkpt>
      <trkpt lat="52.179726" lon="4.5061426">
        <ele>2200.0</ele>
        <time>2020-09-21T09:34:57Z</time>
      </trkpt>
      <trkpt lat="52.179737" lon="4.5061903">
        <ele>2200.0</ele>
        <time>2020-09-21T09:34:58Z</time>
      </trkpt>
      <trkpt lat="52.17975" lon="4.506238">
        <ele>2200.0</ele>
        <time>2020-09-21T09:34:59Z</time>
      </trkpt>
      <trkpt lat="52.179764" lon="4.5062876">
        <ele>2200.0</ele>
        <time>2020-09-21T09:35:00Z</time>
      </trkpt>
      <trkpt lat="52.179775" lon="4.506339">
        <ele>2200.0</ele>
        <time>2020-09-21T09:35:01Z</time>
      </trkpt>
      <trkpt lat="52.17979" lon="4.506392">
        <ele>2200.0</ele>
        <time>2020-09-21T09:35:02Z</time>
      </trkpt>
      <trkpt lat="52.17981" lon="4.5064454">
        <ele>2200.0</ele>
        <time>2020-09-21T09:35:03Z</time>
      </trkpt>
      <trkpt lat="52.17983" lon="4.506495">
        <ele>2200.0</ele>
        <time>2020-09-21T09:35:04Z</time>
      </trkpt>
      <trkpt lat="52.17985" lon="4.5065417">
        <ele>2200.0</ele>
        <time>2020-09-21T09:35:05Z</time>
      </trkpt>
      <trkpt lat="52.17987" lon="4.5065823">
        <ele>2200.0</ele>
        <time>2020-09-21T09:35:06Z</time>
      </trkpt>
      <trkpt lat="52.17989" lon="4.506623">
        <ele>2200.0</ele>
        <time>2020-09-21T09:35:07Z</time>
      </trkpt>
      <trkpt lat="52.179913" lon="4.506663">
        <ele>2200.0</ele>
        <time>2020-09-21T09:35:08Z</time>
      </trkpt>
      <trkpt lat="52.17993" lon="4.506702">
        <ele>2200.0</ele>
        <time>2020-09-21T09:35:10Z</time>
      </trkpt>
      <trkpt lat="52.179955" lon="4.5067396">
        <ele>2200.0</ele>
        <time>2020-09-21T09:35:10Z</time>
      </trkpt>
      <trkpt lat="52.17997" lon="4.506777">
        <ele>2200.0</ele>
        <time>2020-09-21T09:35:11Z</time>
      </trkpt>
      <trkpt lat="52.179985" lon="4.506816">
        <ele>2200.0</ele>
        <time>2020-09-21T09:35:12Z</time>
      </trkpt>
      <trkpt lat="52.180004" lon="4.506856">
        <ele>2200.0</ele>
        <time>2020-09-21T09:35:13Z</time>
      </trkpt>
      <trkpt lat="52.18002" lon="4.50689">
        <ele>2200.0</ele>
        <time>2020-09-21T09:35:14Z</time>
      </trkpt>
      <trkpt lat="52.18004" lon="4.5069194">
        <ele>2200.0</ele>
        <time>2020-09-21T09:35:15Z</time>
      </trkpt>
      <trkpt lat="52.18006" lon="4.506947">
        <ele>2200.0</ele>
        <time>2020-09-21T09:35:16Z</time>
      </trkpt>
      <trkpt lat="52.180084" lon="4.506979">
        <ele>2200.0</ele>
        <time>2020-09-21T09:35:17Z</time>
      </trkpt>
      <trkpt lat="52.180107" lon="4.5070095">
        <ele>2200.0</ele>
        <time>2020-09-21T09:35:18Z</time>
      </trkpt>
      <trkpt lat="52.18013" lon="4.5070376">
        <ele>2200.0</ele>
        <time>2020-09-21T09:35:19Z</time>
      </trkpt>
      <trkpt lat="52.180157" lon="4.5070677">
        <ele>2200.0</ele>
        <time>2020-09-21T09:35:20Z</time>
      </trkpt>
      <trkpt lat="52.180183" lon="4.5070977">
        <ele>2200.0</ele>
        <time>2020-09-21T09:35:21Z</time>
      </trkpt>
      <trkpt lat="52.180214" lon="4.507127">
        <ele>2200.0</ele>
        <time>2020-09-21T09:35:22Z</time>
      </trkpt>
      <trkpt lat="52.18024" lon="4.507157">
        <ele>2200.0</ele>
        <time>2020-09-21T09:35:23Z</time>
      </trkpt>
      <trkpt lat="52.180264" lon="4.5071874">
        <ele>2200.0</ele>
        <time>2020-09-21T09:35:24Z</time>
      </trkpt>
      <trkpt lat="52.18029" lon="4.5072207">
        <ele>2200.0</ele>
        <time>2020-09-21T09:35:25Z</time>
      </trkpt>
      <trkpt lat="52.18031" lon="4.507257">
        <ele>2200.0</ele>
        <time>2020-09-21T09:35:26Z</time>
      </trkpt>
      <trkpt lat="52.180332" lon="4.507294">
        <ele>2200.0</ele>
        <time>2020-09-21T09:35:27Z</time>
      </trkpt>
      <trkpt lat="52.18036" lon="4.5073314">
        <ele>2200.0</ele>
        <time>2020-09-21T09:35:28Z</time>
      </trkpt>
      <trkpt lat="52.180378" lon="4.5073705">
        <ele>2200.0</ele>
        <time>2020-09-21T09:35:30Z</time>
      </trkpt>
      <trkpt lat="52.180397" lon="4.5074124">
        <ele>2200.0</ele>
        <time>2020-09-21T09:35:30Z</time>
      </trkpt>
      <trkpt lat="52.18042" lon="4.507456">
        <ele>2200.0</ele>
        <time>2020-09-21T09:35:31Z</time>
      </trkpt>
      <trkpt lat="52.18044" lon="4.507499">
        <ele>2200.0</ele>
        <time>2020-09-21T09:35:32Z</time>
      </trkpt>
      <trkpt lat="52.180466" lon="4.5075397">
        <ele>2200.0</ele>
        <time>2020-09-21T09:35:33Z</time>
      </trkpt>
      <trkpt lat="52.180485" lon="4.5075793">
        <ele>2200.0</ele>
        <time>2020-09-21T09:35:34Z</time>
      </trkpt>
      <trkpt lat="52.1805" lon="4.507618">
        <ele>2200.0</ele>
        <time>2020-09-21T09:35:35Z</time>
      </trkpt>
      <trkpt lat="52.180515" lon="4.507655">
        <ele>2200.0</ele>
        <time>2020-09-21T09:35:36Z</time>
      </trkpt>
      <trkpt lat="52.18054" lon="4.507691">
        <ele>2200.0</ele>
        <time>2020-09-21T09:35:37Z</time>
      </trkpt>
      <trkpt lat="52.180553" lon="4.5077252">
        <ele>2200.0</ele>
        <time>2020-09-21T09:35:38Z</time>
      </trkpt>
      <trkpt lat="52.18057" lon="4.507759">
        <ele>2200.0</ele>
        <time>2020-09-21T09:35:39Z</time>
      </trkpt>
      <trkpt lat="52.180584" lon="4.5077934">
        <ele>2200.0</ele>
        <time>2020-09-21T09:35:41Z</time>
      </trkpt>
      <trkpt lat="52.180603" lon="4.5078287">
        <ele>2200.0</ele>
        <time>2020-09-21T09:35:41Z</time>
      </trkpt>
      <trkpt lat="52.18062" lon="4.507871">
        <ele>2200.0</ele>
        <time>2020-09-21T09:35:42Z</time>
      </trkpt>
      <trkpt lat="52.180637" lon="4.5079155">
        <ele>2200.0</ele>
        <time>2020-09-21T09:35:43Z</time>
      </trkpt>
      <trkpt lat="52.18066" lon="4.5079594">
        <ele>2200.0</ele>
        <time>2020-09-21T09:35:44Z</time>
      </trkpt>
      <trkpt lat="52.180683" lon="4.508">
        <ele>2200.0</ele>
        <time>2020-09-21T09:35:45Z</time>
      </trkpt>
      <trkpt lat="52.180706" lon="4.508039">
        <ele>2200.0</ele>
        <time>2020-09-21T09:35:46Z</time>
      </trkpt>
      <trkpt lat="52.180733" lon="4.5080767">
        <ele>2200.0</ele>
        <time>2020-09-21T09:35:48Z</time>
      </trkpt>
      <trkpt lat="52.180756" lon="4.508112">
        <ele>2200.0</ele>
        <time>2020-09-21T09:35:48Z</time>
      </trkpt>
      <trkpt lat="52.180782" lon="4.508147">
        <ele>2200.0</ele>
        <time>2020-09-21T09:35:49Z</time>
      </trkpt>
      <trkpt lat="52.180813" lon="4.508179">
        <ele>2200.0</ele>
        <time>2020-09-21T09:35:50Z</time>
      </trkpt>
      <trkpt lat="52.18084" lon="4.508214">
        <ele>2200.0</ele>
        <time>2020-09-21T09:35:51Z</time>
      </trkpt>
      <trkpt lat="52.180862" lon="4.5082526">
        <ele>2200.0</ele>
        <time>2020-09-21T09:35:52Z</time>
      </trkpt>
      <trkpt lat="52.18089" lon="4.5082927">
        <ele>2200.0</ele>
        <time>2020-09-21T09:35:53Z</time>
      </trkpt>
      <trkpt lat="52.180916" lon="4.508331">
        <ele>2200.0</ele>
        <time>2020-09-21T09:35:54Z</time>
      </trkpt>
      <trkpt lat="52.180935" lon="4.5083685">
        <ele>2200.0</ele>
        <time>2020-09-21T09:35:55Z</time>
      </trkpt>
      <trkpt lat="52.18096" lon="4.5084085">
        <ele>2200.0</ele>
        <time>2020-09-21T09:35:56Z</time>
      </trkpt>
      <trkpt lat="52.18098" lon="4.508449">
        <ele>2200.0</ele>
        <time>2020-09-21T09:35:56Z</time>
      </trkpt>
      <trkpt lat="52.181007" lon="4.5084844">
        <ele>2200.0</ele>
        <time>2020-09-21T09:35:57Z</time>
      </trkpt>
      <trkpt lat="52.181026" lon="4.508514">
        <ele>2200.0</ele>
        <time>2020-09-21T09:35:58Z</time>
      </trkpt>
      <trkpt lat="52.18105" lon="4.5085416">
        <ele>2200.0</ele>
        <time>2020-09-21T09:35:59Z</time>
      </trkpt>
      <trkpt lat="52.18107" lon="4.5085707">
        <ele>2200.0</ele>
        <time>2020-09-21T09:36:00Z</time>
      </trkpt>
      <trkpt lat="52.181087" lon="4.5086017">
        <ele>2200.0</ele>
        <time>2020-09-21T09:36:01Z</time>
      </trkpt>
      <trkpt lat="52.181103" lon="4.508635">
        <ele>2200.0</ele>
        <time>2020-09-21T09:36:02Z</time>
      </trkpt>
      <trkpt lat="52.181126" lon="4.50867">
        <ele>2200.0</ele>
        <time>2020-09-21T09:36:03Z</time>
      </trkpt>
      <trkpt lat="52.18114" lon="4.508705">
        <ele>2200.0</ele>
        <time>2020-09-21T09:36:04Z</time>
      </trkpt>
      <trkpt lat="52.181152" lon="4.508741">
        <ele>2200.0</ele>
        <time>2020-09-21T09:36:05Z</time>
      </trkpt>
      <trkpt lat="52.181168" lon="4.5087776">
        <ele>2200.0</ele>
        <time>2020-09-21T09:36:06Z</time>
      </trkpt>
      <trkpt lat="52.181183" lon="4.508814">
        <ele>2200.0</ele>
        <time>2020-09-21T09:36:08Z</time>
      </trkpt>
      <trkpt lat="52.1812" lon="4.508848">
        <ele>2200.0</ele>
        <time>2020-09-21T09:36:08Z</time>
      </trkpt>
      <trkpt lat="52.181213" lon="4.508881">
        <ele>2200.0</ele>
        <time>2020-09-21T09:36:09Z</time>
      </trkpt>
      <trkpt lat="52.181232" lon="4.5089154">
        <ele>2200.0</ele>
        <time>2020-09-21T09:36:10Z</time>
      </trkpt>
      <trkpt lat="52.18125" lon="4.5089517">
        <ele>2200.0</ele>
        <time>2020-09-21T09:36:11Z</time>
      </trkpt>
      <trkpt lat="52.18128" lon="4.5089874">
        <ele>2200.0</ele>
        <time>2020-09-21T09:36:12Z</time>
      </trkpt>
      <trkpt lat="52.181297" lon="4.5090246">
        <ele>2200.0</ele>
        <time>2020-09-21T09:36:13Z</time>
      </trkpt>
      <trkpt lat="52.181324" lon="4.5090632">
        <ele>2200.0</ele>
        <time>2020-09-21T09:36:14Z</time>
      </trkpt>
      <trkpt lat="52.18135" lon="4.5091">
        <ele>2200.0</ele>
        <time>2020-09-21T09:36:15Z</time>
      </trkpt>
      <trkpt lat="52.181377" lon="4.5091386">
        <ele>2200.0</ele>
        <time>2020-09-21T09:36:16Z</time>
      </trkpt>
      <trkpt lat="52.1814" lon="4.5091763">
        <ele>2200.0</ele>
        <time>2020-09-21T09:36:17Z</time>
      </trkpt>
      <trkpt lat="52.181427" lon="4.509212">
        <ele>2200.0</ele>
        <time>2020-09-21T09:36:18Z</time>
      </trkpt>
      <trkpt lat="52.181454" lon="4.509251">
        <ele>2200.0</ele>
        <time>2020-09-21T09:36:19Z</time>
      </trkpt>
      <trkpt lat="52.181477" lon="4.5092936">
        <ele>2200.0</ele>
        <time>2020-09-21T09:36:20Z</time>
      </trkpt>
      <trkpt lat="52.181503" lon="4.5093384">
        <ele>2200.0</ele>
        <time>2020-09-21T09:36:21Z</time>
      </trkpt>
      <trkpt lat="52.18153" lon="4.509383">
        <ele>2200.0</ele>
        <time>2020-09-21T09:36:22Z</time>
      </trkpt>
      <trkpt lat="52.18156" lon="4.509429">
        <ele>2200.0</ele>
        <time>2020-09-21T09:36:23Z</time>
      </trkpt>
      <trkpt lat="52.181587" lon="4.5094724">
        <ele>2200.0</ele>
        <time>2020-09-21T09:36:24Z</time>
      </trkpt>
      <trkpt lat="52.181618" lon="4.5095134">
        <ele>2200.0</ele>
        <time>2020-09-21T09:36:25Z</time>
      </trkpt>
      <trkpt lat="52.181652" lon="4.509558">
        <ele>2200.0</ele>
        <time>2020-09-21T09:36:26Z</time>
      </trkpt>
      <trkpt lat="52.181683" lon="4.5096">
        <ele>2200.0</ele>
        <time>2020-09-21T09:36:27Z</time>
      </trkpt>
      <trkpt lat="52.18171" lon="4.509642">
        <ele>2200.0</ele>
        <time>2020-09-21T09:36:29Z</time>
      </trkpt>
      <trkpt lat="52.18174" lon="4.5096846">
        <ele>2200.0</ele>
        <time>2020-09-21T09:36:29Z</time>
      </trkpt>
      <trkpt lat="52.18177" lon="4.5097265">
        <ele>2200.0</ele>
        <time>2020-09-21T09:36:30Z</time>
      </trkpt>
      <trkpt lat="52.1818" lon="4.5097713">
        <ele>2200.0</ele>
        <time>2020-09-21T09:36:31Z</time>
      </trkpt>
      <trkpt lat="52.18183" lon="4.509821">
        <ele>2200.0</ele>
        <time>2020-09-21T09:36:32Z</time>
      </trkpt>
      <trkpt lat="52.18186" lon="4.5098724">
        <ele>2200.0</ele>
        <time>2020-09-21T09:36:33Z</time>
      </trkpt>
      <trkpt lat="52.181892" lon="4.509923">
        <ele>2200.0</ele>
        <time>2020-09-21T09:36:34Z</time>
      </trkpt>
      <trkpt lat="52.18192" lon="4.509969">
        <ele>2200.0</ele>
        <time>2020-09-21T09:36:35Z</time>
      </trkpt>
      <trkpt lat="52.18194" lon="4.5100107">
        <ele>2200.0</ele>
        <time>2020-09-21T09:36:36Z</time>
      </trkpt>
      <trkpt lat="52.18196" lon="4.5100527">
        <ele>2200.0</ele>
        <time>2020-09-21T09:36:37Z</time>
      </trkpt>
      <trkpt lat="52.181984" lon="4.510093">
        <ele>2200.0</ele>
        <time>2020-09-21T09:36:38Z</time>
      </trkpt>
      <trkpt lat="52.182007" lon="4.5101337">
        <ele>2200.0</ele>
        <time>2020-09-21T09:36:40Z</time>
      </trkpt>
      <trkpt lat="52.182026" lon="4.5101743">
        <ele>2200.0</ele>
        <time>2020-09-21T09:36:40Z</time>
      </trkpt>
      <trkpt lat="52.182045" lon="4.510217">
        <ele>2200.0</ele>
        <time>2020-09-21T09:36:41Z</time>
      </trkpt>
      <trkpt lat="52.18207" lon="4.5102577">
        <ele>2200.0</ele>
        <time>2020-09-21T09:36:42Z</time>
      </trkpt>
      <trkpt lat="52.182095" lon="4.5103006">
        <ele>2200.0</ele>
        <time>2020-09-21T09:36:43Z</time>
      </trkpt>
      <trkpt lat="52.182114" lon="4.510346">
        <ele>2200.0</ele>
        <time>2020-09-21T09:36:44Z</time>
      </trkpt>
      <trkpt lat="52.18214" lon="4.510389">
        <ele>2200.0</ele>
        <time>2020-09-21T09:36:45Z</time>
      </trkpt>
      <trkpt lat="52.18216" lon="4.510428">
        <ele>2200.0</ele>
        <time>2020-09-21T09:36:47Z</time>
      </trkpt>
      <trkpt lat="52.182186" lon="4.510466">
        <ele>2200.0</ele>
        <time>2020-09-21T09:36:47Z</time>
      </trkpt>
      <trkpt lat="52.18221" lon="4.510506">
        <ele>2200.0</ele>
        <time>2020-09-21T09:36:48Z</time>
      </trkpt>
      <trkpt lat="52.182236" lon="4.5105476">
        <ele>2200.0</ele>
        <time>2020-09-21T09:36:49Z</time>
      </trkpt>
      <trkpt lat="52.182255" lon="4.510589">
        <ele>2200.0</ele>
        <time>2020-09-21T09:36:50Z</time>
      </trkpt>
      <trkpt lat="52.18228" lon="4.5106344">
        <ele>2200.0</ele>
        <time>2020-09-21T09:36:51Z</time>
      </trkpt>
      <trkpt lat="52.182304" lon="4.5106807">
        <ele>2200.0</ele>
        <time>2020-09-21T09:36:52Z</time>
      </trkpt>
      <trkpt lat="52.182323" lon="4.510729">
        <ele>2200.0</ele>
        <time>2020-09-21T09:36:53Z</time>
      </trkpt>
      <trkpt lat="52.182343" lon="4.51078">
        <ele>2200.0</ele>
        <time>2020-09-21T09:36:54Z</time>
      </trkpt>
      <trkpt lat="52.18237" lon="4.5108266">
        <ele>2200.0</ele>
        <time>2020-09-21T09:36:55Z</time>
      </trkpt>
      <trkpt lat="52.182396" lon="4.510869">
        <ele>2200.0</ele>
        <time>2020-09-21T09:36:56Z</time>
      </trkpt>
      <trkpt lat="52.182415" lon="4.5109124">
        <ele>2200.0</ele>
        <time>2020-09-21T09:36:58Z</time>
      </trkpt>
      <trkpt lat="52.182434" lon="4.510958">
        <ele>2200.0</ele>
        <time>2020-09-21T09:36:58Z</time>
      </trkpt>
      <trkpt lat="52.182457" lon="4.511007">
        <ele>2200.0</ele>
        <time>2020-09-21T09:36:59Z</time>
      </trkpt>
      <trkpt lat="52.182476" lon="4.5110545">
        <ele>2200.0</ele>
        <time>2020-09-21T09:37:00Z</time>
      </trkpt>
      <trkpt lat="52.1825" lon="4.5110993">
        <ele>2200.0</ele>
        <time>2020-09-21T09:37:01Z</time>
      </trkpt>
      <trkpt lat="52.18252" lon="4.5111423">
        <ele>2200.0</ele>
        <time>2020-09-21T09:37:02Z</time>
      </trkpt>
      <trkpt lat="52.182545" lon="4.5111823">
        <ele>2200.0</ele>
        <time>2020-09-21T09:37:03Z</time>
      </trkpt>
      <trkpt lat="52.182564" lon="4.511222">
        <ele>2200.0</ele>
        <time>2020-09-21T09:37:04Z</time>
      </trkpt>
      <trkpt lat="52.182583" lon="4.5112624">
        <ele>2200.0</ele>
        <time>2020-09-21T09:37:05Z</time>
      </trkpt>
      <trkpt lat="52.182606" lon="4.5113025">
        <ele>2200.0</ele>
        <time>2020-09-21T09:37:06Z</time>
      </trkpt>
      <trkpt lat="52.182625" lon="4.5113425">
        <ele>2200.0</ele>
        <time>2020-09-21T09:37:07Z</time>
      </trkpt>
      <trkpt lat="52.182644" lon="4.5113826">
        <ele>2100.0</ele>
        <time>2020-09-21T09:37:08Z</time>
      </trkpt>
      <trkpt lat="52.182667" lon="4.5114217">
        <ele>2100.0</ele>
        <time>2020-09-21T09:37:09Z</time>
      </trkpt>
      <trkpt lat="52.182686" lon="4.5114603">
        <ele>2100.0</ele>
        <time>2020-09-21T09:37:10Z</time>
      </trkpt>
      <trkpt lat="52.182713" lon="4.5114985">
        <ele>2100.0</ele>
        <time>2020-09-21T09:37:11Z</time>
      </trkpt>
      <trkpt lat="52.182743" lon="4.511534">
        <ele>2100.0</ele>
        <time>2020-09-21T09:37:12Z</time>
      </trkpt>
      <trkpt lat="52.182774" lon="4.5115657">
        <ele>2100.0</ele>
        <time>2020-09-21T09:37:13Z</time>
      </trkpt>
      <trkpt lat="52.182808" lon="4.5115967">
        <ele>2100.0</ele>
        <time>2020-09-21T09:37:14Z</time>
      </trkpt>
      <trkpt lat="52.18284" lon="4.5116267">
        <ele>2100.0</ele>
        <time>2020-09-21T09:37:15Z</time>
      </trkpt>
      <trkpt lat="52.182865" lon="4.511659">
        <ele>2100.0</ele>
        <time>2020-09-21T09:37:16Z</time>
      </trkpt>
      <trkpt lat="52.18289" lon="4.511691">
        <ele>2100.0</ele>
        <time>2020-09-21T09:37:17Z</time>
      </trkpt>
      <trkpt lat="52.18291" lon="4.5117245">
        <ele>2100.0</ele>
        <time>2020-09-21T09:37:19Z</time>
      </trkpt>
      <trkpt lat="52.182934" lon="4.511758">
        <ele>2100.0</ele>
        <time>2020-09-21T09:37:19Z</time>
      </trkpt>
      <trkpt lat="52.182953" lon="4.511791">
        <ele>2100.0</ele>
        <time>2020-09-21T09:37:20Z</time>
      </trkpt>
      <trkpt lat="52.182972" lon="4.511824">
        <ele>2100.0</ele>
        <time>2020-09-21T09:37:21Z</time>
      </trkpt>
      <trkpt lat="52.182995" lon="4.5118623">
        <ele>2100.0</ele>
        <time>2020-09-21T09:37:22Z</time>
      </trkpt>
      <trkpt lat="52.183014" lon="4.5119033">
        <ele>2100.0</ele>
        <time>2020-09-21T09:37:23Z</time>
      </trkpt>
      <trkpt lat="52.18304" lon="4.511942">
        <ele>2100.0</ele>
        <time>2020-09-21T09:37:24Z</time>
      </trkpt>
      <trkpt lat="52.183067" lon="4.511981">
        <ele>2100.0</ele>
        <time>2020-09-21T09:37:25Z</time>
      </trkpt>
      <trkpt lat="52.18309" lon="4.512021">
        <ele>2100.0</ele>
        <time>2020-09-21T09:37:26Z</time>
      </trkpt>
      <trkpt lat="52.183117" lon="4.5120587">
        <ele>2100.0</ele>
        <time>2020-09-21T09:37:27Z</time>
      </trkpt>
      <trkpt lat="52.183144" lon="4.5120945">
        <ele>2100.0</ele>
        <time>2020-09-21T09:37:29Z</time>
      </trkpt>
      <trkpt lat="52.183163" lon="4.512127">
        <ele>2100.0</ele>
        <time>2020-09-21T09:37:29Z</time>
      </trkpt>
      <trkpt lat="52.18319" lon="4.5121565">
        <ele>2100.0</ele>
        <time>2020-09-21T09:37:30Z</time>
      </trkpt>
      <trkpt lat="52.183212" lon="4.512183">
        <ele>2100.0</ele>
        <time>2020-09-21T09:37:31Z</time>
      </trkpt>
      <trkpt lat="52.183235" lon="4.512205">
        <ele>2100.0</ele>
        <time>2020-09-21T09:37:32Z</time>
      </trkpt>
      <trkpt lat="52.183254" lon="4.5122266">
        <ele>2200.0</ele>
        <time>2020-09-21T09:37:33Z</time>
      </trkpt>
      <trkpt lat="52.183277" lon="4.5122447">
        <ele>2200.0</ele>
        <time>2020-09-21T09:37:34Z</time>
      </trkpt>
      <trkpt lat="52.183296" lon="4.512262">
        <ele>2200.0</ele>
        <time>2020-09-21T09:37:35Z</time>
      </trkpt>
      <trkpt lat="52.183323" lon="4.512282">
        <ele>2200.0</ele>
        <time>2020-09-21T09:37:36Z</time>
      </trkpt>
      <trkpt lat="52.183346" lon="4.5123057">
        <ele>2200.0</ele>
        <time>2020-09-21T09:37:37Z</time>
      </trkpt>
      <trkpt lat="52.183372" lon="4.512332">
        <ele>2200.0</ele>
        <time>2020-09-21T09:37:38Z</time>
      </trkpt>
      <trkpt lat="52.183403" lon="4.5123577">
        <ele>2200.0</ele>
        <time>2020-09-21T09:37:40Z</time>
      </trkpt>
      <trkpt lat="52.183434" lon="4.5123835">
        <ele>2100.0</ele>
        <time>2020-09-21T09:37:40Z</time>
      </trkpt>
      <trkpt lat="52.183464" lon="4.512408">
        <ele>2100.0</ele>
        <time>2020-09-21T09:37:41Z</time>
      </trkpt>
      <trkpt lat="52.183495" lon="4.5124245">
        <ele>2100.0</ele>
        <time>2020-09-21T09:37:42Z</time>
      </trkpt>
      <trkpt lat="52.183525" lon="4.5124416">
        <ele>2100.0</ele>
        <time>2020-09-21T09:37:43Z</time>
      </trkpt>
      <trkpt lat="52.18355" lon="4.512461">
        <ele>2100.0</ele>
        <time>2020-09-21T09:37:44Z</time>
      </trkpt>
      <trkpt lat="52.183582" lon="4.5124807">
        <ele>2100.0</ele>
        <time>2020-09-21T09:37:45Z</time>
      </trkpt>
      <trkpt lat="52.183613" lon="4.5124993">
        <ele>2100.0</ele>
        <time>2020-09-21T09:37:46Z</time>
      </trkpt>
      <trkpt lat="52.18364" lon="4.512518">
        <ele>2100.0</ele>
        <time>2020-09-21T09:37:48Z</time>
      </trkpt>
      <trkpt lat="52.183666" lon="4.5125375">
        <ele>2100.0</ele>
        <time>2020-09-21T09:37:48Z</time>
      </trkpt>
      <trkpt lat="52.183685" lon="4.5125556">
        <ele>2100.0</ele>
        <time>2020-09-21T09:37:49Z</time>
      </trkpt>
      <trkpt lat="52.183704" lon="4.512574">
        <ele>2100.0</ele>
        <time>2020-09-21T09:37:50Z</time>
      </trkpt>
      <trkpt lat="52.18373" lon="4.512593">
        <ele>2100.0</ele>
        <time>2020-09-21T09:37:51Z</time>
      </trkpt>
      <trkpt lat="52.18375" lon="4.51261">
        <ele>2100.0</ele>
        <time>2020-09-21T09:37:52Z</time>
      </trkpt>
      <trkpt lat="52.183773" lon="4.5126266">
        <ele>2100.0</ele>
        <time>2020-09-21T09:37:53Z</time>
      </trkpt>
      <trkpt lat="52.183796" lon="4.5126433">
        <ele>2100.0</ele>
        <time>2020-09-21T09:37:54Z</time>
      </trkpt>
      <trkpt lat="52.183823" lon="4.51266">
        <ele>2100.0</ele>
        <time>2020-09-21T09:37:55Z</time>
      </trkpt>
      <trkpt lat="52.18385" lon="4.5126743">
        <ele>2100.0</ele>
        <time>2020-09-21T09:37:56Z</time>
      </trkpt>
      <trkpt lat="52.183876" lon="4.5126877">
        <ele>2100.0</ele>
        <time>2020-09-21T09:37:58Z</time>
      </trkpt>
      <trkpt lat="52.1839" lon="4.512702">
        <ele>2100.0</ele>
        <time>2020-09-21T09:37:58Z</time>
      </trkpt>
      <trkpt lat="52.18392" lon="4.5127172">
        <ele>2100.0</ele>
        <time>2020-09-21T09:37:59Z</time>
      </trkpt>
      <trkpt lat="52.183945" lon="4.512733">
        <ele>2100.0</ele>
        <time>2020-09-21T09:38:00Z</time>
      </trkpt>
      <trkpt lat="52.18397" lon="4.5127473">
        <ele>2100.0</ele>
        <time>2020-09-21T09:38:01Z</time>
      </trkpt>
      <trkpt lat="52.18399" lon="4.512761">
        <ele>2100.0</ele>
        <time>2020-09-21T09:38:02Z</time>
      </trkpt>
      <trkpt lat="52.184017" lon="4.512775">
        <ele>2100.0</ele>
        <time>2020-09-21T09:38:03Z</time>
      </trkpt>
      <trkpt lat="52.184044" lon="4.5127873">
        <ele>2100.0</ele>
        <time>2020-09-21T09:38:04Z</time>
      </trkpt>
      <trkpt lat="52.184063" lon="4.5127997">
        <ele>2100.0</ele>
        <time>2020-09-21T09:38:05Z</time>
      </trkpt>
      <trkpt lat="52.18409" lon="4.512813">
        <ele>2100.0</ele>
        <time>2020-09-21T09:38:06Z</time>
      </trkpt>
      <trkpt lat="52.18411" lon="4.5128264">
        <ele>2100.0</ele>
        <time>2020-09-21T09:38:07Z</time>
      </trkpt>
      <trkpt lat="52.18413" lon="4.5128407">
        <ele>2100.0</ele>
        <time>2020-09-21T09:38:09Z</time>
      </trkpt>
      <trkpt lat="52.18415" lon="4.512854">
        <ele>2100.0</ele>
        <time>2020-09-21T09:38:09Z</time>
      </trkpt>
      <trkpt lat="52.18417" lon="4.512868">
        <ele>2100.0</ele>
        <time>2020-09-21T09:38:10Z</time>
      </trkpt>
      <trkpt lat="52.184193" lon="4.5128818">
        <ele>2100.0</ele>
        <time>2020-09-21T09:38:11Z</time>
      </trkpt>
      <trkpt lat="52.18422" lon="4.5128965">
        <ele>2100.0</ele>
        <time>2020-09-21T09:38:12Z</time>
      </trkpt>
      <trkpt lat="52.18424" lon="4.51291">
        <ele>2100.0</ele>
        <time>2020-09-21T09:38:13Z</time>
      </trkpt>
      <trkpt lat="52.184265" lon="4.5129237">
        <ele>2100.0</ele>
        <time>2020-09-21T09:38:14Z</time>
      </trkpt>
      <trkpt lat="52.184284" lon="4.512936">
        <ele>2100.0</ele>
        <time>2020-09-21T09:38:15Z</time>
      </trkpt>
      <trkpt lat="52.18431" lon="4.5129495">
        <ele>2100.0</ele>
        <time>2020-09-21T09:38:16Z</time>
      </trkpt>
      <trkpt lat="52.184334" lon="4.512961">
        <ele>2100.0</ele>
        <time>2020-09-21T09:38:17Z</time>
      </trkpt>
      <trkpt lat="52.184357" lon="4.5129724">
        <ele>2100.0</ele>
        <time>2020-09-21T09:38:19Z</time>
      </trkpt>
      <trkpt lat="52.184372" lon="4.5129833">
        <ele>2100.0</ele>
        <time>2020-09-21T09:38:19Z</time>
      </trkpt>
      <trkpt lat="52.18439" lon="4.512995">
        <ele>2100.0</ele>
        <time>2020-09-21T09:38:20Z</time>
      </trkpt>
      <trkpt lat="52.184406" lon="4.5130043">
        <ele>2100.0</ele>
        <time>2020-09-21T09:38:21Z</time>
      </trkpt>
      <trkpt lat="52.184418" lon="4.513016">
        <ele>2100.0</ele>
        <time>2020-09-21T09:38:22Z</time>
      </trkpt>
      <trkpt lat="52.18443" lon="4.5130267">
        <ele>2100.0</ele>
        <time>2020-09-21T09:38:23Z</time>
      </trkpt>
      <trkpt lat="52.184437" lon="4.513033">
        <ele>2100.0</ele>
        <time>2020-09-21T09:38:24Z</time>
      </trkpt>
      <trkpt lat="52.184437" lon="4.5130367">
        <ele>2100.0</ele>
        <time>2020-09-21T09:38:25Z</time>
      </trkpt>
      <trkpt lat="52.184437" lon="4.5130367">
        <ele>2100.0</ele>
        <time>2020-09-21T09:38:26Z</time>
      </trkpt>
      <trkpt lat="52.184437" lon="4.5130363">
        <ele>2100.0</ele>
        <time>2020-09-21T09:38:27Z</time>
      </trkpt>
      <trkpt lat="52.184437" lon="4.5130396">
        <ele>2100.0</ele>
        <time>2020-09-21T09:38:30Z</time>
      </trkpt>
      <trkpt lat="52.184444" lon="4.513043">
        <ele>2100.0</ele>
        <time>2020-09-21T09:38:32Z</time>
      </trkpt>
      <trkpt lat="52.184437" lon="4.513048">
        <ele>2100.0</ele>
        <time>2020-09-21T09:39:14Z</time>
      </trkpt>
      <trkpt lat="52.184437" lon="4.5130563">
        <ele>2100.0</ele>
        <time>2020-09-21T09:39:21Z</time>
      </trkpt>
      <trkpt lat="52.184444" lon="4.5130663">
        <ele>2100.0</ele>
        <time>2020-09-21T09:39:27Z</time>
      </trkpt>
      <trkpt lat="52.184444" lon="4.5130663">
        <ele>2100.0</ele>
        <time>2020-09-21T09:39:28Z</time>
      </trkpt>
      <trkpt lat="52.184444" lon="4.513067">
        <ele>2100.0</ele>
        <time>2020-09-21T09:39:29Z</time>
      </trkpt>
      <trkpt lat="52.18445" lon="4.513067">
        <ele>2100.0</ele>
        <time>2020-09-21T09:39:30Z</time>
      </trkpt>
      <trkpt lat="52.18446" lon="4.5130696">
        <ele>2100.0</ele>
        <time>2020-09-21T09:39:34Z</time>
      </trkpt>
      <trkpt lat="52.184464" lon="4.5130696">
        <ele>2100.0</ele>
        <time>2020-09-21T09:39:34Z</time>
      </trkpt>
      <trkpt lat="52.184464" lon="4.51307">
        <ele>2100.0</ele>
        <time>2020-09-21T09:39:35Z</time>
      </trkpt>
      <trkpt lat="52.184467" lon="4.5130715">
        <ele>2100.0</ele>
        <time>2020-09-21T09:39:36Z</time>
      </trkpt>
      <trkpt lat="52.184467" lon="4.513072">
        <ele>2100.0</ele>
        <time>2020-09-21T09:39:37Z</time>
      </trkpt>
      <trkpt lat="52.184467" lon="4.5130725">
        <ele>2100.0</ele>
        <time>2020-09-21T09:39:38Z</time>
      </trkpt>
      <trkpt lat="52.184475" lon="4.513073">
        <ele>2100.0</ele>
        <time>2020-09-21T09:39:49Z</time>
      </trkpt>
      <trkpt lat="52.184475" lon="4.5130725">
        <ele>2100.0</ele>
        <time>2020-09-21T09:39:50Z</time>
      </trkpt>
      <trkpt lat="52.184475" lon="4.5130696">
        <ele>2100.0</ele>
        <time>2020-09-21T09:39:51Z</time>
      </trkpt>
      <trkpt lat="52.18448" lon="4.5130677">
        <ele>2100.0</ele>
        <time>2020-09-21T09:39:53Z</time>
      </trkpt>
      <trkpt lat="52.18448" lon="4.5130672">
        <ele>2100.0</ele>
        <time>2020-09-21T09:39:54Z</time>
      </trkpt>
      <trkpt lat="52.184475" lon="4.513067">
        <ele>2100.0</ele>
        <time>2020-09-21T09:39:55Z</time>
      </trkpt>
      <trkpt lat="52.184475" lon="4.5130644">
        <ele>2100.0</ele>
        <time>2020-09-21T09:39:57Z</time>
      </trkpt>
      <trkpt lat="52.184467" lon="4.513061">
        <ele>2100.0</ele>
        <time>2020-09-21T09:39:57Z</time>
      </trkpt>
      <trkpt lat="52.18446" lon="4.513053">
        <ele>2100.0</ele>
        <time>2020-09-21T09:39:59Z</time>
      </trkpt>
      <trkpt lat="52.18446" lon="4.5130534">
        <ele>2100.0</ele>
        <time>2020-09-21T09:40:00Z</time>
      </trkpt>
      <trkpt lat="52.18446" lon="4.513053">
        <ele>2100.0</ele>
        <time>2020-09-21T09:40:01Z</time>
      </trkpt>
      <trkpt lat="52.18446" lon="4.513052">
        <ele>2100.0</ele>
        <time>2020-09-21T09:40:02Z</time>
      </trkpt>
      <trkpt lat="52.184464" lon="4.513043">
        <ele>2100.0</ele>
        <time>2020-09-21T09:40:04Z</time>
      </trkpt>
      <trkpt lat="52.184464" lon="4.5130415">
        <ele>2100.0</ele>
        <time>2020-09-21T09:40:05Z</time>
      </trkpt>
      <trkpt lat="52.184464" lon="4.5130415">
        <ele>2100.0</ele>
        <time>2020-09-21T09:40:06Z</time>
      </trkpt>
      <trkpt lat="52.184464" lon="4.5130424">
        <ele>2100.0</ele>
        <time>2020-09-21T09:40:08Z</time>
      </trkpt>
      <trkpt lat="52.18446" lon="4.5130463">
        <ele>2100.0</ele>
        <time>2020-09-21T09:40:08Z</time>
      </trkpt>
      <trkpt lat="52.18446" lon="4.5130506">
        <ele>2100.0</ele>
        <time>2020-09-21T09:40:09Z</time>
      </trkpt>
      <trkpt lat="52.184452" lon="4.513052">
        <ele>2100.0</ele>
        <time>2020-09-21T09:40:10Z</time>
      </trkpt>
      <trkpt lat="52.18446" lon="4.51305">
        <ele>2200.0</ele>
        <time>2020-09-21T09:40:11Z</time>
      </trkpt>
      <trkpt lat="52.18446" lon="4.513049">
        <ele>2200.0</ele>
        <time>2020-09-21T09:40:11Z</time>
      </trkpt>
      <trkpt lat="52.184464" lon="4.513048">
        <ele>2200.0</ele>
        <time>2020-09-21T09:40:12Z</time>
      </trkpt>
      <trkpt lat="52.184464" lon="4.5130496">
        <ele>2200.0</ele>
        <time>2020-09-21T09:40:13Z</time>
      </trkpt>
      <trkpt lat="52.184464" lon="4.513052">
        <ele>2200.0</ele>
        <time>2020-09-21T09:40:14Z</time>
      </trkpt>
      <trkpt lat="52.184464" lon="4.513054">
        <ele>2200.0</ele>
        <time>2020-09-21T09:40:15Z</time>
      </trkpt>
      <trkpt lat="52.184464" lon="4.5130577">
        <ele>2200.0</ele>
        <time>2020-09-21T09:40:16Z</time>
      </trkpt>
      <trkpt lat="52.18446" lon="4.51306">
        <ele>2200.0</ele>
        <time>2020-09-21T09:40:18Z</time>
      </trkpt>
      <trkpt lat="52.18446" lon="4.513063">
        <ele>2200.0</ele>
        <time>2020-09-21T09:40:18Z</time>
      </trkpt>
      <trkpt lat="52.18446" lon="4.5130677">
        <ele>2200.0</ele>
        <time>2020-09-21T09:40:37Z</time>
      </trkpt>
      <trkpt lat="52.184452" lon="4.5130577">
        <ele>2200.0</ele>
        <time>2020-09-21T09:40:56Z</time>
      </trkpt>
      <trkpt lat="52.18445" lon="4.513056">
        <ele>2200.0</ele>
        <time>2020-09-21T09:40:57Z</time>
      </trkpt>
      <trkpt lat="52.18445" lon="4.513053">
        <ele>2200.0</ele>
        <time>2020-09-21T09:40:58Z</time>
      </trkpt>
      <trkpt lat="52.184437" lon="4.513043">
        <ele>2200.0</ele>
        <time>2020-09-21T09:41:04Z</time>
      </trkpt>
      <trkpt lat="52.184433" lon="4.513043">
        <ele>2200.0</ele>
        <time>2020-09-21T09:41:09Z</time>
      </trkpt>
      <trkpt lat="52.184437" lon="4.5130444">
        <ele>2200.0</ele>
        <time>2020-09-21T09:41:39Z</time>
      </trkpt>
      <trkpt lat="52.184437" lon="4.513044">
        <ele>2200.0</ele>
        <time>2020-09-21T09:41:40Z</time>
      </trkpt>
      <trkpt lat="52.184437" lon="4.5130434">
        <ele>2200.0</ele>
        <time>2020-09-21T09:41:41Z</time>
      </trkpt>
      <trkpt lat="52.184437" lon="4.5130405">
        <ele>2200.0</ele>
        <time>2020-09-21T09:41:42Z</time>
      </trkpt>
      <trkpt lat="52.184437" lon="4.5130363">
        <ele>2200.0</ele>
        <time>2020-09-21T09:41:43Z</time>
      </trkpt>
      <trkpt lat="52.184437" lon="4.5130324">
        <ele>2200.0</ele>
        <time>2020-09-21T09:41:44Z</time>
      </trkpt>
      <trkpt lat="52.184437" lon="4.5130196">
        <ele>2200.0</ele>
        <time>2020-09-21T09:42:00Z</time>
      </trkpt>
      <trkpt lat="52.184437" lon="4.5130196">
        <ele>2200.0</ele>
        <time>2020-09-21T09:42:01Z</time>
      </trkpt>
      <trkpt lat="52.184433" lon="4.51302">
        <ele>2200.0</ele>
        <time>2020-09-21T09:42:02Z</time>
      </trkpt>
      <trkpt lat="52.18442" lon="4.513023">
        <ele>2200.0</ele>
        <time>2020-09-21T09:42:06Z</time>
      </trkpt>
      <trkpt lat="52.18442" lon="4.5130277">
        <ele>2200.0</ele>
        <time>2020-09-21T09:42:09Z</time>
      </trkpt>
      <trkpt lat="52.18442" lon="4.5130296">
        <ele>2200.0</ele>
        <time>2020-09-21T09:42:12Z</time>
      </trkpt>
      <trkpt lat="52.18442" lon="4.5130377">
        <ele>2200.0</ele>
        <time>2020-09-21T09:42:26Z</time>
      </trkpt>
      <trkpt lat="52.18442" lon="4.5130396">
        <ele>2200.0</ele>
        <time>2020-09-21T09:42:29Z</time>
      </trkpt>
      <trkpt lat="52.18442" lon="4.513043">
        <ele>2200.0</ele>
        <time>2020-09-21T09:42:30Z</time>
      </trkpt>
      <trkpt lat="52.18443" lon="4.5130434">
        <ele>2200.0</ele>
        <time>2020-09-21T09:42:31Z</time>
      </trkpt>
      <trkpt lat="52.18443" lon="4.5130444">
        <ele>2200.0</ele>
        <time>2020-09-21T09:42:32Z</time>
      </trkpt>
      <trkpt lat="52.184437" lon="4.5130496">
        <ele>2200.0</ele>
        <time>2020-09-21T09:42:33Z</time>
      </trkpt>
      <trkpt lat="52.18445" lon="4.513058">
        <ele>2200.0</ele>
        <time>2020-09-21T09:42:34Z</time>
      </trkpt>
      <trkpt lat="52.184467" lon="4.5130696">
        <ele>2200.0</ele>
        <time>2020-09-21T09:42:35Z</time>
      </trkpt>
      <trkpt lat="52.18449" lon="4.5130854">
        <ele>2200.0</ele>
        <time>2020-09-21T09:42:36Z</time>
      </trkpt>
      <trkpt lat="52.184513" lon="4.513103">
        <ele>2200.0</ele>
        <time>2020-09-21T09:42:37Z</time>
      </trkpt>
      <trkpt lat="52.18454" lon="4.5131226">
        <ele>2200.0</ele>
        <time>2020-09-21T09:42:38Z</time>
      </trkpt>
      <trkpt lat="52.18457" lon="4.513142">
        <ele>2200.0</ele>
        <time>2020-09-21T09:42:40Z</time>
      </trkpt>
      <trkpt lat="52.1846" lon="4.5131617">
        <ele>2200.0</ele>
        <time>2020-09-21T09:42:40Z</time>
      </trkpt>
      <trkpt lat="52.18463" lon="4.513181">
        <ele>2200.0</ele>
        <time>2020-09-21T09:42:41Z</time>
      </trkpt>
      <trkpt lat="52.184658" lon="4.513198">
        <ele>2200.0</ele>
        <time>2020-09-21T09:42:42Z</time>
      </trkpt>
      <trkpt lat="52.18469" lon="4.513213">
        <ele>2200.0</ele>
        <time>2020-09-21T09:42:43Z</time>
      </trkpt>
      <trkpt lat="52.18472" lon="4.513228">
        <ele>2200.0</ele>
        <time>2020-09-21T09:42:44Z</time>
      </trkpt>
      <trkpt lat="52.184746" lon="4.51324">
        <ele>2200.0</ele>
        <time>2020-09-21T09:42:45Z</time>
      </trkpt>
      <trkpt lat="52.184776" lon="4.513254">
        <ele>2200.0</ele>
        <time>2020-09-21T09:42:46Z</time>
      </trkpt>
      <trkpt lat="52.184803" lon="4.51327">
        <ele>2200.0</ele>
        <time>2020-09-21T09:42:47Z</time>
      </trkpt>
      <trkpt lat="52.184834" lon="4.5132875">
        <ele>2200.0</ele>
        <time>2020-09-21T09:42:48Z</time>
      </trkpt>
      <trkpt lat="52.184864" lon="4.5133047">
        <ele>2200.0</ele>
        <time>2020-09-21T09:42:49Z</time>
      </trkpt>
      <trkpt lat="52.184887" lon="4.513325">
        <ele>2200.0</ele>
        <time>2020-09-21T09:42:50Z</time>
      </trkpt>
      <trkpt lat="52.184914" lon="4.513344">
        <ele>2200.0</ele>
        <time>2020-09-21T09:42:51Z</time>
      </trkpt>
      <trkpt lat="52.18494" lon="4.5133595">
        <ele>2200.0</ele>
        <time>2020-09-21T09:42:52Z</time>
      </trkpt>
      <trkpt lat="52.184963" lon="4.513374">
        <ele>2200.0</ele>
        <time>2020-09-21T09:42:53Z</time>
      </trkpt>
      <trkpt lat="52.184998" lon="4.513388">
        <ele>2200.0</ele>
        <time>2020-09-21T09:42:54Z</time>
      </trkpt>
      <trkpt lat="52.18502" lon="4.5134025">
        <ele>2200.0</ele>
        <time>2020-09-21T09:42:55Z</time>
      </trkpt>
      <trkpt lat="52.185047" lon="4.5134177">
        <ele>2200.0</ele>
        <time>2020-09-21T09:42:56Z</time>
      </trkpt>
      <trkpt lat="52.185074" lon="4.513433">
        <ele>2200.0</ele>
        <time>2020-09-21T09:42:58Z</time>
      </trkpt>
      <trkpt lat="52.185097" lon="4.513448">
        <ele>2200.0</ele>
        <time>2020-09-21T09:42:58Z</time>
      </trkpt>
      <trkpt lat="52.185123" lon="4.5134635">
        <ele>2200.0</ele>
        <time>2020-09-21T09:42:59Z</time>
      </trkpt>
      <trkpt lat="52.18515" lon="4.5134797">
        <ele>2200.0</ele>
        <time>2020-09-21T09:43:00Z</time>
      </trkpt>
      <trkpt lat="52.18517" lon="4.513497">
        <ele>2200.0</ele>
        <time>2020-09-21T09:43:01Z</time>
      </trkpt>
      <trkpt lat="52.185192" lon="4.513514">
        <ele>2200.0</ele>
        <time>2020-09-21T09:43:02Z</time>
      </trkpt>
      <trkpt lat="52.18521" lon="4.5135326">
        <ele>2200.0</ele>
        <time>2020-09-21T09:43:03Z</time>
      </trkpt>
      <trkpt lat="52.18523" lon="4.51355">
        <ele>2200.0</ele>
        <time>2020-09-21T09:43:04Z</time>
      </trkpt>
      <trkpt lat="52.185253" lon="4.513568">
        <ele>2200.0</ele>
        <time>2020-09-21T09:43:05Z</time>
      </trkpt>
      <trkpt lat="52.185272" lon="4.513587">
        <ele>2200.0</ele>
        <time>2020-09-21T09:43:06Z</time>
      </trkpt>
      <trkpt lat="52.185287" lon="4.5136037">
        <ele>2200.0</ele>
        <time>2020-09-21T09:43:07Z</time>
      </trkpt>
      <trkpt lat="52.185303" lon="4.5136166">
        <ele>2200.0</ele>
        <time>2020-09-21T09:43:08Z</time>
      </trkpt>
      <trkpt lat="52.185318" lon="4.5136223">
        <ele>2200.0</ele>
        <time>2020-09-21T09:43:09Z</time>
      </trkpt>
      <trkpt lat="52.18533" lon="4.5136175">
        <ele>2200.0</ele>
        <time>2020-09-21T09:43:10Z</time>
      </trkpt>
      <trkpt lat="52.185337" lon="4.5136027">
        <ele>2200.0</ele>
        <time>2020-09-21T09:43:11Z</time>
      </trkpt>
      <trkpt lat="52.18535" lon="4.513582">
        <ele>2200.0</ele>
        <time>2020-09-21T09:43:12Z</time>
      </trkpt>
      <trkpt lat="52.18536" lon="4.51356">
        <ele>2200.0</ele>
        <time>2020-09-21T09:43:13Z</time>
      </trkpt>
      <trkpt lat="52.18537" lon="4.5135374">
        <ele>2200.0</ele>
        <time>2020-09-21T09:43:14Z</time>
      </trkpt>
      <trkpt lat="52.18538" lon="4.5135145">
        <ele>2200.0</ele>
        <time>2020-09-21T09:43:15Z</time>
      </trkpt>
      <trkpt lat="52.18539" lon="4.5134926">
        <ele>2200.0</ele>
        <time>2020-09-21T09:43:16Z</time>
      </trkpt>
      <trkpt lat="52.185402" lon="4.5134683">
        <ele>2200.0</ele>
        <time>2020-09-21T09:43:17Z</time>
      </trkpt>
      <trkpt lat="52.185417" lon="4.5134454">
        <ele>2200.0</ele>
        <time>2020-09-21T09:43:19Z</time>
      </trkpt>
      <trkpt lat="52.185432" lon="4.5134225">
        <ele>2200.0</ele>
        <time>2020-09-21T09:43:19Z</time>
      </trkpt>
      <trkpt lat="52.18545" lon="4.5134034">
        <ele>2200.0</ele>
        <time>2020-09-21T09:43:20Z</time>
      </trkpt>
      <trkpt lat="52.185467" lon="4.5133886">
        <ele>2200.0</ele>
        <time>2020-09-21T09:43:21Z</time>
      </trkpt>
      <trkpt lat="52.185486" lon="4.5133786">
        <ele>2200.0</ele>
        <time>2020-09-21T09:43:22Z</time>
      </trkpt>
      <trkpt lat="52.1855" lon="4.513371">
        <ele>2200.0</ele>
        <time>2020-09-21T09:43:23Z</time>
      </trkpt>
      <trkpt lat="52.185524" lon="4.513362">
        <ele>2200.0</ele>
        <time>2020-09-21T09:43:24Z</time>
      </trkpt>
      <trkpt lat="52.185543" lon="4.5133524">
        <ele>2200.0</ele>
        <time>2020-09-21T09:43:25Z</time>
      </trkpt>
      <trkpt lat="52.18556" lon="4.513341">
        <ele>2200.0</ele>
        <time>2020-09-21T09:43:26Z</time>
      </trkpt>
      <trkpt lat="52.18558" lon="4.5133276">
        <ele>2200.0</ele>
        <time>2020-09-21T09:43:27Z</time>
      </trkpt>
      <trkpt lat="52.1856" lon="4.513313">
        <ele>2200.0</ele>
        <time>2020-09-21T09:43:28Z</time>
      </trkpt>
      <trkpt lat="52.18562" lon="4.513296">
        <ele>2200.0</ele>
        <time>2020-09-21T09:43:30Z</time>
      </trkpt>
      <trkpt lat="52.185635" lon="4.513277">
        <ele>2200.0</ele>
        <time>2020-09-21T09:43:30Z</time>
      </trkpt>
      <trkpt lat="52.185658" lon="4.5132546">
        <ele>2200.0</ele>
        <time>2020-09-21T09:43:31Z</time>
      </trkpt>
      <trkpt lat="52.185673" lon="4.513231">
        <ele>2300.0</ele>
        <time>2020-09-21T09:43:32Z</time>
      </trkpt>
      <trkpt lat="52.18568" lon="4.513206">
        <ele>2300.0</ele>
        <time>2020-09-21T09:43:33Z</time>
      </trkpt>
      <trkpt lat="52.18569" lon="4.51318">
        <ele>2300.0</ele>
        <time>2020-09-21T09:43:34Z</time>
      </trkpt>
      <trkpt lat="52.185707" lon="4.513156">
        <ele>2300.0</ele>
        <time>2020-09-21T09:43:35Z</time>
      </trkpt>
      <trkpt lat="52.18571" lon="4.513129">
        <ele>2300.0</ele>
        <time>2020-09-21T09:43:36Z</time>
      </trkpt>
      <trkpt lat="52.185722" lon="4.5130997">
        <ele>2300.0</ele>
        <time>2020-09-21T09:43:37Z</time>
      </trkpt>
      <trkpt lat="52.185726" lon="4.5130696">
        <ele>2300.0</ele>
        <time>2020-09-21T09:43:38Z</time>
      </trkpt>
      <trkpt lat="52.185734" lon="4.5130386">
        <ele>2300.0</ele>
        <time>2020-09-21T09:43:40Z</time>
      </trkpt>
      <trkpt lat="52.185734" lon="4.5130076">
        <ele>2300.0</ele>
        <time>2020-09-21T09:43:40Z</time>
      </trkpt>
      <trkpt lat="52.185726" lon="4.512974">
        <ele>2300.0</ele>
        <time>2020-09-21T09:43:41Z</time>
      </trkpt>
      <trkpt lat="52.185726" lon="4.5129385">
        <ele>2300.0</ele>
        <time>2020-09-21T09:43:42Z</time>
      </trkpt>
      <trkpt lat="52.185722" lon="4.5129013">
        <ele>2300.0</ele>
        <time>2020-09-21T09:43:43Z</time>
      </trkpt>
      <trkpt lat="52.18572" lon="4.512865">
        <ele>2300.0</ele>
        <time>2020-09-21T09:43:44Z</time>
      </trkpt>
      <trkpt lat="52.18571" lon="4.5128284">
        <ele>2300.0</ele>
        <time>2020-09-21T09:43:45Z</time>
      </trkpt>
      <trkpt lat="52.185707" lon="4.5127935">
        <ele>2300.0</ele>
        <time>2020-09-21T09:43:46Z</time>
      </trkpt>
      <trkpt lat="52.185703" lon="4.512758">
        <ele>2300.0</ele>
        <time>2020-09-21T09:43:48Z</time>
      </trkpt>
      <trkpt lat="52.18569" lon="4.5127215">
        <ele>2300.0</ele>
        <time>2020-09-21T09:43:48Z</time>
      </trkpt>
      <trkpt lat="52.185688" lon="4.512685">
        <ele>2300.0</ele>
        <time>2020-09-21T09:43:49Z</time>
      </trkpt>
      <trkpt lat="52.18568" lon="4.512647">
        <ele>2300.0</ele>
        <time>2020-09-21T09:43:50Z</time>
      </trkpt>
      <trkpt lat="52.185677" lon="4.512605">
        <ele>2300.0</ele>
        <time>2020-09-21T09:43:51Z</time>
      </trkpt>
      <trkpt lat="52.185677" lon="4.5125623">
        <ele>2300.0</ele>
        <time>2020-09-21T09:43:52Z</time>
      </trkpt>
      <trkpt lat="52.185673" lon="4.5125184">
        <ele>2300.0</ele>
        <time>2020-09-21T09:43:53Z</time>
      </trkpt>
      <trkpt lat="52.185665" lon="4.5124736">
        <ele>2300.0</ele>
        <time>2020-09-21T09:43:54Z</time>
      </trkpt>
      <trkpt lat="52.185658" lon="4.5124307">
        <ele>2300.0</ele>
        <time>2020-09-21T09:43:55Z</time>
      </trkpt>
      <trkpt lat="52.18565" lon="4.5123925">
        <ele>2300.0</ele>
        <time>2020-09-21T09:43:56Z</time>
      </trkpt>
      <trkpt lat="52.185642" lon="4.5123525">
        <ele>2300.0</ele>
        <time>2020-09-21T09:43:58Z</time>
      </trkpt>
      <trkpt lat="52.185635" lon="4.5123124">
        <ele>2300.0</ele>
        <time>2020-09-21T09:43:58Z</time>
      </trkpt>
      <trkpt lat="52.18563" lon="4.512272">
        <ele>2300.0</ele>
        <time>2020-09-21T09:43:59Z</time>
      </trkpt>
      <trkpt lat="52.185627" lon="4.512232">
        <ele>2300.0</ele>
        <time>2020-09-21T09:44:00Z</time>
      </trkpt>
      <trkpt lat="52.18562" lon="4.512192">
        <ele>2300.0</ele>
        <time>2020-09-21T09:44:01Z</time>
      </trkpt>
      <trkpt lat="52.185616" lon="4.5121527">
        <ele>2300.0</ele>
        <time>2020-09-21T09:44:02Z</time>
      </trkpt>
      <trkpt lat="52.18561" lon="4.5121164">
        <ele>2300.0</ele>
        <time>2020-09-21T09:44:03Z</time>
      </trkpt>
      <trkpt lat="52.18561" lon="4.5120792">
        <ele>2300.0</ele>
        <time>2020-09-21T09:44:04Z</time>
      </trkpt>
      <trkpt lat="52.18561" lon="4.512044">
        <ele>2300.0</ele>
        <time>2020-09-21T09:44:05Z</time>
      </trkpt>
      <trkpt lat="52.18561" lon="4.512009">
        <ele>2300.0</ele>
        <time>2020-09-21T09:44:06Z</time>
      </trkpt>
      <trkpt lat="52.185604" lon="4.5119762">
        <ele>2300.0</ele>
        <time>2020-09-21T09:44:07Z</time>
      </trkpt>
      <trkpt lat="52.185604" lon="4.5119433">
        <ele>2300.0</ele>
        <time>2020-09-21T09:44:08Z</time>
      </trkpt>
      <trkpt lat="52.1856" lon="4.511912">
        <ele>2300.0</ele>
        <time>2020-09-21T09:44:09Z</time>
      </trkpt>
      <trkpt lat="52.1856" lon="4.5118833">
        <ele>2300.0</ele>
        <time>2020-09-21T09:44:10Z</time>
      </trkpt>
      <trkpt lat="52.1856" lon="4.5118566">
        <ele>2300.0</ele>
        <time>2020-09-21T09:44:11Z</time>
      </trkpt>
      <trkpt lat="52.1856" lon="4.511832">
        <ele>2300.0</ele>
        <time>2020-09-21T09:44:12Z</time>
      </trkpt>
      <trkpt lat="52.1856" lon="4.5118136">
        <ele>2300.0</ele>
        <time>2020-09-21T09:44:13Z</time>
      </trkpt>
      <trkpt lat="52.185604" lon="4.511801">
        <ele>2300.0</ele>
        <time>2020-09-21T09:44:14Z</time>
      </trkpt>
      <trkpt lat="52.185604" lon="4.511793">
        <ele>2300.0</ele>
        <time>2020-09-21T09:44:15Z</time>
      </trkpt>
      <trkpt lat="52.185604" lon="4.5117874">
        <ele>2300.0</ele>
        <time>2020-09-21T09:44:16Z</time>
      </trkpt>
      <trkpt lat="52.18561" lon="4.511782">
        <ele>2300.0</ele>
        <time>2020-09-21T09:44:17Z</time>
      </trkpt>
      <trkpt lat="52.18562" lon="4.5117745">
        <ele>2300.0</ele>
        <time>2020-09-21T09:44:20Z</time>
      </trkpt>
      <trkpt lat="52.18562" lon="4.511771">
        <ele>2300.0</ele>
        <time>2020-09-21T09:44:23Z</time>
      </trkpt>
      <trkpt lat="52.18562" lon="4.511773">
        <ele>2300.0</ele>
        <time>2020-09-21T09:44:25Z</time>
      </trkpt>
      <trkpt lat="52.185616" lon="4.5117736">
        <ele>2300.0</ele>
        <time>2020-09-21T09:44:26Z</time>
      </trkpt>
      <trkpt lat="52.185616" lon="4.5117755">
        <ele>2300.0</ele>
        <time>2020-09-21T09:44:26Z</time>
      </trkpt>
      <trkpt lat="52.185616" lon="4.511777">
        <ele>2300.0</ele>
        <time>2020-09-21T09:44:27Z</time>
      </trkpt>
      <trkpt lat="52.18561" lon="4.5117793">
        <ele>2300.0</ele>
        <time>2020-09-21T09:44:28Z</time>
      </trkpt>
      <trkpt lat="52.18561" lon="4.5117826">
        <ele>2300.0</ele>
        <time>2020-09-21T09:44:29Z</time>
      </trkpt>
      <trkpt lat="52.18561" lon="4.5117884">
        <ele>2300.0</ele>
        <time>2020-09-21T09:44:31Z</time>
      </trkpt>
      <trkpt lat="52.185604" lon="4.5117893">
        <ele>2300.0</ele>
        <time>2020-09-21T09:44:31Z</time>
      </trkpt>
      <trkpt lat="52.185604" lon="4.511791">
        <ele>2300.0</ele>
        <time>2020-09-21T09:44:32Z</time>
      </trkpt>
      <trkpt lat="52.185604" lon="4.511796">
        <ele>2300.0</ele>
        <time>2020-09-21T09:44:33Z</time>
      </trkpt>
      <trkpt lat="52.185604" lon="4.5118">
        <ele>2300.0</ele>
        <time>2020-09-21T09:44:34Z</time>
      </trkpt>
      <trkpt lat="52.1856" lon="4.5118113">
        <ele>2300.0</ele>
        <time>2020-09-21T09:44:36Z</time>
      </trkpt>
      <trkpt lat="52.1856" lon="4.5118117">
        <ele>2300.0</ele>
        <time>2020-09-21T09:44:37Z</time>
      </trkpt>
      <trkpt lat="52.185596" lon="4.5118146">
        <ele>2300.0</ele>
        <time>2020-09-21T09:44:38Z</time>
      </trkpt>
      <trkpt lat="52.185596" lon="4.5118194">
        <ele>2300.0</ele>
        <time>2020-09-21T09:44:39Z</time>
      </trkpt>
      <trkpt lat="52.18559" lon="4.511823">
        <ele>2300.0</ele>
        <time>2020-09-21T09:44:40Z</time>
      </trkpt>
      <trkpt lat="52.18559" lon="4.511824">
        <ele>2300.0</ele>
        <time>2020-09-21T09:44:41Z</time>
      </trkpt>
      <trkpt lat="52.185596" lon="4.5118227">
        <ele>2300.0</ele>
        <time>2020-09-21T09:44:42Z</time>
      </trkpt>
      <trkpt lat="52.185596" lon="4.511819">
        <ele>2300.0</ele>
        <time>2020-09-21T09:44:43Z</time>
      </trkpt>
      <trkpt lat="52.185596" lon="4.5118146">
        <ele>2300.0</ele>
        <time>2020-09-21T09:44:44Z</time>
      </trkpt>
      <trkpt lat="52.185596" lon="4.511812">
        <ele>2300.0</ele>
        <time>2020-09-21T09:44:45Z</time>
      </trkpt>
      <trkpt lat="52.185596" lon="4.5118146">
        <ele>2300.0</ele>
        <time>2020-09-21T09:44:57Z</time>
      </trkpt>
      <trkpt lat="52.18559" lon="4.5118065">
        <ele>2300.0</ele>
        <time>2020-09-21T09:45:12Z</time>
      </trkpt>
      <trkpt lat="52.18559" lon="4.5118065">
        <ele>2300.0</ele>
        <time>2020-09-21T09:45:14Z</time>
      </trkpt>
      <trkpt lat="52.185585" lon="4.5118065">
        <ele>2300.0</ele>
        <time>2020-09-21T09:45:15Z</time>
      </trkpt>
      <trkpt lat="52.18558" lon="4.511808">
        <ele>2300.0</ele>
        <time>2020-09-21T09:45:29Z</time>
      </trkpt>
      <trkpt lat="52.18558" lon="4.5118084">
        <ele>2300.0</ele>
        <time>2020-09-21T09:45:30Z</time>
      </trkpt>
      <trkpt lat="52.18558" lon="4.51181">
        <ele>2300.0</ele>
        <time>2020-09-21T09:45:31Z</time>
      </trkpt>
      <trkpt lat="52.18559" lon="4.5118146">
        <ele>2300.0</ele>
        <time>2020-09-21T09:45:39Z</time>
      </trkpt>
      <trkpt lat="52.18559" lon="4.511812">
        <ele>2300.0</ele>
        <time>2020-09-21T09:45:41Z</time>
      </trkpt>
      <trkpt lat="52.18559" lon="4.5117965">
        <ele>2300.0</ele>
        <time>2020-09-21T09:45:41Z</time>
      </trkpt>
      <trkpt lat="52.18559" lon="4.511768">
        <ele>2300.0</ele>
        <time>2020-09-21T09:45:42Z</time>
      </trkpt>
      <trkpt lat="52.1856" lon="4.511729">
        <ele>2300.0</ele>
        <time>2020-09-21T09:45:43Z</time>
      </trkpt>
      <trkpt lat="52.185604" lon="4.511683">
        <ele>2300.0</ele>
        <time>2020-09-21T09:45:44Z</time>
      </trkpt>
      <trkpt lat="52.18561" lon="4.511632">
        <ele>2300.0</ele>
        <time>2020-09-21T09:45:45Z</time>
      </trkpt>
      <trkpt lat="52.18562" lon="4.511577">
        <ele>2300.0</ele>
        <time>2020-09-21T09:45:46Z</time>
      </trkpt>
      <trkpt lat="52.18563" lon="4.5115237">
        <ele>2300.0</ele>
        <time>2020-09-21T09:45:47Z</time>
      </trkpt>
      <trkpt lat="52.185642" lon="4.5114646">
        <ele>2400.0</ele>
        <time>2020-09-21T09:45:48Z</time>
      </trkpt>
      <trkpt lat="52.18565" lon="4.511403">
        <ele>2400.0</ele>
        <time>2020-09-21T09:45:49Z</time>
      </trkpt>
      <trkpt lat="52.18566" lon="4.511344">
        <ele>2400.0</ele>
        <time>2020-09-21T09:45:50Z</time>
      </trkpt>
      <trkpt lat="52.185677" lon="4.5112896">
        <ele>2400.0</ele>
        <time>2020-09-21T09:45:52Z</time>
      </trkpt>
      <trkpt lat="52.185688" lon="4.5112348">
        <ele>2400.0</ele>
        <time>2020-09-21T09:45:52Z</time>
      </trkpt>
      <trkpt lat="52.185703" lon="4.511176">
        <ele>2400.0</ele>
        <time>2020-09-21T09:45:53Z</time>
      </trkpt>
      <trkpt lat="52.18572" lon="4.5111217">
        <ele>2400.0</ele>
        <time>2020-09-21T09:45:54Z</time>
      </trkpt>
      <trkpt lat="52.185738" lon="4.5110626">
        <ele>2400.0</ele>
        <time>2020-09-21T09:45:55Z</time>
      </trkpt>
      <trkpt lat="52.185753" lon="4.511008">
        <ele>2400.0</ele>
        <time>2020-09-21T09:45:56Z</time>
      </trkpt>
      <trkpt lat="52.185776" lon="4.510952">
        <ele>2400.0</ele>
        <time>2020-09-21T09:45:57Z</time>
      </trkpt>
      <trkpt lat="52.185795" lon="4.510896">
        <ele>2400.0</ele>
        <time>2020-09-21T09:45:58Z</time>
      </trkpt>
      <trkpt lat="52.185814" lon="4.510836">
        <ele>2400.0</ele>
        <time>2020-09-21T09:45:59Z</time>
      </trkpt>
      <trkpt lat="52.18584" lon="4.5107794">
        <ele>2400.0</ele>
        <time>2020-09-21T09:46:00Z</time>
      </trkpt>
      <trkpt lat="52.185867" lon="4.510725">
        <ele>2400.0</ele>
        <time>2020-09-21T09:46:01Z</time>
      </trkpt>
      <trkpt lat="52.185886" lon="4.5106764">
        <ele>2400.0</ele>
        <time>2020-09-21T09:46:02Z</time>
      </trkpt>
      <trkpt lat="52.185913" lon="4.5106273">
        <ele>2400.0</ele>
        <time>2020-09-21T09:46:03Z</time>
      </trkpt>
      <trkpt lat="52.185944" lon="4.5105753">
        <ele>2400.0</ele>
        <time>2020-09-21T09:46:04Z</time>
      </trkpt>
      <trkpt lat="52.18597" lon="4.5105257">
        <ele>2400.0</ele>
        <time>2020-09-21T09:46:05Z</time>
      </trkpt>
      <trkpt lat="52.186" lon="4.5104775">
        <ele>2400.0</ele>
        <time>2020-09-21T09:46:06Z</time>
      </trkpt>
      <trkpt lat="52.18603" lon="4.5104294">
        <ele>2400.0</ele>
        <time>2020-09-21T09:46:07Z</time>
      </trkpt>
      <trkpt lat="52.186054" lon="4.510382">
        <ele>2400.0</ele>
        <time>2020-09-21T09:46:08Z</time>
      </trkpt>
      <trkpt lat="52.186085" lon="4.5103335">
        <ele>2400.0</ele>
        <time>2020-09-21T09:46:09Z</time>
      </trkpt>
      <trkpt lat="52.18611" lon="4.510284">
        <ele>2400.0</ele>
        <time>2020-09-21T09:46:10Z</time>
      </trkpt>
      <trkpt lat="52.186142" lon="4.5102353">
        <ele>2400.0</ele>
        <time>2020-09-21T09:46:11Z</time>
      </trkpt>
      <trkpt lat="52.18617" lon="4.510185">
        <ele>2400.0</ele>
        <time>2020-09-21T09:46:13Z</time>
      </trkpt>
      <trkpt lat="52.1862" lon="4.510133">
        <ele>2400.0</ele>
        <time>2020-09-21T09:46:13Z</time>
      </trkpt>
      <trkpt lat="52.186226" lon="4.5100813">
        <ele>2400.0</ele>
        <time>2020-09-21T09:46:14Z</time>
      </trkpt>
      <trkpt lat="52.18625" lon="4.5100303">
        <ele>2400.0</ele>
        <time>2020-09-21T09:46:15Z</time>
      </trkpt>
      <trkpt lat="52.18627" lon="4.5099797">
        <ele>2400.0</ele>
        <time>2020-09-21T09:46:16Z</time>
      </trkpt>
      <trkpt lat="52.18629" lon="4.5099297">
        <ele>2400.0</ele>
        <time>2020-09-21T09:46:17Z</time>
      </trkpt>
      <trkpt lat="52.18631" lon="4.50988">
        <ele>2400.0</ele>
        <time>2020-09-21T09:46:18Z</time>
      </trkpt>
      <trkpt lat="52.186333" lon="4.509831">
        <ele>2400.0</ele>
        <time>2020-09-21T09:46:19Z</time>
      </trkpt>
      <trkpt lat="52.18635" lon="4.509783">
        <ele>2400.0</ele>
        <time>2020-09-21T09:46:20Z</time>
      </trkpt>
      <trkpt lat="52.186375" lon="4.5097356">
        <ele>2400.0</ele>
        <time>2020-09-21T09:46:21Z</time>
      </trkpt>
      <trkpt lat="52.186398" lon="4.5096903">
        <ele>2400.0</ele>
        <time>2020-09-21T09:46:23Z</time>
      </trkpt>
      <trkpt lat="52.18642" lon="4.509647">
        <ele>2400.0</ele>
        <time>2020-09-21T09:46:23Z</time>
      </trkpt>
      <trkpt lat="52.18644" lon="4.509606">
        <ele>2400.0</ele>
        <time>2020-09-21T09:46:24Z</time>
      </trkpt>
      <trkpt lat="52.186466" lon="4.509566">
        <ele>2400.0</ele>
        <time>2020-09-21T09:46:26Z</time>
      </trkpt>
      <trkpt lat="52.186485" lon="4.509525">
        <ele>2400.0</ele>
        <time>2020-09-21T09:46:26Z</time>
      </trkpt>
      <trkpt lat="52.186504" lon="4.5094833">
        <ele>2400.0</ele>
        <time>2020-09-21T09:46:27Z</time>
      </trkpt>
      <trkpt lat="52.18653" lon="4.5094404">
        <ele>2400.0</ele>
        <time>2020-09-21T09:46:28Z</time>
      </trkpt>
      <trkpt lat="52.186554" lon="4.509396">
        <ele>2400.0</ele>
        <time>2020-09-21T09:46:29Z</time>
      </trkpt>
      <trkpt lat="52.186573" lon="4.509351">
        <ele>2400.0</ele>
        <time>2020-09-21T09:46:30Z</time>
      </trkpt>
      <trkpt lat="52.1866" lon="4.5093036">
        <ele>2400.0</ele>
        <time>2020-09-21T09:46:31Z</time>
      </trkpt>
      <trkpt lat="52.18662" lon="4.509257">
        <ele>2400.0</ele>
        <time>2020-09-21T09:46:32Z</time>
      </trkpt>
      <trkpt lat="52.186638" lon="4.509209">
        <ele>2400.0</ele>
        <time>2020-09-21T09:46:34Z</time>
      </trkpt>
      <trkpt lat="52.18666" lon="4.5091615">
        <ele>2400.0</ele>
        <time>2020-09-21T09:46:34Z</time>
      </trkpt>
      <trkpt lat="52.18668" lon="4.509115">
        <ele>2400.0</ele>
        <time>2020-09-21T09:46:35Z</time>
      </trkpt>
      <trkpt lat="52.1867" lon="4.5090685">
        <ele>2400.0</ele>
        <time>2020-09-21T09:46:36Z</time>
      </trkpt>
      <trkpt lat="52.18672" lon="4.5090227">
        <ele>2400.0</ele>
        <time>2020-09-21T09:46:37Z</time>
      </trkpt>
      <trkpt lat="52.18674" lon="4.5089774">
        <ele>2400.0</ele>
        <time>2020-09-21T09:46:38Z</time>
      </trkpt>
      <trkpt lat="52.186756" lon="4.508931">
        <ele>2400.0</ele>
        <time>2020-09-21T09:46:39Z</time>
      </trkpt>
      <trkpt lat="52.18678" lon="4.508886">
        <ele>2400.0</ele>
        <time>2020-09-21T09:46:40Z</time>
      </trkpt>
      <trkpt lat="52.186802" lon="4.5088415">
        <ele>2400.0</ele>
        <time>2020-09-21T09:46:41Z</time>
      </trkpt>
      <trkpt lat="52.186825" lon="4.508797">
        <ele>2400.0</ele>
        <time>2020-09-21T09:46:42Z</time>
      </trkpt>
      <trkpt lat="52.186848" lon="4.5087533">
        <ele>2400.0</ele>
        <time>2020-09-21T09:46:43Z</time>
      </trkpt>
      <trkpt lat="52.18687" lon="4.508709">
        <ele>2400.0</ele>
        <time>2020-09-21T09:46:44Z</time>
      </trkpt>
      <trkpt lat="52.18689" lon="4.5086646">
        <ele>2400.0</ele>
        <time>2020-09-21T09:46:45Z</time>
      </trkpt>
      <trkpt lat="52.186913" lon="4.508619">
        <ele>2400.0</ele>
        <time>2020-09-21T09:46:46Z</time>
      </trkpt>
      <trkpt lat="52.18693" lon="4.5085726">
        <ele>2400.0</ele>
        <time>2020-09-21T09:46:47Z</time>
      </trkpt>
      <trkpt lat="52.18695" lon="4.508527">
        <ele>2400.0</ele>
        <time>2020-09-21T09:46:48Z</time>
      </trkpt>
      <trkpt lat="52.186974" lon="4.5084805">
        <ele>2400.0</ele>
        <time>2020-09-21T09:46:49Z</time>
      </trkpt>
      <trkpt lat="52.186993" lon="4.5084343">
        <ele>2400.0</ele>
        <time>2020-09-21T09:46:50Z</time>
      </trkpt>
      <trkpt lat="52.18701" lon="4.50839">
        <ele>2400.0</ele>
        <time>2020-09-21T09:46:52Z</time>
      </trkpt>
      <trkpt lat="52.187035" lon="4.508346">
        <ele>2400.0</ele>
        <time>2020-09-21T09:46:52Z</time>
      </trkpt>
      <trkpt lat="52.187054" lon="4.5083036">
        <ele>2400.0</ele>
        <time>2020-09-21T09:46:53Z</time>
      </trkpt>
      <trkpt lat="52.18707" lon="4.508261">
        <ele>2400.0</ele>
        <time>2020-09-21T09:46:54Z</time>
      </trkpt>
      <trkpt lat="52.187084" lon="4.5082183">
        <ele>2400.0</ele>
        <time>2020-09-21T09:46:55Z</time>
      </trkpt>
      <trkpt lat="52.1871" lon="4.5081744">
        <ele>2400.0</ele>
        <time>2020-09-21T09:46:56Z</time>
      </trkpt>
      <trkpt lat="52.187115" lon="4.5081296">
        <ele>2400.0</ele>
        <time>2020-09-21T09:46:57Z</time>
      </trkpt>
      <trkpt lat="52.187126" lon="4.5080824">
        <ele>2400.0</ele>
        <time>2020-09-21T09:46:58Z</time>
      </trkpt>
      <trkpt lat="52.187138" lon="4.5080323">
        <ele>2400.0</ele>
        <time>2020-09-21T09:46:59Z</time>
      </trkpt>
      <trkpt lat="52.187145" lon="4.507981">
        <ele>2400.0</ele>
        <time>2020-09-21T09:47:00Z</time>
      </trkpt>
      <trkpt lat="52.187157" lon="4.507927">
        <ele>2400.0</ele>
        <time>2020-09-21T09:47:01Z</time>
      </trkpt>
      <trkpt lat="52.18716" lon="4.507871">
        <ele>2400.0</ele>
        <time>2020-09-21T09:47:02Z</time>
      </trkpt>
      <trkpt lat="52.18717" lon="4.507812">
        <ele>2400.0</ele>
        <time>2020-09-21T09:47:03Z</time>
      </trkpt>
      <trkpt lat="52.187172" lon="4.50775">
        <ele>2400.0</ele>
        <time>2020-09-21T09:47:04Z</time>
      </trkpt>
      <trkpt lat="52.187172" lon="4.507685">
        <ele>2400.0</ele>
        <time>2020-09-21T09:47:05Z</time>
      </trkpt>
      <trkpt lat="52.187176" lon="4.5076184">
        <ele>2300.0</ele>
        <time>2020-09-21T09:47:06Z</time>
      </trkpt>
      <trkpt lat="52.187183" lon="4.5075502">
        <ele>2300.0</ele>
        <time>2020-09-21T09:47:07Z</time>
      </trkpt>
      <trkpt lat="52.187187" lon="4.507484">
        <ele>2300.0</ele>
        <time>2020-09-21T09:47:08Z</time>
      </trkpt>
      <trkpt lat="52.1872" lon="4.50742">
        <ele>2300.0</ele>
        <time>2020-09-21T09:47:09Z</time>
      </trkpt>
      <trkpt lat="52.187214" lon="4.507361">
        <ele>2300.0</ele>
        <time>2020-09-21T09:47:10Z</time>
      </trkpt>
      <trkpt lat="52.18723" lon="4.507304">
        <ele>2300.0</ele>
        <time>2020-09-21T09:47:11Z</time>
      </trkpt>
      <trkpt lat="52.18725" lon="4.507251">
        <ele>2300.0</ele>
        <time>2020-09-21T09:47:13Z</time>
      </trkpt>
      <trkpt lat="52.187275" lon="4.507198">
        <ele>2300.0</ele>
        <time>2020-09-21T09:47:13Z</time>
      </trkpt>
      <trkpt lat="52.187294" lon="4.5071454">
        <ele>2300.0</ele>
        <time>2020-09-21T09:47:14Z</time>
      </trkpt>
      <trkpt lat="52.18732" lon="4.507093">
        <ele>2300.0</ele>
        <time>2020-09-21T09:47:15Z</time>
      </trkpt>
      <trkpt lat="52.18735" lon="4.50704">
        <ele>2300.0</ele>
        <time>2020-09-21T09:47:16Z</time>
      </trkpt>
      <trkpt lat="52.187378" lon="4.5069866">
        <ele>2300.0</ele>
        <time>2020-09-21T09:47:17Z</time>
      </trkpt>
      <trkpt lat="52.1874" lon="4.5069327">
        <ele>2300.0</ele>
        <time>2020-09-21T09:47:18Z</time>
      </trkpt>
      <trkpt lat="52.187428" lon="4.5068793">
        <ele>2300.0</ele>
        <time>2020-09-21T09:47:19Z</time>
      </trkpt>
      <trkpt lat="52.187458" lon="4.506827">
        <ele>2300.0</ele>
        <time>2020-09-21T09:47:20Z</time>
      </trkpt>
      <trkpt lat="52.187485" lon="4.506775">
        <ele>2300.0</ele>
        <time>2020-09-21T09:47:21Z</time>
      </trkpt>
      <trkpt lat="52.187515" lon="4.5067263">
        <ele>2300.0</ele>
        <time>2020-09-21T09:47:22Z</time>
      </trkpt>
      <trkpt lat="52.187542" lon="4.5066795">
        <ele>2300.0</ele>
        <time>2020-09-21T09:47:24Z</time>
      </trkpt>
      <trkpt lat="52.18756" lon="4.506635">
        <ele>2300.0</ele>
        <time>2020-09-21T09:47:24Z</time>
      </trkpt>
      <trkpt lat="52.187588" lon="4.50659">
        <ele>2300.0</ele>
        <time>2020-09-21T09:47:25Z</time>
      </trkpt>
      <trkpt lat="52.187607" lon="4.506544">
        <ele>2300.0</ele>
        <time>2020-09-21T09:47:26Z</time>
      </trkpt>
      <trkpt lat="52.187626" lon="4.5064983">
        <ele>2300.0</ele>
        <time>2020-09-21T09:47:27Z</time>
      </trkpt>
      <trkpt lat="52.18764" lon="4.506455">
        <ele>2300.0</ele>
        <time>2020-09-21T09:47:28Z</time>
      </trkpt>
      <trkpt lat="52.187656" lon="4.5064106">
        <ele>2300.0</ele>
        <time>2020-09-21T09:47:29Z</time>
      </trkpt>
      <trkpt lat="52.187668" lon="4.5063653">
        <ele>2300.0</ele>
        <time>2020-09-21T09:47:30Z</time>
      </trkpt>
      <trkpt lat="52.18768" lon="4.50632">
        <ele>2300.0</ele>
        <time>2020-09-21T09:47:31Z</time>
      </trkpt>
      <trkpt lat="52.18769" lon="4.5062747">
        <ele>2300.0</ele>
        <time>2020-09-21T09:47:32Z</time>
      </trkpt>
      <trkpt lat="52.187695" lon="4.5062284">
        <ele>2300.0</ele>
        <time>2020-09-21T09:47:34Z</time>
      </trkpt>
      <trkpt lat="52.1877" lon="4.50618">
        <ele>2300.0</ele>
        <time>2020-09-21T09:47:34Z</time>
      </trkpt>
      <trkpt lat="52.187706" lon="4.506129">
        <ele>2300.0</ele>
        <time>2020-09-21T09:47:35Z</time>
      </trkpt>
      <trkpt lat="52.187706" lon="4.506078">
        <ele>2300.0</ele>
        <time>2020-09-21T09:47:36Z</time>
      </trkpt>
      <trkpt lat="52.1877" lon="4.5060267">
        <ele>2300.0</ele>
        <time>2020-09-21T09:47:37Z</time>
      </trkpt>
      <trkpt lat="52.187695" lon="4.5059767">
        <ele>2300.0</ele>
        <time>2020-09-21T09:47:38Z</time>
      </trkpt>
      <trkpt lat="52.18769" lon="4.505927">
        <ele>2300.0</ele>
        <time>2020-09-21T09:47:39Z</time>
      </trkpt>
      <trkpt lat="52.187683" lon="4.50588">
        <ele>2300.0</ele>
        <time>2020-09-21T09:47:40Z</time>
      </trkpt>
      <trkpt lat="52.187675" lon="4.505836">
        <ele>2300.0</ele>
        <time>2020-09-21T09:47:42Z</time>
      </trkpt>
      <trkpt lat="52.187664" lon="4.505792">
        <ele>2300.0</ele>
        <time>2020-09-21T09:47:42Z</time>
      </trkpt>
      <trkpt lat="52.18765" lon="4.5057473">
        <ele>2300.0</ele>
        <time>2020-09-21T09:47:43Z</time>
      </trkpt>
      <trkpt lat="52.187634" lon="4.505702">
        <ele>2300.0</ele>
        <time>2020-09-21T09:47:44Z</time>
      </trkpt>
      <trkpt lat="52.18762" lon="4.505656">
        <ele>2300.0</ele>
        <time>2020-09-21T09:47:45Z</time>
      </trkpt>
      <trkpt lat="52.18759" lon="4.5056124">
        <ele>2300.0</ele>
        <time>2020-09-21T09:47:46Z</time>
      </trkpt>
      <trkpt lat="52.187572" lon="4.5055714">
        <ele>2300.0</ele>
        <time>2020-09-21T09:47:47Z</time>
      </trkpt>
      <trkpt lat="52.187542" lon="4.5055285">
        <ele>2300.0</ele>
        <time>2020-09-21T09:47:48Z</time>
      </trkpt>
      <trkpt lat="52.187515" lon="4.5054836">
        <ele>2300.0</ele>
        <time>2020-09-21T09:47:49Z</time>
      </trkpt>
      <trkpt lat="52.187496" lon="4.505439">
        <ele>2300.0</ele>
        <time>2020-09-21T09:47:50Z</time>
      </trkpt>
      <trkpt lat="52.18747" lon="4.5053945">
        <ele>2300.0</ele>
        <time>2020-09-21T09:47:52Z</time>
      </trkpt>
      <trkpt lat="52.187443" lon="4.505351">
        <ele>2300.0</ele>
        <time>2020-09-21T09:47:52Z</time>
      </trkpt>
      <trkpt lat="52.187416" lon="4.5053077">
        <ele>2300.0</ele>
        <time>2020-09-21T09:47:53Z</time>
      </trkpt>
      <trkpt lat="52.187397" lon="4.505263">
        <ele>2300.0</ele>
        <time>2020-09-21T09:47:54Z</time>
      </trkpt>
      <trkpt lat="52.187378" lon="4.505217">
        <ele>2300.0</ele>
        <time>2020-09-21T09:47:55Z</time>
      </trkpt>
      <trkpt lat="52.187363" lon="4.505173">
        <ele>2300.0</ele>
        <time>2020-09-21T09:47:56Z</time>
      </trkpt>
      <trkpt lat="52.18734" lon="4.505124">
        <ele>2300.0</ele>
        <time>2020-09-21T09:47:57Z</time>
      </trkpt>
      <trkpt lat="52.187325" lon="4.505076">
        <ele>2300.0</ele>
        <time>2020-09-21T09:47:58Z</time>
      </trkpt>
      <trkpt lat="52.187305" lon="4.5050282">
        <ele>2300.0</ele>
        <time>2020-09-21T09:47:59Z</time>
      </trkpt>
      <trkpt lat="52.18729" lon="4.5049844">
        <ele>2300.0</ele>
        <time>2020-09-21T09:48:00Z</time>
      </trkpt>
      <trkpt lat="52.187275" lon="4.504939">
        <ele>2300.0</ele>
        <time>2020-09-21T09:48:01Z</time>
      </trkpt>
      <trkpt lat="52.18726" lon="4.5048923">
        <ele>2300.0</ele>
        <time>2020-09-21T09:48:02Z</time>
      </trkpt>
      <trkpt lat="52.187237" lon="4.504841">
        <ele>2300.0</ele>
        <time>2020-09-21T09:48:03Z</time>
      </trkpt>
      <trkpt lat="52.18722" lon="4.5047903">
        <ele>2300.0</ele>
        <time>2020-09-21T09:48:04Z</time>
      </trkpt>
      <trkpt lat="52.187206" lon="4.504743">
        <ele>2300.0</ele>
        <time>2020-09-21T09:48:05Z</time>
      </trkpt>
      <trkpt lat="52.18719" lon="4.504696">
        <ele>2300.0</ele>
        <time>2020-09-21T09:48:06Z</time>
      </trkpt>
      <trkpt lat="52.187172" lon="4.5046477">
        <ele>2300.0</ele>
        <time>2020-09-21T09:48:07Z</time>
      </trkpt>
      <trkpt lat="52.187153" lon="4.5046005">
        <ele>2300.0</ele>
        <time>2020-09-21T09:48:08Z</time>
      </trkpt>
      <trkpt lat="52.187138" lon="4.504553">
        <ele>2300.0</ele>
        <time>2020-09-21T09:48:09Z</time>
      </trkpt>
      <trkpt lat="52.187122" lon="4.5045085">
        <ele>2300.0</ele>
        <time>2020-09-21T09:48:10Z</time>
      </trkpt>
      <trkpt lat="52.1871" lon="4.504463">
        <ele>2300.0</ele>
        <time>2020-09-21T09:48:11Z</time>
      </trkpt>
      <trkpt lat="52.187084" lon="4.5044184">
        <ele>2300.0</ele>
        <time>2020-09-21T09:48:13Z</time>
      </trkpt>
      <trkpt lat="52.18707" lon="4.5043726">
        <ele>2300.0</ele>
        <time>2020-09-21T09:48:13Z</time>
      </trkpt>
      <trkpt lat="52.187054" lon="4.5043287">
        <ele>2300.0</ele>
        <time>2020-09-21T09:48:14Z</time>
      </trkpt>
      <trkpt lat="52.187035" lon="4.504288">
        <ele>2300.0</ele>
        <time>2020-09-21T09:48:15Z</time>
      </trkpt>
      <trkpt lat="52.18702" lon="4.5042477">
        <ele>2300.0</ele>
        <time>2020-09-21T09:48:16Z</time>
      </trkpt>
      <trkpt lat="52.186996" lon="4.504208">
        <ele>2300.0</ele>
        <time>2020-09-21T09:48:17Z</time>
      </trkpt>
      <trkpt lat="52.18698" lon="4.5041714">
        <ele>2300.0</ele>
        <time>2020-09-21T09:48:18Z</time>
      </trkpt>
      <trkpt lat="52.186962" lon="4.5041347">
        <ele>2300.0</ele>
        <time>2020-09-21T09:48:19Z</time>
      </trkpt>
      <trkpt lat="52.186943" lon="4.5040984">
        <ele>2300.0</ele>
        <time>2020-09-21T09:48:20Z</time>
      </trkpt>
      <trkpt lat="52.18692" lon="4.5040607">
        <ele>2300.0</ele>
        <time>2020-09-21T09:48:21Z</time>
      </trkpt>
      <trkpt lat="52.1869" lon="4.5040216">
        <ele>2300.0</ele>
        <time>2020-09-21T09:48:22Z</time>
      </trkpt>
      <trkpt lat="52.18688" lon="4.503984">
        <ele>2300.0</ele>
        <time>2020-09-21T09:48:24Z</time>
      </trkpt>
      <trkpt lat="52.186855" lon="4.5039487">
        <ele>2300.0</ele>
        <time>2020-09-21T09:48:24Z</time>
      </trkpt>
      <trkpt lat="52.186832" lon="4.503913">
        <ele>2300.0</ele>
        <time>2020-09-21T09:48:25Z</time>
      </trkpt>
      <trkpt lat="52.186813" lon="4.5038795">
        <ele>2300.0</ele>
        <time>2020-09-21T09:48:26Z</time>
      </trkpt>
      <trkpt lat="52.186787" lon="4.5038476">
        <ele>2300.0</ele>
        <time>2020-09-21T09:48:27Z</time>
      </trkpt>
      <trkpt lat="52.186764" lon="4.503817">
        <ele>2300.0</ele>
        <time>2020-09-21T09:48:28Z</time>
      </trkpt>
      <trkpt lat="52.18674" lon="4.5037885">
        <ele>2300.0</ele>
        <time>2020-09-21T09:48:29Z</time>
      </trkpt>
      <trkpt lat="52.18672" lon="4.503762">
        <ele>2300.0</ele>
        <time>2020-09-21T09:48:30Z</time>
      </trkpt>
      <trkpt lat="52.186695" lon="4.5037355">
        <ele>2300.0</ele>
        <time>2020-09-21T09:48:31Z</time>
      </trkpt>
      <trkpt lat="52.18667" lon="4.50371">
        <ele>2300.0</ele>
        <time>2020-09-21T09:48:32Z</time>
      </trkpt>
      <trkpt lat="52.18665" lon="4.503684">
        <ele>2300.0</ele>
        <time>2020-09-21T09:48:34Z</time>
      </trkpt>
      <trkpt lat="52.186623" lon="4.503658">
        <ele>2300.0</ele>
        <time>2020-09-21T09:48:34Z</time>
      </trkpt>
      <trkpt lat="52.186604" lon="4.503629">
        <ele>2300.0</ele>
        <time>2020-09-21T09:48:35Z</time>
      </trkpt>
      <trkpt lat="52.186577" lon="4.5036025">
        <ele>2300.0</ele>
        <time>2020-09-21T09:48:36Z</time>
      </trkpt>
      <trkpt lat="52.186558" lon="4.503577">
        <ele>2300.0</ele>
        <time>2020-09-21T09:48:37Z</time>
      </trkpt>
      <trkpt lat="52.18653" lon="4.50355">
        <ele>2300.0</ele>
        <time>2020-09-21T09:48:38Z</time>
      </trkpt>
      <trkpt lat="52.186504" lon="4.503521">
        <ele>2300.0</ele>
        <time>2020-09-21T09:48:39Z</time>
      </trkpt>
      <trkpt lat="52.186485" lon="4.5034914">
        <ele>2300.0</ele>
        <time>2020-09-21T09:48:40Z</time>
      </trkpt>
      <trkpt lat="52.18646" lon="4.503462">
        <ele>2300.0</ele>
        <time>2020-09-21T09:48:41Z</time>
      </trkpt>
      <trkpt lat="52.186436" lon="4.503431">
        <ele>2300.0</ele>
        <time>2020-09-21T09:48:41Z</time>
      </trkpt>
      <trkpt lat="52.186413" lon="4.5034">
        <ele>2300.0</ele>
        <time>2020-09-21T09:48:42Z</time>
      </trkpt>
      <trkpt lat="52.18639" lon="4.5033684">
        <ele>2300.0</ele>
        <time>2020-09-21T09:48:43Z</time>
      </trkpt>
      <trkpt lat="52.186367" lon="4.503337">
        <ele>2300.0</ele>
        <time>2020-09-21T09:48:44Z</time>
      </trkpt>
      <trkpt lat="52.186348" lon="4.5033045">
        <ele>2300.0</ele>
        <time>2020-09-21T09:48:45Z</time>
      </trkpt>
      <trkpt lat="52.18633" lon="4.5032735">
        <ele>2300.0</ele>
        <time>2020-09-21T09:48:46Z</time>
      </trkpt>
      <trkpt lat="52.186306" lon="4.5032415">
        <ele>2300.0</ele>
        <time>2020-09-21T09:48:47Z</time>
      </trkpt>
      <trkpt lat="52.18629" lon="4.5032096">
        <ele>2300.0</ele>
        <time>2020-09-21T09:48:48Z</time>
      </trkpt>
      <trkpt lat="52.18628" lon="4.503176">
        <ele>2300.0</ele>
        <time>2020-09-21T09:48:49Z</time>
      </trkpt>
      <trkpt lat="52.18627" lon="4.5031385">
        <ele>2300.0</ele>
        <time>2020-09-21T09:48:51Z</time>
      </trkpt>
      <trkpt lat="52.186256" lon="4.503098">
        <ele>2300.0</ele>
        <time>2020-09-21T09:48:51Z</time>
      </trkpt>
      <trkpt lat="52.186245" lon="4.5030565">
        <ele>2300.0</ele>
        <time>2020-09-21T09:48:52Z</time>
      </trkpt>
      <trkpt lat="52.186234" lon="4.503013">
        <ele>2300.0</ele>
        <time>2020-09-21T09:48:53Z</time>
      </trkpt>
      <trkpt lat="52.186226" lon="4.5029683">
        <ele>2300.0</ele>
        <time>2020-09-21T09:48:54Z</time>
      </trkpt>
      <trkpt lat="52.186214" lon="4.502921">
        <ele>2300.0</ele>
        <time>2020-09-21T09:48:55Z</time>
      </trkpt>
      <trkpt lat="52.18621" lon="4.502871">
        <ele>2300.0</ele>
        <time>2020-09-21T09:48:56Z</time>
      </trkpt>
      <trkpt lat="52.1862" lon="4.502819">
        <ele>2300.0</ele>
        <time>2020-09-21T09:48:57Z</time>
      </trkpt>
      <trkpt lat="52.186195" lon="4.502767">
        <ele>2300.0</ele>
        <time>2020-09-21T09:48:58Z</time>
      </trkpt>
      <trkpt lat="52.186188" lon="4.502714">
        <ele>2300.0</ele>
        <time>2020-09-21T09:48:59Z</time>
      </trkpt>
      <trkpt lat="52.18618" lon="4.5026617">
        <ele>2300.0</ele>
        <time>2020-09-21T09:49:00Z</time>
      </trkpt>
      <trkpt lat="52.186172" lon="4.5026126">
        <ele>2300.0</ele>
        <time>2020-09-21T09:49:01Z</time>
      </trkpt>
      <trkpt lat="52.186165" lon="4.5025663">
        <ele>2300.0</ele>
        <time>2020-09-21T09:49:02Z</time>
      </trkpt>
      <trkpt lat="52.186157" lon="4.5025225">
        <ele>2300.0</ele>
        <time>2020-09-21T09:49:03Z</time>
      </trkpt>
      <trkpt lat="52.186142" lon="4.502482">
        <ele>2300.0</ele>
        <time>2020-09-21T09:49:04Z</time>
      </trkpt>
      <trkpt lat="52.186134" lon="4.5024414">
        <ele>2300.0</ele>
        <time>2020-09-21T09:49:05Z</time>
      </trkpt>
      <trkpt lat="52.186115" lon="4.5024014">
        <ele>2300.0</ele>
        <time>2020-09-21T09:49:06Z</time>
      </trkpt>
      <trkpt lat="52.186108" lon="4.502362">
        <ele>2300.0</ele>
        <time>2020-09-21T09:49:07Z</time>
      </trkpt>
      <trkpt lat="52.186092" lon="4.5023217">
        <ele>2300.0</ele>
        <time>2020-09-21T09:49:08Z</time>
      </trkpt>
      <trkpt lat="52.18607" lon="4.5022836">
        <ele>2300.0</ele>
        <time>2020-09-21T09:49:09Z</time>
      </trkpt>
      <trkpt lat="52.18605" lon="4.5022473">
        <ele>2300.0</ele>
        <time>2020-09-21T09:49:10Z</time>
      </trkpt>
      <trkpt lat="52.18603" lon="4.5022135">
        <ele>2300.0</ele>
        <time>2020-09-21T09:49:12Z</time>
      </trkpt>
      <trkpt lat="52.18601" lon="4.502183">
        <ele>2300.0</ele>
        <time>2020-09-21T09:49:12Z</time>
      </trkpt>
      <trkpt lat="52.18599" lon="4.502159">
        <ele>2300.0</ele>
        <time>2020-09-21T09:49:13Z</time>
      </trkpt>
      <trkpt lat="52.185963" lon="4.50214">
        <ele>2300.0</ele>
        <time>2020-09-21T09:49:14Z</time>
      </trkpt>
      <trkpt lat="52.185932" lon="4.502129">
        <ele>2300.0</ele>
        <time>2020-09-21T09:49:15Z</time>
      </trkpt>
      <trkpt lat="52.1859" lon="4.502119">
        <ele>2300.0</ele>
        <time>2020-09-21T09:49:16Z</time>
      </trkpt>
      <trkpt lat="52.18587" lon="4.5021114">
        <ele>2300.0</ele>
        <time>2020-09-21T09:49:17Z</time>
      </trkpt>
      <trkpt lat="52.18584" lon="4.502104">
        <ele>2300.0</ele>
        <time>2020-09-21T09:49:18Z</time>
      </trkpt>
      <trkpt lat="52.18581" lon="4.502097">
        <ele>2300.0</ele>
        <time>2020-09-21T09:49:19Z</time>
      </trkpt>
      <trkpt lat="52.185783" lon="4.5020924">
        <ele>2300.0</ele>
        <time>2020-09-21T09:49:20Z</time>
      </trkpt>
      <trkpt lat="52.185753" lon="4.5020895">
        <ele>2300.0</ele>
        <time>2020-09-21T09:49:21Z</time>
      </trkpt>
      <trkpt lat="52.185726" lon="4.50209">
        <ele>2300.0</ele>
        <time>2020-09-21T09:49:23Z</time>
      </trkpt>
      <trkpt lat="52.185696" lon="4.5020914">
        <ele>2300.0</ele>
        <time>2020-09-21T09:49:23Z</time>
      </trkpt>
      <trkpt lat="52.185665" lon="4.5020933">
        <ele>2300.0</ele>
        <time>2020-09-21T09:49:24Z</time>
      </trkpt>
      <trkpt lat="52.185635" lon="4.5020943">
        <ele>2300.0</ele>
        <time>2020-09-21T09:49:25Z</time>
      </trkpt>
      <trkpt lat="52.185604" lon="4.5020924">
        <ele>2300.0</ele>
        <time>2020-09-21T09:49:26Z</time>
      </trkpt>
      <trkpt lat="52.185574" lon="4.502088">
        <ele>2300.0</ele>
        <time>2020-09-21T09:49:27Z</time>
      </trkpt>
      <trkpt lat="52.185543" lon="4.502081">
        <ele>2300.0</ele>
        <time>2020-09-21T09:49:28Z</time>
      </trkpt>
      <trkpt lat="52.18551" lon="4.502072">
        <ele>2300.0</ele>
        <time>2020-09-21T09:49:29Z</time>
      </trkpt>
      <trkpt lat="52.18548" lon="4.5020623">
        <ele>2300.0</ele>
        <time>2020-09-21T09:49:30Z</time>
      </trkpt>
      <trkpt lat="52.18545" lon="4.5020504">
        <ele>2300.0</ele>
        <time>2020-09-21T09:49:31Z</time>
      </trkpt>
      <trkpt lat="52.18542" lon="4.5020347">
        <ele>2300.0</ele>
        <time>2020-09-21T09:49:33Z</time>
      </trkpt>
      <trkpt lat="52.18539" lon="4.5020156">
        <ele>2300.0</ele>
        <time>2020-09-21T09:49:33Z</time>
      </trkpt>
      <trkpt lat="52.185364" lon="4.501993">
        <ele>2300.0</ele>
        <time>2020-09-21T09:49:34Z</time>
      </trkpt>
      <trkpt lat="52.185337" lon="4.501968">
        <ele>2300.0</ele>
        <time>2020-09-21T09:49:35Z</time>
      </trkpt>
      <trkpt lat="52.185318" lon="4.5019403">
        <ele>2300.0</ele>
        <time>2020-09-21T09:49:36Z</time>
      </trkpt>
      <trkpt lat="52.185303" lon="4.501912">
        <ele>2300.0</ele>
        <time>2020-09-21T09:49:37Z</time>
      </trkpt>
      <trkpt lat="52.185284" lon="4.501884">
        <ele>2300.0</ele>
        <time>2020-09-21T09:49:38Z</time>
      </trkpt>
      <trkpt lat="52.18527" lon="4.501855">
        <ele>2300.0</ele>
        <time>2020-09-21T09:49:39Z</time>
      </trkpt>
      <trkpt lat="52.185253" lon="4.501824">
        <ele>2300.0</ele>
        <time>2020-09-21T09:49:41Z</time>
      </trkpt>
      <trkpt lat="52.185238" lon="4.5017924">
        <ele>2300.0</ele>
        <time>2020-09-21T09:49:41Z</time>
      </trkpt>
      <trkpt lat="52.185223" lon="4.501761">
        <ele>2300.0</ele>
        <time>2020-09-21T09:49:42Z</time>
      </trkpt>
      <trkpt lat="52.1852" lon="4.5017333">
        <ele>2300.0</ele>
        <time>2020-09-21T09:49:43Z</time>
      </trkpt>
      <trkpt lat="52.185184" lon="4.501706">
        <ele>2300.0</ele>
        <time>2020-09-21T09:49:44Z</time>
      </trkpt>
      <trkpt lat="52.185165" lon="4.50168">
        <ele>2300.0</ele>
        <time>2020-09-21T09:49:45Z</time>
      </trkpt>
      <trkpt lat="52.185143" lon="4.5016546">
        <ele>2300.0</ele>
        <time>2020-09-21T09:49:46Z</time>
      </trkpt>
      <trkpt lat="52.185123" lon="4.5016274">
        <ele>2300.0</ele>
        <time>2020-09-21T09:49:47Z</time>
      </trkpt>
      <trkpt lat="52.185104" lon="4.501605">
        <ele>2300.0</ele>
        <time>2020-09-21T09:49:48Z</time>
      </trkpt>
      <trkpt lat="52.18508" lon="4.501588">
        <ele>2300.0</ele>
        <time>2020-09-21T09:49:49Z</time>
      </trkpt>
      <trkpt lat="52.185062" lon="4.5015674">
        <ele>2300.0</ele>
        <time>2020-09-21T09:49:51Z</time>
      </trkpt>
      <trkpt lat="52.185047" lon="4.5015464">
        <ele>2300.0</ele>
        <time>2020-09-21T09:49:51Z</time>
      </trkpt>
      <trkpt lat="52.18502" lon="4.5015244">
        <ele>2300.0</ele>
        <time>2020-09-21T09:49:52Z</time>
      </trkpt>
      <trkpt lat="52.185" lon="4.5015016">
        <ele>2300.0</ele>
        <time>2020-09-21T09:49:53Z</time>
      </trkpt>
      <trkpt lat="52.184975" lon="4.5014772">
        <ele>2300.0</ele>
        <time>2020-09-21T09:49:54Z</time>
      </trkpt>
      <trkpt lat="52.184948" lon="4.5014515">
        <ele>2300.0</ele>
        <time>2020-09-21T09:49:55Z</time>
      </trkpt>
      <trkpt lat="52.18493" lon="4.501426">
        <ele>2300.0</ele>
        <time>2020-09-21T09:49:56Z</time>
      </trkpt>
      <trkpt lat="52.184902" lon="4.501403">
        <ele>2300.0</ele>
        <time>2020-09-21T09:49:57Z</time>
      </trkpt>
      <trkpt lat="52.18488" lon="4.501381">
        <ele>2300.0</ele>
        <time>2020-09-21T09:49:58Z</time>
      </trkpt>
      <trkpt lat="52.184856" lon="4.5013585">
        <ele>2300.0</ele>
        <time>2020-09-21T09:49:59Z</time>
      </trkpt>
      <trkpt lat="52.184834" lon="4.501337">
        <ele>2300.0</ele>
        <time>2020-09-21T09:50:00Z</time>
      </trkpt>
      <trkpt lat="52.184807" lon="4.5013175">
        <ele>2300.0</ele>
        <time>2020-09-21T09:50:01Z</time>
      </trkpt>
      <trkpt lat="52.18478" lon="4.501299">
        <ele>2300.0</ele>
        <time>2020-09-21T09:50:02Z</time>
      </trkpt>
      <trkpt lat="52.184753" lon="4.501282">
        <ele>2300.0</ele>
        <time>2020-09-21T09:50:03Z</time>
      </trkpt>
      <trkpt lat="52.18473" lon="4.5012693">
        <ele>2300.0</ele>
        <time>2020-09-21T09:50:04Z</time>
      </trkpt>
      <trkpt lat="52.184704" lon="4.501263">
        <ele>2300.0</ele>
        <time>2020-09-21T09:50:05Z</time>
      </trkpt>
      <trkpt lat="52.184677" lon="4.5012646">
        <ele>2300.0</ele>
        <time>2020-09-21T09:50:06Z</time>
      </trkpt>
      <trkpt lat="52.184654" lon="4.501272">
        <ele>2300.0</ele>
        <time>2020-09-21T09:50:07Z</time>
      </trkpt>
      <trkpt lat="52.184628" lon="4.501284">
        <ele>2300.0</ele>
        <time>2020-09-21T09:50:08Z</time>
      </trkpt>
      <trkpt lat="52.18461" lon="4.501298">
        <ele>2300.0</ele>
        <time>2020-09-21T09:50:09Z</time>
      </trkpt>
      <trkpt lat="52.184586" lon="4.501314">
        <ele>2300.0</ele>
        <time>2020-09-21T09:50:10Z</time>
      </trkpt>
      <trkpt lat="52.18456" lon="4.5013347">
        <ele>2300.0</ele>
        <time>2020-09-21T09:50:11Z</time>
      </trkpt>
      <trkpt lat="52.18454" lon="4.501359">
        <ele>2300.0</ele>
        <time>2020-09-21T09:50:12Z</time>
      </trkpt>
      <trkpt lat="52.18452" lon="4.501383">
        <ele>2300.0</ele>
        <time>2020-09-21T09:50:13Z</time>
      </trkpt>
      <trkpt lat="52.184494" lon="4.5014095">
        <ele>2300.0</ele>
        <time>2020-09-21T09:50:14Z</time>
      </trkpt>
      <trkpt lat="52.184467" lon="4.5014415">
        <ele>2300.0</ele>
        <time>2020-09-21T09:50:15Z</time>
      </trkpt>
      <trkpt lat="52.184437" lon="4.5014715">
        <ele>2300.0</ele>
        <time>2020-09-21T09:50:16Z</time>
      </trkpt>
      <trkpt lat="52.184414" lon="4.5015025">
        <ele>2400.0</ele>
        <time>2020-09-21T09:50:17Z</time>
      </trkpt>
      <trkpt lat="52.184387" lon="4.501532">
        <ele>2400.0</ele>
        <time>2020-09-21T09:50:18Z</time>
      </trkpt>
      <trkpt lat="52.18436" lon="4.5015583">
        <ele>2400.0</ele>
        <time>2020-09-21T09:50:19Z</time>
      </trkpt>
      <trkpt lat="52.18434" lon="4.501586">
        <ele>2400.0</ele>
        <time>2020-09-21T09:50:21Z</time>
      </trkpt>
      <trkpt lat="52.184326" lon="4.5016117">
        <ele>2400.0</ele>
        <time>2020-09-21T09:50:21Z</time>
      </trkpt>
      <trkpt lat="52.18431" lon="4.5016365">
        <ele>2400.0</ele>
        <time>2020-09-21T09:50:22Z</time>
      </trkpt>
      <trkpt lat="52.184296" lon="4.5016603">
        <ele>2400.0</ele>
        <time>2020-09-21T09:50:23Z</time>
      </trkpt>
      <trkpt lat="52.184273" lon="4.501681">
        <ele>2400.0</ele>
        <time>2020-09-21T09:50:24Z</time>
      </trkpt>
      <trkpt lat="52.184258" lon="4.5016966">
        <ele>2400.0</ele>
        <time>2020-09-21T09:50:25Z</time>
      </trkpt>
      <trkpt lat="52.18424" lon="4.501713">
        <ele>2400.0</ele>
        <time>2020-09-21T09:50:27Z</time>
      </trkpt>
      <trkpt lat="52.18422" lon="4.501731">
        <ele>2400.0</ele>
        <time>2020-09-21T09:50:27Z</time>
      </trkpt>
      <trkpt lat="52.184204" lon="4.501752">
        <ele>2400.0</ele>
        <time>2020-09-21T09:50:28Z</time>
      </trkpt>
      <trkpt lat="52.18418" lon="4.5017786">
        <ele>2400.0</ele>
        <time>2020-09-21T09:50:29Z</time>
      </trkpt>
      <trkpt lat="52.18417" lon="4.501812">
        <ele>2400.0</ele>
        <time>2020-09-21T09:50:30Z</time>
      </trkpt>
      <trkpt lat="52.184162" lon="4.501852">
        <ele>2400.0</ele>
        <time>2020-09-21T09:50:31Z</time>
      </trkpt>
      <trkpt lat="52.18415" lon="4.501896">
        <ele>2400.0</ele>
        <time>2020-09-21T09:50:32Z</time>
      </trkpt>
      <trkpt lat="52.18415" lon="4.5019417">
        <ele>2400.0</ele>
        <time>2020-09-21T09:50:33Z</time>
      </trkpt>
      <trkpt lat="52.18415" lon="4.501988">
        <ele>2400.0</ele>
        <time>2020-09-21T09:50:34Z</time>
      </trkpt>
      <trkpt lat="52.184155" lon="4.502033">
        <ele>2400.0</ele>
        <time>2020-09-21T09:50:35Z</time>
      </trkpt>
      <trkpt lat="52.184162" lon="4.5020785">
        <ele>2400.0</ele>
        <time>2020-09-21T09:50:36Z</time>
      </trkpt>
      <trkpt lat="52.18417" lon="4.50212">
        <ele>2400.0</ele>
        <time>2020-09-21T09:50:38Z</time>
      </trkpt>
      <trkpt lat="52.18418" lon="4.502159">
        <ele>2400.0</ele>
        <time>2020-09-21T09:50:38Z</time>
      </trkpt>
      <trkpt lat="52.184193" lon="4.5022">
        <ele>2400.0</ele>
        <time>2020-09-21T09:50:39Z</time>
      </trkpt>
      <trkpt lat="52.184208" lon="4.502243">
        <ele>2400.0</ele>
        <time>2020-09-21T09:50:40Z</time>
      </trkpt>
      <trkpt lat="52.18422" lon="4.5022893">
        <ele>2400.0</ele>
        <time>2020-09-21T09:50:41Z</time>
      </trkpt>
      <trkpt lat="52.184235" lon="4.5023384">
        <ele>2400.0</ele>
        <time>2020-09-21T09:50:42Z</time>
      </trkpt>
      <trkpt lat="52.18425" lon="4.50239">
        <ele>2400.0</ele>
        <time>2020-09-21T09:50:43Z</time>
      </trkpt>
      <trkpt lat="52.184265" lon="4.502441">
        <ele>2400.0</ele>
        <time>2020-09-21T09:50:45Z</time>
      </trkpt>
      <trkpt lat="52.184273" lon="4.502487">
        <ele>2400.0</ele>
        <time>2020-09-21T09:50:45Z</time>
      </trkpt>
      <trkpt lat="52.184288" lon="4.502532">
        <ele>2400.0</ele>
        <time>2020-09-21T09:50:46Z</time>
      </trkpt>
      <trkpt lat="52.184303" lon="4.5025764">
        <ele>2400.0</ele>
        <time>2020-09-21T09:50:47Z</time>
      </trkpt>
      <trkpt lat="52.184315" lon="4.502619">
        <ele>2400.0</ele>
        <time>2020-09-21T09:50:48Z</time>
      </trkpt>
      <trkpt lat="52.184326" lon="4.5026593">
        <ele>2400.0</ele>
        <time>2020-09-21T09:50:49Z</time>
      </trkpt>
      <trkpt lat="52.184334" lon="4.5026994">
        <ele>2400.0</ele>
        <time>2020-09-21T09:50:50Z</time>
      </trkpt>
      <trkpt lat="52.18435" lon="4.5027437">
        <ele>2400.0</ele>
        <time>2020-09-21T09:50:51Z</time>
      </trkpt>
      <trkpt lat="52.184364" lon="4.5027914">
        <ele>2400.0</ele>
        <time>2020-09-21T09:50:52Z</time>
      </trkpt>
      <trkpt lat="52.18438" lon="4.502843">
        <ele>2400.0</ele>
        <time>2020-09-21T09:50:53Z</time>
      </trkpt>
      <trkpt lat="52.18439" lon="4.5028977">
        <ele>2400.0</ele>
        <time>2020-09-21T09:50:54Z</time>
      </trkpt>
      <trkpt lat="52.184402" lon="4.5029573">
        <ele>2400.0</ele>
        <time>2020-09-21T09:50:55Z</time>
      </trkpt>
      <trkpt lat="52.184406" lon="4.5030127">
        <ele>2400.0</ele>
        <time>2020-09-21T09:50:56Z</time>
      </trkpt>
      <trkpt lat="52.184414" lon="4.5030675">
        <ele>2400.0</ele>
        <time>2020-09-21T09:50:57Z</time>
      </trkpt>
      <trkpt lat="52.18442" lon="4.5031204">
        <ele>2400.0</ele>
        <time>2020-09-21T09:50:58Z</time>
      </trkpt>
      <trkpt lat="52.18443" lon="4.503172">
        <ele>2400.0</ele>
        <time>2020-09-21T09:50:59Z</time>
      </trkpt>
      <trkpt lat="52.184437" lon="4.503222">
        <ele>2400.0</ele>
        <time>2020-09-21T09:51:00Z</time>
      </trkpt>
      <trkpt lat="52.184437" lon="4.5032754">
        <ele>2400.0</ele>
        <time>2020-09-21T09:51:01Z</time>
      </trkpt>
      <trkpt lat="52.184444" lon="4.503325">
        <ele>2400.0</ele>
        <time>2020-09-21T09:51:02Z</time>
      </trkpt>
      <trkpt lat="52.184444" lon="4.5033736">
        <ele>2400.0</ele>
        <time>2020-09-21T09:51:03Z</time>
      </trkpt>
      <trkpt lat="52.184444" lon="4.5034266">
        <ele>2400.0</ele>
        <time>2020-09-21T09:51:04Z</time>
      </trkpt>
      <trkpt lat="52.184444" lon="4.5034804">
        <ele>2400.0</ele>
        <time>2020-09-21T09:51:06Z</time>
      </trkpt>
      <trkpt lat="52.184437" lon="4.50353">
        <ele>2400.0</ele>
        <time>2020-09-21T09:51:06Z</time>
      </trkpt>
      <trkpt lat="52.184437" lon="4.5035806">
        <ele>2400.0</ele>
        <time>2020-09-21T09:51:07Z</time>
      </trkpt>
      <trkpt lat="52.184433" lon="4.503636">
        <ele>2400.0</ele>
        <time>2020-09-21T09:51:08Z</time>
      </trkpt>
      <trkpt lat="52.184433" lon="4.5036917">
        <ele>2400.0</ele>
        <time>2020-09-21T09:51:09Z</time>
      </trkpt>
      <trkpt lat="52.184433" lon="4.5037475">
        <ele>2400.0</ele>
        <time>2020-09-21T09:51:10Z</time>
      </trkpt>
      <trkpt lat="52.18443" lon="4.503801">
        <ele>2400.0</ele>
        <time>2020-09-21T09:51:11Z</time>
      </trkpt>
      <trkpt lat="52.18443" lon="4.5038548">
        <ele>2400.0</ele>
        <time>2020-09-21T09:51:12Z</time>
      </trkpt>
      <trkpt lat="52.184433" lon="4.503913">
        <ele>2400.0</ele>
        <time>2020-09-21T09:51:13Z</time>
      </trkpt>
      <trkpt lat="52.184433" lon="4.503966">
        <ele>2400.0</ele>
        <time>2020-09-21T09:51:14Z</time>
      </trkpt>
      <trkpt lat="52.184433" lon="4.5040197">
        <ele>2400.0</ele>
        <time>2020-09-21T09:51:15Z</time>
      </trkpt>
      <trkpt lat="52.184433" lon="4.504074">
        <ele>2400.0</ele>
        <time>2020-09-21T09:51:16Z</time>
      </trkpt>
      <trkpt lat="52.18443" lon="4.504126">
        <ele>2400.0</ele>
        <time>2020-09-21T09:51:17Z</time>
      </trkpt>
      <trkpt lat="52.18443" lon="4.504178">
        <ele>2400.0</ele>
        <time>2020-09-21T09:51:18Z</time>
      </trkpt>
      <trkpt lat="52.18443" lon="4.5042286">
        <ele>2400.0</ele>
        <time>2020-09-21T09:51:19Z</time>
      </trkpt>
      <trkpt lat="52.18442" lon="4.504279">
        <ele>2400.0</ele>
        <time>2020-09-21T09:51:20Z</time>
      </trkpt>
      <trkpt lat="52.18442" lon="4.5043297">
        <ele>2400.0</ele>
        <time>2020-09-21T09:51:21Z</time>
      </trkpt>
      <trkpt lat="52.18442" lon="4.5043793">
        <ele>2400.0</ele>
        <time>2020-09-21T09:51:22Z</time>
      </trkpt>
      <trkpt lat="52.184418" lon="4.5044274">
        <ele>2400.0</ele>
        <time>2020-09-21T09:51:23Z</time>
      </trkpt>
      <trkpt lat="52.184414" lon="4.5044756">
        <ele>2400.0</ele>
        <time>2020-09-21T09:51:24Z</time>
      </trkpt>
      <trkpt lat="52.184406" lon="4.5045247">
        <ele>2400.0</ele>
        <time>2020-09-21T09:51:25Z</time>
      </trkpt>
      <trkpt lat="52.1844" lon="4.5045743">
        <ele>2400.0</ele>
        <time>2020-09-21T09:51:27Z</time>
      </trkpt>
      <trkpt lat="52.184387" lon="4.504627">
        <ele>2400.0</ele>
        <time>2020-09-21T09:51:27Z</time>
      </trkpt>
      <trkpt lat="52.184376" lon="4.5046806">
        <ele>2400.0</ele>
        <time>2020-09-21T09:51:28Z</time>
      </trkpt>
      <trkpt lat="52.184364" lon="4.504735">
        <ele>2400.0</ele>
        <time>2020-09-21T09:51:29Z</time>
      </trkpt>
      <trkpt lat="52.184357" lon="4.504789">
        <ele>2400.0</ele>
        <time>2020-09-21T09:51:30Z</time>
      </trkpt>
      <trkpt lat="52.184345" lon="4.504839">
        <ele>2400.0</ele>
        <time>2020-09-21T09:51:31Z</time>
      </trkpt>
      <trkpt lat="52.18434" lon="4.5048857">
        <ele>2400.0</ele>
        <time>2020-09-21T09:51:32Z</time>
      </trkpt>
      <trkpt lat="52.18433" lon="4.504931">
        <ele>2400.0</ele>
        <time>2020-09-21T09:51:33Z</time>
      </trkpt>
      <trkpt lat="52.18432" lon="4.504976">
        <ele>2400.0</ele>
        <time>2020-09-21T09:51:34Z</time>
      </trkpt>
      <trkpt lat="52.18431" lon="4.5050197">
        <ele>2400.0</ele>
        <time>2020-09-21T09:51:35Z</time>
      </trkpt>
      <trkpt lat="52.184303" lon="4.505064">
        <ele>2400.0</ele>
        <time>2020-09-21T09:51:36Z</time>
      </trkpt>
      <trkpt lat="52.184296" lon="4.505109">
        <ele>2400.0</ele>
        <time>2020-09-21T09:51:38Z</time>
      </trkpt>
      <trkpt lat="52.184288" lon="4.5051517">
        <ele>2400.0</ele>
        <time>2020-09-21T09:51:38Z</time>
      </trkpt>
      <trkpt lat="52.18428" lon="4.5051937">
        <ele>2400.0</ele>
        <time>2020-09-21T09:51:39Z</time>
      </trkpt>
      <trkpt lat="52.184273" lon="4.505235">
        <ele>2400.0</ele>
        <time>2020-09-21T09:51:40Z</time>
      </trkpt>
      <trkpt lat="52.184265" lon="4.5052767">
        <ele>2400.0</ele>
        <time>2020-09-21T09:51:41Z</time>
      </trkpt>
      <trkpt lat="52.184254" lon="4.5053196">
        <ele>2400.0</ele>
        <time>2020-09-21T09:51:42Z</time>
      </trkpt>
      <trkpt lat="52.18425" lon="4.505364">
        <ele>2400.0</ele>
        <time>2020-09-21T09:51:43Z</time>
      </trkpt>
      <trkpt lat="52.184242" lon="4.5054073">
        <ele>2400.0</ele>
        <time>2020-09-21T09:51:44Z</time>
      </trkpt>
      <trkpt lat="52.184242" lon="4.505453">
        <ele>2400.0</ele>
        <time>2020-09-21T09:51:45Z</time>
      </trkpt>
      <trkpt lat="52.18424" lon="4.5055046">
        <ele>2400.0</ele>
        <time>2020-09-21T09:51:46Z</time>
      </trkpt>
      <trkpt lat="52.184235" lon="4.505559">
        <ele>2400.0</ele>
        <time>2020-09-21T09:51:47Z</time>
      </trkpt>
      <trkpt lat="52.184227" lon="4.505619">
        <ele>2400.0</ele>
        <time>2020-09-21T09:51:48Z</time>
      </trkpt>
      <trkpt lat="52.18422" lon="4.505675">
        <ele>2400.0</ele>
        <time>2020-09-21T09:51:49Z</time>
      </trkpt>
      <trkpt lat="52.18421" lon="4.505731">
        <ele>2400.0</ele>
        <time>2020-09-21T09:51:50Z</time>
      </trkpt>
      <trkpt lat="52.184208" lon="4.5057874">
        <ele>2400.0</ele>
        <time>2020-09-21T09:51:51Z</time>
      </trkpt>
      <trkpt lat="52.184204" lon="4.5058417">
        <ele>2400.0</ele>
        <time>2020-09-21T09:51:52Z</time>
      </trkpt>
      <trkpt lat="52.184196" lon="4.5058994">
        <ele>2400.0</ele>
        <time>2020-09-21T09:51:53Z</time>
      </trkpt>
      <trkpt lat="52.184196" lon="4.5059533">
        <ele>2400.0</ele>
        <time>2020-09-21T09:51:54Z</time>
      </trkpt>
      <trkpt lat="52.184196" lon="4.506007">
        <ele>2400.0</ele>
        <time>2020-09-21T09:51:56Z</time>
      </trkpt>
      <trkpt lat="52.184193" lon="4.5060616">
        <ele>2400.0</ele>
        <time>2020-09-21T09:51:56Z</time>
      </trkpt>
      <trkpt lat="52.184185" lon="4.5061197">
        <ele>2400.0</ele>
        <time>2020-09-21T09:51:57Z</time>
      </trkpt>
      <trkpt lat="52.18418" lon="4.5061765">
        <ele>2400.0</ele>
        <time>2020-09-21T09:51:58Z</time>
      </trkpt>
      <trkpt lat="52.184177" lon="4.50623">
        <ele>2400.0</ele>
        <time>2020-09-21T09:51:59Z</time>
      </trkpt>
      <trkpt lat="52.18417" lon="4.506283">
        <ele>2400.0</ele>
        <time>2020-09-21T09:52:00Z</time>
      </trkpt>
      <trkpt lat="52.184162" lon="4.5063376">
        <ele>2400.0</ele>
        <time>2020-09-21T09:52:01Z</time>
      </trkpt>
      <trkpt lat="52.18415" lon="4.5063906">
        <ele>2400.0</ele>
        <time>2020-09-21T09:52:02Z</time>
      </trkpt>
      <trkpt lat="52.18414" lon="4.506448">
        <ele>2400.0</ele>
        <time>2020-09-21T09:52:03Z</time>
      </trkpt>
      <trkpt lat="52.18413" lon="4.5065017">
        <ele>2400.0</ele>
        <time>2020-09-21T09:52:04Z</time>
      </trkpt>
      <trkpt lat="52.184116" lon="4.5065575">
        <ele>2400.0</ele>
        <time>2020-09-21T09:52:05Z</time>
      </trkpt>
      <trkpt lat="52.184105" lon="4.506618">
        <ele>2400.0</ele>
        <time>2020-09-21T09:52:06Z</time>
      </trkpt>
      <trkpt lat="52.184093" lon="4.50668">
        <ele>2400.0</ele>
        <time>2020-09-21T09:52:07Z</time>
      </trkpt>
      <trkpt lat="52.18409" lon="4.506736">
        <ele>2400.0</ele>
        <time>2020-09-21T09:52:08Z</time>
      </trkpt>
      <trkpt lat="52.184086" lon="4.506789">
        <ele>2400.0</ele>
        <time>2020-09-21T09:52:09Z</time>
      </trkpt>
      <trkpt lat="52.18408" lon="4.5068417">
        <ele>2400.0</ele>
        <time>2020-09-21T09:52:10Z</time>
      </trkpt>
      <trkpt lat="52.184074" lon="4.5068927">
        <ele>2400.0</ele>
        <time>2020-09-21T09:52:11Z</time>
      </trkpt>
      <trkpt lat="52.18407" lon="4.5069423">
        <ele>2400.0</ele>
        <time>2020-09-21T09:52:12Z</time>
      </trkpt>
      <trkpt lat="52.184063" lon="4.506992">
        <ele>2400.0</ele>
        <time>2020-09-21T09:52:13Z</time>
      </trkpt>
      <trkpt lat="52.18406" lon="4.5070424">
        <ele>2400.0</ele>
        <time>2020-09-21T09:52:14Z</time>
      </trkpt>
      <trkpt lat="52.184048" lon="4.507094">
        <ele>2400.0</ele>
        <time>2020-09-21T09:52:15Z</time>
      </trkpt>
      <trkpt lat="52.18404" lon="4.5071454">
        <ele>2400.0</ele>
        <time>2020-09-21T09:52:17Z</time>
      </trkpt>
      <trkpt lat="52.184032" lon="4.507198">
        <ele>2400.0</ele>
        <time>2020-09-21T09:52:17Z</time>
      </trkpt>
      <trkpt lat="52.184025" lon="4.507254">
        <ele>2400.0</ele>
        <time>2020-09-21T09:52:18Z</time>
      </trkpt>
      <trkpt lat="52.184017" lon="4.5073066">
        <ele>2400.0</ele>
        <time>2020-09-21T09:52:19Z</time>
      </trkpt>
      <trkpt lat="52.184013" lon="4.5073576">
        <ele>2400.0</ele>
        <time>2020-09-21T09:52:20Z</time>
      </trkpt>
      <trkpt lat="52.18401" lon="4.5074096">
        <ele>2400.0</ele>
        <time>2020-09-21T09:52:21Z</time>
      </trkpt>
      <trkpt lat="52.184002" lon="4.5074615">
        <ele>2400.0</ele>
        <time>2020-09-21T09:52:22Z</time>
      </trkpt>
      <trkpt lat="52.18399" lon="4.507517">
        <ele>2400.0</ele>
        <time>2020-09-21T09:52:23Z</time>
      </trkpt>
      <trkpt lat="52.183987" lon="4.5075674">
        <ele>2400.0</ele>
        <time>2020-09-21T09:52:24Z</time>
      </trkpt>
      <trkpt lat="52.183983" lon="4.5076175">
        <ele>2400.0</ele>
        <time>2020-09-21T09:52:25Z</time>
      </trkpt>
      <trkpt lat="52.18397" lon="4.5076714">
        <ele>2400.0</ele>
        <time>2020-09-21T09:52:26Z</time>
      </trkpt>
      <trkpt lat="52.18396" lon="4.507723">
        <ele>2400.0</ele>
        <time>2020-09-21T09:52:28Z</time>
      </trkpt>
      <trkpt lat="52.183956" lon="4.507773">
        <ele>2400.0</ele>
        <time>2020-09-21T09:52:28Z</time>
      </trkpt>
      <trkpt lat="52.183952" lon="4.5078216">
        <ele>2400.0</ele>
        <time>2020-09-21T09:52:29Z</time>
      </trkpt>
      <trkpt lat="52.183945" lon="4.507872">
        <ele>2400.0</ele>
        <time>2020-09-21T09:52:30Z</time>
      </trkpt>
      <trkpt lat="52.18394" lon="4.507927">
        <ele>2400.0</ele>
        <time>2020-09-21T09:52:31Z</time>
      </trkpt>
      <trkpt lat="52.183937" lon="4.5079756">
        <ele>2400.0</ele>
        <time>2020-09-21T09:52:32Z</time>
      </trkpt>
      <trkpt lat="52.18393" lon="4.508023">
        <ele>2400.0</ele>
        <time>2020-09-21T09:52:33Z</time>
      </trkpt>
      <trkpt lat="52.183926" lon="4.508067">
        <ele>2400.0</ele>
        <time>2020-09-21T09:52:34Z</time>
      </trkpt>
      <trkpt lat="52.18392" lon="4.5081105">
        <ele>2400.0</ele>
        <time>2020-09-21T09:52:35Z</time>
      </trkpt>
      <trkpt lat="52.183914" lon="4.508156">
        <ele>2400.0</ele>
        <time>2020-09-21T09:52:36Z</time>
      </trkpt>
      <trkpt lat="52.18391" lon="4.508204">
        <ele>2400.0</ele>
        <time>2020-09-21T09:52:38Z</time>
      </trkpt>
      <trkpt lat="52.1839" lon="4.5082507">
        <ele>2400.0</ele>
        <time>2020-09-21T09:52:38Z</time>
      </trkpt>
      <trkpt lat="52.183895" lon="4.5082965">
        <ele>2400.0</ele>
        <time>2020-09-21T09:52:39Z</time>
      </trkpt>
      <trkpt lat="52.18389" lon="4.5083437">
        <ele>2400.0</ele>
        <time>2020-09-21T09:52:40Z</time>
      </trkpt>
      <trkpt lat="52.183884" lon="4.508394">
        <ele>2400.0</ele>
        <time>2020-09-21T09:52:41Z</time>
      </trkpt>
      <trkpt lat="52.18388" lon="4.5084414">
        <ele>2400.0</ele>
        <time>2020-09-21T09:52:42Z</time>
      </trkpt>
      <trkpt lat="52.18388" lon="4.5084863">
        <ele>2400.0</ele>
        <time>2020-09-21T09:52:43Z</time>
      </trkpt>
      <trkpt lat="52.183876" lon="4.5085297">
        <ele>2400.0</ele>
        <time>2020-09-21T09:52:44Z</time>
      </trkpt>
      <trkpt lat="52.183876" lon="4.508578">
        <ele>2400.0</ele>
        <time>2020-09-21T09:52:45Z</time>
      </trkpt>
      <trkpt lat="52.183865" lon="4.5086255">
        <ele>2400.0</ele>
        <time>2020-09-21T09:52:46Z</time>
      </trkpt>
      <trkpt lat="52.183865" lon="4.508671">
        <ele>2400.0</ele>
        <time>2020-09-21T09:52:47Z</time>
      </trkpt>
      <trkpt lat="52.18386" lon="4.508718">
        <ele>2400.0</ele>
        <time>2020-09-21T09:52:48Z</time>
      </trkpt>
      <trkpt lat="52.183853" lon="4.5087667">
        <ele>2400.0</ele>
        <time>2020-09-21T09:52:49Z</time>
      </trkpt>
      <trkpt lat="52.183853" lon="4.5088186">
        <ele>2400.0</ele>
        <time>2020-09-21T09:52:50Z</time>
      </trkpt>
      <trkpt lat="52.18385" lon="4.5088696">
        <ele>2400.0</ele>
        <time>2020-09-21T09:52:51Z</time>
      </trkpt>
      <trkpt lat="52.183846" lon="4.508916">
        <ele>2400.0</ele>
        <time>2020-09-21T09:52:52Z</time>
      </trkpt>
      <trkpt lat="52.183834" lon="4.508963">
        <ele>2400.0</ele>
        <time>2020-09-21T09:52:53Z</time>
      </trkpt>
      <trkpt lat="52.18383" lon="4.50901">
        <ele>2400.0</ele>
        <time>2020-09-21T09:52:54Z</time>
      </trkpt>
      <trkpt lat="52.18382" lon="4.509055">
        <ele>2400.0</ele>
        <time>2020-09-21T09:52:56Z</time>
      </trkpt>
      <trkpt lat="52.183815" lon="4.509101">
        <ele>2400.0</ele>
        <time>2020-09-21T09:52:56Z</time>
      </trkpt>
      <trkpt lat="52.183804" lon="4.5091476">
        <ele>2400.0</ele>
        <time>2020-09-21T09:52:56Z</time>
      </trkpt>
      <trkpt lat="52.183796" lon="4.509195">
        <ele>2400.0</ele>
        <time>2020-09-21T09:52:57Z</time>
      </trkpt>
      <trkpt lat="52.183796" lon="4.509242">
        <ele>2400.0</ele>
        <time>2020-09-21T09:52:58Z</time>
      </trkpt>
      <trkpt lat="52.183796" lon="4.5092897">
        <ele>2400.0</ele>
        <time>2020-09-21T09:52:59Z</time>
      </trkpt>
      <trkpt lat="52.183796" lon="4.5093384">
        <ele>2400.0</ele>
        <time>2020-09-21T09:53:00Z</time>
      </trkpt>
      <trkpt lat="52.183796" lon="4.509387">
        <ele>2400.0</ele>
        <time>2020-09-21T09:53:01Z</time>
      </trkpt>
      <trkpt lat="52.183796" lon="4.5094366">
        <ele>2400.0</ele>
        <time>2020-09-21T09:53:02Z</time>
      </trkpt>
      <trkpt lat="52.183796" lon="4.50949">
        <ele>2400.0</ele>
        <time>2020-09-21T09:53:03Z</time>
      </trkpt>
      <trkpt lat="52.183796" lon="4.509543">
        <ele>2400.0</ele>
        <time>2020-09-21T09:53:04Z</time>
      </trkpt>
      <trkpt lat="52.183792" lon="4.5095954">
        <ele>2400.0</ele>
        <time>2020-09-21T09:53:05Z</time>
      </trkpt>
      <trkpt lat="52.18378" lon="4.509646">
        <ele>2400.0</ele>
        <time>2020-09-21T09:53:06Z</time>
      </trkpt>
      <trkpt lat="52.183777" lon="4.5096965">
        <ele>2400.0</ele>
        <time>2020-09-21T09:53:07Z</time>
      </trkpt>
      <trkpt lat="52.183765" lon="4.5097466">
        <ele>2400.0</ele>
        <time>2020-09-21T09:53:08Z</time>
      </trkpt>
      <trkpt lat="52.183758" lon="4.509796">
        <ele>2400.0</ele>
        <time>2020-09-21T09:53:09Z</time>
      </trkpt>
      <trkpt lat="52.183746" lon="4.509845">
        <ele>2400.0</ele>
        <time>2020-09-21T09:53:10Z</time>
      </trkpt>
      <trkpt lat="52.183735" lon="4.5098925">
        <ele>2400.0</ele>
        <time>2020-09-21T09:53:11Z</time>
      </trkpt>
      <trkpt lat="52.183727" lon="4.509939">
        <ele>2400.0</ele>
        <time>2020-09-21T09:53:12Z</time>
      </trkpt>
      <trkpt lat="52.183712" lon="4.5099845">
        <ele>2400.0</ele>
        <time>2020-09-21T09:53:13Z</time>
      </trkpt>
      <trkpt lat="52.1837" lon="4.510028">
        <ele>2400.0</ele>
        <time>2020-09-21T09:53:14Z</time>
      </trkpt>
      <trkpt lat="52.18369" lon="4.5100694">
        <ele>2400.0</ele>
        <time>2020-09-21T09:53:16Z</time>
      </trkpt>
      <trkpt lat="52.183674" lon="4.51011">
        <ele>2400.0</ele>
        <time>2020-09-21T09:53:16Z</time>
      </trkpt>
      <trkpt lat="52.183666" lon="4.51015">
        <ele>2400.0</ele>
        <time>2020-09-21T09:53:17Z</time>
      </trkpt>
      <trkpt lat="52.18365" lon="4.5101886">
        <ele>2400.0</ele>
        <time>2020-09-21T09:53:18Z</time>
      </trkpt>
      <trkpt lat="52.183636" lon="4.5102296">
        <ele>2400.0</ele>
        <time>2020-09-21T09:53:19Z</time>
      </trkpt>
      <trkpt lat="52.183624" lon="4.5102706">
        <ele>2400.0</ele>
        <time>2020-09-21T09:53:20Z</time>
      </trkpt>
      <trkpt lat="52.183613" lon="4.5103097">
        <ele>2400.0</ele>
        <time>2020-09-21T09:53:21Z</time>
      </trkpt>
      <trkpt lat="52.1836" lon="4.5103493">
        <ele>2400.0</ele>
        <time>2020-09-21T09:53:22Z</time>
      </trkpt>
      <trkpt lat="52.183598" lon="4.510384">
        <ele>2400.0</ele>
        <time>2020-09-21T09:53:23Z</time>
      </trkpt>
      <trkpt lat="52.183594" lon="4.5104117">
        <ele>2400.0</ele>
        <time>2020-09-21T09:53:24Z</time>
      </trkpt>
      <trkpt lat="52.183586" lon="4.5104327">
        <ele>2400.0</ele>
        <time>2020-09-21T09:53:25Z</time>
      </trkpt>
      <trkpt lat="52.183582" lon="4.5104475">
        <ele>2400.0</ele>
        <time>2020-09-21T09:53:27Z</time>
      </trkpt>
      <trkpt lat="52.18358" lon="4.5104556">
        <ele>2400.0</ele>
        <time>2020-09-21T09:53:27Z</time>
      </trkpt>
      <trkpt lat="52.18357" lon="4.510459">
        <ele>2400.0</ele>
        <time>2020-09-21T09:53:28Z</time>
      </trkpt>
      <trkpt lat="52.183563" lon="4.51046">
        <ele>2400.0</ele>
        <time>2020-09-21T09:53:31Z</time>
      </trkpt>
      <trkpt lat="52.183563" lon="4.5104566">
        <ele>2400.0</ele>
        <time>2020-09-21T09:53:33Z</time>
      </trkpt>
      <trkpt lat="52.183563" lon="4.510455">
        <ele>2400.0</ele>
        <time>2020-09-21T09:53:34Z</time>
      </trkpt>
      <trkpt lat="52.183556" lon="4.510453">
        <ele>2400.0</ele>
        <time>2020-09-21T09:53:35Z</time>
      </trkpt>
      <trkpt lat="52.183556" lon="4.51045">
        <ele>2300.0</ele>
        <time>2020-09-21T09:53:36Z</time>
      </trkpt>
      <trkpt lat="52.183556" lon="4.5104465">
        <ele>2300.0</ele>
        <time>2020-09-21T09:53:37Z</time>
      </trkpt>
      <trkpt lat="52.18355" lon="4.510443">
        <ele>2300.0</ele>
        <time>2020-09-21T09:53:38Z</time>
      </trkpt>
      <trkpt lat="52.18355" lon="4.510443">
        <ele>2300.0</ele>
        <time>2020-09-21T09:53:39Z</time>
      </trkpt>
      <trkpt lat="52.18355" lon="4.510444">
        <ele>2300.0</ele>
        <time>2020-09-21T09:53:40Z</time>
      </trkpt>
      <trkpt lat="52.18355" lon="4.5104456">
        <ele>2300.0</ele>
        <time>2020-09-21T09:53:41Z</time>
      </trkpt>
      <trkpt lat="52.183556" lon="4.5104456">
        <ele>2300.0</ele>
        <time>2020-09-21T09:53:42Z</time>
      </trkpt>
      <trkpt lat="52.183556" lon="4.5104465">
        <ele>2300.0</ele>
        <time>2020-09-21T09:53:43Z</time>
      </trkpt>
      <trkpt lat="52.18355" lon="4.5104475">
        <ele>2300.0</ele>
        <time>2020-09-21T09:53:44Z</time>
      </trkpt>
      <trkpt lat="52.183548" lon="4.510453">
        <ele>2300.0</ele>
        <time>2020-09-21T09:54:05Z</time>
      </trkpt>
      <trkpt lat="52.183548" lon="4.5104566">
        <ele>2300.0</ele>
        <time>2020-09-21T09:54:07Z</time>
      </trkpt>
      <trkpt lat="52.183548" lon="4.5104575">
        <ele>2300.0</ele>
        <time>2020-09-21T09:54:08Z</time>
      </trkpt>
      <trkpt lat="52.183548" lon="4.510459">
        <ele>2300.0</ele>
        <time>2020-09-21T09:54:09Z</time>
      </trkpt>
      <trkpt lat="52.183548" lon="4.5104628">
        <ele>2300.0</ele>
        <time>2020-09-21T09:54:10Z</time>
      </trkpt>
      <trkpt lat="52.183548" lon="4.510467">
        <ele>2300.0</ele>
        <time>2020-09-21T09:54:11Z</time>
      </trkpt>
      <trkpt lat="52.18355" lon="4.5104766">
        <ele>2300.0</ele>
        <time>2020-09-21T09:54:29Z</time>
      </trkpt>
      <trkpt lat="52.18355" lon="4.5104733">
        <ele>2300.0</ele>
        <time>2020-09-21T09:54:31Z</time>
      </trkpt>
      <trkpt lat="52.18355" lon="4.5104723">
        <ele>2300.0</ele>
        <time>2020-09-21T09:54:32Z</time>
      </trkpt>
      <trkpt lat="52.18355" lon="4.510472">
        <ele>2300.0</ele>
        <time>2020-09-21T09:54:33Z</time>
      </trkpt>
      <trkpt lat="52.183563" lon="4.510468">
        <ele>2300.0</ele>
        <time>2020-09-21T09:54:35Z</time>
      </trkpt>
      <trkpt lat="52.183563" lon="4.5104675">
        <ele>2300.0</ele>
        <time>2020-09-21T09:54:36Z</time>
      </trkpt>
      <trkpt lat="52.183563" lon="4.510466">
        <ele>2300.0</ele>
        <time>2020-09-21T09:54:37Z</time>
      </trkpt>
      <trkpt lat="52.183563" lon="4.510464">
        <ele>2300.0</ele>
        <time>2020-09-21T09:54:38Z</time>
      </trkpt>
      <trkpt lat="52.183563" lon="4.5104485">
        <ele>2300.0</ele>
        <time>2020-09-21T09:54:46Z</time>
      </trkpt>
      <trkpt lat="52.183563" lon="4.5104465">
        <ele>2300.0</ele>
        <time>2020-09-21T09:54:47Z</time>
      </trkpt>
      <trkpt lat="52.183563" lon="4.5104427">
        <ele>2300.0</ele>
        <time>2020-09-21T09:54:48Z</time>
      </trkpt>
      <trkpt lat="52.183563" lon="4.5104384">
        <ele>2300.0</ele>
        <time>2020-09-21T09:54:49Z</time>
      </trkpt>
      <trkpt lat="52.18355" lon="4.5104265">
        <ele>2300.0</ele>
        <time>2020-09-21T09:54:52Z</time>
      </trkpt>
      <trkpt lat="52.18355" lon="4.5104265">
        <ele>2300.0</ele>
        <time>2020-09-21T09:54:53Z</time>
      </trkpt>
      <trkpt lat="52.18355" lon="4.510426">
        <ele>2300.0</ele>
        <time>2020-09-21T09:54:54Z</time>
      </trkpt>
      <trkpt lat="52.18354" lon="4.510423">
        <ele>2300.0</ele>
        <time>2020-09-21T09:54:56Z</time>
      </trkpt>
      <trkpt lat="52.18354" lon="4.510422">
        <ele>2300.0</ele>
        <time>2020-09-21T09:54:58Z</time>
      </trkpt>
      <trkpt lat="52.183533" lon="4.5104165">
        <ele>2300.0</ele>
        <time>2020-09-21T09:55:22Z</time>
      </trkpt>
      <trkpt lat="52.183533" lon="4.5104265">
        <ele>2300.0</ele>
        <time>2020-09-21T09:55:35Z</time>
      </trkpt>
      <trkpt lat="52.183533" lon="4.510427">
        <ele>2300.0</ele>
        <time>2020-09-21T09:55:36Z</time>
      </trkpt>
      <trkpt lat="52.183533" lon="4.5104265">
        <ele>2300.0</ele>
        <time>2020-09-21T09:55:52Z</time>
      </trkpt>
      <trkpt lat="52.183533" lon="4.510425">
        <ele>2300.0</ele>
        <time>2020-09-21T09:55:53Z</time>
      </trkpt>
      <trkpt lat="52.183533" lon="4.5104218">
        <ele>2300.0</ele>
        <time>2020-09-21T09:55:54Z</time>
      </trkpt>
      <trkpt lat="52.183533" lon="4.5104184">
        <ele>2300.0</ele>
        <time>2020-09-21T09:55:55Z</time>
      </trkpt>
      <trkpt lat="52.183533" lon="4.5104156">
        <ele>2300.0</ele>
        <time>2020-09-21T09:55:56Z</time>
      </trkpt>
      <trkpt lat="52.183533" lon="4.5104017">
        <ele>2300.0</ele>
        <time>2020-09-21T09:56:00Z</time>
      </trkpt>
      <trkpt lat="52.183533" lon="4.510401">
        <ele>2300.0</ele>
        <time>2020-09-21T09:56:00Z</time>
      </trkpt>
      <trkpt lat="52.183533" lon="4.510393">
        <ele>2300.0</ele>
        <time>2020-09-21T09:56:03Z</time>
      </trkpt>
      <trkpt lat="52.183533" lon="4.510395">
        <ele>2300.0</ele>
        <time>2020-09-21T09:56:32Z</time>
      </trkpt>
      <trkpt lat="52.183525" lon="4.5104084">
        <ele>2300.0</ele>
        <time>2020-09-21T09:56:53Z</time>
      </trkpt>
      <trkpt lat="52.183525" lon="4.5104213">
        <ele>2300.0</ele>
        <time>2020-09-21T09:57:13Z</time>
      </trkpt>
      <trkpt lat="52.183525" lon="4.510428">
        <ele>2300.0</ele>
        <time>2020-09-21T09:57:14Z</time>
      </trkpt>
      <trkpt lat="52.183525" lon="4.510441">
        <ele>2300.0</ele>
        <time>2020-09-21T09:57:16Z</time>
      </trkpt>
      <trkpt lat="52.183525" lon="4.5104613">
        <ele>2300.0</ele>
        <time>2020-09-21T09:57:16Z</time>
      </trkpt>
      <trkpt lat="52.183525" lon="4.510485">
        <ele>2300.0</ele>
        <time>2020-09-21T09:57:17Z</time>
      </trkpt>
      <trkpt lat="52.183525" lon="4.510511">
        <ele>2300.0</ele>
        <time>2020-09-21T09:57:18Z</time>
      </trkpt>
      <trkpt lat="52.183525" lon="4.5105405">
        <ele>2300.0</ele>
        <time>2020-09-21T09:57:19Z</time>
      </trkpt>
      <trkpt lat="52.183525" lon="4.5105724">
        <ele>2300.0</ele>
        <time>2020-09-21T09:57:20Z</time>
      </trkpt>
      <trkpt lat="52.183525" lon="4.510605">
        <ele>2300.0</ele>
        <time>2020-09-21T09:57:21Z</time>
      </trkpt>
      <trkpt lat="52.183525" lon="4.510635">
        <ele>2300.0</ele>
        <time>2020-09-21T09:57:22Z</time>
      </trkpt>
      <trkpt lat="52.183525" lon="4.510657">
        <ele>2300.0</ele>
        <time>2020-09-21T09:57:23Z</time>
      </trkpt>
      <trkpt lat="52.18352" lon="4.5106707">
        <ele>2300.0</ele>
        <time>2020-09-21T09:57:24Z</time>
      </trkpt>
      <trkpt lat="52.18352" lon="4.5106797">
        <ele>2300.0</ele>
        <time>2020-09-21T09:57:25Z</time>
      </trkpt>
      <trkpt lat="52.18352" lon="4.5106945">
        <ele>2300.0</ele>
        <time>2020-09-21T09:57:28Z</time>
      </trkpt>
      <trkpt lat="52.18354" lon="4.51073">
        <ele>2300.0</ele>
        <time>2020-09-21T09:57:48Z</time>
      </trkpt>
      <trkpt lat="52.18354" lon="4.5107265">
        <ele>2300.0</ele>
        <time>2020-09-21T09:57:50Z</time>
      </trkpt>
      <trkpt lat="52.18354" lon="4.51072">
        <ele>2300.0</ele>
        <time>2020-09-21T09:57:52Z</time>
      </trkpt>
      <trkpt lat="52.18354" lon="4.5107207">
        <ele>2300.0</ele>
        <time>2020-09-21T09:57:53Z</time>
      </trkpt>
      <trkpt lat="52.18354" lon="4.510734">
        <ele>2300.0</ele>
        <time>2020-09-21T09:57:54Z</time>
      </trkpt>
      <trkpt lat="52.183537" lon="4.510758">
        <ele>2300.0</ele>
        <time>2020-09-21T09:57:55Z</time>
      </trkpt>
      <trkpt lat="52.183537" lon="4.5107894">
        <ele>2300.0</ele>
        <time>2020-09-21T09:57:56Z</time>
      </trkpt>
      <trkpt lat="52.183533" lon="4.5108275">
        <ele>2300.0</ele>
        <time>2020-09-21T09:57:57Z</time>
      </trkpt>
      <trkpt lat="52.183525" lon="4.5108695">
        <ele>2300.0</ele>
        <time>2020-09-21T09:57:58Z</time>
      </trkpt>
      <trkpt lat="52.183517" lon="4.5109158">
        <ele>2300.0</ele>
        <time>2020-09-21T09:57:59Z</time>
      </trkpt>
      <trkpt lat="52.18351" lon="4.510966">
        <ele>2300.0</ele>
        <time>2020-09-21T09:58:00Z</time>
      </trkpt>
      <trkpt lat="52.183502" lon="4.5110188">
        <ele>2300.0</ele>
        <time>2020-09-21T09:58:01Z</time>
      </trkpt>
      <trkpt lat="52.18349" lon="4.511072">
        <ele>2400.0</ele>
        <time>2020-09-21T09:58:02Z</time>
      </trkpt>
      <trkpt lat="52.18348" lon="4.5111246">
        <ele>2400.0</ele>
        <time>2020-09-21T09:58:03Z</time>
      </trkpt>
      <trkpt lat="52.183475" lon="4.5111732">
        <ele>2400.0</ele>
        <time>2020-09-21T09:58:05Z</time>
      </trkpt>
      <trkpt lat="52.18346" lon="4.511219">
        <ele>2400.0</ele>
        <time>2020-09-21T09:58:05Z</time>
      </trkpt>
      <trkpt lat="52.18345" lon="4.5112643">
        <ele>2400.0</ele>
        <time>2020-09-21T09:58:06Z</time>
      </trkpt>
      <trkpt lat="52.18344" lon="4.5113106">
        <ele>2400.0</ele>
        <time>2020-09-21T09:58:07Z</time>
      </trkpt>
      <trkpt lat="52.18343" lon="4.5113564">
        <ele>2400.0</ele>
        <time>2020-09-21T09:58:08Z</time>
      </trkpt>
      <trkpt lat="52.18342" lon="4.5113997">
        <ele>2400.0</ele>
        <time>2020-09-21T09:58:09Z</time>
      </trkpt>
      <trkpt lat="52.183407" lon="4.511443">
        <ele>2400.0</ele>
        <time>2020-09-21T09:58:10Z</time>
      </trkpt>
      <trkpt lat="52.183407" lon="4.5114875">
        <ele>2400.0</ele>
        <time>2020-09-21T09:58:11Z</time>
      </trkpt>
      <trkpt lat="52.183403" lon="4.511531">
        <ele>2400.0</ele>
        <time>2020-09-21T09:58:12Z</time>
      </trkpt>
      <trkpt lat="52.1834" lon="4.5115743">
        <ele>2400.0</ele>
        <time>2020-09-21T09:58:13Z</time>
      </trkpt>
      <trkpt lat="52.1834" lon="4.511618">
        <ele>2400.0</ele>
        <time>2020-09-21T09:58:14Z</time>
      </trkpt>
      <trkpt lat="52.1834" lon="4.5116625">
        <ele>2400.0</ele>
        <time>2020-09-21T09:58:16Z</time>
      </trkpt>
      <trkpt lat="52.18339" lon="4.5117083">
        <ele>2400.0</ele>
        <time>2020-09-21T09:58:16Z</time>
      </trkpt>
      <trkpt lat="52.183388" lon="4.511755">
        <ele>2400.0</ele>
        <time>2020-09-21T09:58:17Z</time>
      </trkpt>
      <trkpt lat="52.183384" lon="4.5118017">
        <ele>2400.0</ele>
        <time>2020-09-21T09:58:18Z</time>
      </trkpt>
      <trkpt lat="52.183372" lon="4.5118494">
        <ele>2400.0</ele>
        <time>2020-09-21T09:58:19Z</time>
      </trkpt>
      <trkpt lat="52.18336" lon="4.5118995">
        <ele>2400.0</ele>
        <time>2020-09-21T09:58:20Z</time>
      </trkpt>
      <trkpt lat="52.183353" lon="4.5119505">
        <ele>2400.0</ele>
        <time>2020-09-21T09:58:21Z</time>
      </trkpt>
      <trkpt lat="52.183342" lon="4.511997">
        <ele>2400.0</ele>
        <time>2020-09-21T09:58:22Z</time>
      </trkpt>
      <trkpt lat="52.18333" lon="4.512042">
        <ele>2400.0</ele>
        <time>2020-09-21T09:58:23Z</time>
      </trkpt>
      <trkpt lat="52.183327" lon="4.512087">
        <ele>2400.0</ele>
        <time>2020-09-21T09:58:24Z</time>
      </trkpt>
      <trkpt lat="52.183323" lon="4.5121307">
        <ele>2400.0</ele>
        <time>2020-09-21T09:58:25Z</time>
      </trkpt>
      <trkpt lat="52.183323" lon="4.51217">
        <ele>2400.0</ele>
        <time>2020-09-21T09:58:26Z</time>
      </trkpt>
      <trkpt lat="52.183323" lon="4.5122066">
        <ele>2400.0</ele>
        <time>2020-09-21T09:58:27Z</time>
      </trkpt>
      <trkpt lat="52.183323" lon="4.5122375">
        <ele>2400.0</ele>
        <time>2020-09-21T09:58:28Z</time>
      </trkpt>
      <trkpt lat="52.18333" lon="4.5122657">
        <ele>2400.0</ele>
        <time>2020-09-21T09:58:29Z</time>
      </trkpt>
      <trkpt lat="52.18334" lon="4.5122924">
        <ele>2400.0</ele>
        <time>2020-09-21T09:58:30Z</time>
      </trkpt>
      <trkpt lat="52.183346" lon="4.5123224">
        <ele>2400.0</ele>
        <time>2020-09-21T09:58:31Z</time>
      </trkpt>
      <trkpt lat="52.183357" lon="4.5123563">
        <ele>2400.0</ele>
        <time>2020-09-21T09:58:32Z</time>
      </trkpt>
      <trkpt lat="52.18336" lon="4.5123935">
        <ele>2400.0</ele>
        <time>2020-09-21T09:58:33Z</time>
      </trkpt>
      <trkpt lat="52.18336" lon="4.512434">
        <ele>2400.0</ele>
        <time>2020-09-21T09:58:34Z</time>
      </trkpt>
      <trkpt lat="52.18336" lon="4.512477">
        <ele>2400.0</ele>
        <time>2020-09-21T09:58:35Z</time>
      </trkpt>
      <trkpt lat="52.183357" lon="4.5125203">
        <ele>2400.0</ele>
        <time>2020-09-21T09:58:37Z</time>
      </trkpt>
      <trkpt lat="52.183353" lon="4.5125647">
        <ele>2400.0</ele>
        <time>2020-09-21T09:58:37Z</time>
      </trkpt>
      <trkpt lat="52.183346" lon="4.51261">
        <ele>2400.0</ele>
        <time>2020-09-21T09:58:38Z</time>
      </trkpt>
      <trkpt lat="52.183342" lon="4.512658">
        <ele>2400.0</ele>
        <time>2020-09-21T09:58:39Z</time>
      </trkpt>
      <trkpt lat="52.18334" lon="4.5127068">
        <ele>2400.0</ele>
        <time>2020-09-21T09:58:40Z</time>
      </trkpt>
      <trkpt lat="52.18333" lon="4.5127563">
        <ele>2400.0</ele>
        <time>2020-09-21T09:58:41Z</time>
      </trkpt>
      <trkpt lat="52.183327" lon="4.512806">
        <ele>2400.0</ele>
        <time>2020-09-21T09:58:42Z</time>
      </trkpt>
      <trkpt lat="52.183323" lon="4.5128574">
        <ele>2400.0</ele>
        <time>2020-09-21T09:58:43Z</time>
      </trkpt>
      <trkpt lat="52.18331" lon="4.512909">
        <ele>2400.0</ele>
        <time>2020-09-21T09:58:44Z</time>
      </trkpt>
      <trkpt lat="52.183308" lon="4.5129566">
        <ele>2400.0</ele>
        <time>2020-09-21T09:58:45Z</time>
      </trkpt>
      <trkpt lat="52.183296" lon="4.5130014">
        <ele>2400.0</ele>
        <time>2020-09-21T09:58:46Z</time>
      </trkpt>
      <trkpt lat="52.183292" lon="4.513047">
        <ele>2400.0</ele>
        <time>2020-09-21T09:58:47Z</time>
      </trkpt>
      <trkpt lat="52.18328" lon="4.513088">
        <ele>2400.0</ele>
        <time>2020-09-21T09:58:48Z</time>
      </trkpt>
      <trkpt lat="52.183277" lon="4.513135">
        <ele>2400.0</ele>
        <time>2020-09-21T09:58:49Z</time>
      </trkpt>
      <trkpt lat="52.18327" lon="4.5131807">
        <ele>2400.0</ele>
        <time>2020-09-21T09:58:50Z</time>
      </trkpt>
      <trkpt lat="52.183266" lon="4.513227">
        <ele>2400.0</ele>
        <time>2020-09-21T09:58:51Z</time>
      </trkpt>
      <trkpt lat="52.183254" lon="4.5132747">
        <ele>2400.0</ele>
        <time>2020-09-21T09:58:52Z</time>
      </trkpt>
      <trkpt lat="52.183247" lon="4.513325">
        <ele>2400.0</ele>
        <time>2020-09-21T09:58:53Z</time>
      </trkpt>
      <trkpt lat="52.183235" lon="4.513379">
        <ele>2400.0</ele>
        <time>2020-09-21T09:58:55Z</time>
      </trkpt>
      <trkpt lat="52.183224" lon="4.513433">
        <ele>2400.0</ele>
        <time>2020-09-21T09:58:55Z</time>
      </trkpt>
      <trkpt lat="52.183212" lon="4.513486">
        <ele>2400.0</ele>
        <time>2020-09-21T09:58:56Z</time>
      </trkpt>
      <trkpt lat="52.183205" lon="4.5135384">
        <ele>2400.0</ele>
        <time>2020-09-21T09:58:57Z</time>
      </trkpt>
      <trkpt lat="52.183205" lon="4.513587">
        <ele>2400.0</ele>
        <time>2020-09-21T09:58:58Z</time>
      </trkpt>
      <trkpt lat="52.183197" lon="4.5136294">
        <ele>2400.0</ele>
        <time>2020-09-21T09:58:59Z</time>
      </trkpt>
      <trkpt lat="52.183193" lon="4.5136704">
        <ele>2400.0</ele>
        <time>2020-09-21T09:59:00Z</time>
      </trkpt>
      <trkpt lat="52.18319" lon="4.51371">
        <ele>2400.0</ele>
        <time>2020-09-21T09:59:01Z</time>
      </trkpt>
      <trkpt lat="52.183178" lon="4.51375">
        <ele>2400.0</ele>
        <time>2020-09-21T09:59:02Z</time>
      </trkpt>
      <trkpt lat="52.183167" lon="4.513795">
        <ele>2400.0</ele>
        <time>2020-09-21T09:59:03Z</time>
      </trkpt>
      <trkpt lat="52.183163" lon="4.513845">
        <ele>2400.0</ele>
        <time>2020-09-21T09:59:04Z</time>
      </trkpt>
      <trkpt lat="52.183147" lon="4.513902">
        <ele>2400.0</ele>
        <time>2020-09-21T09:59:05Z</time>
      </trkpt>
      <trkpt lat="52.183144" lon="4.513964">
        <ele>2400.0</ele>
        <time>2020-09-21T09:59:06Z</time>
      </trkpt>
      <trkpt lat="52.183132" lon="4.5140285">
        <ele>2400.0</ele>
        <time>2020-09-21T09:59:07Z</time>
      </trkpt>
      <trkpt lat="52.18312" lon="4.514095">
        <ele>2400.0</ele>
        <time>2020-09-21T09:59:08Z</time>
      </trkpt>
      <trkpt lat="52.183113" lon="4.5141625">
        <ele>2400.0</ele>
        <time>2020-09-21T09:59:09Z</time>
      </trkpt>
      <trkpt lat="52.1831" lon="4.514229">
        <ele>2400.0</ele>
        <time>2020-09-21T09:59:10Z</time>
      </trkpt>
      <trkpt lat="52.183098" lon="4.514292">
        <ele>2400.0</ele>
        <time>2020-09-21T09:59:11Z</time>
      </trkpt>
      <trkpt lat="52.183086" lon="4.514351">
        <ele>2400.0</ele>
        <time>2020-09-21T09:59:12Z</time>
      </trkpt>
      <trkpt lat="52.183075" lon="4.5144076">
        <ele>2400.0</ele>
        <time>2020-09-21T09:59:13Z</time>
      </trkpt>
      <trkpt lat="52.183067" lon="4.5144606">
        <ele>2400.0</ele>
        <time>2020-09-21T09:59:14Z</time>
      </trkpt>
      <trkpt lat="52.183056" lon="4.514512">
        <ele>2400.0</ele>
        <time>2020-09-21T09:59:16Z</time>
      </trkpt>
      <trkpt lat="52.183044" lon="4.514561">
        <ele>2400.0</ele>
        <time>2020-09-21T09:59:16Z</time>
      </trkpt>
      <trkpt lat="52.183033" lon="4.514607">
        <ele>2400.0</ele>
        <time>2020-09-21T09:59:17Z</time>
      </trkpt>
      <trkpt lat="52.18303" lon="4.5146503">
        <ele>2400.0</ele>
        <time>2020-09-21T09:59:18Z</time>
      </trkpt>
      <trkpt lat="52.183018" lon="4.5146937">
        <ele>2400.0</ele>
        <time>2020-09-21T09:59:19Z</time>
      </trkpt>
      <trkpt lat="52.18301" lon="4.514738">
        <ele>2400.0</ele>
        <time>2020-09-21T09:59:20Z</time>
      </trkpt>
      <trkpt lat="52.183" lon="4.514782">
        <ele>2400.0</ele>
        <time>2020-09-21T09:59:21Z</time>
      </trkpt>
      <trkpt lat="52.182995" lon="4.514825">
        <ele>2400.0</ele>
        <time>2020-09-21T09:59:22Z</time>
      </trkpt>
      <trkpt lat="52.182987" lon="4.514869">
        <ele>2400.0</ele>
        <time>2020-09-21T09:59:23Z</time>
      </trkpt>
      <trkpt lat="52.182983" lon="4.5149145">
        <ele>2400.0</ele>
        <time>2020-09-21T09:59:24Z</time>
      </trkpt>
      <trkpt lat="52.182983" lon="4.5149593">
        <ele>2400.0</ele>
        <time>2020-09-21T09:59:25Z</time>
      </trkpt>
      <trkpt lat="52.18298" lon="4.515005">
        <ele>2400.0</ele>
        <time>2020-09-21T09:59:26Z</time>
      </trkpt>
      <trkpt lat="52.18298" lon="4.5150533">
        <ele>2400.0</ele>
        <time>2020-09-21T09:59:27Z</time>
      </trkpt>
      <trkpt lat="52.182972" lon="4.5151057">
        <ele>2400.0</ele>
        <time>2020-09-21T09:59:28Z</time>
      </trkpt>
      <trkpt lat="52.182964" lon="4.5151587">
        <ele>2400.0</ele>
        <time>2020-09-21T09:59:29Z</time>
      </trkpt>
      <trkpt lat="52.182957" lon="4.5152082">
        <ele>2400.0</ele>
        <time>2020-09-21T09:59:30Z</time>
      </trkpt>
      <trkpt lat="52.18294" lon="4.515261">
        <ele>2400.0</ele>
        <time>2020-09-21T09:59:31Z</time>
      </trkpt>
      <trkpt lat="52.182934" lon="4.515315">
        <ele>2400.0</ele>
        <time>2020-09-21T09:59:32Z</time>
      </trkpt>
      <trkpt lat="52.182922" lon="4.5153675">
        <ele>2400.0</ele>
        <time>2020-09-21T09:59:33Z</time>
      </trkpt>
      <trkpt lat="52.18291" lon="4.5154176">
        <ele>2400.0</ele>
        <time>2020-09-21T09:59:34Z</time>
      </trkpt>
      <trkpt lat="52.182903" lon="4.5154676">
        <ele>2400.0</ele>
        <time>2020-09-21T09:59:35Z</time>
      </trkpt>
      <trkpt lat="52.18289" lon="4.5155196">
        <ele>2400.0</ele>
        <time>2020-09-21T09:59:36Z</time>
      </trkpt>
      <trkpt lat="52.182888" lon="4.5155725">
        <ele>2400.0</ele>
        <time>2020-09-21T09:59:37Z</time>
      </trkpt>
      <trkpt lat="52.182877" lon="4.5156274">
        <ele>2400.0</ele>
        <time>2020-09-21T09:59:39Z</time>
      </trkpt>
      <trkpt lat="52.182865" lon="4.515682">
        <ele>2400.0</ele>
        <time>2020-09-21T09:59:39Z</time>
      </trkpt>
      <trkpt lat="52.182858" lon="4.5157366">
        <ele>2400.0</ele>
        <time>2020-09-21T09:59:40Z</time>
      </trkpt>
      <trkpt lat="52.182846" lon="4.515792">
        <ele>2400.0</ele>
        <time>2020-09-21T09:59:41Z</time>
      </trkpt>
      <trkpt lat="52.18283" lon="4.515847">
        <ele>2400.0</ele>
        <time>2020-09-21T09:59:42Z</time>
      </trkpt>
      <trkpt lat="52.182816" lon="4.5159">
        <ele>2400.0</ele>
        <time>2020-09-21T09:59:43Z</time>
      </trkpt>
      <trkpt lat="52.1828" lon="4.5159526">
        <ele>2400.0</ele>
        <time>2020-09-21T09:59:44Z</time>
      </trkpt>
      <trkpt lat="52.182785" lon="4.5160036">
        <ele>2400.0</ele>
        <time>2020-09-21T09:59:45Z</time>
      </trkpt>
      <trkpt lat="52.182762" lon="4.516056">
        <ele>2400.0</ele>
        <time>2020-09-21T09:59:46Z</time>
      </trkpt>
      <trkpt lat="52.182755" lon="4.516109">
        <ele>2400.0</ele>
        <time>2020-09-21T09:59:48Z</time>
      </trkpt>
      <trkpt lat="52.18274" lon="4.5161633">
        <ele>2400.0</ele>
        <time>2020-09-21T09:59:48Z</time>
      </trkpt>
      <trkpt lat="52.182728" lon="4.5162177">
        <ele>2400.0</ele>
        <time>2020-09-21T09:59:49Z</time>
      </trkpt>
      <trkpt lat="52.182716" lon="4.5162735">
        <ele>2400.0</ele>
        <time>2020-09-21T09:59:50Z</time>
      </trkpt>
      <trkpt lat="52.182713" lon="4.516332">
        <ele>2400.0</ele>
        <time>2020-09-21T09:59:51Z</time>
      </trkpt>
      <trkpt lat="52.18271" lon="4.516393">
        <ele>2400.0</ele>
        <time>2020-09-21T09:59:52Z</time>
      </trkpt>
      <trkpt lat="52.1827" lon="4.516452">
        <ele>2400.0</ele>
        <time>2020-09-21T09:59:53Z</time>
      </trkpt>
      <trkpt lat="52.1827" lon="4.5165076">
        <ele>2400.0</ele>
        <time>2020-09-21T09:59:54Z</time>
      </trkpt>
      <trkpt lat="52.182697" lon="4.5165644">
        <ele>2400.0</ele>
        <time>2020-09-21T09:59:55Z</time>
      </trkpt>
      <trkpt lat="52.182697" lon="4.5166173">
        <ele>2400.0</ele>
        <time>2020-09-21T09:59:56Z</time>
      </trkpt>
      <trkpt lat="52.182693" lon="4.5166683">
        <ele>2400.0</ele>
        <time>2020-09-21T09:59:58Z</time>
      </trkpt>
      <trkpt lat="52.182693" lon="4.5167165">
        <ele>2400.0</ele>
        <time>2020-09-21T09:59:58Z</time>
      </trkpt>
      <trkpt lat="52.182686" lon="4.516771">
        <ele>2400.0</ele>
        <time>2020-09-21T09:59:59Z</time>
      </trkpt>
      <trkpt lat="52.182686" lon="4.5168276">
        <ele>2400.0</ele>
        <time>2020-09-21T10:00:00Z</time>
      </trkpt>
      <trkpt lat="52.182682" lon="4.516884">
        <ele>2400.0</ele>
        <time>2020-09-21T10:00:01Z</time>
      </trkpt>
      <trkpt lat="52.182686" lon="4.516937">
        <ele>2400.0</ele>
        <time>2020-09-21T10:00:02Z</time>
      </trkpt>
      <trkpt lat="52.182693" lon="4.5169816">
        <ele>2400.0</ele>
        <time>2020-09-21T10:00:03Z</time>
      </trkpt>
      <trkpt lat="52.1827" lon="4.517016">
        <ele>2400.0</ele>
        <time>2020-09-21T10:00:04Z</time>
      </trkpt>
      <trkpt lat="52.182713" lon="4.5170407">
        <ele>2400.0</ele>
        <time>2020-09-21T10:00:05Z</time>
      </trkpt>
      <trkpt lat="52.18273" lon="4.5170555">
        <ele>2500.0</ele>
        <time>2020-09-21T10:00:06Z</time>
      </trkpt>
      <trkpt lat="52.182747" lon="4.517064">
        <ele>2500.0</ele>
        <time>2020-09-21T10:00:07Z</time>
      </trkpt>
      <trkpt lat="52.18277" lon="4.517067">
        <ele>2500.0</ele>
        <time>2020-09-21T10:00:08Z</time>
      </trkpt>
      <trkpt lat="52.18279" lon="4.5170665">
        <ele>2500.0</ele>
        <time>2020-09-21T10:00:09Z</time>
      </trkpt>
      <trkpt lat="52.182804" lon="4.5170636">
        <ele>2500.0</ele>
        <time>2020-09-21T10:00:10Z</time>
      </trkpt>
      <trkpt lat="52.18282" lon="4.5170584">
        <ele>2500.0</ele>
        <time>2020-09-21T10:00:11Z</time>
      </trkpt>
      <trkpt lat="52.182835" lon="4.5170517">
        <ele>2500.0</ele>
        <time>2020-09-21T10:00:12Z</time>
      </trkpt>
      <trkpt lat="52.182858" lon="4.5170417">
        <ele>2500.0</ele>
        <time>2020-09-21T10:00:13Z</time>
      </trkpt>
      <trkpt lat="52.182873" lon="4.5170302">
        <ele>2500.0</ele>
        <time>2020-09-21T10:00:14Z</time>
      </trkpt>
      <trkpt lat="52.18288" lon="4.5170164">
        <ele>2500.0</ele>
        <time>2020-09-21T10:00:15Z</time>
      </trkpt>
      <trkpt lat="52.18289" lon="4.516999">
        <ele>2500.0</ele>
        <time>2020-09-21T10:00:16Z</time>
      </trkpt>
      <trkpt lat="52.182903" lon="4.5169773">
        <ele>2500.0</ele>
        <time>2020-09-21T10:00:17Z</time>
      </trkpt>
      <trkpt lat="52.18291" lon="4.516955">
        <ele>2500.0</ele>
        <time>2020-09-21T10:00:19Z</time>
      </trkpt>
      <trkpt lat="52.182922" lon="4.516934">
        <ele>2500.0</ele>
        <time>2020-09-21T10:00:19Z</time>
      </trkpt>
      <trkpt lat="52.182938" lon="4.516916">
        <ele>2500.0</ele>
        <time>2020-09-21T10:00:20Z</time>
      </trkpt>
      <trkpt lat="52.18295" lon="4.516897">
        <ele>2500.0</ele>
        <time>2020-09-21T10:00:21Z</time>
      </trkpt>
      <trkpt lat="52.182957" lon="4.5168757">
        <ele>2500.0</ele>
        <time>2020-09-21T10:00:22Z</time>
      </trkpt>
      <trkpt lat="52.182972" lon="4.5168524">
        <ele>2500.0</ele>
        <time>2020-09-21T10:00:23Z</time>
      </trkpt>
      <trkpt lat="52.182983" lon="4.516828">
        <ele>2500.0</ele>
        <time>2020-09-21T10:00:24Z</time>
      </trkpt>
      <trkpt lat="52.183" lon="4.516802">
        <ele>2500.0</ele>
        <time>2020-09-21T10:00:25Z</time>
      </trkpt>
      <trkpt lat="52.183014" lon="4.5167737">
        <ele>2500.0</ele>
        <time>2020-09-21T10:00:26Z</time>
      </trkpt>
      <trkpt lat="52.18303" lon="4.516745">
        <ele>2500.0</ele>
        <time>2020-09-21T10:00:27Z</time>
      </trkpt>
      <trkpt lat="52.183052" lon="4.516717">
        <ele>2500.0</ele>
        <time>2020-09-21T10:00:28Z</time>
      </trkpt>
      <trkpt lat="52.18307" lon="4.516691">
        <ele>2500.0</ele>
        <time>2020-09-21T10:00:29Z</time>
      </trkpt>
      <trkpt lat="52.18309" lon="4.51667">
        <ele>2500.0</ele>
        <time>2020-09-21T10:00:30Z</time>
      </trkpt>
      <trkpt lat="52.183117" lon="4.5166554">
        <ele>2500.0</ele>
        <time>2020-09-21T10:00:31Z</time>
      </trkpt>
      <trkpt lat="52.183147" lon="4.516649">
        <ele>2500.0</ele>
        <time>2020-09-21T10:00:32Z</time>
      </trkpt>
      <trkpt lat="52.183178" lon="4.5166473">
        <ele>2500.0</ele>
        <time>2020-09-21T10:00:33Z</time>
      </trkpt>
      <trkpt lat="52.183205" lon="4.516655">
        <ele>2500.0</ele>
        <time>2020-09-21T10:00:34Z</time>
      </trkpt>
      <trkpt lat="52.183235" lon="4.5166693">
        <ele>2500.0</ele>
        <time>2020-09-21T10:00:35Z</time>
      </trkpt>
      <trkpt lat="52.18326" lon="4.51669">
        <ele>2500.0</ele>
        <time>2020-09-21T10:00:36Z</time>
      </trkpt>
      <trkpt lat="52.183285" lon="4.516713">
        <ele>2500.0</ele>
        <time>2020-09-21T10:00:37Z</time>
      </trkpt>
      <trkpt lat="52.18331" lon="4.516739">
        <ele>2500.0</ele>
        <time>2020-09-21T10:00:38Z</time>
      </trkpt>
      <trkpt lat="52.18334" lon="4.5167637">
        <ele>2500.0</ele>
        <time>2020-09-21T10:00:39Z</time>
      </trkpt>
      <trkpt lat="52.18336" lon="4.516787">
        <ele>2500.0</ele>
        <time>2020-09-21T10:00:40Z</time>
      </trkpt>
      <trkpt lat="52.183384" lon="4.516808">
        <ele>2500.0</ele>
        <time>2020-09-21T10:00:41Z</time>
      </trkpt>
      <trkpt lat="52.183403" lon="4.516826">
        <ele>2500.0</ele>
        <time>2020-09-21T10:00:42Z</time>
      </trkpt>
      <trkpt lat="52.18343" lon="4.5168405">
        <ele>2500.0</ele>
        <time>2020-09-21T10:00:43Z</time>
      </trkpt>
      <trkpt lat="52.18345" lon="4.516852">
        <ele>2500.0</ele>
        <time>2020-09-21T10:00:44Z</time>
      </trkpt>
      <trkpt lat="52.18347" lon="4.5168624">
        <ele>2500.0</ele>
        <time>2020-09-21T10:00:45Z</time>
      </trkpt>
      <trkpt lat="52.183495" lon="4.516873">
        <ele>2500.0</ele>
        <time>2020-09-21T10:00:47Z</time>
      </trkpt>
      <trkpt lat="52.183517" lon="4.5168843">
        <ele>2500.0</ele>
        <time>2020-09-21T10:00:47Z</time>
      </trkpt>
      <trkpt lat="52.183533" lon="4.516897">
        <ele>2500.0</ele>
        <time>2020-09-21T10:00:48Z</time>
      </trkpt>
      <trkpt lat="52.18354" lon="4.516908">
        <ele>2500.0</ele>
        <time>2020-09-21T10:00:49Z</time>
      </trkpt>
      <trkpt lat="52.18355" lon="4.5169177">
        <ele>2500.0</ele>
        <time>2020-09-21T10:00:50Z</time>
      </trkpt>
      <trkpt lat="52.18355" lon="4.516925">
        <ele>2500.0</ele>
        <time>2020-09-21T10:00:51Z</time>
      </trkpt>
      <trkpt lat="52.183556" lon="4.516929">
        <ele>2500.0</ele>
        <time>2020-09-21T10:00:52Z</time>
      </trkpt>
      <trkpt lat="52.183556" lon="4.516933">
        <ele>2500.0</ele>
        <time>2020-09-21T10:00:53Z</time>
      </trkpt>
      <trkpt lat="52.183563" lon="4.516946">
        <ele>2500.0</ele>
        <time>2020-09-21T10:00:55Z</time>
      </trkpt>
      <trkpt lat="52.183563" lon="4.516947">
        <ele>2500.0</ele>
        <time>2020-09-21T10:00:56Z</time>
      </trkpt>
      <trkpt lat="52.183563" lon="4.5169487">
        <ele>2500.0</ele>
        <time>2020-09-21T10:00:57Z</time>
      </trkpt>
      <trkpt lat="52.183563" lon="4.5169606">
        <ele>2500.0</ele>
        <time>2020-09-21T10:00:59Z</time>
      </trkpt>
      <trkpt lat="52.183567" lon="4.516959">
        <ele>2500.0</ele>
        <time>2020-09-21T10:01:00Z</time>
      </trkpt>
      <trkpt lat="52.183567" lon="4.5169578">
        <ele>2500.0</ele>
        <time>2020-09-21T10:01:01Z</time>
      </trkpt>
      <trkpt lat="52.183567" lon="4.516957">
        <ele>2500.0</ele>
        <time>2020-09-21T10:01:02Z</time>
      </trkpt>
      <trkpt lat="52.18357" lon="4.5169544">
        <ele>2500.0</ele>
        <time>2020-09-21T10:01:23Z</time>
      </trkpt>
      <trkpt lat="52.18358" lon="4.5169535">
        <ele>2500.0</ele>
        <time>2020-09-21T10:01:24Z</time>
      </trkpt>
      <trkpt lat="52.183594" lon="4.5169525">
        <ele>2500.0</ele>
        <time>2020-09-21T10:01:25Z</time>
      </trkpt>
      <trkpt lat="52.18361" lon="4.5169516">
        <ele>2500.0</ele>
        <time>2020-09-21T10:01:26Z</time>
      </trkpt>
      <trkpt lat="52.183636" lon="4.5169506">
        <ele>2500.0</ele>
        <time>2020-09-21T10:01:27Z</time>
      </trkpt>
      <trkpt lat="52.18366" lon="4.5169477">
        <ele>2500.0</ele>
        <time>2020-09-21T10:01:27Z</time>
      </trkpt>
      <trkpt lat="52.18369" lon="4.516945">
        <ele>2500.0</ele>
        <time>2020-09-21T10:01:28Z</time>
      </trkpt>
      <trkpt lat="52.18372" lon="4.5169435">
        <ele>2500.0</ele>
        <time>2020-09-21T10:01:30Z</time>
      </trkpt>
      <trkpt lat="52.183758" lon="4.5169435">
        <ele>2500.0</ele>
        <time>2020-09-21T10:01:30Z</time>
      </trkpt>
      <trkpt lat="52.183792" lon="4.5169415">
        <ele>2500.0</ele>
        <time>2020-09-21T10:01:31Z</time>
      </trkpt>
      <trkpt lat="52.183834" lon="4.5169406">
        <ele>2500.0</ele>
        <time>2020-09-21T10:01:32Z</time>
      </trkpt>
      <trkpt lat="52.18387" lon="4.5169396">
        <ele>2500.0</ele>
        <time>2020-09-21T10:01:33Z</time>
      </trkpt>
      <trkpt lat="52.18391" lon="4.5169387">
        <ele>2500.0</ele>
        <time>2020-09-21T10:01:34Z</time>
      </trkpt>
      <trkpt lat="52.183945" lon="4.5169373">
        <ele>2500.0</ele>
        <time>2020-09-21T10:01:35Z</time>
      </trkpt>
      <trkpt lat="52.183987" lon="4.516935">
        <ele>2500.0</ele>
        <time>2020-09-21T10:01:36Z</time>
      </trkpt>
      <trkpt lat="52.18403" lon="4.5169306">
        <ele>2500.0</ele>
        <time>2020-09-21T10:01:37Z</time>
      </trkpt>
      <trkpt lat="52.18407" lon="4.5169244">
        <ele>2500.0</ele>
        <time>2020-09-21T10:01:38Z</time>
      </trkpt>
      <trkpt lat="52.18411" lon="4.5169168">
        <ele>2500.0</ele>
        <time>2020-09-21T10:01:39Z</time>
      </trkpt>
      <trkpt lat="52.184147" lon="4.5169063">
        <ele>2500.0</ele>
        <time>2020-09-21T10:01:40Z</time>
      </trkpt>
      <trkpt lat="52.184185" lon="4.516891">
        <ele>2500.0</ele>
        <time>2020-09-21T10:01:41Z</time>
      </trkpt>
      <trkpt lat="52.184223" lon="4.516874">
        <ele>2500.0</ele>
        <time>2020-09-21T10:01:42Z</time>
      </trkpt>
      <trkpt lat="52.184258" lon="4.5168543">
        <ele>2500.0</ele>
        <time>2020-09-21T10:01:43Z</time>
      </trkpt>
      <trkpt lat="52.184296" lon="4.5168333">
        <ele>2500.0</ele>
        <time>2020-09-21T10:01:45Z</time>
      </trkpt>
      <trkpt lat="52.18433" lon="4.5168104">
        <ele>2500.0</ele>
        <time>2020-09-21T10:01:45Z</time>
      </trkpt>
      <trkpt lat="52.184364" lon="4.516788">
        <ele>2500.0</ele>
        <time>2020-09-21T10:01:46Z</time>
      </trkpt>
      <trkpt lat="52.184402" lon="4.5167665">
        <ele>2500.0</ele>
        <time>2020-09-21T10:01:47Z</time>
      </trkpt>
      <trkpt lat="52.184437" lon="4.5167427">
        <ele>2500.0</ele>
        <time>2020-09-21T10:01:48Z</time>
      </trkpt>
      <trkpt lat="52.184475" lon="4.516718">
        <ele>2500.0</ele>
        <time>2020-09-21T10:01:49Z</time>
      </trkpt>
      <trkpt lat="52.18451" lon="4.5166936">
        <ele>2500.0</ele>
        <time>2020-09-21T10:01:50Z</time>
      </trkpt>
      <trkpt lat="52.184544" lon="4.516671">
        <ele>2500.0</ele>
        <time>2020-09-21T10:01:51Z</time>
      </trkpt>
      <trkpt lat="52.18469" lon="4.5166025">
        <ele>2500.0</ele>
        <time>2020-09-21T10:01:53Z</time>
      </trkpt>
      <trkpt lat="52.184692" lon="4.516599">
        <ele>2500.0</ele>
        <time>2020-09-21T10:01:54Z</time>
      </trkpt>
      <trkpt lat="52.184704" lon="4.5165935">
        <ele>2500.0</ele>
        <time>2020-09-21T10:01:56Z</time>
      </trkpt>
      <trkpt lat="52.18472" lon="4.51659">
        <ele>2500.0</ele>
        <time>2020-09-21T10:01:56Z</time>
      </trkpt>
      <trkpt lat="52.184734" lon="4.5165906">
        <ele>2500.0</ele>
        <time>2020-09-21T10:01:57Z</time>
      </trkpt>
      <trkpt lat="52.18475" lon="4.5165935">
        <ele>2500.0</ele>
        <time>2020-09-21T10:01:58Z</time>
      </trkpt>
      <trkpt lat="52.184765" lon="4.5165977">
        <ele>2500.0</ele>
        <time>2020-09-21T10:01:59Z</time>
      </trkpt>
      <trkpt lat="52.184776" lon="4.516603">
        <ele>2500.0</ele>
        <time>2020-09-21T10:02:00Z</time>
      </trkpt>
      <trkpt lat="52.18479" lon="4.51661">
        <ele>2500.0</ele>
        <time>2020-09-21T10:02:01Z</time>
      </trkpt>
      <trkpt lat="52.184807" lon="4.516617">
        <ele>2500.0</ele>
        <time>2020-09-21T10:02:02Z</time>
      </trkpt>
      <trkpt lat="52.184822" lon="4.5166245">
        <ele>2600.0</ele>
        <time>2020-09-21T10:02:03Z</time>
      </trkpt>
      <trkpt lat="52.184837" lon="4.5166345">
        <ele>2600.0</ele>
        <time>2020-09-21T10:02:04Z</time>
      </trkpt>
      <trkpt lat="52.18485" lon="4.516644">
        <ele>2600.0</ele>
        <time>2020-09-21T10:02:06Z</time>
      </trkpt>
      <trkpt lat="52.184868" lon="4.516654">
        <ele>2600.0</ele>
        <time>2020-09-21T10:02:06Z</time>
      </trkpt>
      <trkpt lat="52.184883" lon="4.5166636">
        <ele>2600.0</ele>
        <time>2020-09-21T10:02:07Z</time>
      </trkpt>
      <trkpt lat="52.1849" lon="4.5166693">
        <ele>2600.0</ele>
        <time>2020-09-21T10:02:08Z</time>
      </trkpt>
      <trkpt lat="52.184914" lon="4.5166707">
        <ele>2600.0</ele>
        <time>2020-09-21T10:02:09Z</time>
      </trkpt>
      <trkpt lat="52.18493" lon="4.516671">
        <ele>2600.0</ele>
        <time>2020-09-21T10:02:10Z</time>
      </trkpt>
      <trkpt lat="52.184944" lon="4.516674">
        <ele>2600.0</ele>
        <time>2020-09-21T10:02:11Z</time>
      </trkpt>
      <trkpt lat="52.18496" lon="4.516679">
        <ele>2600.0</ele>
        <time>2020-09-21T10:02:12Z</time>
      </trkpt>
      <trkpt lat="52.18497" lon="4.516685">
        <ele>2600.0</ele>
        <time>2020-09-21T10:02:13Z</time>
      </trkpt>
      <trkpt lat="52.184982" lon="4.51669">
        <ele>2600.0</ele>
        <time>2020-09-21T10:02:14Z</time>
      </trkpt>
      <trkpt lat="52.184998" lon="4.5166955">
        <ele>2600.0</ele>
        <time>2020-09-21T10:02:15Z</time>
      </trkpt>
      <trkpt lat="52.185005" lon="4.516702">
        <ele>2600.0</ele>
        <time>2020-09-21T10:02:17Z</time>
      </trkpt>
      <trkpt lat="52.18502" lon="4.5167117">
        <ele>2600.0</ele>
        <time>2020-09-21T10:02:17Z</time>
      </trkpt>
      <trkpt lat="52.18503" lon="4.5167217">
        <ele>2600.0</ele>
        <time>2020-09-21T10:02:18Z</time>
      </trkpt>
      <trkpt lat="52.185047" lon="4.5167327">
        <ele>2600.0</ele>
        <time>2020-09-21T10:02:19Z</time>
      </trkpt>
      <trkpt lat="52.185066" lon="4.516745">
        <ele>2600.0</ele>
        <time>2020-09-21T10:02:20Z</time>
      </trkpt>
      <trkpt lat="52.18509" lon="4.516759">
        <ele>2600.0</ele>
        <time>2020-09-21T10:02:21Z</time>
      </trkpt>
      <trkpt lat="52.185112" lon="4.5167737">
        <ele>2600.0</ele>
        <time>2020-09-21T10:02:22Z</time>
      </trkpt>
      <trkpt lat="52.18514" lon="4.5167904">
        <ele>2600.0</ele>
        <time>2020-09-21T10:02:23Z</time>
      </trkpt>
      <trkpt lat="52.185165" lon="4.5168095">
        <ele>2600.0</ele>
        <time>2020-09-21T10:02:24Z</time>
      </trkpt>
      <trkpt lat="52.185196" lon="4.5168295">
        <ele>2600.0</ele>
        <time>2020-09-21T10:02:25Z</time>
      </trkpt>
      <trkpt lat="52.185226" lon="4.516851">
        <ele>2600.0</ele>
        <time>2020-09-21T10:02:26Z</time>
      </trkpt>
      <trkpt lat="52.185257" lon="4.5168743">
        <ele>2600.0</ele>
        <time>2020-09-21T10:02:27Z</time>
      </trkpt>
      <trkpt lat="52.18529" lon="4.5169">
        <ele>2600.0</ele>
        <time>2020-09-21T10:02:28Z</time>
      </trkpt>
      <trkpt lat="52.18533" lon="4.516929">
        <ele>2600.0</ele>
        <time>2020-09-21T10:02:29Z</time>
      </trkpt>
      <trkpt lat="52.185364" lon="4.516955">
        <ele>2600.0</ele>
        <time>2020-09-21T10:02:30Z</time>
      </trkpt>
      <trkpt lat="52.185394" lon="4.516979">
        <ele>2600.0</ele>
        <time>2020-09-21T10:02:31Z</time>
      </trkpt>
      <trkpt lat="52.185425" lon="4.517003">
        <ele>2600.0</ele>
        <time>2020-09-21T10:02:32Z</time>
      </trkpt>
      <trkpt lat="52.185455" lon="4.5170274">
        <ele>2600.0</ele>
        <time>2020-09-21T10:02:33Z</time>
      </trkpt>
      <trkpt lat="52.185486" lon="4.5170527">
        <ele>2600.0</ele>
        <time>2020-09-21T10:02:34Z</time>
      </trkpt>
      <trkpt lat="52.185516" lon="4.5170817">
        <ele>2600.0</ele>
        <time>2020-09-21T10:02:35Z</time>
      </trkpt>
      <trkpt lat="52.185555" lon="4.517112">
        <ele>2600.0</ele>
        <time>2020-09-21T10:02:36Z</time>
      </trkpt>
      <trkpt lat="52.185585" lon="4.5171423">
        <ele>2600.0</ele>
        <time>2020-09-21T10:02:37Z</time>
      </trkpt>
      <trkpt lat="52.18561" lon="4.517171">
        <ele>2600.0</ele>
        <time>2020-09-21T10:02:38Z</time>
      </trkpt>
      <trkpt lat="52.185642" lon="4.517194">
        <ele>2600.0</ele>
        <time>2020-09-21T10:02:39Z</time>
      </trkpt>
      <trkpt lat="52.185665" lon="4.5172143">
        <ele>2600.0</ele>
        <time>2020-09-21T10:02:40Z</time>
      </trkpt>
      <trkpt lat="52.18569" lon="4.5172377">
        <ele>2600.0</ele>
        <time>2020-09-21T10:02:41Z</time>
      </trkpt>
      <trkpt lat="52.18572" lon="4.5172625">
        <ele>2600.0</ele>
        <time>2020-09-21T10:02:42Z</time>
      </trkpt>
      <trkpt lat="52.185745" lon="4.517286">
        <ele>2600.0</ele>
        <time>2020-09-21T10:02:43Z</time>
      </trkpt>
      <trkpt lat="52.185776" lon="4.5173097">
        <ele>2600.0</ele>
        <time>2020-09-21T10:02:44Z</time>
      </trkpt>
      <trkpt lat="52.1858" lon="4.5173326">
        <ele>2600.0</ele>
        <time>2020-09-21T10:02:45Z</time>
      </trkpt>
      <trkpt lat="52.185825" lon="4.517356">
        <ele>2600.0</ele>
        <time>2020-09-21T10:02:46Z</time>
      </trkpt>
      <trkpt lat="52.185856" lon="4.5173793">
        <ele>2600.0</ele>
        <time>2020-09-21T10:02:47Z</time>
      </trkpt>
      <trkpt lat="52.185883" lon="4.5174017">
        <ele>2600.0</ele>
        <time>2020-09-21T10:02:48Z</time>
      </trkpt>
      <trkpt lat="52.185905" lon="4.517424">
        <ele>2600.0</ele>
        <time>2020-09-21T10:02:49Z</time>
      </trkpt>
      <trkpt lat="52.185932" lon="4.517444">
        <ele>2600.0</ele>
        <time>2020-09-21T10:02:50Z</time>
      </trkpt>
      <trkpt lat="52.18596" lon="4.5174613">
        <ele>2600.0</ele>
        <time>2020-09-21T10:02:51Z</time>
      </trkpt>
      <trkpt lat="52.185986" lon="4.517478">
        <ele>2600.0</ele>
        <time>2020-09-21T10:02:52Z</time>
      </trkpt>
      <trkpt lat="52.186016" lon="4.517493">
        <ele>2600.0</ele>
        <time>2020-09-21T10:02:53Z</time>
      </trkpt>
      <trkpt lat="52.186047" lon="4.517508">
        <ele>2600.0</ele>
        <time>2020-09-21T10:02:54Z</time>
      </trkpt>
      <trkpt lat="52.186077" lon="4.517524">
        <ele>2600.0</ele>
        <time>2020-09-21T10:02:56Z</time>
      </trkpt>
      <trkpt lat="52.18611" lon="4.517538">
        <ele>2600.0</ele>
        <time>2020-09-21T10:02:56Z</time>
      </trkpt>
      <trkpt lat="52.186142" lon="4.5175533">
        <ele>2600.0</ele>
        <time>2020-09-21T10:02:57Z</time>
      </trkpt>
      <trkpt lat="52.18618" lon="4.517568">
        <ele>2600.0</ele>
        <time>2020-09-21T10:02:58Z</time>
      </trkpt>
      <trkpt lat="52.186214" lon="4.517583">
        <ele>2600.0</ele>
        <time>2020-09-21T10:02:59Z</time>
      </trkpt>
      <trkpt lat="52.18625" lon="4.5175977">
        <ele>2600.0</ele>
        <time>2020-09-21T10:03:00Z</time>
      </trkpt>
      <trkpt lat="52.18628" lon="4.5176096">
        <ele>2600.0</ele>
        <time>2020-09-21T10:03:01Z</time>
      </trkpt>
      <trkpt lat="52.186317" lon="4.517621">
        <ele>2600.0</ele>
        <time>2020-09-21T10:03:02Z</time>
      </trkpt>
      <trkpt lat="52.186348" lon="4.5176315">
        <ele>2600.0</ele>
        <time>2020-09-21T10:03:03Z</time>
      </trkpt>
      <trkpt lat="52.186382" lon="4.517642">
        <ele>2600.0</ele>
        <time>2020-09-21T10:03:04Z</time>
      </trkpt>
      <trkpt lat="52.186413" lon="4.517652">
        <ele>2600.0</ele>
        <time>2020-09-21T10:03:06Z</time>
      </trkpt>
      <trkpt lat="52.18644" lon="4.5176625">
        <ele>2600.0</ele>
        <time>2020-09-21T10:03:06Z</time>
      </trkpt>
      <trkpt lat="52.186466" lon="4.5176716">
        <ele>2600.0</ele>
        <time>2020-09-21T10:03:07Z</time>
      </trkpt>
      <trkpt lat="52.186497" lon="4.517679">
        <ele>2600.0</ele>
        <time>2020-09-21T10:03:08Z</time>
      </trkpt>
      <trkpt lat="52.186527" lon="4.517685">
        <ele>2600.0</ele>
        <time>2020-09-21T10:03:09Z</time>
      </trkpt>
      <trkpt lat="52.186558" lon="4.5176907">
        <ele>2600.0</ele>
        <time>2020-09-21T10:03:10Z</time>
      </trkpt>
      <trkpt lat="52.186592" lon="4.517698">
        <ele>2600.0</ele>
        <time>2020-09-21T10:03:11Z</time>
      </trkpt>
      <trkpt lat="52.186623" lon="4.5177035">
        <ele>2600.0</ele>
        <time>2020-09-21T10:03:12Z</time>
      </trkpt>
      <trkpt lat="52.18666" lon="4.517708">
        <ele>2600.0</ele>
        <time>2020-09-21T10:03:13Z</time>
      </trkpt>
      <trkpt lat="52.186695" lon="4.5177097">
        <ele>2600.0</ele>
        <time>2020-09-21T10:03:14Z</time>
      </trkpt>
      <trkpt lat="52.186733" lon="4.51771">
        <ele>2600.0</ele>
        <time>2020-09-21T10:03:15Z</time>
      </trkpt>
      <trkpt lat="52.186768" lon="4.5177073">
        <ele>2600.0</ele>
        <time>2020-09-21T10:03:17Z</time>
      </trkpt>
      <trkpt lat="52.1868" lon="4.517703">
        <ele>2600.0</ele>
        <time>2020-09-21T10:03:17Z</time>
      </trkpt>
      <trkpt lat="52.186825" lon="4.517696">
        <ele>2600.0</ele>
        <time>2020-09-21T10:03:18Z</time>
      </trkpt>
      <trkpt lat="52.186855" lon="4.517685">
        <ele>2600.0</ele>
        <time>2020-09-21T10:03:19Z</time>
      </trkpt>
      <trkpt lat="52.186886" lon="4.5176725">
        <ele>2600.0</ele>
        <time>2020-09-21T10:03:20Z</time>
      </trkpt>
      <trkpt lat="52.186913" lon="4.5176597">
        <ele>2600.0</ele>
        <time>2020-09-21T10:03:21Z</time>
      </trkpt>
      <trkpt lat="52.186935" lon="4.5176463">
        <ele>2600.0</ele>
        <time>2020-09-21T10:03:22Z</time>
      </trkpt>
      <trkpt lat="52.186966" lon="4.517633">
        <ele>2600.0</ele>
        <time>2020-09-21T10:03:23Z</time>
      </trkpt>
      <trkpt lat="52.186993" lon="4.5176215">
        <ele>2600.0</ele>
        <time>2020-09-21T10:03:24Z</time>
      </trkpt>
      <trkpt lat="52.187023" lon="4.517612">
        <ele>2600.0</ele>
        <time>2020-09-21T10:03:25Z</time>
      </trkpt>
      <trkpt lat="52.18705" lon="4.517606">
        <ele>2600.0</ele>
        <time>2020-09-21T10:03:26Z</time>
      </trkpt>
      <trkpt lat="52.187073" lon="4.5176005">
        <ele>2600.0</ele>
        <time>2020-09-21T10:03:27Z</time>
      </trkpt>
      <trkpt lat="52.1871" lon="4.5175962">
        <ele>2600.0</ele>
        <time>2020-09-21T10:03:28Z</time>
      </trkpt>
      <trkpt lat="52.187122" lon="4.517591">
        <ele>2600.0</ele>
        <time>2020-09-21T10:03:29Z</time>
      </trkpt>
      <trkpt lat="52.18714" lon="4.5175853">
        <ele>2600.0</ele>
        <time>2020-09-21T10:03:30Z</time>
      </trkpt>
      <trkpt lat="52.18717" lon="4.517579">
        <ele>2600.0</ele>
        <time>2020-09-21T10:03:31Z</time>
      </trkpt>
      <trkpt lat="52.18719" lon="4.517572">
        <ele>2600.0</ele>
        <time>2020-09-21T10:03:32Z</time>
      </trkpt>
      <trkpt lat="52.187218" lon="4.5175653">
        <ele>2600.0</ele>
        <time>2020-09-21T10:03:33Z</time>
      </trkpt>
      <trkpt lat="52.187237" lon="4.5175605">
        <ele>2600.0</ele>
        <time>2020-09-21T10:03:34Z</time>
      </trkpt>
      <trkpt lat="52.187263" lon="4.517557">
        <ele>2600.0</ele>
        <time>2020-09-21T10:03:35Z</time>
      </trkpt>
      <trkpt lat="52.187286" lon="4.517552">
        <ele>2600.0</ele>
        <time>2020-09-21T10:03:36Z</time>
      </trkpt>
      <trkpt lat="52.187305" lon="4.517544">
        <ele>2600.0</ele>
        <time>2020-09-21T10:03:37Z</time>
      </trkpt>
      <trkpt lat="52.187325" lon="4.517536">
        <ele>2600.0</ele>
        <time>2020-09-21T10:03:38Z</time>
      </trkpt>
      <trkpt lat="52.18734" lon="4.517528">
        <ele>2600.0</ele>
        <time>2020-09-21T10:03:39Z</time>
      </trkpt>
      <trkpt lat="52.187363" lon="4.5175214">
        <ele>2600.0</ele>
        <time>2020-09-21T10:03:40Z</time>
      </trkpt>
      <trkpt lat="52.18738" lon="4.5175185">
        <ele>2600.0</ele>
        <time>2020-09-21T10:03:41Z</time>
      </trkpt>
      <trkpt lat="52.1874" lon="4.5175185">
        <ele>2600.0</ele>
        <time>2020-09-21T10:03:42Z</time>
      </trkpt>
      <trkpt lat="52.187416" lon="4.5175195">
        <ele>2600.0</ele>
        <time>2020-09-21T10:03:43Z</time>
      </trkpt>
      <trkpt lat="52.18743" lon="4.5175204">
        <ele>2600.0</ele>
        <time>2020-09-21T10:03:45Z</time>
      </trkpt>
      <trkpt lat="52.187443" lon="4.5175214">
        <ele>2600.0</ele>
        <time>2020-09-21T10:03:45Z</time>
      </trkpt>
      <trkpt lat="52.187458" lon="4.5175223">
        <ele>2600.0</ele>
        <time>2020-09-21T10:03:46Z</time>
      </trkpt>
      <trkpt lat="52.187473" lon="4.517523">
        <ele>2600.0</ele>
        <time>2020-09-21T10:03:47Z</time>
      </trkpt>
      <trkpt lat="52.18748" lon="4.5175223">
        <ele>2600.0</ele>
        <time>2020-09-21T10:03:48Z</time>
      </trkpt>
      <trkpt lat="52.18749" lon="4.517521">
        <ele>2600.0</ele>
        <time>2020-09-21T10:03:49Z</time>
      </trkpt>
      <trkpt lat="52.187496" lon="4.5175204">
        <ele>2600.0</ele>
        <time>2020-09-21T10:03:50Z</time>
      </trkpt>
      <trkpt lat="52.1875" lon="4.5175185">
        <ele>2600.0</ele>
        <time>2020-09-21T10:03:51Z</time>
      </trkpt>
      <trkpt lat="52.1875" lon="4.517517">
        <ele>2600.0</ele>
        <time>2020-09-21T10:03:52Z</time>
      </trkpt>
      <trkpt lat="52.1875" lon="4.5175166">
        <ele>2600.0</ele>
        <time>2020-09-21T10:03:53Z</time>
      </trkpt>
      <trkpt lat="52.1875" lon="4.5175138">
        <ele>2600.0</ele>
        <time>2020-09-21T10:03:56Z</time>
      </trkpt>
      <trkpt lat="52.1875" lon="4.517509">
        <ele>2600.0</ele>
        <time>2020-09-21T10:03:57Z</time>
      </trkpt>
      <trkpt lat="52.187496" lon="4.5175138">
        <ele>2600.0</ele>
        <time>2020-09-21T10:04:00Z</time>
      </trkpt>
      <trkpt lat="52.187496" lon="4.517513">
        <ele>2600.0</ele>
        <time>2020-09-21T10:04:01Z</time>
      </trkpt>
      <trkpt lat="52.187496" lon="4.5175123">
        <ele>2600.0</ele>
        <time>2020-09-21T10:04:02Z</time>
      </trkpt>
      <trkpt lat="52.187496" lon="4.5175176">
        <ele>2600.0</ele>
        <time>2020-09-21T10:04:03Z</time>
      </trkpt>
      <trkpt lat="52.187496" lon="4.5175233">
        <ele>2600.0</ele>
        <time>2020-09-21T10:04:04Z</time>
      </trkpt>
      <trkpt lat="52.1875" lon="4.5175314">
        <ele>2600.0</ele>
        <time>2020-09-21T10:04:05Z</time>
      </trkpt>
      <trkpt lat="52.187504" lon="4.5175366">
        <ele>2600.0</ele>
        <time>2020-09-21T10:04:06Z</time>
      </trkpt>
      <trkpt lat="52.187504" lon="4.5175405">
        <ele>2500.0</ele>
        <time>2020-09-21T10:04:08Z</time>
      </trkpt>
      <trkpt lat="52.187504" lon="4.517543">
        <ele>2500.0</ele>
        <time>2020-09-21T10:04:08Z</time>
      </trkpt>
      <trkpt lat="52.187504" lon="4.517545">
        <ele>2500.0</ele>
        <time>2020-09-21T10:04:09Z</time>
      </trkpt>
      <trkpt lat="52.18751" lon="4.5175495">
        <ele>2500.0</ele>
        <time>2020-09-21T10:04:10Z</time>
      </trkpt>
      <trkpt lat="52.18751" lon="4.5175605">
        <ele>2500.0</ele>
        <time>2020-09-21T10:04:12Z</time>
      </trkpt>
      <trkpt lat="52.18751" lon="4.5175614">
        <ele>2500.0</ele>
        <time>2020-09-21T10:04:13Z</time>
      </trkpt>
      <trkpt lat="52.18751" lon="4.5175633">
        <ele>2500.0</ele>
        <time>2020-09-21T10:04:14Z</time>
      </trkpt>
      <trkpt lat="52.18751" lon="4.517564">
        <ele>2500.0</ele>
        <time>2020-09-21T10:04:15Z</time>
      </trkpt>
      <trkpt lat="52.18751" lon="4.5175605">
        <ele>2500.0</ele>
        <time>2020-09-21T10:04:17Z</time>
      </trkpt>
      <trkpt lat="52.187515" lon="4.517564">
        <ele>2500.0</ele>
        <time>2020-09-21T10:04:40Z</time>
      </trkpt>
      <trkpt lat="52.18752" lon="4.517565">
        <ele>2500.0</ele>
        <time>2020-09-21T10:04:41Z</time>
      </trkpt>
      <trkpt lat="52.187527" lon="4.5175667">
        <ele>2500.0</ele>
        <time>2020-09-21T10:04:42Z</time>
      </trkpt>
      <trkpt lat="52.187534" lon="4.517571">
        <ele>2500.0</ele>
        <time>2020-09-21T10:04:43Z</time>
      </trkpt>
      <trkpt lat="52.187546" lon="4.5175757">
        <ele>2500.0</ele>
        <time>2020-09-21T10:04:44Z</time>
      </trkpt>
      <trkpt lat="52.18755" lon="4.51758">
        <ele>2500.0</ele>
        <time>2020-09-21T10:04:45Z</time>
      </trkpt>
      <trkpt lat="52.187557" lon="4.5175858">
        <ele>2500.0</ele>
        <time>2020-09-21T10:04:46Z</time>
      </trkpt>
      <trkpt lat="52.187565" lon="4.5175905">
        <ele>2500.0</ele>
        <time>2020-09-21T10:04:47Z</time>
      </trkpt>
      <trkpt lat="52.187572" lon="4.5175943">
        <ele>2500.0</ele>
        <time>2020-09-21T10:04:48Z</time>
      </trkpt>
      <trkpt lat="52.187588" lon="4.517606">
        <ele>2500.0</ele>
        <time>2020-09-21T10:04:52Z</time>
      </trkpt>
      <trkpt lat="52.187588" lon="4.517604">
        <ele>2500.0</ele>
        <time>2020-09-21T10:04:53Z</time>
      </trkpt>
      <trkpt lat="52.187588" lon="4.5176005">
        <ele>2500.0</ele>
        <time>2020-09-21T10:04:55Z</time>
      </trkpt>
      <trkpt lat="52.187588" lon="4.5176">
        <ele>2500.0</ele>
        <time>2020-09-21T10:04:57Z</time>
      </trkpt>
      <trkpt lat="52.187576" lon="4.5176005">
        <ele>2500.0</ele>
        <time>2020-09-21T10:05:18Z</time>
      </trkpt>
      <trkpt lat="52.187576" lon="4.5176005">
        <ele>2500.0</ele>
        <time>2020-09-21T10:05:19Z</time>
      </trkpt>
      <trkpt lat="52.187572" lon="4.5176005">
        <ele>2500.0</ele>
        <time>2020-09-21T10:05:20Z</time>
      </trkpt>
      <trkpt lat="52.18758" lon="4.517612">
        <ele>2500.0</ele>
        <time>2020-09-21T10:05:54Z</time>
      </trkpt>
      <trkpt lat="52.18758" lon="4.517606">
        <ele>2500.0</ele>
        <time>2020-09-21T10:06:12Z</time>
      </trkpt>
      <trkpt lat="52.187588" lon="4.517604">
        <ele>2500.0</ele>
        <time>2020-09-21T10:06:14Z</time>
      </trkpt>
      <trkpt lat="52.187588" lon="4.517603">
        <ele>2500.0</ele>
        <time>2020-09-21T10:06:15Z</time>
      </trkpt>
      <trkpt lat="52.187588" lon="4.5176015">
        <ele>2500.0</ele>
        <time>2020-09-21T10:06:16Z</time>
      </trkpt>
      <trkpt lat="52.187588" lon="4.5175986">
        <ele>2500.0</ele>
        <time>2020-09-21T10:06:17Z</time>
      </trkpt>
      <trkpt lat="52.18758" lon="4.5175924">
        <ele>2500.0</ele>
        <time>2020-09-21T10:06:19Z</time>
      </trkpt>
      <trkpt lat="52.18758" lon="4.5175858">
        <ele>2500.0</ele>
        <time>2020-09-21T10:06:19Z</time>
      </trkpt>
      <trkpt lat="52.187576" lon="4.5175643">
        <ele>2500.0</ele>
        <time>2020-09-21T10:06:30Z</time>
      </trkpt>
      <trkpt lat="52.187576" lon="4.5175624">
        <ele>2500.0</ele>
        <time>2020-09-21T10:06:31Z</time>
      </trkpt>
      <trkpt lat="52.187576" lon="4.5175586">
        <ele>2500.0</ele>
        <time>2020-09-21T10:06:32Z</time>
      </trkpt>
      <trkpt lat="52.187572" lon="4.5175457">
        <ele>2500.0</ele>
        <time>2020-09-21T10:06:35Z</time>
      </trkpt>
      <trkpt lat="52.187576" lon="4.517554">
        <ele>2500.0</ele>
        <time>2020-09-21T10:06:57Z</time>
      </trkpt>
      <trkpt lat="52.18758" lon="4.5175548">
        <ele>2500.0</ele>
        <time>2020-09-21T10:06:58Z</time>
      </trkpt>
      <trkpt lat="52.187588" lon="4.517557">
        <ele>2500.0</ele>
        <time>2020-09-21T10:06:59Z</time>
      </trkpt>
      <trkpt lat="52.18759" lon="4.5175605">
        <ele>2500.0</ele>
        <time>2020-09-21T10:07:00Z</time>
      </trkpt>
      <trkpt lat="52.187603" lon="4.5175643">
        <ele>2500.0</ele>
        <time>2020-09-21T10:07:02Z</time>
      </trkpt>
      <trkpt lat="52.187607" lon="4.5175676">
        <ele>2500.0</ele>
        <time>2020-09-21T10:07:02Z</time>
      </trkpt>
      <trkpt lat="52.18761" lon="4.517571">
        <ele>2500.0</ele>
        <time>2020-09-21T10:07:03Z</time>
      </trkpt>
      <trkpt lat="52.18762" lon="4.5175734">
        <ele>2500.0</ele>
        <time>2020-09-21T10:07:04Z</time>
      </trkpt>
      <trkpt lat="52.187622" lon="4.5175734">
        <ele>2500.0</ele>
        <time>2020-09-21T10:07:05Z</time>
      </trkpt>
      <trkpt lat="52.187626" lon="4.5175743">
        <ele>2500.0</ele>
        <time>2020-09-21T10:07:06Z</time>
      </trkpt>
      <trkpt lat="52.187634" lon="4.517569">
        <ele>2500.0</ele>
        <time>2020-09-21T10:07:08Z</time>
      </trkpt>
      <trkpt lat="52.187634" lon="4.5175676">
        <ele>2500.0</ele>
        <time>2020-09-21T10:07:09Z</time>
      </trkpt>
      <trkpt lat="52.187634" lon="4.517566">
        <ele>2500.0</ele>
        <time>2020-09-21T10:07:10Z</time>
      </trkpt>
      <trkpt lat="52.187626" lon="4.5175643">
        <ele>2500.0</ele>
        <time>2020-09-21T10:07:11Z</time>
      </trkpt>
      <trkpt lat="52.187626" lon="4.5175624">
        <ele>2500.0</ele>
        <time>2020-09-21T10:07:12Z</time>
      </trkpt>
      <trkpt lat="52.187626" lon="4.5175605">
        <ele>2500.0</ele>
        <time>2020-09-21T10:07:13Z</time>
      </trkpt>
      <trkpt lat="52.18762" lon="4.517551">
        <ele>2500.0</ele>
        <time>2020-09-21T10:07:15Z</time>
      </trkpt>
      <trkpt lat="52.187622" lon="4.517554">
        <ele>2500.0</ele>
        <time>2020-09-21T10:07:29Z</time>
      </trkpt>
      <trkpt lat="52.187622" lon="4.5175576">
        <ele>2500.0</ele>
        <time>2020-09-21T10:07:34Z</time>
      </trkpt>
      <trkpt lat="52.187626" lon="4.5175624">
        <ele>2500.0</ele>
        <time>2020-09-21T10:07:44Z</time>
      </trkpt>
      <trkpt lat="52.187622" lon="4.5175605">
        <ele>2500.0</ele>
        <time>2020-09-21T10:08:04Z</time>
      </trkpt>
      <trkpt lat="52.187622" lon="4.5175576">
        <ele>2500.0</ele>
        <time>2020-09-21T10:08:07Z</time>
      </trkpt>
      <trkpt lat="52.187622" lon="4.5175567">
        <ele>2500.0</ele>
        <time>2020-09-21T10:08:08Z</time>
      </trkpt>
      <trkpt lat="52.187622" lon="4.5175548">
        <ele>2500.0</ele>
        <time>2020-09-21T10:08:09Z</time>
      </trkpt>
      <trkpt lat="52.187622" lon="4.5175533">
        <ele>2500.0</ele>
        <time>2020-09-21T10:08:10Z</time>
      </trkpt>
      <trkpt lat="52.187622" lon="4.517551">
        <ele>2500.0</ele>
        <time>2020-09-21T10:08:11Z</time>
      </trkpt>
      <trkpt lat="52.187622" lon="4.5175424">
        <ele>2500.0</ele>
        <time>2020-09-21T10:08:13Z</time>
      </trkpt>
      <trkpt lat="52.18762" lon="4.5175357">
        <ele>2500.0</ele>
        <time>2020-09-21T10:08:16Z</time>
      </trkpt>
      <trkpt lat="52.18762" lon="4.5175343">
        <ele>2500.0</ele>
        <time>2020-09-21T10:08:17Z</time>
      </trkpt>
      <trkpt lat="52.18762" lon="4.517533">
        <ele>2500.0</ele>
        <time>2020-09-21T10:08:18Z</time>
      </trkpt>
      <trkpt lat="52.18761" lon="4.5175314">
        <ele>2500.0</ele>
        <time>2020-09-21T10:08:19Z</time>
      </trkpt>
      <trkpt lat="52.18761" lon="4.5175285">
        <ele>2500.0</ele>
        <time>2020-09-21T10:08:20Z</time>
      </trkpt>
      <trkpt lat="52.187607" lon="4.517527">
        <ele>2500.0</ele>
        <time>2020-09-21T10:08:21Z</time>
      </trkpt>
      <trkpt lat="52.187595" lon="4.5175242">
        <ele>2500.0</ele>
        <time>2020-09-21T10:08:23Z</time>
      </trkpt>
      <trkpt lat="52.187595" lon="4.5175242">
        <ele>2500.0</ele>
        <time>2020-09-21T10:08:25Z</time>
      </trkpt>
      <trkpt lat="52.18759" lon="4.5175257">
        <ele>2500.0</ele>
        <time>2020-09-21T10:08:41Z</time>
      </trkpt>
      <trkpt lat="52.18759" lon="4.517526">
        <ele>2500.0</ele>
        <time>2020-09-21T10:08:42Z</time>
      </trkpt>
      <trkpt lat="52.18759" lon="4.5175266">
        <ele>2500.0</ele>
        <time>2020-09-21T10:08:43Z</time>
      </trkpt>
      <trkpt lat="52.187595" lon="4.517528">
        <ele>2500.0</ele>
        <time>2020-09-21T10:08:44Z</time>
      </trkpt>
      <trkpt lat="52.187595" lon="4.5175295">
        <ele>2500.0</ele>
        <time>2020-09-21T10:08:45Z</time>
      </trkpt>
      <trkpt lat="52.187607" lon="4.517537">
        <ele>2500.0</ele>
        <time>2020-09-21T10:08:52Z</time>
      </trkpt>
      <trkpt lat="52.187603" lon="4.5175376">
        <ele>2500.0</ele>
        <time>2020-09-21T10:08:52Z</time>
      </trkpt>
      <trkpt lat="52.187603" lon="4.517538">
        <ele>2500.0</ele>
        <time>2020-09-21T10:08:53Z</time>
      </trkpt>
      <trkpt lat="52.187603" lon="4.5175405">
        <ele>2500.0</ele>
        <time>2020-09-21T10:08:54Z</time>
      </trkpt>
      <trkpt lat="52.187595" lon="4.517549">
        <ele>2500.0</ele>
        <time>2020-09-21T10:09:05Z</time>
      </trkpt>
      <trkpt lat="52.187603" lon="4.5175524">
        <ele>2500.0</ele>
        <time>2020-09-21T10:09:08Z</time>
      </trkpt>
      <trkpt lat="52.187603" lon="4.517553">
        <ele>2500.0</ele>
        <time>2020-09-21T10:09:09Z</time>
      </trkpt>
      <trkpt lat="52.187603" lon="4.517553">
        <ele>2500.0</ele>
        <time>2020-09-21T10:09:10Z</time>
      </trkpt>
      <trkpt lat="52.187607" lon="4.5175533">
        <ele>2500.0</ele>
        <time>2020-09-21T10:09:11Z</time>
      </trkpt>
      <trkpt lat="52.18761" lon="4.517551">
        <ele>2500.0</ele>
        <time>2020-09-21T10:09:22Z</time>
      </trkpt>
      <trkpt lat="52.187607" lon="4.5175424">
        <ele>2500.0</ele>
        <time>2020-09-21T10:09:50Z</time>
      </trkpt>
      <trkpt lat="52.187607" lon="4.5175433">
        <ele>2500.0</ele>
        <time>2020-09-21T10:09:52Z</time>
      </trkpt>
      <trkpt lat="52.187607" lon="4.517547">
        <ele>2500.0</ele>
        <time>2020-09-21T10:09:52Z</time>
      </trkpt>
      <trkpt lat="52.187607" lon="4.517554">
        <ele>2500.0</ele>
        <time>2020-09-21T10:09:53Z</time>
      </trkpt>
      <trkpt lat="52.187607" lon="4.5175614">
        <ele>2500.0</ele>
        <time>2020-09-21T10:09:54Z</time>
      </trkpt>
      <trkpt lat="52.187607" lon="4.517581">
        <ele>2500.0</ele>
        <time>2020-09-21T10:09:56Z</time>
      </trkpt>
      <trkpt lat="52.187603" lon="4.517584">
        <ele>2500.0</ele>
        <time>2020-09-21T10:09:57Z</time>
      </trkpt>
      <trkpt lat="52.187603" lon="4.5175853">
        <ele>2500.0</ele>
        <time>2020-09-21T10:09:58Z</time>
      </trkpt>
      <trkpt lat="52.187603" lon="4.5175886">
        <ele>2500.0</ele>
        <time>2020-09-21T10:09:59Z</time>
      </trkpt>
      <trkpt lat="52.187595" lon="4.5175924">
        <ele>2500.0</ele>
        <time>2020-09-21T10:10:00Z</time>
      </trkpt>
      <trkpt lat="52.187595" lon="4.517596">
        <ele>2500.0</ele>
        <time>2020-09-21T10:10:02Z</time>
      </trkpt>
      <trkpt lat="52.187588" lon="4.517606">
        <ele>2500.0</ele>
        <time>2020-09-21T10:10:04Z</time>
      </trkpt>
      <trkpt lat="52.187588" lon="4.517599">
        <ele>2500.0</ele>
        <time>2020-09-21T10:10:16Z</time>
      </trkpt>
      <trkpt lat="52.187588" lon="4.5175977">
        <ele>2500.0</ele>
        <time>2020-09-21T10:10:18Z</time>
      </trkpt>
      <trkpt lat="52.187588" lon="4.517592">
        <ele>2500.0</ele>
        <time>2020-09-21T10:10:18Z</time>
      </trkpt>
      <trkpt lat="52.187595" lon="4.5175705">
        <ele>2500.0</ele>
        <time>2020-09-21T10:10:25Z</time>
      </trkpt>
      <trkpt lat="52.187595" lon="4.5175695">
        <ele>2500.0</ele>
        <time>2020-09-21T10:10:26Z</time>
      </trkpt>
      <trkpt lat="52.187595" lon="4.517568">
        <ele>2500.0</ele>
        <time>2020-09-21T10:10:27Z</time>
      </trkpt>
      <trkpt lat="52.187595" lon="4.5175657">
        <ele>2500.0</ele>
        <time>2020-09-21T10:10:28Z</time>
      </trkpt>
      <trkpt lat="52.187595" lon="4.517563">
        <ele>2500.0</ele>
        <time>2020-09-21T10:10:29Z</time>
      </trkpt>
      <trkpt lat="52.187595" lon="4.51756">
        <ele>2500.0</ele>
        <time>2020-09-21T10:10:31Z</time>
      </trkpt>
      <trkpt lat="52.187603" lon="4.517551">
        <ele>2500.0</ele>
        <time>2020-09-21T10:10:32Z</time>
      </trkpt>
      <trkpt lat="52.187603" lon="4.517569">
        <ele>2500.0</ele>
        <time>2020-09-21T10:10:59Z</time>
      </trkpt>
      <trkpt lat="52.187603" lon="4.5175757">
        <ele>2500.0</ele>
        <time>2020-09-21T10:11:02Z</time>
      </trkpt>
      <trkpt lat="52.187607" lon="4.517569">
        <ele>2500.0</ele>
        <time>2020-09-21T10:11:21Z</time>
      </trkpt>
      <trkpt lat="52.187607" lon="4.5175657">
        <ele>2500.0</ele>
        <time>2020-09-21T10:11:24Z</time>
      </trkpt>
      <trkpt lat="52.187607" lon="4.5175643">
        <ele>2500.0</ele>
        <time>2020-09-21T10:11:24Z</time>
      </trkpt>
      <trkpt lat="52.187607" lon="4.5175614">
        <ele>2500.0</ele>
        <time>2020-09-21T10:11:25Z</time>
      </trkpt>
      <trkpt lat="52.187595" lon="4.517551">
        <ele>2500.0</ele>
        <time>2020-09-21T10:11:38Z</time>
      </trkpt>
      <trkpt lat="52.18759" lon="4.517554">
        <ele>2500.0</ele>
        <time>2020-09-21T10:11:49Z</time>
      </trkpt>
      <trkpt lat="52.187588" lon="4.5175557">
        <ele>2500.0</ele>
        <time>2020-09-21T10:11:50Z</time>
      </trkpt>
      <trkpt lat="52.187588" lon="4.5175586">
        <ele>2500.0</ele>
        <time>2020-09-21T10:11:52Z</time>
      </trkpt>
      <trkpt lat="52.18758" lon="4.517558">
        <ele>2500.0</ele>
        <time>2020-09-21T10:11:52Z</time>
      </trkpt>
      <trkpt lat="52.187576" lon="4.517557">
        <ele>2500.0</ele>
        <time>2020-09-21T10:11:53Z</time>
      </trkpt>
      <trkpt lat="52.187576" lon="4.517557">
        <ele>2500.0</ele>
        <time>2020-09-21T10:11:54Z</time>
      </trkpt>
      <trkpt lat="52.187572" lon="4.5175586">
        <ele>2500.0</ele>
        <time>2020-09-21T10:11:55Z</time>
      </trkpt>
      <trkpt lat="52.187572" lon="4.5175595">
        <ele>2500.0</ele>
        <time>2020-09-21T10:11:56Z</time>
      </trkpt>
      <trkpt lat="52.187572" lon="4.517562">
        <ele>2500.0</ele>
        <time>2020-09-21T10:11:57Z</time>
      </trkpt>
      <trkpt lat="52.187572" lon="4.517567">
        <ele>2500.0</ele>
        <time>2020-09-21T10:11:58Z</time>
      </trkpt>
      <trkpt lat="52.187572" lon="4.517572">
        <ele>2500.0</ele>
        <time>2020-09-21T10:11:59Z</time>
      </trkpt>
      <trkpt lat="52.187576" lon="4.517576">
        <ele>2500.0</ele>
        <time>2020-09-21T10:12:00Z</time>
      </trkpt>
      <trkpt lat="52.187576" lon="4.51758">
        <ele>2500.0</ele>
        <time>2020-09-21T10:12:02Z</time>
      </trkpt>
      <trkpt lat="52.18758" lon="4.517584">
        <ele>2500.0</ele>
        <time>2020-09-21T10:12:24Z</time>
      </trkpt>
      <trkpt lat="52.18758" lon="4.517584">
        <ele>2500.0</ele>
        <time>2020-09-21T10:12:25Z</time>
      </trkpt>
      <trkpt lat="52.187588" lon="4.517584">
        <ele>2500.0</ele>
        <time>2020-09-21T10:12:26Z</time>
      </trkpt>
      <trkpt lat="52.187588" lon="4.517584">
        <ele>2500.0</ele>
        <time>2020-09-21T10:12:27Z</time>
      </trkpt>
      <trkpt lat="52.18759" lon="4.517584">
        <ele>2500.0</ele>
        <time>2020-09-21T10:12:29Z</time>
      </trkpt>
      <trkpt lat="52.187607" lon="4.5175824">
        <ele>2500.0</ele>
        <time>2020-09-21T10:12:30Z</time>
      </trkpt>
      <trkpt lat="52.18761" lon="4.517577">
        <ele>2500.0</ele>
        <time>2020-09-21T10:12:34Z</time>
      </trkpt>
      <trkpt lat="52.18761" lon="4.5175743">
        <ele>2500.0</ele>
        <time>2020-09-21T10:12:38Z</time>
      </trkpt>
      <trkpt lat="52.18761" lon="4.5175805">
        <ele>2500.0</ele>
        <time>2020-09-21T10:12:55Z</time>
      </trkpt>
      <trkpt lat="52.187607" lon="4.5175815">
        <ele>2500.0</ele>
        <time>2020-09-21T10:12:57Z</time>
      </trkpt>
      <trkpt lat="52.187607" lon="4.5175853">
        <ele>2500.0</ele>
        <time>2020-09-21T10:12:57Z</time>
      </trkpt>
      <trkpt lat="52.187603" lon="4.517589">
        <ele>2500.0</ele>
        <time>2020-09-21T10:12:58Z</time>
      </trkpt>
      <trkpt lat="52.187603" lon="4.5175934">
        <ele>2500.0</ele>
        <time>2020-09-21T10:12:59Z</time>
      </trkpt>
      <trkpt lat="52.187595" lon="4.5175967">
        <ele>2500.0</ele>
        <time>2020-09-21T10:13:00Z</time>
      </trkpt>
      <trkpt lat="52.18759" lon="4.5176053">
        <ele>2500.0</ele>
        <time>2020-09-21T10:13:02Z</time>
      </trkpt>
      <trkpt lat="52.18758" lon="4.5176105">
        <ele>2500.0</ele>
        <time>2020-09-21T10:13:16Z</time>
      </trkpt>
      <trkpt lat="52.18758" lon="4.5176187">
        <ele>2500.0</ele>
        <time>2020-09-21T10:13:33Z</time>
      </trkpt>
      <trkpt lat="52.18758" lon="4.5176187">
        <ele>2500.0</ele>
        <time>2020-09-21T10:13:34Z</time>
      </trkpt>
      <trkpt lat="52.187588" lon="4.5176187">
        <ele>2500.0</ele>
        <time>2020-09-21T10:13:35Z</time>
      </trkpt>
      <trkpt lat="52.18759" lon="4.5176225">
        <ele>2500.0</ele>
        <time>2020-09-21T10:13:40Z</time>
      </trkpt>
      <trkpt lat="52.18759" lon="4.5176225">
        <ele>2500.0</ele>
        <time>2020-09-21T10:13:41Z</time>
      </trkpt>
      <trkpt lat="52.18758" lon="4.5176225">
        <ele>2500.0</ele>
        <time>2020-09-21T10:13:42Z</time>
      </trkpt>
      <trkpt lat="52.187572" lon="4.517623">
        <ele>2500.0</ele>
        <time>2020-09-21T10:13:43Z</time>
      </trkpt>
      <trkpt lat="52.187557" lon="4.517623">
        <ele>2500.0</ele>
        <time>2020-09-21T10:13:44Z</time>
      </trkpt>
      <trkpt lat="52.187542" lon="4.5176225">
        <ele>2500.0</ele>
        <time>2020-09-21T10:13:45Z</time>
      </trkpt>
      <trkpt lat="52.187527" lon="4.5176206">
        <ele>2500.0</ele>
        <time>2020-09-21T10:13:46Z</time>
      </trkpt>
      <trkpt lat="52.18751" lon="4.517617">
        <ele>2500.0</ele>
        <time>2020-09-21T10:13:47Z</time>
      </trkpt>
      <trkpt lat="52.18749" lon="4.517615">
        <ele>2500.0</ele>
        <time>2020-09-21T10:13:48Z</time>
      </trkpt>
      <trkpt lat="52.187473" lon="4.5176077">
        <ele>2500.0</ele>
        <time>2020-09-21T10:13:49Z</time>
      </trkpt>
      <trkpt lat="52.187454" lon="4.517599">
        <ele>2500.0</ele>
        <time>2020-09-21T10:13:51Z</time>
      </trkpt>
      <trkpt lat="52.18744" lon="4.5175905">
        <ele>2500.0</ele>
        <time>2020-09-21T10:13:51Z</time>
      </trkpt>
      <trkpt lat="52.187416" lon="4.517585">
        <ele>2500.0</ele>
        <time>2020-09-21T10:13:52Z</time>
      </trkpt>
      <trkpt lat="52.1874" lon="4.517584">
        <ele>2500.0</ele>
        <time>2020-09-21T10:13:53Z</time>
      </trkpt>
      <trkpt lat="52.18738" lon="4.5175853">
        <ele>2500.0</ele>
        <time>2020-09-21T10:13:54Z</time>
      </trkpt>
      <trkpt lat="52.187366" lon="4.517589">
        <ele>2500.0</ele>
        <time>2020-09-21T10:13:55Z</time>
      </trkpt>
      <trkpt lat="52.187347" lon="4.5175934">
        <ele>2500.0</ele>
        <time>2020-09-21T10:13:56Z</time>
      </trkpt>
      <trkpt lat="52.187332" lon="4.5176015">
        <ele>2500.0</ele>
        <time>2020-09-21T10:13:57Z</time>
      </trkpt>
      <trkpt lat="52.187317" lon="4.5176096">
        <ele>2500.0</ele>
        <time>2020-09-21T10:13:58Z</time>
      </trkpt>
      <trkpt lat="52.1873" lon="4.5176177">
        <ele>2500.0</ele>
        <time>2020-09-21T10:13:59Z</time>
      </trkpt>
      <trkpt lat="52.187286" lon="4.5176244">
        <ele>2500.0</ele>
        <time>2020-09-21T10:14:01Z</time>
      </trkpt>
      <trkpt lat="52.187267" lon="4.5176296">
        <ele>2500.0</ele>
        <time>2020-09-21T10:14:01Z</time>
      </trkpt>
      <trkpt lat="52.18726" lon="4.5176315">
        <ele>2500.0</ele>
        <time>2020-09-21T10:14:02Z</time>
      </trkpt>
      <trkpt lat="52.187244" lon="4.5176315">
        <ele>2500.0</ele>
        <time>2020-09-21T10:14:03Z</time>
      </trkpt>
      <trkpt lat="52.18723" lon="4.51763">
        <ele>2500.0</ele>
        <time>2020-09-21T10:14:04Z</time>
      </trkpt>
      <trkpt lat="52.187214" lon="4.5176272">
        <ele>2500.0</ele>
        <time>2020-09-21T10:14:05Z</time>
      </trkpt>
      <trkpt lat="52.18719" lon="4.5176263">
        <ele>2500.0</ele>
        <time>2020-09-21T10:14:06Z</time>
      </trkpt>
      <trkpt lat="52.187176" lon="4.517624">
        <ele>2500.0</ele>
        <time>2020-09-21T10:14:07Z</time>
      </trkpt>
      <trkpt lat="52.18716" lon="4.517622">
        <ele>2500.0</ele>
        <time>2020-09-21T10:14:08Z</time>
      </trkpt>
      <trkpt lat="52.187145" lon="4.5176196">
        <ele>2500.0</ele>
        <time>2020-09-21T10:14:09Z</time>
      </trkpt>
      <trkpt lat="52.187126" lon="4.5176187">
        <ele>2500.0</ele>
        <time>2020-09-21T10:14:10Z</time>
      </trkpt>
      <trkpt lat="52.187107" lon="4.5176187">
        <ele>2500.0</ele>
        <time>2020-09-21T10:14:11Z</time>
      </trkpt>
      <trkpt lat="52.187084" lon="4.5176206">
        <ele>2500.0</ele>
        <time>2020-09-21T10:14:11Z</time>
      </trkpt>
      <trkpt lat="52.187065" lon="4.517626">
        <ele>2500.0</ele>
        <time>2020-09-21T10:14:12Z</time>
      </trkpt>
      <trkpt lat="52.18704" lon="4.5176306">
        <ele>2500.0</ele>
        <time>2020-09-21T10:14:13Z</time>
      </trkpt>
      <trkpt lat="52.187023" lon="4.517635">
        <ele>2500.0</ele>
        <time>2020-09-21T10:14:14Z</time>
      </trkpt>
      <trkpt lat="52.187004" lon="4.517639">
        <ele>2500.0</ele>
        <time>2020-09-21T10:14:15Z</time>
      </trkpt>
      <trkpt lat="52.18699" lon="4.5176425">
        <ele>2500.0</ele>
        <time>2020-09-21T10:14:16Z</time>
      </trkpt>
      <trkpt lat="52.186974" lon="4.5176463">
        <ele>2500.0</ele>
        <time>2020-09-21T10:14:17Z</time>
      </trkpt>
      <trkpt lat="52.186962" lon="4.517648">
        <ele>2500.0</ele>
        <time>2020-09-21T10:14:18Z</time>
      </trkpt>
      <trkpt lat="52.18695" lon="4.51765">
        <ele>2500.0</ele>
        <time>2020-09-21T10:14:19Z</time>
      </trkpt>
      <trkpt lat="52.186935" lon="4.5176535">
        <ele>2500.0</ele>
        <time>2020-09-21T10:14:21Z</time>
      </trkpt>
      <trkpt lat="52.186928" lon="4.5176573">
        <ele>2500.0</ele>
        <time>2020-09-21T10:14:21Z</time>
      </trkpt>
      <trkpt lat="52.186916" lon="4.517662">
        <ele>2500.0</ele>
        <time>2020-09-21T10:14:22Z</time>
      </trkpt>
      <trkpt lat="52.186905" lon="4.5176682">
        <ele>2500.0</ele>
        <time>2020-09-21T10:14:23Z</time>
      </trkpt>
      <trkpt lat="52.18689" lon="4.517678">
        <ele>2500.0</ele>
        <time>2020-09-21T10:14:24Z</time>
      </trkpt>
      <trkpt lat="52.186874" lon="4.5176897">
        <ele>2500.0</ele>
        <time>2020-09-21T10:14:25Z</time>
      </trkpt>
      <trkpt lat="52.18686" lon="4.5177007">
        <ele>2500.0</ele>
        <time>2020-09-21T10:14:26Z</time>
      </trkpt>
      <trkpt lat="52.186848" lon="4.517712">
        <ele>2500.0</ele>
        <time>2020-09-21T10:14:27Z</time>
      </trkpt>
      <trkpt lat="52.18684" lon="4.51772">
        <ele>2500.0</ele>
        <time>2020-09-21T10:14:28Z</time>
      </trkpt>
      <trkpt lat="52.186825" lon="4.517724">
        <ele>2500.0</ele>
        <time>2020-09-21T10:14:29Z</time>
      </trkpt>
      <trkpt lat="52.186813" lon="4.517727">
        <ele>2500.0</ele>
        <time>2020-09-21T10:14:31Z</time>
      </trkpt>
      <trkpt lat="52.1868" lon="4.517727">
        <ele>2500.0</ele>
        <time>2020-09-21T10:14:31Z</time>
      </trkpt>
      <trkpt lat="52.186783" lon="4.517725">
        <ele>2500.0</ele>
        <time>2020-09-21T10:14:32Z</time>
      </trkpt>
      <trkpt lat="52.186768" lon="4.517724">
        <ele>2500.0</ele>
        <time>2020-09-21T10:14:33Z</time>
      </trkpt>
      <trkpt lat="52.186756" lon="4.517723">
        <ele>2500.0</ele>
        <time>2020-09-21T10:14:34Z</time>
      </trkpt>
      <trkpt lat="52.18674" lon="4.51772">
        <ele>2500.0</ele>
        <time>2020-09-21T10:14:35Z</time>
      </trkpt>
      <trkpt lat="52.186726" lon="4.517716">
        <ele>2500.0</ele>
        <time>2020-09-21T10:14:36Z</time>
      </trkpt>
      <trkpt lat="52.18671" lon="4.5177135">
        <ele>2500.0</ele>
        <time>2020-09-21T10:14:37Z</time>
      </trkpt>
      <trkpt lat="52.186695" lon="4.517712">
        <ele>2500.0</ele>
        <time>2020-09-21T10:14:39Z</time>
      </trkpt>
      <trkpt lat="52.186676" lon="4.5177083">
        <ele>2500.0</ele>
        <time>2020-09-21T10:14:39Z</time>
      </trkpt>
      <trkpt lat="52.186653" lon="4.5177035">
        <ele>2500.0</ele>
        <time>2020-09-21T10:14:40Z</time>
      </trkpt>
      <trkpt lat="52.186634" lon="4.5176992">
        <ele>2500.0</ele>
        <time>2020-09-21T10:14:41Z</time>
      </trkpt>
      <trkpt lat="52.186615" lon="4.5176973">
        <ele>2500.0</ele>
        <time>2020-09-21T10:14:42Z</time>
      </trkpt>
      <trkpt lat="52.18659" lon="4.517696">
        <ele>2500.0</ele>
        <time>2020-09-21T10:14:43Z</time>
      </trkpt>
      <trkpt lat="52.18657" lon="4.517693">
        <ele>2500.0</ele>
        <time>2020-09-21T10:14:44Z</time>
      </trkpt>
      <trkpt lat="52.186543" lon="4.51769">
        <ele>2500.0</ele>
        <time>2020-09-21T10:14:45Z</time>
      </trkpt>
      <trkpt lat="52.186523" lon="4.517685">
        <ele>2500.0</ele>
        <time>2020-09-21T10:14:46Z</time>
      </trkpt>
      <trkpt lat="52.1865" lon="4.517679">
        <ele>2500.0</ele>
        <time>2020-09-21T10:14:47Z</time>
      </trkpt>
      <trkpt lat="52.18648" lon="4.5176725">
        <ele>2500.0</ele>
        <time>2020-09-21T10:14:48Z</time>
      </trkpt>
      <trkpt lat="52.18646" lon="4.517666">
        <ele>2500.0</ele>
        <time>2020-09-21T10:14:49Z</time>
      </trkpt>
      <trkpt lat="52.18644" lon="4.51766">
        <ele>2500.0</ele>
        <time>2020-09-21T10:14:50Z</time>
      </trkpt>
      <trkpt lat="52.186413" lon="4.5176544">
        <ele>2500.0</ele>
        <time>2020-09-21T10:14:51Z</time>
      </trkpt>
      <trkpt lat="52.186394" lon="4.5176473">
        <ele>2500.0</ele>
        <time>2020-09-21T10:14:52Z</time>
      </trkpt>
      <trkpt lat="52.186367" lon="4.517639">
        <ele>2500.0</ele>
        <time>2020-09-21T10:14:53Z</time>
      </trkpt>
      <trkpt lat="52.186344" lon="4.5176315">
        <ele>2500.0</ele>
        <time>2020-09-21T10:14:54Z</time>
      </trkpt>
      <trkpt lat="52.186317" lon="4.517624">
        <ele>2500.0</ele>
        <time>2020-09-21T10:14:55Z</time>
      </trkpt>
      <trkpt lat="52.18629" lon="4.517616">
        <ele>2500.0</ele>
        <time>2020-09-21T10:14:56Z</time>
      </trkpt>
      <trkpt lat="52.186264" lon="4.5176053">
        <ele>2500.0</ele>
        <time>2020-09-21T10:14:57Z</time>
      </trkpt>
      <trkpt lat="52.186234" lon="4.517594">
        <ele>2500.0</ele>
        <time>2020-09-21T10:14:58Z</time>
      </trkpt>
      <trkpt lat="52.18621" lon="4.517583">
        <ele>2500.0</ele>
        <time>2020-09-21T10:15:00Z</time>
      </trkpt>
      <trkpt lat="52.18618" lon="4.5175743">
        <ele>2500.0</ele>
        <time>2020-09-21T10:15:00Z</time>
      </trkpt>
      <trkpt lat="52.186153" lon="4.5175657">
        <ele>2500.0</ele>
        <time>2020-09-21T10:15:01Z</time>
      </trkpt>
      <trkpt lat="52.186127" lon="4.5175567">
        <ele>2500.0</ele>
        <time>2020-09-21T10:15:02Z</time>
      </trkpt>
      <trkpt lat="52.186096" lon="4.5175467">
        <ele>2500.0</ele>
        <time>2020-09-21T10:15:03Z</time>
      </trkpt>
      <trkpt lat="52.18607" lon="4.517536">
        <ele>2500.0</ele>
        <time>2020-09-21T10:15:04Z</time>
      </trkpt>
      <trkpt lat="52.186047" lon="4.5175223">
        <ele>2500.0</ele>
        <time>2020-09-21T10:15:05Z</time>
      </trkpt>
      <trkpt lat="52.186016" lon="4.5175076">
        <ele>2500.0</ele>
        <time>2020-09-21T10:15:06Z</time>
      </trkpt>
      <trkpt lat="52.18599" lon="4.5174894">
        <ele>2500.0</ele>
        <time>2020-09-21T10:15:07Z</time>
      </trkpt>
      <trkpt lat="52.18596" lon="4.5174727">
        <ele>2500.0</ele>
        <time>2020-09-21T10:15:08Z</time>
      </trkpt>
      <trkpt lat="52.18593" lon="4.5174565">
        <ele>2500.0</ele>
        <time>2020-09-21T10:15:10Z</time>
      </trkpt>
      <trkpt lat="52.185898" lon="4.51744">
        <ele>2500.0</ele>
        <time>2020-09-21T10:15:10Z</time>
      </trkpt>
      <trkpt lat="52.185867" lon="4.5174236">
        <ele>2500.0</ele>
        <time>2020-09-21T10:15:11Z</time>
      </trkpt>
      <trkpt lat="52.18584" lon="4.517406">
        <ele>2500.0</ele>
        <time>2020-09-21T10:15:12Z</time>
      </trkpt>
      <trkpt lat="52.18581" lon="4.5173864">
        <ele>2500.0</ele>
        <time>2020-09-21T10:15:13Z</time>
      </trkpt>
      <trkpt lat="52.18578" lon="4.5173635">
        <ele>2500.0</ele>
        <time>2020-09-21T10:15:14Z</time>
      </trkpt>
      <trkpt lat="52.18575" lon="4.517341">
        <ele>2500.0</ele>
        <time>2020-09-21T10:15:15Z</time>
      </trkpt>
      <trkpt lat="52.18572" lon="4.5173173">
        <ele>2500.0</ele>
        <time>2020-09-21T10:15:16Z</time>
      </trkpt>
      <trkpt lat="52.18568" lon="4.517294">
        <ele>2500.0</ele>
        <time>2020-09-21T10:15:17Z</time>
      </trkpt>
      <trkpt lat="52.18565" lon="4.5172696">
        <ele>2500.0</ele>
        <time>2020-09-21T10:15:18Z</time>
      </trkpt>
      <trkpt lat="52.18562" lon="4.5172434">
        <ele>2500.0</ele>
        <time>2020-09-21T10:15:19Z</time>
      </trkpt>
      <trkpt lat="52.185585" lon="4.517218">
        <ele>2500.0</ele>
        <time>2020-09-21T10:15:20Z</time>
      </trkpt>
      <trkpt lat="52.185555" lon="4.517194">
        <ele>2500.0</ele>
        <time>2020-09-21T10:15:21Z</time>
      </trkpt>
      <trkpt lat="52.185524" lon="4.5171685">
        <ele>2500.0</ele>
        <time>2020-09-21T10:15:22Z</time>
      </trkpt>
      <trkpt lat="52.185493" lon="4.5171432">
        <ele>2500.0</ele>
        <time>2020-09-21T10:15:23Z</time>
      </trkpt>
      <trkpt lat="52.185463" lon="4.517118">
        <ele>2500.0</ele>
        <time>2020-09-21T10:15:24Z</time>
      </trkpt>
      <trkpt lat="52.185432" lon="4.5170937">
        <ele>2500.0</ele>
        <time>2020-09-21T10:15:25Z</time>
      </trkpt>
      <trkpt lat="52.185406" lon="4.5170703">
        <ele>2500.0</ele>
        <time>2020-09-21T10:15:26Z</time>
      </trkpt>
      <trkpt lat="52.18538" lon="4.5170484">
        <ele>2500.0</ele>
        <time>2020-09-21T10:15:27Z</time>
      </trkpt>
      <trkpt lat="52.185356" lon="4.5170274">
        <ele>2500.0</ele>
        <time>2020-09-21T10:15:28Z</time>
      </trkpt>
      <trkpt lat="52.18533" lon="4.5170064">
        <ele>2500.0</ele>
        <time>2020-09-21T10:15:29Z</time>
      </trkpt>
      <trkpt lat="52.185303" lon="4.5169864">
        <ele>2500.0</ele>
        <time>2020-09-21T10:15:30Z</time>
      </trkpt>
      <trkpt lat="52.185272" lon="4.516966">
        <ele>2500.0</ele>
        <time>2020-09-21T10:15:31Z</time>
      </trkpt>
      <trkpt lat="52.18524" lon="4.516944">
        <ele>2500.0</ele>
        <time>2020-09-21T10:15:32Z</time>
      </trkpt>
      <trkpt lat="52.185215" lon="4.516923">
        <ele>2600.0</ele>
        <time>2020-09-21T10:15:33Z</time>
      </trkpt>
      <trkpt lat="52.185184" lon="4.516902">
        <ele>2600.0</ele>
        <time>2020-09-21T10:15:34Z</time>
      </trkpt>
      <trkpt lat="52.185158" lon="4.516883">
        <ele>2600.0</ele>
        <time>2020-09-21T10:15:35Z</time>
      </trkpt>
      <trkpt lat="52.185135" lon="4.516866">
        <ele>2600.0</ele>
        <time>2020-09-21T10:15:36Z</time>
      </trkpt>
      <trkpt lat="52.18511" lon="4.5168514">
        <ele>2600.0</ele>
        <time>2020-09-21T10:15:37Z</time>
      </trkpt>
      <trkpt lat="52.18508" lon="4.5168366">
        <ele>2600.0</ele>
        <time>2020-09-21T10:15:38Z</time>
      </trkpt>
      <trkpt lat="52.185062" lon="4.516821">
        <ele>2600.0</ele>
        <time>2020-09-21T10:15:39Z</time>
      </trkpt>
      <trkpt lat="52.185043" lon="4.5168047">
        <ele>2600.0</ele>
        <time>2020-09-21T10:15:40Z</time>
      </trkpt>
      <trkpt lat="52.185028" lon="4.516789">
        <ele>2700.0</ele>
        <time>2020-09-21T10:15:42Z</time>
      </trkpt>
      <trkpt lat="52.185005" lon="4.5167756">
        <ele>2700.0</ele>
        <time>2020-09-21T10:15:42Z</time>
      </trkpt>
      <trkpt lat="52.18499" lon="4.516763">
        <ele>2700.0</ele>
        <time>2020-09-21T10:15:43Z</time>
      </trkpt>
      <trkpt lat="52.18497" lon="4.5167484">
        <ele>2700.0</ele>
        <time>2020-09-21T10:15:44Z</time>
      </trkpt>
      <trkpt lat="52.184948" lon="4.5167336">
        <ele>2700.0</ele>
        <time>2020-09-21T10:15:45Z</time>
      </trkpt>
      <trkpt lat="52.18493" lon="4.516716">
        <ele>2700.0</ele>
        <time>2020-09-21T10:15:46Z</time>
      </trkpt>
      <trkpt lat="52.18491" lon="4.5166955">
        <ele>2700.0</ele>
        <time>2020-09-21T10:15:47Z</time>
      </trkpt>
      <trkpt lat="52.184883" lon="4.5166755">
        <ele>2700.0</ele>
        <time>2020-09-21T10:15:48Z</time>
      </trkpt>
      <trkpt lat="52.184856" lon="4.516658">
        <ele>2700.0</ele>
        <time>2020-09-21T10:15:49Z</time>
      </trkpt>
      <trkpt lat="52.184834" lon="4.516641">
        <ele>2700.0</ele>
        <time>2020-09-21T10:15:50Z</time>
      </trkpt>
      <trkpt lat="52.184803" lon="4.5166254">
        <ele>2700.0</ele>
        <time>2020-09-21T10:15:51Z</time>
      </trkpt>
      <trkpt lat="52.18477" lon="4.516614">
        <ele>2700.0</ele>
        <time>2020-09-21T10:15:52Z</time>
      </trkpt>
      <trkpt lat="52.184734" lon="4.516606">
        <ele>2700.0</ele>
        <time>2020-09-21T10:15:53Z</time>
      </trkpt>
      <trkpt lat="52.184692" lon="4.5166035">
        <ele>2600.0</ele>
        <time>2020-09-21T10:15:54Z</time>
      </trkpt>
      <trkpt lat="52.184654" lon="4.5166078">
        <ele>2600.0</ele>
        <time>2020-09-21T10:15:55Z</time>
      </trkpt>
      <trkpt lat="52.184612" lon="4.516618">
        <ele>2600.0</ele>
        <time>2020-09-21T10:15:56Z</time>
      </trkpt>
      <trkpt lat="52.184566" lon="4.516633">
        <ele>2600.0</ele>
        <time>2020-09-21T10:15:57Z</time>
      </trkpt>
      <trkpt lat="52.18452" lon="4.5166526">
        <ele>2600.0</ele>
        <time>2020-09-21T10:15:58Z</time>
      </trkpt>
      <trkpt lat="52.18448" lon="4.516678">
        <ele>2600.0</ele>
        <time>2020-09-21T10:15:59Z</time>
      </trkpt>
      <trkpt lat="52.184433" lon="4.5167065">
        <ele>2600.0</ele>
        <time>2020-09-21T10:16:00Z</time>
      </trkpt>
      <trkpt lat="52.18439" lon="4.5167346">
        <ele>2600.0</ele>
        <time>2020-09-21T10:16:01Z</time>
      </trkpt>
      <trkpt lat="52.184357" lon="4.516764">
        <ele>2600.0</ele>
        <time>2020-09-21T10:16:03Z</time>
      </trkpt>
      <trkpt lat="52.184315" lon="4.516794">
        <ele>2600.0</ele>
        <time>2020-09-21T10:16:03Z</time>
      </trkpt>
      <trkpt lat="52.18428" lon="4.5168223">
        <ele>2600.0</ele>
        <time>2020-09-21T10:16:04Z</time>
      </trkpt>
      <trkpt lat="52.18424" lon="4.516847">
        <ele>2600.0</ele>
        <time>2020-09-21T10:16:05Z</time>
      </trkpt>
      <trkpt lat="52.184204" lon="4.516867">
        <ele>2600.0</ele>
        <time>2020-09-21T10:16:06Z</time>
      </trkpt>
      <trkpt lat="52.184162" lon="4.516885">
        <ele>2600.0</ele>
        <time>2020-09-21T10:16:07Z</time>
      </trkpt>
      <trkpt lat="52.18412" lon="4.5169">
        <ele>2600.0</ele>
        <time>2020-09-21T10:16:08Z</time>
      </trkpt>
      <trkpt lat="52.18408" lon="4.5169115">
        <ele>2600.0</ele>
        <time>2020-09-21T10:16:09Z</time>
      </trkpt>
      <trkpt lat="52.18404" lon="4.5169196">
        <ele>2600.0</ele>
        <time>2020-09-21T10:16:10Z</time>
      </trkpt>
      <trkpt lat="52.184002" lon="4.516924">
        <ele>2600.0</ele>
        <time>2020-09-21T10:16:11Z</time>
      </trkpt>
      <trkpt lat="52.18396" lon="4.5169253">
        <ele>2600.0</ele>
        <time>2020-09-21T10:16:12Z</time>
      </trkpt>
      <trkpt lat="52.183926" lon="4.516925">
        <ele>2600.0</ele>
        <time>2020-09-21T10:16:13Z</time>
      </trkpt>
      <trkpt lat="52.18389" lon="4.5169234">
        <ele>2600.0</ele>
        <time>2020-09-21T10:16:14Z</time>
      </trkpt>
      <trkpt lat="52.183853" lon="4.516922">
        <ele>2600.0</ele>
        <time>2020-09-21T10:16:15Z</time>
      </trkpt>
      <trkpt lat="52.183823" lon="4.516921">
        <ele>2600.0</ele>
        <time>2020-09-21T10:16:16Z</time>
      </trkpt>
      <trkpt lat="52.183792" lon="4.516919">
        <ele>2600.0</ele>
        <time>2020-09-21T10:16:17Z</time>
      </trkpt>
      <trkpt lat="52.18376" lon="4.516917">
        <ele>2600.0</ele>
        <time>2020-09-21T10:16:18Z</time>
      </trkpt>
      <trkpt lat="52.18373" lon="4.5169177">
        <ele>2600.0</ele>
        <time>2020-09-21T10:16:19Z</time>
      </trkpt>
      <trkpt lat="52.183704" lon="4.5169196">
        <ele>2600.0</ele>
        <time>2020-09-21T10:16:20Z</time>
      </trkpt>
      <trkpt lat="52.18368" lon="4.5169225">
        <ele>2600.0</ele>
        <time>2020-09-21T10:16:21Z</time>
      </trkpt>
      <trkpt lat="52.183655" lon="4.5169272">
        <ele>2600.0</ele>
        <time>2020-09-21T10:16:22Z</time>
      </trkpt>
      <trkpt lat="52.183628" lon="4.516933">
        <ele>2600.0</ele>
        <time>2020-09-21T10:16:24Z</time>
      </trkpt>
      <trkpt lat="52.18361" lon="4.516942">
        <ele>2600.0</ele>
        <time>2020-09-21T10:16:24Z</time>
      </trkpt>
      <trkpt lat="52.183594" lon="4.516955">
        <ele>2600.0</ele>
        <time>2020-09-21T10:16:25Z</time>
      </trkpt>
      <trkpt lat="52.183582" lon="4.5169716">
        <ele>2600.0</ele>
        <time>2020-09-21T10:16:26Z</time>
      </trkpt>
      <trkpt lat="52.18358" lon="4.5169935">
        <ele>2600.0</ele>
        <time>2020-09-21T10:16:27Z</time>
      </trkpt>
      <trkpt lat="52.18357" lon="4.5171256">
        <ele>2600.0</ele>
        <time>2020-09-21T10:16:29Z</time>
      </trkpt>
      <trkpt lat="52.18357" lon="4.5171323">
        <ele>2600.0</ele>
        <time>2020-09-21T10:16:30Z</time>
      </trkpt>
      <trkpt lat="52.18357" lon="4.517148">
        <ele>2600.0</ele>
        <time>2020-09-21T10:16:31Z</time>
      </trkpt>
      <trkpt lat="52.18357" lon="4.5171666">
        <ele>2600.0</ele>
        <time>2020-09-21T10:16:32Z</time>
      </trkpt>
      <trkpt lat="52.18357" lon="4.5171824">
        <ele>2600.0</ele>
        <time>2020-09-21T10:16:33Z</time>
      </trkpt>
      <trkpt lat="52.18357" lon="4.5171947">
        <ele>2600.0</ele>
        <time>2020-09-21T10:16:34Z</time>
      </trkpt>
      <trkpt lat="52.18357" lon="4.517203">
        <ele>2600.0</ele>
        <time>2020-09-21T10:16:35Z</time>
      </trkpt>
      <trkpt lat="52.18357" lon="4.517209">
        <ele>2600.0</ele>
        <time>2020-09-21T10:16:37Z</time>
      </trkpt>
      <trkpt lat="52.18357" lon="4.5172153">
        <ele>2600.0</ele>
        <time>2020-09-21T10:16:37Z</time>
      </trkpt>
      <trkpt lat="52.18357" lon="4.517219">
        <ele>2600.0</ele>
        <time>2020-09-21T10:16:38Z</time>
      </trkpt>
      <trkpt lat="52.18357" lon="4.5172243">
        <ele>2600.0</ele>
        <time>2020-09-21T10:16:39Z</time>
      </trkpt>
      <trkpt lat="52.183567" lon="4.5172305">
        <ele>2600.0</ele>
        <time>2020-09-21T10:16:40Z</time>
      </trkpt>
      <trkpt lat="52.183563" lon="4.5172343">
        <ele>2600.0</ele>
        <time>2020-09-21T10:16:41Z</time>
      </trkpt>
      <trkpt lat="52.183556" lon="4.5172367">
        <ele>2600.0</ele>
        <time>2020-09-21T10:16:42Z</time>
      </trkpt>
      <trkpt lat="52.18355" lon="4.5172405">
        <ele>2600.0</ele>
        <time>2020-09-21T10:16:44Z</time>
      </trkpt>
      <trkpt lat="52.18355" lon="4.517241">
        <ele>2600.0</ele>
        <time>2020-09-21T10:16:45Z</time>
      </trkpt>
      <trkpt lat="52.18355" lon="4.5172434">
        <ele>2600.0</ele>
        <time>2020-09-21T10:16:46Z</time>
      </trkpt>
      <trkpt lat="52.183556" lon="4.517246">
        <ele>2600.0</ele>
        <time>2020-09-21T10:17:04Z</time>
      </trkpt>
      <trkpt lat="52.183563" lon="4.5172424">
        <ele>2600.0</ele>
        <time>2020-09-21T10:17:07Z</time>
      </trkpt>
      <trkpt lat="52.183567" lon="4.5172424">
        <ele>2600.0</ele>
        <time>2020-09-21T10:17:12Z</time>
      </trkpt>
      <trkpt lat="52.183567" lon="4.5172358">
        <ele>2600.0</ele>
        <time>2020-09-21T10:17:15Z</time>
      </trkpt>
      <trkpt lat="52.183567" lon="4.5172305">
        <ele>2600.0</ele>
        <time>2020-09-21T10:17:17Z</time>
      </trkpt>
      <trkpt lat="52.183567" lon="4.5172296">
        <ele>2600.0</ele>
        <time>2020-09-21T10:17:18Z</time>
      </trkpt>
      <trkpt lat="52.18357" lon="4.5172305">
        <ele>2600.0</ele>
        <time>2020-09-21T10:17:38Z</time>
      </trkpt>
      <trkpt lat="52.18357" lon="4.5172324">
        <ele>2600.0</ele>
        <time>2020-09-21T10:17:41Z</time>
      </trkpt>
      <trkpt lat="52.18357" lon="4.517246">
        <ele>2600.0</ele>
        <time>2020-09-21T10:17:52Z</time>
      </trkpt>
      <trkpt lat="52.18357" lon="4.5172462">
        <ele>2600.0</ele>
        <time>2020-09-21T10:17:53Z</time>
      </trkpt>
      <trkpt lat="52.183556" lon="4.517249">
        <ele>2600.0</ele>
        <time>2020-09-21T10:17:59Z</time>
      </trkpt>
      <trkpt lat="52.18355" lon="4.517247">
        <ele>2600.0</ele>
        <time>2020-09-21T10:18:09Z</time>
      </trkpt>
      <trkpt lat="52.183556" lon="4.517246">
        <ele>2600.0</ele>
        <time>2020-09-21T10:18:35Z</time>
      </trkpt>
      <trkpt lat="52.183556" lon="4.5172462">
        <ele>2600.0</ele>
        <time>2020-09-21T10:18:36Z</time>
      </trkpt>
      <trkpt lat="52.183556" lon="4.5172467">
        <ele>2600.0</ele>
        <time>2020-09-21T10:18:37Z</time>
      </trkpt>
      <trkpt lat="52.183563" lon="4.517248">
        <ele>2600.0</ele>
        <time>2020-09-21T10:18:38Z</time>
      </trkpt>
      <trkpt lat="52.183563" lon="4.5172496">
        <ele>2600.0</ele>
        <time>2020-09-21T10:18:39Z</time>
      </trkpt>
      <trkpt lat="52.183563" lon="4.5172224">
        <ele>2600.0</ele>
        <time>2020-09-21T10:26:29Z</time>
      </trkpt>
      <trkpt lat="52.183563" lon="4.517207">
        <ele>2600.0</ele>
        <time>2020-09-21T10:26:31Z</time>
      </trkpt>
      <trkpt lat="52.183563" lon="4.517179">
        <ele>2600.0</ele>
        <time>2020-09-21T10:26:31Z</time>
      </trkpt>
      <trkpt lat="52.183563" lon="4.517145">
        <ele>2600.0</ele>
        <time>2020-09-21T10:26:32Z</time>
      </trkpt>
      <trkpt lat="52.183556" lon="4.517108">
        <ele>2600.0</ele>
        <time>2020-09-21T10:26:33Z</time>
      </trkpt>
      <trkpt lat="52.183548" lon="4.51707">
        <ele>2600.0</ele>
        <time>2020-09-21T10:26:34Z</time>
      </trkpt>
      <trkpt lat="52.183533" lon="4.5170364">
        <ele>2600.0</ele>
        <time>2020-09-21T10:26:35Z</time>
      </trkpt>
      <trkpt lat="52.18351" lon="4.517006">
        <ele>2600.0</ele>
        <time>2020-09-21T10:26:36Z</time>
      </trkpt>
      <trkpt lat="52.18349" lon="4.5169783">
        <ele>2600.0</ele>
        <time>2020-09-21T10:26:37Z</time>
      </trkpt>
      <trkpt lat="52.18346" lon="4.51695">
        <ele>2600.0</ele>
        <time>2020-09-21T10:26:39Z</time>
      </trkpt>
      <trkpt lat="52.18343" lon="4.5169225">
        <ele>2600.0</ele>
        <time>2020-09-21T10:26:39Z</time>
      </trkpt>
      <trkpt lat="52.18339" lon="4.5168943">
        <ele>2600.0</ele>
        <time>2020-09-21T10:26:40Z</time>
      </trkpt>
      <trkpt lat="52.18336" lon="4.5168657">
        <ele>2600.0</ele>
        <time>2020-09-21T10:26:41Z</time>
      </trkpt>
      <trkpt lat="52.18333" lon="4.5168366">
        <ele>2600.0</ele>
        <time>2020-09-21T10:26:42Z</time>
      </trkpt>
      <trkpt lat="52.1833" lon="4.5168076">
        <ele>2600.0</ele>
        <time>2020-09-21T10:26:43Z</time>
      </trkpt>
      <trkpt lat="52.183266" lon="4.5167794">
        <ele>2600.0</ele>
        <time>2020-09-21T10:26:44Z</time>
      </trkpt>
      <trkpt lat="52.183235" lon="4.5167546">
        <ele>2600.0</ele>
        <time>2020-09-21T10:26:45Z</time>
      </trkpt>
      <trkpt lat="52.183197" lon="4.516737">
        <ele>2600.0</ele>
        <time>2020-09-21T10:26:46Z</time>
      </trkpt>
      <trkpt lat="52.183163" lon="4.516729">
        <ele>2600.0</ele>
        <time>2020-09-21T10:26:47Z</time>
      </trkpt>
      <trkpt lat="52.183132" lon="4.516733">
        <ele>2600.0</ele>
        <time>2020-09-21T10:26:49Z</time>
      </trkpt>
      <trkpt lat="52.1831" lon="4.516748">
        <ele>2600.0</ele>
        <time>2020-09-21T10:26:49Z</time>
      </trkpt>
      <trkpt lat="52.18307" lon="4.5167713">
        <ele>2600.0</ele>
        <time>2020-09-21T10:26:50Z</time>
      </trkpt>
      <trkpt lat="52.183044" lon="4.5168014">
        <ele>2600.0</ele>
        <time>2020-09-21T10:26:51Z</time>
      </trkpt>
      <trkpt lat="52.183014" lon="4.516832">
        <ele>2600.0</ele>
        <time>2020-09-21T10:26:52Z</time>
      </trkpt>
      <trkpt lat="52.182987" lon="4.5168743">
        <ele>2600.0</ele>
        <time>2020-09-21T10:26:53Z</time>
      </trkpt>
      <trkpt lat="52.182957" lon="4.516919">
        <ele>2600.0</ele>
        <time>2020-09-21T10:26:54Z</time>
      </trkpt>
      <trkpt lat="52.182934" lon="4.516966">
        <ele>2600.0</ele>
        <time>2020-09-21T10:26:55Z</time>
      </trkpt>
      <trkpt lat="52.182903" lon="4.5170097">
        <ele>2600.0</ele>
        <time>2020-09-21T10:26:56Z</time>
      </trkpt>
      <trkpt lat="52.182873" lon="4.517047">
        <ele>2600.0</ele>
        <time>2020-09-21T10:26:56Z</time>
      </trkpt>
      <trkpt lat="52.18284" lon="4.5170765">
        <ele>2600.0</ele>
        <time>2020-09-21T10:26:57Z</time>
      </trkpt>
      <trkpt lat="52.182804" lon="4.517099">
        <ele>2600.0</ele>
        <time>2020-09-21T10:26:59Z</time>
      </trkpt>
      <trkpt lat="52.182762" lon="4.517116">
        <ele>2600.0</ele>
        <time>2020-09-21T10:26:59Z</time>
      </trkpt>
      <trkpt lat="52.182724" lon="4.5171266">
        <ele>2600.0</ele>
        <time>2020-09-21T10:27:00Z</time>
      </trkpt>
      <trkpt lat="52.182682" lon="4.517134">
        <ele>2600.0</ele>
        <time>2020-09-21T10:27:01Z</time>
      </trkpt>
      <trkpt lat="52.182636" lon="4.5171432">
        <ele>2600.0</ele>
        <time>2020-09-21T10:27:02Z</time>
      </trkpt>
      <trkpt lat="52.182594" lon="4.517153">
        <ele>2600.0</ele>
        <time>2020-09-21T10:27:03Z</time>
      </trkpt>
      <trkpt lat="52.18256" lon="4.517168">
        <ele>2600.0</ele>
        <time>2020-09-21T10:27:04Z</time>
      </trkpt>
      <trkpt lat="52.18252" lon="4.517183">
        <ele>2600.0</ele>
        <time>2020-09-21T10:27:05Z</time>
      </trkpt>
      <trkpt lat="52.18249" lon="4.5171957">
        <ele>2600.0</ele>
        <time>2020-09-21T10:27:06Z</time>
      </trkpt>
      <trkpt lat="52.182457" lon="4.5172095">
        <ele>2600.0</ele>
        <time>2020-09-21T10:27:07Z</time>
      </trkpt>
      <trkpt lat="52.182426" lon="4.517223">
        <ele>2600.0</ele>
        <time>2020-09-21T10:27:09Z</time>
      </trkpt>
      <trkpt lat="52.182396" lon="4.5172324">
        <ele>2600.0</ele>
        <time>2020-09-21T10:27:09Z</time>
      </trkpt>
      <trkpt lat="52.182365" lon="4.5172405">
        <ele>2600.0</ele>
        <time>2020-09-21T10:27:10Z</time>
      </trkpt>
      <trkpt lat="52.182335" lon="4.5172453">
        <ele>2600.0</ele>
        <time>2020-09-21T10:27:11Z</time>
      </trkpt>
      <trkpt lat="52.182304" lon="4.517247">
        <ele>2600.0</ele>
        <time>2020-09-21T10:27:12Z</time>
      </trkpt>
      <trkpt lat="52.182278" lon="4.5172462">
        <ele>2600.0</ele>
        <time>2020-09-21T10:27:13Z</time>
      </trkpt>
      <trkpt lat="52.18224" lon="4.517246">
        <ele>2600.0</ele>
        <time>2020-09-21T10:27:14Z</time>
      </trkpt>
      <trkpt lat="52.18221" lon="4.5172467">
        <ele>2600.0</ele>
        <time>2020-09-21T10:27:15Z</time>
      </trkpt>
      <trkpt lat="52.182186" lon="4.517253">
        <ele>2600.0</ele>
        <time>2020-09-21T10:27:16Z</time>
      </trkpt>
      <trkpt lat="52.182156" lon="4.517262">
        <ele>2600.0</ele>
        <time>2020-09-21T10:27:17Z</time>
      </trkpt>
      <trkpt lat="52.182125" lon="4.517274">
        <ele>2600.0</ele>
        <time>2020-09-21T10:27:18Z</time>
      </trkpt>
      <trkpt lat="52.182087" lon="4.517288">
        <ele>2600.0</ele>
        <time>2020-09-21T10:27:19Z</time>
      </trkpt>
      <trkpt lat="52.182056" lon="4.517303">
        <ele>2600.0</ele>
        <time>2020-09-21T10:27:20Z</time>
      </trkpt>
      <trkpt lat="52.182022" lon="4.51732">
        <ele>2600.0</ele>
        <time>2020-09-21T10:27:21Z</time>
      </trkpt>
      <trkpt lat="52.181984" lon="4.5173397">
        <ele>2600.0</ele>
        <time>2020-09-21T10:27:22Z</time>
      </trkpt>
      <trkpt lat="52.18195" lon="4.517361">
        <ele>2600.0</ele>
        <time>2020-09-21T10:27:23Z</time>
      </trkpt>
      <trkpt lat="52.18192" lon="4.517384">
        <ele>2600.0</ele>
        <time>2020-09-21T10:27:24Z</time>
      </trkpt>
      <trkpt lat="52.181885" lon="4.5174074">
        <ele>2600.0</ele>
        <time>2020-09-21T10:27:25Z</time>
      </trkpt>
      <trkpt lat="52.181847" lon="4.5174336">
        <ele>2600.0</ele>
        <time>2020-09-21T10:27:26Z</time>
      </trkpt>
      <trkpt lat="52.181816" lon="4.5174613">
        <ele>2600.0</ele>
        <time>2020-09-21T10:27:27Z</time>
      </trkpt>
      <trkpt lat="52.18178" lon="4.517488">
        <ele>2600.0</ele>
        <time>2020-09-21T10:27:28Z</time>
      </trkpt>
      <trkpt lat="52.181744" lon="4.5175147">
        <ele>2600.0</ele>
        <time>2020-09-21T10:27:30Z</time>
      </trkpt>
      <trkpt lat="52.181713" lon="4.517541">
        <ele>2600.0</ele>
        <time>2020-09-21T10:27:30Z</time>
      </trkpt>
      <trkpt lat="52.181683" lon="4.517568">
        <ele>2600.0</ele>
        <time>2020-09-21T10:27:31Z</time>
      </trkpt>
      <trkpt lat="52.181652" lon="4.5175924">
        <ele>2600.0</ele>
        <time>2020-09-21T10:27:32Z</time>
      </trkpt>
      <trkpt lat="52.18162" lon="4.517612">
        <ele>2600.0</ele>
        <time>2020-09-21T10:27:33Z</time>
      </trkpt>
      <trkpt lat="52.18159" lon="4.51763">
        <ele>2600.0</ele>
        <time>2020-09-21T10:27:34Z</time>
      </trkpt>
      <trkpt lat="52.18156" lon="4.517644">
        <ele>2600.0</ele>
        <time>2020-09-21T10:27:35Z</time>
      </trkpt>
      <trkpt lat="52.18153" lon="4.5176573">
        <ele>2600.0</ele>
        <time>2020-09-21T10:27:36Z</time>
      </trkpt>
      <trkpt lat="52.1815" lon="4.517668">
        <ele>2600.0</ele>
        <time>2020-09-21T10:27:37Z</time>
      </trkpt>
      <trkpt lat="52.18146" lon="4.5176764">
        <ele>2600.0</ele>
        <time>2020-09-21T10:27:38Z</time>
      </trkpt>
      <trkpt lat="52.18143" lon="4.517685">
        <ele>2600.0</ele>
        <time>2020-09-21T10:27:39Z</time>
      </trkpt>
      <trkpt lat="52.1814" lon="4.5176926">
        <ele>2600.0</ele>
        <time>2020-09-21T10:27:40Z</time>
      </trkpt>
      <trkpt lat="52.181366" lon="4.517699">
        <ele>2600.0</ele>
        <time>2020-09-21T10:27:41Z</time>
      </trkpt>
      <trkpt lat="52.181335" lon="4.517705">
        <ele>2600.0</ele>
        <time>2020-09-21T10:27:42Z</time>
      </trkpt>
      <trkpt lat="52.181305" lon="4.5177093">
        <ele>2600.0</ele>
        <time>2020-09-21T10:27:43Z</time>
      </trkpt>
      <trkpt lat="52.181267" lon="4.517711">
        <ele>2600.0</ele>
        <time>2020-09-21T10:27:44Z</time>
      </trkpt>
      <trkpt lat="52.181236" lon="4.5177093">
        <ele>2600.0</ele>
        <time>2020-09-21T10:27:45Z</time>
      </trkpt>
      <trkpt lat="52.181202" lon="4.517702">
        <ele>2600.0</ele>
        <time>2020-09-21T10:27:46Z</time>
      </trkpt>
      <trkpt lat="52.18117" lon="4.5176945">
        <ele>2600.0</ele>
        <time>2020-09-21T10:27:48Z</time>
      </trkpt>
      <trkpt lat="52.18114" lon="4.5176907">
        <ele>2600.0</ele>
        <time>2020-09-21T10:27:48Z</time>
      </trkpt>
      <trkpt lat="52.18111" lon="4.517685">
        <ele>2600.0</ele>
        <time>2020-09-21T10:27:49Z</time>
      </trkpt>
      <trkpt lat="52.181084" lon="4.517678">
        <ele>2600.0</ele>
        <time>2020-09-21T10:27:50Z</time>
      </trkpt>
      <trkpt lat="52.181053" lon="4.517665">
        <ele>2600.0</ele>
        <time>2020-09-21T10:27:51Z</time>
      </trkpt>
      <trkpt lat="52.181023" lon="4.517649">
        <ele>2600.0</ele>
        <time>2020-09-21T10:27:52Z</time>
      </trkpt>
      <trkpt lat="52.180992" lon="4.517635">
        <ele>2600.0</ele>
        <time>2020-09-21T10:27:53Z</time>
      </trkpt>
      <trkpt lat="52.18096" lon="4.517623">
        <ele>2600.0</ele>
        <time>2020-09-21T10:27:54Z</time>
      </trkpt>
      <trkpt lat="52.180935" lon="4.517612">
        <ele>2600.0</ele>
        <time>2020-09-21T10:27:55Z</time>
      </trkpt>
      <trkpt lat="52.180904" lon="4.5176005">
        <ele>2600.0</ele>
        <time>2020-09-21T10:27:56Z</time>
      </trkpt>
      <trkpt lat="52.18087" lon="4.5175886">
        <ele>2600.0</ele>
        <time>2020-09-21T10:27:57Z</time>
      </trkpt>
      <trkpt lat="52.180843" lon="4.5175767">
        <ele>2600.0</ele>
        <time>2020-09-21T10:27:58Z</time>
      </trkpt>
      <trkpt lat="52.180813" lon="4.5175633">
        <ele>2600.0</ele>
        <time>2020-09-21T10:27:59Z</time>
      </trkpt>
      <trkpt lat="52.180786" lon="4.5175524">
        <ele>2600.0</ele>
        <time>2020-09-21T10:28:00Z</time>
      </trkpt>
      <trkpt lat="52.180756" lon="4.517541">
        <ele>2600.0</ele>
        <time>2020-09-21T10:28:01Z</time>
      </trkpt>
      <trkpt lat="52.180733" lon="4.5175295">
        <ele>2600.0</ele>
        <time>2020-09-21T10:28:02Z</time>
      </trkpt>
      <trkpt lat="52.180706" lon="4.5175176">
        <ele>2700.0</ele>
        <time>2020-09-21T10:28:03Z</time>
      </trkpt>
      <trkpt lat="52.18068" lon="4.517505">
        <ele>2700.0</ele>
        <time>2020-09-21T10:28:04Z</time>
      </trkpt>
      <trkpt lat="52.18065" lon="4.517493">
        <ele>2700.0</ele>
        <time>2020-09-21T10:28:05Z</time>
      </trkpt>
      <trkpt lat="52.180622" lon="4.5174804">
        <ele>2700.0</ele>
        <time>2020-09-21T10:28:06Z</time>
      </trkpt>
      <trkpt lat="52.18059" lon="4.5174675">
        <ele>2700.0</ele>
        <time>2020-09-21T10:28:07Z</time>
      </trkpt>
      <trkpt lat="52.18056" lon="4.517453">
        <ele>2700.0</ele>
        <time>2020-09-21T10:28:09Z</time>
      </trkpt>
      <trkpt lat="52.18053" lon="4.517439">
        <ele>2700.0</ele>
        <time>2020-09-21T10:28:09Z</time>
      </trkpt>
      <trkpt lat="52.1805" lon="4.517426">
        <ele>2700.0</ele>
        <time>2020-09-21T10:28:10Z</time>
      </trkpt>
      <trkpt lat="52.180466" lon="4.517417">
        <ele>2700.0</ele>
        <time>2020-09-21T10:28:11Z</time>
      </trkpt>
      <trkpt lat="52.180435" lon="4.51741">
        <ele>2700.0</ele>
        <time>2020-09-21T10:28:12Z</time>
      </trkpt>
      <trkpt lat="52.180397" lon="4.517405">
        <ele>2700.0</ele>
        <time>2020-09-21T10:28:13Z</time>
      </trkpt>
      <trkpt lat="52.180367" lon="4.5174007">
        <ele>2700.0</ele>
        <time>2020-09-21T10:28:14Z</time>
      </trkpt>
      <trkpt lat="52.180336" lon="4.517397">
        <ele>2700.0</ele>
        <time>2020-09-21T10:28:15Z</time>
      </trkpt>
      <trkpt lat="52.1803" lon="4.5173917">
        <ele>2700.0</ele>
        <time>2020-09-21T10:28:16Z</time>
      </trkpt>
      <trkpt lat="52.18027" lon="4.517388">
        <ele>2700.0</ele>
        <time>2020-09-21T10:28:17Z</time>
      </trkpt>
      <trkpt lat="52.180233" lon="4.517382">
        <ele>2700.0</ele>
        <time>2020-09-21T10:28:19Z</time>
      </trkpt>
      <trkpt lat="52.18021" lon="4.517377">
        <ele>2700.0</ele>
        <time>2020-09-21T10:28:19Z</time>
      </trkpt>
      <trkpt lat="52.18018" lon="4.51737">
        <ele>2700.0</ele>
        <time>2020-09-21T10:28:20Z</time>
      </trkpt>
      <trkpt lat="52.18014" lon="4.517364">
        <ele>2700.0</ele>
        <time>2020-09-21T10:28:21Z</time>
      </trkpt>
      <trkpt lat="52.18011" lon="4.5173573">
        <ele>2700.0</ele>
        <time>2020-09-21T10:28:22Z</time>
      </trkpt>
      <trkpt lat="52.18008" lon="4.5173516">
        <ele>2700.0</ele>
        <time>2020-09-21T10:28:23Z</time>
      </trkpt>
      <trkpt lat="52.180054" lon="4.5173483">
        <ele>2700.0</ele>
        <time>2020-09-21T10:28:24Z</time>
      </trkpt>
      <trkpt lat="52.18002" lon="4.5173426">
        <ele>2700.0</ele>
        <time>2020-09-21T10:28:25Z</time>
      </trkpt>
      <trkpt lat="52.17999" lon="4.517337">
        <ele>2700.0</ele>
        <time>2020-09-21T10:28:26Z</time>
      </trkpt>
      <trkpt lat="52.17996" lon="4.517328">
        <ele>2700.0</ele>
        <time>2020-09-21T10:28:27Z</time>
      </trkpt>
      <trkpt lat="52.179928" lon="4.517322">
        <ele>2700.0</ele>
        <time>2020-09-21T10:28:28Z</time>
      </trkpt>
      <trkpt lat="52.179897" lon="4.5173163">
        <ele>2700.0</ele>
        <time>2020-09-21T10:28:30Z</time>
      </trkpt>
      <trkpt lat="52.179867" lon="4.51731">
        <ele>2700.0</ele>
        <time>2020-09-21T10:28:30Z</time>
      </trkpt>
      <trkpt lat="52.179836" lon="4.5173035">
        <ele>2700.0</ele>
        <time>2020-09-21T10:28:31Z</time>
      </trkpt>
      <trkpt lat="52.17981" lon="4.5172977">
        <ele>2700.0</ele>
        <time>2020-09-21T10:28:32Z</time>
      </trkpt>
      <trkpt lat="52.17978" lon="4.517293">
        <ele>2700.0</ele>
        <time>2020-09-21T10:28:33Z</time>
      </trkpt>
      <trkpt lat="52.179752" lon="4.517289">
        <ele>2700.0</ele>
        <time>2020-09-21T10:28:34Z</time>
      </trkpt>
      <trkpt lat="52.17972" lon="4.5172863">
        <ele>2700.0</ele>
        <time>2020-09-21T10:28:35Z</time>
      </trkpt>
      <trkpt lat="52.179695" lon="4.5172844">
        <ele>2700.0</ele>
        <time>2020-09-21T10:28:37Z</time>
      </trkpt>
      <trkpt lat="52.179665" lon="4.5172825">
        <ele>2700.0</ele>
        <time>2020-09-21T10:28:37Z</time>
      </trkpt>
      <trkpt lat="52.179634" lon="4.5172815">
        <ele>2700.0</ele>
        <time>2020-09-21T10:28:38Z</time>
      </trkpt>
      <trkpt lat="52.17961" lon="4.51728">
        <ele>2700.0</ele>
        <time>2020-09-21T10:28:39Z</time>
      </trkpt>
      <trkpt lat="52.17958" lon="4.5172772">
        <ele>2700.0</ele>
        <time>2020-09-21T10:28:40Z</time>
      </trkpt>
      <trkpt lat="52.179546" lon="4.5172744">
        <ele>2700.0</ele>
        <time>2020-09-21T10:28:41Z</time>
      </trkpt>
      <trkpt lat="52.179516" lon="4.5172696">
        <ele>2700.0</ele>
        <time>2020-09-21T10:28:42Z</time>
      </trkpt>
      <trkpt lat="52.179485" lon="4.5172668">
        <ele>2700.0</ele>
        <time>2020-09-21T10:28:43Z</time>
      </trkpt>
      <trkpt lat="52.179455" lon="4.5172644">
        <ele>2700.0</ele>
        <time>2020-09-21T10:28:44Z</time>
      </trkpt>
      <trkpt lat="52.179424" lon="4.5172615">
        <ele>2700.0</ele>
        <time>2020-09-21T10:28:45Z</time>
      </trkpt>
      <trkpt lat="52.1794" lon="4.5172586">
        <ele>2700.0</ele>
        <time>2020-09-21T10:28:46Z</time>
      </trkpt>
      <trkpt lat="52.179367" lon="4.5172563">
        <ele>2700.0</ele>
        <time>2020-09-21T10:28:48Z</time>
      </trkpt>
      <trkpt lat="52.179344" lon="4.517253">
        <ele>2700.0</ele>
        <time>2020-09-21T10:28:48Z</time>
      </trkpt>
      <trkpt lat="52.179314" lon="4.517252">
        <ele>2700.0</ele>
        <time>2020-09-21T10:28:49Z</time>
      </trkpt>
      <trkpt lat="52.179283" lon="4.517249">
        <ele>2700.0</ele>
        <time>2020-09-21T10:28:50Z</time>
      </trkpt>
      <trkpt lat="52.179253" lon="4.517247">
        <ele>2700.0</ele>
        <time>2020-09-21T10:28:51Z</time>
      </trkpt>
      <trkpt lat="52.179226" lon="4.517246">
        <ele>2700.0</ele>
        <time>2020-09-21T10:28:52Z</time>
      </trkpt>
      <trkpt lat="52.179195" lon="4.5172434">
        <ele>2700.0</ele>
        <time>2020-09-21T10:28:53Z</time>
      </trkpt>
      <trkpt lat="52.179165" lon="4.5172434">
        <ele>2700.0</ele>
        <time>2020-09-21T10:28:54Z</time>
      </trkpt>
      <trkpt lat="52.179134" lon="4.517245">
        <ele>2700.0</ele>
        <time>2020-09-21T10:28:55Z</time>
      </trkpt>
      <trkpt lat="52.179104" lon="4.5172462">
        <ele>2700.0</ele>
        <time>2020-09-21T10:28:56Z</time>
      </trkpt>
      <trkpt lat="52.179073" lon="4.51725">
        <ele>2700.0</ele>
        <time>2020-09-21T10:28:58Z</time>
      </trkpt>
      <trkpt lat="52.179047" lon="4.517255">
        <ele>2700.0</ele>
        <time>2020-09-21T10:28:58Z</time>
      </trkpt>
      <trkpt lat="52.179016" lon="4.517259">
        <ele>2700.0</ele>
        <time>2020-09-21T10:28:59Z</time>
      </trkpt>
      <trkpt lat="52.178986" lon="4.517264">
        <ele>2700.0</ele>
        <time>2020-09-21T10:29:00Z</time>
      </trkpt>
      <trkpt lat="52.17896" lon="4.517268">
        <ele>2700.0</ele>
        <time>2020-09-21T10:29:01Z</time>
      </trkpt>
      <trkpt lat="52.178932" lon="4.517273">
        <ele>2700.0</ele>
        <time>2020-09-21T10:29:02Z</time>
      </trkpt>
      <trkpt lat="52.17891" lon="4.5172787">
        <ele>2700.0</ele>
        <time>2020-09-21T10:29:03Z</time>
      </trkpt>
      <trkpt lat="52.17888" lon="4.5172873">
        <ele>2700.0</ele>
        <time>2020-09-21T10:29:04Z</time>
      </trkpt>
      <trkpt lat="52.17885" lon="4.517295">
        <ele>2700.0</ele>
        <time>2020-09-21T10:29:05Z</time>
      </trkpt>
      <trkpt lat="52.17882" lon="4.517304">
        <ele>2700.0</ele>
        <time>2020-09-21T10:29:06Z</time>
      </trkpt>
      <trkpt lat="52.17879" lon="4.5173125">
        <ele>2700.0</ele>
        <time>2020-09-21T10:29:07Z</time>
      </trkpt>
      <trkpt lat="52.178764" lon="4.5173154">
        <ele>2700.0</ele>
        <time>2020-09-21T10:29:09Z</time>
      </trkpt>
      <trkpt lat="52.178734" lon="4.5173163">
        <ele>2700.0</ele>
        <time>2020-09-21T10:29:09Z</time>
      </trkpt>
      <trkpt lat="52.178707" lon="4.5173182">
        <ele>2700.0</ele>
        <time>2020-09-21T10:29:10Z</time>
      </trkpt>
      <trkpt lat="52.178677" lon="4.517324">
        <ele>2700.0</ele>
        <time>2020-09-21T10:29:11Z</time>
      </trkpt>
      <trkpt lat="52.178654" lon="4.5173316">
        <ele>2700.0</ele>
        <time>2020-09-21T10:29:12Z</time>
      </trkpt>
      <trkpt lat="52.17863" lon="4.5173445">
        <ele>2700.0</ele>
        <time>2020-09-21T10:29:13Z</time>
      </trkpt>
      <trkpt lat="52.178608" lon="4.517362">
        <ele>2700.0</ele>
        <time>2020-09-21T10:29:14Z</time>
      </trkpt>
      <trkpt lat="52.17858" lon="4.517379">
        <ele>2700.0</ele>
        <time>2020-09-21T10:29:15Z</time>
      </trkpt>
      <trkpt lat="52.178555" lon="4.5173936">
        <ele>2700.0</ele>
        <time>2020-09-21T10:29:16Z</time>
      </trkpt>
      <trkpt lat="52.178528" lon="4.517406">
        <ele>2700.0</ele>
        <time>2020-09-21T10:29:17Z</time>
      </trkpt>
      <trkpt lat="52.178497" lon="4.5174184">
        <ele>2700.0</ele>
        <time>2020-09-21T10:29:19Z</time>
      </trkpt>
      <trkpt lat="52.178474" lon="4.517428">
        <ele>2700.0</ele>
        <time>2020-09-21T10:29:19Z</time>
      </trkpt>
      <trkpt lat="52.178444" lon="4.517436">
        <ele>2700.0</ele>
        <time>2020-09-21T10:29:20Z</time>
      </trkpt>
      <trkpt lat="52.178417" lon="4.5174427">
        <ele>2700.0</ele>
        <time>2020-09-21T10:29:21Z</time>
      </trkpt>
      <trkpt lat="52.178387" lon="4.517449">
        <ele>2700.0</ele>
        <time>2020-09-21T10:29:22Z</time>
      </trkpt>
      <trkpt lat="52.178356" lon="4.5174556">
        <ele>2700.0</ele>
        <time>2020-09-21T10:29:23Z</time>
      </trkpt>
      <trkpt lat="52.178326" lon="4.5174623">
        <ele>2700.0</ele>
        <time>2020-09-21T10:29:24Z</time>
      </trkpt>
      <trkpt lat="52.178295" lon="4.517471">
        <ele>2700.0</ele>
        <time>2020-09-21T10:29:25Z</time>
      </trkpt>
      <trkpt lat="52.178265" lon="4.517481">
        <ele>2700.0</ele>
        <time>2020-09-21T10:29:26Z</time>
      </trkpt>
      <trkpt lat="52.178234" lon="4.51749">
        <ele>2700.0</ele>
        <time>2020-09-21T10:29:27Z</time>
      </trkpt>
      <trkpt lat="52.1782" lon="4.5175">
        <ele>2700.0</ele>
        <time>2020-09-21T10:29:28Z</time>
      </trkpt>
      <trkpt lat="52.178177" lon="4.5175085">
        <ele>2700.0</ele>
        <time>2020-09-21T10:29:29Z</time>
      </trkpt>
      <trkpt lat="52.178146" lon="4.517516">
        <ele>2700.0</ele>
        <time>2020-09-21T10:29:30Z</time>
      </trkpt>
      <trkpt lat="52.178116" lon="4.517524">
        <ele>2700.0</ele>
        <time>2020-09-21T10:29:31Z</time>
      </trkpt>
      <trkpt lat="52.178085" lon="4.51753">
        <ele>2700.0</ele>
        <time>2020-09-21T10:29:32Z</time>
      </trkpt>
      <trkpt lat="52.178055" lon="4.517538">
        <ele>2700.0</ele>
        <time>2020-09-21T10:29:33Z</time>
      </trkpt>
      <trkpt lat="52.178024" lon="4.5175467">
        <ele>2700.0</ele>
        <time>2020-09-21T10:29:34Z</time>
      </trkpt>
      <trkpt lat="52.17799" lon="4.5175548">
        <ele>2700.0</ele>
        <time>2020-09-21T10:29:35Z</time>
      </trkpt>
      <trkpt lat="52.17796" lon="4.517562">
        <ele>2700.0</ele>
        <time>2020-09-21T10:29:37Z</time>
      </trkpt>
      <trkpt lat="52.177937" lon="4.517567">
        <ele>2700.0</ele>
        <time>2020-09-21T10:29:37Z</time>
      </trkpt>
      <trkpt lat="52.1779" lon="4.517573">
        <ele>2700.0</ele>
        <time>2020-09-21T10:29:38Z</time>
      </trkpt>
      <trkpt lat="52.177868" lon="4.517577">
        <ele>2700.0</ele>
        <time>2020-09-21T10:29:39Z</time>
      </trkpt>
      <trkpt lat="52.177837" lon="4.517582">
        <ele>2700.0</ele>
        <time>2020-09-21T10:29:40Z</time>
      </trkpt>
      <trkpt lat="52.177807" lon="4.517585">
        <ele>2700.0</ele>
        <time>2020-09-21T10:29:41Z</time>
      </trkpt>
      <trkpt lat="52.17778" lon="4.5175877">
        <ele>2700.0</ele>
        <time>2020-09-21T10:29:42Z</time>
      </trkpt>
      <trkpt lat="52.17775" lon="4.5175924">
        <ele>2700.0</ele>
        <time>2020-09-21T10:29:43Z</time>
      </trkpt>
      <trkpt lat="52.17772" lon="4.5175986">
        <ele>2700.0</ele>
        <time>2020-09-21T10:29:44Z</time>
      </trkpt>
      <trkpt lat="52.17769" lon="4.5176034">
        <ele>2700.0</ele>
        <time>2020-09-21T10:29:45Z</time>
      </trkpt>
      <trkpt lat="52.177658" lon="4.517606">
        <ele>2700.0</ele>
        <time>2020-09-21T10:29:46Z</time>
      </trkpt>
      <trkpt lat="52.177628" lon="4.517607">
        <ele>2700.0</ele>
        <time>2020-09-21T10:29:48Z</time>
      </trkpt>
      <trkpt lat="52.177597" lon="4.517607">
        <ele>2700.0</ele>
        <time>2020-09-21T10:29:48Z</time>
      </trkpt>
      <trkpt lat="52.177563" lon="4.517608">
        <ele>2700.0</ele>
        <time>2020-09-21T10:29:49Z</time>
      </trkpt>
      <trkpt lat="52.177532" lon="4.517609">
        <ele>2700.0</ele>
        <time>2020-09-21T10:29:50Z</time>
      </trkpt>
      <trkpt lat="52.1775" lon="4.5176096">
        <ele>2700.0</ele>
        <time>2020-09-21T10:29:51Z</time>
      </trkpt>
      <trkpt lat="52.17747" lon="4.51761">
        <ele>2700.0</ele>
        <time>2020-09-21T10:29:52Z</time>
      </trkpt>
      <trkpt lat="52.177433" lon="4.517609">
        <ele>2700.0</ele>
        <time>2020-09-21T10:29:53Z</time>
      </trkpt>
      <trkpt lat="52.1774" lon="4.517607">
        <ele>2700.0</ele>
        <time>2020-09-21T10:29:54Z</time>
      </trkpt>
      <trkpt lat="52.17737" lon="4.5176053">
        <ele>2700.0</ele>
        <time>2020-09-21T10:29:55Z</time>
      </trkpt>
      <trkpt lat="52.177338" lon="4.5176034">
        <ele>2700.0</ele>
        <time>2020-09-21T10:29:56Z</time>
      </trkpt>
      <trkpt lat="52.177307" lon="4.517602">
        <ele>2700.0</ele>
        <time>2020-09-21T10:29:57Z</time>
      </trkpt>
      <trkpt lat="52.177277" lon="4.5175996">
        <ele>2700.0</ele>
        <time>2020-09-21T10:29:58Z</time>
      </trkpt>
      <trkpt lat="52.177242" lon="4.517595">
        <ele>2700.0</ele>
        <time>2020-09-21T10:29:59Z</time>
      </trkpt>
      <trkpt lat="52.17721" lon="4.517589">
        <ele>2700.0</ele>
        <time>2020-09-21T10:30:00Z</time>
      </trkpt>
      <trkpt lat="52.17719" lon="4.517583">
        <ele>2700.0</ele>
        <time>2020-09-21T10:30:01Z</time>
      </trkpt>
      <trkpt lat="52.177162" lon="4.5175767">
        <ele>2700.0</ele>
        <time>2020-09-21T10:30:02Z</time>
      </trkpt>
      <trkpt lat="52.17713" lon="4.5175695">
        <ele>2700.0</ele>
        <time>2020-09-21T10:30:03Z</time>
      </trkpt>
      <trkpt lat="52.1771" lon="4.5175657">
        <ele>2700.0</ele>
        <time>2020-09-21T10:30:04Z</time>
      </trkpt>
      <trkpt lat="52.177074" lon="4.5175614">
        <ele>2700.0</ele>
        <time>2020-09-21T10:30:05Z</time>
      </trkpt>
      <trkpt lat="52.177044" lon="4.517556">
        <ele>2700.0</ele>
        <time>2020-09-21T10:30:06Z</time>
      </trkpt>
      <trkpt lat="52.177017" lon="4.517552">
        <ele>2700.0</ele>
        <time>2020-09-21T10:30:07Z</time>
      </trkpt>
      <trkpt lat="52.176987" lon="4.517547">
        <ele>2700.0</ele>
        <time>2020-09-21T10:30:08Z</time>
      </trkpt>
      <trkpt lat="52.176968" lon="4.5175424">
        <ele>2700.0</ele>
        <time>2020-09-21T10:30:09Z</time>
      </trkpt>
      <trkpt lat="52.17695" lon="4.517539">
        <ele>2700.0</ele>
        <time>2020-09-21T10:30:10Z</time>
      </trkpt>
      <trkpt lat="52.176937" lon="4.517536">
        <ele>2700.0</ele>
        <time>2020-09-21T10:30:12Z</time>
      </trkpt>
      <trkpt lat="52.176926" lon="4.517533">
        <ele>2700.0</ele>
        <time>2020-09-21T10:30:12Z</time>
      </trkpt>
      <trkpt lat="52.17691" lon="4.5175323">
        <ele>2700.0</ele>
        <time>2020-09-21T10:30:14Z</time>
      </trkpt>
      <trkpt lat="52.17691" lon="4.5175333">
        <ele>2700.0</ele>
        <time>2020-09-21T10:30:15Z</time>
      </trkpt>
      <trkpt lat="52.17691" lon="4.517539">
        <ele>2700.0</ele>
        <time>2020-09-21T10:30:17Z</time>
      </trkpt>
      <trkpt lat="52.176918" lon="4.517539">
        <ele>2700.0</ele>
        <time>2020-09-21T10:30:19Z</time>
      </trkpt>
      <trkpt lat="52.176918" lon="4.517538">
        <ele>2700.0</ele>
        <time>2020-09-21T10:30:20Z</time>
      </trkpt>
      <trkpt lat="52.176918" lon="4.5175366">
        <ele>2700.0</ele>
        <time>2020-09-21T10:30:21Z</time>
      </trkpt>
      <trkpt lat="52.176918" lon="4.517537">
        <ele>2700.0</ele>
        <time>2020-09-21T10:30:22Z</time>
      </trkpt>
      <trkpt lat="52.176918" lon="4.517537">
        <ele>2700.0</ele>
        <time>2020-09-21T10:30:24Z</time>
      </trkpt>
      <trkpt lat="52.176918" lon="4.5175457">
        <ele>2700.0</ele>
        <time>2020-09-21T10:30:25Z</time>
      </trkpt>
      <trkpt lat="52.176918" lon="4.517544">
        <ele>2700.0</ele>
        <time>2020-09-21T10:30:26Z</time>
      </trkpt>
      <trkpt lat="52.176918" lon="4.5175414">
        <ele>2700.0</ele>
        <time>2020-09-21T10:30:27Z</time>
      </trkpt>
      <trkpt lat="52.17691" lon="4.5175376">
        <ele>2700.0</ele>
        <time>2020-09-21T10:30:53Z</time>
      </trkpt>
      <trkpt lat="52.176907" lon="4.517536">
        <ele>2700.0</ele>
        <time>2020-09-21T10:30:53Z</time>
      </trkpt>
      <trkpt lat="52.176903" lon="4.5175323">
        <ele>2700.0</ele>
        <time>2020-09-21T10:30:54Z</time>
      </trkpt>
      <trkpt lat="52.17689" lon="4.5175276">
        <ele>2700.0</ele>
        <time>2020-09-21T10:30:55Z</time>
      </trkpt>
      <trkpt lat="52.176876" lon="4.517523">
        <ele>2700.0</ele>
        <time>2020-09-21T10:30:56Z</time>
      </trkpt>
      <trkpt lat="52.176853" lon="4.517515">
        <ele>2700.0</ele>
        <time>2020-09-21T10:30:57Z</time>
      </trkpt>
      <trkpt lat="52.176834" lon="4.5175056">
        <ele>2700.0</ele>
        <time>2020-09-21T10:30:58Z</time>
      </trkpt>
      <trkpt lat="52.176815" lon="4.517495">
        <ele>2700.0</ele>
        <time>2020-09-21T10:30:59Z</time>
      </trkpt>
      <trkpt lat="52.1768" lon="4.517486">
        <ele>2700.0</ele>
        <time>2020-09-21T10:31:00Z</time>
      </trkpt>
      <trkpt lat="52.176777" lon="4.517477">
        <ele>2700.0</ele>
        <time>2020-09-21T10:31:01Z</time>
      </trkpt>
      <trkpt lat="52.176754" lon="4.51747">
        <ele>2700.0</ele>
        <time>2020-09-21T10:31:02Z</time>
      </trkpt>
      <trkpt lat="52.17673" lon="4.517464">
        <ele>2700.0</ele>
        <time>2020-09-21T10:31:03Z</time>
      </trkpt>
      <trkpt lat="52.17671" lon="4.517459">
        <ele>2700.0</ele>
        <time>2020-09-21T10:31:04Z</time>
      </trkpt>
      <trkpt lat="52.17668" lon="4.5174522">
        <ele>2700.0</ele>
        <time>2020-09-21T10:31:05Z</time>
      </trkpt>
      <trkpt lat="52.176655" lon="4.5174437">
        <ele>2700.0</ele>
        <time>2020-09-21T10:31:06Z</time>
      </trkpt>
      <trkpt lat="52.176624" lon="4.517433">
        <ele>2700.0</ele>
        <time>2020-09-21T10:31:07Z</time>
      </trkpt>
      <trkpt lat="52.176594" lon="4.517424">
        <ele>2700.0</ele>
        <time>2020-09-21T10:31:08Z</time>
      </trkpt>
      <trkpt lat="52.176567" lon="4.5174174">
        <ele>2700.0</ele>
        <time>2020-09-21T10:31:09Z</time>
      </trkpt>
      <trkpt lat="52.176537" lon="4.5174117">
        <ele>2700.0</ele>
        <time>2020-09-21T10:31:10Z</time>
      </trkpt>
      <trkpt lat="52.176506" lon="4.517404">
        <ele>2700.0</ele>
        <time>2020-09-21T10:31:11Z</time>
      </trkpt>
      <trkpt lat="52.176483" lon="4.5173965">
        <ele>2700.0</ele>
        <time>2020-09-21T10:31:11Z</time>
      </trkpt>
      <trkpt lat="52.17645" lon="4.5173893">
        <ele>2700.0</ele>
        <time>2020-09-21T10:31:13Z</time>
      </trkpt>
      <trkpt lat="52.176426" lon="4.517384">
        <ele>2700.0</ele>
        <time>2020-09-21T10:31:13Z</time>
      </trkpt>
      <trkpt lat="52.1764" lon="4.5173793">
        <ele>2700.0</ele>
        <time>2020-09-21T10:31:14Z</time>
      </trkpt>
      <trkpt lat="52.176373" lon="4.5173726">
        <ele>2700.0</ele>
        <time>2020-09-21T10:31:15Z</time>
      </trkpt>
      <trkpt lat="52.176342" lon="4.517365">
        <ele>2700.0</ele>
        <time>2020-09-21T10:31:16Z</time>
      </trkpt>
      <trkpt lat="52.17632" lon="4.517356">
        <ele>2700.0</ele>
        <time>2020-09-21T10:31:17Z</time>
      </trkpt>
      <trkpt lat="52.176292" lon="4.517344">
        <ele>2700.0</ele>
        <time>2020-09-21T10:31:18Z</time>
      </trkpt>
      <trkpt lat="52.176266" lon="4.5173306">
        <ele>2700.0</ele>
        <time>2020-09-21T10:31:19Z</time>
      </trkpt>
      <trkpt lat="52.176235" lon="4.517314">
        <ele>2700.0</ele>
        <time>2020-09-21T10:31:20Z</time>
      </trkpt>
      <trkpt lat="52.17621" lon="4.517297">
        <ele>2700.0</ele>
        <time>2020-09-21T10:31:21Z</time>
      </trkpt>
      <trkpt lat="52.176186" lon="4.517279">
        <ele>2700.0</ele>
        <time>2020-09-21T10:31:23Z</time>
      </trkpt>
      <trkpt lat="52.17616" lon="4.517263">
        <ele>2700.0</ele>
        <time>2020-09-21T10:31:23Z</time>
      </trkpt>
      <trkpt lat="52.176132" lon="4.5172453">
        <ele>2700.0</ele>
        <time>2020-09-21T10:31:24Z</time>
      </trkpt>
      <trkpt lat="52.176025" lon="4.517181">
        <ele>2700.0</ele>
        <time>2020-09-21T10:31:26Z</time>
      </trkpt>
      <trkpt lat="52.17602" lon="4.517178">
        <ele>2700.0</ele>
        <time>2020-09-21T10:31:27Z</time>
      </trkpt>
      <trkpt lat="52.176014" lon="4.5171733">
        <ele>2700.0</ele>
        <time>2020-09-21T10:31:28Z</time>
      </trkpt>
      <trkpt lat="52.176" lon="4.51717">
        <ele>2700.0</ele>
        <time>2020-09-21T10:31:29Z</time>
      </trkpt>
      <trkpt lat="52.17598" lon="4.5171695">
        <ele>2700.0</ele>
        <time>2020-09-21T10:31:30Z</time>
      </trkpt>
      <trkpt lat="52.17596" lon="4.5171695">
        <ele>2700.0</ele>
        <time>2020-09-21T10:31:31Z</time>
      </trkpt>
      <trkpt lat="52.175938" lon="4.5171723">
        <ele>2700.0</ele>
        <time>2020-09-21T10:31:32Z</time>
      </trkpt>
      <trkpt lat="52.175915" lon="4.517176">
        <ele>2700.0</ele>
        <time>2020-09-21T10:31:33Z</time>
      </trkpt>
      <trkpt lat="52.175888" lon="4.517181">
        <ele>2700.0</ele>
        <time>2020-09-21T10:31:34Z</time>
      </trkpt>
      <trkpt lat="52.17586" lon="4.5171857">
        <ele>2700.0</ele>
        <time>2020-09-21T10:31:35Z</time>
      </trkpt>
      <trkpt lat="52.175835" lon="4.517191">
        <ele>2700.0</ele>
        <time>2020-09-21T10:31:36Z</time>
      </trkpt>
      <trkpt lat="52.17581" lon="4.517198">
        <ele>2700.0</ele>
        <time>2020-09-21T10:31:37Z</time>
      </trkpt>
      <trkpt lat="52.17579" lon="4.517205">
        <ele>2700.0</ele>
        <time>2020-09-21T10:31:38Z</time>
      </trkpt>
      <trkpt lat="52.175766" lon="4.5172133">
        <ele>2700.0</ele>
        <time>2020-09-21T10:31:39Z</time>
      </trkpt>
      <trkpt lat="52.17574" lon="4.517222">
        <ele>2700.0</ele>
        <time>2020-09-21T10:31:40Z</time>
      </trkpt>
      <trkpt lat="52.175713" lon="4.5172315">
        <ele>2700.0</ele>
        <time>2020-09-21T10:31:41Z</time>
      </trkpt>
      <trkpt lat="52.175686" lon="4.5172424">
        <ele>2700.0</ele>
        <time>2020-09-21T10:31:42Z</time>
      </trkpt>
      <trkpt lat="52.175663" lon="4.5172524">
        <ele>2700.0</ele>
        <time>2020-09-21T10:31:43Z</time>
      </trkpt>
      <trkpt lat="52.17564" lon="4.517263">
        <ele>2700.0</ele>
        <time>2020-09-21T10:31:44Z</time>
      </trkpt>
      <trkpt lat="52.175617" lon="4.5172734">
        <ele>2700.0</ele>
        <time>2020-09-21T10:31:45Z</time>
      </trkpt>
      <trkpt lat="52.175594" lon="4.517283">
        <ele>2700.0</ele>
        <time>2020-09-21T10:31:46Z</time>
      </trkpt>
      <trkpt lat="52.175575" lon="4.517293">
        <ele>2700.0</ele>
        <time>2020-09-21T10:31:47Z</time>
      </trkpt>
      <trkpt lat="52.175556" lon="4.5173016">
        <ele>2700.0</ele>
        <time>2020-09-21T10:31:48Z</time>
      </trkpt>
      <trkpt lat="52.17553" lon="4.517311">
        <ele>2700.0</ele>
        <time>2020-09-21T10:31:49Z</time>
      </trkpt>
      <trkpt lat="52.175507" lon="4.5173197">
        <ele>2700.0</ele>
        <time>2020-09-21T10:31:50Z</time>
      </trkpt>
      <trkpt lat="52.175488" lon="4.5173287">
        <ele>2700.0</ele>
        <time>2020-09-21T10:31:52Z</time>
      </trkpt>
      <trkpt lat="52.17547" lon="4.517336">
        <ele>2700.0</ele>
        <time>2020-09-21T10:31:52Z</time>
      </trkpt>
      <trkpt lat="52.175446" lon="4.5173426">
        <ele>2700.0</ele>
        <time>2020-09-21T10:31:53Z</time>
      </trkpt>
      <trkpt lat="52.175423" lon="4.5173497">
        <ele>2700.0</ele>
        <time>2020-09-21T10:31:54Z</time>
      </trkpt>
      <trkpt lat="52.175396" lon="4.517356">
        <ele>2700.0</ele>
        <time>2020-09-21T10:31:55Z</time>
      </trkpt>
      <trkpt lat="52.17537" lon="4.517357">
        <ele>2700.0</ele>
        <time>2020-09-21T10:31:56Z</time>
      </trkpt>
      <trkpt lat="52.17535" lon="4.517355">
        <ele>2700.0</ele>
        <time>2020-09-21T10:31:57Z</time>
      </trkpt>
      <trkpt lat="52.175323" lon="4.5173492">
        <ele>2700.0</ele>
        <time>2020-09-21T10:31:58Z</time>
      </trkpt>
      <trkpt lat="52.175304" lon="4.51734">
        <ele>2700.0</ele>
        <time>2020-09-21T10:31:59Z</time>
      </trkpt>
      <trkpt lat="52.175278" lon="4.5173297">
        <ele>2700.0</ele>
        <time>2020-09-21T10:32:00Z</time>
      </trkpt>
      <trkpt lat="52.17526" lon="4.5173197">
        <ele>2700.0</ele>
        <time>2020-09-21T10:32:01Z</time>
      </trkpt>
      <trkpt lat="52.175232" lon="4.5173106">
        <ele>2700.0</ele>
        <time>2020-09-21T10:32:02Z</time>
      </trkpt>
      <trkpt lat="52.175213" lon="4.5173025">
        <ele>2700.0</ele>
        <time>2020-09-21T10:32:03Z</time>
      </trkpt>
      <trkpt lat="52.175186" lon="4.517295">
        <ele>2700.0</ele>
        <time>2020-09-21T10:32:04Z</time>
      </trkpt>
      <trkpt lat="52.175167" lon="4.517289">
        <ele>2700.0</ele>
        <time>2020-09-21T10:32:05Z</time>
      </trkpt>
      <trkpt lat="52.175144" lon="4.5172834">
        <ele>2700.0</ele>
        <time>2020-09-21T10:32:06Z</time>
      </trkpt>
      <trkpt lat="52.17513" lon="4.5172772">
        <ele>2700.0</ele>
        <time>2020-09-21T10:32:07Z</time>
      </trkpt>
      <trkpt lat="52.175114" lon="4.5172677">
        <ele>2700.0</ele>
        <time>2020-09-21T10:32:08Z</time>
      </trkpt>
      <trkpt lat="52.175102" lon="4.517254">
        <ele>2700.0</ele>
        <time>2020-09-21T10:32:09Z</time>
      </trkpt>
      <trkpt lat="52.175087" lon="4.51724">
        <ele>2700.0</ele>
        <time>2020-09-21T10:32:10Z</time>
      </trkpt>
      <trkpt lat="52.17508" lon="4.517224">
        <ele>2700.0</ele>
        <time>2020-09-21T10:32:11Z</time>
      </trkpt>
      <trkpt lat="52.17507" lon="4.517209">
        <ele>2700.0</ele>
        <time>2020-09-21T10:32:13Z</time>
      </trkpt>
      <trkpt lat="52.175068" lon="4.517193">
        <ele>2700.0</ele>
        <time>2020-09-21T10:32:13Z</time>
      </trkpt>
      <trkpt lat="52.175056" lon="4.517176">
        <ele>2700.0</ele>
        <time>2020-09-21T10:32:14Z</time>
      </trkpt>
      <trkpt lat="52.17505" lon="4.5171585">
        <ele>2700.0</ele>
        <time>2020-09-21T10:32:15Z</time>
      </trkpt>
      <trkpt lat="52.17504" lon="4.5171404">
        <ele>2700.0</ele>
        <time>2020-09-21T10:32:16Z</time>
      </trkpt>
      <trkpt lat="52.175034" lon="4.5171204">
        <ele>2700.0</ele>
        <time>2020-09-21T10:32:17Z</time>
      </trkpt>
      <trkpt lat="52.175026" lon="4.517097">
        <ele>2700.0</ele>
        <time>2020-09-21T10:32:18Z</time>
      </trkpt>
      <trkpt lat="52.17502" lon="4.5170703">
        <ele>2700.0</ele>
        <time>2020-09-21T10:32:19Z</time>
      </trkpt>
      <trkpt lat="52.175007" lon="4.51704">
        <ele>2700.0</ele>
        <time>2020-09-21T10:32:20Z</time>
      </trkpt>
      <trkpt lat="52.174995" lon="4.517008">
        <ele>2700.0</ele>
        <time>2020-09-21T10:32:21Z</time>
      </trkpt>
      <trkpt lat="52.17498" lon="4.5169725">
        <ele>2700.0</ele>
        <time>2020-09-21T10:32:22Z</time>
      </trkpt>
      <trkpt lat="52.174965" lon="4.516936">
        <ele>2700.0</ele>
        <time>2020-09-21T10:32:23Z</time>
      </trkpt>
      <trkpt lat="52.174957" lon="4.5168967">
        <ele>2700.0</ele>
        <time>2020-09-21T10:32:24Z</time>
      </trkpt>
      <trkpt lat="52.174946" lon="4.51686">
        <ele>2700.0</ele>
        <time>2020-09-21T10:32:25Z</time>
      </trkpt>
      <trkpt lat="52.174934" lon="4.516825">
        <ele>2700.0</ele>
        <time>2020-09-21T10:32:26Z</time>
      </trkpt>
      <trkpt lat="52.17492" lon="4.5167856">
        <ele>2700.0</ele>
        <time>2020-09-21T10:32:27Z</time>
      </trkpt>
      <trkpt lat="52.174908" lon="4.5167456">
        <ele>2700.0</ele>
        <time>2020-09-21T10:32:28Z</time>
      </trkpt>
      <trkpt lat="52.174892" lon="4.5167055">
        <ele>2700.0</ele>
        <time>2020-09-21T10:32:29Z</time>
      </trkpt>
      <trkpt lat="52.174885" lon="4.516666">
        <ele>2700.0</ele>
        <time>2020-09-21T10:32:30Z</time>
      </trkpt>
      <trkpt lat="52.17487" lon="4.5166316">
        <ele>2700.0</ele>
        <time>2020-09-21T10:32:31Z</time>
      </trkpt>
      <trkpt lat="52.174854" lon="4.5165973">
        <ele>2700.0</ele>
        <time>2020-09-21T10:32:32Z</time>
      </trkpt>
      <trkpt lat="52.17483" lon="4.5165677">
        <ele>2700.0</ele>
        <time>2020-09-21T10:32:33Z</time>
      </trkpt>
      <trkpt lat="52.1748" lon="4.516543">
        <ele>2700.0</ele>
        <time>2020-09-21T10:32:34Z</time>
      </trkpt>
      <trkpt lat="52.174778" lon="4.5165215">
        <ele>2700.0</ele>
        <time>2020-09-21T10:32:35Z</time>
      </trkpt>
      <trkpt lat="52.174747" lon="4.5165033">
        <ele>2700.0</ele>
        <time>2020-09-21T10:32:36Z</time>
      </trkpt>
      <trkpt lat="52.17472" lon="4.516487">
        <ele>2700.0</ele>
        <time>2020-09-21T10:32:37Z</time>
      </trkpt>
      <trkpt lat="52.174683" lon="4.51647">
        <ele>2700.0</ele>
        <time>2020-09-21T10:32:38Z</time>
      </trkpt>
      <trkpt lat="52.174652" lon="4.516453">
        <ele>2700.0</ele>
        <time>2020-09-21T10:32:39Z</time>
      </trkpt>
      <trkpt lat="52.17462" lon="4.5164356">
        <ele>2700.0</ele>
        <time>2020-09-21T10:32:40Z</time>
      </trkpt>
      <trkpt lat="52.17459" lon="4.516417">
        <ele>2700.0</ele>
        <time>2020-09-21T10:32:41Z</time>
      </trkpt>
      <trkpt lat="52.17457" lon="4.516401">
        <ele>2700.0</ele>
        <time>2020-09-21T10:32:42Z</time>
      </trkpt>
      <trkpt lat="52.174534" lon="4.516385">
        <ele>2700.0</ele>
        <time>2020-09-21T10:32:43Z</time>
      </trkpt>
      <trkpt lat="52.1745" lon="4.516368">
        <ele>2700.0</ele>
        <time>2020-09-21T10:32:44Z</time>
      </trkpt>
      <trkpt lat="52.174473" lon="4.516351">
        <ele>2700.0</ele>
        <time>2020-09-21T10:32:45Z</time>
      </trkpt>
      <trkpt lat="52.174442" lon="4.516332">
        <ele>2700.0</ele>
        <time>2020-09-21T10:32:46Z</time>
      </trkpt>
      <trkpt lat="52.17441" lon="4.516311">
        <ele>2700.0</ele>
        <time>2020-09-21T10:32:47Z</time>
      </trkpt>
      <trkpt lat="52.174377" lon="4.5162873">
        <ele>2700.0</ele>
        <time>2020-09-21T10:32:48Z</time>
      </trkpt>
      <trkpt lat="52.17435" lon="4.5162625">
        <ele>2700.0</ele>
        <time>2020-09-21T10:32:49Z</time>
      </trkpt>
      <trkpt lat="52.17432" lon="4.5162344">
        <ele>2700.0</ele>
        <time>2020-09-21T10:32:50Z</time>
      </trkpt>
      <trkpt lat="52.174294" lon="4.516207">
        <ele>2700.0</ele>
        <time>2020-09-21T10:32:52Z</time>
      </trkpt>
      <trkpt lat="52.174263" lon="4.51618">
        <ele>2700.0</ele>
        <time>2020-09-21T10:32:52Z</time>
      </trkpt>
      <trkpt lat="52.174232" lon="4.51615">
        <ele>2700.0</ele>
        <time>2020-09-21T10:32:53Z</time>
      </trkpt>
      <trkpt lat="52.17421" lon="4.5161204">
        <ele>2700.0</ele>
        <time>2020-09-21T10:32:54Z</time>
      </trkpt>
      <trkpt lat="52.17418" lon="4.5160894">
        <ele>2700.0</ele>
        <time>2020-09-21T10:32:55Z</time>
      </trkpt>
      <trkpt lat="52.174152" lon="4.51606">
        <ele>2700.0</ele>
        <time>2020-09-21T10:32:56Z</time>
      </trkpt>
      <trkpt lat="52.17413" lon="4.516027">
        <ele>2700.0</ele>
        <time>2020-09-21T10:32:57Z</time>
      </trkpt>
      <trkpt lat="52.174107" lon="4.515988">
        <ele>2700.0</ele>
        <time>2020-09-21T10:32:58Z</time>
      </trkpt>
      <trkpt lat="52.174084" lon="4.5159473">
        <ele>2700.0</ele>
        <time>2020-09-21T10:32:59Z</time>
      </trkpt>
      <trkpt lat="52.174065" lon="4.5159063">
        <ele>2700.0</ele>
        <time>2020-09-21T10:33:00Z</time>
      </trkpt>
      <trkpt lat="52.174038" lon="4.5158653">
        <ele>2700.0</ele>
        <time>2020-09-21T10:33:02Z</time>
      </trkpt>
      <trkpt lat="52.174023" lon="4.5158253">
        <ele>2700.0</ele>
        <time>2020-09-21T10:33:02Z</time>
      </trkpt>
      <trkpt lat="52.174004" lon="4.515778">
        <ele>2700.0</ele>
        <time>2020-09-21T10:33:03Z</time>
      </trkpt>
      <trkpt lat="52.17399" lon="4.5157294">
        <ele>2700.0</ele>
        <time>2020-09-21T10:33:04Z</time>
      </trkpt>
      <trkpt lat="52.173973" lon="4.5156846">
        <ele>2700.0</ele>
        <time>2020-09-21T10:33:05Z</time>
      </trkpt>
      <trkpt lat="52.173958" lon="4.5156446">
        <ele>2700.0</ele>
        <time>2020-09-21T10:33:06Z</time>
      </trkpt>
      <trkpt lat="52.173943" lon="4.5155973">
        <ele>2700.0</ele>
        <time>2020-09-21T10:33:07Z</time>
      </trkpt>
      <trkpt lat="52.17392" lon="4.5155497">
        <ele>2700.0</ele>
        <time>2020-09-21T10:33:08Z</time>
      </trkpt>
      <trkpt lat="52.173904" lon="4.515503">
        <ele>2700.0</ele>
        <time>2020-09-21T10:33:09Z</time>
      </trkpt>
      <trkpt lat="52.17389" lon="4.5154586">
        <ele>2700.0</ele>
        <time>2020-09-21T10:33:10Z</time>
      </trkpt>
      <trkpt lat="52.17388" lon="4.515413">
        <ele>2700.0</ele>
        <time>2020-09-21T10:33:11Z</time>
      </trkpt>
      <trkpt lat="52.173866" lon="4.515362">
        <ele>2700.0</ele>
        <time>2020-09-21T10:33:13Z</time>
      </trkpt>
      <trkpt lat="52.17385" lon="4.5153093">
        <ele>2700.0</ele>
        <time>2020-09-21T10:33:13Z</time>
      </trkpt>
      <trkpt lat="52.173836" lon="4.5152597">
        <ele>2700.0</ele>
        <time>2020-09-21T10:33:14Z</time>
      </trkpt>
      <trkpt lat="52.17382" lon="4.5152116">
        <ele>2700.0</ele>
        <time>2020-09-21T10:33:15Z</time>
      </trkpt>
      <trkpt lat="52.17381" lon="4.5151634">
        <ele>2700.0</ele>
        <time>2020-09-21T10:33:16Z</time>
      </trkpt>
      <trkpt lat="52.173798" lon="4.515115">
        <ele>2700.0</ele>
        <time>2020-09-21T10:33:17Z</time>
      </trkpt>
      <trkpt lat="52.17379" lon="4.5150695">
        <ele>2700.0</ele>
        <time>2020-09-21T10:33:18Z</time>
      </trkpt>
      <trkpt lat="52.17377" lon="4.515027">
        <ele>2700.0</ele>
        <time>2020-09-21T10:33:19Z</time>
      </trkpt>
      <trkpt lat="52.173763" lon="4.51499">
        <ele>2700.0</ele>
        <time>2020-09-21T10:33:20Z</time>
      </trkpt>
      <trkpt lat="52.17375" lon="4.514955">
        <ele>2700.0</ele>
        <time>2020-09-21T10:33:21Z</time>
      </trkpt>
      <trkpt lat="52.173737" lon="4.514917">
        <ele>2700.0</ele>
        <time>2020-09-21T10:33:23Z</time>
      </trkpt>
      <trkpt lat="52.17372" lon="4.514881">
        <ele>2700.0</ele>
        <time>2020-09-21T10:33:23Z</time>
      </trkpt>
      <trkpt lat="52.173706" lon="4.514848">
        <ele>2700.0</ele>
        <time>2020-09-21T10:33:24Z</time>
      </trkpt>
      <trkpt lat="52.173695" lon="4.5148196">
        <ele>2700.0</ele>
        <time>2020-09-21T10:33:25Z</time>
      </trkpt>
      <trkpt lat="52.17368" lon="4.5147915">
        <ele>2700.0</ele>
        <time>2020-09-21T10:33:26Z</time>
      </trkpt>
      <trkpt lat="52.173664" lon="4.5147605">
        <ele>2700.0</ele>
        <time>2020-09-21T10:33:27Z</time>
      </trkpt>
      <trkpt lat="52.17365" lon="4.5147295">
        <ele>2700.0</ele>
        <time>2020-09-21T10:33:28Z</time>
      </trkpt>
      <trkpt lat="52.17364" lon="4.5146966">
        <ele>2700.0</ele>
        <time>2020-09-21T10:33:29Z</time>
      </trkpt>
      <trkpt lat="52.173626" lon="4.5146637">
        <ele>2700.0</ele>
        <time>2020-09-21T10:33:31Z</time>
      </trkpt>
      <trkpt lat="52.173615" lon="4.514627">
        <ele>2700.0</ele>
        <time>2020-09-21T10:33:31Z</time>
      </trkpt>
      <trkpt lat="52.1736" lon="4.514586">
        <ele>2700.0</ele>
        <time>2020-09-21T10:33:32Z</time>
      </trkpt>
      <trkpt lat="52.173588" lon="4.5145426">
        <ele>2700.0</ele>
        <time>2020-09-21T10:33:33Z</time>
      </trkpt>
      <trkpt lat="52.173573" lon="4.5144987">
        <ele>2700.0</ele>
        <time>2020-09-21T10:33:34Z</time>
      </trkpt>
      <trkpt lat="52.173557" lon="4.514457">
        <ele>2700.0</ele>
        <time>2020-09-21T10:33:35Z</time>
      </trkpt>
      <trkpt lat="52.173542" lon="4.51441">
        <ele>2700.0</ele>
        <time>2020-09-21T10:33:36Z</time>
      </trkpt>
      <trkpt lat="52.173527" lon="4.5143614">
        <ele>2700.0</ele>
        <time>2020-09-21T10:33:37Z</time>
      </trkpt>
      <trkpt lat="52.17351" lon="4.5143147">
        <ele>2700.0</ele>
        <time>2020-09-21T10:33:38Z</time>
      </trkpt>
      <trkpt lat="52.173496" lon="4.514269">
        <ele>2700.0</ele>
        <time>2020-09-21T10:33:39Z</time>
      </trkpt>
      <trkpt lat="52.173485" lon="4.514227">
        <ele>2700.0</ele>
        <time>2020-09-21T10:33:41Z</time>
      </trkpt>
      <trkpt lat="52.17347" lon="4.5141816">
        <ele>2700.0</ele>
        <time>2020-09-21T10:33:41Z</time>
      </trkpt>
      <trkpt lat="52.173462" lon="4.514135">
        <ele>2700.0</ele>
        <time>2020-09-21T10:33:42Z</time>
      </trkpt>
      <trkpt lat="52.17345" lon="4.514089">
        <ele>2700.0</ele>
        <time>2020-09-21T10:33:43Z</time>
      </trkpt>
      <trkpt lat="52.17344" lon="4.514048">
        <ele>2700.0</ele>
        <time>2020-09-21T10:33:44Z</time>
      </trkpt>
      <trkpt lat="52.17343" lon="4.514009">
        <ele>2700.0</ele>
        <time>2020-09-21T10:33:45Z</time>
      </trkpt>
      <trkpt lat="52.173416" lon="4.5139675">
        <ele>2700.0</ele>
        <time>2020-09-21T10:33:46Z</time>
      </trkpt>
      <trkpt lat="52.1734" lon="4.5139256">
        <ele>2700.0</ele>
        <time>2020-09-21T10:33:47Z</time>
      </trkpt>
      <trkpt lat="52.17339" lon="4.5138855">
        <ele>2700.0</ele>
        <time>2020-09-21T10:33:48Z</time>
      </trkpt>
      <trkpt lat="52.173374" lon="4.5138474">
        <ele>2700.0</ele>
        <time>2020-09-21T10:33:49Z</time>
      </trkpt>
      <trkpt lat="52.173363" lon="4.5138083">
        <ele>2700.0</ele>
        <time>2020-09-21T10:33:50Z</time>
      </trkpt>
      <trkpt lat="52.173347" lon="4.513764">
        <ele>2700.0</ele>
        <time>2020-09-21T10:33:51Z</time>
      </trkpt>
      <trkpt lat="52.173336" lon="4.5137124">
        <ele>2700.0</ele>
        <time>2020-09-21T10:33:52Z</time>
      </trkpt>
      <trkpt lat="52.17333" lon="4.513661">
        <ele>2700.0</ele>
        <time>2020-09-21T10:33:53Z</time>
      </trkpt>
      <trkpt lat="52.173317" lon="4.5136104">
        <ele>2700.0</ele>
        <time>2020-09-21T10:33:54Z</time>
      </trkpt>
      <trkpt lat="52.173306" lon="4.5135617">
        <ele>2700.0</ele>
        <time>2020-09-21T10:33:55Z</time>
      </trkpt>
      <trkpt lat="52.173298" lon="4.5135126">
        <ele>2700.0</ele>
        <time>2020-09-21T10:33:56Z</time>
      </trkpt>
      <trkpt lat="52.173286" lon="4.5134673">
        <ele>2700.0</ele>
        <time>2020-09-21T10:33:57Z</time>
      </trkpt>
      <trkpt lat="52.173275" lon="4.5134273">
        <ele>2700.0</ele>
        <time>2020-09-21T10:33:58Z</time>
      </trkpt>
      <trkpt lat="52.17326" lon="4.513394">
        <ele>2700.0</ele>
        <time>2020-09-21T10:33:59Z</time>
      </trkpt>
      <trkpt lat="52.173244" lon="4.5133657">
        <ele>2700.0</ele>
        <time>2020-09-21T10:34:00Z</time>
      </trkpt>
      <trkpt lat="52.17323" lon="4.513348">
        <ele>2700.0</ele>
        <time>2020-09-21T10:34:02Z</time>
      </trkpt>
      <trkpt lat="52.17321" lon="4.5133305">
        <ele>2700.0</ele>
        <time>2020-09-21T10:34:02Z</time>
      </trkpt>
      <trkpt lat="52.173195" lon="4.513314">
        <ele>2700.0</ele>
        <time>2020-09-21T10:34:03Z</time>
      </trkpt>
      <trkpt lat="52.173172" lon="4.5132995">
        <ele>2700.0</ele>
        <time>2020-09-21T10:34:04Z</time>
      </trkpt>
      <trkpt lat="52.17315" lon="4.5132914">
        <ele>2700.0</ele>
        <time>2020-09-21T10:34:05Z</time>
      </trkpt>
      <trkpt lat="52.173122" lon="4.5132895">
        <ele>2700.0</ele>
        <time>2020-09-21T10:34:06Z</time>
      </trkpt>
      <trkpt lat="52.173096" lon="4.513292">
        <ele>2700.0</ele>
        <time>2020-09-21T10:34:07Z</time>
      </trkpt>
      <trkpt lat="52.173073" lon="4.513298">
        <ele>2700.0</ele>
        <time>2020-09-21T10:34:08Z</time>
      </trkpt>
      <trkpt lat="52.173046" lon="4.513305">
        <ele>2700.0</ele>
        <time>2020-09-21T10:34:09Z</time>
      </trkpt>
      <trkpt lat="52.17302" lon="4.513314">
        <ele>2700.0</ele>
        <time>2020-09-21T10:34:10Z</time>
      </trkpt>
      <trkpt lat="52.172993" lon="4.513324">
        <ele>2700.0</ele>
        <time>2020-09-21T10:34:11Z</time>
      </trkpt>
      <trkpt lat="52.172962" lon="4.513333">
        <ele>2700.0</ele>
        <time>2020-09-21T10:34:12Z</time>
      </trkpt>
      <trkpt lat="52.17294" lon="4.5133395">
        <ele>2700.0</ele>
        <time>2020-09-21T10:34:13Z</time>
      </trkpt>
      <trkpt lat="52.17291" lon="4.513344">
        <ele>2700.0</ele>
        <time>2020-09-21T10:34:14Z</time>
      </trkpt>
      <trkpt lat="52.172882" lon="4.513346">
        <ele>2700.0</ele>
        <time>2020-09-21T10:34:15Z</time>
      </trkpt>
      <trkpt lat="52.17285" lon="4.5133476">
        <ele>2700.0</ele>
        <time>2020-09-21T10:34:16Z</time>
      </trkpt>
      <trkpt lat="52.172825" lon="4.513347">
        <ele>2700.0</ele>
        <time>2020-09-21T10:34:17Z</time>
      </trkpt>
      <trkpt lat="52.172794" lon="4.5133457">
        <ele>2700.0</ele>
        <time>2020-09-21T10:34:18Z</time>
      </trkpt>
      <trkpt lat="52.172768" lon="4.513345">
        <ele>2700.0</ele>
        <time>2020-09-21T10:34:19Z</time>
      </trkpt>
      <trkpt lat="52.172745" lon="4.5133424">
        <ele>2700.0</ele>
        <time>2020-09-21T10:34:20Z</time>
      </trkpt>
      <trkpt lat="52.172707" lon="4.513338">
        <ele>2700.0</ele>
        <time>2020-09-21T10:34:21Z</time>
      </trkpt>
      <trkpt lat="52.172676" lon="4.513332">
        <ele>2700.0</ele>
        <time>2020-09-21T10:34:23Z</time>
      </trkpt>
      <trkpt lat="52.172646" lon="4.513325">
        <ele>2700.0</ele>
        <time>2020-09-21T10:34:23Z</time>
      </trkpt>
      <trkpt lat="52.17261" lon="4.5133185">
        <ele>2700.0</ele>
        <time>2020-09-21T10:34:24Z</time>
      </trkpt>
      <trkpt lat="52.17258" lon="4.5133114">
        <ele>2700.0</ele>
        <time>2020-09-21T10:34:25Z</time>
      </trkpt>
      <trkpt lat="52.17255" lon="4.513301">
        <ele>2700.0</ele>
        <time>2020-09-21T10:34:26Z</time>
      </trkpt>
      <trkpt lat="52.17252" lon="4.5132904">
        <ele>2700.0</ele>
        <time>2020-09-21T10:34:27Z</time>
      </trkpt>
      <trkpt lat="52.17249" lon="4.513279">
        <ele>2700.0</ele>
        <time>2020-09-21T10:34:28Z</time>
      </trkpt>
      <trkpt lat="52.17246" lon="4.513264">
        <ele>2700.0</ele>
        <time>2020-09-21T10:34:29Z</time>
      </trkpt>
      <trkpt lat="52.17243" lon="4.5132484">
        <ele>2700.0</ele>
        <time>2020-09-21T10:34:30Z</time>
      </trkpt>
      <trkpt lat="52.1724" lon="4.513237">
        <ele>2700.0</ele>
        <time>2020-09-21T10:34:31Z</time>
      </trkpt>
      <trkpt lat="52.17237" lon="4.5132246">
        <ele>2700.0</ele>
        <time>2020-09-21T10:34:32Z</time>
      </trkpt>
      <trkpt lat="52.172344" lon="4.513212">
        <ele>2700.0</ele>
        <time>2020-09-21T10:34:33Z</time>
      </trkpt>
      <trkpt lat="52.172314" lon="4.513195">
        <ele>2700.0</ele>
        <time>2020-09-21T10:34:34Z</time>
      </trkpt>
      <trkpt lat="52.172283" lon="4.5131803">
        <ele>2700.0</ele>
        <time>2020-09-21T10:34:35Z</time>
      </trkpt>
      <trkpt lat="52.172253" lon="4.5131674">
        <ele>2700.0</ele>
        <time>2020-09-21T10:34:36Z</time>
      </trkpt>
      <trkpt lat="52.172215" lon="4.513158">
        <ele>2700.0</ele>
        <time>2020-09-21T10:34:37Z</time>
      </trkpt>
      <trkpt lat="52.17219" lon="4.513153">
        <ele>2700.0</ele>
        <time>2020-09-21T10:34:38Z</time>
      </trkpt>
      <trkpt lat="52.17216" lon="4.5131507">
        <ele>2700.0</ele>
        <time>2020-09-21T10:34:39Z</time>
      </trkpt>
      <trkpt lat="52.17213" lon="4.513149">
        <ele>2700.0</ele>
        <time>2020-09-21T10:34:41Z</time>
      </trkpt>
      <trkpt lat="52.172104" lon="4.51315">
        <ele>2700.0</ele>
        <time>2020-09-21T10:34:41Z</time>
      </trkpt>
      <trkpt lat="52.172073" lon="4.5131555">
        <ele>2700.0</ele>
        <time>2020-09-21T10:34:42Z</time>
      </trkpt>
      <trkpt lat="52.172047" lon="4.5131636">
        <ele>2700.0</ele>
        <time>2020-09-21T10:34:43Z</time>
      </trkpt>
      <trkpt lat="52.172016" lon="4.5131726">
        <ele>2700.0</ele>
        <time>2020-09-21T10:34:44Z</time>
      </trkpt>
      <trkpt lat="52.171986" lon="4.513179">
        <ele>2700.0</ele>
        <time>2020-09-21T10:34:45Z</time>
      </trkpt>
      <trkpt lat="52.171955" lon="4.5131817">
        <ele>2700.0</ele>
        <time>2020-09-21T10:34:46Z</time>
      </trkpt>
      <trkpt lat="52.171925" lon="4.5131836">
        <ele>2700.0</ele>
        <time>2020-09-21T10:34:47Z</time>
      </trkpt>
      <trkpt lat="52.171898" lon="4.5131874">
        <ele>2700.0</ele>
        <time>2020-09-21T10:34:48Z</time>
      </trkpt>
      <trkpt lat="52.171867" lon="4.5131907">
        <ele>2700.0</ele>
        <time>2020-09-21T10:34:49Z</time>
      </trkpt>
      <trkpt lat="52.171837" lon="4.513196">
        <ele>2700.0</ele>
        <time>2020-09-21T10:34:51Z</time>
      </trkpt>
      <trkpt lat="52.171806" lon="4.513203">
        <ele>2700.0</ele>
        <time>2020-09-21T10:34:51Z</time>
      </trkpt>
      <trkpt lat="52.17178" lon="4.5132136">
        <ele>2700.0</ele>
        <time>2020-09-21T10:34:52Z</time>
      </trkpt>
      <trkpt lat="52.171757" lon="4.513225">
        <ele>2700.0</ele>
        <time>2020-09-21T10:34:53Z</time>
      </trkpt>
      <trkpt lat="52.171734" lon="4.513241">
        <ele>2700.0</ele>
        <time>2020-09-21T10:34:54Z</time>
      </trkpt>
      <trkpt lat="52.171715" lon="4.513261">
        <ele>2700.0</ele>
        <time>2020-09-21T10:34:55Z</time>
      </trkpt>
      <trkpt lat="52.171696" lon="4.513282">
        <ele>2700.0</ele>
        <time>2020-09-21T10:34:56Z</time>
      </trkpt>
      <trkpt lat="52.171673" lon="4.513305">
        <ele>2700.0</ele>
        <time>2020-09-21T10:34:57Z</time>
      </trkpt>
      <trkpt lat="52.171654" lon="4.5133286">
        <ele>2800.0</ele>
        <time>2020-09-21T10:34:58Z</time>
      </trkpt>
      <trkpt lat="52.17164" lon="4.513352">
        <ele>2800.0</ele>
        <time>2020-09-21T10:34:59Z</time>
      </trkpt>
      <trkpt lat="52.17161" lon="4.5133767">
        <ele>2800.0</ele>
        <time>2020-09-21T10:35:00Z</time>
      </trkpt>
      <trkpt lat="52.171593" lon="4.5133977">
        <ele>2800.0</ele>
        <time>2020-09-21T10:35:02Z</time>
      </trkpt>
      <trkpt lat="52.171566" lon="4.5134206">
        <ele>2800.0</ele>
        <time>2020-09-21T10:35:02Z</time>
      </trkpt>
      <trkpt lat="52.17155" lon="4.513446">
        <ele>2800.0</ele>
        <time>2020-09-21T10:35:03Z</time>
      </trkpt>
      <trkpt lat="52.17153" lon="4.5134764">
        <ele>2800.0</ele>
        <time>2020-09-21T10:35:04Z</time>
      </trkpt>
      <trkpt lat="52.17152" lon="4.513516">
        <ele>2800.0</ele>
        <time>2020-09-21T10:35:05Z</time>
      </trkpt>
      <trkpt lat="52.17151" lon="4.5135584">
        <ele>2800.0</ele>
        <time>2020-09-21T10:35:06Z</time>
      </trkpt>
      <trkpt lat="52.171505" lon="4.513603">
        <ele>2800.0</ele>
        <time>2020-09-21T10:35:07Z</time>
      </trkpt>
      <trkpt lat="52.1715" lon="4.5136485">
        <ele>2800.0</ele>
        <time>2020-09-21T10:35:08Z</time>
      </trkpt>
      <trkpt lat="52.171494" lon="4.513694">
        <ele>2800.0</ele>
        <time>2020-09-21T10:35:09Z</time>
      </trkpt>
      <trkpt lat="52.171494" lon="4.5137377">
        <ele>2800.0</ele>
        <time>2020-09-21T10:35:10Z</time>
      </trkpt>
      <trkpt lat="52.171494" lon="4.513782">
        <ele>2800.0</ele>
        <time>2020-09-21T10:35:11Z</time>
      </trkpt>
      <trkpt lat="52.17149" lon="4.5138245">
        <ele>2800.0</ele>
        <time>2020-09-21T10:35:12Z</time>
      </trkpt>
      <trkpt lat="52.171486" lon="4.513861">
        <ele>2800.0</ele>
        <time>2020-09-21T10:35:13Z</time>
      </trkpt>
      <trkpt lat="52.171474" lon="4.5138955">
        <ele>2800.0</ele>
        <time>2020-09-21T10:35:14Z</time>
      </trkpt>
      <trkpt lat="52.17147" lon="4.513933">
        <ele>2800.0</ele>
        <time>2020-09-21T10:35:15Z</time>
      </trkpt>
      <trkpt lat="52.171463" lon="4.51397">
        <ele>2800.0</ele>
        <time>2020-09-21T10:35:16Z</time>
      </trkpt>
      <trkpt lat="52.17146" lon="4.5140095">
        <ele>2800.0</ele>
        <time>2020-09-21T10:35:17Z</time>
      </trkpt>
      <trkpt lat="52.17145" lon="4.514046">
        <ele>2800.0</ele>
        <time>2020-09-21T10:35:18Z</time>
      </trkpt>
      <trkpt lat="52.17145" lon="4.514086">
        <ele>2800.0</ele>
        <time>2020-09-21T10:35:19Z</time>
      </trkpt>
      <trkpt lat="52.17145" lon="4.5141273">
        <ele>2800.0</ele>
        <time>2020-09-21T10:35:20Z</time>
      </trkpt>
      <trkpt lat="52.17145" lon="4.5141706">
        <ele>2800.0</ele>
        <time>2020-09-21T10:35:21Z</time>
      </trkpt>
      <trkpt lat="52.171448" lon="4.5142136">
        <ele>2800.0</ele>
        <time>2020-09-21T10:35:23Z</time>
      </trkpt>
      <trkpt lat="52.171444" lon="4.5142508">
        <ele>2800.0</ele>
        <time>2020-09-21T10:35:23Z</time>
      </trkpt>
      <trkpt lat="52.171436" lon="4.514281">
        <ele>2800.0</ele>
        <time>2020-09-21T10:35:24Z</time>
      </trkpt>
      <trkpt lat="52.171432" lon="4.514311">
        <ele>2800.0</ele>
        <time>2020-09-21T10:35:25Z</time>
      </trkpt>
      <trkpt lat="52.17143" lon="4.514337">
        <ele>2800.0</ele>
        <time>2020-09-21T10:35:26Z</time>
      </trkpt>
      <trkpt lat="52.17143" lon="4.5143576">
        <ele>2800.0</ele>
        <time>2020-09-21T10:35:26Z</time>
      </trkpt>
      <trkpt lat="52.171432" lon="4.5143676">
        <ele>2800.0</ele>
        <time>2020-09-21T10:35:27Z</time>
      </trkpt>
      <trkpt lat="52.171432" lon="4.5143666">
        <ele>2800.0</ele>
        <time>2020-09-21T10:35:28Z</time>
      </trkpt>
      <trkpt lat="52.171444" lon="4.5143566">
        <ele>2800.0</ele>
        <time>2020-09-21T10:35:29Z</time>
      </trkpt>
      <trkpt lat="52.171444" lon="4.514339">
        <ele>2800.0</ele>
        <time>2020-09-21T10:35:30Z</time>
      </trkpt>
      <trkpt lat="52.171448" lon="4.514315">
        <ele>2800.0</ele>
        <time>2020-09-21T10:35:31Z</time>
      </trkpt>
      <trkpt lat="52.171448" lon="4.5142856">
        <ele>2800.0</ele>
        <time>2020-09-21T10:35:32Z</time>
      </trkpt>
      <trkpt lat="52.171448" lon="4.5142517">
        <ele>2800.0</ele>
        <time>2020-09-21T10:35:33Z</time>
      </trkpt>
      <trkpt lat="52.171444" lon="4.5142155">
        <ele>2800.0</ele>
        <time>2020-09-21T10:35:34Z</time>
      </trkpt>
      <trkpt lat="52.171444" lon="4.5141764">
        <ele>2800.0</ele>
        <time>2020-09-21T10:35:35Z</time>
      </trkpt>
      <trkpt lat="52.171444" lon="4.5141387">
        <ele>2800.0</ele>
        <time>2020-09-21T10:35:36Z</time>
      </trkpt>
      <trkpt lat="52.171444" lon="4.514101">
        <ele>2800.0</ele>
        <time>2020-09-21T10:35:37Z</time>
      </trkpt>
      <trkpt lat="52.171444" lon="4.5140643">
        <ele>2800.0</ele>
        <time>2020-09-21T10:35:38Z</time>
      </trkpt>
      <trkpt lat="52.171448" lon="4.51403">
        <ele>2800.0</ele>
        <time>2020-09-21T10:35:39Z</time>
      </trkpt>
      <trkpt lat="52.17145" lon="4.5139976">
        <ele>2800.0</ele>
        <time>2020-09-21T10:35:40Z</time>
      </trkpt>
      <trkpt lat="52.17145" lon="4.5139666">
        <ele>2800.0</ele>
        <time>2020-09-21T10:35:41Z</time>
      </trkpt>
      <trkpt lat="52.17146" lon="4.5139346">
        <ele>2800.0</ele>
        <time>2020-09-21T10:35:42Z</time>
      </trkpt>
      <trkpt lat="52.17146" lon="4.513902">
        <ele>2800.0</ele>
        <time>2020-09-21T10:35:43Z</time>
      </trkpt>
      <trkpt lat="52.171463" lon="4.5138693">
        <ele>2800.0</ele>
        <time>2020-09-21T10:35:44Z</time>
      </trkpt>
      <trkpt lat="52.171463" lon="4.513835">
        <ele>2800.0</ele>
        <time>2020-09-21T10:35:45Z</time>
      </trkpt>
      <trkpt lat="52.171463" lon="4.513799">
        <ele>2800.0</ele>
        <time>2020-09-21T10:35:46Z</time>
      </trkpt>
      <trkpt lat="52.17147" lon="4.5137634">
        <ele>2800.0</ele>
        <time>2020-09-21T10:35:47Z</time>
      </trkpt>
      <trkpt lat="52.17147" lon="4.5137253">
        <ele>2800.0</ele>
        <time>2020-09-21T10:35:48Z</time>
      </trkpt>
      <trkpt lat="52.171474" lon="4.5136847">
        <ele>2800.0</ele>
        <time>2020-09-21T10:35:50Z</time>
      </trkpt>
      <trkpt lat="52.17148" lon="4.513642">
        <ele>2800.0</ele>
        <time>2020-09-21T10:35:50Z</time>
      </trkpt>
      <trkpt lat="52.171486" lon="4.513601">
        <ele>2800.0</ele>
        <time>2020-09-21T10:35:51Z</time>
      </trkpt>
      <trkpt lat="52.17149" lon="4.5135617">
        <ele>2800.0</ele>
        <time>2020-09-21T10:35:52Z</time>
      </trkpt>
      <trkpt lat="52.1715" lon="4.513524">
        <ele>2800.0</ele>
        <time>2020-09-21T10:35:53Z</time>
      </trkpt>
      <trkpt lat="52.17151" lon="4.513489">
        <ele>2800.0</ele>
        <time>2020-09-21T10:35:54Z</time>
      </trkpt>
      <trkpt lat="52.171524" lon="4.5134573">
        <ele>2800.0</ele>
        <time>2020-09-21T10:35:55Z</time>
      </trkpt>
      <trkpt lat="52.17154" lon="4.5134287">
        <ele>2800.0</ele>
        <time>2020-09-21T10:35:56Z</time>
      </trkpt>
      <trkpt lat="52.171562" lon="4.513399">
        <ele>2800.0</ele>
        <time>2020-09-21T10:35:57Z</time>
      </trkpt>
      <trkpt lat="52.171577" lon="4.513369">
        <ele>2800.0</ele>
        <time>2020-09-21T10:35:58Z</time>
      </trkpt>
      <trkpt lat="52.171593" lon="4.5133386">
        <ele>2800.0</ele>
        <time>2020-09-21T10:35:59Z</time>
      </trkpt>
      <trkpt lat="52.17161" lon="4.5133038">
        <ele>2800.0</ele>
        <time>2020-09-21T10:36:00Z</time>
      </trkpt>
      <trkpt lat="52.171627" lon="4.513264">
        <ele>2800.0</ele>
        <time>2020-09-21T10:36:01Z</time>
      </trkpt>
      <trkpt lat="52.171642" lon="4.5132194">
        <ele>2800.0</ele>
        <time>2020-09-21T10:36:02Z</time>
      </trkpt>
      <trkpt lat="52.171658" lon="4.5131707">
        <ele>2800.0</ele>
        <time>2020-09-21T10:36:03Z</time>
      </trkpt>
      <trkpt lat="52.17167" lon="4.5131173">
        <ele>2800.0</ele>
        <time>2020-09-21T10:36:04Z</time>
      </trkpt>
      <trkpt lat="52.171673" lon="4.5130625">
        <ele>2800.0</ele>
        <time>2020-09-21T10:36:05Z</time>
      </trkpt>
      <trkpt lat="52.171684" lon="4.5130053">
        <ele>2800.0</ele>
        <time>2020-09-21T10:36:06Z</time>
      </trkpt>
      <trkpt lat="52.171684" lon="4.512945">
        <ele>2800.0</ele>
        <time>2020-09-21T10:36:07Z</time>
      </trkpt>
      <trkpt lat="52.171688" lon="4.512883">
        <ele>2800.0</ele>
        <time>2020-09-21T10:36:08Z</time>
      </trkpt>
      <trkpt lat="52.171688" lon="4.512821">
        <ele>2800.0</ele>
        <time>2020-09-21T10:36:09Z</time>
      </trkpt>
      <trkpt lat="52.171688" lon="4.512759">
        <ele>2800.0</ele>
        <time>2020-09-21T10:36:11Z</time>
      </trkpt>
      <trkpt lat="52.171688" lon="4.512701">
        <ele>2800.0</ele>
        <time>2020-09-21T10:36:11Z</time>
      </trkpt>
      <trkpt lat="52.171684" lon="4.5126443">
        <ele>2800.0</ele>
        <time>2020-09-21T10:36:12Z</time>
      </trkpt>
      <trkpt lat="52.17168" lon="4.512589">
        <ele>2800.0</ele>
        <time>2020-09-21T10:36:13Z</time>
      </trkpt>
      <trkpt lat="52.17168" lon="4.512534">
        <ele>2800.0</ele>
        <time>2020-09-21T10:36:14Z</time>
      </trkpt>
      <trkpt lat="52.171673" lon="4.5124807">
        <ele>2800.0</ele>
        <time>2020-09-21T10:36:15Z</time>
      </trkpt>
      <trkpt lat="52.17167" lon="4.5124307">
        <ele>2800.0</ele>
        <time>2020-09-21T10:36:16Z</time>
      </trkpt>
      <trkpt lat="52.17167" lon="4.512382">
        <ele>2800.0</ele>
        <time>2020-09-21T10:36:17Z</time>
      </trkpt>
      <trkpt lat="52.171658" lon="4.5123353">
        <ele>2800.0</ele>
        <time>2020-09-21T10:36:18Z</time>
      </trkpt>
      <trkpt lat="52.171654" lon="4.5122905">
        <ele>2800.0</ele>
        <time>2020-09-21T10:36:19Z</time>
      </trkpt>
      <trkpt lat="52.171654" lon="4.5122457">
        <ele>2800.0</ele>
        <time>2020-09-21T10:36:20Z</time>
      </trkpt>
      <trkpt lat="52.171646" lon="4.512201">
        <ele>2800.0</ele>
        <time>2020-09-21T10:36:21Z</time>
      </trkpt>
      <trkpt lat="52.171646" lon="4.512157">
        <ele>2800.0</ele>
        <time>2020-09-21T10:36:22Z</time>
      </trkpt>
      <trkpt lat="52.171646" lon="4.5121145">
        <ele>2800.0</ele>
        <time>2020-09-21T10:36:23Z</time>
      </trkpt>
      <trkpt lat="52.171646" lon="4.5120735">
        <ele>2800.0</ele>
        <time>2020-09-21T10:36:25Z</time>
      </trkpt>
      <trkpt lat="52.171646" lon="4.5120335">
        <ele>2800.0</ele>
        <time>2020-09-21T10:36:25Z</time>
      </trkpt>
      <trkpt lat="52.171654" lon="4.511994">
        <ele>2800.0</ele>
        <time>2020-09-21T10:36:26Z</time>
      </trkpt>
      <trkpt lat="52.171658" lon="4.5119557">
        <ele>2800.0</ele>
        <time>2020-09-21T10:36:27Z</time>
      </trkpt>
      <trkpt lat="52.17167" lon="4.5119195">
        <ele>2800.0</ele>
        <time>2020-09-21T10:36:28Z</time>
      </trkpt>
      <trkpt lat="52.17168" lon="4.511883">
        <ele>2800.0</ele>
        <time>2020-09-21T10:36:29Z</time>
      </trkpt>
      <trkpt lat="52.171688" lon="4.511844">
        <ele>2800.0</ele>
        <time>2020-09-21T10:36:30Z</time>
      </trkpt>
      <trkpt lat="52.171696" lon="4.511805">
        <ele>2800.0</ele>
        <time>2020-09-21T10:36:31Z</time>
      </trkpt>
      <trkpt lat="52.1717" lon="4.511765">
        <ele>2800.0</ele>
        <time>2020-09-21T10:36:32Z</time>
      </trkpt>
      <trkpt lat="52.171703" lon="4.5117245">
        <ele>2800.0</ele>
        <time>2020-09-21T10:36:33Z</time>
      </trkpt>
      <trkpt lat="52.171703" lon="4.5116825">
        <ele>2800.0</ele>
        <time>2020-09-21T10:36:34Z</time>
      </trkpt>
      <trkpt lat="52.17171" lon="4.5116386">
        <ele>2800.0</ele>
        <time>2020-09-21T10:36:35Z</time>
      </trkpt>
      <trkpt lat="52.17171" lon="4.511593">
        <ele>2800.0</ele>
        <time>2020-09-21T10:36:36Z</time>
      </trkpt>
      <trkpt lat="52.17171" lon="4.5115476">
        <ele>2800.0</ele>
        <time>2020-09-21T10:36:37Z</time>
      </trkpt>
      <trkpt lat="52.17171" lon="4.5115013">
        <ele>2800.0</ele>
        <time>2020-09-21T10:36:38Z</time>
      </trkpt>
      <trkpt lat="52.17171" lon="4.511454">
        <ele>2800.0</ele>
        <time>2020-09-21T10:36:39Z</time>
      </trkpt>
      <trkpt lat="52.17171" lon="4.511406">
        <ele>2800.0</ele>
        <time>2020-09-21T10:36:40Z</time>
      </trkpt>
      <trkpt lat="52.17171" lon="4.5113573">
        <ele>2800.0</ele>
        <time>2020-09-21T10:36:41Z</time>
      </trkpt>
      <trkpt lat="52.17171" lon="4.5113087">
        <ele>2800.0</ele>
        <time>2020-09-21T10:36:43Z</time>
      </trkpt>
      <trkpt lat="52.17171" lon="4.511262">
        <ele>2800.0</ele>
        <time>2020-09-21T10:36:43Z</time>
      </trkpt>
      <trkpt lat="52.171703" lon="4.5112166">
        <ele>2800.0</ele>
        <time>2020-09-21T10:36:44Z</time>
      </trkpt>
      <trkpt lat="52.171703" lon="4.5111713">
        <ele>2800.0</ele>
        <time>2020-09-21T10:36:45Z</time>
      </trkpt>
      <trkpt lat="52.171703" lon="4.511127">
        <ele>2800.0</ele>
        <time>2020-09-21T10:36:46Z</time>
      </trkpt>
      <trkpt lat="52.1717" lon="4.511088">
        <ele>2800.0</ele>
        <time>2020-09-21T10:36:47Z</time>
      </trkpt>
      <trkpt lat="52.1717" lon="4.5110545">
        <ele>2800.0</ele>
        <time>2020-09-21T10:36:48Z</time>
      </trkpt>
      <trkpt lat="52.171696" lon="4.5110216">
        <ele>2800.0</ele>
        <time>2020-09-21T10:36:49Z</time>
      </trkpt>
      <trkpt lat="52.171688" lon="4.5109873">
        <ele>2800.0</ele>
        <time>2020-09-21T10:36:50Z</time>
      </trkpt>
      <trkpt lat="52.171684" lon="4.5109544">
        <ele>2800.0</ele>
        <time>2020-09-21T10:36:51Z</time>
      </trkpt>
      <trkpt lat="52.171673" lon="4.5109224">
        <ele>2800.0</ele>
        <time>2020-09-21T10:36:53Z</time>
      </trkpt>
      <trkpt lat="52.17167" lon="4.510891">
        <ele>2800.0</ele>
        <time>2020-09-21T10:36:53Z</time>
      </trkpt>
      <trkpt lat="52.171658" lon="4.5108633">
        <ele>2800.0</ele>
        <time>2020-09-21T10:36:54Z</time>
      </trkpt>
      <trkpt lat="52.171646" lon="4.510838">
        <ele>2800.0</ele>
        <time>2020-09-21T10:36:55Z</time>
      </trkpt>
      <trkpt lat="52.17164" lon="4.5108123">
        <ele>2800.0</ele>
        <time>2020-09-21T10:36:56Z</time>
      </trkpt>
      <trkpt lat="52.17163" lon="4.510783">
        <ele>2800.0</ele>
        <time>2020-09-21T10:36:57Z</time>
      </trkpt>
      <trkpt lat="52.171627" lon="4.5107512">
        <ele>2800.0</ele>
        <time>2020-09-21T10:36:58Z</time>
      </trkpt>
      <trkpt lat="52.171623" lon="4.510718">
        <ele>2800.0</ele>
        <time>2020-09-21T10:36:59Z</time>
      </trkpt>
      <trkpt lat="52.17161" lon="4.510683">
        <ele>2800.0</ele>
        <time>2020-09-21T10:37:00Z</time>
      </trkpt>
      <trkpt lat="52.171608" lon="4.510645">
        <ele>2800.0</ele>
        <time>2020-09-21T10:37:01Z</time>
      </trkpt>
      <trkpt lat="52.1716" lon="4.510607">
        <ele>2800.0</ele>
        <time>2020-09-21T10:37:02Z</time>
      </trkpt>
      <trkpt lat="52.171597" lon="4.510568">
        <ele>2800.0</ele>
        <time>2020-09-21T10:37:03Z</time>
      </trkpt>
      <trkpt lat="52.171593" lon="4.510529">
        <ele>2800.0</ele>
        <time>2020-09-21T10:37:04Z</time>
      </trkpt>
      <trkpt lat="52.17158" lon="4.5104904">
        <ele>2800.0</ele>
        <time>2020-09-21T10:37:05Z</time>
      </trkpt>
      <trkpt lat="52.17157" lon="4.5104513">
        <ele>2800.0</ele>
        <time>2020-09-21T10:37:06Z</time>
      </trkpt>
      <trkpt lat="52.171562" lon="4.510412">
        <ele>2800.0</ele>
        <time>2020-09-21T10:37:07Z</time>
      </trkpt>
      <trkpt lat="52.17155" lon="4.5103765">
        <ele>2800.0</ele>
        <time>2020-09-21T10:37:08Z</time>
      </trkpt>
      <trkpt lat="52.17154" lon="4.510344">
        <ele>2800.0</ele>
        <time>2020-09-21T10:37:09Z</time>
      </trkpt>
      <trkpt lat="52.17153" lon="4.5103216">
        <ele>2800.0</ele>
        <time>2020-09-21T10:37:10Z</time>
      </trkpt>
      <trkpt lat="52.17152" lon="4.5103073">
        <ele>2800.0</ele>
        <time>2020-09-21T10:37:11Z</time>
      </trkpt>
      <trkpt lat="52.171505" lon="4.5102997">
        <ele>2800.0</ele>
        <time>2020-09-21T10:37:12Z</time>
      </trkpt>
      <trkpt lat="52.17149" lon="4.5102935">
        <ele>2800.0</ele>
        <time>2020-09-21T10:37:14Z</time>
      </trkpt>
      <trkpt lat="52.171474" lon="4.5102882">
        <ele>2800.0</ele>
        <time>2020-09-21T10:37:14Z</time>
      </trkpt>
      <trkpt lat="52.17145" lon="4.510285">
        <ele>2800.0</ele>
        <time>2020-09-21T10:37:15Z</time>
      </trkpt>
      <trkpt lat="52.171432" lon="4.510284">
        <ele>2800.0</ele>
        <time>2020-09-21T10:37:16Z</time>
      </trkpt>
      <trkpt lat="52.171406" lon="4.510283">
        <ele>2800.0</ele>
        <time>2020-09-21T10:37:17Z</time>
      </trkpt>
      <trkpt lat="52.171383" lon="4.510281">
        <ele>2800.0</ele>
        <time>2020-09-21T10:37:18Z</time>
      </trkpt>
      <trkpt lat="52.171356" lon="4.510277">
        <ele>2800.0</ele>
        <time>2020-09-21T10:37:19Z</time>
      </trkpt>
      <trkpt lat="52.171326" lon="4.510273">
        <ele>2800.0</ele>
        <time>2020-09-21T10:37:20Z</time>
      </trkpt>
      <trkpt lat="52.1713" lon="4.5102715">
        <ele>2800.0</ele>
        <time>2020-09-21T10:37:21Z</time>
      </trkpt>
      <trkpt lat="52.171265" lon="4.5102744">
        <ele>2800.0</ele>
        <time>2020-09-21T10:37:22Z</time>
      </trkpt>
      <trkpt lat="52.171234" lon="4.510278">
        <ele>2800.0</ele>
        <time>2020-09-21T10:37:23Z</time>
      </trkpt>
      <trkpt lat="52.171204" lon="4.510282">
        <ele>2800.0</ele>
        <time>2020-09-21T10:37:25Z</time>
      </trkpt>
      <trkpt lat="52.171173" lon="4.5102844">
        <ele>2800.0</ele>
        <time>2020-09-21T10:37:25Z</time>
      </trkpt>
      <trkpt lat="52.171135" lon="4.5102882">
        <ele>2800.0</ele>
        <time>2020-09-21T10:37:26Z</time>
      </trkpt>
      <trkpt lat="52.171104" lon="4.510291">
        <ele>2800.0</ele>
        <time>2020-09-21T10:37:27Z</time>
      </trkpt>
      <trkpt lat="52.17107" lon="4.5102925">
        <ele>2800.0</ele>
        <time>2020-09-21T10:37:28Z</time>
      </trkpt>
      <trkpt lat="52.171032" lon="4.510293">
        <ele>2800.0</ele>
        <time>2020-09-21T10:37:29Z</time>
      </trkpt>
      <trkpt lat="52.170994" lon="4.5102944">
        <ele>2800.0</ele>
        <time>2020-09-21T10:37:30Z</time>
      </trkpt>
      <trkpt lat="52.17095" lon="4.510295">
        <ele>2800.0</ele>
        <time>2020-09-21T10:37:32Z</time>
      </trkpt>
      <trkpt lat="52.17091" lon="4.510298">
        <ele>2800.0</ele>
        <time>2020-09-21T10:37:32Z</time>
      </trkpt>
      <trkpt lat="52.170864" lon="4.510301">
        <ele>2800.0</ele>
        <time>2020-09-21T10:37:33Z</time>
      </trkpt>
      <trkpt lat="52.170822" lon="4.510305">
        <ele>2800.0</ele>
        <time>2020-09-21T10:37:34Z</time>
      </trkpt>
      <trkpt lat="52.170776" lon="4.5103087">
        <ele>2800.0</ele>
        <time>2020-09-21T10:37:35Z</time>
      </trkpt>
      <trkpt lat="52.17074" lon="4.510313">
        <ele>2800.0</ele>
        <time>2020-09-21T10:37:36Z</time>
      </trkpt>
      <trkpt lat="52.170692" lon="4.510316">
        <ele>2800.0</ele>
        <time>2020-09-21T10:37:37Z</time>
      </trkpt>
      <trkpt lat="52.17065" lon="4.5103164">
        <ele>2800.0</ele>
        <time>2020-09-21T10:37:38Z</time>
      </trkpt>
      <trkpt lat="52.17061" lon="4.510315">
        <ele>2800.0</ele>
        <time>2020-09-21T10:37:39Z</time>
      </trkpt>
      <trkpt lat="52.170567" lon="4.5103135">
        <ele>2800.0</ele>
        <time>2020-09-21T10:37:40Z</time>
      </trkpt>
      <trkpt lat="52.170532" lon="4.510311">
        <ele>2800.0</ele>
        <time>2020-09-21T10:37:41Z</time>
      </trkpt>
      <trkpt lat="52.170498" lon="4.5103116">
        <ele>2800.0</ele>
        <time>2020-09-21T10:37:42Z</time>
      </trkpt>
      <trkpt lat="52.170456" lon="4.5103145">
        <ele>2800.0</ele>
        <time>2020-09-21T10:37:43Z</time>
      </trkpt>
      <trkpt lat="52.170418" lon="4.510316">
        <ele>2800.0</ele>
        <time>2020-09-21T10:37:44Z</time>
      </trkpt>
      <trkpt lat="52.170383" lon="4.510318">
        <ele>2800.0</ele>
        <time>2020-09-21T10:37:45Z</time>
      </trkpt>
      <trkpt lat="52.17035" lon="4.5103226">
        <ele>2800.0</ele>
        <time>2020-09-21T10:37:46Z</time>
      </trkpt>
      <trkpt lat="52.170307" lon="4.510328">
        <ele>2800.0</ele>
        <time>2020-09-21T10:37:47Z</time>
      </trkpt>
      <trkpt lat="52.170265" lon="4.510329">
        <ele>2800.0</ele>
        <time>2020-09-21T10:37:48Z</time>
      </trkpt>
      <trkpt lat="52.170223" lon="4.510328">
        <ele>2800.0</ele>
        <time>2020-09-21T10:37:49Z</time>
      </trkpt>
      <trkpt lat="52.170185" lon="4.510326">
        <ele>2800.0</ele>
        <time>2020-09-21T10:37:50Z</time>
      </trkpt>
      <trkpt lat="52.170143" lon="4.510326">
        <ele>2800.0</ele>
        <time>2020-09-21T10:37:51Z</time>
      </trkpt>
      <trkpt lat="52.1701" lon="4.510327">
        <ele>2800.0</ele>
        <time>2020-09-21T10:37:53Z</time>
      </trkpt>
      <trkpt lat="52.17006" lon="4.5103307">
        <ele>2800.0</ele>
        <time>2020-09-21T10:37:53Z</time>
      </trkpt>
      <trkpt lat="52.17002" lon="4.510337">
        <ele>2800.0</ele>
        <time>2020-09-21T10:37:54Z</time>
      </trkpt>
      <trkpt lat="52.16998" lon="4.510341">
        <ele>2800.0</ele>
        <time>2020-09-21T10:37:55Z</time>
      </trkpt>
      <trkpt lat="52.169937" lon="4.510346">
        <ele>2800.0</ele>
        <time>2020-09-21T10:37:56Z</time>
      </trkpt>
      <trkpt lat="52.169895" lon="4.5103526">
        <ele>2800.0</ele>
        <time>2020-09-21T10:37:57Z</time>
      </trkpt>
      <trkpt lat="52.169857" lon="4.5103593">
        <ele>2800.0</ele>
        <time>2020-09-21T10:37:58Z</time>
      </trkpt>
      <trkpt lat="52.16982" lon="4.510362">
        <ele>2800.0</ele>
        <time>2020-09-21T10:37:59Z</time>
      </trkpt>
      <trkpt lat="52.16978" lon="4.510368">
        <ele>2800.0</ele>
        <time>2020-09-21T10:38:00Z</time>
      </trkpt>
      <trkpt lat="52.16975" lon="4.5103755">
        <ele>2800.0</ele>
        <time>2020-09-21T10:38:01Z</time>
      </trkpt>
      <trkpt lat="52.169712" lon="4.5103836">
        <ele>2800.0</ele>
        <time>2020-09-21T10:38:03Z</time>
      </trkpt>
      <trkpt lat="52.16967" lon="4.5103965">
        <ele>2800.0</ele>
        <time>2020-09-21T10:38:03Z</time>
      </trkpt>
      <trkpt lat="52.169636" lon="4.510411">
        <ele>2800.0</ele>
        <time>2020-09-21T10:38:04Z</time>
      </trkpt>
      <trkpt lat="52.169594" lon="4.510427">
        <ele>2800.0</ele>
        <time>2020-09-21T10:38:05Z</time>
      </trkpt>
      <trkpt lat="52.169556" lon="4.510442">
        <ele>2800.0</ele>
        <time>2020-09-21T10:38:06Z</time>
      </trkpt>
      <trkpt lat="52.169518" lon="4.5104585">
        <ele>2800.0</ele>
        <time>2020-09-21T10:38:07Z</time>
      </trkpt>
      <trkpt lat="52.169483" lon="4.510477">
        <ele>2800.0</ele>
        <time>2020-09-21T10:38:08Z</time>
      </trkpt>
      <trkpt lat="52.169445" lon="4.5104947">
        <ele>2800.0</ele>
        <time>2020-09-21T10:38:09Z</time>
      </trkpt>
      <trkpt lat="52.16941" lon="4.5105147">
        <ele>2800.0</ele>
        <time>2020-09-21T10:38:10Z</time>
      </trkpt>
      <trkpt lat="52.169376" lon="4.51054">
        <ele>2800.0</ele>
        <time>2020-09-21T10:38:11Z</time>
      </trkpt>
      <trkpt lat="52.16934" lon="4.510566">
        <ele>2800.0</ele>
        <time>2020-09-21T10:38:12Z</time>
      </trkpt>
      <trkpt lat="52.169304" lon="4.510591">
        <ele>2800.0</ele>
        <time>2020-09-21T10:38:14Z</time>
      </trkpt>
      <trkpt lat="52.169266" lon="4.510614">
        <ele>2800.0</ele>
        <time>2020-09-21T10:38:14Z</time>
      </trkpt>
      <trkpt lat="52.169235" lon="4.510638">
        <ele>2800.0</ele>
        <time>2020-09-21T10:38:15Z</time>
      </trkpt>
      <trkpt lat="52.169197" lon="4.510663">
        <ele>2800.0</ele>
        <time>2020-09-21T10:38:16Z</time>
      </trkpt>
      <trkpt lat="52.16916" lon="4.510686">
        <ele>2800.0</ele>
        <time>2020-09-21T10:38:17Z</time>
      </trkpt>
      <trkpt lat="52.169125" lon="4.5107055">
        <ele>2800.0</ele>
        <time>2020-09-21T10:38:18Z</time>
      </trkpt>
      <trkpt lat="52.169094" lon="4.5107245">
        <ele>2800.0</ele>
        <time>2020-09-21T10:38:19Z</time>
      </trkpt>
      <trkpt lat="52.169064" lon="4.5107427">
        <ele>2800.0</ele>
        <time>2020-09-21T10:38:20Z</time>
      </trkpt>
      <trkpt lat="52.169037" lon="4.5107603">
        <ele>2800.0</ele>
        <time>2020-09-21T10:38:21Z</time>
      </trkpt>
      <trkpt lat="52.169018" lon="4.510772">
        <ele>2800.0</ele>
        <time>2020-09-21T10:38:22Z</time>
      </trkpt>
      <trkpt lat="52.169003" lon="4.510779">
        <ele>2800.0</ele>
        <time>2020-09-21T10:38:24Z</time>
      </trkpt>
      <trkpt lat="52.168987" lon="4.510782">
        <ele>2800.0</ele>
        <time>2020-09-21T10:38:24Z</time>
      </trkpt>
      <trkpt lat="52.168976" lon="4.5107837">
        <ele>2800.0</ele>
        <time>2020-09-21T10:38:25Z</time>
      </trkpt>
      <trkpt lat="52.168964" lon="4.5107865">
        <ele>2800.0</ele>
        <time>2020-09-21T10:38:26Z</time>
      </trkpt>
      <trkpt lat="52.168957" lon="4.5107875">
        <ele>2800.0</ele>
        <time>2020-09-21T10:38:27Z</time>
      </trkpt>
      <trkpt lat="52.16895" lon="4.510789">
        <ele>2800.0</ele>
        <time>2020-09-21T10:38:28Z</time>
      </trkpt>
      <trkpt lat="52.168945" lon="4.5107927">
        <ele>2800.0</ele>
        <time>2020-09-21T10:38:29Z</time>
      </trkpt>
      <trkpt lat="52.168945" lon="4.5107965">
        <ele>2800.0</ele>
        <time>2020-09-21T10:38:30Z</time>
      </trkpt>
      <trkpt lat="52.168945" lon="4.510798">
        <ele>2800.0</ele>
        <time>2020-09-21T10:38:32Z</time>
      </trkpt>
      <trkpt lat="52.168945" lon="4.5108">
        <ele>2800.0</ele>
        <time>2020-09-21T10:38:33Z</time>
      </trkpt>
      <trkpt lat="52.16895" lon="4.510798">
        <ele>2800.0</ele>
        <time>2020-09-21T10:38:34Z</time>
      </trkpt>
      <trkpt lat="52.16895" lon="4.5107956">
        <ele>2800.0</ele>
        <time>2020-09-21T10:38:35Z</time>
      </trkpt>
      <trkpt lat="52.168945" lon="4.510792">
        <ele>2800.0</ele>
        <time>2020-09-21T10:38:37Z</time>
      </trkpt>
      <trkpt lat="52.168945" lon="4.510792">
        <ele>2800.0</ele>
        <time>2020-09-21T10:38:38Z</time>
      </trkpt>
      <trkpt lat="52.168945" lon="4.5107865">
        <ele>2800.0</ele>
        <time>2020-09-21T10:38:40Z</time>
      </trkpt>
      <trkpt lat="52.168938" lon="4.510785">
        <ele>2800.0</ele>
        <time>2020-09-21T10:38:41Z</time>
      </trkpt>
      <trkpt lat="52.168934" lon="4.5107813">
        <ele>2800.0</ele>
        <time>2020-09-21T10:39:06Z</time>
      </trkpt>
      <trkpt lat="52.168934" lon="4.510788">
        <ele>2800.0</ele>
        <time>2020-09-21T10:39:14Z</time>
      </trkpt>
      <trkpt lat="52.168934" lon="4.510789">
        <ele>2800.0</ele>
        <time>2020-09-21T10:39:15Z</time>
      </trkpt>
      <trkpt lat="52.168934" lon="4.510798">
        <ele>2800.0</ele>
        <time>2020-09-21T10:39:22Z</time>
      </trkpt>
      <trkpt lat="52.16893" lon="4.5108027">
        <ele>2800.0</ele>
        <time>2020-09-21T10:39:23Z</time>
      </trkpt>
      <trkpt lat="52.16892" lon="4.5108104">
        <ele>2800.0</ele>
        <time>2020-09-21T10:39:24Z</time>
      </trkpt>
      <trkpt lat="52.168907" lon="4.510821">
        <ele>2800.0</ele>
        <time>2020-09-21T10:39:25Z</time>
      </trkpt>
      <trkpt lat="52.16889" lon="4.5108347">
        <ele>2800.0</ele>
        <time>2020-09-21T10:39:26Z</time>
      </trkpt>
      <trkpt lat="52.168873" lon="4.5108504">
        <ele>2800.0</ele>
        <time>2020-09-21T10:39:27Z</time>
      </trkpt>
      <trkpt lat="52.168854" lon="4.510866">
        <ele>2800.0</ele>
        <time>2020-09-21T10:39:28Z</time>
      </trkpt>
      <trkpt lat="52.16883" lon="4.5108824">
        <ele>2800.0</ele>
        <time>2020-09-21T10:39:29Z</time>
      </trkpt>
      <trkpt lat="52.16881" lon="4.5109015">
        <ele>2800.0</ele>
        <time>2020-09-21T10:39:30Z</time>
      </trkpt>
      <trkpt lat="52.168785" lon="4.5109224">
        <ele>2800.0</ele>
        <time>2020-09-21T10:39:31Z</time>
      </trkpt>
      <trkpt lat="52.168762" lon="4.510943">
        <ele>2800.0</ele>
        <time>2020-09-21T10:39:32Z</time>
      </trkpt>
      <trkpt lat="52.168736" lon="4.51096">
        <ele>2800.0</ele>
        <time>2020-09-21T10:39:33Z</time>
      </trkpt>
      <trkpt lat="52.168713" lon="4.510976">
        <ele>2800.0</ele>
        <time>2020-09-21T10:39:34Z</time>
      </trkpt>
      <trkpt lat="52.16869" lon="4.5109916">
        <ele>2800.0</ele>
        <time>2020-09-21T10:39:35Z</time>
      </trkpt>
      <trkpt lat="52.168674" lon="4.5110054">
        <ele>2800.0</ele>
        <time>2020-09-21T10:39:36Z</time>
      </trkpt>
      <trkpt lat="52.16865" lon="4.511023">
        <ele>2800.0</ele>
        <time>2020-09-21T10:39:38Z</time>
      </trkpt>
      <trkpt lat="52.168644" lon="4.511044">
        <ele>2800.0</ele>
        <time>2020-09-21T10:39:38Z</time>
      </trkpt>
      <trkpt lat="52.168633" lon="4.5110703">
        <ele>2800.0</ele>
        <time>2020-09-21T10:39:39Z</time>
      </trkpt>
      <trkpt lat="52.16863" lon="4.511103">
        <ele>2800.0</ele>
        <time>2020-09-21T10:39:40Z</time>
      </trkpt>
      <trkpt lat="52.16863" lon="4.511137">
        <ele>2800.0</ele>
        <time>2020-09-21T10:39:41Z</time>
      </trkpt>
      <trkpt lat="52.168633" lon="4.5111723">
        <ele>2800.0</ele>
        <time>2020-09-21T10:39:41Z</time>
      </trkpt>
      <trkpt lat="52.168636" lon="4.511208">
        <ele>2800.0</ele>
        <time>2020-09-21T10:39:42Z</time>
      </trkpt>
      <trkpt lat="52.168648" lon="4.511246">
        <ele>2800.0</ele>
        <time>2020-09-21T10:39:44Z</time>
      </trkpt>
      <trkpt lat="52.16865" lon="4.5112863">
        <ele>2800.0</ele>
        <time>2020-09-21T10:39:44Z</time>
      </trkpt>
      <trkpt lat="52.16866" lon="4.511333">
        <ele>2800.0</ele>
        <time>2020-09-21T10:39:45Z</time>
      </trkpt>
      <trkpt lat="52.168663" lon="4.511381">
        <ele>2800.0</ele>
        <time>2020-09-21T10:39:46Z</time>
      </trkpt>
      <trkpt lat="52.168663" lon="4.511425">
        <ele>2800.0</ele>
        <time>2020-09-21T10:39:47Z</time>
      </trkpt>
      <trkpt lat="52.168663" lon="4.5114665">
        <ele>2800.0</ele>
        <time>2020-09-21T10:39:48Z</time>
      </trkpt>
      <trkpt lat="52.168667" lon="4.511508">
        <ele>2800.0</ele>
        <time>2020-09-21T10:39:49Z</time>
      </trkpt>
      <trkpt lat="52.168674" lon="4.511546">
        <ele>2800.0</ele>
        <time>2020-09-21T10:39:50Z</time>
      </trkpt>
      <trkpt lat="52.168674" lon="4.51159">
        <ele>2800.0</ele>
        <time>2020-09-21T10:39:51Z</time>
      </trkpt>
      <trkpt lat="52.16868" lon="4.511632">
        <ele>2800.0</ele>
        <time>2020-09-21T10:39:52Z</time>
      </trkpt>
      <trkpt lat="52.168682" lon="4.511675">
        <ele>2800.0</ele>
        <time>2020-09-21T10:39:53Z</time>
      </trkpt>
      <trkpt lat="52.16869" lon="4.5117183">
        <ele>2800.0</ele>
        <time>2020-09-21T10:39:54Z</time>
      </trkpt>
      <trkpt lat="52.168694" lon="4.511762">
        <ele>2800.0</ele>
        <time>2020-09-21T10:39:55Z</time>
      </trkpt>
      <trkpt lat="52.168697" lon="4.511806">
        <ele>2800.0</ele>
        <time>2020-09-21T10:39:56Z</time>
      </trkpt>
      <trkpt lat="52.16871" lon="4.5118504">
        <ele>2800.0</ele>
        <time>2020-09-21T10:39:57Z</time>
      </trkpt>
      <trkpt lat="52.168713" lon="4.511895">
        <ele>2800.0</ele>
        <time>2020-09-21T10:39:58Z</time>
      </trkpt>
      <trkpt lat="52.168724" lon="4.511942">
        <ele>2800.0</ele>
        <time>2020-09-21T10:39:59Z</time>
      </trkpt>
      <trkpt lat="52.168736" lon="4.511988">
        <ele>2800.0</ele>
        <time>2020-09-21T10:40:00Z</time>
      </trkpt>
      <trkpt lat="52.16875" lon="4.5120354">
        <ele>2800.0</ele>
        <time>2020-09-21T10:40:02Z</time>
      </trkpt>
      <trkpt lat="52.168762" lon="4.512083">
        <ele>2800.0</ele>
        <time>2020-09-21T10:40:02Z</time>
      </trkpt>
      <trkpt lat="52.16877" lon="4.5121317">
        <ele>2800.0</ele>
        <time>2020-09-21T10:40:03Z</time>
      </trkpt>
      <trkpt lat="52.168785" lon="4.512184">
        <ele>2800.0</ele>
        <time>2020-09-21T10:40:04Z</time>
      </trkpt>
      <trkpt lat="52.1688" lon="4.512233">
        <ele>2800.0</ele>
        <time>2020-09-21T10:40:05Z</time>
      </trkpt>
      <trkpt lat="52.16881" lon="4.5122824">
        <ele>2900.0</ele>
        <time>2020-09-21T10:40:06Z</time>
      </trkpt>
      <trkpt lat="52.168823" lon="4.512327">
        <ele>2900.0</ele>
        <time>2020-09-21T10:40:07Z</time>
      </trkpt>
      <trkpt lat="52.16883" lon="4.5123744">
        <ele>2900.0</ele>
        <time>2020-09-21T10:40:08Z</time>
      </trkpt>
      <trkpt lat="52.168842" lon="4.512423">
        <ele>2900.0</ele>
        <time>2020-09-21T10:40:09Z</time>
      </trkpt>
      <trkpt lat="52.168854" lon="4.5124702">
        <ele>2900.0</ele>
        <time>2020-09-21T10:40:10Z</time>
      </trkpt>
      <trkpt lat="52.16887" lon="4.5125103">
        <ele>2900.0</ele>
        <time>2020-09-21T10:40:12Z</time>
      </trkpt>
      <trkpt lat="52.168888" lon="4.5125465">
        <ele>2900.0</ele>
        <time>2020-09-21T10:40:12Z</time>
      </trkpt>
      <trkpt lat="52.168907" lon="4.5125794">
        <ele>2900.0</ele>
        <time>2020-09-21T10:40:13Z</time>
      </trkpt>
      <trkpt lat="52.16893" lon="4.5126114">
        <ele>2900.0</ele>
        <time>2020-09-21T10:40:14Z</time>
      </trkpt>
      <trkpt lat="52.168957" lon="4.512643">
        <ele>2900.0</ele>
        <time>2020-09-21T10:40:15Z</time>
      </trkpt>
      <trkpt lat="52.168976" lon="4.5126734">
        <ele>2900.0</ele>
        <time>2020-09-21T10:40:16Z</time>
      </trkpt>
      <trkpt lat="52.168995" lon="4.512705">
        <ele>2900.0</ele>
        <time>2020-09-21T10:40:17Z</time>
      </trkpt>
      <trkpt lat="52.169018" lon="4.512738">
        <ele>2900.0</ele>
        <time>2020-09-21T10:40:18Z</time>
      </trkpt>
      <trkpt lat="52.169033" lon="4.5127735">
        <ele>2900.0</ele>
        <time>2020-09-21T10:40:19Z</time>
      </trkpt>
      <trkpt lat="52.16905" lon="4.5128107">
        <ele>2900.0</ele>
        <time>2020-09-21T10:40:20Z</time>
      </trkpt>
      <trkpt lat="52.169056" lon="4.5128484">
        <ele>2900.0</ele>
        <time>2020-09-21T10:40:21Z</time>
      </trkpt>
      <trkpt lat="52.169067" lon="4.512885">
        <ele>2900.0</ele>
        <time>2020-09-21T10:40:22Z</time>
      </trkpt>
      <trkpt lat="52.16908" lon="4.512921">
        <ele>2900.0</ele>
        <time>2020-09-21T10:40:23Z</time>
      </trkpt>
      <trkpt lat="52.169086" lon="4.5129557">
        <ele>2900.0</ele>
        <time>2020-09-21T10:40:24Z</time>
      </trkpt>
      <trkpt lat="52.169098" lon="4.5129886">
        <ele>2900.0</ele>
        <time>2020-09-21T10:40:25Z</time>
      </trkpt>
      <trkpt lat="52.16911" lon="4.513023">
        <ele>2900.0</ele>
        <time>2020-09-21T10:40:26Z</time>
      </trkpt>
      <trkpt lat="52.169117" lon="4.5130568">
        <ele>2900.0</ele>
        <time>2020-09-21T10:40:27Z</time>
      </trkpt>
      <trkpt lat="52.16913" lon="4.513095">
        <ele>2900.0</ele>
        <time>2020-09-21T10:40:28Z</time>
      </trkpt>
      <trkpt lat="52.16914" lon="4.513131">
        <ele>2900.0</ele>
        <time>2020-09-21T10:40:30Z</time>
      </trkpt>
      <trkpt lat="52.16915" lon="4.5131674">
        <ele>2900.0</ele>
        <time>2020-09-21T10:40:30Z</time>
      </trkpt>
      <trkpt lat="52.16916" lon="4.5132055">
        <ele>2900.0</ele>
        <time>2020-09-21T10:40:31Z</time>
      </trkpt>
      <trkpt lat="52.16917" lon="4.5132446">
        <ele>3000.0</ele>
        <time>2020-09-21T10:40:32Z</time>
      </trkpt>
      <trkpt lat="52.169174" lon="4.513284">
        <ele>3000.0</ele>
        <time>2020-09-21T10:40:33Z</time>
      </trkpt>
      <trkpt lat="52.169186" lon="4.5133243">
        <ele>3000.0</ele>
        <time>2020-09-21T10:40:34Z</time>
      </trkpt>
      <trkpt lat="52.169197" lon="4.5133634">
        <ele>3000.0</ele>
        <time>2020-09-21T10:40:35Z</time>
      </trkpt>
      <trkpt lat="52.1692" lon="4.5134015">
        <ele>3000.0</ele>
        <time>2020-09-21T10:40:36Z</time>
      </trkpt>
      <trkpt lat="52.169212" lon="4.513438">
        <ele>3000.0</ele>
        <time>2020-09-21T10:40:37Z</time>
      </trkpt>
      <trkpt lat="52.16922" lon="4.5134754">
        <ele>3000.0</ele>
        <time>2020-09-21T10:40:38Z</time>
      </trkpt>
      <trkpt lat="52.169228" lon="4.513512">
        <ele>3000.0</ele>
        <time>2020-09-21T10:40:39Z</time>
      </trkpt>
      <trkpt lat="52.169243" lon="4.5135517">
        <ele>3000.0</ele>
        <time>2020-09-21T10:40:41Z</time>
      </trkpt>
      <trkpt lat="52.16925" lon="4.5135884">
        <ele>3000.0</ele>
        <time>2020-09-21T10:40:41Z</time>
      </trkpt>
      <trkpt lat="52.169262" lon="4.513627">
        <ele>3000.0</ele>
        <time>2020-09-21T10:40:42Z</time>
      </trkpt>
      <trkpt lat="52.169266" lon="4.5136714">
        <ele>3000.0</ele>
        <time>2020-09-21T10:40:43Z</time>
      </trkpt>
      <trkpt lat="52.169273" lon="4.51372">
        <ele>3000.0</ele>
        <time>2020-09-21T10:40:44Z</time>
      </trkpt>
      <trkpt lat="52.169277" lon="4.51377">
        <ele>3100.0</ele>
        <time>2020-09-21T10:40:45Z</time>
      </trkpt>
      <trkpt lat="52.169277" lon="4.513818">
        <ele>3100.0</ele>
        <time>2020-09-21T10:40:46Z</time>
      </trkpt>
      <trkpt lat="52.16928" lon="4.513864">
        <ele>3100.0</ele>
        <time>2020-09-21T10:40:47Z</time>
      </trkpt>
      <trkpt lat="52.16928" lon="4.5139117">
        <ele>3100.0</ele>
        <time>2020-09-21T10:40:48Z</time>
      </trkpt>
      <trkpt lat="52.16928" lon="4.5139546">
        <ele>3100.0</ele>
        <time>2020-09-21T10:40:49Z</time>
      </trkpt>
      <trkpt lat="52.16929" lon="4.5139956">
        <ele>3100.0</ele>
        <time>2020-09-21T10:40:51Z</time>
      </trkpt>
      <trkpt lat="52.169296" lon="4.5140343">
        <ele>3100.0</ele>
        <time>2020-09-21T10:40:51Z</time>
      </trkpt>
      <trkpt lat="52.169304" lon="4.5140734">
        <ele>3100.0</ele>
        <time>2020-09-21T10:40:52Z</time>
      </trkpt>
      <trkpt lat="52.16931" lon="4.5141115">
        <ele>3100.0</ele>
        <time>2020-09-21T10:40:53Z</time>
      </trkpt>
      <trkpt lat="52.169323" lon="4.514148">
        <ele>3100.0</ele>
        <time>2020-09-21T10:40:54Z</time>
      </trkpt>
      <trkpt lat="52.169327" lon="4.5141864">
        <ele>3100.0</ele>
        <time>2020-09-21T10:40:55Z</time>
      </trkpt>
      <trkpt lat="52.169334" lon="4.5142283">
        <ele>3100.0</ele>
        <time>2020-09-21T10:40:56Z</time>
      </trkpt>
      <trkpt lat="52.169346" lon="4.514272">
        <ele>3100.0</ele>
        <time>2020-09-21T10:40:57Z</time>
      </trkpt>
      <trkpt lat="52.16935" lon="4.5143185">
        <ele>3100.0</ele>
        <time>2020-09-21T10:40:58Z</time>
      </trkpt>
      <trkpt lat="52.169353" lon="4.5143685">
        <ele>3200.0</ele>
        <time>2020-09-21T10:40:59Z</time>
      </trkpt>
      <trkpt lat="52.169365" lon="4.5144176">
        <ele>3200.0</ele>
        <time>2020-09-21T10:41:00Z</time>
      </trkpt>
      <trkpt lat="52.169376" lon="4.5144663">
        <ele>3200.0</ele>
        <time>2020-09-21T10:41:02Z</time>
      </trkpt>
      <trkpt lat="52.16939" lon="4.5145144">
        <ele>3200.0</ele>
        <time>2020-09-21T10:41:02Z</time>
      </trkpt>
      <trkpt lat="52.1694" lon="4.5145607">
        <ele>3200.0</ele>
        <time>2020-09-21T10:41:03Z</time>
      </trkpt>
      <trkpt lat="52.169415" lon="4.5146084">
        <ele>3200.0</ele>
        <time>2020-09-21T10:41:04Z</time>
      </trkpt>
      <trkpt lat="52.16943" lon="4.5146575">
        <ele>3200.0</ele>
        <time>2020-09-21T10:41:05Z</time>
      </trkpt>
      <trkpt lat="52.169445" lon="4.5147047">
        <ele>3200.0</ele>
        <time>2020-09-21T10:41:06Z</time>
      </trkpt>
      <trkpt lat="52.169456" lon="4.514754">
        <ele>3200.0</ele>
        <time>2020-09-21T10:41:07Z</time>
      </trkpt>
      <trkpt lat="52.169456" lon="4.514803">
        <ele>3200.0</ele>
        <time>2020-09-21T10:41:08Z</time>
      </trkpt>
      <trkpt lat="52.16946" lon="4.514855">
        <ele>3200.0</ele>
        <time>2020-09-21T10:41:09Z</time>
      </trkpt>
      <trkpt lat="52.16946" lon="4.5149016">
        <ele>3200.0</ele>
        <time>2020-09-21T10:41:10Z</time>
      </trkpt>
      <trkpt lat="52.16946" lon="4.5149474">
        <ele>3200.0</ele>
        <time>2020-09-21T10:41:12Z</time>
      </trkpt>
      <trkpt lat="52.16946" lon="4.514991">
        <ele>3300.0</ele>
        <time>2020-09-21T10:41:12Z</time>
      </trkpt>
      <trkpt lat="52.16946" lon="4.5150332">
        <ele>3300.0</ele>
        <time>2020-09-21T10:41:13Z</time>
      </trkpt>
      <trkpt lat="52.169468" lon="4.515076">
        <ele>3300.0</ele>
        <time>2020-09-21T10:41:14Z</time>
      </trkpt>
      <trkpt lat="52.16947" lon="4.5151196">
        <ele>3300.0</ele>
        <time>2020-09-21T10:41:15Z</time>
      </trkpt>
      <trkpt lat="52.16947" lon="4.515167">
        <ele>3300.0</ele>
        <time>2020-09-21T10:41:16Z</time>
      </trkpt>
      <trkpt lat="52.169476" lon="4.515211">
        <ele>3300.0</ele>
        <time>2020-09-21T10:41:17Z</time>
      </trkpt>
      <trkpt lat="52.169476" lon="4.5152564">
        <ele>3300.0</ele>
        <time>2020-09-21T10:41:18Z</time>
      </trkpt>
      <trkpt lat="52.169476" lon="4.515301">
        <ele>3300.0</ele>
        <time>2020-09-21T10:41:19Z</time>
      </trkpt>
      <trkpt lat="52.169476" lon="4.515346">
        <ele>3300.0</ele>
        <time>2020-09-21T10:41:20Z</time>
      </trkpt>
      <trkpt lat="52.169476" lon="4.515389">
        <ele>3300.0</ele>
        <time>2020-09-21T10:41:21Z</time>
      </trkpt>
      <trkpt lat="52.169483" lon="4.515431">
        <ele>3300.0</ele>
        <time>2020-09-21T10:41:22Z</time>
      </trkpt>
      <trkpt lat="52.169487" lon="4.5154724">
        <ele>3300.0</ele>
        <time>2020-09-21T10:41:23Z</time>
      </trkpt>
      <trkpt lat="52.16949" lon="4.5155153">
        <ele>3300.0</ele>
        <time>2020-09-21T10:41:24Z</time>
      </trkpt>
      <trkpt lat="52.16949" lon="4.515558">
        <ele>3300.0</ele>
        <time>2020-09-21T10:41:25Z</time>
      </trkpt>
      <trkpt lat="52.1695" lon="4.5156016">
        <ele>3300.0</ele>
        <time>2020-09-21T10:41:26Z</time>
      </trkpt>
      <trkpt lat="52.169502" lon="4.515649">
        <ele>3300.0</ele>
        <time>2020-09-21T10:41:27Z</time>
      </trkpt>
      <trkpt lat="52.169506" lon="4.5156937">
        <ele>3300.0</ele>
        <time>2020-09-21T10:41:28Z</time>
      </trkpt>
      <trkpt lat="52.169506" lon="4.515739">
        <ele>3300.0</ele>
        <time>2020-09-21T10:41:30Z</time>
      </trkpt>
      <trkpt lat="52.169514" lon="4.5157857">
        <ele>3300.0</ele>
        <time>2020-09-21T10:41:30Z</time>
      </trkpt>
      <trkpt lat="52.16952" lon="4.5158324">
        <ele>3300.0</ele>
        <time>2020-09-21T10:41:31Z</time>
      </trkpt>
      <trkpt lat="52.16953" lon="4.515884">
        <ele>3300.0</ele>
        <time>2020-09-21T10:41:32Z</time>
      </trkpt>
      <trkpt lat="52.16954" lon="4.515932">
        <ele>3300.0</ele>
        <time>2020-09-21T10:41:33Z</time>
      </trkpt>
      <trkpt lat="52.169548" lon="4.5159764">
        <ele>3300.0</ele>
        <time>2020-09-21T10:41:34Z</time>
      </trkpt>
      <trkpt lat="52.16956" lon="4.516021">
        <ele>3300.0</ele>
        <time>2020-09-21T10:41:35Z</time>
      </trkpt>
      <trkpt lat="52.16957" lon="4.5160685">
        <ele>3300.0</ele>
        <time>2020-09-21T10:41:36Z</time>
      </trkpt>
      <trkpt lat="52.16958" lon="4.516117">
        <ele>3300.0</ele>
        <time>2020-09-21T10:41:37Z</time>
      </trkpt>
      <trkpt lat="52.169586" lon="4.516167">
        <ele>3300.0</ele>
        <time>2020-09-21T10:41:38Z</time>
      </trkpt>
      <trkpt lat="52.16959" lon="4.516216">
        <ele>3300.0</ele>
        <time>2020-09-21T10:41:39Z</time>
      </trkpt>
      <trkpt lat="52.169594" lon="4.516267">
        <ele>3300.0</ele>
        <time>2020-09-21T10:41:41Z</time>
      </trkpt>
      <trkpt lat="52.1696" lon="4.51632">
        <ele>3300.0</ele>
        <time>2020-09-21T10:41:41Z</time>
      </trkpt>
      <trkpt lat="52.1696" lon="4.5163755">
        <ele>3300.0</ele>
        <time>2020-09-21T10:41:42Z</time>
      </trkpt>
      <trkpt lat="52.1696" lon="4.51643">
        <ele>3300.0</ele>
        <time>2020-09-21T10:41:43Z</time>
      </trkpt>
      <trkpt lat="52.1696" lon="4.5164914">
        <ele>3300.0</ele>
        <time>2020-09-21T10:41:44Z</time>
      </trkpt>
      <trkpt lat="52.1696" lon="4.5165496">
        <ele>3300.0</ele>
        <time>2020-09-21T10:41:45Z</time>
      </trkpt>
      <trkpt lat="52.1696" lon="4.5166106">
        <ele>3300.0</ele>
        <time>2020-09-21T10:41:46Z</time>
      </trkpt>
      <trkpt lat="52.1696" lon="4.5166755">
        <ele>3300.0</ele>
        <time>2020-09-21T10:41:47Z</time>
      </trkpt>
      <trkpt lat="52.1696" lon="4.516742">
        <ele>3300.0</ele>
        <time>2020-09-21T10:41:48Z</time>
      </trkpt>
      <trkpt lat="52.169594" lon="4.5168133">
        <ele>3300.0</ele>
        <time>2020-09-21T10:41:49Z</time>
      </trkpt>
      <trkpt lat="52.169594" lon="4.516879">
        <ele>3200.0</ele>
        <time>2020-09-21T10:41:51Z</time>
      </trkpt>
      <trkpt lat="52.169594" lon="4.5169454">
        <ele>3200.0</ele>
        <time>2020-09-21T10:41:51Z</time>
      </trkpt>
      <trkpt lat="52.169594" lon="4.5170116">
        <ele>3200.0</ele>
        <time>2020-09-21T10:41:52Z</time>
      </trkpt>
      <trkpt lat="52.1696" lon="4.51708">
        <ele>3200.0</ele>
        <time>2020-09-21T10:41:53Z</time>
      </trkpt>
      <trkpt lat="52.169605" lon="4.517144">
        <ele>3200.0</ele>
        <time>2020-09-21T10:41:54Z</time>
      </trkpt>
      <trkpt lat="52.169605" lon="4.517204">
        <ele>3200.0</ele>
        <time>2020-09-21T10:41:55Z</time>
      </trkpt>
      <trkpt lat="52.169605" lon="4.5172524">
        <ele>3200.0</ele>
        <time>2020-09-21T10:41:56Z</time>
      </trkpt>
      <trkpt lat="52.169605" lon="4.5172906">
        <ele>3200.0</ele>
        <time>2020-09-21T10:41:57Z</time>
      </trkpt>
      <trkpt lat="52.169605" lon="4.5173173">
        <ele>3200.0</ele>
        <time>2020-09-21T10:41:58Z</time>
      </trkpt>
      <trkpt lat="52.1696" lon="4.5173364">
        <ele>3100.0</ele>
        <time>2020-09-21T10:41:59Z</time>
      </trkpt>
      <trkpt lat="52.1696" lon="4.5173497">
        <ele>3100.0</ele>
        <time>2020-09-21T10:42:00Z</time>
      </trkpt>
      <trkpt lat="52.169594" lon="4.517362">
        <ele>3100.0</ele>
        <time>2020-09-21T10:42:01Z</time>
      </trkpt>
      <trkpt lat="52.169586" lon="4.5173697">
        <ele>3100.0</ele>
        <time>2020-09-21T10:42:02Z</time>
      </trkpt>
      <trkpt lat="52.16958" lon="4.5173726">
        <ele>3100.0</ele>
        <time>2020-09-21T10:42:03Z</time>
      </trkpt>
      <trkpt lat="52.169575" lon="4.5173736">
        <ele>3100.0</ele>
        <time>2020-09-21T10:42:04Z</time>
      </trkpt>
      <trkpt lat="52.16957" lon="4.5173717">
        <ele>3100.0</ele>
        <time>2020-09-21T10:42:05Z</time>
      </trkpt>
      <trkpt lat="52.169563" lon="4.5173683">
        <ele>3100.0</ele>
        <time>2020-09-21T10:42:06Z</time>
      </trkpt>
      <trkpt lat="52.16956" lon="4.517362">
        <ele>3100.0</ele>
        <time>2020-09-21T10:42:07Z</time>
      </trkpt>
      <trkpt lat="52.169556" lon="4.517354">
        <ele>3100.0</ele>
        <time>2020-09-21T10:42:08Z</time>
      </trkpt>
      <trkpt lat="52.16954" lon="4.5173435">
        <ele>3100.0</ele>
        <time>2020-09-21T10:42:09Z</time>
      </trkpt>
      <trkpt lat="52.16953" lon="4.5173297">
        <ele>3100.0</ele>
        <time>2020-09-21T10:42:10Z</time>
      </trkpt>
      <trkpt lat="52.169514" lon="4.5173097">
        <ele>3100.0</ele>
        <time>2020-09-21T10:42:12Z</time>
      </trkpt>
      <trkpt lat="52.16949" lon="4.517282">
        <ele>3100.0</ele>
        <time>2020-09-21T10:42:12Z</time>
      </trkpt>
      <trkpt lat="52.169476" lon="4.517247">
        <ele>3100.0</ele>
        <time>2020-09-21T10:42:13Z</time>
      </trkpt>
      <trkpt lat="52.16946" lon="4.517198">
        <ele>3100.0</ele>
        <time>2020-09-21T10:42:14Z</time>
      </trkpt>
      <trkpt lat="52.169453" lon="4.5171437">
        <ele>3100.0</ele>
        <time>2020-09-21T10:42:15Z</time>
      </trkpt>
      <trkpt lat="52.169445" lon="4.5170827">
        <ele>3000.0</ele>
        <time>2020-09-21T10:42:16Z</time>
      </trkpt>
      <trkpt lat="52.169437" lon="4.5170207">
        <ele>3000.0</ele>
        <time>2020-09-21T10:42:17Z</time>
      </trkpt>
      <trkpt lat="52.169422" lon="4.5169506">
        <ele>3000.0</ele>
        <time>2020-09-21T10:42:18Z</time>
      </trkpt>
      <trkpt lat="52.16941" lon="4.5168805">
        <ele>3000.0</ele>
        <time>2020-09-21T10:42:19Z</time>
      </trkpt>
      <trkpt lat="52.169395" lon="4.5168037">
        <ele>3000.0</ele>
        <time>2020-09-21T10:42:20Z</time>
      </trkpt>
      <trkpt lat="52.169384" lon="4.5167217">
        <ele>2900.0</ele>
        <time>2020-09-21T10:42:21Z</time>
      </trkpt>
      <trkpt lat="52.169376" lon="4.5166383">
        <ele>2900.0</ele>
        <time>2020-09-21T10:42:22Z</time>
      </trkpt>
      <trkpt lat="52.169365" lon="4.516552">
        <ele>2900.0</ele>
        <time>2020-09-21T10:42:23Z</time>
      </trkpt>
      <trkpt lat="52.169353" lon="4.5164733">
        <ele>2900.0</ele>
        <time>2020-09-21T10:42:24Z</time>
      </trkpt>
      <trkpt lat="52.169346" lon="4.5164027">
        <ele>2800.0</ele>
        <time>2020-09-21T10:42:25Z</time>
      </trkpt>
      <trkpt lat="52.16934" lon="4.5163436">
        <ele>2800.0</ele>
        <time>2020-09-21T10:42:27Z</time>
      </trkpt>
      <trkpt lat="52.169334" lon="4.5162916">
        <ele>2800.0</ele>
        <time>2020-09-21T10:42:27Z</time>
      </trkpt>
      <trkpt lat="52.169327" lon="4.5162473">
        <ele>2800.0</ele>
        <time>2020-09-21T10:42:28Z</time>
      </trkpt>
      <trkpt lat="52.169327" lon="4.5162115">
        <ele>2800.0</ele>
        <time>2020-09-21T10:42:29Z</time>
      </trkpt>
      <trkpt lat="52.169327" lon="4.5161834">
        <ele>2800.0</ele>
        <time>2020-09-21T10:42:30Z</time>
      </trkpt>
      <trkpt lat="52.169323" lon="4.516163">
        <ele>2800.0</ele>
        <time>2020-09-21T10:42:31Z</time>
      </trkpt>
      <trkpt lat="52.169327" lon="4.516151">
        <ele>2800.0</ele>
        <time>2020-09-21T10:42:32Z</time>
      </trkpt>
      <trkpt lat="52.169327" lon="4.5161448">
        <ele>2700.0</ele>
        <time>2020-09-21T10:42:34Z</time>
      </trkpt>
      <trkpt lat="52.169327" lon="4.516142">
        <ele>2700.0</ele>
        <time>2020-09-21T10:42:34Z</time>
      </trkpt>
      <trkpt lat="52.169334" lon="4.516129">
        <ele>2700.0</ele>
        <time>2020-09-21T10:42:36Z</time>
      </trkpt>
      <trkpt lat="52.169334" lon="4.516128">
        <ele>2700.0</ele>
        <time>2020-09-21T10:42:37Z</time>
      </trkpt>
      <trkpt lat="52.169334" lon="4.5161276">
        <ele>2700.0</ele>
        <time>2020-09-21T10:42:38Z</time>
      </trkpt>
      <trkpt lat="52.16934" lon="4.5161285">
        <ele>2700.0</ele>
        <time>2020-09-21T10:42:39Z</time>
      </trkpt>
      <trkpt lat="52.16934" lon="4.51613">
        <ele>2700.0</ele>
        <time>2020-09-21T10:42:40Z</time>
      </trkpt>
      <trkpt lat="52.16934" lon="4.5161295">
        <ele>2700.0</ele>
        <time>2020-09-21T10:42:41Z</time>
      </trkpt>
      <trkpt lat="52.16934" lon="4.5161242">
        <ele>2700.0</ele>
        <time>2020-09-21T10:42:43Z</time>
      </trkpt>
      <trkpt lat="52.16934" lon="4.5161242">
        <ele>2700.0</ele>
        <time>2020-09-21T10:42:45Z</time>
      </trkpt>
      <trkpt lat="52.169334" lon="4.5161247">
        <ele>2700.0</ele>
        <time>2020-09-21T10:42:45Z</time>
      </trkpt>
      <trkpt lat="52.169327" lon="4.516126">
        <ele>2700.0</ele>
        <time>2020-09-21T10:42:46Z</time>
      </trkpt>
      <trkpt lat="52.169327" lon="4.51613">
        <ele>2700.0</ele>
        <time>2020-09-21T10:42:47Z</time>
      </trkpt>
      <trkpt lat="52.169323" lon="4.516136">
        <ele>2700.0</ele>
        <time>2020-09-21T10:42:48Z</time>
      </trkpt>
      <trkpt lat="52.169323" lon="4.5161366">
        <ele>2700.0</ele>
        <time>2020-09-21T10:42:49Z</time>
      </trkpt>
      <trkpt lat="52.16932" lon="4.5161343">
        <ele>2700.0</ele>
        <time>2020-09-21T10:42:50Z</time>
      </trkpt>
      <trkpt lat="52.16932" lon="4.5161347">
        <ele>2700.0</ele>
        <time>2020-09-21T10:42:51Z</time>
      </trkpt>
      <trkpt lat="52.16932" lon="4.5161343">
        <ele>2700.0</ele>
        <time>2020-09-21T10:42:52Z</time>
      </trkpt>
      <trkpt lat="52.169323" lon="4.5161276">
        <ele>2700.0</ele>
        <time>2020-09-21T10:43:21Z</time>
      </trkpt>
      <trkpt lat="52.169323" lon="4.5161276">
        <ele>2700.0</ele>
        <time>2020-09-21T10:43:22Z</time>
      </trkpt>
      <trkpt lat="52.169323" lon="4.5161343">
        <ele>2700.0</ele>
        <time>2020-09-21T10:43:39Z</time>
      </trkpt>
      <trkpt lat="52.169323" lon="4.5161476">
        <ele>2700.0</ele>
        <time>2020-09-21T10:44:01Z</time>
      </trkpt>
      <trkpt lat="52.169323" lon="4.516159">
        <ele>2700.0</ele>
        <time>2020-09-21T10:44:04Z</time>
      </trkpt>
      <trkpt lat="52.169323" lon="4.5161595">
        <ele>2700.0</ele>
        <time>2020-09-21T10:44:05Z</time>
      </trkpt>
      <trkpt lat="52.169323" lon="4.5161576">
        <ele>2700.0</ele>
        <time>2020-09-21T10:44:20Z</time>
      </trkpt>
      <trkpt lat="52.16932" lon="4.516151">
        <ele>2700.0</ele>
        <time>2020-09-21T10:44:34Z</time>
      </trkpt>
      <trkpt lat="52.16932" lon="4.5161457">
        <ele>2700.0</ele>
        <time>2020-09-21T10:44:40Z</time>
      </trkpt>
      <trkpt lat="52.16931" lon="4.5161424">
        <ele>2700.0</ele>
        <time>2020-09-21T10:44:43Z</time>
      </trkpt>
      <trkpt lat="52.169308" lon="4.516144">
        <ele>2700.0</ele>
        <time>2020-09-21T10:44:44Z</time>
      </trkpt>
      <trkpt lat="52.169296" lon="4.5161476">
        <ele>2700.0</ele>
        <time>2020-09-21T10:44:45Z</time>
      </trkpt>
      <trkpt lat="52.16929" lon="4.5161533">
        <ele>2700.0</ele>
        <time>2020-09-21T10:44:46Z</time>
      </trkpt>
      <trkpt lat="52.169273" lon="4.5161605">
        <ele>2700.0</ele>
        <time>2020-09-21T10:44:47Z</time>
      </trkpt>
      <trkpt lat="52.16925" lon="4.51617">
        <ele>2700.0</ele>
        <time>2020-09-21T10:44:48Z</time>
      </trkpt>
      <trkpt lat="52.16923" lon="4.516183">
        <ele>2700.0</ele>
        <time>2020-09-21T10:44:49Z</time>
      </trkpt>
      <trkpt lat="52.169212" lon="4.516197">
        <ele>2700.0</ele>
        <time>2020-09-21T10:44:51Z</time>
      </trkpt>
      <trkpt lat="52.16918" lon="4.5162115">
        <ele>2700.0</ele>
        <time>2020-09-21T10:44:51Z</time>
      </trkpt>
      <trkpt lat="52.169155" lon="4.5162244">
        <ele>2700.0</ele>
        <time>2020-09-21T10:44:52Z</time>
      </trkpt>
      <trkpt lat="52.16913" lon="4.5162373">
        <ele>2700.0</ele>
        <time>2020-09-21T10:44:53Z</time>
      </trkpt>
      <trkpt lat="52.1691" lon="4.516249">
        <ele>2700.0</ele>
        <time>2020-09-21T10:44:54Z</time>
      </trkpt>
      <trkpt lat="52.16908" lon="4.5162587">
        <ele>2700.0</ele>
        <time>2020-09-21T10:44:55Z</time>
      </trkpt>
      <trkpt lat="52.16905" lon="4.5162654">
        <ele>2700.0</ele>
        <time>2020-09-21T10:44:56Z</time>
      </trkpt>
      <trkpt lat="52.169018" lon="4.51627">
        <ele>2700.0</ele>
        <time>2020-09-21T10:44:57Z</time>
      </trkpt>
      <trkpt lat="52.16899" lon="4.5162735">
        <ele>2700.0</ele>
        <time>2020-09-21T10:44:58Z</time>
      </trkpt>
      <trkpt lat="52.168964" lon="4.5162725">
        <ele>2700.0</ele>
        <time>2020-09-21T10:44:59Z</time>
      </trkpt>
      <trkpt lat="52.168938" lon="4.5162683">
        <ele>2700.0</ele>
        <time>2020-09-21T10:45:01Z</time>
      </trkpt>
      <trkpt lat="52.168907" lon="4.516264">
        <ele>2700.0</ele>
        <time>2020-09-21T10:45:01Z</time>
      </trkpt>
      <trkpt lat="52.168884" lon="4.516261">
        <ele>2700.0</ele>
        <time>2020-09-21T10:45:02Z</time>
      </trkpt>
      <trkpt lat="52.168854" lon="4.5162587">
        <ele>2700.0</ele>
        <time>2020-09-21T10:45:03Z</time>
      </trkpt>
      <trkpt lat="52.168823" lon="4.516258">
        <ele>2700.0</ele>
        <time>2020-09-21T10:45:04Z</time>
      </trkpt>
      <trkpt lat="52.168793" lon="4.516256">
        <ele>2700.0</ele>
        <time>2020-09-21T10:45:05Z</time>
      </trkpt>
      <trkpt lat="52.168766" lon="4.516252">
        <ele>2700.0</ele>
        <time>2020-09-21T10:45:06Z</time>
      </trkpt>
      <trkpt lat="52.16874" lon="4.516247">
        <ele>2700.0</ele>
        <time>2020-09-21T10:45:07Z</time>
      </trkpt>
      <trkpt lat="52.16871" lon="4.516241">
        <ele>2700.0</ele>
        <time>2020-09-21T10:45:08Z</time>
      </trkpt>
      <trkpt lat="52.168682" lon="4.5162373">
        <ele>2700.0</ele>
        <time>2020-09-21T10:45:09Z</time>
      </trkpt>
      <trkpt lat="52.16866" lon="4.516236">
        <ele>2700.0</ele>
        <time>2020-09-21T10:45:10Z</time>
      </trkpt>
      <trkpt lat="52.168633" lon="4.516238">
        <ele>2700.0</ele>
        <time>2020-09-21T10:45:12Z</time>
      </trkpt>
      <trkpt lat="52.168602" lon="4.516246">
        <ele>2700.0</ele>
        <time>2020-09-21T10:45:12Z</time>
      </trkpt>
      <trkpt lat="52.16857" lon="4.516256">
        <ele>2700.0</ele>
        <time>2020-09-21T10:45:13Z</time>
      </trkpt>
      <trkpt lat="52.16854" lon="4.5162654">
        <ele>2700.0</ele>
        <time>2020-09-21T10:45:14Z</time>
      </trkpt>
      <trkpt lat="52.168514" lon="4.5162764">
        <ele>2700.0</ele>
        <time>2020-09-21T10:45:15Z</time>
      </trkpt>
      <trkpt lat="52.16848" lon="4.516286">
        <ele>2700.0</ele>
        <time>2020-09-21T10:45:16Z</time>
      </trkpt>
      <trkpt lat="52.16845" lon="4.516296">
        <ele>2700.0</ele>
        <time>2020-09-21T10:45:17Z</time>
      </trkpt>
      <trkpt lat="52.16842" lon="4.5163035">
        <ele>2700.0</ele>
        <time>2020-09-21T10:45:18Z</time>
      </trkpt>
      <trkpt lat="52.16838" lon="4.51631">
        <ele>2700.0</ele>
        <time>2020-09-21T10:45:19Z</time>
      </trkpt>
      <trkpt lat="52.16835" lon="4.516317">
        <ele>2700.0</ele>
        <time>2020-09-21T10:45:20Z</time>
      </trkpt>
      <trkpt lat="52.168316" lon="4.516326">
        <ele>2700.0</ele>
        <time>2020-09-21T10:45:22Z</time>
      </trkpt>
      <trkpt lat="52.168285" lon="4.5163364">
        <ele>2700.0</ele>
        <time>2020-09-21T10:45:22Z</time>
      </trkpt>
      <trkpt lat="52.168255" lon="4.516347">
        <ele>2700.0</ele>
        <time>2020-09-21T10:45:23Z</time>
      </trkpt>
      <trkpt lat="52.168224" lon="4.516359">
        <ele>2700.0</ele>
        <time>2020-09-21T10:45:24Z</time>
      </trkpt>
      <trkpt lat="52.168194" lon="4.516369">
        <ele>2700.0</ele>
        <time>2020-09-21T10:45:25Z</time>
      </trkpt>
      <trkpt lat="52.168156" lon="4.5163774">
        <ele>2700.0</ele>
        <time>2020-09-21T10:45:26Z</time>
      </trkpt>
      <trkpt lat="52.16812" lon="4.516387">
        <ele>2700.0</ele>
        <time>2020-09-21T10:45:27Z</time>
      </trkpt>
      <trkpt lat="52.16809" lon="4.5163965">
        <ele>2700.0</ele>
        <time>2020-09-21T10:45:28Z</time>
      </trkpt>
      <trkpt lat="52.168053" lon="4.5164056">
        <ele>2700.0</ele>
        <time>2020-09-21T10:45:30Z</time>
      </trkpt>
      <trkpt lat="52.168022" lon="4.5164165">
        <ele>2700.0</ele>
        <time>2020-09-21T10:45:30Z</time>
      </trkpt>
      <trkpt lat="52.167988" lon="4.516426">
        <ele>2700.0</ele>
        <time>2020-09-21T10:45:31Z</time>
      </trkpt>
      <trkpt lat="52.167957" lon="4.5164332">
        <ele>2700.0</ele>
        <time>2020-09-21T10:45:32Z</time>
      </trkpt>
      <trkpt lat="52.167927" lon="4.516438">
        <ele>2700.0</ele>
        <time>2020-09-21T10:45:33Z</time>
      </trkpt>
      <trkpt lat="52.16789" lon="4.5164413">
        <ele>2700.0</ele>
        <time>2020-09-21T10:45:34Z</time>
      </trkpt>
      <trkpt lat="52.167854" lon="4.5164447">
        <ele>2700.0</ele>
        <time>2020-09-21T10:45:35Z</time>
      </trkpt>
      <trkpt lat="52.167824" lon="4.516448">
        <ele>2700.0</ele>
        <time>2020-09-21T10:45:36Z</time>
      </trkpt>
      <trkpt lat="52.167786" lon="4.5164514">
        <ele>2700.0</ele>
        <time>2020-09-21T10:45:37Z</time>
      </trkpt>
      <trkpt lat="52.167755" lon="4.5164557">
        <ele>2700.0</ele>
        <time>2020-09-21T10:45:38Z</time>
      </trkpt>
      <trkpt lat="52.167725" lon="4.51646">
        <ele>2700.0</ele>
        <time>2020-09-21T10:45:40Z</time>
      </trkpt>
      <trkpt lat="52.16769" lon="4.5164647">
        <ele>2700.0</ele>
        <time>2020-09-21T10:45:40Z</time>
      </trkpt>
      <trkpt lat="52.167656" lon="4.51647">
        <ele>2700.0</ele>
        <time>2020-09-21T10:45:41Z</time>
      </trkpt>
      <trkpt lat="52.167618" lon="4.5164757">
        <ele>2700.0</ele>
        <time>2020-09-21T10:45:42Z</time>
      </trkpt>
      <trkpt lat="52.167583" lon="4.51648">
        <ele>2700.0</ele>
        <time>2020-09-21T10:45:43Z</time>
      </trkpt>
      <trkpt lat="52.167545" lon="4.516485">
        <ele>2700.0</ele>
        <time>2020-09-21T10:45:44Z</time>
      </trkpt>
      <trkpt lat="52.16751" lon="4.5164933">
        <ele>2700.0</ele>
        <time>2020-09-21T10:45:45Z</time>
      </trkpt>
      <trkpt lat="52.16747" lon="4.516501">
        <ele>2700.0</ele>
        <time>2020-09-21T10:45:46Z</time>
      </trkpt>
      <trkpt lat="52.16744" lon="4.516508">
        <ele>2700.0</ele>
        <time>2020-09-21T10:45:47Z</time>
      </trkpt>
      <trkpt lat="52.167404" lon="4.5165143">
        <ele>2700.0</ele>
        <time>2020-09-21T10:45:48Z</time>
      </trkpt>
      <trkpt lat="52.167366" lon="4.5165205">
        <ele>2700.0</ele>
        <time>2020-09-21T10:45:49Z</time>
      </trkpt>
      <trkpt lat="52.16733" lon="4.5165277">
        <ele>2700.0</ele>
        <time>2020-09-21T10:45:50Z</time>
      </trkpt>
      <trkpt lat="52.167297" lon="4.5165358">
        <ele>2700.0</ele>
        <time>2020-09-21T10:45:51Z</time>
      </trkpt>
      <trkpt lat="52.16726" lon="4.516544">
        <ele>2700.0</ele>
        <time>2020-09-21T10:45:52Z</time>
      </trkpt>
      <trkpt lat="52.16723" lon="4.5165534">
        <ele>2700.0</ele>
        <time>2020-09-21T10:45:53Z</time>
      </trkpt>
      <trkpt lat="52.167194" lon="4.516562">
        <ele>2700.0</ele>
        <time>2020-09-21T10:45:54Z</time>
      </trkpt>
      <trkpt lat="52.167156" lon="4.516567">
        <ele>2700.0</ele>
        <time>2020-09-21T10:45:55Z</time>
      </trkpt>
      <trkpt lat="52.16712" lon="4.516573">
        <ele>2700.0</ele>
        <time>2020-09-21T10:45:56Z</time>
      </trkpt>
      <trkpt lat="52.16708" lon="4.5165777">
        <ele>2700.0</ele>
        <time>2020-09-21T10:45:57Z</time>
      </trkpt>
      <trkpt lat="52.167046" lon="4.5165825">
        <ele>2700.0</ele>
        <time>2020-09-21T10:45:58Z</time>
      </trkpt>
      <trkpt lat="52.167004" lon="4.5165877">
        <ele>2700.0</ele>
        <time>2020-09-21T10:45:59Z</time>
      </trkpt>
      <trkpt lat="52.16696" lon="4.516593">
        <ele>2700.0</ele>
        <time>2020-09-21T10:46:01Z</time>
      </trkpt>
      <trkpt lat="52.166927" lon="4.5166">
        <ele>2700.0</ele>
        <time>2020-09-21T10:46:01Z</time>
      </trkpt>
      <trkpt lat="52.166885" lon="4.51661">
        <ele>2700.0</ele>
        <time>2020-09-21T10:46:02Z</time>
      </trkpt>
      <trkpt lat="52.16685" lon="4.51662">
        <ele>2700.0</ele>
        <time>2020-09-21T10:46:03Z</time>
      </trkpt>
      <trkpt lat="52.166813" lon="4.5166316">
        <ele>2700.0</ele>
        <time>2020-09-21T10:46:04Z</time>
      </trkpt>
      <trkpt lat="52.166782" lon="4.5166464">
        <ele>2700.0</ele>
        <time>2020-09-21T10:46:05Z</time>
      </trkpt>
      <trkpt lat="52.16675" lon="4.5166626">
        <ele>2700.0</ele>
        <time>2020-09-21T10:46:06Z</time>
      </trkpt>
      <trkpt lat="52.16672" lon="4.5166807">
        <ele>2700.0</ele>
        <time>2020-09-21T10:46:07Z</time>
      </trkpt>
      <trkpt lat="52.1667" lon="4.516697">
        <ele>2700.0</ele>
        <time>2020-09-21T10:46:08Z</time>
      </trkpt>
      <trkpt lat="52.16667" lon="4.51671">
        <ele>2700.0</ele>
        <time>2020-09-21T10:46:09Z</time>
      </trkpt>
      <trkpt lat="52.16664" lon="4.516719">
        <ele>2700.0</ele>
        <time>2020-09-21T10:46:10Z</time>
      </trkpt>
      <trkpt lat="52.16661" lon="4.5167227">
        <ele>2700.0</ele>
        <time>2020-09-21T10:46:11Z</time>
      </trkpt>
      <trkpt lat="52.166573" lon="4.516721">
        <ele>2700.0</ele>
        <time>2020-09-21T10:46:12Z</time>
      </trkpt>
      <trkpt lat="52.166542" lon="4.516716">
        <ele>2700.0</ele>
        <time>2020-09-21T10:46:13Z</time>
      </trkpt>
      <trkpt lat="52.166508" lon="4.516707">
        <ele>2700.0</ele>
        <time>2020-09-21T10:46:14Z</time>
      </trkpt>
      <trkpt lat="52.166477" lon="4.5166965">
        <ele>2700.0</ele>
        <time>2020-09-21T10:46:15Z</time>
      </trkpt>
      <trkpt lat="52.16644" lon="4.516686">
        <ele>2700.0</ele>
        <time>2020-09-21T10:46:16Z</time>
      </trkpt>
      <trkpt lat="52.16641" lon="4.516675">
        <ele>2700.0</ele>
        <time>2020-09-21T10:46:18Z</time>
      </trkpt>
      <trkpt lat="52.166386" lon="4.516667">
        <ele>2700.0</ele>
        <time>2020-09-21T10:46:18Z</time>
      </trkpt>
      <trkpt lat="52.166355" lon="4.51666">
        <ele>2700.0</ele>
        <time>2020-09-21T10:46:19Z</time>
      </trkpt>
      <trkpt lat="52.166325" lon="4.516654">
        <ele>2700.0</ele>
        <time>2020-09-21T10:46:20Z</time>
      </trkpt>
      <trkpt lat="52.166298" lon="4.5166483">
        <ele>2700.0</ele>
        <time>2020-09-21T10:46:21Z</time>
      </trkpt>
      <trkpt lat="52.166267" lon="4.5166435">
        <ele>2700.0</ele>
        <time>2020-09-21T10:46:22Z</time>
      </trkpt>
      <trkpt lat="52.166237" lon="4.516638">
        <ele>2700.0</ele>
        <time>2020-09-21T10:46:23Z</time>
      </trkpt>
      <trkpt lat="52.166206" lon="4.5166335">
        <ele>2700.0</ele>
        <time>2020-09-21T10:46:24Z</time>
      </trkpt>
      <trkpt lat="52.166176" lon="4.516629">
        <ele>2700.0</ele>
        <time>2020-09-21T10:46:25Z</time>
      </trkpt>
      <trkpt lat="52.166138" lon="4.516627">
        <ele>2700.0</ele>
        <time>2020-09-21T10:46:27Z</time>
      </trkpt>
      <trkpt lat="52.166103" lon="4.516628">
        <ele>2700.0</ele>
        <time>2020-09-21T10:46:27Z</time>
      </trkpt>
      <trkpt lat="52.166073" lon="4.51663">
        <ele>2700.0</ele>
        <time>2020-09-21T10:46:28Z</time>
      </trkpt>
      <trkpt lat="52.166035" lon="4.5166326">
        <ele>2700.0</ele>
        <time>2020-09-21T10:46:29Z</time>
      </trkpt>
      <trkpt lat="52.166" lon="4.5166354">
        <ele>2700.0</ele>
        <time>2020-09-21T10:46:30Z</time>
      </trkpt>
      <trkpt lat="52.16596" lon="4.516638">
        <ele>2700.0</ele>
        <time>2020-09-21T10:46:31Z</time>
      </trkpt>
      <trkpt lat="52.165928" lon="4.516641">
        <ele>2700.0</ele>
        <time>2020-09-21T10:46:33Z</time>
      </trkpt>
      <trkpt lat="52.165894" lon="4.51664">
        <ele>2700.0</ele>
        <time>2020-09-21T10:46:34Z</time>
      </trkpt>
      <trkpt lat="52.165855" lon="4.5166354">
        <ele>2700.0</ele>
        <time>2020-09-21T10:46:34Z</time>
      </trkpt>
      <trkpt lat="52.16582" lon="4.5166297">
        <ele>2700.0</ele>
        <time>2020-09-21T10:46:35Z</time>
      </trkpt>
      <trkpt lat="52.16579" lon="4.516622">
        <ele>2700.0</ele>
        <time>2020-09-21T10:46:36Z</time>
      </trkpt>
      <trkpt lat="52.165756" lon="4.5166135">
        <ele>2700.0</ele>
        <time>2020-09-21T10:46:37Z</time>
      </trkpt>
      <trkpt lat="52.165726" lon="4.5166054">
        <ele>2700.0</ele>
        <time>2020-09-21T10:46:38Z</time>
      </trkpt>
      <trkpt lat="52.165695" lon="4.516598">
        <ele>2700.0</ele>
        <time>2020-09-21T10:46:39Z</time>
      </trkpt>
      <trkpt lat="52.16566" lon="4.5165906">
        <ele>2700.0</ele>
        <time>2020-09-21T10:46:40Z</time>
      </trkpt>
      <trkpt lat="52.165638" lon="4.5165825">
        <ele>2700.0</ele>
        <time>2020-09-21T10:46:41Z</time>
      </trkpt>
      <trkpt lat="52.16561" lon="4.516573">
        <ele>2700.0</ele>
        <time>2020-09-21T10:46:42Z</time>
      </trkpt>
      <trkpt lat="52.16558" lon="4.5165625">
        <ele>2700.0</ele>
        <time>2020-09-21T10:46:43Z</time>
      </trkpt>
      <trkpt lat="52.165554" lon="4.516551">
        <ele>2700.0</ele>
        <time>2020-09-21T10:46:44Z</time>
      </trkpt>
      <trkpt lat="52.16553" lon="4.516537">
        <ele>2700.0</ele>
        <time>2020-09-21T10:46:45Z</time>
      </trkpt>
      <trkpt lat="52.165504" lon="4.5165234">
        <ele>2700.0</ele>
        <time>2020-09-21T10:46:46Z</time>
      </trkpt>
      <trkpt lat="52.165474" lon="4.516511">
        <ele>2700.0</ele>
        <time>2020-09-21T10:46:47Z</time>
      </trkpt>
      <trkpt lat="52.165447" lon="4.516499">
        <ele>2700.0</ele>
        <time>2020-09-21T10:46:48Z</time>
      </trkpt>
      <trkpt lat="52.165417" lon="4.516487">
        <ele>2700.0</ele>
        <time>2020-09-21T10:46:49Z</time>
      </trkpt>
      <trkpt lat="52.165386" lon="4.516476">
        <ele>2700.0</ele>
        <time>2020-09-21T10:46:50Z</time>
      </trkpt>
      <trkpt lat="52.16536" lon="4.516465">
        <ele>2700.0</ele>
        <time>2020-09-21T10:46:51Z</time>
      </trkpt>
      <trkpt lat="52.16533" lon="4.5164537">
        <ele>2700.0</ele>
        <time>2020-09-21T10:46:52Z</time>
      </trkpt>
      <trkpt lat="52.165306" lon="4.516441">
        <ele>2700.0</ele>
        <time>2020-09-21T10:46:53Z</time>
      </trkpt>
      <trkpt lat="52.16527" lon="4.516426">
        <ele>2700.0</ele>
        <time>2020-09-21T10:46:55Z</time>
      </trkpt>
      <trkpt lat="52.16524" lon="4.5164084">
        <ele>2700.0</ele>
        <time>2020-09-21T10:46:55Z</time>
      </trkpt>
      <trkpt lat="52.16522" lon="4.516388">
        <ele>2700.0</ele>
        <time>2020-09-21T10:46:56Z</time>
      </trkpt>
      <trkpt lat="52.165188" lon="4.516364">
        <ele>2700.0</ele>
        <time>2020-09-21T10:46:57Z</time>
      </trkpt>
      <trkpt lat="52.16516" lon="4.5163393">
        <ele>2700.0</ele>
        <time>2020-09-21T10:46:58Z</time>
      </trkpt>
      <trkpt lat="52.16513" lon="4.516315">
        <ele>2700.0</ele>
        <time>2020-09-21T10:46:59Z</time>
      </trkpt>
      <trkpt lat="52.1651" lon="4.5162916">
        <ele>2700.0</ele>
        <time>2020-09-21T10:47:00Z</time>
      </trkpt>
      <trkpt lat="52.165073" lon="4.516269">
        <ele>2700.0</ele>
        <time>2020-09-21T10:47:01Z</time>
      </trkpt>
      <trkpt lat="52.165043" lon="4.516246">
        <ele>2700.0</ele>
        <time>2020-09-21T10:47:02Z</time>
      </trkpt>
      <trkpt lat="52.165012" lon="4.51622">
        <ele>2700.0</ele>
        <time>2020-09-21T10:47:03Z</time>
      </trkpt>
      <trkpt lat="52.16498" lon="4.516194">
        <ele>2700.0</ele>
        <time>2020-09-21T10:47:04Z</time>
      </trkpt>
      <trkpt lat="52.16495" lon="4.5161686">
        <ele>2700.0</ele>
        <time>2020-09-21T10:47:06Z</time>
      </trkpt>
      <trkpt lat="52.16492" lon="4.516143">
        <ele>2700.0</ele>
        <time>2020-09-21T10:47:06Z</time>
      </trkpt>
      <trkpt lat="52.16489" lon="4.5161195">
        <ele>2700.0</ele>
        <time>2020-09-21T10:47:07Z</time>
      </trkpt>
      <trkpt lat="52.164864" lon="4.516097">
        <ele>2700.0</ele>
        <time>2020-09-21T10:47:08Z</time>
      </trkpt>
      <trkpt lat="52.164833" lon="4.5160756">
        <ele>2700.0</ele>
        <time>2020-09-21T10:47:09Z</time>
      </trkpt>
      <trkpt lat="52.164803" lon="4.5160546">
        <ele>2700.0</ele>
        <time>2020-09-21T10:47:10Z</time>
      </trkpt>
      <trkpt lat="52.164772" lon="4.516033">
        <ele>2700.0</ele>
        <time>2020-09-21T10:47:11Z</time>
      </trkpt>
      <trkpt lat="52.164738" lon="4.516012">
        <ele>2700.0</ele>
        <time>2020-09-21T10:47:12Z</time>
      </trkpt>
      <trkpt lat="52.164707" lon="4.5159903">
        <ele>2700.0</ele>
        <time>2020-09-21T10:47:13Z</time>
      </trkpt>
      <trkpt lat="52.16467" lon="4.5159698">
        <ele>2700.0</ele>
        <time>2020-09-21T10:47:14Z</time>
      </trkpt>
      <trkpt lat="52.164635" lon="4.5159483">
        <ele>2700.0</ele>
        <time>2020-09-21T10:47:16Z</time>
      </trkpt>
      <trkpt lat="52.164604" lon="4.515926">
        <ele>2700.0</ele>
        <time>2020-09-21T10:47:16Z</time>
      </trkpt>
      <trkpt lat="52.164574" lon="4.5159035">
        <ele>2700.0</ele>
        <time>2020-09-21T10:47:17Z</time>
      </trkpt>
      <trkpt lat="52.164547" lon="4.515883">
        <ele>2700.0</ele>
        <time>2020-09-21T10:47:18Z</time>
      </trkpt>
      <trkpt lat="52.164516" lon="4.5158625">
        <ele>2700.0</ele>
        <time>2020-09-21T10:47:19Z</time>
      </trkpt>
      <trkpt lat="52.164486" lon="4.515842">
        <ele>2700.0</ele>
        <time>2020-09-21T10:47:20Z</time>
      </trkpt>
      <trkpt lat="52.16446" lon="4.515823">
        <ele>2700.0</ele>
        <time>2020-09-21T10:47:21Z</time>
      </trkpt>
      <trkpt lat="52.16443" lon="4.5158043">
        <ele>2700.0</ele>
        <time>2020-09-21T10:47:22Z</time>
      </trkpt>
      <trkpt lat="52.164402" lon="4.5157866">
        <ele>2700.0</ele>
        <time>2020-09-21T10:47:23Z</time>
      </trkpt>
      <trkpt lat="52.16438" lon="4.5157657">
        <ele>2700.0</ele>
        <time>2020-09-21T10:47:24Z</time>
      </trkpt>
      <trkpt lat="52.16435" lon="4.5157485">
        <ele>2700.0</ele>
        <time>2020-09-21T10:47:25Z</time>
      </trkpt>
      <trkpt lat="52.16432" lon="4.515735">
        <ele>2700.0</ele>
        <time>2020-09-21T10:47:26Z</time>
      </trkpt>
      <trkpt lat="52.16429" lon="4.515724">
        <ele>2700.0</ele>
        <time>2020-09-21T10:47:27Z</time>
      </trkpt>
      <trkpt lat="52.16426" lon="4.515718">
        <ele>2700.0</ele>
        <time>2020-09-21T10:47:28Z</time>
      </trkpt>
      <trkpt lat="52.164234" lon="4.5157127">
        <ele>2700.0</ele>
        <time>2020-09-21T10:47:29Z</time>
      </trkpt>
      <trkpt lat="52.164207" lon="4.515706">
        <ele>2700.0</ele>
        <time>2020-09-21T10:47:30Z</time>
      </trkpt>
      <trkpt lat="52.164177" lon="4.5156984">
        <ele>2700.0</ele>
        <time>2020-09-21T10:47:31Z</time>
      </trkpt>
      <trkpt lat="52.164154" lon="4.5156913">
        <ele>2700.0</ele>
        <time>2020-09-21T10:47:32Z</time>
      </trkpt>
      <trkpt lat="52.16412" lon="4.515686">
        <ele>2700.0</ele>
        <time>2020-09-21T10:47:34Z</time>
      </trkpt>
      <trkpt lat="52.164097" lon="4.5156827">
        <ele>2700.0</ele>
        <time>2020-09-21T10:47:34Z</time>
      </trkpt>
      <trkpt lat="52.164074" lon="4.51568">
        <ele>2700.0</ele>
        <time>2020-09-21T10:47:35Z</time>
      </trkpt>
      <trkpt lat="52.164055" lon="4.5156775">
        <ele>2700.0</ele>
        <time>2020-09-21T10:47:36Z</time>
      </trkpt>
      <trkpt lat="52.164036" lon="4.515673">
        <ele>2700.0</ele>
        <time>2020-09-21T10:47:37Z</time>
      </trkpt>
      <trkpt lat="52.16401" lon="4.515668">
        <ele>2700.0</ele>
        <time>2020-09-21T10:47:38Z</time>
      </trkpt>
      <trkpt lat="52.163982" lon="4.5156584">
        <ele>2700.0</ele>
        <time>2020-09-21T10:47:39Z</time>
      </trkpt>
      <trkpt lat="52.16395" lon="4.515642">
        <ele>2700.0</ele>
        <time>2020-09-21T10:47:40Z</time>
      </trkpt>
      <trkpt lat="52.163925" lon="4.515622">
        <ele>2700.0</ele>
        <time>2020-09-21T10:47:41Z</time>
      </trkpt>
      <trkpt lat="52.163895" lon="4.515602">
        <ele>2700.0</ele>
        <time>2020-09-21T10:47:42Z</time>
      </trkpt>
      <trkpt lat="52.163864" lon="4.5155826">
        <ele>2700.0</ele>
        <time>2020-09-21T10:47:43Z</time>
      </trkpt>
      <trkpt lat="52.16384" lon="4.515564">
        <ele>2700.0</ele>
        <time>2020-09-21T10:47:44Z</time>
      </trkpt>
      <trkpt lat="52.16381" lon="4.5155487">
        <ele>2700.0</ele>
        <time>2020-09-21T10:47:45Z</time>
      </trkpt>
      <trkpt lat="52.163784" lon="4.515536">
        <ele>2700.0</ele>
        <time>2020-09-21T10:47:46Z</time>
      </trkpt>
      <trkpt lat="52.163754" lon="4.5155234">
        <ele>2700.0</ele>
        <time>2020-09-21T10:47:47Z</time>
      </trkpt>
      <trkpt lat="52.163727" lon="4.5155134">
        <ele>2700.0</ele>
        <time>2020-09-21T10:47:48Z</time>
      </trkpt>
      <trkpt lat="52.163696" lon="4.5155034">
        <ele>2700.0</ele>
        <time>2020-09-21T10:47:49Z</time>
      </trkpt>
      <trkpt lat="52.163666" lon="4.515493">
        <ele>2700.0</ele>
        <time>2020-09-21T10:47:50Z</time>
      </trkpt>
      <trkpt lat="52.163635" lon="4.5154843">
        <ele>2700.0</ele>
        <time>2020-09-21T10:47:51Z</time>
      </trkpt>
      <trkpt lat="52.163605" lon="4.5154753">
        <ele>2700.0</ele>
        <time>2020-09-21T10:47:52Z</time>
      </trkpt>
      <trkpt lat="52.16357" lon="4.5154667">
        <ele>2700.0</ele>
        <time>2020-09-21T10:47:53Z</time>
      </trkpt>
      <trkpt lat="52.163536" lon="4.51546">
        <ele>2700.0</ele>
        <time>2020-09-21T10:47:55Z</time>
      </trkpt>
      <trkpt lat="52.1635" lon="4.515456">
        <ele>2700.0</ele>
        <time>2020-09-21T10:47:55Z</time>
      </trkpt>
      <trkpt lat="52.163467" lon="4.5154533">
        <ele>2700.0</ele>
        <time>2020-09-21T10:47:56Z</time>
      </trkpt>
      <trkpt lat="52.16343" lon="4.5154514">
        <ele>2700.0</ele>
        <time>2020-09-21T10:47:57Z</time>
      </trkpt>
      <trkpt lat="52.1634" lon="4.5154505">
        <ele>2700.0</ele>
        <time>2020-09-21T10:47:58Z</time>
      </trkpt>
      <trkpt lat="52.163364" lon="4.5154505">
        <ele>2700.0</ele>
        <time>2020-09-21T10:47:59Z</time>
      </trkpt>
      <trkpt lat="52.163334" lon="4.5154495">
        <ele>2700.0</ele>
        <time>2020-09-21T10:48:00Z</time>
      </trkpt>
      <trkpt lat="52.163303" lon="4.515448">
        <ele>2700.0</ele>
        <time>2020-09-21T10:48:01Z</time>
      </trkpt>
      <trkpt lat="52.163265" lon="4.5154486">
        <ele>2700.0</ele>
        <time>2020-09-21T10:48:02Z</time>
      </trkpt>
      <trkpt lat="52.16323" lon="4.5154476">
        <ele>2700.0</ele>
        <time>2020-09-21T10:48:03Z</time>
      </trkpt>
      <trkpt lat="52.163197" lon="4.5154476">
        <ele>2700.0</ele>
        <time>2020-09-21T10:48:04Z</time>
      </trkpt>
      <trkpt lat="52.163155" lon="4.515447">
        <ele>2700.0</ele>
        <time>2020-09-21T10:48:05Z</time>
      </trkpt>
      <trkpt lat="52.163116" lon="4.5154476">
        <ele>2700.0</ele>
        <time>2020-09-21T10:48:06Z</time>
      </trkpt>
      <trkpt lat="52.163082" lon="4.5154486">
        <ele>2700.0</ele>
        <time>2020-09-21T10:48:07Z</time>
      </trkpt>
      <trkpt lat="52.16305" lon="4.515449">
        <ele>2700.0</ele>
        <time>2020-09-21T10:48:08Z</time>
      </trkpt>
      <trkpt lat="52.163017" lon="4.51545">
        <ele>2700.0</ele>
        <time>2020-09-21T10:48:09Z</time>
      </trkpt>
      <trkpt lat="52.16298" lon="4.515449">
        <ele>2700.0</ele>
        <time>2020-09-21T10:48:10Z</time>
      </trkpt>
      <trkpt lat="52.162945" lon="4.5154505">
        <ele>2700.0</ele>
        <time>2020-09-21T10:48:11Z</time>
      </trkpt>
      <trkpt lat="52.162907" lon="4.515454">
        <ele>2700.0</ele>
        <time>2020-09-21T10:48:11Z</time>
      </trkpt>
      <trkpt lat="52.162876" lon="4.5154552">
        <ele>2700.0</ele>
        <time>2020-09-21T10:48:12Z</time>
      </trkpt>
      <trkpt lat="52.162846" lon="4.515453">
        <ele>2700.0</ele>
        <time>2020-09-21T10:48:13Z</time>
      </trkpt>
      <trkpt lat="52.16281" lon="4.515449">
        <ele>2700.0</ele>
        <time>2020-09-21T10:48:15Z</time>
      </trkpt>
      <trkpt lat="52.16278" lon="4.5154443">
        <ele>2700.0</ele>
        <time>2020-09-21T10:48:15Z</time>
      </trkpt>
      <trkpt lat="52.162754" lon="4.51544">
        <ele>2700.0</ele>
        <time>2020-09-21T10:48:16Z</time>
      </trkpt>
      <trkpt lat="52.162727" lon="4.5154366">
        <ele>2700.0</ele>
        <time>2020-09-21T10:48:17Z</time>
      </trkpt>
      <trkpt lat="52.162704" lon="4.515434">
        <ele>2700.0</ele>
        <time>2020-09-21T10:48:18Z</time>
      </trkpt>
      <trkpt lat="52.162674" lon="4.515431">
        <ele>2700.0</ele>
        <time>2020-09-21T10:48:19Z</time>
      </trkpt>
      <trkpt lat="52.162647" lon="4.5154285">
        <ele>2700.0</ele>
        <time>2020-09-21T10:48:20Z</time>
      </trkpt>
      <trkpt lat="52.16262" lon="4.5154266">
        <ele>2700.0</ele>
        <time>2020-09-21T10:48:21Z</time>
      </trkpt>
      <trkpt lat="52.16259" lon="4.515423">
        <ele>2700.0</ele>
        <time>2020-09-21T10:48:22Z</time>
      </trkpt>
      <trkpt lat="52.162563" lon="4.515421">
        <ele>2700.0</ele>
        <time>2020-09-21T10:48:23Z</time>
      </trkpt>
      <trkpt lat="52.16254" lon="4.515419">
        <ele>2700.0</ele>
        <time>2020-09-21T10:48:25Z</time>
      </trkpt>
      <trkpt lat="52.162514" lon="4.5154185">
        <ele>2700.0</ele>
        <time>2020-09-21T10:48:25Z</time>
      </trkpt>
      <trkpt lat="52.162483" lon="4.5154176">
        <ele>2700.0</ele>
        <time>2020-09-21T10:48:26Z</time>
      </trkpt>
      <trkpt lat="52.162457" lon="4.515417">
        <ele>2700.0</ele>
        <time>2020-09-21T10:48:27Z</time>
      </trkpt>
      <trkpt lat="52.162434" lon="4.515416">
        <ele>2700.0</ele>
        <time>2020-09-21T10:48:28Z</time>
      </trkpt>
      <trkpt lat="52.162407" lon="4.515413">
        <ele>2700.0</ele>
        <time>2020-09-21T10:48:29Z</time>
      </trkpt>
      <trkpt lat="52.16238" lon="4.5154085">
        <ele>2700.0</ele>
        <time>2020-09-21T10:48:30Z</time>
      </trkpt>
      <trkpt lat="52.16236" lon="4.5154047">
        <ele>2800.0</ele>
        <time>2020-09-21T10:48:31Z</time>
      </trkpt>
      <trkpt lat="52.162334" lon="4.515402">
        <ele>2800.0</ele>
        <time>2020-09-21T10:48:32Z</time>
      </trkpt>
      <trkpt lat="52.162304" lon="4.5154">
        <ele>2800.0</ele>
        <time>2020-09-21T10:48:33Z</time>
      </trkpt>
      <trkpt lat="52.162277" lon="4.5153975">
        <ele>2800.0</ele>
        <time>2020-09-21T10:48:34Z</time>
      </trkpt>
      <trkpt lat="52.16226" lon="4.515395">
        <ele>2800.0</ele>
        <time>2020-09-21T10:48:35Z</time>
      </trkpt>
      <trkpt lat="52.16223" lon="4.5153937">
        <ele>2800.0</ele>
        <time>2020-09-21T10:48:36Z</time>
      </trkpt>
      <trkpt lat="52.162212" lon="4.5153933">
        <ele>2800.0</ele>
        <time>2020-09-21T10:48:37Z</time>
      </trkpt>
      <trkpt lat="52.16219" lon="4.515393">
        <ele>2800.0</ele>
        <time>2020-09-21T10:48:38Z</time>
      </trkpt>
      <trkpt lat="52.16217" lon="4.5153913">
        <ele>2800.0</ele>
        <time>2020-09-21T10:48:39Z</time>
      </trkpt>
      <trkpt lat="52.162155" lon="4.515388">
        <ele>2800.0</ele>
        <time>2020-09-21T10:48:40Z</time>
      </trkpt>
      <trkpt lat="52.162136" lon="4.515384">
        <ele>2800.0</ele>
        <time>2020-09-21T10:48:41Z</time>
      </trkpt>
      <trkpt lat="52.16211" lon="4.5153794">
        <ele>2800.0</ele>
        <time>2020-09-21T10:48:43Z</time>
      </trkpt>
      <trkpt lat="52.16209" lon="4.5153747">
        <ele>2800.0</ele>
        <time>2020-09-21T10:48:43Z</time>
      </trkpt>
      <trkpt lat="52.162067" lon="4.5153704">
        <ele>2800.0</ele>
        <time>2020-09-21T10:48:44Z</time>
      </trkpt>
      <trkpt lat="52.162045" lon="4.515366">
        <ele>2800.0</ele>
        <time>2020-09-21T10:48:45Z</time>
      </trkpt>
      <trkpt lat="52.16202" lon="4.515362">
        <ele>2800.0</ele>
        <time>2020-09-21T10:48:46Z</time>
      </trkpt>
      <trkpt lat="52.161995" lon="4.5153575">
        <ele>2800.0</ele>
        <time>2020-09-21T10:48:47Z</time>
      </trkpt>
      <trkpt lat="52.161972" lon="4.515352">
        <ele>2800.0</ele>
        <time>2020-09-21T10:48:48Z</time>
      </trkpt>
      <trkpt lat="52.161945" lon="4.5153475">
        <ele>2800.0</ele>
        <time>2020-09-21T10:48:49Z</time>
      </trkpt>
      <trkpt lat="52.16192" lon="4.515343">
        <ele>2800.0</ele>
        <time>2020-09-21T10:48:50Z</time>
      </trkpt>
      <trkpt lat="52.161896" lon="4.5153403">
        <ele>2800.0</ele>
        <time>2020-09-21T10:48:51Z</time>
      </trkpt>
      <trkpt lat="52.161865" lon="4.5153375">
        <ele>2800.0</ele>
        <time>2020-09-21T10:48:52Z</time>
      </trkpt>
      <trkpt lat="52.161835" lon="4.5153346">
        <ele>2800.0</ele>
        <time>2020-09-21T10:48:54Z</time>
      </trkpt>
      <trkpt lat="52.161808" lon="4.5153327">
        <ele>2800.0</ele>
        <time>2020-09-21T10:48:54Z</time>
      </trkpt>
      <trkpt lat="52.161777" lon="4.515331">
        <ele>2800.0</ele>
        <time>2020-09-21T10:48:55Z</time>
      </trkpt>
      <trkpt lat="52.16175" lon="4.5153246">
        <ele>2800.0</ele>
        <time>2020-09-21T10:48:56Z</time>
      </trkpt>
      <trkpt lat="52.161724" lon="4.5153165">
        <ele>2800.0</ele>
        <time>2020-09-21T10:48:57Z</time>
      </trkpt>
      <trkpt lat="52.161694" lon="4.5153065">
        <ele>2800.0</ele>
        <time>2020-09-21T10:48:58Z</time>
      </trkpt>
      <trkpt lat="52.161663" lon="4.5153008">
        <ele>2800.0</ele>
        <time>2020-09-21T10:48:59Z</time>
      </trkpt>
      <trkpt lat="52.161633" lon="4.5152955">
        <ele>2800.0</ele>
        <time>2020-09-21T10:49:00Z</time>
      </trkpt>
      <trkpt lat="52.161606" lon="4.515291">
        <ele>2800.0</ele>
        <time>2020-09-21T10:49:01Z</time>
      </trkpt>
      <trkpt lat="52.161583" lon="4.5152903">
        <ele>2800.0</ele>
        <time>2020-09-21T10:49:02Z</time>
      </trkpt>
      <trkpt lat="52.161552" lon="4.5152907">
        <ele>2800.0</ele>
        <time>2020-09-21T10:49:04Z</time>
      </trkpt>
      <trkpt lat="52.161526" lon="4.5152926">
        <ele>2800.0</ele>
        <time>2020-09-21T10:49:04Z</time>
      </trkpt>
      <trkpt lat="52.161495" lon="4.5152974">
        <ele>2800.0</ele>
        <time>2020-09-21T10:49:05Z</time>
      </trkpt>
      <trkpt lat="52.16147" lon="4.5153003">
        <ele>2800.0</ele>
        <time>2020-09-21T10:49:06Z</time>
      </trkpt>
      <trkpt lat="52.161446" lon="4.515305">
        <ele>2800.0</ele>
        <time>2020-09-21T10:49:07Z</time>
      </trkpt>
      <trkpt lat="52.16142" lon="4.5153093">
        <ele>2800.0</ele>
        <time>2020-09-21T10:49:08Z</time>
      </trkpt>
      <trkpt lat="52.161392" lon="4.515314">
        <ele>2800.0</ele>
        <time>2020-09-21T10:49:09Z</time>
      </trkpt>
      <trkpt lat="52.161366" lon="4.515321">
        <ele>2800.0</ele>
        <time>2020-09-21T10:49:10Z</time>
      </trkpt>
      <trkpt lat="52.161343" lon="4.5153275">
        <ele>2900.0</ele>
        <time>2020-09-21T10:49:11Z</time>
      </trkpt>
      <trkpt lat="52.16132" lon="4.5153317">
        <ele>2900.0</ele>
        <time>2020-09-21T10:49:12Z</time>
      </trkpt>
      <trkpt lat="52.161297" lon="4.5153327">
        <ele>2900.0</ele>
        <time>2020-09-21T10:49:13Z</time>
      </trkpt>
      <trkpt lat="52.161274" lon="4.515334">
        <ele>2900.0</ele>
        <time>2020-09-21T10:49:14Z</time>
      </trkpt>
      <trkpt lat="52.16126" lon="4.515337">
        <ele>2900.0</ele>
        <time>2020-09-21T10:49:15Z</time>
      </trkpt>
      <trkpt lat="52.161243" lon="4.5153403">
        <ele>2900.0</ele>
        <time>2020-09-21T10:49:16Z</time>
      </trkpt>
      <trkpt lat="52.16124" lon="4.515345">
        <ele>2900.0</ele>
        <time>2020-09-21T10:49:17Z</time>
      </trkpt>
      <trkpt lat="52.16123" lon="4.515349">
        <ele>2900.0</ele>
        <time>2020-09-21T10:49:18Z</time>
      </trkpt>
      <trkpt lat="52.16123" lon="4.5153527">
        <ele>2900.0</ele>
        <time>2020-09-21T10:49:19Z</time>
      </trkpt>
      <trkpt lat="52.161224" lon="4.515357">
        <ele>2900.0</ele>
        <time>2020-09-21T10:49:20Z</time>
      </trkpt>
      <trkpt lat="52.161224" lon="4.515358">
        <ele>2900.0</ele>
        <time>2020-09-21T10:49:21Z</time>
      </trkpt>
      <trkpt lat="52.161224" lon="4.515358">
        <ele>2900.0</ele>
        <time>2020-09-21T10:49:22Z</time>
      </trkpt>
      <trkpt lat="52.161217" lon="4.515356">
        <ele>2900.0</ele>
        <time>2020-09-21T10:49:23Z</time>
      </trkpt>
      <trkpt lat="52.16121" lon="4.5153527">
        <ele>2900.0</ele>
        <time>2020-09-21T10:49:25Z</time>
      </trkpt>
      <trkpt lat="52.161198" lon="4.5153503">
        <ele>2900.0</ele>
        <time>2020-09-21T10:49:25Z</time>
      </trkpt>
      <trkpt lat="52.161182" lon="4.5153484">
        <ele>2900.0</ele>
        <time>2020-09-21T10:49:26Z</time>
      </trkpt>
      <trkpt lat="52.161163" lon="4.515348">
        <ele>2900.0</ele>
        <time>2020-09-21T10:49:27Z</time>
      </trkpt>
      <trkpt lat="52.16114" lon="4.515347">
        <ele>2900.0</ele>
        <time>2020-09-21T10:49:28Z</time>
      </trkpt>
      <trkpt lat="52.16112" lon="4.515349">
        <ele>2900.0</ele>
        <time>2020-09-21T10:49:29Z</time>
      </trkpt>
      <trkpt lat="52.161095" lon="4.515353">
        <ele>2900.0</ele>
        <time>2020-09-21T10:49:30Z</time>
      </trkpt>
      <trkpt lat="52.161076" lon="4.515359">
        <ele>2900.0</ele>
        <time>2020-09-21T10:49:31Z</time>
      </trkpt>
      <trkpt lat="52.161057" lon="4.5153646">
        <ele>2900.0</ele>
        <time>2020-09-21T10:49:32Z</time>
      </trkpt>
      <trkpt lat="52.161034" lon="4.5153704">
        <ele>2900.0</ele>
        <time>2020-09-21T10:49:33Z</time>
      </trkpt>
      <trkpt lat="52.161015" lon="4.515374">
        <ele>2900.0</ele>
        <time>2020-09-21T10:49:34Z</time>
      </trkpt>
      <trkpt lat="52.16099" lon="4.515375">
        <ele>2900.0</ele>
        <time>2020-09-21T10:49:35Z</time>
      </trkpt>
      <trkpt lat="52.160973" lon="4.515375">
        <ele>2900.0</ele>
        <time>2020-09-21T10:49:36Z</time>
      </trkpt>
      <trkpt lat="52.160954" lon="4.5153704">
        <ele>2900.0</ele>
        <time>2020-09-21T10:49:37Z</time>
      </trkpt>
      <trkpt lat="52.16093" lon="4.515362">
        <ele>2900.0</ele>
        <time>2020-09-21T10:49:38Z</time>
      </trkpt>
      <trkpt lat="52.160915" lon="4.5153527">
        <ele>2900.0</ele>
        <time>2020-09-21T10:49:39Z</time>
      </trkpt>
      <trkpt lat="52.160908" lon="4.515346">
        <ele>2900.0</ele>
        <time>2020-09-21T10:49:40Z</time>
      </trkpt>
      <trkpt lat="52.160896" lon="4.5153413">
        <ele>2900.0</ele>
        <time>2020-09-21T10:49:41Z</time>
      </trkpt>
      <trkpt lat="52.160892" lon="4.5153365">
        <ele>2900.0</ele>
        <time>2020-09-21T10:49:42Z</time>
      </trkpt>
      <trkpt lat="52.160885" lon="4.515333">
        <ele>2900.0</ele>
        <time>2020-09-21T10:49:43Z</time>
      </trkpt>
      <trkpt lat="52.16087" lon="4.515336">
        <ele>2900.0</ele>
        <time>2020-09-21T10:49:45Z</time>
      </trkpt>
      <trkpt lat="52.160866" lon="4.5153365">
        <ele>2900.0</ele>
        <time>2020-09-21T10:49:46Z</time>
      </trkpt>
      <trkpt lat="52.160866" lon="4.5153384">
        <ele>2900.0</ele>
        <time>2020-09-21T10:49:47Z</time>
      </trkpt>
      <trkpt lat="52.160862" lon="4.5153384">
        <ele>2900.0</ele>
        <time>2020-09-21T10:49:48Z</time>
      </trkpt>
      <trkpt lat="52.160854" lon="4.5153365">
        <ele>2900.0</ele>
        <time>2020-09-21T10:49:49Z</time>
      </trkpt>
      <trkpt lat="52.16085" lon="4.515331">
        <ele>2900.0</ele>
        <time>2020-09-21T10:49:50Z</time>
      </trkpt>
      <trkpt lat="52.16084" lon="4.5153236">
        <ele>2900.0</ele>
        <time>2020-09-21T10:49:51Z</time>
      </trkpt>
      <trkpt lat="52.160835" lon="4.515317">
        <ele>2900.0</ele>
        <time>2020-09-21T10:49:52Z</time>
      </trkpt>
      <trkpt lat="52.160828" lon="4.515314">
        <ele>2900.0</ele>
        <time>2020-09-21T10:49:53Z</time>
      </trkpt>
      <trkpt lat="52.160824" lon="4.515314">
        <ele>2900.0</ele>
        <time>2020-09-21T10:49:54Z</time>
      </trkpt>
      <trkpt lat="52.160824" lon="4.515316">
        <ele>2900.0</ele>
        <time>2020-09-21T10:49:55Z</time>
      </trkpt>
      <trkpt lat="52.16082" lon="4.51532">
        <ele>2900.0</ele>
        <time>2020-09-21T10:49:56Z</time>
      </trkpt>
      <trkpt lat="52.160812" lon="4.5153246">
        <ele>2900.0</ele>
        <time>2020-09-21T10:49:58Z</time>
      </trkpt>
      <trkpt lat="52.16081" lon="4.5153346">
        <ele>2900.0</ele>
        <time>2020-09-21T10:49:58Z</time>
      </trkpt>
      <trkpt lat="52.160797" lon="4.515352">
        <ele>2900.0</ele>
        <time>2020-09-21T10:49:59Z</time>
      </trkpt>
      <trkpt lat="52.16078" lon="4.5153747">
        <ele>2900.0</ele>
        <time>2020-09-21T10:50:00Z</time>
      </trkpt>
      <trkpt lat="52.160767" lon="4.5154">
        <ele>2900.0</ele>
        <time>2020-09-21T10:50:01Z</time>
      </trkpt>
      <trkpt lat="52.160748" lon="4.5154305">
        <ele>2900.0</ele>
        <time>2020-09-21T10:50:02Z</time>
      </trkpt>
      <trkpt lat="52.16072" lon="4.5154634">
        <ele>2900.0</ele>
        <time>2020-09-21T10:50:03Z</time>
      </trkpt>
      <trkpt lat="52.1607" lon="4.5155">
        <ele>2900.0</ele>
        <time>2020-09-21T10:50:04Z</time>
      </trkpt>
      <trkpt lat="52.160675" lon="4.5155373">
        <ele>2900.0</ele>
        <time>2020-09-21T10:50:05Z</time>
      </trkpt>
      <trkpt lat="52.160656" lon="4.515575">
        <ele>2900.0</ele>
        <time>2020-09-21T10:50:06Z</time>
      </trkpt>
      <trkpt lat="52.16063" lon="4.5156155">
        <ele>2900.0</ele>
        <time>2020-09-21T10:50:08Z</time>
      </trkpt>
      <trkpt lat="52.160603" lon="4.5156546">
        <ele>2900.0</ele>
        <time>2020-09-21T10:50:08Z</time>
      </trkpt>
      <trkpt lat="52.16058" lon="4.5156965">
        <ele>2900.0</ele>
        <time>2020-09-21T10:50:09Z</time>
      </trkpt>
      <trkpt lat="52.160553" lon="4.5157347">
        <ele>2900.0</ele>
        <time>2020-09-21T10:50:10Z</time>
      </trkpt>
      <trkpt lat="52.160534" lon="4.5157733">
        <ele>2900.0</ele>
        <time>2020-09-21T10:50:11Z</time>
      </trkpt>
      <trkpt lat="52.160507" lon="4.5158124">
        <ele>2900.0</ele>
        <time>2020-09-21T10:50:12Z</time>
      </trkpt>
      <trkpt lat="52.16049" lon="4.5158515">
        <ele>2900.0</ele>
        <time>2020-09-21T10:50:13Z</time>
      </trkpt>
      <trkpt lat="52.16046" lon="4.51589">
        <ele>2900.0</ele>
        <time>2020-09-21T10:50:14Z</time>
      </trkpt>
      <trkpt lat="52.16044" lon="4.5159297">
        <ele>2900.0</ele>
        <time>2020-09-21T10:50:15Z</time>
      </trkpt>
      <trkpt lat="52.160416" lon="4.515965">
        <ele>2900.0</ele>
        <time>2020-09-21T10:50:16Z</time>
      </trkpt>
      <trkpt lat="52.160393" lon="4.515998">
        <ele>2900.0</ele>
        <time>2020-09-21T10:50:17Z</time>
      </trkpt>
      <trkpt lat="52.16037" lon="4.5160317">
        <ele>2900.0</ele>
        <time>2020-09-21T10:50:19Z</time>
      </trkpt>
      <trkpt lat="52.160347" lon="4.5160627">
        <ele>2900.0</ele>
        <time>2020-09-21T10:50:19Z</time>
      </trkpt>
      <trkpt lat="52.160324" lon="4.516097">
        <ele>2900.0</ele>
        <time>2020-09-21T10:50:20Z</time>
      </trkpt>
      <trkpt lat="52.1603" lon="4.5161304">
        <ele>2900.0</ele>
        <time>2020-09-21T10:50:21Z</time>
      </trkpt>
      <trkpt lat="52.160282" lon="4.5161657">
        <ele>2900.0</ele>
        <time>2020-09-21T10:50:22Z</time>
      </trkpt>
      <trkpt lat="52.16026" lon="4.5162005">
        <ele>2900.0</ele>
        <time>2020-09-21T10:50:23Z</time>
      </trkpt>
      <trkpt lat="52.160236" lon="4.5162373">
        <ele>2900.0</ele>
        <time>2020-09-21T10:50:24Z</time>
      </trkpt>
      <trkpt lat="52.160213" lon="4.5162735">
        <ele>2900.0</ele>
        <time>2020-09-21T10:50:25Z</time>
      </trkpt>
      <trkpt lat="52.160194" lon="4.5163064">
        <ele>2900.0</ele>
        <time>2020-09-21T10:50:26Z</time>
      </trkpt>
      <trkpt lat="52.160175" lon="4.51634">
        <ele>2900.0</ele>
        <time>2020-09-21T10:50:27Z</time>
      </trkpt>
      <trkpt lat="52.16015" lon="4.5163746">
        <ele>2900.0</ele>
        <time>2020-09-21T10:50:28Z</time>
      </trkpt>
      <trkpt lat="52.16013" lon="4.5164123">
        <ele>2900.0</ele>
        <time>2020-09-21T10:50:29Z</time>
      </trkpt>
      <trkpt lat="52.160103" lon="4.5164466">
        <ele>2900.0</ele>
        <time>2020-09-21T10:50:30Z</time>
      </trkpt>
      <trkpt lat="52.160076" lon="4.5164833">
        <ele>2900.0</ele>
        <time>2020-09-21T10:50:31Z</time>
      </trkpt>
      <trkpt lat="52.160057" lon="4.5165205">
        <ele>2900.0</ele>
        <time>2020-09-21T10:50:32Z</time>
      </trkpt>
      <trkpt lat="52.16003" lon="4.5165563">
        <ele>2900.0</ele>
        <time>2020-09-21T10:50:33Z</time>
      </trkpt>
      <trkpt lat="52.160004" lon="4.5165915">
        <ele>2900.0</ele>
        <time>2020-09-21T10:50:34Z</time>
      </trkpt>
      <trkpt lat="52.15998" lon="4.5166273">
        <ele>2900.0</ele>
        <time>2020-09-21T10:50:35Z</time>
      </trkpt>
      <trkpt lat="52.159958" lon="4.5166597">
        <ele>2900.0</ele>
        <time>2020-09-21T10:50:37Z</time>
      </trkpt>
      <trkpt lat="52.159935" lon="4.5166945">
        <ele>2900.0</ele>
        <time>2020-09-21T10:50:37Z</time>
      </trkpt>
      <trkpt lat="52.159912" lon="4.5167255">
        <ele>2900.0</ele>
        <time>2020-09-21T10:50:38Z</time>
      </trkpt>
      <trkpt lat="52.15989" lon="4.516756">
        <ele>2900.0</ele>
        <time>2020-09-21T10:50:39Z</time>
      </trkpt>
      <trkpt lat="52.159866" lon="4.516788">
        <ele>2900.0</ele>
        <time>2020-09-21T10:50:40Z</time>
      </trkpt>
      <trkpt lat="52.15984" lon="4.5168185">
        <ele>2900.0</ele>
        <time>2020-09-21T10:50:41Z</time>
      </trkpt>
      <trkpt lat="52.15982" lon="4.516849">
        <ele>2900.0</ele>
        <time>2020-09-21T10:50:42Z</time>
      </trkpt>
      <trkpt lat="52.1598" lon="4.516877">
        <ele>2900.0</ele>
        <time>2020-09-21T10:50:43Z</time>
      </trkpt>
      <trkpt lat="52.159786" lon="4.5169053">
        <ele>2900.0</ele>
        <time>2020-09-21T10:50:44Z</time>
      </trkpt>
      <trkpt lat="52.159763" lon="4.5169325">
        <ele>2900.0</ele>
        <time>2020-09-21T10:50:45Z</time>
      </trkpt>
      <trkpt lat="52.159744" lon="4.5169616">
        <ele>2900.0</ele>
        <time>2020-09-21T10:50:47Z</time>
      </trkpt>
      <trkpt lat="52.159725" lon="4.5169907">
        <ele>2900.0</ele>
        <time>2020-09-21T10:50:47Z</time>
      </trkpt>
      <trkpt lat="52.159702" lon="4.517021">
        <ele>2900.0</ele>
        <time>2020-09-21T10:50:48Z</time>
      </trkpt>
      <trkpt lat="52.159683" lon="4.5170536">
        <ele>2900.0</ele>
        <time>2020-09-21T10:50:49Z</time>
      </trkpt>
      <trkpt lat="52.15966" lon="4.517088">
        <ele>2900.0</ele>
        <time>2020-09-21T10:50:50Z</time>
      </trkpt>
      <trkpt lat="52.159645" lon="4.51712">
        <ele>2900.0</ele>
        <time>2020-09-21T10:50:51Z</time>
      </trkpt>
      <trkpt lat="52.159626" lon="4.517152">
        <ele>2900.0</ele>
        <time>2020-09-21T10:50:52Z</time>
      </trkpt>
      <trkpt lat="52.159607" lon="4.5171847">
        <ele>2900.0</ele>
        <time>2020-09-21T10:50:53Z</time>
      </trkpt>
      <trkpt lat="52.159584" lon="4.517218">
        <ele>2900.0</ele>
        <time>2020-09-21T10:50:54Z</time>
      </trkpt>
      <trkpt lat="52.159565" lon="4.51725">
        <ele>2900.0</ele>
        <time>2020-09-21T10:50:55Z</time>
      </trkpt>
      <trkpt lat="52.159546" lon="4.5172815">
        <ele>2900.0</ele>
        <time>2020-09-21T10:50:56Z</time>
      </trkpt>
      <trkpt lat="52.15952" lon="4.517313">
        <ele>2900.0</ele>
        <time>2020-09-21T10:50:57Z</time>
      </trkpt>
      <trkpt lat="52.1595" lon="4.5173445">
        <ele>2900.0</ele>
        <time>2020-09-21T10:50:58Z</time>
      </trkpt>
      <trkpt lat="52.159477" lon="4.5173755">
        <ele>2900.0</ele>
        <time>2020-09-21T10:50:59Z</time>
      </trkpt>
      <trkpt lat="52.15946" lon="4.51741">
        <ele>2900.0</ele>
        <time>2020-09-21T10:51:00Z</time>
      </trkpt>
      <trkpt lat="52.159435" lon="4.5174417">
        <ele>2900.0</ele>
        <time>2020-09-21T10:51:01Z</time>
      </trkpt>
      <trkpt lat="52.159416" lon="4.5174766">
        <ele>2900.0</ele>
        <time>2020-09-21T10:51:02Z</time>
      </trkpt>
      <trkpt lat="52.15939" lon="4.517512">
        <ele>2900.0</ele>
        <time>2020-09-21T10:51:03Z</time>
      </trkpt>
      <trkpt lat="52.15937" lon="4.517549">
        <ele>2900.0</ele>
        <time>2020-09-21T10:51:04Z</time>
      </trkpt>
      <trkpt lat="52.159344" lon="4.5175867">
        <ele>2900.0</ele>
        <time>2020-09-21T10:51:05Z</time>
      </trkpt>
      <trkpt lat="52.15932" lon="4.5176277">
        <ele>2900.0</ele>
        <time>2020-09-21T10:51:06Z</time>
      </trkpt>
      <trkpt lat="52.159294" lon="4.5176654">
        <ele>2900.0</ele>
        <time>2020-09-21T10:51:07Z</time>
      </trkpt>
      <trkpt lat="52.159267" lon="4.5177035">
        <ele>2900.0</ele>
        <time>2020-09-21T10:51:08Z</time>
      </trkpt>
      <trkpt lat="52.15924" lon="4.5177436">
        <ele>2900.0</ele>
        <time>2020-09-21T10:51:09Z</time>
      </trkpt>
      <trkpt lat="52.159218" lon="4.5177846">
        <ele>2900.0</ele>
        <time>2020-09-21T10:51:10Z</time>
      </trkpt>
      <trkpt lat="52.15919" lon="4.517825">
        <ele>2900.0</ele>
        <time>2020-09-21T10:51:11Z</time>
      </trkpt>
      <trkpt lat="52.159164" lon="4.5178666">
        <ele>2900.0</ele>
        <time>2020-09-21T10:51:12Z</time>
      </trkpt>
      <trkpt lat="52.159134" lon="4.5179095">
        <ele>2900.0</ele>
        <time>2020-09-21T10:51:13Z</time>
      </trkpt>
      <trkpt lat="52.15911" lon="4.517951">
        <ele>2900.0</ele>
        <time>2020-09-21T10:51:14Z</time>
      </trkpt>
      <trkpt lat="52.159084" lon="4.517996">
        <ele>2900.0</ele>
        <time>2020-09-21T10:51:15Z</time>
      </trkpt>
      <trkpt lat="52.159058" lon="4.518038">
        <ele>2900.0</ele>
        <time>2020-09-21T10:51:16Z</time>
      </trkpt>
      <trkpt lat="52.159027" lon="4.5180817">
        <ele>2900.0</ele>
        <time>2020-09-21T10:51:17Z</time>
      </trkpt>
      <trkpt lat="52.159" lon="4.5181246">
        <ele>2900.0</ele>
        <time>2020-09-21T10:51:19Z</time>
      </trkpt>
      <trkpt lat="52.15897" lon="4.5181665">
        <ele>2900.0</ele>
        <time>2020-09-21T10:51:19Z</time>
      </trkpt>
      <trkpt lat="52.158947" lon="4.518206">
        <ele>2900.0</ele>
        <time>2020-09-21T10:51:20Z</time>
      </trkpt>
      <trkpt lat="52.158924" lon="4.5182457">
        <ele>2900.0</ele>
        <time>2020-09-21T10:51:21Z</time>
      </trkpt>
      <trkpt lat="52.158897" lon="4.5182858">
        <ele>2900.0</ele>
        <time>2020-09-21T10:51:22Z</time>
      </trkpt>
      <trkpt lat="52.158875" lon="4.5183253">
        <ele>2900.0</ele>
        <time>2020-09-21T10:51:23Z</time>
      </trkpt>
      <trkpt lat="52.158848" lon="4.5183654">
        <ele>2900.0</ele>
        <time>2020-09-21T10:51:24Z</time>
      </trkpt>
      <trkpt lat="52.158817" lon="4.518405">
        <ele>2900.0</ele>
        <time>2020-09-21T10:51:25Z</time>
      </trkpt>
      <trkpt lat="52.15879" lon="4.5184436">
        <ele>2900.0</ele>
        <time>2020-09-21T10:51:26Z</time>
      </trkpt>
      <trkpt lat="52.158768" lon="4.5184803">
        <ele>2900.0</ele>
        <time>2020-09-21T10:51:27Z</time>
      </trkpt>
      <trkpt lat="52.15874" lon="4.5185194">
        <ele>2900.0</ele>
        <time>2020-09-21T10:51:28Z</time>
      </trkpt>
      <trkpt lat="52.15872" lon="4.5185566">
        <ele>2900.0</ele>
        <time>2020-09-21T10:51:29Z</time>
      </trkpt>
      <trkpt lat="52.158695" lon="4.518594">
        <ele>2900.0</ele>
        <time>2020-09-21T10:51:30Z</time>
      </trkpt>
      <trkpt lat="52.158672" lon="4.5186315">
        <ele>2900.0</ele>
        <time>2020-09-21T10:51:31Z</time>
      </trkpt>
      <trkpt lat="52.15865" lon="4.5186696">
        <ele>2900.0</ele>
        <time>2020-09-21T10:51:32Z</time>
      </trkpt>
      <trkpt lat="52.158623" lon="4.518707">
        <ele>2900.0</ele>
        <time>2020-09-21T10:51:33Z</time>
      </trkpt>
      <trkpt lat="52.158604" lon="4.5187454">
        <ele>2900.0</ele>
        <time>2020-09-21T10:51:34Z</time>
      </trkpt>
      <trkpt lat="52.158577" lon="4.5187836">
        <ele>2900.0</ele>
        <time>2020-09-21T10:51:35Z</time>
      </trkpt>
      <trkpt lat="52.15855" lon="4.518823">
        <ele>2900.0</ele>
        <time>2020-09-21T10:51:37Z</time>
      </trkpt>
      <trkpt lat="52.158524" lon="4.518863">
        <ele>2900.0</ele>
        <time>2020-09-21T10:51:37Z</time>
      </trkpt>
      <trkpt lat="52.1585" lon="4.518903">
        <ele>2900.0</ele>
        <time>2020-09-21T10:51:38Z</time>
      </trkpt>
      <trkpt lat="52.158478" lon="4.518944">
        <ele>2900.0</ele>
        <time>2020-09-21T10:51:39Z</time>
      </trkpt>
      <trkpt lat="52.158455" lon="4.5189886">
        <ele>2900.0</ele>
        <time>2020-09-21T10:51:40Z</time>
      </trkpt>
      <trkpt lat="52.15843" lon="4.5190344">
        <ele>2900.0</ele>
        <time>2020-09-21T10:51:41Z</time>
      </trkpt>
      <trkpt lat="52.158398" lon="4.5190825">
        <ele>2900.0</ele>
        <time>2020-09-21T10:51:42Z</time>
      </trkpt>
      <trkpt lat="52.15837" lon="4.5191317">
        <ele>2900.0</ele>
        <time>2020-09-21T10:51:43Z</time>
      </trkpt>
      <trkpt lat="52.15834" lon="4.5191803">
        <ele>2900.0</ele>
        <time>2020-09-21T10:51:44Z</time>
      </trkpt>
      <trkpt lat="52.158314" lon="4.5192294">
        <ele>2900.0</ele>
        <time>2020-09-21T10:51:45Z</time>
      </trkpt>
      <trkpt lat="52.158283" lon="4.519271">
        <ele>2900.0</ele>
        <time>2020-09-21T10:51:47Z</time>
      </trkpt>
      <trkpt lat="52.15825" lon="4.519312">
        <ele>2900.0</ele>
        <time>2020-09-21T10:51:47Z</time>
      </trkpt>
      <trkpt lat="52.15822" lon="4.5193596">
        <ele>2900.0</ele>
        <time>2020-09-21T10:51:48Z</time>
      </trkpt>
      <trkpt lat="52.15819" lon="4.519402">
        <ele>2900.0</ele>
        <time>2020-09-21T10:51:49Z</time>
      </trkpt>
      <trkpt lat="52.15816" lon="4.5194473">
        <ele>2900.0</ele>
        <time>2020-09-21T10:51:50Z</time>
      </trkpt>
      <trkpt lat="52.158134" lon="4.519489">
        <ele>2900.0</ele>
        <time>2020-09-21T10:51:51Z</time>
      </trkpt>
      <trkpt lat="52.15811" lon="4.51953">
        <ele>2900.0</ele>
        <time>2020-09-21T10:51:52Z</time>
      </trkpt>
      <trkpt lat="52.158085" lon="4.519571">
        <ele>2900.0</ele>
        <time>2020-09-21T10:51:53Z</time>
      </trkpt>
      <trkpt lat="52.15806" lon="4.5196095">
        <ele>2900.0</ele>
        <time>2020-09-21T10:51:54Z</time>
      </trkpt>
      <trkpt lat="52.158035" lon="4.5196495">
        <ele>2900.0</ele>
        <time>2020-09-21T10:51:55Z</time>
      </trkpt>
      <trkpt lat="52.158005" lon="4.51969">
        <ele>2900.0</ele>
        <time>2020-09-21T10:51:57Z</time>
      </trkpt>
      <trkpt lat="52.157978" lon="4.519731">
        <ele>2900.0</ele>
        <time>2020-09-21T10:51:57Z</time>
      </trkpt>
      <trkpt lat="52.15795" lon="4.519773">
        <ele>2900.0</ele>
        <time>2020-09-21T10:51:58Z</time>
      </trkpt>
      <trkpt lat="52.15792" lon="4.519817">
        <ele>2900.0</ele>
        <time>2020-09-21T10:51:59Z</time>
      </trkpt>
      <trkpt lat="52.157894" lon="4.51986">
        <ele>2900.0</ele>
        <time>2020-09-21T10:52:00Z</time>
      </trkpt>
      <trkpt lat="52.15787" lon="4.519902">
        <ele>2900.0</ele>
        <time>2020-09-21T10:52:01Z</time>
      </trkpt>
      <trkpt lat="52.15784" lon="4.519946">
        <ele>2900.0</ele>
        <time>2020-09-21T10:52:02Z</time>
      </trkpt>
      <trkpt lat="52.157814" lon="4.519989">
        <ele>2900.0</ele>
        <time>2020-09-21T10:52:03Z</time>
      </trkpt>
      <trkpt lat="52.157787" lon="4.52003">
        <ele>2900.0</ele>
        <time>2020-09-21T10:52:04Z</time>
      </trkpt>
      <trkpt lat="52.157764" lon="4.5200696">
        <ele>2900.0</ele>
        <time>2020-09-21T10:52:05Z</time>
      </trkpt>
      <trkpt lat="52.15773" lon="4.5201073">
        <ele>2900.0</ele>
        <time>2020-09-21T10:52:06Z</time>
      </trkpt>
      <trkpt lat="52.15771" lon="4.5201416">
        <ele>2900.0</ele>
        <time>2020-09-21T10:52:08Z</time>
      </trkpt>
      <trkpt lat="52.157692" lon="4.5201797">
        <ele>2900.0</ele>
        <time>2020-09-21T10:52:08Z</time>
      </trkpt>
      <trkpt lat="52.157665" lon="4.5202193">
        <ele>2900.0</ele>
        <time>2020-09-21T10:52:09Z</time>
      </trkpt>
      <trkpt lat="52.157646" lon="4.520262">
        <ele>2900.0</ele>
        <time>2020-09-21T10:52:10Z</time>
      </trkpt>
      <trkpt lat="52.15763" lon="4.520305">
        <ele>2900.0</ele>
        <time>2020-09-21T10:52:11Z</time>
      </trkpt>
      <trkpt lat="52.157616" lon="4.520348">
        <ele>2900.0</ele>
        <time>2020-09-21T10:52:12Z</time>
      </trkpt>
      <trkpt lat="52.157593" lon="4.520395">
        <ele>2900.0</ele>
        <time>2020-09-21T10:52:13Z</time>
      </trkpt>
      <trkpt lat="52.157578" lon="4.520438">
        <ele>2900.0</ele>
        <time>2020-09-21T10:52:14Z</time>
      </trkpt>
      <trkpt lat="52.157562" lon="4.520478">
        <ele>2900.0</ele>
        <time>2020-09-21T10:52:15Z</time>
      </trkpt>
      <trkpt lat="52.157543" lon="4.520515">
        <ele>2900.0</ele>
        <time>2020-09-21T10:52:16Z</time>
      </trkpt>
      <trkpt lat="52.15752" lon="4.5205503">
        <ele>2900.0</ele>
        <time>2020-09-21T10:52:17Z</time>
      </trkpt>
      <trkpt lat="52.1575" lon="4.520582">
        <ele>2900.0</ele>
        <time>2020-09-21T10:52:18Z</time>
      </trkpt>
      <trkpt lat="52.157482" lon="4.5206127">
        <ele>2900.0</ele>
        <time>2020-09-21T10:52:19Z</time>
      </trkpt>
      <trkpt lat="52.157455" lon="4.520637">
        <ele>2900.0</ele>
        <time>2020-09-21T10:52:20Z</time>
      </trkpt>
      <trkpt lat="52.15743" lon="4.5206547">
        <ele>2900.0</ele>
        <time>2020-09-21T10:52:21Z</time>
      </trkpt>
      <trkpt lat="52.157406" lon="4.5206656">
        <ele>2900.0</ele>
        <time>2020-09-21T10:52:22Z</time>
      </trkpt>
      <trkpt lat="52.15738" lon="4.5206738">
        <ele>2900.0</ele>
        <time>2020-09-21T10:52:23Z</time>
      </trkpt>
      <trkpt lat="52.157352" lon="4.5206804">
        <ele>2900.0</ele>
        <time>2020-09-21T10:52:24Z</time>
      </trkpt>
      <trkpt lat="52.157326" lon="4.520692">
        <ele>2900.0</ele>
        <time>2020-09-21T10:52:25Z</time>
      </trkpt>
      <trkpt lat="52.157295" lon="4.520706">
        <ele>2900.0</ele>
        <time>2020-09-21T10:52:26Z</time>
      </trkpt>
      <trkpt lat="52.157276" lon="4.5207214">
        <ele>2900.0</ele>
        <time>2020-09-21T10:52:26Z</time>
      </trkpt>
      <trkpt lat="52.15725" lon="4.520737">
        <ele>2900.0</ele>
        <time>2020-09-21T10:52:27Z</time>
      </trkpt>
      <trkpt lat="52.157227" lon="4.5207644">
        <ele>2900.0</ele>
        <time>2020-09-21T10:52:28Z</time>
      </trkpt>
      <trkpt lat="52.1572" lon="4.5207915">
        <ele>2900.0</ele>
        <time>2020-09-21T10:52:29Z</time>
      </trkpt>
      <trkpt lat="52.157173" lon="4.520817">
        <ele>2900.0</ele>
        <time>2020-09-21T10:52:30Z</time>
      </trkpt>
      <trkpt lat="52.157146" lon="4.52084">
        <ele>2900.0</ele>
        <time>2020-09-21T10:52:31Z</time>
      </trkpt>
      <trkpt lat="52.157124" lon="4.520862">
        <ele>2900.0</ele>
        <time>2020-09-21T10:52:32Z</time>
      </trkpt>
      <trkpt lat="52.157097" lon="4.520885">
        <ele>2900.0</ele>
        <time>2020-09-21T10:52:33Z</time>
      </trkpt>
      <trkpt lat="52.157066" lon="4.5209074">
        <ele>2900.0</ele>
        <time>2020-09-21T10:52:35Z</time>
      </trkpt>
      <trkpt lat="52.15704" lon="4.520929">
        <ele>2900.0</ele>
        <time>2020-09-21T10:52:35Z</time>
      </trkpt>
      <trkpt lat="52.15701" lon="4.5209503">
        <ele>2900.0</ele>
        <time>2020-09-21T10:52:36Z</time>
      </trkpt>
      <trkpt lat="52.156982" lon="4.5209713">
        <ele>2900.0</ele>
        <time>2020-09-21T10:52:37Z</time>
      </trkpt>
      <trkpt lat="52.156948" lon="4.5209985">
        <ele>2900.0</ele>
        <time>2020-09-21T10:52:38Z</time>
      </trkpt>
      <trkpt lat="52.156918" lon="4.521025">
        <ele>2900.0</ele>
        <time>2020-09-21T10:52:39Z</time>
      </trkpt>
      <trkpt lat="52.156887" lon="4.521054">
        <ele>2900.0</ele>
        <time>2020-09-21T10:52:40Z</time>
      </trkpt>
      <trkpt lat="52.15686" lon="4.521081">
        <ele>2900.0</ele>
        <time>2020-09-21T10:52:41Z</time>
      </trkpt>
      <trkpt lat="52.15683" lon="4.5211067">
        <ele>2900.0</ele>
        <time>2020-09-21T10:52:42Z</time>
      </trkpt>
      <trkpt lat="52.156807" lon="4.521134">
        <ele>2900.0</ele>
        <time>2020-09-21T10:52:43Z</time>
      </trkpt>
      <trkpt lat="52.15678" lon="4.5211596">
        <ele>2900.0</ele>
        <time>2020-09-21T10:52:44Z</time>
      </trkpt>
      <trkpt lat="52.156754" lon="4.521185">
        <ele>2900.0</ele>
        <time>2020-09-21T10:52:45Z</time>
      </trkpt>
      <trkpt lat="52.156727" lon="4.5212097">
        <ele>2900.0</ele>
        <time>2020-09-21T10:52:46Z</time>
      </trkpt>
      <trkpt lat="52.156696" lon="4.5212326">
        <ele>2900.0</ele>
        <time>2020-09-21T10:52:47Z</time>
      </trkpt>
      <trkpt lat="52.156666" lon="4.5212517">
        <ele>2900.0</ele>
        <time>2020-09-21T10:52:48Z</time>
      </trkpt>
      <trkpt lat="52.15663" lon="4.521268">
        <ele>2900.0</ele>
        <time>2020-09-21T10:52:49Z</time>
      </trkpt>
      <trkpt lat="52.156605" lon="4.52128">
        <ele>2900.0</ele>
        <time>2020-09-21T10:52:50Z</time>
      </trkpt>
      <trkpt lat="52.156574" lon="4.5212913">
        <ele>2900.0</ele>
        <time>2020-09-21T10:52:51Z</time>
      </trkpt>
      <trkpt lat="52.15654" lon="4.5213046">
        <ele>2900.0</ele>
        <time>2020-09-21T10:52:52Z</time>
      </trkpt>
      <trkpt lat="52.15651" lon="4.5213213">
        <ele>2900.0</ele>
        <time>2020-09-21T10:52:53Z</time>
      </trkpt>
      <trkpt lat="52.15647" lon="4.5213385">
        <ele>2900.0</ele>
        <time>2020-09-21T10:52:54Z</time>
      </trkpt>
      <trkpt lat="52.156437" lon="4.521356">
        <ele>2900.0</ele>
        <time>2020-09-21T10:52:56Z</time>
      </trkpt>
      <trkpt lat="52.156406" lon="4.521373">
        <ele>2900.0</ele>
        <time>2020-09-21T10:52:56Z</time>
      </trkpt>
      <trkpt lat="52.15638" lon="4.5213866">
        <ele>2900.0</ele>
        <time>2020-09-21T10:52:57Z</time>
      </trkpt>
      <trkpt lat="52.156353" lon="4.5214">
        <ele>2900.0</ele>
        <time>2020-09-21T10:52:58Z</time>
      </trkpt>
      <trkpt lat="52.15633" lon="4.521411">
        <ele>2900.0</ele>
        <time>2020-09-21T10:52:59Z</time>
      </trkpt>
      <trkpt lat="52.156303" lon="4.521421">
        <ele>2900.0</ele>
        <time>2020-09-21T10:53:00Z</time>
      </trkpt>
      <trkpt lat="52.156277" lon="4.5214276">
        <ele>2900.0</ele>
        <time>2020-09-21T10:53:01Z</time>
      </trkpt>
      <trkpt lat="52.156254" lon="4.521434">
        <ele>2900.0</ele>
        <time>2020-09-21T10:53:02Z</time>
      </trkpt>
      <trkpt lat="52.15623" lon="4.5214396">
        <ele>2900.0</ele>
        <time>2020-09-21T10:53:03Z</time>
      </trkpt>
      <trkpt lat="52.15621" lon="4.5214467">
        <ele>2900.0</ele>
        <time>2020-09-21T10:53:04Z</time>
      </trkpt>
      <trkpt lat="52.156185" lon="4.521461">
        <ele>2900.0</ele>
        <time>2020-09-21T10:53:05Z</time>
      </trkpt>
      <trkpt lat="52.15616" lon="4.5214834">
        <ele>2900.0</ele>
        <time>2020-09-21T10:53:06Z</time>
      </trkpt>
      <trkpt lat="52.15614" lon="4.5215087">
        <ele>2900.0</ele>
        <time>2020-09-21T10:53:07Z</time>
      </trkpt>
      <trkpt lat="52.156124" lon="4.5215325">
        <ele>2900.0</ele>
        <time>2020-09-21T10:53:08Z</time>
      </trkpt>
      <trkpt lat="52.156097" lon="4.5215535">
        <ele>2900.0</ele>
        <time>2020-09-21T10:53:09Z</time>
      </trkpt>
      <trkpt lat="52.15608" lon="4.521568">
        <ele>2900.0</ele>
        <time>2020-09-21T10:53:10Z</time>
      </trkpt>
      <trkpt lat="52.15606" lon="4.5215783">
        <ele>2900.0</ele>
        <time>2020-09-21T10:53:11Z</time>
      </trkpt>
      <trkpt lat="52.156033" lon="4.5215864">
        <ele>2900.0</ele>
        <time>2020-09-21T10:53:12Z</time>
      </trkpt>
      <trkpt lat="52.156006" lon="4.521595">
        <ele>2900.0</ele>
        <time>2020-09-21T10:53:13Z</time>
      </trkpt>
      <trkpt lat="52.155987" lon="4.521608">
        <ele>2900.0</ele>
        <time>2020-09-21T10:53:14Z</time>
      </trkpt>
      <trkpt lat="52.15596" lon="4.521622">
        <ele>2900.0</ele>
        <time>2020-09-21T10:53:15Z</time>
      </trkpt>
      <trkpt lat="52.15594" lon="4.521639">
        <ele>2900.0</ele>
        <time>2020-09-21T10:53:17Z</time>
      </trkpt>
      <trkpt lat="52.155914" lon="4.521656">
        <ele>2900.0</ele>
        <time>2020-09-21T10:53:17Z</time>
      </trkpt>
      <trkpt lat="52.155888" lon="4.5216727">
        <ele>2900.0</ele>
        <time>2020-09-21T10:53:18Z</time>
      </trkpt>
      <trkpt lat="52.155865" lon="4.5216923">
        <ele>2900.0</ele>
        <time>2020-09-21T10:53:19Z</time>
      </trkpt>
      <trkpt lat="52.15584" lon="4.521711">
        <ele>2900.0</ele>
        <time>2020-09-21T10:53:20Z</time>
      </trkpt>
      <trkpt lat="52.155815" lon="4.521728">
        <ele>2900.0</ele>
        <time>2020-09-21T10:53:21Z</time>
      </trkpt>
      <trkpt lat="52.155792" lon="4.5217433">
        <ele>2900.0</ele>
        <time>2020-09-21T10:53:22Z</time>
      </trkpt>
      <trkpt lat="52.155766" lon="4.5217624">
        <ele>2900.0</ele>
        <time>2020-09-21T10:53:23Z</time>
      </trkpt>
      <trkpt lat="52.15573" lon="4.5217857">
        <ele>2900.0</ele>
        <time>2020-09-21T10:53:24Z</time>
      </trkpt>
      <trkpt lat="52.1557" lon="4.521809">
        <ele>2900.0</ele>
        <time>2020-09-21T10:53:25Z</time>
      </trkpt>
      <trkpt lat="52.155663" lon="4.5218277">
        <ele>2900.0</ele>
        <time>2020-09-21T10:53:26Z</time>
      </trkpt>
      <trkpt lat="52.155632" lon="4.521842">
        <ele>2900.0</ele>
        <time>2020-09-21T10:53:27Z</time>
      </trkpt>
      <trkpt lat="52.155598" lon="4.521852">
        <ele>2900.0</ele>
        <time>2020-09-21T10:53:28Z</time>
      </trkpt>
      <trkpt lat="52.15556" lon="4.521856">
        <ele>2900.0</ele>
        <time>2020-09-21T10:53:29Z</time>
      </trkpt>
      <trkpt lat="52.155525" lon="4.521858">
        <ele>2900.0</ele>
        <time>2020-09-21T10:53:30Z</time>
      </trkpt>
      <trkpt lat="52.155495" lon="4.5218644">
        <ele>2900.0</ele>
        <time>2020-09-21T10:53:31Z</time>
      </trkpt>
      <trkpt lat="52.155464" lon="4.521872">
        <ele>2900.0</ele>
        <time>2020-09-21T10:53:32Z</time>
      </trkpt>
      <trkpt lat="52.155426" lon="4.521881">
        <ele>2900.0</ele>
        <time>2020-09-21T10:53:33Z</time>
      </trkpt>
      <trkpt lat="52.155396" lon="4.5218873">
        <ele>2900.0</ele>
        <time>2020-09-21T10:53:35Z</time>
      </trkpt>
      <trkpt lat="52.15536" lon="4.521891">
        <ele>2900.0</ele>
        <time>2020-09-21T10:53:35Z</time>
      </trkpt>
      <trkpt lat="52.15533" lon="4.5218954">
        <ele>2900.0</ele>
        <time>2020-09-21T10:53:36Z</time>
      </trkpt>
      <trkpt lat="52.155304" lon="4.5218997">
        <ele>2900.0</ele>
        <time>2020-09-21T10:53:37Z</time>
      </trkpt>
      <trkpt lat="52.15528" lon="4.521906">
        <ele>2900.0</ele>
        <time>2020-09-21T10:53:38Z</time>
      </trkpt>
      <trkpt lat="52.155266" lon="4.52191">
        <ele>2900.0</ele>
        <time>2020-09-21T10:53:39Z</time>
      </trkpt>
      <trkpt lat="52.155254" lon="4.5219116">
        <ele>2900.0</ele>
        <time>2020-09-21T10:53:40Z</time>
      </trkpt>
      <trkpt lat="52.155243" lon="4.52191">
        <ele>2900.0</ele>
        <time>2020-09-21T10:53:41Z</time>
      </trkpt>
      <trkpt lat="52.15524" lon="4.5219083">
        <ele>2900.0</ele>
        <time>2020-09-21T10:53:42Z</time>
      </trkpt>
      <trkpt lat="52.15523" lon="4.5219054">
        <ele>2900.0</ele>
        <time>2020-09-21T10:53:43Z</time>
      </trkpt>
      <trkpt lat="52.155228" lon="4.5219016">
        <ele>2900.0</ele>
        <time>2020-09-21T10:53:45Z</time>
      </trkpt>
      <trkpt lat="52.155224" lon="4.521897">
        <ele>2900.0</ele>
        <time>2020-09-21T10:53:45Z</time>
      </trkpt>
      <trkpt lat="52.155216" lon="4.5218897">
        <ele>2900.0</ele>
        <time>2020-09-21T10:53:46Z</time>
      </trkpt>
      <trkpt lat="52.155212" lon="4.5218825">
        <ele>2900.0</ele>
        <time>2020-09-21T10:53:47Z</time>
      </trkpt>
      <trkpt lat="52.15521" lon="4.5218773">
        <ele>2900.0</ele>
        <time>2020-09-21T10:53:48Z</time>
      </trkpt>
      <trkpt lat="52.1552" lon="4.521869">
        <ele>2900.0</ele>
        <time>2020-09-21T10:53:49Z</time>
      </trkpt>
      <trkpt lat="52.155197" lon="4.521858">
        <ele>2900.0</ele>
        <time>2020-09-21T10:53:50Z</time>
      </trkpt>
      <trkpt lat="52.155197" lon="4.5218515">
        <ele>2900.0</ele>
        <time>2020-09-21T10:53:51Z</time>
      </trkpt>
      <trkpt lat="52.155193" lon="4.521841">
        <ele>2900.0</ele>
        <time>2020-09-21T10:53:52Z</time>
      </trkpt>
      <trkpt lat="52.155186" lon="4.521825">
        <ele>2900.0</ele>
        <time>2020-09-21T10:53:53Z</time>
      </trkpt>
      <trkpt lat="52.15518" lon="4.521812">
        <ele>2900.0</ele>
        <time>2020-09-21T10:53:54Z</time>
      </trkpt>
      <trkpt lat="52.155178" lon="4.521799">
        <ele>2900.0</ele>
        <time>2020-09-21T10:53:56Z</time>
      </trkpt>
      <trkpt lat="52.155178" lon="4.521786">
        <ele>2900.0</ele>
        <time>2020-09-21T10:53:56Z</time>
      </trkpt>
      <trkpt lat="52.15517" lon="4.521773">
        <ele>2900.0</ele>
        <time>2020-09-21T10:53:57Z</time>
      </trkpt>
      <trkpt lat="52.155167" lon="4.5217595">
        <ele>2900.0</ele>
        <time>2020-09-21T10:53:58Z</time>
      </trkpt>
      <trkpt lat="52.155163" lon="4.5217476">
        <ele>2900.0</ele>
        <time>2020-09-21T10:53:59Z</time>
      </trkpt>
      <trkpt lat="52.155155" lon="4.521736">
        <ele>2900.0</ele>
        <time>2020-09-21T10:54:00Z</time>
      </trkpt>
      <trkpt lat="52.155155" lon="4.5217295">
        <ele>2900.0</ele>
        <time>2020-09-21T10:54:01Z</time>
      </trkpt>
      <trkpt lat="52.155155" lon="4.521727">
        <ele>2900.0</ele>
        <time>2020-09-21T10:54:02Z</time>
      </trkpt>
      <trkpt lat="52.155155" lon="4.5217266">
        <ele>2900.0</ele>
        <time>2020-09-21T10:54:03Z</time>
      </trkpt>
      <trkpt lat="52.15515" lon="4.521722">
        <ele>2900.0</ele>
        <time>2020-09-21T10:54:04Z</time>
      </trkpt>
      <trkpt lat="52.15515" lon="4.5217137">
        <ele>2900.0</ele>
        <time>2020-09-21T10:54:05Z</time>
      </trkpt>
      <trkpt lat="52.155155" lon="4.5217047">
        <ele>2900.0</ele>
        <time>2020-09-21T10:54:06Z</time>
      </trkpt>
      <trkpt lat="52.155167" lon="4.5217013">
        <ele>2900.0</ele>
        <time>2020-09-21T10:54:07Z</time>
      </trkpt>
      <trkpt lat="52.155178" lon="4.5217013">
        <ele>2900.0</ele>
        <time>2020-09-21T10:54:08Z</time>
      </trkpt>
      <trkpt lat="52.155186" lon="4.521704">
        <ele>2900.0</ele>
        <time>2020-09-21T10:54:09Z</time>
      </trkpt>
      <trkpt lat="52.155197" lon="4.521704">
        <ele>2900.0</ele>
        <time>2020-09-21T10:54:10Z</time>
      </trkpt>
      <trkpt lat="52.15521" lon="4.5217004">
        <ele>2900.0</ele>
        <time>2020-09-21T10:54:11Z</time>
      </trkpt>
      <trkpt lat="52.155212" lon="4.521693">
        <ele>2900.0</ele>
        <time>2020-09-21T10:54:12Z</time>
      </trkpt>
      <trkpt lat="52.155216" lon="4.5216846">
        <ele>2900.0</ele>
        <time>2020-09-21T10:54:13Z</time>
      </trkpt>
      <trkpt lat="52.155216" lon="4.521677">
        <ele>2900.0</ele>
        <time>2020-09-21T10:54:14Z</time>
      </trkpt>
      <trkpt lat="52.155224" lon="4.5216713">
        <ele>2900.0</ele>
        <time>2020-09-21T10:54:15Z</time>
      </trkpt>
      <trkpt lat="52.155224" lon="4.521667">
        <ele>2900.0</ele>
        <time>2020-09-21T10:54:17Z</time>
      </trkpt>
      <trkpt lat="52.155216" lon="4.5216584">
        <ele>2900.0</ele>
        <time>2020-09-21T10:54:18Z</time>
      </trkpt>
      <trkpt lat="52.155216" lon="4.521659">
        <ele>2900.0</ele>
        <time>2020-09-21T10:54:19Z</time>
      </trkpt>
      <trkpt lat="52.155216" lon="4.521665">
        <ele>2900.0</ele>
        <time>2020-09-21T10:54:21Z</time>
      </trkpt>
      <trkpt lat="52.155212" lon="4.521667">
        <ele>2900.0</ele>
        <time>2020-09-21T10:54:22Z</time>
      </trkpt>
      <trkpt lat="52.155212" lon="4.521671">
        <ele>2900.0</ele>
        <time>2020-09-21T10:54:23Z</time>
      </trkpt>
      <trkpt lat="52.155212" lon="4.521675">
        <ele>2900.0</ele>
        <time>2020-09-21T10:54:24Z</time>
      </trkpt>
      <trkpt lat="52.15521" lon="4.52168">
        <ele>2900.0</ele>
        <time>2020-09-21T10:54:25Z</time>
      </trkpt>
      <trkpt lat="52.1552" lon="4.5216846">
        <ele>2900.0</ele>
        <time>2020-09-21T10:54:26Z</time>
      </trkpt>
      <trkpt lat="52.155197" lon="4.5216894">
        <ele>2900.0</ele>
        <time>2020-09-21T10:54:27Z</time>
      </trkpt>
      <trkpt lat="52.155193" lon="4.5216947">
        <ele>2900.0</ele>
        <time>2020-09-21T10:54:28Z</time>
      </trkpt>
      <trkpt lat="52.155186" lon="4.5217133">
        <ele>2900.0</ele>
        <time>2020-09-21T10:54:30Z</time>
      </trkpt>
      <trkpt lat="52.155186" lon="4.521707">
        <ele>2900.0</ele>
        <time>2020-09-21T10:54:32Z</time>
      </trkpt>
      <trkpt lat="52.155186" lon="4.521705">
        <ele>2900.0</ele>
        <time>2020-09-21T10:54:33Z</time>
      </trkpt>
      <trkpt lat="52.155186" lon="4.5216966">
        <ele>2900.0</ele>
        <time>2020-09-21T10:54:35Z</time>
      </trkpt>
      <trkpt lat="52.155193" lon="4.521695">
        <ele>2900.0</ele>
        <time>2020-09-21T10:54:36Z</time>
      </trkpt>
      <trkpt lat="52.155186" lon="4.5216937">
        <ele>2900.0</ele>
        <time>2020-09-21T10:54:38Z</time>
      </trkpt>
      <trkpt lat="52.155186" lon="4.521695">
        <ele>2900.0</ele>
        <time>2020-09-21T10:54:46Z</time>
      </trkpt>
      <trkpt lat="52.155186" lon="4.521702">
        <ele>2900.0</ele>
        <time>2020-09-21T10:54:48Z</time>
      </trkpt>
      <trkpt lat="52.155186" lon="4.521707">
        <ele>2900.0</ele>
        <time>2020-09-21T10:54:52Z</time>
      </trkpt>
      <trkpt lat="52.155193" lon="4.5217085">
        <ele>2900.0</ele>
        <time>2020-09-21T10:54:57Z</time>
      </trkpt>
      <trkpt lat="52.155197" lon="4.521709">
        <ele>2900.0</ele>
        <time>2020-09-21T10:54:58Z</time>
      </trkpt>
      <trkpt lat="52.1552" lon="4.52171">
        <ele>2900.0</ele>
        <time>2020-09-21T10:55:00Z</time>
      </trkpt>
      <trkpt lat="52.15521" lon="4.52171">
        <ele>2900.0</ele>
        <time>2020-09-21T10:55:01Z</time>
      </trkpt>
      <trkpt lat="52.15521" lon="4.5217104">
        <ele>2900.0</ele>
        <time>2020-09-21T10:55:02Z</time>
      </trkpt>
      <trkpt lat="52.15521" lon="4.5217214">
        <ele>2900.0</ele>
        <time>2020-09-21T10:55:08Z</time>
      </trkpt>
      <trkpt lat="52.15521" lon="4.521723">
        <ele>2900.0</ele>
        <time>2020-09-21T10:55:09Z</time>
      </trkpt>
      <trkpt lat="52.15521" lon="4.5217257">
        <ele>2900.0</ele>
        <time>2020-09-21T10:55:10Z</time>
      </trkpt>
      <trkpt lat="52.15521" lon="4.5217366">
        <ele>2900.0</ele>
        <time>2020-09-21T10:55:13Z</time>
      </trkpt>
      <trkpt lat="52.15521" lon="4.521737">
        <ele>2900.0</ele>
        <time>2020-09-21T10:55:13Z</time>
      </trkpt>
      <trkpt lat="52.15521" lon="4.5217447">
        <ele>2900.0</ele>
        <time>2020-09-21T10:55:15Z</time>
      </trkpt>
      <trkpt lat="52.15521" lon="4.5217457">
        <ele>2900.0</ele>
        <time>2020-09-21T10:55:16Z</time>
      </trkpt>
      <trkpt lat="52.15521" lon="4.521746">
        <ele>2900.0</ele>
        <time>2020-09-21T10:55:17Z</time>
      </trkpt>
      <trkpt lat="52.1552" lon="4.521747">
        <ele>2900.0</ele>
        <time>2020-09-21T10:55:18Z</time>
      </trkpt>
      <trkpt lat="52.1552" lon="4.521749">
        <ele>2900.0</ele>
        <time>2020-09-21T10:55:19Z</time>
      </trkpt>
      <trkpt lat="52.155197" lon="4.5217505">
        <ele>2900.0</ele>
        <time>2020-09-21T10:55:20Z</time>
      </trkpt>
      <trkpt lat="52.155193" lon="4.521752">
        <ele>2900.0</ele>
        <time>2020-09-21T10:55:21Z</time>
      </trkpt>
      <trkpt lat="52.15518" lon="4.5217566">
        <ele>2900.0</ele>
        <time>2020-09-21T10:55:24Z</time>
      </trkpt>
      <trkpt lat="52.155178" lon="4.521752">
        <ele>2900.0</ele>
        <time>2020-09-21T10:55:41Z</time>
      </trkpt>
      <trkpt lat="52.155178" lon="4.521751">
        <ele>2900.0</ele>
        <time>2020-09-21T10:55:42Z</time>
      </trkpt>
      <trkpt lat="52.155178" lon="4.5217447">
        <ele>2900.0</ele>
        <time>2020-09-21T10:55:47Z</time>
      </trkpt>
      <trkpt lat="52.15517" lon="4.521752">
        <ele>2900.0</ele>
        <time>2020-09-21T10:56:11Z</time>
      </trkpt>
      <trkpt lat="52.15517" lon="4.5217566">
        <ele>2900.0</ele>
        <time>2020-09-21T10:56:12Z</time>
      </trkpt>
      <trkpt lat="52.155155" lon="4.5217614">
        <ele>2900.0</ele>
        <time>2020-09-21T10:56:33Z</time>
      </trkpt>
      <trkpt lat="52.15515" lon="4.5217614">
        <ele>2900.0</ele>
        <time>2020-09-21T10:56:36Z</time>
      </trkpt>
      <trkpt lat="52.15515" lon="4.5217614">
        <ele>2900.0</ele>
        <time>2020-09-21T10:56:37Z</time>
      </trkpt>
      <trkpt lat="52.155148" lon="4.5217614">
        <ele>2900.0</ele>
        <time>2020-09-21T10:56:39Z</time>
      </trkpt>
      <trkpt lat="52.155148" lon="4.5217547">
        <ele>2900.0</ele>
        <time>2020-09-21T10:56:55Z</time>
      </trkpt>
      <trkpt lat="52.155148" lon="4.521755">
        <ele>2900.0</ele>
        <time>2020-09-21T10:56:55Z</time>
      </trkpt>
      <trkpt lat="52.155148" lon="4.5217557">
        <ele>2900.0</ele>
        <time>2020-09-21T10:56:56Z</time>
      </trkpt>
      <trkpt lat="52.15514" lon="4.5217595">
        <ele>2900.0</ele>
        <time>2020-09-21T10:56:57Z</time>
      </trkpt>
      <trkpt lat="52.155132" lon="4.521765">
        <ele>2900.0</ele>
        <time>2020-09-21T10:56:58Z</time>
      </trkpt>
      <trkpt lat="52.155117" lon="4.5217714">
        <ele>2900.0</ele>
        <time>2020-09-21T10:56:59Z</time>
      </trkpt>
      <trkpt lat="52.1551" lon="4.5217752">
        <ele>2900.0</ele>
        <time>2020-09-21T10:57:00Z</time>
      </trkpt>
      <trkpt lat="52.155087" lon="4.5217795">
        <ele>2900.0</ele>
        <time>2020-09-21T10:57:01Z</time>
      </trkpt>
      <trkpt lat="52.155064" lon="4.521785">
        <ele>2900.0</ele>
        <time>2020-09-21T10:57:02Z</time>
      </trkpt>
      <trkpt lat="52.155037" lon="4.5217915">
        <ele>2900.0</ele>
        <time>2020-09-21T10:57:03Z</time>
      </trkpt>
      <trkpt lat="52.155018" lon="4.5217996">
        <ele>2900.0</ele>
        <time>2020-09-21T10:57:04Z</time>
      </trkpt>
      <trkpt lat="52.15499" lon="4.521806">
        <ele>2900.0</ele>
        <time>2020-09-21T10:57:05Z</time>
      </trkpt>
      <trkpt lat="52.15497" lon="4.521811">
        <ele>2900.0</ele>
        <time>2020-09-21T10:57:06Z</time>
      </trkpt>
      <trkpt lat="52.15494" lon="4.521816">
        <ele>2900.0</ele>
        <time>2020-09-21T10:57:07Z</time>
      </trkpt>
      <trkpt lat="52.154922" lon="4.5218205">
        <ele>2900.0</ele>
        <time>2020-09-21T10:57:08Z</time>
      </trkpt>
      <trkpt lat="52.154896" lon="4.5218267">
        <ele>2900.0</ele>
        <time>2020-09-21T10:57:09Z</time>
      </trkpt>
      <trkpt lat="52.15487" lon="4.5218334">
        <ele>2900.0</ele>
        <time>2020-09-21T10:57:10Z</time>
      </trkpt>
      <trkpt lat="52.154842" lon="4.52184">
        <ele>2900.0</ele>
        <time>2020-09-21T10:57:11Z</time>
      </trkpt>
      <trkpt lat="52.15482" lon="4.521847">
        <ele>2900.0</ele>
        <time>2020-09-21T10:57:12Z</time>
      </trkpt>
      <trkpt lat="52.154793" lon="4.521853">
        <ele>2900.0</ele>
        <time>2020-09-21T10:57:13Z</time>
      </trkpt>
      <trkpt lat="52.154774" lon="4.5218587">
        <ele>2900.0</ele>
        <time>2020-09-21T10:57:14Z</time>
      </trkpt>
      <trkpt lat="52.154747" lon="4.521862">
        <ele>2900.0</ele>
        <time>2020-09-21T10:57:16Z</time>
      </trkpt>
      <trkpt lat="52.15472" lon="4.5218654">
        <ele>2900.0</ele>
        <time>2020-09-21T10:57:16Z</time>
      </trkpt>
      <trkpt lat="52.154697" lon="4.5218673">
        <ele>2900.0</ele>
        <time>2020-09-21T10:57:17Z</time>
      </trkpt>
      <trkpt lat="52.15467" lon="4.5218687">
        <ele>2900.0</ele>
        <time>2020-09-21T10:57:18Z</time>
      </trkpt>
      <trkpt lat="52.154644" lon="4.521871">
        <ele>2900.0</ele>
        <time>2020-09-21T10:57:19Z</time>
      </trkpt>
      <trkpt lat="52.154617" lon="4.521874">
        <ele>2900.0</ele>
        <time>2020-09-21T10:57:20Z</time>
      </trkpt>
      <trkpt lat="52.1546" lon="4.5218782">
        <ele>2900.0</ele>
        <time>2020-09-21T10:57:21Z</time>
      </trkpt>
      <trkpt lat="52.15457" lon="4.521886">
        <ele>2900.0</ele>
        <time>2020-09-21T10:57:22Z</time>
      </trkpt>
      <trkpt lat="52.154552" lon="4.5218954">
        <ele>2900.0</ele>
        <time>2020-09-21T10:57:23Z</time>
      </trkpt>
      <trkpt lat="52.154533" lon="4.5219035">
        <ele>2900.0</ele>
        <time>2020-09-21T10:57:24Z</time>
      </trkpt>
      <trkpt lat="52.154507" lon="4.521909">
        <ele>2900.0</ele>
        <time>2020-09-21T10:57:25Z</time>
      </trkpt>
      <trkpt lat="52.15448" lon="4.521911">
        <ele>2900.0</ele>
        <time>2020-09-21T10:57:26Z</time>
      </trkpt>
      <trkpt lat="52.154453" lon="4.521915">
        <ele>2900.0</ele>
        <time>2020-09-21T10:57:27Z</time>
      </trkpt>
      <trkpt lat="52.154434" lon="4.5219207">
        <ele>2900.0</ele>
        <time>2020-09-21T10:57:28Z</time>
      </trkpt>
      <trkpt lat="52.154415" lon="4.521929">
        <ele>2900.0</ele>
        <time>2020-09-21T10:57:29Z</time>
      </trkpt>
      <trkpt lat="52.15439" lon="4.5219407">
        <ele>2900.0</ele>
        <time>2020-09-21T10:57:30Z</time>
      </trkpt>
      <trkpt lat="52.15436" lon="4.5219502">
        <ele>2900.0</ele>
        <time>2020-09-21T10:57:31Z</time>
      </trkpt>
      <trkpt lat="52.15434" lon="4.521958">
        <ele>2900.0</ele>
        <time>2020-09-21T10:57:32Z</time>
      </trkpt>
      <trkpt lat="52.154312" lon="4.521965">
        <ele>2900.0</ele>
        <time>2020-09-21T10:57:34Z</time>
      </trkpt>
      <trkpt lat="52.154293" lon="4.5219693">
        <ele>2900.0</ele>
        <time>2020-09-21T10:57:34Z</time>
      </trkpt>
      <trkpt lat="52.154266" lon="4.521976">
        <ele>2900.0</ele>
        <time>2020-09-21T10:57:35Z</time>
      </trkpt>
      <trkpt lat="52.154243" lon="4.5219827">
        <ele>2900.0</ele>
        <time>2020-09-21T10:57:36Z</time>
      </trkpt>
      <trkpt lat="52.15422" lon="4.521988">
        <ele>2900.0</ele>
        <time>2020-09-21T10:57:37Z</time>
      </trkpt>
      <trkpt lat="52.154194" lon="4.521989">
        <ele>2900.0</ele>
        <time>2020-09-21T10:57:38Z</time>
      </trkpt>
      <trkpt lat="52.154167" lon="4.5219884">
        <ele>2900.0</ele>
        <time>2020-09-21T10:57:39Z</time>
      </trkpt>
      <trkpt lat="52.154144" lon="4.5219874">
        <ele>2900.0</ele>
        <time>2020-09-21T10:57:40Z</time>
      </trkpt>
      <trkpt lat="52.154118" lon="4.5219874">
        <ele>2900.0</ele>
        <time>2020-09-21T10:57:41Z</time>
      </trkpt>
      <trkpt lat="52.1541" lon="4.521984">
        <ele>2900.0</ele>
        <time>2020-09-21T10:57:42Z</time>
      </trkpt>
      <trkpt lat="52.15407" lon="4.5219812">
        <ele>2900.0</ele>
        <time>2020-09-21T10:57:43Z</time>
      </trkpt>
      <trkpt lat="52.15405" lon="4.5219793">
        <ele>2900.0</ele>
        <time>2020-09-21T10:57:44Z</time>
      </trkpt>
      <trkpt lat="52.154026" lon="4.5219765">
        <ele>2900.0</ele>
        <time>2020-09-21T10:57:45Z</time>
      </trkpt>
      <trkpt lat="52.154003" lon="4.5219736">
        <ele>2900.0</ele>
        <time>2020-09-21T10:57:46Z</time>
      </trkpt>
      <trkpt lat="52.15398" lon="4.521974">
        <ele>2900.0</ele>
        <time>2020-09-21T10:57:47Z</time>
      </trkpt>
      <trkpt lat="52.153957" lon="4.5219746">
        <ele>2900.0</ele>
        <time>2020-09-21T10:57:48Z</time>
      </trkpt>
      <trkpt lat="52.153934" lon="4.5219755">
        <ele>2900.0</ele>
        <time>2020-09-21T10:57:49Z</time>
      </trkpt>
      <trkpt lat="52.15391" lon="4.5219774">
        <ele>2900.0</ele>
        <time>2020-09-21T10:57:50Z</time>
      </trkpt>
      <trkpt lat="52.153893" lon="4.5219803">
        <ele>2900.0</ele>
        <time>2020-09-21T10:57:51Z</time>
      </trkpt>
      <trkpt lat="52.15387" lon="4.521983">
        <ele>2900.0</ele>
        <time>2020-09-21T10:57:52Z</time>
      </trkpt>
      <trkpt lat="52.153854" lon="4.5219865">
        <ele>2900.0</ele>
        <time>2020-09-21T10:57:53Z</time>
      </trkpt>
      <trkpt lat="52.15384" lon="4.5219913">
        <ele>2900.0</ele>
        <time>2020-09-21T10:57:54Z</time>
      </trkpt>
      <trkpt lat="52.15382" lon="4.521996">
        <ele>2900.0</ele>
        <time>2020-09-21T10:57:55Z</time>
      </trkpt>
      <trkpt lat="52.153805" lon="4.5220027">
        <ele>2900.0</ele>
        <time>2020-09-21T10:57:56Z</time>
      </trkpt>
      <trkpt lat="52.153786" lon="4.522009">
        <ele>2900.0</ele>
        <time>2020-09-21T10:57:57Z</time>
      </trkpt>
      <trkpt lat="52.153763" lon="4.522015">
        <ele>2900.0</ele>
        <time>2020-09-21T10:57:58Z</time>
      </trkpt>
      <trkpt lat="52.153744" lon="4.5220213">
        <ele>2900.0</ele>
        <time>2020-09-21T10:57:59Z</time>
      </trkpt>
      <trkpt lat="52.153717" lon="4.522025">
        <ele>2900.0</ele>
        <time>2020-09-21T10:58:00Z</time>
      </trkpt>
      <trkpt lat="52.153698" lon="4.522029">
        <ele>2900.0</ele>
        <time>2020-09-21T10:58:01Z</time>
      </trkpt>
      <trkpt lat="52.153683" lon="4.5220313">
        <ele>2900.0</ele>
        <time>2020-09-21T10:58:02Z</time>
      </trkpt>
      <trkpt lat="52.15366" lon="4.5220346">
        <ele>2900.0</ele>
        <time>2020-09-21T10:58:03Z</time>
      </trkpt>
      <trkpt lat="52.153645" lon="4.5220385">
        <ele>2900.0</ele>
        <time>2020-09-21T10:58:04Z</time>
      </trkpt>
      <trkpt lat="52.15363" lon="4.5220428">
        <ele>2900.0</ele>
        <time>2020-09-21T10:58:05Z</time>
      </trkpt>
      <trkpt lat="52.15362" lon="4.5220513">
        <ele>2900.0</ele>
        <time>2020-09-21T10:58:06Z</time>
      </trkpt>
      <trkpt lat="52.153606" lon="4.522062">
        <ele>2900.0</ele>
        <time>2020-09-21T10:58:07Z</time>
      </trkpt>
      <trkpt lat="52.15359" lon="4.522073">
        <ele>2900.0</ele>
        <time>2020-09-21T10:58:08Z</time>
      </trkpt>
      <trkpt lat="52.153576" lon="4.5220833">
        <ele>2900.0</ele>
        <time>2020-09-21T10:58:09Z</time>
      </trkpt>
      <trkpt lat="52.15356" lon="4.5220904">
        <ele>2900.0</ele>
        <time>2020-09-21T10:58:10Z</time>
      </trkpt>
      <trkpt lat="52.153538" lon="4.5220947">
        <ele>2900.0</ele>
        <time>2020-09-21T10:58:11Z</time>
      </trkpt>
      <trkpt lat="52.15352" lon="4.522096">
        <ele>2900.0</ele>
        <time>2020-09-21T10:58:12Z</time>
      </trkpt>
      <trkpt lat="52.153496" lon="4.5220966">
        <ele>2900.0</ele>
        <time>2020-09-21T10:58:13Z</time>
      </trkpt>
      <trkpt lat="52.153477" lon="4.522097">
        <ele>2900.0</ele>
        <time>2020-09-21T10:58:14Z</time>
      </trkpt>
      <trkpt lat="52.15345" lon="4.522102">
        <ele>2900.0</ele>
        <time>2020-09-21T10:58:15Z</time>
      </trkpt>
      <trkpt lat="52.153427" lon="4.52211">
        <ele>2900.0</ele>
        <time>2020-09-21T10:58:16Z</time>
      </trkpt>
      <trkpt lat="52.153404" lon="4.5221224">
        <ele>2900.0</ele>
        <time>2020-09-21T10:58:17Z</time>
      </trkpt>
      <trkpt lat="52.15338" lon="4.5221376">
        <ele>2900.0</ele>
        <time>2020-09-21T10:58:19Z</time>
      </trkpt>
      <trkpt lat="52.153355" lon="4.522153">
        <ele>2900.0</ele>
        <time>2020-09-21T10:58:19Z</time>
      </trkpt>
      <trkpt lat="52.153336" lon="4.522169">
        <ele>2900.0</ele>
        <time>2020-09-21T10:58:20Z</time>
      </trkpt>
      <trkpt lat="52.15331" lon="4.522186">
        <ele>2900.0</ele>
        <time>2020-09-21T10:58:21Z</time>
      </trkpt>
      <trkpt lat="52.153286" lon="4.5222">
        <ele>2900.0</ele>
        <time>2020-09-21T10:58:22Z</time>
      </trkpt>
      <trkpt lat="52.153255" lon="4.522211">
        <ele>2900.0</ele>
        <time>2020-09-21T10:58:23Z</time>
      </trkpt>
      <trkpt lat="52.153233" lon="4.522217">
        <ele>2900.0</ele>
        <time>2020-09-21T10:58:24Z</time>
      </trkpt>
      <trkpt lat="52.153206" lon="4.5222235">
        <ele>2900.0</ele>
        <time>2020-09-21T10:58:26Z</time>
      </trkpt>
      <trkpt lat="52.15318" lon="4.5222335">
        <ele>2900.0</ele>
        <time>2020-09-21T10:58:26Z</time>
      </trkpt>
      <trkpt lat="52.153156" lon="4.5222487">
        <ele>2900.0</ele>
        <time>2020-09-21T10:58:27Z</time>
      </trkpt>
      <trkpt lat="52.153133" lon="4.5222683">
        <ele>2900.0</ele>
        <time>2020-09-21T10:58:28Z</time>
      </trkpt>
      <trkpt lat="52.153107" lon="4.5222845">
        <ele>2900.0</ele>
        <time>2020-09-21T10:58:29Z</time>
      </trkpt>
      <trkpt lat="52.153084" lon="4.5222964">
        <ele>2900.0</ele>
        <time>2020-09-21T10:58:30Z</time>
      </trkpt>
      <trkpt lat="52.153057" lon="4.5223103">
        <ele>2900.0</ele>
        <time>2020-09-21T10:58:31Z</time>
      </trkpt>
      <trkpt lat="52.153027" lon="4.5223246">
        <ele>2900.0</ele>
        <time>2020-09-21T10:58:32Z</time>
      </trkpt>
      <trkpt lat="52.153" lon="4.522336">
        <ele>2900.0</ele>
        <time>2020-09-21T10:58:33Z</time>
      </trkpt>
      <trkpt lat="52.15297" lon="4.522348">
        <ele>2900.0</ele>
        <time>2020-09-21T10:58:34Z</time>
      </trkpt>
      <trkpt lat="52.152946" lon="4.5223627">
        <ele>2900.0</ele>
        <time>2020-09-21T10:58:35Z</time>
      </trkpt>
      <trkpt lat="52.152912" lon="4.5223784">
        <ele>2900.0</ele>
        <time>2020-09-21T10:58:36Z</time>
      </trkpt>
      <trkpt lat="52.15289" lon="4.5223937">
        <ele>2900.0</ele>
        <time>2020-09-21T10:58:37Z</time>
      </trkpt>
      <trkpt lat="52.152863" lon="4.5224085">
        <ele>2900.0</ele>
        <time>2020-09-21T10:58:38Z</time>
      </trkpt>
      <trkpt lat="52.152836" lon="4.5224223">
        <ele>2900.0</ele>
        <time>2020-09-21T10:58:39Z</time>
      </trkpt>
      <trkpt lat="52.152817" lon="4.5224357">
        <ele>2900.0</ele>
        <time>2020-09-21T10:58:40Z</time>
      </trkpt>
      <trkpt lat="52.15279" lon="4.5224495">
        <ele>2900.0</ele>
        <time>2020-09-21T10:58:41Z</time>
      </trkpt>
      <trkpt lat="52.15277" lon="4.5224614">
        <ele>2900.0</ele>
        <time>2020-09-21T10:58:42Z</time>
      </trkpt>
      <trkpt lat="52.152744" lon="4.522472">
        <ele>2900.0</ele>
        <time>2020-09-21T10:58:43Z</time>
      </trkpt>
      <trkpt lat="52.152718" lon="4.522482">
        <ele>2900.0</ele>
        <time>2020-09-21T10:58:44Z</time>
      </trkpt>
      <trkpt lat="52.152695" lon="4.522489">
        <ele>2900.0</ele>
        <time>2020-09-21T10:58:45Z</time>
      </trkpt>
      <trkpt lat="52.15267" lon="4.5224957">
        <ele>2900.0</ele>
        <time>2020-09-21T10:58:47Z</time>
      </trkpt>
      <trkpt lat="52.15265" lon="4.522503">
        <ele>2900.0</ele>
        <time>2020-09-21T10:58:47Z</time>
      </trkpt>
      <trkpt lat="52.152626" lon="4.522511">
        <ele>2900.0</ele>
        <time>2020-09-21T10:58:48Z</time>
      </trkpt>
      <trkpt lat="52.152596" lon="4.522522">
        <ele>2900.0</ele>
        <time>2020-09-21T10:58:49Z</time>
      </trkpt>
      <trkpt lat="52.152576" lon="4.522532">
        <ele>2900.0</ele>
        <time>2020-09-21T10:58:50Z</time>
      </trkpt>
      <trkpt lat="52.15255" lon="4.522537">
        <ele>2900.0</ele>
        <time>2020-09-21T10:58:51Z</time>
      </trkpt>
      <trkpt lat="52.152523" lon="4.522536">
        <ele>2900.0</ele>
        <time>2020-09-21T10:58:52Z</time>
      </trkpt>
      <trkpt lat="52.1525" lon="4.522534">
        <ele>2900.0</ele>
        <time>2020-09-21T10:58:53Z</time>
      </trkpt>
      <trkpt lat="52.152473" lon="4.522534">
        <ele>2900.0</ele>
        <time>2020-09-21T10:58:54Z</time>
      </trkpt>
      <trkpt lat="52.152443" lon="4.522535">
        <ele>2900.0</ele>
        <time>2020-09-21T10:58:55Z</time>
      </trkpt>
      <trkpt lat="52.152416" lon="4.5225363">
        <ele>2900.0</ele>
        <time>2020-09-21T10:58:57Z</time>
      </trkpt>
      <trkpt lat="52.152393" lon="4.522536">
        <ele>2900.0</ele>
        <time>2020-09-21T10:58:57Z</time>
      </trkpt>
      <trkpt lat="52.152363" lon="4.522532">
        <ele>2900.0</ele>
        <time>2020-09-21T10:58:58Z</time>
      </trkpt>
      <trkpt lat="52.15233" lon="4.5225263">
        <ele>2900.0</ele>
        <time>2020-09-21T10:58:59Z</time>
      </trkpt>
      <trkpt lat="52.152298" lon="4.522519">
        <ele>2900.0</ele>
        <time>2020-09-21T10:59:00Z</time>
      </trkpt>
      <trkpt lat="52.15226" lon="4.522512">
        <ele>2900.0</ele>
        <time>2020-09-21T10:59:01Z</time>
      </trkpt>
      <trkpt lat="52.15223" lon="4.522517">
        <ele>2900.0</ele>
        <time>2020-09-21T10:59:02Z</time>
      </trkpt>
      <trkpt lat="52.1522" lon="4.522534">
        <ele>2900.0</ele>
        <time>2020-09-21T10:59:03Z</time>
      </trkpt>
      <trkpt lat="52.152172" lon="4.522554">
        <ele>2900.0</ele>
        <time>2020-09-21T10:59:04Z</time>
      </trkpt>
      <trkpt lat="52.152145" lon="4.5225773">
        <ele>2900.0</ele>
        <time>2020-09-21T10:59:05Z</time>
      </trkpt>
      <trkpt lat="52.15212" lon="4.522602">
        <ele>2900.0</ele>
        <time>2020-09-21T10:59:06Z</time>
      </trkpt>
      <trkpt lat="52.1521" lon="4.5226245">
        <ele>2900.0</ele>
        <time>2020-09-21T10:59:08Z</time>
      </trkpt>
      <trkpt lat="52.15208" lon="4.5226483">
        <ele>2900.0</ele>
        <time>2020-09-21T10:59:08Z</time>
      </trkpt>
      <trkpt lat="52.15207" lon="4.5226755">
        <ele>2900.0</ele>
        <time>2020-09-21T10:59:09Z</time>
      </trkpt>
      <trkpt lat="52.152065" lon="4.522706">
        <ele>2900.0</ele>
        <time>2020-09-21T10:59:10Z</time>
      </trkpt>
      <trkpt lat="52.152058" lon="4.5227404">
        <ele>2900.0</ele>
        <time>2020-09-21T10:59:11Z</time>
      </trkpt>
      <trkpt lat="52.152065" lon="4.522775">
        <ele>2900.0</ele>
        <time>2020-09-21T10:59:12Z</time>
      </trkpt>
      <trkpt lat="52.152065" lon="4.5228114">
        <ele>2900.0</ele>
        <time>2020-09-21T10:59:13Z</time>
      </trkpt>
      <trkpt lat="52.152073" lon="4.522851">
        <ele>2900.0</ele>
        <time>2020-09-21T10:59:14Z</time>
      </trkpt>
      <trkpt lat="52.15208" lon="4.52289">
        <ele>2900.0</ele>
        <time>2020-09-21T10:59:15Z</time>
      </trkpt>
      <trkpt lat="52.152084" lon="4.522932">
        <ele>2900.0</ele>
        <time>2020-09-21T10:59:16Z</time>
      </trkpt>
      <trkpt lat="52.152096" lon="4.522974">
        <ele>2900.0</ele>
        <time>2020-09-21T10:59:17Z</time>
      </trkpt>
      <trkpt lat="52.15211" lon="4.5230203">
        <ele>2900.0</ele>
        <time>2020-09-21T10:59:18Z</time>
      </trkpt>
      <trkpt lat="52.15212" lon="4.5230618">
        <ele>2900.0</ele>
        <time>2020-09-21T10:59:19Z</time>
      </trkpt>
      <trkpt lat="52.15213" lon="4.5231047">
        <ele>2900.0</ele>
        <time>2020-09-21T10:59:20Z</time>
      </trkpt>
      <trkpt lat="52.152145" lon="4.5231495">
        <ele>2900.0</ele>
        <time>2020-09-21T10:59:21Z</time>
      </trkpt>
      <trkpt lat="52.15216" lon="4.523194">
        <ele>2900.0</ele>
        <time>2020-09-21T10:59:22Z</time>
      </trkpt>
      <trkpt lat="52.152176" lon="4.523239">
        <ele>2900.0</ele>
        <time>2020-09-21T10:59:23Z</time>
      </trkpt>
      <trkpt lat="52.15219" lon="4.5232844">
        <ele>2900.0</ele>
        <time>2020-09-21T10:59:24Z</time>
      </trkpt>
      <trkpt lat="52.152206" lon="4.523327">
        <ele>2900.0</ele>
        <time>2020-09-21T10:59:26Z</time>
      </trkpt>
      <trkpt lat="52.15222" lon="4.5233674">
        <ele>2900.0</ele>
        <time>2020-09-21T10:59:26Z</time>
      </trkpt>
      <trkpt lat="52.152237" lon="4.5234075">
        <ele>2900.0</ele>
        <time>2020-09-21T10:59:27Z</time>
      </trkpt>
      <trkpt lat="52.152252" lon="4.5234447">
        <ele>2900.0</ele>
        <time>2020-09-21T10:59:28Z</time>
      </trkpt>
      <trkpt lat="52.152267" lon="4.52348">
        <ele>2900.0</ele>
        <time>2020-09-21T10:59:29Z</time>
      </trkpt>
      <trkpt lat="52.152283" lon="4.523512">
        <ele>2900.0</ele>
        <time>2020-09-21T10:59:30Z</time>
      </trkpt>
      <trkpt lat="52.152298" lon="4.523542">
        <ele>2900.0</ele>
        <time>2020-09-21T10:59:31Z</time>
      </trkpt>
      <trkpt lat="52.152313" lon="4.523573">
        <ele>2900.0</ele>
        <time>2020-09-21T10:59:32Z</time>
      </trkpt>
      <trkpt lat="52.152325" lon="4.5236025">
        <ele>2900.0</ele>
        <time>2020-09-21T10:59:33Z</time>
      </trkpt>
      <trkpt lat="52.15234" lon="4.5236325">
        <ele>2900.0</ele>
        <time>2020-09-21T10:59:34Z</time>
      </trkpt>
      <trkpt lat="52.15235" lon="4.5236645">
        <ele>2900.0</ele>
        <time>2020-09-21T10:59:36Z</time>
      </trkpt>
      <trkpt lat="52.152367" lon="4.5236964">
        <ele>2900.0</ele>
        <time>2020-09-21T10:59:36Z</time>
      </trkpt>
      <trkpt lat="52.152378" lon="4.523725">
        <ele>2900.0</ele>
        <time>2020-09-21T10:59:37Z</time>
      </trkpt>
      <trkpt lat="52.152386" lon="4.5237527">
        <ele>2900.0</ele>
        <time>2020-09-21T10:59:38Z</time>
      </trkpt>
      <trkpt lat="52.152397" lon="4.52378">
        <ele>2900.0</ele>
        <time>2020-09-21T10:59:39Z</time>
      </trkpt>
      <trkpt lat="52.152412" lon="4.5238056">
        <ele>2900.0</ele>
        <time>2020-09-21T10:59:40Z</time>
      </trkpt>
      <trkpt lat="52.152424" lon="4.52383">
        <ele>2900.0</ele>
        <time>2020-09-21T10:59:41Z</time>
      </trkpt>
      <trkpt lat="52.15243" lon="4.523855">
        <ele>2900.0</ele>
        <time>2020-09-21T10:59:42Z</time>
      </trkpt>
      <trkpt lat="52.152443" lon="4.5238805">
        <ele>2900.0</ele>
        <time>2020-09-21T10:59:43Z</time>
      </trkpt>
      <trkpt lat="52.152454" lon="4.5239067">
        <ele>2900.0</ele>
        <time>2020-09-21T10:59:44Z</time>
      </trkpt>
      <trkpt lat="52.152462" lon="4.5239367">
        <ele>2900.0</ele>
        <time>2020-09-21T10:59:45Z</time>
      </trkpt>
      <trkpt lat="52.152473" lon="4.523971">
        <ele>2900.0</ele>
        <time>2020-09-21T10:59:47Z</time>
      </trkpt>
      <trkpt lat="52.15249" lon="4.5240088">
        <ele>2900.0</ele>
        <time>2020-09-21T10:59:47Z</time>
      </trkpt>
      <trkpt lat="52.1525" lon="4.5240493">
        <ele>2900.0</ele>
        <time>2020-09-21T10:59:48Z</time>
      </trkpt>
      <trkpt lat="52.152508" lon="4.524089">
        <ele>2900.0</ele>
        <time>2020-09-21T10:59:49Z</time>
      </trkpt>
      <trkpt lat="52.152523" lon="4.5241294">
        <ele>2900.0</ele>
        <time>2020-09-21T10:59:50Z</time>
      </trkpt>
      <trkpt lat="52.15254" lon="4.5241704">
        <ele>2900.0</ele>
        <time>2020-09-21T10:59:51Z</time>
      </trkpt>
      <trkpt lat="52.15255" lon="4.5242124">
        <ele>2900.0</ele>
        <time>2020-09-21T10:59:52Z</time>
      </trkpt>
      <trkpt lat="52.152565" lon="4.5242553">
        <ele>2900.0</ele>
        <time>2020-09-21T10:59:53Z</time>
      </trkpt>
      <trkpt lat="52.152588" lon="4.524297">
        <ele>2900.0</ele>
        <time>2020-09-21T10:59:54Z</time>
      </trkpt>
      <trkpt lat="52.152603" lon="4.5243397">
        <ele>2900.0</ele>
        <time>2020-09-21T10:59:55Z</time>
      </trkpt>
      <trkpt lat="52.152622" lon="4.524384">
        <ele>2900.0</ele>
        <time>2020-09-21T10:59:56Z</time>
      </trkpt>
      <trkpt lat="52.15265" lon="4.5244308">
        <ele>2900.0</ele>
        <time>2020-09-21T10:59:57Z</time>
      </trkpt>
      <trkpt lat="52.152668" lon="4.52448">
        <ele>2900.0</ele>
        <time>2020-09-21T10:59:58Z</time>
      </trkpt>
      <trkpt lat="52.152687" lon="4.5245275">
        <ele>2900.0</ele>
        <time>2020-09-21T10:59:59Z</time>
      </trkpt>
      <trkpt lat="52.152714" lon="4.524576">
        <ele>2900.0</ele>
        <time>2020-09-21T11:00:00Z</time>
      </trkpt>
      <trkpt lat="52.152733" lon="4.5246263">
        <ele>2900.0</ele>
        <time>2020-09-21T11:00:01Z</time>
      </trkpt>
      <trkpt lat="52.152756" lon="4.5246744">
        <ele>2900.0</ele>
        <time>2020-09-21T11:00:02Z</time>
      </trkpt>
      <trkpt lat="52.15277" lon="4.5247216">
        <ele>2900.0</ele>
        <time>2020-09-21T11:00:03Z</time>
      </trkpt>
      <trkpt lat="52.15279" lon="4.524765">
        <ele>2900.0</ele>
        <time>2020-09-21T11:00:04Z</time>
      </trkpt>
      <trkpt lat="52.152805" lon="4.524809">
        <ele>2900.0</ele>
        <time>2020-09-21T11:00:05Z</time>
      </trkpt>
      <trkpt lat="52.15283" lon="4.5248523">
        <ele>2900.0</ele>
        <time>2020-09-21T11:00:06Z</time>
      </trkpt>
      <trkpt lat="52.152843" lon="4.524894">
        <ele>2900.0</ele>
        <time>2020-09-21T11:00:08Z</time>
      </trkpt>
      <trkpt lat="52.15285" lon="4.524937">
        <ele>2900.0</ele>
        <time>2020-09-21T11:00:08Z</time>
      </trkpt>
      <trkpt lat="52.152866" lon="4.5249777">
        <ele>2900.0</ele>
        <time>2020-09-21T11:00:09Z</time>
      </trkpt>
      <trkpt lat="52.152878" lon="4.5250187">
        <ele>2900.0</ele>
        <time>2020-09-21T11:00:10Z</time>
      </trkpt>
      <trkpt lat="52.15289" lon="4.5250597">
        <ele>2900.0</ele>
        <time>2020-09-21T11:00:11Z</time>
      </trkpt>
      <trkpt lat="52.152897" lon="4.5251007">
        <ele>2900.0</ele>
        <time>2020-09-21T11:00:12Z</time>
      </trkpt>
      <trkpt lat="52.152912" lon="4.5251412">
        <ele>2900.0</ele>
        <time>2020-09-21T11:00:13Z</time>
      </trkpt>
      <trkpt lat="52.152927" lon="4.5251803">
        <ele>2900.0</ele>
        <time>2020-09-21T11:00:14Z</time>
      </trkpt>
      <trkpt lat="52.152946" lon="4.5252166">
        <ele>2900.0</ele>
        <time>2020-09-21T11:00:15Z</time>
      </trkpt>
      <trkpt lat="52.15296" lon="4.5252533">
        <ele>2900.0</ele>
        <time>2020-09-21T11:00:16Z</time>
      </trkpt>
      <trkpt lat="52.152977" lon="4.5252914">
        <ele>2900.0</ele>
        <time>2020-09-21T11:00:18Z</time>
      </trkpt>
      <trkpt lat="52.152992" lon="4.5253286">
        <ele>2900.0</ele>
        <time>2020-09-21T11:00:18Z</time>
      </trkpt>
      <trkpt lat="52.153008" lon="4.5253673">
        <ele>2900.0</ele>
        <time>2020-09-21T11:00:19Z</time>
      </trkpt>
      <trkpt lat="52.153015" lon="4.5254054">
        <ele>2900.0</ele>
        <time>2020-09-21T11:00:20Z</time>
      </trkpt>
      <trkpt lat="52.153027" lon="4.525444">
        <ele>2900.0</ele>
        <time>2020-09-21T11:00:21Z</time>
      </trkpt>
      <trkpt lat="52.15303" lon="4.525482">
        <ele>2900.0</ele>
        <time>2020-09-21T11:00:22Z</time>
      </trkpt>
      <trkpt lat="52.15304" lon="4.5255203">
        <ele>2900.0</ele>
        <time>2020-09-21T11:00:23Z</time>
      </trkpt>
      <trkpt lat="52.153046" lon="4.525557">
        <ele>2900.0</ele>
        <time>2020-09-21T11:00:25Z</time>
      </trkpt>
      <trkpt lat="52.153057" lon="4.525592">
        <ele>2900.0</ele>
        <time>2020-09-21T11:00:25Z</time>
      </trkpt>
      <trkpt lat="52.15306" lon="4.5256243">
        <ele>2900.0</ele>
        <time>2020-09-21T11:00:26Z</time>
      </trkpt>
      <trkpt lat="52.153072" lon="4.5256543">
        <ele>2900.0</ele>
        <time>2020-09-21T11:00:27Z</time>
      </trkpt>
      <trkpt lat="52.153076" lon="4.525681">
        <ele>2900.0</ele>
        <time>2020-09-21T11:00:28Z</time>
      </trkpt>
      <trkpt lat="52.153076" lon="4.5257006">
        <ele>2900.0</ele>
        <time>2020-09-21T11:00:29Z</time>
      </trkpt>
      <trkpt lat="52.153072" lon="4.525713">
        <ele>2900.0</ele>
        <time>2020-09-21T11:00:30Z</time>
      </trkpt>
      <trkpt lat="52.15307" lon="4.5257425">
        <ele>2900.0</ele>
        <time>2020-09-21T11:00:32Z</time>
      </trkpt>
      <trkpt lat="52.15307" lon="4.5257416">
        <ele>2900.0</ele>
        <time>2020-09-21T11:00:33Z</time>
      </trkpt>
      <trkpt lat="52.15307" lon="4.5257435">
        <ele>2900.0</ele>
        <time>2020-09-21T11:00:34Z</time>
      </trkpt>
      <trkpt lat="52.15307" lon="4.5257483">
        <ele>2900.0</ele>
        <time>2020-09-21T11:00:36Z</time>
      </trkpt>
      <trkpt lat="52.15306" lon="4.525756">
        <ele>2900.0</ele>
        <time>2020-09-21T11:00:36Z</time>
      </trkpt>
      <trkpt lat="52.15306" lon="4.525767">
        <ele>2900.0</ele>
        <time>2020-09-21T11:00:37Z</time>
      </trkpt>
      <trkpt lat="52.15306" lon="4.525777">
        <ele>2900.0</ele>
        <time>2020-09-21T11:00:38Z</time>
      </trkpt>
      <trkpt lat="52.15306" lon="4.5257874">
        <ele>2900.0</ele>
        <time>2020-09-21T11:00:39Z</time>
      </trkpt>
      <trkpt lat="52.15306" lon="4.5257974">
        <ele>2900.0</ele>
        <time>2020-09-21T11:00:40Z</time>
      </trkpt>
      <trkpt lat="52.15306" lon="4.525805">
        <ele>2900.0</ele>
        <time>2020-09-21T11:00:41Z</time>
      </trkpt>
      <trkpt lat="52.15307" lon="4.5258117">
        <ele>2900.0</ele>
        <time>2020-09-21T11:00:42Z</time>
      </trkpt>
      <trkpt lat="52.15307" lon="4.5258203">
        <ele>2900.0</ele>
        <time>2020-09-21T11:00:43Z</time>
      </trkpt>
      <trkpt lat="52.153072" lon="4.5258293">
        <ele>2900.0</ele>
        <time>2020-09-21T11:00:44Z</time>
      </trkpt>
      <trkpt lat="52.153076" lon="4.525839">
        <ele>2900.0</ele>
        <time>2020-09-21T11:00:45Z</time>
      </trkpt>
      <trkpt lat="52.153084" lon="4.525849">
        <ele>2900.0</ele>
        <time>2020-09-21T11:00:46Z</time>
      </trkpt>
      <trkpt lat="52.153088" lon="4.5258584">
        <ele>2900.0</ele>
        <time>2020-09-21T11:00:47Z</time>
      </trkpt>
      <trkpt lat="52.15309" lon="4.525868">
        <ele>2900.0</ele>
        <time>2020-09-21T11:00:48Z</time>
      </trkpt>
      <trkpt lat="52.153107" lon="4.5258856">
        <ele>2900.0</ele>
        <time>2020-09-21T11:00:50Z</time>
      </trkpt>
      <trkpt lat="52.153107" lon="4.525885">
        <ele>2900.0</ele>
        <time>2020-09-21T11:00:51Z</time>
      </trkpt>
      <trkpt lat="52.153107" lon="4.5258856">
        <ele>2900.0</ele>
        <time>2020-09-21T11:00:52Z</time>
      </trkpt>
      <trkpt lat="52.153114" lon="4.5258865">
        <ele>2900.0</ele>
        <time>2020-09-21T11:00:53Z</time>
      </trkpt>
      <trkpt lat="52.15312" lon="4.5258894">
        <ele>2900.0</ele>
        <time>2020-09-21T11:00:54Z</time>
      </trkpt>
      <trkpt lat="52.153122" lon="4.525889">
        <ele>2900.0</ele>
        <time>2020-09-21T11:00:55Z</time>
      </trkpt>
      <trkpt lat="52.153133" lon="4.5258856">
        <ele>2900.0</ele>
        <time>2020-09-21T11:00:56Z</time>
      </trkpt>
      <trkpt lat="52.153145" lon="4.525878">
        <ele>2900.0</ele>
        <time>2020-09-21T11:00:57Z</time>
      </trkpt>
      <trkpt lat="52.153156" lon="4.525867">
        <ele>2900.0</ele>
        <time>2020-09-21T11:00:57Z</time>
      </trkpt>
      <trkpt lat="52.153164" lon="4.525857">
        <ele>2900.0</ele>
        <time>2020-09-21T11:00:58Z</time>
      </trkpt>
      <trkpt lat="52.15317" lon="4.5258493">
        <ele>2900.0</ele>
        <time>2020-09-21T11:00:59Z</time>
      </trkpt>
      <trkpt lat="52.153175" lon="4.525847">
        <ele>2900.0</ele>
        <time>2020-09-21T11:01:00Z</time>
      </trkpt>
      <trkpt lat="52.15319" lon="4.5258355">
        <ele>2900.0</ele>
        <time>2020-09-21T11:01:02Z</time>
      </trkpt>
      <trkpt lat="52.153187" lon="4.525834">
        <ele>2900.0</ele>
        <time>2020-09-21T11:01:03Z</time>
      </trkpt>
      <trkpt lat="52.153187" lon="4.525832">
        <ele>2900.0</ele>
        <time>2020-09-21T11:01:04Z</time>
      </trkpt>
      <trkpt lat="52.153187" lon="4.5258303">
        <ele>2900.0</ele>
        <time>2020-09-21T11:01:05Z</time>
      </trkpt>
      <trkpt lat="52.15318" lon="4.5258207">
        <ele>2900.0</ele>
        <time>2020-09-21T11:01:08Z</time>
      </trkpt>
      <trkpt lat="52.15318" lon="4.525821">
        <ele>2900.0</ele>
        <time>2020-09-21T11:01:08Z</time>
      </trkpt>
      <trkpt lat="52.153175" lon="4.525821">
        <ele>2900.0</ele>
        <time>2020-09-21T11:01:09Z</time>
      </trkpt>
      <trkpt lat="52.153175" lon="4.5258203">
        <ele>2900.0</ele>
        <time>2020-09-21T11:01:10Z</time>
      </trkpt>
      <trkpt lat="52.15317" lon="4.5258174">
        <ele>2900.0</ele>
        <time>2020-09-21T11:01:11Z</time>
      </trkpt>
      <trkpt lat="52.15317" lon="4.5258155">
        <ele>2900.0</ele>
        <time>2020-09-21T11:01:12Z</time>
      </trkpt>
      <trkpt lat="52.15316" lon="4.525814">
        <ele>2900.0</ele>
        <time>2020-09-21T11:01:14Z</time>
      </trkpt>
      <trkpt lat="52.153175" lon="4.525824">
        <ele>2900.0</ele>
        <time>2020-09-21T11:01:16Z</time>
      </trkpt>
      <trkpt lat="52.153175" lon="4.525824">
        <ele>2900.0</ele>
        <time>2020-09-21T11:01:17Z</time>
      </trkpt>
      <trkpt lat="52.153175" lon="4.5258236">
        <ele>2900.0</ele>
        <time>2020-09-21T11:01:19Z</time>
      </trkpt>
      <trkpt lat="52.153175" lon="4.525806">
        <ele>2900.0</ele>
        <time>2020-09-21T11:01:42Z</time>
      </trkpt>
      <trkpt lat="52.15318" lon="4.5258017">
        <ele>2900.0</ele>
        <time>2020-09-21T11:01:43Z</time>
      </trkpt>
      <trkpt lat="52.15319" lon="4.5257936">
        <ele>2900.0</ele>
        <time>2020-09-21T11:01:44Z</time>
      </trkpt>
      <trkpt lat="52.153206" lon="4.525785">
        <ele>2900.0</ele>
        <time>2020-09-21T11:01:45Z</time>
      </trkpt>
      <trkpt lat="52.15322" lon="4.5257783">
        <ele>2900.0</ele>
        <time>2020-09-21T11:01:47Z</time>
      </trkpt>
      <trkpt lat="52.153236" lon="4.525772">
        <ele>2900.0</ele>
        <time>2020-09-21T11:01:47Z</time>
      </trkpt>
      <trkpt lat="52.153255" lon="4.5257626">
        <ele>2900.0</ele>
        <time>2020-09-21T11:01:48Z</time>
      </trkpt>
      <trkpt lat="52.15328" lon="4.5257525">
        <ele>2900.0</ele>
        <time>2020-09-21T11:01:50Z</time>
      </trkpt>
      <trkpt lat="52.153294" lon="4.525737">
        <ele>2900.0</ele>
        <time>2020-09-21T11:01:50Z</time>
      </trkpt>
      <trkpt lat="52.153316" lon="4.5257163">
        <ele>2900.0</ele>
        <time>2020-09-21T11:01:51Z</time>
      </trkpt>
      <trkpt lat="52.15334" lon="4.525697">
        <ele>2900.0</ele>
        <time>2020-09-21T11:01:52Z</time>
      </trkpt>
      <trkpt lat="52.153366" lon="4.5256786">
        <ele>2900.0</ele>
        <time>2020-09-21T11:01:53Z</time>
      </trkpt>
      <trkpt lat="52.153385" lon="4.525657">
        <ele>2900.0</ele>
        <time>2020-09-21T11:01:54Z</time>
      </trkpt>
      <trkpt lat="52.153404" lon="4.5256324">
        <ele>2900.0</ele>
        <time>2020-09-21T11:01:55Z</time>
      </trkpt>
      <trkpt lat="52.153416" lon="4.5256033">
        <ele>2900.0</ele>
        <time>2020-09-21T11:01:56Z</time>
      </trkpt>
      <trkpt lat="52.153427" lon="4.5255723">
        <ele>2900.0</ele>
        <time>2020-09-21T11:01:57Z</time>
      </trkpt>
      <trkpt lat="52.15342" lon="4.525541">
        <ele>2900.0</ele>
        <time>2020-09-21T11:01:58Z</time>
      </trkpt>
      <trkpt lat="52.15341" lon="4.525508">
        <ele>2900.0</ele>
        <time>2020-09-21T11:01:59Z</time>
      </trkpt>
      <trkpt lat="52.153397" lon="4.525471">
        <ele>2900.0</ele>
        <time>2020-09-21T11:02:00Z</time>
      </trkpt>
      <trkpt lat="52.153374" lon="4.5254316">
        <ele>2900.0</ele>
        <time>2020-09-21T11:02:01Z</time>
      </trkpt>
      <trkpt lat="52.15335" lon="4.525387">
        <ele>2900.0</ele>
        <time>2020-09-21T11:02:02Z</time>
      </trkpt>
      <trkpt lat="52.153328" lon="4.525343">
        <ele>2900.0</ele>
        <time>2020-09-21T11:02:03Z</time>
      </trkpt>
      <trkpt lat="52.1533" lon="4.525301">
        <ele>2900.0</ele>
        <time>2020-09-21T11:02:04Z</time>
      </trkpt>
      <trkpt lat="52.153282" lon="4.525258">
        <ele>2900.0</ele>
        <time>2020-09-21T11:02:05Z</time>
      </trkpt>
      <trkpt lat="52.153263" lon="4.5252123">
        <ele>2900.0</ele>
        <time>2020-09-21T11:02:06Z</time>
      </trkpt>
      <trkpt lat="52.15324" lon="4.5251637">
        <ele>2900.0</ele>
        <time>2020-09-21T11:02:08Z</time>
      </trkpt>
      <trkpt lat="52.15322" lon="4.5251102">
        <ele>2900.0</ele>
        <time>2020-09-21T11:02:08Z</time>
      </trkpt>
      <trkpt lat="52.153202" lon="4.525053">
        <ele>2900.0</ele>
        <time>2020-09-21T11:02:09Z</time>
      </trkpt>
      <trkpt lat="52.15318" lon="4.5249953">
        <ele>2900.0</ele>
        <time>2020-09-21T11:02:10Z</time>
      </trkpt>
      <trkpt lat="52.15316" lon="4.524939">
        <ele>2900.0</ele>
        <time>2020-09-21T11:02:11Z</time>
      </trkpt>
      <trkpt lat="52.15314" lon="4.524886">
        <ele>2900.0</ele>
        <time>2020-09-21T11:02:12Z</time>
      </trkpt>
      <trkpt lat="52.153114" lon="4.524828">
        <ele>2900.0</ele>
        <time>2020-09-21T11:02:13Z</time>
      </trkpt>
      <trkpt lat="52.15309" lon="4.524776">
        <ele>2900.0</ele>
        <time>2020-09-21T11:02:14Z</time>
      </trkpt>
      <trkpt lat="52.153072" lon="4.52472">
        <ele>2900.0</ele>
        <time>2020-09-21T11:02:15Z</time>
      </trkpt>
      <trkpt lat="52.153053" lon="4.524664">
        <ele>2900.0</ele>
        <time>2020-09-21T11:02:16Z</time>
      </trkpt>
      <trkpt lat="52.153027" lon="4.524607">
        <ele>2900.0</ele>
        <time>2020-09-21T11:02:18Z</time>
      </trkpt>
      <trkpt lat="52.153008" lon="4.524547">
        <ele>2900.0</ele>
        <time>2020-09-21T11:02:18Z</time>
      </trkpt>
      <trkpt lat="52.15298" lon="4.5244856">
        <ele>2900.0</ele>
        <time>2020-09-21T11:02:19Z</time>
      </trkpt>
      <trkpt lat="52.152954" lon="4.524422">
        <ele>2900.0</ele>
        <time>2020-09-21T11:02:20Z</time>
      </trkpt>
      <trkpt lat="52.152927" lon="4.5243645">
        <ele>2900.0</ele>
        <time>2020-09-21T11:02:21Z</time>
      </trkpt>
      <trkpt lat="52.15291" lon="4.524307">
        <ele>2900.0</ele>
        <time>2020-09-21T11:02:22Z</time>
      </trkpt>
      <trkpt lat="52.15288" lon="4.524244">
        <ele>2900.0</ele>
        <time>2020-09-21T11:02:23Z</time>
      </trkpt>
      <trkpt lat="52.152863" lon="4.524182">
        <ele>2900.0</ele>
        <time>2020-09-21T11:02:24Z</time>
      </trkpt>
      <trkpt lat="52.152843" lon="4.5241237">
        <ele>2900.0</ele>
        <time>2020-09-21T11:02:26Z</time>
      </trkpt>
      <trkpt lat="52.15282" lon="4.5240684">
        <ele>2900.0</ele>
        <time>2020-09-21T11:02:26Z</time>
      </trkpt>
      <trkpt lat="52.152805" lon="4.5240116">
        <ele>2900.0</ele>
        <time>2020-09-21T11:02:27Z</time>
      </trkpt>
      <trkpt lat="52.152786" lon="4.523956">
        <ele>2900.0</ele>
        <time>2020-09-21T11:02:28Z</time>
      </trkpt>
      <trkpt lat="52.15277" lon="4.5239015">
        <ele>2900.0</ele>
        <time>2020-09-21T11:02:29Z</time>
      </trkpt>
      <trkpt lat="52.152756" lon="4.523848">
        <ele>2900.0</ele>
        <time>2020-09-21T11:02:30Z</time>
      </trkpt>
      <trkpt lat="52.15274" lon="4.5237956">
        <ele>2900.0</ele>
        <time>2020-09-21T11:02:31Z</time>
      </trkpt>
      <trkpt lat="52.152718" lon="4.5237494">
        <ele>2900.0</ele>
        <time>2020-09-21T11:02:32Z</time>
      </trkpt>
      <trkpt lat="52.1527" lon="4.5237117">
        <ele>2900.0</ele>
        <time>2020-09-21T11:02:33Z</time>
      </trkpt>
      <trkpt lat="52.15267" lon="4.5236807">
        <ele>2900.0</ele>
        <time>2020-09-21T11:02:34Z</time>
      </trkpt>
      <trkpt lat="52.15264" lon="4.523654">
        <ele>2900.0</ele>
        <time>2020-09-21T11:02:35Z</time>
      </trkpt>
      <trkpt lat="52.15262" lon="4.5236263">
        <ele>2900.0</ele>
        <time>2020-09-21T11:02:36Z</time>
      </trkpt>
      <trkpt lat="52.15259" lon="4.5235944">
        <ele>2900.0</ele>
        <time>2020-09-21T11:02:37Z</time>
      </trkpt>
      <trkpt lat="52.152565" lon="4.523557">
        <ele>2900.0</ele>
        <time>2020-09-21T11:02:38Z</time>
      </trkpt>
      <trkpt lat="52.152546" lon="4.5235167">
        <ele>2900.0</ele>
        <time>2020-09-21T11:02:39Z</time>
      </trkpt>
      <trkpt lat="52.152523" lon="4.5234737">
        <ele>2900.0</ele>
        <time>2020-09-21T11:02:40Z</time>
      </trkpt>
      <trkpt lat="52.152508" lon="4.5234275">
        <ele>2900.0</ele>
        <time>2020-09-21T11:02:41Z</time>
      </trkpt>
      <trkpt lat="52.15249" lon="4.523379">
        <ele>2900.0</ele>
        <time>2020-09-21T11:02:42Z</time>
      </trkpt>
      <trkpt lat="52.152473" lon="4.523331">
        <ele>2900.0</ele>
        <time>2020-09-21T11:02:43Z</time>
      </trkpt>
      <trkpt lat="52.152454" lon="4.5232854">
        <ele>2900.0</ele>
        <time>2020-09-21T11:02:44Z</time>
      </trkpt>
      <trkpt lat="52.15244" lon="4.5232406">
        <ele>2900.0</ele>
        <time>2020-09-21T11:02:45Z</time>
      </trkpt>
      <trkpt lat="52.152416" lon="4.5231953">
        <ele>3000.0</ele>
        <time>2020-09-21T11:02:47Z</time>
      </trkpt>
      <trkpt lat="52.1524" lon="4.523149">
        <ele>3000.0</ele>
        <time>2020-09-21T11:02:47Z</time>
      </trkpt>
      <trkpt lat="52.152386" lon="4.5230994">
        <ele>3000.0</ele>
        <time>2020-09-21T11:02:48Z</time>
      </trkpt>
      <trkpt lat="52.15237" lon="4.523049">
        <ele>3000.0</ele>
        <time>2020-09-21T11:02:49Z</time>
      </trkpt>
      <trkpt lat="52.15235" lon="4.5229974">
        <ele>3000.0</ele>
        <time>2020-09-21T11:02:50Z</time>
      </trkpt>
      <trkpt lat="52.152336" lon="4.522951">
        <ele>3000.0</ele>
        <time>2020-09-21T11:02:51Z</time>
      </trkpt>
      <trkpt lat="52.152325" lon="4.522906">
        <ele>3000.0</ele>
        <time>2020-09-21T11:02:52Z</time>
      </trkpt>
      <trkpt lat="52.152313" lon="4.5228586">
        <ele>3100.0</ele>
        <time>2020-09-21T11:02:53Z</time>
      </trkpt>
      <trkpt lat="52.152306" lon="4.5228095">
        <ele>3100.0</ele>
        <time>2020-09-21T11:02:54Z</time>
      </trkpt>
      <trkpt lat="52.152294" lon="4.5227637">
        <ele>3100.0</ele>
        <time>2020-09-21T11:02:55Z</time>
      </trkpt>
      <trkpt lat="52.152283" lon="4.522713">
        <ele>3100.0</ele>
        <time>2020-09-21T11:02:57Z</time>
      </trkpt>
      <trkpt lat="52.152275" lon="4.522663">
        <ele>3100.0</ele>
        <time>2020-09-21T11:02:57Z</time>
      </trkpt>
      <trkpt lat="52.152264" lon="4.522617">
        <ele>3100.0</ele>
        <time>2020-09-21T11:02:58Z</time>
      </trkpt>
      <trkpt lat="52.152252" lon="4.5225697">
        <ele>3100.0</ele>
        <time>2020-09-21T11:02:59Z</time>
      </trkpt>
      <trkpt lat="52.152245" lon="4.5225163">
        <ele>3100.0</ele>
        <time>2020-09-21T11:03:00Z</time>
      </trkpt>
      <trkpt lat="52.152233" lon="4.522464">
        <ele>3100.0</ele>
        <time>2020-09-21T11:03:01Z</time>
      </trkpt>
      <trkpt lat="52.15222" lon="4.5224113">
        <ele>3100.0</ele>
        <time>2020-09-21T11:03:02Z</time>
      </trkpt>
      <trkpt lat="52.152214" lon="4.522357">
        <ele>3100.0</ele>
        <time>2020-09-21T11:03:03Z</time>
      </trkpt>
      <trkpt lat="52.152203" lon="4.5223017">
        <ele>3100.0</ele>
        <time>2020-09-21T11:03:04Z</time>
      </trkpt>
      <trkpt lat="52.15219" lon="4.522245">
        <ele>3100.0</ele>
        <time>2020-09-21T11:03:05Z</time>
      </trkpt>
      <trkpt lat="52.152184" lon="4.522185">
        <ele>3100.0</ele>
        <time>2020-09-21T11:03:06Z</time>
      </trkpt>
      <trkpt lat="52.152176" lon="4.522125">
        <ele>3100.0</ele>
        <time>2020-09-21T11:03:07Z</time>
      </trkpt>
      <trkpt lat="52.152172" lon="4.522065">
        <ele>3100.0</ele>
        <time>2020-09-21T11:03:08Z</time>
      </trkpt>
      <trkpt lat="52.15217" lon="4.522003">
        <ele>3100.0</ele>
        <time>2020-09-21T11:03:09Z</time>
      </trkpt>
      <trkpt lat="52.152157" lon="4.5219364">
        <ele>3100.0</ele>
        <time>2020-09-21T11:03:10Z</time>
      </trkpt>
      <trkpt lat="52.15215" lon="4.5218716">
        <ele>3100.0</ele>
        <time>2020-09-21T11:03:11Z</time>
      </trkpt>
      <trkpt lat="52.15214" lon="4.5218034">
        <ele>3100.0</ele>
        <time>2020-09-21T11:03:12Z</time>
      </trkpt>
      <trkpt lat="52.152134" lon="4.5217314">
        <ele>3100.0</ele>
        <time>2020-09-21T11:03:13Z</time>
      </trkpt>
      <trkpt lat="52.15213" lon="4.5216584">
        <ele>3100.0</ele>
        <time>2020-09-21T11:03:14Z</time>
      </trkpt>
      <trkpt lat="52.152126" lon="4.5215864">
        <ele>3100.0</ele>
        <time>2020-09-21T11:03:15Z</time>
      </trkpt>
      <trkpt lat="52.152126" lon="4.521512">
        <ele>3100.0</ele>
        <time>2020-09-21T11:03:16Z</time>
      </trkpt>
      <trkpt lat="52.152126" lon="4.521444">
        <ele>3100.0</ele>
        <time>2020-09-21T11:03:18Z</time>
      </trkpt>
      <trkpt lat="52.15213" lon="4.5213795">
        <ele>3100.0</ele>
        <time>2020-09-21T11:03:18Z</time>
      </trkpt>
      <trkpt lat="52.15215" lon="4.5213165">
        <ele>3100.0</ele>
        <time>2020-09-21T11:03:19Z</time>
      </trkpt>
      <trkpt lat="52.152172" lon="4.5212603">
        <ele>3100.0</ele>
        <time>2020-09-21T11:03:20Z</time>
      </trkpt>
      <trkpt lat="52.1522" lon="4.5212135">
        <ele>3100.0</ele>
        <time>2020-09-21T11:03:21Z</time>
      </trkpt>
      <trkpt lat="52.15223" lon="4.521175">
        <ele>3100.0</ele>
        <time>2020-09-21T11:03:22Z</time>
      </trkpt>
      <trkpt lat="52.15226" lon="4.521145">
        <ele>3100.0</ele>
        <time>2020-09-21T11:03:23Z</time>
      </trkpt>
      <trkpt lat="52.152294" lon="4.5211287">
        <ele>3100.0</ele>
        <time>2020-09-21T11:03:24Z</time>
      </trkpt>
      <trkpt lat="52.15233" lon="4.5211267">
        <ele>3100.0</ele>
        <time>2020-09-21T11:03:26Z</time>
      </trkpt>
      <trkpt lat="52.152367" lon="4.52114">
        <ele>3100.0</ele>
        <time>2020-09-21T11:03:26Z</time>
      </trkpt>
      <trkpt lat="52.152397" lon="4.5211697">
        <ele>3100.0</ele>
        <time>2020-09-21T11:03:27Z</time>
      </trkpt>
      <trkpt lat="52.152428" lon="4.5212097">
        <ele>3000.0</ele>
        <time>2020-09-21T11:03:28Z</time>
      </trkpt>
      <trkpt lat="52.152454" lon="4.5212603">
        <ele>3000.0</ele>
        <time>2020-09-21T11:03:29Z</time>
      </trkpt>
      <trkpt lat="52.152473" lon="4.521319">
        <ele>3000.0</ele>
        <time>2020-09-21T11:03:30Z</time>
      </trkpt>
      <trkpt lat="52.15249" lon="4.5213814">
        <ele>3000.0</ele>
        <time>2020-09-21T11:03:31Z</time>
      </trkpt>
      <trkpt lat="52.152504" lon="4.5214434">
        <ele>3000.0</ele>
        <time>2020-09-21T11:03:32Z</time>
      </trkpt>
      <trkpt lat="52.152515" lon="4.5215015">
        <ele>3000.0</ele>
        <time>2020-09-21T11:03:33Z</time>
      </trkpt>
      <trkpt lat="52.152523" lon="4.5215545">
        <ele>2900.0</ele>
        <time>2020-09-21T11:03:34Z</time>
      </trkpt>
      <trkpt lat="52.152534" lon="4.521605">
        <ele>2900.0</ele>
        <time>2020-09-21T11:03:36Z</time>
      </trkpt>
      <trkpt lat="52.152546" lon="4.521654">
        <ele>2900.0</ele>
        <time>2020-09-21T11:03:36Z</time>
      </trkpt>
      <trkpt lat="52.152557" lon="4.521698">
        <ele>2900.0</ele>
        <time>2020-09-21T11:03:37Z</time>
      </trkpt>
      <trkpt lat="52.152573" lon="4.521734">
        <ele>2900.0</ele>
        <time>2020-09-21T11:03:38Z</time>
      </trkpt>
      <trkpt lat="52.152588" lon="4.521763">
        <ele>2900.0</ele>
        <time>2020-09-21T11:03:39Z</time>
      </trkpt>
      <trkpt lat="52.152603" lon="4.5217814">
        <ele>2900.0</ele>
        <time>2020-09-21T11:03:40Z</time>
      </trkpt>
      <trkpt lat="52.152626" lon="4.5217915">
        <ele>2900.0</ele>
        <time>2020-09-21T11:03:41Z</time>
      </trkpt>
      <trkpt lat="52.152653" lon="4.521795">
        <ele>2900.0</ele>
        <time>2020-09-21T11:03:42Z</time>
      </trkpt>
      <trkpt lat="52.152683" lon="4.5217924">
        <ele>2900.0</ele>
        <time>2020-09-21T11:03:43Z</time>
      </trkpt>
      <trkpt lat="52.152718" lon="4.5217867">
        <ele>2900.0</ele>
        <time>2020-09-21T11:03:44Z</time>
      </trkpt>
      <trkpt lat="52.152756" lon="4.5217786">
        <ele>2900.0</ele>
        <time>2020-09-21T11:03:45Z</time>
      </trkpt>
      <trkpt lat="52.15279" lon="4.521769">
        <ele>2900.0</ele>
        <time>2020-09-21T11:03:46Z</time>
      </trkpt>
      <trkpt lat="52.152832" lon="4.521757">
        <ele>2900.0</ele>
        <time>2020-09-21T11:03:47Z</time>
      </trkpt>
      <trkpt lat="52.152866" lon="4.5217457">
        <ele>2900.0</ele>
        <time>2020-09-21T11:03:48Z</time>
      </trkpt>
      <trkpt lat="52.15291" lon="4.5217338">
        <ele>2900.0</ele>
        <time>2020-09-21T11:03:49Z</time>
      </trkpt>
      <trkpt lat="52.152946" lon="4.521722">
        <ele>2900.0</ele>
        <time>2020-09-21T11:03:50Z</time>
      </trkpt>
      <trkpt lat="52.152985" lon="4.521711">
        <ele>2900.0</ele>
        <time>2020-09-21T11:03:51Z</time>
      </trkpt>
      <trkpt lat="52.15303" lon="4.521701">
        <ele>2900.0</ele>
        <time>2020-09-21T11:03:52Z</time>
      </trkpt>
      <trkpt lat="52.153072" lon="4.5216904">
        <ele>2900.0</ele>
        <time>2020-09-21T11:03:53Z</time>
      </trkpt>
      <trkpt lat="52.153114" lon="4.521678">
        <ele>2900.0</ele>
        <time>2020-09-21T11:03:54Z</time>
      </trkpt>
      <trkpt lat="52.153156" lon="4.5216646">
        <ele>2900.0</ele>
        <time>2020-09-21T11:03:55Z</time>
      </trkpt>
      <trkpt lat="52.15319" lon="4.5216503">
        <ele>2900.0</ele>
        <time>2020-09-21T11:03:57Z</time>
      </trkpt>
      <trkpt lat="52.153233" lon="4.521637">
        <ele>2900.0</ele>
        <time>2020-09-21T11:03:57Z</time>
      </trkpt>
      <trkpt lat="52.15327" lon="4.521624">
        <ele>2900.0</ele>
        <time>2020-09-21T11:03:58Z</time>
      </trkpt>
      <trkpt lat="52.153313" lon="4.521611">
        <ele>2900.0</ele>
        <time>2020-09-21T11:03:59Z</time>
      </trkpt>
      <trkpt lat="52.153355" lon="4.521596">
        <ele>2900.0</ele>
        <time>2020-09-21T11:04:00Z</time>
      </trkpt>
      <trkpt lat="52.15339" lon="4.5215783">
        <ele>2900.0</ele>
        <time>2020-09-21T11:04:01Z</time>
      </trkpt>
      <trkpt lat="52.15343" lon="4.5215607">
        <ele>2900.0</ele>
        <time>2020-09-21T11:04:03Z</time>
      </trkpt>
      <trkpt lat="52.153465" lon="4.521541">
        <ele>2900.0</ele>
        <time>2020-09-21T11:04:03Z</time>
      </trkpt>
      <trkpt lat="52.153507" lon="4.521521">
        <ele>2900.0</ele>
        <time>2020-09-21T11:04:04Z</time>
      </trkpt>
      <trkpt lat="52.15355" lon="4.5214977">
        <ele>2900.0</ele>
        <time>2020-09-21T11:04:05Z</time>
      </trkpt>
      <trkpt lat="52.153584" lon="4.5214734">
        <ele>2900.0</ele>
        <time>2020-09-21T11:04:06Z</time>
      </trkpt>
      <trkpt lat="52.15362" lon="4.521448">
        <ele>2900.0</ele>
        <time>2020-09-21T11:04:07Z</time>
      </trkpt>
      <trkpt lat="52.153652" lon="4.5214205">
        <ele>2900.0</ele>
        <time>2020-09-21T11:04:08Z</time>
      </trkpt>
      <trkpt lat="52.153687" lon="4.521391">
        <ele>2900.0</ele>
        <time>2020-09-21T11:04:09Z</time>
      </trkpt>
      <trkpt lat="52.153725" lon="4.5213594">
        <ele>2900.0</ele>
        <time>2020-09-21T11:04:10Z</time>
      </trkpt>
      <trkpt lat="52.153755" lon="4.521327">
        <ele>2900.0</ele>
        <time>2020-09-21T11:04:11Z</time>
      </trkpt>
      <trkpt lat="52.15379" lon="4.5212927">
        <ele>2900.0</ele>
        <time>2020-09-21T11:04:12Z</time>
      </trkpt>
      <trkpt lat="52.153824" lon="4.5212574">
        <ele>2900.0</ele>
        <time>2020-09-21T11:04:13Z</time>
      </trkpt>
      <trkpt lat="52.153862" lon="4.5212207">
        <ele>2900.0</ele>
        <time>2020-09-21T11:04:14Z</time>
      </trkpt>
      <trkpt lat="52.153893" lon="4.5211806">
        <ele>2900.0</ele>
        <time>2020-09-21T11:04:15Z</time>
      </trkpt>
      <trkpt lat="52.153923" lon="4.5211396">
        <ele>2900.0</ele>
        <time>2020-09-21T11:04:16Z</time>
      </trkpt>
      <trkpt lat="52.153954" lon="4.521097">
        <ele>2900.0</ele>
        <time>2020-09-21T11:04:17Z</time>
      </trkpt>
      <trkpt lat="52.153984" lon="4.521052">
        <ele>2900.0</ele>
        <time>2020-09-21T11:04:18Z</time>
      </trkpt>
      <trkpt lat="52.154015" lon="4.5210066">
        <ele>2900.0</ele>
        <time>2020-09-21T11:04:19Z</time>
      </trkpt>
      <trkpt lat="52.154045" lon="4.52096">
        <ele>2900.0</ele>
        <time>2020-09-21T11:04:20Z</time>
      </trkpt>
      <trkpt lat="52.15407" lon="4.5209117">
        <ele>2900.0</ele>
        <time>2020-09-21T11:04:22Z</time>
      </trkpt>
      <trkpt lat="52.154102" lon="4.5208616">
        <ele>2900.0</ele>
        <time>2020-09-21T11:04:22Z</time>
      </trkpt>
      <trkpt lat="52.15413" lon="4.5208073">
        <ele>2900.0</ele>
        <time>2020-09-21T11:04:23Z</time>
      </trkpt>
      <trkpt lat="52.154152" lon="4.5207562">
        <ele>2900.0</ele>
        <time>2020-09-21T11:04:24Z</time>
      </trkpt>
      <trkpt lat="52.15418" lon="4.520702">
        <ele>2900.0</ele>
        <time>2020-09-21T11:04:25Z</time>
      </trkpt>
      <trkpt lat="52.154205" lon="4.520646">
        <ele>2900.0</ele>
        <time>2020-09-21T11:04:26Z</time>
      </trkpt>
      <trkpt lat="52.154224" lon="4.520587">
        <ele>2900.0</ele>
        <time>2020-09-21T11:04:27Z</time>
      </trkpt>
      <trkpt lat="52.15425" lon="4.520524">
        <ele>2900.0</ele>
        <time>2020-09-21T11:04:28Z</time>
      </trkpt>
      <trkpt lat="52.15427" lon="4.5204663">
        <ele>2900.0</ele>
        <time>2020-09-21T11:04:30Z</time>
      </trkpt>
      <trkpt lat="52.154293" lon="4.520409">
        <ele>2900.0</ele>
        <time>2020-09-21T11:04:30Z</time>
      </trkpt>
      <trkpt lat="52.154316" lon="4.520352">
        <ele>2900.0</ele>
        <time>2020-09-21T11:04:31Z</time>
      </trkpt>
      <trkpt lat="52.154343" lon="4.5202966">
        <ele>2900.0</ele>
        <time>2020-09-21T11:04:32Z</time>
      </trkpt>
      <trkpt lat="52.15437" lon="4.520242">
        <ele>2900.0</ele>
        <time>2020-09-21T11:04:33Z</time>
      </trkpt>
      <trkpt lat="52.15439" lon="4.5201893">
        <ele>2900.0</ele>
        <time>2020-09-21T11:04:34Z</time>
      </trkpt>
      <trkpt lat="52.154415" lon="4.520136">
        <ele>2900.0</ele>
        <time>2020-09-21T11:04:35Z</time>
      </trkpt>
      <trkpt lat="52.154438" lon="4.5200844">
        <ele>2900.0</ele>
        <time>2020-09-21T11:04:36Z</time>
      </trkpt>
      <trkpt lat="52.154465" lon="4.5200315">
        <ele>2900.0</ele>
        <time>2020-09-21T11:04:37Z</time>
      </trkpt>
      <trkpt lat="52.15449" lon="4.519979">
        <ele>2900.0</ele>
        <time>2020-09-21T11:04:38Z</time>
      </trkpt>
      <trkpt lat="52.15451" lon="4.5199285">
        <ele>2900.0</ele>
        <time>2020-09-21T11:04:40Z</time>
      </trkpt>
      <trkpt lat="52.154537" lon="4.519878">
        <ele>2900.0</ele>
        <time>2020-09-21T11:04:40Z</time>
      </trkpt>
      <trkpt lat="52.154564" lon="4.5198283">
        <ele>2900.0</ele>
        <time>2020-09-21T11:04:41Z</time>
      </trkpt>
      <trkpt lat="52.154583" lon="4.519779">
        <ele>2900.0</ele>
        <time>2020-09-21T11:04:42Z</time>
      </trkpt>
      <trkpt lat="52.15461" lon="4.51973">
        <ele>2900.0</ele>
        <time>2020-09-21T11:04:43Z</time>
      </trkpt>
      <trkpt lat="52.154633" lon="4.5196805">
        <ele>2900.0</ele>
        <time>2020-09-21T11:04:44Z</time>
      </trkpt>
      <trkpt lat="52.154655" lon="4.519631">
        <ele>2900.0</ele>
        <time>2020-09-21T11:04:45Z</time>
      </trkpt>
      <trkpt lat="52.154675" lon="4.5195823">
        <ele>2900.0</ele>
        <time>2020-09-21T11:04:46Z</time>
      </trkpt>
      <trkpt lat="52.154697" lon="4.519533">
        <ele>2900.0</ele>
        <time>2020-09-21T11:04:47Z</time>
      </trkpt>
      <trkpt lat="52.154716" lon="4.519484">
        <ele>2900.0</ele>
        <time>2020-09-21T11:04:48Z</time>
      </trkpt>
      <trkpt lat="52.154736" lon="4.51943">
        <ele>2900.0</ele>
        <time>2020-09-21T11:04:49Z</time>
      </trkpt>
      <trkpt lat="52.15476" lon="4.519375">
        <ele>2900.0</ele>
        <time>2020-09-21T11:04:50Z</time>
      </trkpt>
      <trkpt lat="52.154778" lon="4.5193243">
        <ele>2900.0</ele>
        <time>2020-09-21T11:04:51Z</time>
      </trkpt>
      <trkpt lat="52.154797" lon="4.519271">
        <ele>2900.0</ele>
        <time>2020-09-21T11:04:52Z</time>
      </trkpt>
      <trkpt lat="52.15481" lon="4.519223">
        <ele>2900.0</ele>
        <time>2020-09-21T11:04:53Z</time>
      </trkpt>
      <trkpt lat="52.154835" lon="4.5191765">
        <ele>2900.0</ele>
        <time>2020-09-21T11:04:54Z</time>
      </trkpt>
      <trkpt lat="52.15485" lon="4.5191298">
        <ele>2900.0</ele>
        <time>2020-09-21T11:04:55Z</time>
      </trkpt>
      <trkpt lat="52.154865" lon="4.5190835">
        <ele>2900.0</ele>
        <time>2020-09-21T11:04:56Z</time>
      </trkpt>
      <trkpt lat="52.15488" lon="4.519038">
        <ele>2900.0</ele>
        <time>2020-09-21T11:04:57Z</time>
      </trkpt>
      <trkpt lat="52.154892" lon="4.5189934">
        <ele>2900.0</ele>
        <time>2020-09-21T11:04:58Z</time>
      </trkpt>
      <trkpt lat="52.154907" lon="4.5189495">
        <ele>2900.0</ele>
        <time>2020-09-21T11:04:59Z</time>
      </trkpt>
      <trkpt lat="52.15491" lon="4.518904">
        <ele>2900.0</ele>
        <time>2020-09-21T11:05:01Z</time>
      </trkpt>
      <trkpt lat="52.154922" lon="4.5188603">
        <ele>2900.0</ele>
        <time>2020-09-21T11:05:01Z</time>
      </trkpt>
      <trkpt lat="52.15493" lon="4.518818">
        <ele>2900.0</ele>
        <time>2020-09-21T11:05:02Z</time>
      </trkpt>
      <trkpt lat="52.154938" lon="4.5187764">
        <ele>2900.0</ele>
        <time>2020-09-21T11:05:03Z</time>
      </trkpt>
      <trkpt lat="52.154945" lon="4.518736">
        <ele>2900.0</ele>
        <time>2020-09-21T11:05:04Z</time>
      </trkpt>
      <trkpt lat="52.154957" lon="4.5186973">
        <ele>2900.0</ele>
        <time>2020-09-21T11:05:05Z</time>
      </trkpt>
      <trkpt lat="52.15497" lon="4.518658">
        <ele>2900.0</ele>
        <time>2020-09-21T11:05:06Z</time>
      </trkpt>
      <trkpt lat="52.154976" lon="4.5186205">
        <ele>2900.0</ele>
        <time>2020-09-21T11:05:07Z</time>
      </trkpt>
      <trkpt lat="52.154987" lon="4.5185843">
        <ele>2900.0</ele>
        <time>2020-09-21T11:05:08Z</time>
      </trkpt>
      <trkpt lat="52.155" lon="4.518547">
        <ele>2900.0</ele>
        <time>2020-09-21T11:05:09Z</time>
      </trkpt>
      <trkpt lat="52.155003" lon="4.51851">
        <ele>2900.0</ele>
        <time>2020-09-21T11:05:11Z</time>
      </trkpt>
      <trkpt lat="52.155014" lon="4.518473">
        <ele>2900.0</ele>
        <time>2020-09-21T11:05:11Z</time>
      </trkpt>
      <trkpt lat="52.155018" lon="4.5184326">
        <ele>2900.0</ele>
        <time>2020-09-21T11:05:11Z</time>
      </trkpt>
      <trkpt lat="52.15502" lon="4.518391">
        <ele>2900.0</ele>
        <time>2020-09-21T11:05:12Z</time>
      </trkpt>
      <trkpt lat="52.15502" lon="4.518349">
        <ele>2900.0</ele>
        <time>2020-09-21T11:05:13Z</time>
      </trkpt>
      <trkpt lat="52.15503" lon="4.5183086">
        <ele>2900.0</ele>
        <time>2020-09-21T11:05:14Z</time>
      </trkpt>
      <trkpt lat="52.155033" lon="4.51827">
        <ele>2900.0</ele>
        <time>2020-09-21T11:05:15Z</time>
      </trkpt>
      <trkpt lat="52.155037" lon="4.518231">
        <ele>2900.0</ele>
        <time>2020-09-21T11:05:16Z</time>
      </trkpt>
      <trkpt lat="52.15505" lon="4.5181923">
        <ele>2900.0</ele>
        <time>2020-09-21T11:05:17Z</time>
      </trkpt>
      <trkpt lat="52.155052" lon="4.518151">
        <ele>2900.0</ele>
        <time>2020-09-21T11:05:18Z</time>
      </trkpt>
      <trkpt lat="52.155064" lon="4.518107">
        <ele>2900.0</ele>
        <time>2020-09-21T11:05:19Z</time>
      </trkpt>
      <trkpt lat="52.155075" lon="4.518061">
        <ele>2900.0</ele>
        <time>2020-09-21T11:05:20Z</time>
      </trkpt>
      <trkpt lat="52.155087" lon="4.518012">
        <ele>2900.0</ele>
        <time>2020-09-21T11:05:21Z</time>
      </trkpt>
      <trkpt lat="52.155094" lon="4.517963">
        <ele>2900.0</ele>
        <time>2020-09-21T11:05:22Z</time>
      </trkpt>
      <trkpt lat="52.155106" lon="4.5179143">
        <ele>2900.0</ele>
        <time>2020-09-21T11:05:23Z</time>
      </trkpt>
      <trkpt lat="52.155117" lon="4.517866">
        <ele>2900.0</ele>
        <time>2020-09-21T11:05:24Z</time>
      </trkpt>
      <trkpt lat="52.155125" lon="4.51782">
        <ele>2900.0</ele>
        <time>2020-09-21T11:05:25Z</time>
      </trkpt>
      <trkpt lat="52.155136" lon="4.517773">
        <ele>2900.0</ele>
        <time>2020-09-21T11:05:26Z</time>
      </trkpt>
      <trkpt lat="52.15514" lon="4.517724">
        <ele>2900.0</ele>
        <time>2020-09-21T11:05:28Z</time>
      </trkpt>
      <trkpt lat="52.15515" lon="4.5176735">
        <ele>2900.0</ele>
        <time>2020-09-21T11:05:28Z</time>
      </trkpt>
      <trkpt lat="52.155163" lon="4.517622">
        <ele>2900.0</ele>
        <time>2020-09-21T11:05:29Z</time>
      </trkpt>
      <trkpt lat="52.155178" lon="4.517568">
        <ele>2900.0</ele>
        <time>2020-09-21T11:05:30Z</time>
      </trkpt>
      <trkpt lat="52.155186" lon="4.5175138">
        <ele>2900.0</ele>
        <time>2020-09-21T11:05:31Z</time>
      </trkpt>
      <trkpt lat="52.155197" lon="4.5174584">
        <ele>2900.0</ele>
        <time>2020-09-21T11:05:32Z</time>
      </trkpt>
      <trkpt lat="52.1552" lon="4.5174017">
        <ele>2900.0</ele>
        <time>2020-09-21T11:05:33Z</time>
      </trkpt>
      <trkpt lat="52.15521" lon="4.517346">
        <ele>2900.0</ele>
        <time>2020-09-21T11:05:34Z</time>
      </trkpt>
      <trkpt lat="52.155212" lon="4.51729">
        <ele>2900.0</ele>
        <time>2020-09-21T11:05:35Z</time>
      </trkpt>
      <trkpt lat="52.155212" lon="4.5172358">
        <ele>2900.0</ele>
        <time>2020-09-21T11:05:36Z</time>
      </trkpt>
      <trkpt lat="52.155216" lon="4.517181">
        <ele>2900.0</ele>
        <time>2020-09-21T11:05:37Z</time>
      </trkpt>
      <trkpt lat="52.155224" lon="4.5171256">
        <ele>2900.0</ele>
        <time>2020-09-21T11:05:39Z</time>
      </trkpt>
      <trkpt lat="52.155224" lon="4.5170693">
        <ele>2900.0</ele>
        <time>2020-09-21T11:05:39Z</time>
      </trkpt>
      <trkpt lat="52.155228" lon="4.5170116">
        <ele>2900.0</ele>
        <time>2020-09-21T11:05:40Z</time>
      </trkpt>
      <trkpt lat="52.15523" lon="4.5169535">
        <ele>2900.0</ele>
        <time>2020-09-21T11:05:41Z</time>
      </trkpt>
      <trkpt lat="52.15524" lon="4.5168962">
        <ele>2900.0</ele>
        <time>2020-09-21T11:05:42Z</time>
      </trkpt>
      <trkpt lat="52.155243" lon="4.516839">
        <ele>2900.0</ele>
        <time>2020-09-21T11:05:43Z</time>
      </trkpt>
      <trkpt lat="52.155247" lon="4.5167823">
        <ele>2900.0</ele>
        <time>2020-09-21T11:05:44Z</time>
      </trkpt>
      <trkpt lat="52.155254" lon="4.5167255">
        <ele>2900.0</ele>
        <time>2020-09-21T11:05:45Z</time>
      </trkpt>
      <trkpt lat="52.155266" lon="4.51667">
        <ele>2900.0</ele>
        <time>2020-09-21T11:05:46Z</time>
      </trkpt>
      <trkpt lat="52.15527" lon="4.516616">
        <ele>2900.0</ele>
        <time>2020-09-21T11:05:47Z</time>
      </trkpt>
      <trkpt lat="52.15528" lon="4.516565">
        <ele>2900.0</ele>
        <time>2020-09-21T11:05:49Z</time>
      </trkpt>
      <trkpt lat="52.15529" lon="4.516519">
        <ele>2900.0</ele>
        <time>2020-09-21T11:05:49Z</time>
      </trkpt>
      <trkpt lat="52.1553" lon="4.516473">
        <ele>2900.0</ele>
        <time>2020-09-21T11:05:50Z</time>
      </trkpt>
      <trkpt lat="52.15531" lon="4.5164266">
        <ele>2900.0</ele>
        <time>2020-09-21T11:05:51Z</time>
      </trkpt>
      <trkpt lat="52.155315" lon="4.5163794">
        <ele>2900.0</ele>
        <time>2020-09-21T11:05:52Z</time>
      </trkpt>
      <trkpt lat="52.15532" lon="4.5163307">
        <ele>2900.0</ele>
        <time>2020-09-21T11:05:53Z</time>
      </trkpt>
      <trkpt lat="52.155327" lon="4.516279">
        <ele>2900.0</ele>
        <time>2020-09-21T11:05:54Z</time>
      </trkpt>
      <trkpt lat="52.155327" lon="4.516223">
        <ele>2900.0</ele>
        <time>2020-09-21T11:05:55Z</time>
      </trkpt>
      <trkpt lat="52.155327" lon="4.5161633">
        <ele>2900.0</ele>
        <time>2020-09-21T11:05:56Z</time>
      </trkpt>
      <trkpt lat="52.155327" lon="4.516103">
        <ele>2900.0</ele>
        <time>2020-09-21T11:05:57Z</time>
      </trkpt>
      <trkpt lat="52.155327" lon="4.5160403">
        <ele>2900.0</ele>
        <time>2020-09-21T11:05:58Z</time>
      </trkpt>
      <trkpt lat="52.155327" lon="4.5159774">
        <ele>2900.0</ele>
        <time>2020-09-21T11:05:59Z</time>
      </trkpt>
      <trkpt lat="52.155327" lon="4.5159154">
        <ele>2900.0</ele>
        <time>2020-09-21T11:06:00Z</time>
      </trkpt>
      <trkpt lat="52.15533" lon="4.515853">
        <ele>2900.0</ele>
        <time>2020-09-21T11:06:01Z</time>
      </trkpt>
      <trkpt lat="52.15533" lon="4.515793">
        <ele>2900.0</ele>
        <time>2020-09-21T11:06:02Z</time>
      </trkpt>
      <trkpt lat="52.15533" lon="4.5157323">
        <ele>2900.0</ele>
        <time>2020-09-21T11:06:03Z</time>
      </trkpt>
      <trkpt lat="52.15533" lon="4.515669">
        <ele>2900.0</ele>
        <time>2020-09-21T11:06:04Z</time>
      </trkpt>
      <trkpt lat="52.15533" lon="4.515606">
        <ele>2900.0</ele>
        <time>2020-09-21T11:06:05Z</time>
      </trkpt>
      <trkpt lat="52.15533" lon="4.5155387">
        <ele>2900.0</ele>
        <time>2020-09-21T11:06:06Z</time>
      </trkpt>
      <trkpt lat="52.15533" lon="4.515473">
        <ele>2900.0</ele>
        <time>2020-09-21T11:06:07Z</time>
      </trkpt>
      <trkpt lat="52.155334" lon="4.5154085">
        <ele>2900.0</ele>
        <time>2020-09-21T11:06:08Z</time>
      </trkpt>
      <trkpt lat="52.155334" lon="4.515348">
        <ele>2900.0</ele>
        <time>2020-09-21T11:06:10Z</time>
      </trkpt>
      <trkpt lat="52.155342" lon="4.515284">
        <ele>2900.0</ele>
        <time>2020-09-21T11:06:10Z</time>
      </trkpt>
      <trkpt lat="52.155346" lon="4.5152216">
        <ele>2900.0</ele>
        <time>2020-09-21T11:06:11Z</time>
      </trkpt>
      <trkpt lat="52.15535" lon="4.515161">
        <ele>2900.0</ele>
        <time>2020-09-21T11:06:12Z</time>
      </trkpt>
      <trkpt lat="52.155357" lon="4.5151024">
        <ele>2900.0</ele>
        <time>2020-09-21T11:06:13Z</time>
      </trkpt>
      <trkpt lat="52.15536" lon="4.515046">
        <ele>2900.0</ele>
        <time>2020-09-21T11:06:14Z</time>
      </trkpt>
      <trkpt lat="52.155365" lon="4.5149918">
        <ele>2900.0</ele>
        <time>2020-09-21T11:06:15Z</time>
      </trkpt>
      <trkpt lat="52.155373" lon="4.5149403">
        <ele>2900.0</ele>
        <time>2020-09-21T11:06:16Z</time>
      </trkpt>
      <trkpt lat="52.155373" lon="4.514889">
        <ele>2900.0</ele>
        <time>2020-09-21T11:06:17Z</time>
      </trkpt>
      <trkpt lat="52.155373" lon="4.514836">
        <ele>2900.0</ele>
        <time>2020-09-21T11:06:18Z</time>
      </trkpt>
      <trkpt lat="52.155373" lon="4.5147843">
        <ele>2900.0</ele>
        <time>2020-09-21T11:06:19Z</time>
      </trkpt>
      <trkpt lat="52.155373" lon="4.5147333">
        <ele>2900.0</ele>
        <time>2020-09-21T11:06:20Z</time>
      </trkpt>
      <trkpt lat="52.155376" lon="4.5146875">
        <ele>2900.0</ele>
        <time>2020-09-21T11:06:21Z</time>
      </trkpt>
      <trkpt lat="52.15538" lon="4.51464">
        <ele>2900.0</ele>
        <time>2020-09-21T11:06:22Z</time>
      </trkpt>
      <trkpt lat="52.15538" lon="4.5145965">
        <ele>2900.0</ele>
        <time>2020-09-21T11:06:23Z</time>
      </trkpt>
      <trkpt lat="52.155376" lon="4.5145535">
        <ele>2900.0</ele>
        <time>2020-09-21T11:06:25Z</time>
      </trkpt>
      <trkpt lat="52.155373" lon="4.5145173">
        <ele>2900.0</ele>
        <time>2020-09-21T11:06:25Z</time>
      </trkpt>
      <trkpt lat="52.15536" lon="4.514482">
        <ele>2900.0</ele>
        <time>2020-09-21T11:06:26Z</time>
      </trkpt>
      <trkpt lat="52.15535" lon="4.514449">
        <ele>2900.0</ele>
        <time>2020-09-21T11:06:27Z</time>
      </trkpt>
      <trkpt lat="52.155334" lon="4.514419">
        <ele>2900.0</ele>
        <time>2020-09-21T11:06:28Z</time>
      </trkpt>
      <trkpt lat="52.155327" lon="4.514389">
        <ele>2900.0</ele>
        <time>2020-09-21T11:06:29Z</time>
      </trkpt>
      <trkpt lat="52.155315" lon="4.5143576">
        <ele>2900.0</ele>
        <time>2020-09-21T11:06:30Z</time>
      </trkpt>
      <trkpt lat="52.1553" lon="4.5143266">
        <ele>2900.0</ele>
        <time>2020-09-21T11:06:31Z</time>
      </trkpt>
      <trkpt lat="52.155285" lon="4.5142984">
        <ele>2900.0</ele>
        <time>2020-09-21T11:06:32Z</time>
      </trkpt>
      <trkpt lat="52.155273" lon="4.5142803">
        <ele>2900.0</ele>
        <time>2020-09-21T11:06:33Z</time>
      </trkpt>
      <trkpt lat="52.155266" lon="4.5142694">
        <ele>2900.0</ele>
        <time>2020-09-21T11:06:35Z</time>
      </trkpt>
      <trkpt lat="52.155254" lon="4.5142612">
        <ele>2900.0</ele>
        <time>2020-09-21T11:06:35Z</time>
      </trkpt>
      <trkpt lat="52.15523" lon="4.514258">
        <ele>2900.0</ele>
        <time>2020-09-21T11:06:36Z</time>
      </trkpt>
      <trkpt lat="52.155216" lon="4.5142565">
        <ele>2900.0</ele>
        <time>2020-09-21T11:06:37Z</time>
      </trkpt>
      <trkpt lat="52.155193" lon="4.5142536">
        <ele>2900.0</ele>
        <time>2020-09-21T11:06:38Z</time>
      </trkpt>
      <trkpt lat="52.155167" lon="4.514249">
        <ele>2900.0</ele>
        <time>2020-09-21T11:06:39Z</time>
      </trkpt>
      <trkpt lat="52.15514" lon="4.514245">
        <ele>2900.0</ele>
        <time>2020-09-21T11:06:40Z</time>
      </trkpt>
      <trkpt lat="52.15511" lon="4.514239">
        <ele>2900.0</ele>
        <time>2020-09-21T11:06:41Z</time>
      </trkpt>
      <trkpt lat="52.155087" lon="4.5142293">
        <ele>2900.0</ele>
        <time>2020-09-21T11:06:42Z</time>
      </trkpt>
      <trkpt lat="52.15506" lon="4.514217">
        <ele>2900.0</ele>
        <time>2020-09-21T11:06:43Z</time>
      </trkpt>
      <trkpt lat="52.15503" lon="4.5141983">
        <ele>2900.0</ele>
        <time>2020-09-21T11:06:45Z</time>
      </trkpt>
      <trkpt lat="52.155" lon="4.514181">
        <ele>2900.0</ele>
        <time>2020-09-21T11:06:45Z</time>
      </trkpt>
      <trkpt lat="52.154972" lon="4.5141687">
        <ele>2900.0</ele>
        <time>2020-09-21T11:06:46Z</time>
      </trkpt>
      <trkpt lat="52.154953" lon="4.514165">
        <ele>2900.0</ele>
        <time>2020-09-21T11:06:47Z</time>
      </trkpt>
      <trkpt lat="52.154583" lon="4.514269">
        <ele>2900.0</ele>
        <time>2020-09-21T11:06:58Z</time>
      </trkpt>
      <trkpt lat="52.15457" lon="4.514248">
        <ele>2900.0</ele>
        <time>2020-09-21T11:06:59Z</time>
      </trkpt>
      <trkpt lat="52.154552" lon="4.5142283">
        <ele>2900.0</ele>
        <time>2020-09-21T11:07:00Z</time>
      </trkpt>
      <trkpt lat="52.154537" lon="4.5142403">
        <ele>2900.0</ele>
        <time>2020-09-21T11:07:01Z</time>
      </trkpt>
      <trkpt lat="52.154522" lon="4.5142508">
        <ele>2900.0</ele>
        <time>2020-09-21T11:07:02Z</time>
      </trkpt>
      <trkpt lat="52.15451" lon="4.514252">
        <ele>2900.0</ele>
        <time>2020-09-21T11:07:04Z</time>
      </trkpt>
      <trkpt lat="52.154495" lon="4.5142508">
        <ele>2900.0</ele>
        <time>2020-09-21T11:07:04Z</time>
      </trkpt>
      <trkpt lat="52.15448" lon="4.514248">
        <ele>2900.0</ele>
        <time>2020-09-21T11:07:05Z</time>
      </trkpt>
      <trkpt lat="52.154465" lon="4.5142446">
        <ele>2900.0</ele>
        <time>2020-09-21T11:07:06Z</time>
      </trkpt>
      <trkpt lat="52.154446" lon="4.514236">
        <ele>2900.0</ele>
        <time>2020-09-21T11:07:07Z</time>
      </trkpt>
      <trkpt lat="52.154423" lon="4.5142226">
        <ele>2900.0</ele>
        <time>2020-09-21T11:07:08Z</time>
      </trkpt>
      <trkpt lat="52.154404" lon="4.5142093">
        <ele>2900.0</ele>
        <time>2020-09-21T11:07:09Z</time>
      </trkpt>
      <trkpt lat="52.154385" lon="4.5141993">
        <ele>2900.0</ele>
        <time>2020-09-21T11:07:10Z</time>
      </trkpt>
      <trkpt lat="52.154358" lon="4.5141907">
        <ele>2900.0</ele>
        <time>2020-09-21T11:07:11Z</time>
      </trkpt>
      <trkpt lat="52.15434" lon="4.5141883">
        <ele>2900.0</ele>
        <time>2020-09-21T11:07:12Z</time>
      </trkpt>
      <trkpt lat="52.154312" lon="4.514185">
        <ele>2900.0</ele>
        <time>2020-09-21T11:07:13Z</time>
      </trkpt>
      <trkpt lat="52.154293" lon="4.5141797">
        <ele>2900.0</ele>
        <time>2020-09-21T11:07:14Z</time>
      </trkpt>
      <trkpt lat="52.154266" lon="4.514172">
        <ele>2900.0</ele>
        <time>2020-09-21T11:07:15Z</time>
      </trkpt>
      <trkpt lat="52.154243" lon="4.5141664">
        <ele>2900.0</ele>
        <time>2020-09-21T11:07:16Z</time>
      </trkpt>
      <trkpt lat="52.15422" lon="4.514161">
        <ele>2900.0</ele>
        <time>2020-09-21T11:07:17Z</time>
      </trkpt>
      <trkpt lat="52.154198" lon="4.514157">
        <ele>2900.0</ele>
        <time>2020-09-21T11:07:18Z</time>
      </trkpt>
      <trkpt lat="52.154167" lon="4.5141535">
        <ele>2900.0</ele>
        <time>2020-09-21T11:07:19Z</time>
      </trkpt>
      <trkpt lat="52.154144" lon="4.514148">
        <ele>2900.0</ele>
        <time>2020-09-21T11:07:20Z</time>
      </trkpt>
      <trkpt lat="52.154118" lon="4.5141425">
        <ele>2900.0</ele>
        <time>2020-09-21T11:07:21Z</time>
      </trkpt>
      <trkpt lat="52.15409" lon="4.514134">
        <ele>2900.0</ele>
        <time>2020-09-21T11:07:22Z</time>
      </trkpt>
      <trkpt lat="52.15406" lon="4.514121">
        <ele>2900.0</ele>
        <time>2020-09-21T11:07:23Z</time>
      </trkpt>
      <trkpt lat="52.154034" lon="4.5141068">
        <ele>2900.0</ele>
        <time>2020-09-21T11:07:24Z</time>
      </trkpt>
      <trkpt lat="52.15401" lon="4.5140915">
        <ele>2900.0</ele>
        <time>2020-09-21T11:07:25Z</time>
      </trkpt>
      <trkpt lat="52.15398" lon="4.5140796">
        <ele>2900.0</ele>
        <time>2020-09-21T11:07:26Z</time>
      </trkpt>
      <trkpt lat="52.153954" lon="4.5140676">
        <ele>2900.0</ele>
        <time>2020-09-21T11:07:27Z</time>
      </trkpt>
      <trkpt lat="52.153927" lon="4.5140553">
        <ele>2900.0</ele>
        <time>2020-09-21T11:07:29Z</time>
      </trkpt>
      <trkpt lat="52.153896" lon="4.514043">
        <ele>2900.0</ele>
        <time>2020-09-21T11:07:29Z</time>
      </trkpt>
      <trkpt lat="52.153866" lon="4.5140324">
        <ele>2900.0</ele>
        <time>2020-09-21T11:07:30Z</time>
      </trkpt>
      <trkpt lat="52.153835" lon="4.5140247">
        <ele>2900.0</ele>
        <time>2020-09-21T11:07:31Z</time>
      </trkpt>
      <trkpt lat="52.15381" lon="4.514016">
        <ele>2900.0</ele>
        <time>2020-09-21T11:07:32Z</time>
      </trkpt>
      <trkpt lat="52.153778" lon="4.5140057">
        <ele>2900.0</ele>
        <time>2020-09-21T11:07:33Z</time>
      </trkpt>
      <trkpt lat="52.153748" lon="4.513995">
        <ele>2900.0</ele>
        <time>2020-09-21T11:07:34Z</time>
      </trkpt>
      <trkpt lat="52.153725" lon="4.513986">
        <ele>2900.0</ele>
        <time>2020-09-21T11:07:35Z</time>
      </trkpt>
      <trkpt lat="52.15369" lon="4.513977">
        <ele>2900.0</ele>
        <time>2020-09-21T11:07:36Z</time>
      </trkpt>
      <trkpt lat="52.153667" lon="4.5139675">
        <ele>2900.0</ele>
        <time>2020-09-21T11:07:37Z</time>
      </trkpt>
      <trkpt lat="52.153637" lon="4.513956">
        <ele>2900.0</ele>
        <time>2020-09-21T11:07:39Z</time>
      </trkpt>
      <trkpt lat="52.15361" lon="4.513943">
        <ele>2900.0</ele>
        <time>2020-09-21T11:07:39Z</time>
      </trkpt>
      <trkpt lat="52.15358" lon="4.513929">
        <ele>2900.0</ele>
        <time>2020-09-21T11:07:40Z</time>
      </trkpt>
      <trkpt lat="52.15355" lon="4.5139136">
        <ele>2900.0</ele>
        <time>2020-09-21T11:07:41Z</time>
      </trkpt>
      <trkpt lat="52.15352" lon="4.5138993">
        <ele>2900.0</ele>
        <time>2020-09-21T11:07:42Z</time>
      </trkpt>
      <trkpt lat="52.15349" lon="4.513886">
        <ele>2900.0</ele>
        <time>2020-09-21T11:07:43Z</time>
      </trkpt>
      <trkpt lat="52.153458" lon="4.513873">
        <ele>2900.0</ele>
        <time>2020-09-21T11:07:44Z</time>
      </trkpt>
      <trkpt lat="52.153427" lon="4.513861">
        <ele>2900.0</ele>
        <time>2020-09-21T11:07:45Z</time>
      </trkpt>
      <trkpt lat="52.153397" lon="4.513849">
        <ele>2900.0</ele>
        <time>2020-09-21T11:07:46Z</time>
      </trkpt>
      <trkpt lat="52.153366" lon="4.513837">
        <ele>2900.0</ele>
        <time>2020-09-21T11:07:47Z</time>
      </trkpt>
      <trkpt lat="52.153336" lon="4.5138245">
        <ele>2900.0</ele>
        <time>2020-09-21T11:07:48Z</time>
      </trkpt>
      <trkpt lat="52.1533" lon="4.513812">
        <ele>2900.0</ele>
        <time>2020-09-21T11:07:49Z</time>
      </trkpt>
      <trkpt lat="52.15327" lon="4.513801">
        <ele>2900.0</ele>
        <time>2020-09-21T11:07:50Z</time>
      </trkpt>
      <trkpt lat="52.153236" lon="4.5137906">
        <ele>2900.0</ele>
        <time>2020-09-21T11:07:51Z</time>
      </trkpt>
      <trkpt lat="52.153202" lon="4.5137806">
        <ele>2900.0</ele>
        <time>2020-09-21T11:07:52Z</time>
      </trkpt>
      <trkpt lat="52.15317" lon="4.513772">
        <ele>2900.0</ele>
        <time>2020-09-21T11:07:53Z</time>
      </trkpt>
      <trkpt lat="52.153133" lon="4.513761">
        <ele>2900.0</ele>
        <time>2020-09-21T11:07:54Z</time>
      </trkpt>
      <trkpt lat="52.153103" lon="4.5137477">
        <ele>2900.0</ele>
        <time>2020-09-21T11:07:55Z</time>
      </trkpt>
      <trkpt lat="52.15307" lon="4.5137296">
        <ele>2900.0</ele>
        <time>2020-09-21T11:07:56Z</time>
      </trkpt>
      <trkpt lat="52.15303" lon="4.5137086">
        <ele>2900.0</ele>
        <time>2020-09-21T11:07:57Z</time>
      </trkpt>
      <trkpt lat="52.152996" lon="4.513684">
        <ele>2900.0</ele>
        <time>2020-09-21T11:07:58Z</time>
      </trkpt>
      <trkpt lat="52.15296" lon="4.51366">
        <ele>2900.0</ele>
        <time>2020-09-21T11:08:00Z</time>
      </trkpt>
      <trkpt lat="52.152927" lon="4.5136395">
        <ele>2900.0</ele>
        <time>2020-09-21T11:08:00Z</time>
      </trkpt>
      <trkpt lat="52.152897" lon="4.5136213">
        <ele>2900.0</ele>
        <time>2020-09-21T11:08:01Z</time>
      </trkpt>
      <trkpt lat="52.152874" lon="4.513604">
        <ele>2900.0</ele>
        <time>2020-09-21T11:08:02Z</time>
      </trkpt>
      <trkpt lat="52.152847" lon="4.513591">
        <ele>2900.0</ele>
        <time>2020-09-21T11:08:03Z</time>
      </trkpt>
      <trkpt lat="52.15282" lon="4.5135775">
        <ele>2900.0</ele>
        <time>2020-09-21T11:08:04Z</time>
      </trkpt>
      <trkpt lat="52.15279" lon="4.5135636">
        <ele>2900.0</ele>
        <time>2020-09-21T11:08:05Z</time>
      </trkpt>
      <trkpt lat="52.15276" lon="4.513549">
        <ele>2900.0</ele>
        <time>2020-09-21T11:08:06Z</time>
      </trkpt>
      <trkpt lat="52.15273" lon="4.513533">
        <ele>2900.0</ele>
        <time>2020-09-21T11:08:07Z</time>
      </trkpt>
      <trkpt lat="52.152695" lon="4.513514">
        <ele>2900.0</ele>
        <time>2020-09-21T11:08:08Z</time>
      </trkpt>
      <trkpt lat="52.152657" lon="4.5134945">
        <ele>2900.0</ele>
        <time>2020-09-21T11:08:09Z</time>
      </trkpt>
      <trkpt lat="52.152626" lon="4.5134754">
        <ele>2900.0</ele>
        <time>2020-09-21T11:08:11Z</time>
      </trkpt>
      <trkpt lat="52.152596" lon="4.5134606">
        <ele>2900.0</ele>
        <time>2020-09-21T11:08:11Z</time>
      </trkpt>
      <trkpt lat="52.152565" lon="4.5134473">
        <ele>2900.0</ele>
        <time>2020-09-21T11:08:12Z</time>
      </trkpt>
      <trkpt lat="52.15254" lon="4.5134363">
        <ele>2900.0</ele>
        <time>2020-09-21T11:08:13Z</time>
      </trkpt>
      <trkpt lat="52.152515" lon="4.513427">
        <ele>2900.0</ele>
        <time>2020-09-21T11:08:14Z</time>
      </trkpt>
      <trkpt lat="52.152485" lon="4.513416">
        <ele>2900.0</ele>
        <time>2020-09-21T11:08:15Z</time>
      </trkpt>
      <trkpt lat="52.15246" lon="4.513406">
        <ele>2900.0</ele>
        <time>2020-09-21T11:08:16Z</time>
      </trkpt>
      <trkpt lat="52.15243" lon="4.513394">
        <ele>2900.0</ele>
        <time>2020-09-21T11:08:17Z</time>
      </trkpt>
      <trkpt lat="52.152412" lon="4.513383">
        <ele>2900.0</ele>
        <time>2020-09-21T11:08:18Z</time>
      </trkpt>
      <trkpt lat="52.152393" lon="4.513374">
        <ele>2900.0</ele>
        <time>2020-09-21T11:08:19Z</time>
      </trkpt>
      <trkpt lat="52.152367" lon="4.5133686">
        <ele>2900.0</ele>
        <time>2020-09-21T11:08:21Z</time>
      </trkpt>
      <trkpt lat="52.152344" lon="4.5133634">
        <ele>2900.0</ele>
        <time>2020-09-21T11:08:21Z</time>
      </trkpt>
      <trkpt lat="52.152325" lon="4.5133567">
        <ele>2900.0</ele>
        <time>2020-09-21T11:08:22Z</time>
      </trkpt>
      <trkpt lat="52.152298" lon="4.5133467">
        <ele>2900.0</ele>
        <time>2020-09-21T11:08:23Z</time>
      </trkpt>
      <trkpt lat="52.15228" lon="4.5133367">
        <ele>2900.0</ele>
        <time>2020-09-21T11:08:24Z</time>
      </trkpt>
      <trkpt lat="52.152264" lon="4.513326">
        <ele>2900.0</ele>
        <time>2020-09-21T11:08:25Z</time>
      </trkpt>
      <trkpt lat="52.152245" lon="4.5133166">
        <ele>2900.0</ele>
        <time>2020-09-21T11:08:26Z</time>
      </trkpt>
      <trkpt lat="52.15223" lon="4.513308">
        <ele>2900.0</ele>
        <time>2020-09-21T11:08:27Z</time>
      </trkpt>
      <trkpt lat="52.152214" lon="4.513298">
        <ele>2900.0</ele>
        <time>2020-09-21T11:08:28Z</time>
      </trkpt>
      <trkpt lat="52.1522" lon="4.5132885">
        <ele>2900.0</ele>
        <time>2020-09-21T11:08:29Z</time>
      </trkpt>
      <trkpt lat="52.152176" lon="4.5132766">
        <ele>2900.0</ele>
        <time>2020-09-21T11:08:30Z</time>
      </trkpt>
      <trkpt lat="52.15216" lon="4.513265">
        <ele>2900.0</ele>
        <time>2020-09-21T11:08:31Z</time>
      </trkpt>
      <trkpt lat="52.15214" lon="4.5132523">
        <ele>2900.0</ele>
        <time>2020-09-21T11:08:32Z</time>
      </trkpt>
      <trkpt lat="52.152126" lon="4.5132403">
        <ele>2900.0</ele>
        <time>2020-09-21T11:08:33Z</time>
      </trkpt>
      <trkpt lat="52.15211" lon="4.513228">
        <ele>2900.0</ele>
        <time>2020-09-21T11:08:34Z</time>
      </trkpt>
      <trkpt lat="52.152096" lon="4.513218">
        <ele>2900.0</ele>
        <time>2020-09-21T11:08:35Z</time>
      </trkpt>
      <trkpt lat="52.152073" lon="4.513209">
        <ele>2900.0</ele>
        <time>2020-09-21T11:08:36Z</time>
      </trkpt>
      <trkpt lat="52.152058" lon="4.5132003">
        <ele>2900.0</ele>
        <time>2020-09-21T11:08:37Z</time>
      </trkpt>
      <trkpt lat="52.152042" lon="4.5131893">
        <ele>2900.0</ele>
        <time>2020-09-21T11:08:39Z</time>
      </trkpt>
      <trkpt lat="52.152023" lon="4.5131774">
        <ele>2900.0</ele>
        <time>2020-09-21T11:08:39Z</time>
      </trkpt>
      <trkpt lat="52.152008" lon="4.513162">
        <ele>2900.0</ele>
        <time>2020-09-21T11:08:40Z</time>
      </trkpt>
      <trkpt lat="52.15199" lon="4.5131464">
        <ele>2900.0</ele>
        <time>2020-09-21T11:08:41Z</time>
      </trkpt>
      <trkpt lat="52.151974" lon="4.5131326">
        <ele>2900.0</ele>
        <time>2020-09-21T11:08:42Z</time>
      </trkpt>
      <trkpt lat="52.15195" lon="4.5131183">
        <ele>2900.0</ele>
        <time>2020-09-21T11:08:43Z</time>
      </trkpt>
      <trkpt lat="52.151924" lon="4.513105">
        <ele>2900.0</ele>
        <time>2020-09-21T11:08:44Z</time>
      </trkpt>
      <trkpt lat="52.151905" lon="4.513096">
        <ele>2900.0</ele>
        <time>2020-09-21T11:08:45Z</time>
      </trkpt>
      <trkpt lat="52.15189" lon="4.5130887">
        <ele>2900.0</ele>
        <time>2020-09-21T11:08:46Z</time>
      </trkpt>
      <trkpt lat="52.15187" lon="4.513083">
        <ele>2900.0</ele>
        <time>2020-09-21T11:08:47Z</time>
      </trkpt>
      <trkpt lat="52.15186" lon="4.513078">
        <ele>2900.0</ele>
        <time>2020-09-21T11:08:49Z</time>
      </trkpt>
      <trkpt lat="52.151848" lon="4.513072">
        <ele>2900.0</ele>
        <time>2020-09-21T11:08:49Z</time>
      </trkpt>
      <trkpt lat="52.15184" lon="4.5130677">
        <ele>2900.0</ele>
        <time>2020-09-21T11:08:50Z</time>
      </trkpt>
      <trkpt lat="52.151833" lon="4.513067">
        <ele>2900.0</ele>
        <time>2020-09-21T11:08:51Z</time>
      </trkpt>
      <trkpt lat="52.15183" lon="4.5130677">
        <ele>2900.0</ele>
        <time>2020-09-21T11:08:52Z</time>
      </trkpt>
      <trkpt lat="52.151825" lon="4.5130677">
        <ele>2900.0</ele>
        <time>2020-09-21T11:08:53Z</time>
      </trkpt>
      <trkpt lat="52.151817" lon="4.513068">
        <ele>2900.0</ele>
        <time>2020-09-21T11:08:54Z</time>
      </trkpt>
      <trkpt lat="52.151814" lon="4.513068">
        <ele>2900.0</ele>
        <time>2020-09-21T11:08:55Z</time>
      </trkpt>
      <trkpt lat="52.15181" lon="4.5130663">
        <ele>2900.0</ele>
        <time>2020-09-21T11:08:56Z</time>
      </trkpt>
      <trkpt lat="52.1518" lon="4.513063">
        <ele>2900.0</ele>
        <time>2020-09-21T11:08:57Z</time>
      </trkpt>
      <trkpt lat="52.151794" lon="4.513058">
        <ele>2900.0</ele>
        <time>2020-09-21T11:08:58Z</time>
      </trkpt>
      <trkpt lat="52.151787" lon="4.513052">
        <ele>2900.0</ele>
        <time>2020-09-21T11:08:59Z</time>
      </trkpt>
      <trkpt lat="52.151783" lon="4.5130453">
        <ele>2900.0</ele>
        <time>2020-09-21T11:09:00Z</time>
      </trkpt>
      <trkpt lat="52.15177" lon="4.5130396">
        <ele>2900.0</ele>
        <time>2020-09-21T11:09:01Z</time>
      </trkpt>
      <trkpt lat="52.15176" lon="4.513035">
        <ele>2900.0</ele>
        <time>2020-09-21T11:09:02Z</time>
      </trkpt>
      <trkpt lat="52.151752" lon="4.5130296">
        <ele>2900.0</ele>
        <time>2020-09-21T11:09:04Z</time>
      </trkpt>
      <trkpt lat="52.15174" lon="4.5130224">
        <ele>2900.0</ele>
        <time>2020-09-21T11:09:04Z</time>
      </trkpt>
      <trkpt lat="52.15173" lon="4.5130153">
        <ele>2900.0</ele>
        <time>2020-09-21T11:09:05Z</time>
      </trkpt>
      <trkpt lat="52.151722" lon="4.5130095">
        <ele>2900.0</ele>
        <time>2020-09-21T11:09:06Z</time>
      </trkpt>
      <trkpt lat="52.151714" lon="4.5130057">
        <ele>2900.0</ele>
        <time>2020-09-21T11:09:07Z</time>
      </trkpt>
      <trkpt lat="52.151707" lon="4.5130043">
        <ele>2900.0</ele>
        <time>2020-09-21T11:09:08Z</time>
      </trkpt>
      <trkpt lat="52.151695" lon="4.5130005">
        <ele>2900.0</ele>
        <time>2020-09-21T11:09:09Z</time>
      </trkpt>
      <trkpt lat="52.151684" lon="4.5129952">
        <ele>2900.0</ele>
        <time>2020-09-21T11:09:10Z</time>
      </trkpt>
      <trkpt lat="52.151676" lon="4.512988">
        <ele>2900.0</ele>
        <time>2020-09-21T11:09:11Z</time>
      </trkpt>
      <trkpt lat="52.151665" lon="4.512982">
        <ele>2900.0</ele>
        <time>2020-09-21T11:09:12Z</time>
      </trkpt>
      <trkpt lat="52.15166" lon="4.512977">
        <ele>2900.0</ele>
        <time>2020-09-21T11:09:13Z</time>
      </trkpt>
      <trkpt lat="52.15165" lon="4.5129714">
        <ele>2900.0</ele>
        <time>2020-09-21T11:09:14Z</time>
      </trkpt>
      <trkpt lat="52.151638" lon="4.5129642">
        <ele>2900.0</ele>
        <time>2020-09-21T11:09:15Z</time>
      </trkpt>
      <trkpt lat="52.15163" lon="4.512957">
        <ele>2900.0</ele>
        <time>2020-09-21T11:09:16Z</time>
      </trkpt>
      <trkpt lat="52.15162" lon="4.51295">
        <ele>2900.0</ele>
        <time>2020-09-21T11:09:17Z</time>
      </trkpt>
      <trkpt lat="52.151608" lon="4.5129437">
        <ele>2900.0</ele>
        <time>2020-09-21T11:09:18Z</time>
      </trkpt>
      <trkpt lat="52.1516" lon="4.51294">
        <ele>2900.0</ele>
        <time>2020-09-21T11:09:19Z</time>
      </trkpt>
      <trkpt lat="52.15159" lon="4.5129366">
        <ele>2900.0</ele>
        <time>2020-09-21T11:09:20Z</time>
      </trkpt>
      <trkpt lat="52.151585" lon="4.5129337">
        <ele>2900.0</ele>
        <time>2020-09-21T11:09:21Z</time>
      </trkpt>
      <trkpt lat="52.151573" lon="4.5129294">
        <ele>2900.0</ele>
        <time>2020-09-21T11:09:23Z</time>
      </trkpt>
      <trkpt lat="52.151558" lon="4.5129266">
        <ele>2900.0</ele>
        <time>2020-09-21T11:09:23Z</time>
      </trkpt>
      <trkpt lat="52.151546" lon="4.5129256">
        <ele>2900.0</ele>
        <time>2020-09-21T11:09:24Z</time>
      </trkpt>
      <trkpt lat="52.151535" lon="4.5129213">
        <ele>2900.0</ele>
        <time>2020-09-21T11:09:25Z</time>
      </trkpt>
      <trkpt lat="52.15153" lon="4.512915">
        <ele>2900.0</ele>
        <time>2020-09-21T11:09:26Z</time>
      </trkpt>
      <trkpt lat="52.15152" lon="4.512907">
        <ele>2900.0</ele>
        <time>2020-09-21T11:09:26Z</time>
      </trkpt>
      <trkpt lat="52.151516" lon="4.5128984">
        <ele>2900.0</ele>
        <time>2020-09-21T11:09:27Z</time>
      </trkpt>
      <trkpt lat="52.151505" lon="4.5128894">
        <ele>2900.0</ele>
        <time>2020-09-21T11:09:28Z</time>
      </trkpt>
      <trkpt lat="52.1515" lon="4.5128818">
        <ele>2900.0</ele>
        <time>2020-09-21T11:09:29Z</time>
      </trkpt>
      <trkpt lat="52.151497" lon="4.512874">
        <ele>2900.0</ele>
        <time>2020-09-21T11:09:30Z</time>
      </trkpt>
      <trkpt lat="52.15149" lon="4.512868">
        <ele>2900.0</ele>
        <time>2020-09-21T11:09:32Z</time>
      </trkpt>
      <trkpt lat="52.151485" lon="4.5128617">
        <ele>2900.0</ele>
        <time>2020-09-21T11:09:32Z</time>
      </trkpt>
      <trkpt lat="52.151485" lon="4.5128565">
        <ele>2900.0</ele>
        <time>2020-09-21T11:09:33Z</time>
      </trkpt>
      <trkpt lat="52.15148" lon="4.5128427">
        <ele>2900.0</ele>
        <time>2020-09-21T11:09:35Z</time>
      </trkpt>
      <trkpt lat="52.15148" lon="4.512841">
        <ele>2900.0</ele>
        <time>2020-09-21T11:09:36Z</time>
      </trkpt>
      <trkpt lat="52.15148" lon="4.5128417">
        <ele>2900.0</ele>
        <time>2020-09-21T11:09:37Z</time>
      </trkpt>
      <trkpt lat="52.15148" lon="4.5128427">
        <ele>2900.0</ele>
        <time>2020-09-21T11:09:38Z</time>
      </trkpt>
      <trkpt lat="52.151474" lon="4.512843">
        <ele>2900.0</ele>
        <time>2020-09-21T11:09:39Z</time>
      </trkpt>
      <trkpt lat="52.15147" lon="4.5128427">
        <ele>2900.0</ele>
        <time>2020-09-21T11:09:40Z</time>
      </trkpt>
      <trkpt lat="52.151466" lon="4.51284">
        <ele>2900.0</ele>
        <time>2020-09-21T11:09:41Z</time>
      </trkpt>
      <trkpt lat="52.15146" lon="4.512837">
        <ele>2900.0</ele>
        <time>2020-09-21T11:09:42Z</time>
      </trkpt>
      <trkpt lat="52.15145" lon="4.512833">
        <ele>2900.0</ele>
        <time>2020-09-21T11:09:43Z</time>
      </trkpt>
      <trkpt lat="52.15144" lon="4.512827">
        <ele>2900.0</ele>
        <time>2020-09-21T11:09:44Z</time>
      </trkpt>
      <trkpt lat="52.151436" lon="4.5128183">
        <ele>2900.0</ele>
        <time>2020-09-21T11:09:45Z</time>
      </trkpt>
      <trkpt lat="52.151424" lon="4.5128098">
        <ele>2900.0</ele>
        <time>2020-09-21T11:09:46Z</time>
      </trkpt>
      <trkpt lat="52.151413" lon="4.512802">
        <ele>2900.0</ele>
        <time>2020-09-21T11:09:47Z</time>
      </trkpt>
      <trkpt lat="52.151405" lon="4.512795">
        <ele>2900.0</ele>
        <time>2020-09-21T11:09:48Z</time>
      </trkpt>
      <trkpt lat="52.151398" lon="4.512788">
        <ele>2900.0</ele>
        <time>2020-09-21T11:09:49Z</time>
      </trkpt>
      <trkpt lat="52.151386" lon="4.51278">
        <ele>2900.0</ele>
        <time>2020-09-21T11:09:50Z</time>
      </trkpt>
      <trkpt lat="52.15138" lon="4.512773">
        <ele>2900.0</ele>
        <time>2020-09-21T11:09:51Z</time>
      </trkpt>
      <trkpt lat="52.151367" lon="4.5127635">
        <ele>2900.0</ele>
        <time>2020-09-21T11:09:53Z</time>
      </trkpt>
      <trkpt lat="52.151352" lon="4.512754">
        <ele>2900.0</ele>
        <time>2020-09-21T11:09:53Z</time>
      </trkpt>
      <trkpt lat="52.15134" lon="4.5127444">
        <ele>2900.0</ele>
        <time>2020-09-21T11:09:54Z</time>
      </trkpt>
      <trkpt lat="52.151337" lon="4.5127363">
        <ele>2900.0</ele>
        <time>2020-09-21T11:09:55Z</time>
      </trkpt>
      <trkpt lat="52.151325" lon="4.512729">
        <ele>2900.0</ele>
        <time>2020-09-21T11:09:56Z</time>
      </trkpt>
      <trkpt lat="52.151318" lon="4.51272">
        <ele>2900.0</ele>
        <time>2020-09-21T11:09:57Z</time>
      </trkpt>
      <trkpt lat="52.151306" lon="4.5127125">
        <ele>2900.0</ele>
        <time>2020-09-21T11:09:58Z</time>
      </trkpt>
      <trkpt lat="52.151295" lon="4.512706">
        <ele>2900.0</ele>
        <time>2020-09-21T11:09:59Z</time>
      </trkpt>
      <trkpt lat="52.151287" lon="4.5126977">
        <ele>2900.0</ele>
        <time>2020-09-21T11:10:00Z</time>
      </trkpt>
      <trkpt lat="52.151276" lon="4.5126896">
        <ele>2900.0</ele>
        <time>2020-09-21T11:10:01Z</time>
      </trkpt>
      <trkpt lat="52.15127" lon="4.512681">
        <ele>2900.0</ele>
        <time>2020-09-21T11:10:02Z</time>
      </trkpt>
      <trkpt lat="52.15126" lon="4.5126696">
        <ele>2900.0</ele>
        <time>2020-09-21T11:10:03Z</time>
      </trkpt>
      <trkpt lat="52.151257" lon="4.512658">
        <ele>2900.0</ele>
        <time>2020-09-21T11:10:04Z</time>
      </trkpt>
      <trkpt lat="52.151245" lon="4.512648">
        <ele>2900.0</ele>
        <time>2020-09-21T11:10:05Z</time>
      </trkpt>
      <trkpt lat="52.151234" lon="4.5126405">
        <ele>2900.0</ele>
        <time>2020-09-21T11:10:06Z</time>
      </trkpt>
      <trkpt lat="52.15123" lon="4.5126386">
        <ele>2900.0</ele>
        <time>2020-09-21T11:10:07Z</time>
      </trkpt>
      <trkpt lat="52.15122" lon="4.5126386">
        <ele>2900.0</ele>
        <time>2020-09-21T11:10:08Z</time>
      </trkpt>
      <trkpt lat="52.15121" lon="4.5126405">
        <ele>2900.0</ele>
        <time>2020-09-21T11:10:09Z</time>
      </trkpt>
      <trkpt lat="52.1512" lon="4.5126443">
        <ele>2900.0</ele>
        <time>2020-09-21T11:10:10Z</time>
      </trkpt>
      <trkpt lat="52.15119" lon="4.5126486">
        <ele>2900.0</ele>
        <time>2020-09-21T11:10:11Z</time>
      </trkpt>
      <trkpt lat="52.151188" lon="4.512653">
        <ele>2900.0</ele>
        <time>2020-09-21T11:10:12Z</time>
      </trkpt>
      <trkpt lat="52.151184" lon="4.5126567">
        <ele>2900.0</ele>
        <time>2020-09-21T11:10:14Z</time>
      </trkpt>
      <trkpt lat="52.151176" lon="4.5126605">
        <ele>2900.0</ele>
        <time>2020-09-21T11:10:14Z</time>
      </trkpt>
      <trkpt lat="52.151176" lon="4.512662">
        <ele>2900.0</ele>
        <time>2020-09-21T11:10:15Z</time>
      </trkpt>
      <trkpt lat="52.151173" lon="4.512664">
        <ele>2900.0</ele>
        <time>2020-09-21T11:10:16Z</time>
      </trkpt>
      <trkpt lat="52.15117" lon="4.5126643">
        <ele>2900.0</ele>
        <time>2020-09-21T11:10:17Z</time>
      </trkpt>
      <trkpt lat="52.151157" lon="4.512664">
        <ele>2900.0</ele>
        <time>2020-09-21T11:10:18Z</time>
      </trkpt>
      <trkpt lat="52.151146" lon="4.5126624">
        <ele>2900.0</ele>
        <time>2020-09-21T11:10:19Z</time>
      </trkpt>
      <trkpt lat="52.151142" lon="4.5126605">
        <ele>2900.0</ele>
        <time>2020-09-21T11:10:20Z</time>
      </trkpt>
      <trkpt lat="52.15113" lon="4.51266">
        <ele>2900.0</ele>
        <time>2020-09-21T11:10:21Z</time>
      </trkpt>
      <trkpt lat="52.151115" lon="4.512658">
        <ele>2900.0</ele>
        <time>2020-09-21T11:10:22Z</time>
      </trkpt>
      <trkpt lat="52.151108" lon="4.5126534">
        <ele>2900.0</ele>
        <time>2020-09-21T11:10:23Z</time>
      </trkpt>
      <trkpt lat="52.151093" lon="4.5126467">
        <ele>2900.0</ele>
        <time>2020-09-21T11:10:24Z</time>
      </trkpt>
      <trkpt lat="52.151077" lon="4.5126376">
        <ele>2900.0</ele>
        <time>2020-09-21T11:10:25Z</time>
      </trkpt>
      <trkpt lat="52.151054" lon="4.5126247">
        <ele>2900.0</ele>
        <time>2020-09-21T11:10:26Z</time>
      </trkpt>
      <trkpt lat="52.15104" lon="4.5126095">
        <ele>2900.0</ele>
        <time>2020-09-21T11:10:27Z</time>
      </trkpt>
      <trkpt lat="52.15102" lon="4.5125923">
        <ele>2900.0</ele>
        <time>2020-09-21T11:10:28Z</time>
      </trkpt>
      <trkpt lat="52.150997" lon="4.512573">
        <ele>2900.0</ele>
        <time>2020-09-21T11:10:29Z</time>
      </trkpt>
      <trkpt lat="52.150978" lon="4.512552">
        <ele>2900.0</ele>
        <time>2020-09-21T11:10:30Z</time>
      </trkpt>
      <trkpt lat="52.15095" lon="4.5125303">
        <ele>2900.0</ele>
        <time>2020-09-21T11:10:32Z</time>
      </trkpt>
      <trkpt lat="52.150932" lon="4.5125103">
        <ele>2900.0</ele>
        <time>2020-09-21T11:10:32Z</time>
      </trkpt>
      <trkpt lat="52.150906" lon="4.51249">
        <ele>2900.0</ele>
        <time>2020-09-21T11:10:33Z</time>
      </trkpt>
      <trkpt lat="52.150887" lon="4.5124693">
        <ele>2900.0</ele>
        <time>2020-09-21T11:10:34Z</time>
      </trkpt>
      <trkpt lat="52.150867" lon="4.512447">
        <ele>2900.0</ele>
        <time>2020-09-21T11:10:35Z</time>
      </trkpt>
      <trkpt lat="52.150845" lon="4.5124235">
        <ele>2900.0</ele>
        <time>2020-09-21T11:10:36Z</time>
      </trkpt>
      <trkpt lat="52.150826" lon="4.5124016">
        <ele>2900.0</ele>
        <time>2020-09-21T11:10:37Z</time>
      </trkpt>
      <trkpt lat="52.150803" lon="4.5123806">
        <ele>2900.0</ele>
        <time>2020-09-21T11:10:38Z</time>
      </trkpt>
      <trkpt lat="52.150784" lon="4.512358">
        <ele>2900.0</ele>
        <time>2020-09-21T11:10:39Z</time>
      </trkpt>
      <trkpt lat="52.150757" lon="4.512331">
        <ele>2900.0</ele>
        <time>2020-09-21T11:10:40Z</time>
      </trkpt>
      <trkpt lat="52.150738" lon="4.5123">
        <ele>2900.0</ele>
        <time>2020-09-21T11:10:41Z</time>
      </trkpt>
      <trkpt lat="52.15071" lon="4.5122657">
        <ele>2900.0</ele>
        <time>2020-09-21T11:10:42Z</time>
      </trkpt>
      <trkpt lat="52.15069" lon="4.5122337">
        <ele>2900.0</ele>
        <time>2020-09-21T11:10:43Z</time>
      </trkpt>
      <trkpt lat="52.15066" lon="4.5122056">
        <ele>2900.0</ele>
        <time>2020-09-21T11:10:44Z</time>
      </trkpt>
      <trkpt lat="52.150635" lon="4.5121784">
        <ele>2900.0</ele>
        <time>2020-09-21T11:10:45Z</time>
      </trkpt>
      <trkpt lat="52.150608" lon="4.5121512">
        <ele>2900.0</ele>
        <time>2020-09-21T11:10:46Z</time>
      </trkpt>
      <trkpt lat="52.15059" lon="4.512125">
        <ele>2900.0</ele>
        <time>2020-09-21T11:10:47Z</time>
      </trkpt>
      <trkpt lat="52.150562" lon="4.5120993">
        <ele>2900.0</ele>
        <time>2020-09-21T11:10:48Z</time>
      </trkpt>
      <trkpt lat="52.15054" lon="4.5120735">
        <ele>2900.0</ele>
        <time>2020-09-21T11:10:49Z</time>
      </trkpt>
      <trkpt lat="52.150517" lon="4.512048">
        <ele>2900.0</ele>
        <time>2020-09-21T11:10:50Z</time>
      </trkpt>
      <trkpt lat="52.150494" lon="4.512022">
        <ele>2900.0</ele>
        <time>2020-09-21T11:10:51Z</time>
      </trkpt>
      <trkpt lat="52.150467" lon="4.5119963">
        <ele>2900.0</ele>
        <time>2020-09-21T11:10:53Z</time>
      </trkpt>
      <trkpt lat="52.15044" lon="4.511971">
        <ele>2900.0</ele>
        <time>2020-09-21T11:10:53Z</time>
      </trkpt>
      <trkpt lat="52.15042" lon="4.511946">
        <ele>2900.0</ele>
        <time>2020-09-21T11:10:54Z</time>
      </trkpt>
      <trkpt lat="52.1504" lon="4.5119214">
        <ele>2900.0</ele>
        <time>2020-09-21T11:10:55Z</time>
      </trkpt>
      <trkpt lat="52.150375" lon="4.5118985">
        <ele>2900.0</ele>
        <time>2020-09-21T11:10:56Z</time>
      </trkpt>
      <trkpt lat="52.150352" lon="4.5118756">
        <ele>2900.0</ele>
        <time>2020-09-21T11:10:57Z</time>
      </trkpt>
      <trkpt lat="52.15033" lon="4.5118513">
        <ele>2900.0</ele>
        <time>2020-09-21T11:10:58Z</time>
      </trkpt>
      <trkpt lat="52.150303" lon="4.5118275">
        <ele>2900.0</ele>
        <time>2020-09-21T11:10:59Z</time>
      </trkpt>
      <trkpt lat="52.150272" lon="4.511805">
        <ele>2900.0</ele>
        <time>2020-09-21T11:11:00Z</time>
      </trkpt>
      <trkpt lat="52.150246" lon="4.511781">
        <ele>2900.0</ele>
        <time>2020-09-21T11:11:01Z</time>
      </trkpt>
      <trkpt lat="52.150215" lon="4.511754">
        <ele>2900.0</ele>
        <time>2020-09-21T11:11:03Z</time>
      </trkpt>
      <trkpt lat="52.15019" lon="4.5117273">
        <ele>2900.0</ele>
        <time>2020-09-21T11:11:03Z</time>
      </trkpt>
      <trkpt lat="52.150166" lon="4.511701">
        <ele>2900.0</ele>
        <time>2020-09-21T11:11:04Z</time>
      </trkpt>
      <trkpt lat="52.15014" lon="4.5116763">
        <ele>2900.0</ele>
        <time>2020-09-21T11:11:05Z</time>
      </trkpt>
      <trkpt lat="52.15012" lon="4.5116544">
        <ele>2900.0</ele>
        <time>2020-09-21T11:11:06Z</time>
      </trkpt>
      <trkpt lat="52.150093" lon="4.5116324">
        <ele>2900.0</ele>
        <time>2020-09-21T11:11:07Z</time>
      </trkpt>
      <trkpt lat="52.150074" lon="4.51161">
        <ele>2900.0</ele>
        <time>2020-09-21T11:11:08Z</time>
      </trkpt>
      <trkpt lat="52.15005" lon="4.511585">
        <ele>2900.0</ele>
        <time>2020-09-21T11:11:09Z</time>
      </trkpt>
      <trkpt lat="52.150024" lon="4.5115614">
        <ele>2900.0</ele>
        <time>2020-09-21T11:11:10Z</time>
      </trkpt>
      <trkpt lat="52.150005" lon="4.511538">
        <ele>2900.0</ele>
        <time>2020-09-21T11:11:11Z</time>
      </trkpt>
      <trkpt lat="52.149986" lon="4.5115156">
        <ele>2900.0</ele>
        <time>2020-09-21T11:11:12Z</time>
      </trkpt>
      <trkpt lat="52.14996" lon="4.511492">
        <ele>2900.0</ele>
        <time>2020-09-21T11:11:14Z</time>
      </trkpt>
      <trkpt lat="52.149933" lon="4.5114665">
        <ele>2900.0</ele>
        <time>2020-09-21T11:11:14Z</time>
      </trkpt>
      <trkpt lat="52.149914" lon="4.5114393">
        <ele>2900.0</ele>
        <time>2020-09-21T11:11:15Z</time>
      </trkpt>
      <trkpt lat="52.149887" lon="4.51141">
        <ele>2900.0</ele>
        <time>2020-09-21T11:11:16Z</time>
      </trkpt>
      <trkpt lat="52.149864" lon="4.511382">
        <ele>2900.0</ele>
        <time>2020-09-21T11:11:17Z</time>
      </trkpt>
      <trkpt lat="52.149837" lon="4.5113544">
        <ele>2900.0</ele>
        <time>2020-09-21T11:11:18Z</time>
      </trkpt>
      <trkpt lat="52.14981" lon="4.511328">
        <ele>2900.0</ele>
        <time>2020-09-21T11:11:19Z</time>
      </trkpt>
      <trkpt lat="52.14979" lon="4.5113015">
        <ele>2900.0</ele>
        <time>2020-09-21T11:11:20Z</time>
      </trkpt>
      <trkpt lat="52.149765" lon="4.5112762">
        <ele>3000.0</ele>
        <time>2020-09-21T11:11:21Z</time>
      </trkpt>
      <trkpt lat="52.149746" lon="4.5112534">
        <ele>3000.0</ele>
        <time>2020-09-21T11:11:22Z</time>
      </trkpt>
      <trkpt lat="52.149723" lon="4.511231">
        <ele>3000.0</ele>
        <time>2020-09-21T11:11:23Z</time>
      </trkpt>
      <trkpt lat="52.1497" lon="4.5112114">
        <ele>3000.0</ele>
        <time>2020-09-21T11:11:24Z</time>
      </trkpt>
      <trkpt lat="52.149677" lon="4.5111933">
        <ele>3000.0</ele>
        <time>2020-09-21T11:11:25Z</time>
      </trkpt>
      <trkpt lat="52.14966" lon="4.5111737">
        <ele>3000.0</ele>
        <time>2020-09-21T11:11:26Z</time>
      </trkpt>
      <trkpt lat="52.149635" lon="4.5111504">
        <ele>3000.0</ele>
        <time>2020-09-21T11:11:27Z</time>
      </trkpt>
      <trkpt lat="52.149612" lon="4.511122">
        <ele>3000.0</ele>
        <time>2020-09-21T11:11:28Z</time>
      </trkpt>
      <trkpt lat="52.14959" lon="4.5110936">
        <ele>3000.0</ele>
        <time>2020-09-21T11:11:29Z</time>
      </trkpt>
      <trkpt lat="52.14957" lon="4.5110626">
        <ele>3000.0</ele>
        <time>2020-09-21T11:11:30Z</time>
      </trkpt>
      <trkpt lat="52.14955" lon="4.511031">
        <ele>3000.0</ele>
        <time>2020-09-21T11:11:32Z</time>
      </trkpt>
      <trkpt lat="52.14953" lon="4.5110016">
        <ele>3000.0</ele>
        <time>2020-09-21T11:11:32Z</time>
      </trkpt>
      <trkpt lat="52.14951" lon="4.510971">
        <ele>3000.0</ele>
        <time>2020-09-21T11:11:33Z</time>
      </trkpt>
      <trkpt lat="52.14949" lon="4.51094">
        <ele>3100.0</ele>
        <time>2020-09-21T11:11:34Z</time>
      </trkpt>
      <trkpt lat="52.149464" lon="4.5109086">
        <ele>3100.0</ele>
        <time>2020-09-21T11:11:35Z</time>
      </trkpt>
      <trkpt lat="52.14944" lon="4.5108795">
        <ele>3100.0</ele>
        <time>2020-09-21T11:11:36Z</time>
      </trkpt>
      <trkpt lat="52.14942" lon="4.5108533">
        <ele>3100.0</ele>
        <time>2020-09-21T11:11:37Z</time>
      </trkpt>
      <trkpt lat="52.149395" lon="4.51083">
        <ele>3100.0</ele>
        <time>2020-09-21T11:11:38Z</time>
      </trkpt>
      <trkpt lat="52.14938" lon="4.5108056">
        <ele>3100.0</ele>
        <time>2020-09-21T11:11:39Z</time>
      </trkpt>
      <trkpt lat="52.14936" lon="4.5107803">
        <ele>3100.0</ele>
        <time>2020-09-21T11:11:40Z</time>
      </trkpt>
      <trkpt lat="52.14934" lon="4.510753">
        <ele>3100.0</ele>
        <time>2020-09-21T11:11:42Z</time>
      </trkpt>
      <trkpt lat="52.149315" lon="4.510723">
        <ele>3100.0</ele>
        <time>2020-09-21T11:11:42Z</time>
      </trkpt>
      <trkpt lat="52.149296" lon="4.5106916">
        <ele>3100.0</ele>
        <time>2020-09-21T11:11:43Z</time>
      </trkpt>
      <trkpt lat="52.14927" lon="4.5106573">
        <ele>3100.0</ele>
        <time>2020-09-21T11:11:44Z</time>
      </trkpt>
      <trkpt lat="52.14924" lon="4.510617">
        <ele>3100.0</ele>
        <time>2020-09-21T11:11:45Z</time>
      </trkpt>
      <trkpt lat="52.149208" lon="4.510577">
        <ele>3100.0</ele>
        <time>2020-09-21T11:11:46Z</time>
      </trkpt>
      <trkpt lat="52.149178" lon="4.5105395">
        <ele>3100.0</ele>
        <time>2020-09-21T11:11:47Z</time>
      </trkpt>
      <trkpt lat="52.149147" lon="4.5105033">
        <ele>3000.0</ele>
        <time>2020-09-21T11:11:48Z</time>
      </trkpt>
      <trkpt lat="52.149117" lon="4.510471">
        <ele>3000.0</ele>
        <time>2020-09-21T11:11:49Z</time>
      </trkpt>
      <trkpt lat="52.14909" lon="4.510438">
        <ele>3000.0</ele>
        <time>2020-09-21T11:11:50Z</time>
      </trkpt>
      <trkpt lat="52.14906" lon="4.510408">
        <ele>3000.0</ele>
        <time>2020-09-21T11:11:51Z</time>
      </trkpt>
      <trkpt lat="52.149033" lon="4.5103803">
        <ele>3000.0</ele>
        <time>2020-09-21T11:11:52Z</time>
      </trkpt>
      <trkpt lat="52.149002" lon="4.510347">
        <ele>3000.0</ele>
        <time>2020-09-21T11:11:53Z</time>
      </trkpt>
      <trkpt lat="52.148975" lon="4.5103064">
        <ele>3000.0</ele>
        <time>2020-09-21T11:11:54Z</time>
      </trkpt>
      <trkpt lat="52.148952" lon="4.510257">
        <ele>3000.0</ele>
        <time>2020-09-21T11:11:55Z</time>
      </trkpt>
      <trkpt lat="52.14893" lon="4.5102067">
        <ele>3000.0</ele>
        <time>2020-09-21T11:11:56Z</time>
      </trkpt>
      <trkpt lat="52.148907" lon="4.5101595">
        <ele>3000.0</ele>
        <time>2020-09-21T11:11:57Z</time>
      </trkpt>
      <trkpt lat="52.14888" lon="4.5101147">
        <ele>3000.0</ele>
        <time>2020-09-21T11:11:58Z</time>
      </trkpt>
      <trkpt lat="52.148853" lon="4.5100713">
        <ele>3000.0</ele>
        <time>2020-09-21T11:11:59Z</time>
      </trkpt>
      <trkpt lat="52.148823" lon="4.5100303">
        <ele>3000.0</ele>
        <time>2020-09-21T11:12:00Z</time>
      </trkpt>
      <trkpt lat="52.148792" lon="4.50999">
        <ele>3000.0</ele>
        <time>2020-09-21T11:12:01Z</time>
      </trkpt>
      <trkpt lat="52.148766" lon="4.509951">
        <ele>3000.0</ele>
        <time>2020-09-21T11:12:03Z</time>
      </trkpt>
      <trkpt lat="52.148735" lon="4.5099125">
        <ele>3000.0</ele>
        <time>2020-09-21T11:12:03Z</time>
      </trkpt>
      <trkpt lat="52.148705" lon="4.5098724">
        <ele>3000.0</ele>
        <time>2020-09-21T11:12:04Z</time>
      </trkpt>
      <trkpt lat="52.148678" lon="4.509835">
        <ele>3000.0</ele>
        <time>2020-09-21T11:12:05Z</time>
      </trkpt>
      <trkpt lat="52.148655" lon="4.5097947">
        <ele>3000.0</ele>
        <time>2020-09-21T11:12:06Z</time>
      </trkpt>
      <trkpt lat="52.14863" lon="4.509754">
        <ele>3000.0</ele>
        <time>2020-09-21T11:12:07Z</time>
      </trkpt>
      <trkpt lat="52.1486" lon="4.509715">
        <ele>3000.0</ele>
        <time>2020-09-21T11:12:08Z</time>
      </trkpt>
      <trkpt lat="52.14858" lon="4.509676">
        <ele>3000.0</ele>
        <time>2020-09-21T11:12:09Z</time>
      </trkpt>
      <trkpt lat="52.148552" lon="4.5096364">
        <ele>3000.0</ele>
        <time>2020-09-21T11:12:10Z</time>
      </trkpt>
      <trkpt lat="52.148525" lon="4.5095987">
        <ele>3000.0</ele>
        <time>2020-09-21T11:12:11Z</time>
      </trkpt>
      <trkpt lat="52.148506" lon="4.509563">
        <ele>3000.0</ele>
        <time>2020-09-21T11:12:12Z</time>
      </trkpt>
      <trkpt lat="52.14848" lon="4.509527">
        <ele>3000.0</ele>
        <time>2020-09-21T11:12:13Z</time>
      </trkpt>
      <trkpt lat="52.14846" lon="4.5094934">
        <ele>3000.0</ele>
        <time>2020-09-21T11:12:14Z</time>
      </trkpt>
      <trkpt lat="52.148438" lon="4.5094604">
        <ele>3000.0</ele>
        <time>2020-09-21T11:12:15Z</time>
      </trkpt>
      <trkpt lat="52.14842" lon="4.509425">
        <ele>3000.0</ele>
        <time>2020-09-21T11:12:16Z</time>
      </trkpt>
      <trkpt lat="52.1484" lon="4.509387">
        <ele>3000.0</ele>
        <time>2020-09-21T11:12:17Z</time>
      </trkpt>
      <trkpt lat="52.148384" lon="4.509349">
        <ele>3000.0</ele>
        <time>2020-09-21T11:12:18Z</time>
      </trkpt>
      <trkpt lat="52.14836" lon="4.5093136">
        <ele>3000.0</ele>
        <time>2020-09-21T11:12:19Z</time>
      </trkpt>
      <trkpt lat="52.148346" lon="4.5092793">
        <ele>3000.0</ele>
        <time>2020-09-21T11:12:20Z</time>
      </trkpt>
      <trkpt lat="52.148327" lon="4.509245">
        <ele>3000.0</ele>
        <time>2020-09-21T11:12:21Z</time>
      </trkpt>
      <trkpt lat="52.148308" lon="4.50921">
        <ele>3000.0</ele>
        <time>2020-09-21T11:12:22Z</time>
      </trkpt>
      <trkpt lat="52.148285" lon="4.509174">
        <ele>3000.0</ele>
        <time>2020-09-21T11:12:23Z</time>
      </trkpt>
      <trkpt lat="52.148266" lon="4.5091405">
        <ele>3000.0</ele>
        <time>2020-09-21T11:12:24Z</time>
      </trkpt>
      <trkpt lat="52.14824" lon="4.5091076">
        <ele>3000.0</ele>
        <time>2020-09-21T11:12:25Z</time>
      </trkpt>
      <trkpt lat="52.148212" lon="4.5090733">
        <ele>3000.0</ele>
        <time>2020-09-21T11:12:26Z</time>
      </trkpt>
      <trkpt lat="52.148193" lon="4.50904">
        <ele>3000.0</ele>
        <time>2020-09-21T11:12:27Z</time>
      </trkpt>
      <trkpt lat="52.148167" lon="4.509006">
        <ele>3000.0</ele>
        <time>2020-09-21T11:12:28Z</time>
      </trkpt>
      <trkpt lat="52.148144" lon="4.508972">
        <ele>3000.0</ele>
        <time>2020-09-21T11:12:29Z</time>
      </trkpt>
      <trkpt lat="52.14812" lon="4.5089383">
        <ele>3000.0</ele>
        <time>2020-09-21T11:12:30Z</time>
      </trkpt>
      <trkpt lat="52.148094" lon="4.5089054">
        <ele>3000.0</ele>
        <time>2020-09-21T11:12:31Z</time>
      </trkpt>
      <trkpt lat="52.148075" lon="4.5088754">
        <ele>3000.0</ele>
        <time>2020-09-21T11:12:32Z</time>
      </trkpt>
      <trkpt lat="52.148056" lon="4.508846">
        <ele>3000.0</ele>
        <time>2020-09-21T11:12:33Z</time>
      </trkpt>
      <trkpt lat="52.148033" lon="4.5088186">
        <ele>3000.0</ele>
        <time>2020-09-21T11:12:34Z</time>
      </trkpt>
      <trkpt lat="52.148014" lon="4.508794">
        <ele>3000.0</ele>
        <time>2020-09-21T11:12:35Z</time>
      </trkpt>
      <trkpt lat="52.148" lon="4.5087695">
        <ele>3000.0</ele>
        <time>2020-09-21T11:12:36Z</time>
      </trkpt>
      <trkpt lat="52.14798" lon="4.5087457">
        <ele>3000.0</ele>
        <time>2020-09-21T11:12:37Z</time>
      </trkpt>
      <trkpt lat="52.147957" lon="4.5087194">
        <ele>3000.0</ele>
        <time>2020-09-21T11:12:38Z</time>
      </trkpt>
      <trkpt lat="52.147934" lon="4.5086913">
        <ele>3000.0</ele>
        <time>2020-09-21T11:12:39Z</time>
      </trkpt>
      <trkpt lat="52.147907" lon="4.5086617">
        <ele>3000.0</ele>
        <time>2020-09-21T11:12:40Z</time>
      </trkpt>
      <trkpt lat="52.147877" lon="4.5086303">
        <ele>3000.0</ele>
        <time>2020-09-21T11:12:42Z</time>
      </trkpt>
      <trkpt lat="52.14784" lon="4.508596">
        <ele>3000.0</ele>
        <time>2020-09-21T11:12:42Z</time>
      </trkpt>
      <trkpt lat="52.147804" lon="4.5085616">
        <ele>3000.0</ele>
        <time>2020-09-21T11:12:43Z</time>
      </trkpt>
      <trkpt lat="52.147774" lon="4.5085325">
        <ele>3000.0</ele>
        <time>2020-09-21T11:12:44Z</time>
      </trkpt>
      <trkpt lat="52.147743" lon="4.5085006">
        <ele>3000.0</ele>
        <time>2020-09-21T11:12:45Z</time>
      </trkpt>
      <trkpt lat="52.147705" lon="4.5084643">
        <ele>3000.0</ele>
        <time>2020-09-21T11:12:46Z</time>
      </trkpt>
      <trkpt lat="52.147675" lon="4.508426">
        <ele>3000.0</ele>
        <time>2020-09-21T11:12:47Z</time>
      </trkpt>
      <trkpt lat="52.14765" lon="4.508389">
        <ele>3000.0</ele>
        <time>2020-09-21T11:12:48Z</time>
      </trkpt>
      <trkpt lat="52.14762" lon="4.508352">
        <ele>3000.0</ele>
        <time>2020-09-21T11:12:49Z</time>
      </trkpt>
      <trkpt lat="52.1476" lon="4.508318">
        <ele>3000.0</ele>
        <time>2020-09-21T11:12:50Z</time>
      </trkpt>
      <trkpt lat="52.147575" lon="4.508291">
        <ele>3000.0</ele>
        <time>2020-09-21T11:12:52Z</time>
      </trkpt>
      <trkpt lat="52.14756" lon="4.50827">
        <ele>3000.0</ele>
        <time>2020-09-21T11:12:52Z</time>
      </trkpt>
      <trkpt lat="52.147545" lon="4.508252">
        <ele>3000.0</ele>
        <time>2020-09-21T11:12:53Z</time>
      </trkpt>
      <trkpt lat="52.147526" lon="4.508235">
        <ele>3000.0</ele>
        <time>2020-09-21T11:12:54Z</time>
      </trkpt>
      <trkpt lat="52.14751" lon="4.508217">
        <ele>3000.0</ele>
        <time>2020-09-21T11:12:55Z</time>
      </trkpt>
      <trkpt lat="52.14749" lon="4.5082016">
        <ele>3000.0</ele>
        <time>2020-09-21T11:12:56Z</time>
      </trkpt>
      <trkpt lat="52.147472" lon="4.5081873">
        <ele>3000.0</ele>
        <time>2020-09-21T11:12:57Z</time>
      </trkpt>
      <trkpt lat="52.14745" lon="4.508172">
        <ele>3000.0</ele>
        <time>2020-09-21T11:12:58Z</time>
      </trkpt>
      <trkpt lat="52.14743" lon="4.5081544">
        <ele>3000.0</ele>
        <time>2020-09-21T11:12:59Z</time>
      </trkpt>
      <trkpt lat="52.14741" lon="4.508134">
        <ele>3000.0</ele>
        <time>2020-09-21T11:13:00Z</time>
      </trkpt>
      <trkpt lat="52.147385" lon="4.508111">
        <ele>3000.0</ele>
        <time>2020-09-21T11:13:01Z</time>
      </trkpt>
      <trkpt lat="52.147366" lon="4.508086">
        <ele>3000.0</ele>
        <time>2020-09-21T11:13:03Z</time>
      </trkpt>
      <trkpt lat="52.147343" lon="4.508058">
        <ele>3000.0</ele>
        <time>2020-09-21T11:13:03Z</time>
      </trkpt>
      <trkpt lat="52.147324" lon="4.508026">
        <ele>3000.0</ele>
        <time>2020-09-21T11:13:04Z</time>
      </trkpt>
      <trkpt lat="52.1473" lon="4.5079937">
        <ele>3000.0</ele>
        <time>2020-09-21T11:13:05Z</time>
      </trkpt>
      <trkpt lat="52.147278" lon="4.5079618">
        <ele>3000.0</ele>
        <time>2020-09-21T11:13:06Z</time>
      </trkpt>
      <trkpt lat="52.147255" lon="4.5079265">
        <ele>3000.0</ele>
        <time>2020-09-21T11:13:07Z</time>
      </trkpt>
      <trkpt lat="52.147224" lon="4.5078893">
        <ele>3000.0</ele>
        <time>2020-09-21T11:13:08Z</time>
      </trkpt>
      <trkpt lat="52.1472" lon="4.5078497">
        <ele>3000.0</ele>
        <time>2020-09-21T11:13:09Z</time>
      </trkpt>
      <trkpt lat="52.14717" lon="4.5078063">
        <ele>3000.0</ele>
        <time>2020-09-21T11:13:10Z</time>
      </trkpt>
      <trkpt lat="52.147137" lon="4.5077624">
        <ele>3000.0</ele>
        <time>2020-09-21T11:13:11Z</time>
      </trkpt>
      <trkpt lat="52.147106" lon="4.5077157">
        <ele>3000.0</ele>
        <time>2020-09-21T11:13:13Z</time>
      </trkpt>
      <trkpt lat="52.14707" lon="4.5076675">
        <ele>3000.0</ele>
        <time>2020-09-21T11:13:13Z</time>
      </trkpt>
      <trkpt lat="52.14704" lon="4.507619">
        <ele>3000.0</ele>
        <time>2020-09-21T11:13:14Z</time>
      </trkpt>
      <trkpt lat="52.14701" lon="4.50757">
        <ele>3000.0</ele>
        <time>2020-09-21T11:13:15Z</time>
      </trkpt>
      <trkpt lat="52.14698" lon="4.507519">
        <ele>3000.0</ele>
        <time>2020-09-21T11:13:16Z</time>
      </trkpt>
      <trkpt lat="52.146954" lon="4.507469">
        <ele>3000.0</ele>
        <time>2020-09-21T11:13:17Z</time>
      </trkpt>
      <trkpt lat="52.146927" lon="4.5074177">
        <ele>3000.0</ele>
        <time>2020-09-21T11:13:18Z</time>
      </trkpt>
      <trkpt lat="52.146908" lon="4.507367">
        <ele>3000.0</ele>
        <time>2020-09-21T11:13:19Z</time>
      </trkpt>
      <trkpt lat="52.14689" lon="4.507316">
        <ele>3000.0</ele>
        <time>2020-09-21T11:13:20Z</time>
      </trkpt>
      <trkpt lat="52.146873" lon="4.507264">
        <ele>3000.0</ele>
        <time>2020-09-21T11:13:21Z</time>
      </trkpt>
      <trkpt lat="52.14685" lon="4.507208">
        <ele>3000.0</ele>
        <time>2020-09-21T11:13:22Z</time>
      </trkpt>
      <trkpt lat="52.14683" lon="4.50715">
        <ele>3000.0</ele>
        <time>2020-09-21T11:13:23Z</time>
      </trkpt>
      <trkpt lat="52.146812" lon="4.5070887">
        <ele>3000.0</ele>
        <time>2020-09-21T11:13:24Z</time>
      </trkpt>
      <trkpt lat="52.146797" lon="4.5070224">
        <ele>3000.0</ele>
        <time>2020-09-21T11:13:25Z</time>
      </trkpt>
      <trkpt lat="52.146782" lon="4.5069556">
        <ele>3000.0</ele>
        <time>2020-09-21T11:13:26Z</time>
      </trkpt>
      <trkpt lat="52.14677" lon="4.50689">
        <ele>3000.0</ele>
        <time>2020-09-21T11:13:27Z</time>
      </trkpt>
      <trkpt lat="52.14676" lon="4.5068264">
        <ele>3000.0</ele>
        <time>2020-09-21T11:13:28Z</time>
      </trkpt>
      <trkpt lat="52.146748" lon="4.5067677">
        <ele>3000.0</ele>
        <time>2020-09-21T11:13:29Z</time>
      </trkpt>
      <trkpt lat="52.14674" lon="4.506711">
        <ele>3000.0</ele>
        <time>2020-09-21T11:13:31Z</time>
      </trkpt>
      <trkpt lat="52.146732" lon="4.506656">
        <ele>3000.0</ele>
        <time>2020-09-21T11:13:31Z</time>
      </trkpt>
      <trkpt lat="52.14673" lon="4.5066056">
        <ele>3000.0</ele>
        <time>2020-09-21T11:13:32Z</time>
      </trkpt>
      <trkpt lat="52.146717" lon="4.506557">
        <ele>3000.0</ele>
        <time>2020-09-21T11:13:33Z</time>
      </trkpt>
      <trkpt lat="52.146713" lon="4.5065084">
        <ele>3000.0</ele>
        <time>2020-09-21T11:13:34Z</time>
      </trkpt>
      <trkpt lat="52.146713" lon="4.5064588">
        <ele>3000.0</ele>
        <time>2020-09-21T11:13:35Z</time>
      </trkpt>
      <trkpt lat="52.14671" lon="4.506408">
        <ele>3000.0</ele>
        <time>2020-09-21T11:13:36Z</time>
      </trkpt>
      <trkpt lat="52.1467" lon="4.5063543">
        <ele>3000.0</ele>
        <time>2020-09-21T11:13:37Z</time>
      </trkpt>
      <trkpt lat="52.146698" lon="4.506301">
        <ele>3000.0</ele>
        <time>2020-09-21T11:13:38Z</time>
      </trkpt>
      <trkpt lat="52.146698" lon="4.506247">
        <ele>3000.0</ele>
        <time>2020-09-21T11:13:39Z</time>
      </trkpt>
      <trkpt lat="52.146698" lon="4.506193">
        <ele>3000.0</ele>
        <time>2020-09-21T11:13:40Z</time>
      </trkpt>
      <trkpt lat="52.146694" lon="4.50614">
        <ele>3000.0</ele>
        <time>2020-09-21T11:13:41Z</time>
      </trkpt>
      <trkpt lat="52.146694" lon="4.506089">
        <ele>3000.0</ele>
        <time>2020-09-21T11:13:41Z</time>
      </trkpt>
      <trkpt lat="52.146683" lon="4.506038">
        <ele>3000.0</ele>
        <time>2020-09-21T11:13:42Z</time>
      </trkpt>
      <trkpt lat="52.14667" lon="4.5059924">
        <ele>3000.0</ele>
        <time>2020-09-21T11:13:43Z</time>
      </trkpt>
      <trkpt lat="52.146664" lon="4.505949">
        <ele>3000.0</ele>
        <time>2020-09-21T11:13:44Z</time>
      </trkpt>
      <trkpt lat="52.14665" lon="4.5059037">
        <ele>3000.0</ele>
        <time>2020-09-21T11:13:45Z</time>
      </trkpt>
      <trkpt lat="52.146637" lon="4.5058556">
        <ele>3000.0</ele>
        <time>2020-09-21T11:13:46Z</time>
      </trkpt>
      <trkpt lat="52.14662" lon="4.505807">
        <ele>3000.0</ele>
        <time>2020-09-21T11:13:47Z</time>
      </trkpt>
      <trkpt lat="52.146606" lon="4.505762">
        <ele>3000.0</ele>
        <time>2020-09-21T11:13:48Z</time>
      </trkpt>
      <trkpt lat="52.146595" lon="4.5057197">
        <ele>3000.0</ele>
        <time>2020-09-21T11:13:49Z</time>
      </trkpt>
      <trkpt lat="52.14658" lon="4.5056844">
        <ele>3000.0</ele>
        <time>2020-09-21T11:13:51Z</time>
      </trkpt>
      <trkpt lat="52.146572" lon="4.505651">
        <ele>3000.0</ele>
        <time>2020-09-21T11:13:51Z</time>
      </trkpt>
      <trkpt lat="52.146553" lon="4.505618">
        <ele>3000.0</ele>
        <time>2020-09-21T11:13:52Z</time>
      </trkpt>
      <trkpt lat="52.146545" lon="4.505584">
        <ele>3000.0</ele>
        <time>2020-09-21T11:13:53Z</time>
      </trkpt>
      <trkpt lat="52.14653" lon="4.505549">
        <ele>3000.0</ele>
        <time>2020-09-21T11:13:54Z</time>
      </trkpt>
      <trkpt lat="52.14652" lon="4.505516">
        <ele>3000.0</ele>
        <time>2020-09-21T11:13:55Z</time>
      </trkpt>
      <trkpt lat="52.146503" lon="4.505482">
        <ele>3000.0</ele>
        <time>2020-09-21T11:13:56Z</time>
      </trkpt>
      <trkpt lat="52.146492" lon="4.50545">
        <ele>3000.0</ele>
        <time>2020-09-21T11:13:57Z</time>
      </trkpt>
      <trkpt lat="52.146477" lon="4.505419">
        <ele>3000.0</ele>
        <time>2020-09-21T11:13:58Z</time>
      </trkpt>
      <trkpt lat="52.14646" lon="4.5053844">
        <ele>3000.0</ele>
        <time>2020-09-21T11:13:59Z</time>
      </trkpt>
      <trkpt lat="52.146446" lon="4.5053487">
        <ele>3000.0</ele>
        <time>2020-09-21T11:14:00Z</time>
      </trkpt>
      <trkpt lat="52.14643" lon="4.5053096">
        <ele>3000.0</ele>
        <time>2020-09-21T11:14:01Z</time>
      </trkpt>
      <trkpt lat="52.146416" lon="4.505273">
        <ele>3000.0</ele>
        <time>2020-09-21T11:14:02Z</time>
      </trkpt>
      <trkpt lat="52.146397" lon="4.505234">
        <ele>3000.0</ele>
        <time>2020-09-21T11:14:03Z</time>
      </trkpt>
      <trkpt lat="52.14638" lon="4.505197">
        <ele>3000.0</ele>
        <time>2020-09-21T11:14:04Z</time>
      </trkpt>
      <trkpt lat="52.146366" lon="4.505158">
        <ele>3000.0</ele>
        <time>2020-09-21T11:14:05Z</time>
      </trkpt>
      <trkpt lat="52.14635" lon="4.505118">
        <ele>3000.0</ele>
        <time>2020-09-21T11:14:06Z</time>
      </trkpt>
      <trkpt lat="52.146336" lon="4.5050764">
        <ele>3000.0</ele>
        <time>2020-09-21T11:14:07Z</time>
      </trkpt>
      <trkpt lat="52.14632" lon="4.505035">
        <ele>3000.0</ele>
        <time>2020-09-21T11:14:08Z</time>
      </trkpt>
      <trkpt lat="52.146305" lon="4.5049925">
        <ele>3000.0</ele>
        <time>2020-09-21T11:14:09Z</time>
      </trkpt>
      <trkpt lat="52.14629" lon="4.504952">
        <ele>3000.0</ele>
        <time>2020-09-21T11:14:10Z</time>
      </trkpt>
      <trkpt lat="52.14628" lon="4.504912">
        <ele>3000.0</ele>
        <time>2020-09-21T11:14:12Z</time>
      </trkpt>
      <trkpt lat="52.146263" lon="4.504872">
        <ele>3000.0</ele>
        <time>2020-09-21T11:14:12Z</time>
      </trkpt>
      <trkpt lat="52.14625" lon="4.504832">
        <ele>3000.0</ele>
        <time>2020-09-21T11:14:13Z</time>
      </trkpt>
      <trkpt lat="52.146236" lon="4.50479">
        <ele>3000.0</ele>
        <time>2020-09-21T11:14:14Z</time>
      </trkpt>
      <trkpt lat="52.14623" lon="4.5047464">
        <ele>3000.0</ele>
        <time>2020-09-21T11:14:15Z</time>
      </trkpt>
      <trkpt lat="52.146214" lon="4.504704">
        <ele>3000.0</ele>
        <time>2020-09-21T11:14:16Z</time>
      </trkpt>
      <trkpt lat="52.146202" lon="4.5046625">
        <ele>3000.0</ele>
        <time>2020-09-21T11:14:17Z</time>
      </trkpt>
      <trkpt lat="52.14619" lon="4.504622">
        <ele>3000.0</ele>
        <time>2020-09-21T11:14:18Z</time>
      </trkpt>
      <trkpt lat="52.146183" lon="4.504583">
        <ele>3000.0</ele>
        <time>2020-09-21T11:14:19Z</time>
      </trkpt>
      <trkpt lat="52.14617" lon="4.504545">
        <ele>3000.0</ele>
        <time>2020-09-21T11:14:20Z</time>
      </trkpt>
      <trkpt lat="52.14616" lon="4.504508">
        <ele>3000.0</ele>
        <time>2020-09-21T11:14:21Z</time>
      </trkpt>
      <trkpt lat="52.14615" lon="4.50447">
        <ele>3000.0</ele>
        <time>2020-09-21T11:14:22Z</time>
      </trkpt>
      <trkpt lat="52.14614" lon="4.5044327">
        <ele>3000.0</ele>
        <time>2020-09-21T11:14:23Z</time>
      </trkpt>
      <trkpt lat="52.146126" lon="4.504394">
        <ele>3000.0</ele>
        <time>2020-09-21T11:14:24Z</time>
      </trkpt>
      <trkpt lat="52.14611" lon="4.504357">
        <ele>3000.0</ele>
        <time>2020-09-21T11:14:25Z</time>
      </trkpt>
      <trkpt lat="52.146095" lon="4.504319">
        <ele>3000.0</ele>
        <time>2020-09-21T11:14:26Z</time>
      </trkpt>
      <trkpt lat="52.14608" lon="4.504281">
        <ele>3000.0</ele>
        <time>2020-09-21T11:14:27Z</time>
      </trkpt>
      <trkpt lat="52.14607" lon="4.5042424">
        <ele>3000.0</ele>
        <time>2020-09-21T11:14:28Z</time>
      </trkpt>
      <trkpt lat="52.146057" lon="4.504207">
        <ele>3000.0</ele>
        <time>2020-09-21T11:14:29Z</time>
      </trkpt>
      <trkpt lat="52.14604" lon="4.504171">
        <ele>3000.0</ele>
        <time>2020-09-21T11:14:30Z</time>
      </trkpt>
      <trkpt lat="52.146034" lon="4.5041385">
        <ele>3000.0</ele>
        <time>2020-09-21T11:14:31Z</time>
      </trkpt>
      <trkpt lat="52.146023" lon="4.504104">
        <ele>3000.0</ele>
        <time>2020-09-21T11:14:32Z</time>
      </trkpt>
      <trkpt lat="52.14602" lon="4.5040693">
        <ele>3000.0</ele>
        <time>2020-09-21T11:14:33Z</time>
      </trkpt>
      <trkpt lat="52.146004" lon="4.5040345">
        <ele>3000.0</ele>
        <time>2020-09-21T11:14:34Z</time>
      </trkpt>
      <trkpt lat="52.145992" lon="4.5039973">
        <ele>3000.0</ele>
        <time>2020-09-21T11:14:35Z</time>
      </trkpt>
      <trkpt lat="52.145977" lon="4.50396">
        <ele>3000.0</ele>
        <time>2020-09-21T11:14:36Z</time>
      </trkpt>
      <trkpt lat="52.145966" lon="4.5039167">
        <ele>3000.0</ele>
        <time>2020-09-21T11:14:37Z</time>
      </trkpt>
      <trkpt lat="52.14595" lon="4.503876">
        <ele>3000.0</ele>
        <time>2020-09-21T11:14:38Z</time>
      </trkpt>
      <trkpt lat="52.145935" lon="4.503838">
        <ele>3000.0</ele>
        <time>2020-09-21T11:14:40Z</time>
      </trkpt>
      <trkpt lat="52.145924" lon="4.5038056">
        <ele>3000.0</ele>
        <time>2020-09-21T11:14:40Z</time>
      </trkpt>
      <trkpt lat="52.14591" lon="4.5037737">
        <ele>3000.0</ele>
        <time>2020-09-21T11:14:41Z</time>
      </trkpt>
      <trkpt lat="52.1459" lon="4.503742">
        <ele>3000.0</ele>
        <time>2020-09-21T11:14:42Z</time>
      </trkpt>
      <trkpt lat="52.14589" lon="4.5037107">
        <ele>3000.0</ele>
        <time>2020-09-21T11:14:43Z</time>
      </trkpt>
      <trkpt lat="52.145878" lon="4.5036755">
        <ele>3000.0</ele>
        <time>2020-09-21T11:14:44Z</time>
      </trkpt>
      <trkpt lat="52.145863" lon="4.503643">
        <ele>3000.0</ele>
        <time>2020-09-21T11:14:45Z</time>
      </trkpt>
      <trkpt lat="52.145855" lon="4.503612">
        <ele>3000.0</ele>
        <time>2020-09-21T11:14:46Z</time>
      </trkpt>
      <trkpt lat="52.145844" lon="4.5035796">
        <ele>3000.0</ele>
        <time>2020-09-21T11:14:47Z</time>
      </trkpt>
      <trkpt lat="52.145832" lon="4.503542">
        <ele>3000.0</ele>
        <time>2020-09-21T11:14:48Z</time>
      </trkpt>
      <trkpt lat="52.145824" lon="4.5035048">
        <ele>3000.0</ele>
        <time>2020-09-21T11:14:49Z</time>
      </trkpt>
      <trkpt lat="52.14581" lon="4.5034657">
        <ele>3000.0</ele>
        <time>2020-09-21T11:14:51Z</time>
      </trkpt>
      <trkpt lat="52.145798" lon="4.503427">
        <ele>3000.0</ele>
        <time>2020-09-21T11:14:51Z</time>
      </trkpt>
      <trkpt lat="52.145786" lon="4.503385">
        <ele>3000.0</ele>
        <time>2020-09-21T11:14:52Z</time>
      </trkpt>
      <trkpt lat="52.14577" lon="4.5033426">
        <ele>3000.0</ele>
        <time>2020-09-21T11:14:53Z</time>
      </trkpt>
      <trkpt lat="52.14576" lon="4.503299">
        <ele>3000.0</ele>
        <time>2020-09-21T11:14:54Z</time>
      </trkpt>
      <trkpt lat="52.145744" lon="4.5032587">
        <ele>3000.0</ele>
        <time>2020-09-21T11:14:55Z</time>
      </trkpt>
      <trkpt lat="52.145737" lon="4.503217">
        <ele>3000.0</ele>
        <time>2020-09-21T11:14:56Z</time>
      </trkpt>
      <trkpt lat="52.14572" lon="4.503173">
        <ele>3000.0</ele>
        <time>2020-09-21T11:14:57Z</time>
      </trkpt>
      <trkpt lat="52.145706" lon="4.5031276">
        <ele>3000.0</ele>
        <time>2020-09-21T11:14:59Z</time>
      </trkpt>
      <trkpt lat="52.14569" lon="4.5030837">
        <ele>3000.0</ele>
        <time>2020-09-21T11:14:59Z</time>
      </trkpt>
      <trkpt lat="52.145676" lon="4.503041">
        <ele>3000.0</ele>
        <time>2020-09-21T11:15:00Z</time>
      </trkpt>
      <trkpt lat="52.14566" lon="4.5029984">
        <ele>3000.0</ele>
        <time>2020-09-21T11:15:01Z</time>
      </trkpt>
      <trkpt lat="52.145645" lon="4.5029535">
        <ele>3000.0</ele>
        <time>2020-09-21T11:15:02Z</time>
      </trkpt>
      <trkpt lat="52.145634" lon="4.502908">
        <ele>3000.0</ele>
        <time>2020-09-21T11:15:03Z</time>
      </trkpt>
      <trkpt lat="52.14562" lon="4.502861">
        <ele>3000.0</ele>
        <time>2020-09-21T11:15:05Z</time>
      </trkpt>
      <trkpt lat="52.145607" lon="4.5028176">
        <ele>3000.0</ele>
        <time>2020-09-21T11:15:05Z</time>
      </trkpt>
      <trkpt lat="52.14559" lon="4.5027695">
        <ele>3000.0</ele>
        <time>2020-09-21T11:15:06Z</time>
      </trkpt>
      <trkpt lat="52.145576" lon="4.502719">
        <ele>3000.0</ele>
        <time>2020-09-21T11:15:07Z</time>
      </trkpt>
      <trkpt lat="52.14556" lon="4.502667">
        <ele>3000.0</ele>
        <time>2020-09-21T11:15:08Z</time>
      </trkpt>
      <trkpt lat="52.145546" lon="4.5026135">
        <ele>3000.0</ele>
        <time>2020-09-21T11:15:09Z</time>
      </trkpt>
      <trkpt lat="52.14553" lon="4.5025635">
        <ele>3000.0</ele>
        <time>2020-09-21T11:15:10Z</time>
      </trkpt>
      <trkpt lat="52.145515" lon="4.5025115">
        <ele>3000.0</ele>
        <time>2020-09-21T11:15:11Z</time>
      </trkpt>
      <trkpt lat="52.145496" lon="4.5024624">
        <ele>3000.0</ele>
        <time>2020-09-21T11:15:12Z</time>
      </trkpt>
      <trkpt lat="52.14548" lon="4.5024147">
        <ele>3000.0</ele>
        <time>2020-09-21T11:15:13Z</time>
      </trkpt>
      <trkpt lat="52.145466" lon="4.5023704">
        <ele>3000.0</ele>
        <time>2020-09-21T11:15:15Z</time>
      </trkpt>
      <trkpt lat="52.145443" lon="4.5023203">
        <ele>3000.0</ele>
        <time>2020-09-21T11:15:15Z</time>
      </trkpt>
      <trkpt lat="52.145428" lon="4.5022697">
        <ele>3000.0</ele>
        <time>2020-09-21T11:15:16Z</time>
      </trkpt>
      <trkpt lat="52.14541" lon="4.502217">
        <ele>3000.0</ele>
        <time>2020-09-21T11:15:17Z</time>
      </trkpt>
      <trkpt lat="52.145393" lon="4.502165">
        <ele>3000.0</ele>
        <time>2020-09-21T11:15:18Z</time>
      </trkpt>
      <trkpt lat="52.145382" lon="4.502112">
        <ele>3000.0</ele>
        <time>2020-09-21T11:15:19Z</time>
      </trkpt>
      <trkpt lat="52.145367" lon="4.5020595">
        <ele>3000.0</ele>
        <time>2020-09-21T11:15:20Z</time>
      </trkpt>
      <trkpt lat="52.14535" lon="4.5020065">
        <ele>3000.0</ele>
        <time>2020-09-21T11:15:21Z</time>
      </trkpt>
      <trkpt lat="52.14534" lon="4.501956">
        <ele>3000.0</ele>
        <time>2020-09-21T11:15:22Z</time>
      </trkpt>
      <trkpt lat="52.145332" lon="4.501912">
        <ele>3000.0</ele>
        <time>2020-09-21T11:15:23Z</time>
      </trkpt>
      <trkpt lat="52.145317" lon="4.5018644">
        <ele>3000.0</ele>
        <time>2020-09-21T11:15:24Z</time>
      </trkpt>
      <trkpt lat="52.145306" lon="4.5018196">
        <ele>3000.0</ele>
        <time>2020-09-21T11:15:25Z</time>
      </trkpt>
      <trkpt lat="52.14529" lon="4.501769">
        <ele>3000.0</ele>
        <time>2020-09-21T11:15:26Z</time>
      </trkpt>
      <trkpt lat="52.145275" lon="4.5017176">
        <ele>3000.0</ele>
        <time>2020-09-21T11:15:27Z</time>
      </trkpt>
      <trkpt lat="52.14526" lon="4.5016685">
        <ele>3000.0</ele>
        <time>2020-09-21T11:15:28Z</time>
      </trkpt>
      <trkpt lat="52.145245" lon="4.5016136">
        <ele>3000.0</ele>
        <time>2020-09-21T11:15:29Z</time>
      </trkpt>
      <trkpt lat="52.14523" lon="4.50156">
        <ele>3000.0</ele>
        <time>2020-09-21T11:15:30Z</time>
      </trkpt>
      <trkpt lat="52.145206" lon="4.5015073">
        <ele>3000.0</ele>
        <time>2020-09-21T11:15:31Z</time>
      </trkpt>
      <trkpt lat="52.14519" lon="4.5014586">
        <ele>3000.0</ele>
        <time>2020-09-21T11:15:33Z</time>
      </trkpt>
      <trkpt lat="52.145176" lon="4.5014076">
        <ele>3000.0</ele>
        <time>2020-09-21T11:15:33Z</time>
      </trkpt>
      <trkpt lat="52.145157" lon="4.501349">
        <ele>3000.0</ele>
        <time>2020-09-21T11:15:34Z</time>
      </trkpt>
      <trkpt lat="52.14514" lon="4.501291">
        <ele>3000.0</ele>
        <time>2020-09-21T11:15:35Z</time>
      </trkpt>
      <trkpt lat="52.145126" lon="4.5012345">
        <ele>3000.0</ele>
        <time>2020-09-21T11:15:36Z</time>
      </trkpt>
      <trkpt lat="52.14511" lon="4.5011806">
        <ele>3000.0</ele>
        <time>2020-09-21T11:15:37Z</time>
      </trkpt>
      <trkpt lat="52.145092" lon="4.501129">
        <ele>3000.0</ele>
        <time>2020-09-21T11:15:38Z</time>
      </trkpt>
      <trkpt lat="52.145077" lon="4.5010753">
        <ele>3000.0</ele>
        <time>2020-09-21T11:15:39Z</time>
      </trkpt>
      <trkpt lat="52.145054" lon="4.501021">
        <ele>3000.0</ele>
        <time>2020-09-21T11:15:40Z</time>
      </trkpt>
      <trkpt lat="52.145035" lon="4.5009675">
        <ele>3000.0</ele>
        <time>2020-09-21T11:15:41Z</time>
      </trkpt>
      <trkpt lat="52.14502" lon="4.500915">
        <ele>3000.0</ele>
        <time>2020-09-21T11:15:42Z</time>
      </trkpt>
      <trkpt lat="52.144997" lon="4.5008674">
        <ele>3000.0</ele>
        <time>2020-09-21T11:15:43Z</time>
      </trkpt>
      <trkpt lat="52.14498" lon="4.500816">
        <ele>3000.0</ele>
        <time>2020-09-21T11:15:44Z</time>
      </trkpt>
      <trkpt lat="52.144962" lon="4.500767">
        <ele>3000.0</ele>
        <time>2020-09-21T11:15:45Z</time>
      </trkpt>
      <trkpt lat="52.144943" lon="4.5007176">
        <ele>3000.0</ele>
        <time>2020-09-21T11:15:46Z</time>
      </trkpt>
      <trkpt lat="52.144928" lon="4.500668">
        <ele>3000.0</ele>
        <time>2020-09-21T11:15:47Z</time>
      </trkpt>
      <trkpt lat="52.144913" lon="4.5006194">
        <ele>3000.0</ele>
        <time>2020-09-21T11:15:48Z</time>
      </trkpt>
      <trkpt lat="52.144897" lon="4.500574">
        <ele>3000.0</ele>
        <time>2020-09-21T11:15:49Z</time>
      </trkpt>
      <trkpt lat="52.144875" lon="4.500528">
        <ele>3000.0</ele>
        <time>2020-09-21T11:15:50Z</time>
      </trkpt>
      <trkpt lat="52.14486" lon="4.50048">
        <ele>3000.0</ele>
        <time>2020-09-21T11:15:51Z</time>
      </trkpt>
      <trkpt lat="52.144844" lon="4.500432">
        <ele>3000.0</ele>
        <time>2020-09-21T11:15:52Z</time>
      </trkpt>
      <trkpt lat="52.14483" lon="4.500382">
        <ele>3000.0</ele>
        <time>2020-09-21T11:15:54Z</time>
      </trkpt>
      <trkpt lat="52.14481" lon="4.5003304">
        <ele>3000.0</ele>
        <time>2020-09-21T11:15:54Z</time>
      </trkpt>
      <trkpt lat="52.144794" lon="4.5002856">
        <ele>3000.0</ele>
        <time>2020-09-21T11:15:55Z</time>
      </trkpt>
      <trkpt lat="52.14477" lon="4.5002418">
        <ele>3000.0</ele>
        <time>2020-09-21T11:15:56Z</time>
      </trkpt>
      <trkpt lat="52.144756" lon="4.5002007">
        <ele>3000.0</ele>
        <time>2020-09-21T11:15:57Z</time>
      </trkpt>
      <trkpt lat="52.144737" lon="4.5001607">
        <ele>3000.0</ele>
        <time>2020-09-21T11:15:58Z</time>
      </trkpt>
      <trkpt lat="52.14472" lon="4.500124">
        <ele>3000.0</ele>
        <time>2020-09-21T11:15:59Z</time>
      </trkpt>
      <trkpt lat="52.144703" lon="4.500093">
        <ele>3000.0</ele>
        <time>2020-09-21T11:16:00Z</time>
      </trkpt>
      <trkpt lat="52.144688" lon="4.500062">
        <ele>3000.0</ele>
        <time>2020-09-21T11:16:01Z</time>
      </trkpt>
      <trkpt lat="52.144665" lon="4.5000353">
        <ele>3100.0</ele>
        <time>2020-09-21T11:16:02Z</time>
      </trkpt>
      <trkpt lat="52.144646" lon="4.500013">
        <ele>3100.0</ele>
        <time>2020-09-21T11:16:04Z</time>
      </trkpt>
      <trkpt lat="52.14463" lon="4.499995">
        <ele>3100.0</ele>
        <time>2020-09-21T11:16:04Z</time>
      </trkpt>
      <trkpt lat="52.144615" lon="4.4999776">
        <ele>3100.0</ele>
        <time>2020-09-21T11:16:05Z</time>
      </trkpt>
      <trkpt lat="52.1446" lon="4.499957">
        <ele>3100.0</ele>
        <time>2020-09-21T11:16:06Z</time>
      </trkpt>
      <trkpt lat="52.14459" lon="4.499934">
        <ele>3100.0</ele>
        <time>2020-09-21T11:16:07Z</time>
      </trkpt>
      <trkpt lat="52.144577" lon="4.499912">
        <ele>3100.0</ele>
        <time>2020-09-21T11:16:08Z</time>
      </trkpt>
      <trkpt lat="52.14457" lon="4.4998903">
        <ele>3100.0</ele>
        <time>2020-09-21T11:16:09Z</time>
      </trkpt>
      <trkpt lat="52.144558" lon="4.499872">
        <ele>3100.0</ele>
        <time>2020-09-21T11:16:10Z</time>
      </trkpt>
      <trkpt lat="52.144554" lon="4.4998503">
        <ele>3100.0</ele>
        <time>2020-09-21T11:16:11Z</time>
      </trkpt>
      <trkpt lat="52.144543" lon="4.499826">
        <ele>3100.0</ele>
        <time>2020-09-21T11:16:12Z</time>
      </trkpt>
      <trkpt lat="52.14454" lon="4.4998">
        <ele>3100.0</ele>
        <time>2020-09-21T11:16:13Z</time>
      </trkpt>
      <trkpt lat="52.144527" lon="4.4997735">
        <ele>3100.0</ele>
        <time>2020-09-21T11:16:15Z</time>
      </trkpt>
      <trkpt lat="52.144516" lon="4.4997473">
        <ele>3100.0</ele>
        <time>2020-09-21T11:16:15Z</time>
      </trkpt>
      <trkpt lat="52.1445" lon="4.499722">
        <ele>3100.0</ele>
        <time>2020-09-21T11:16:16Z</time>
      </trkpt>
      <trkpt lat="52.144493" lon="4.4997005">
        <ele>3100.0</ele>
        <time>2020-09-21T11:16:17Z</time>
      </trkpt>
      <trkpt lat="52.14448" lon="4.4996824">
        <ele>3100.0</ele>
        <time>2020-09-21T11:16:18Z</time>
      </trkpt>
      <trkpt lat="52.144466" lon="4.499667">
        <ele>3100.0</ele>
        <time>2020-09-21T11:16:19Z</time>
      </trkpt>
      <trkpt lat="52.144455" lon="4.499655">
        <ele>3100.0</ele>
        <time>2020-09-21T11:16:20Z</time>
      </trkpt>
      <trkpt lat="52.144447" lon="4.499642">
        <ele>3100.0</ele>
        <time>2020-09-21T11:16:22Z</time>
      </trkpt>
      <trkpt lat="52.14443" lon="4.4996247">
        <ele>3100.0</ele>
        <time>2020-09-21T11:16:22Z</time>
      </trkpt>
      <trkpt lat="52.14442" lon="4.499608">
        <ele>3100.0</ele>
        <time>2020-09-21T11:16:23Z</time>
      </trkpt>
      <trkpt lat="52.144405" lon="4.499589">
        <ele>3100.0</ele>
        <time>2020-09-21T11:16:24Z</time>
      </trkpt>
      <trkpt lat="52.144394" lon="4.4995675">
        <ele>3100.0</ele>
        <time>2020-09-21T11:16:25Z</time>
      </trkpt>
      <trkpt lat="52.144382" lon="4.4995403">
        <ele>3100.0</ele>
        <time>2020-09-21T11:16:26Z</time>
      </trkpt>
      <trkpt lat="52.144367" lon="4.4995065">
        <ele>3100.0</ele>
        <time>2020-09-21T11:16:27Z</time>
      </trkpt>
      <trkpt lat="52.14435" lon="4.49947">
        <ele>3100.0</ele>
        <time>2020-09-21T11:16:28Z</time>
      </trkpt>
      <trkpt lat="52.14433" lon="4.4994316">
        <ele>3100.0</ele>
        <time>2020-09-21T11:16:29Z</time>
      </trkpt>
      <trkpt lat="52.144314" lon="4.4993916">
        <ele>3100.0</ele>
        <time>2020-09-21T11:16:30Z</time>
      </trkpt>
      <trkpt lat="52.1443" lon="4.4993362">
        <ele>3100.0</ele>
        <time>2020-09-21T11:16:31Z</time>
      </trkpt>
      <trkpt lat="52.144283" lon="4.4992733">
        <ele>3100.0</ele>
        <time>2020-09-21T11:16:32Z</time>
      </trkpt>
      <trkpt lat="52.14427" lon="4.4992085">
        <ele>3000.0</ele>
        <time>2020-09-21T11:16:33Z</time>
      </trkpt>
      <trkpt lat="52.144268" lon="4.4991403">
        <ele>3000.0</ele>
        <time>2020-09-21T11:16:34Z</time>
      </trkpt>
      <trkpt lat="52.14426" lon="4.4990664">
        <ele>3000.0</ele>
        <time>2020-09-21T11:16:35Z</time>
      </trkpt>
      <trkpt lat="52.144257" lon="4.498985">
        <ele>3000.0</ele>
        <time>2020-09-21T11:16:36Z</time>
      </trkpt>
      <trkpt lat="52.144253" lon="4.498895">
        <ele>3000.0</ele>
        <time>2020-09-21T11:16:37Z</time>
      </trkpt>
      <trkpt lat="52.14424" lon="4.4988055">
        <ele>3000.0</ele>
        <time>2020-09-21T11:16:38Z</time>
      </trkpt>
      <trkpt lat="52.14423" lon="4.498721">
        <ele>3000.0</ele>
        <time>2020-09-21T11:16:39Z</time>
      </trkpt>
      <trkpt lat="52.144215" lon="4.4986444">
        <ele>3000.0</ele>
        <time>2020-09-21T11:16:40Z</time>
      </trkpt>
      <trkpt lat="52.1442" lon="4.4985723">
        <ele>3000.0</ele>
        <time>2020-09-21T11:16:41Z</time>
      </trkpt>
      <trkpt lat="52.144184" lon="4.498507">
        <ele>3000.0</ele>
        <time>2020-09-21T11:16:43Z</time>
      </trkpt>
      <trkpt lat="52.14417" lon="4.4984446">
        <ele>3000.0</ele>
        <time>2020-09-21T11:16:43Z</time>
      </trkpt>
      <trkpt lat="52.144154" lon="4.4983864">
        <ele>3000.0</ele>
        <time>2020-09-21T11:16:44Z</time>
      </trkpt>
      <trkpt lat="52.144142" lon="4.498333">
        <ele>3000.0</ele>
        <time>2020-09-21T11:16:45Z</time>
      </trkpt>
      <trkpt lat="52.144127" lon="4.4982853">
        <ele>3000.0</ele>
        <time>2020-09-21T11:16:46Z</time>
      </trkpt>
      <trkpt lat="52.14411" lon="4.498242">
        <ele>3000.0</ele>
        <time>2020-09-21T11:16:47Z</time>
      </trkpt>
      <trkpt lat="52.144104" lon="4.4982023">
        <ele>3000.0</ele>
        <time>2020-09-21T11:16:48Z</time>
      </trkpt>
      <trkpt lat="52.14409" lon="4.4981627">
        <ele>3000.0</ele>
        <time>2020-09-21T11:16:49Z</time>
      </trkpt>
      <trkpt lat="52.144073" lon="4.4981236">
        <ele>3000.0</ele>
        <time>2020-09-21T11:16:50Z</time>
      </trkpt>
      <trkpt lat="52.144062" lon="4.498081">
        <ele>3000.0</ele>
        <time>2020-09-21T11:16:51Z</time>
      </trkpt>
      <trkpt lat="52.14405" lon="4.498037">
        <ele>3000.0</ele>
        <time>2020-09-21T11:16:52Z</time>
      </trkpt>
      <trkpt lat="52.144035" lon="4.4979916">
        <ele>3000.0</ele>
        <time>2020-09-21T11:16:53Z</time>
      </trkpt>
      <trkpt lat="52.144024" lon="4.497945">
        <ele>3000.0</ele>
        <time>2020-09-21T11:16:54Z</time>
      </trkpt>
      <trkpt lat="52.14401" lon="4.497898">
        <ele>3000.0</ele>
        <time>2020-09-21T11:16:55Z</time>
      </trkpt>
      <trkpt lat="52.143993" lon="4.4978476">
        <ele>3000.0</ele>
        <time>2020-09-21T11:16:56Z</time>
      </trkpt>
      <trkpt lat="52.14398" lon="4.497802">
        <ele>3000.0</ele>
        <time>2020-09-21T11:16:57Z</time>
      </trkpt>
      <trkpt lat="52.143963" lon="4.497758">
        <ele>3000.0</ele>
        <time>2020-09-21T11:16:58Z</time>
      </trkpt>
      <trkpt lat="52.143955" lon="4.497712">
        <ele>3000.0</ele>
        <time>2020-09-21T11:16:59Z</time>
      </trkpt>
      <trkpt lat="52.14394" lon="4.497659">
        <ele>3000.0</ele>
        <time>2020-09-21T11:17:00Z</time>
      </trkpt>
      <trkpt lat="52.143925" lon="4.497608">
        <ele>3000.0</ele>
        <time>2020-09-21T11:17:01Z</time>
      </trkpt>
      <trkpt lat="52.14391" lon="4.4975567">
        <ele>3000.0</ele>
        <time>2020-09-21T11:17:02Z</time>
      </trkpt>
      <trkpt lat="52.143898" lon="4.497506">
        <ele>3000.0</ele>
        <time>2020-09-21T11:17:04Z</time>
      </trkpt>
      <trkpt lat="52.14388" lon="4.4974566">
        <ele>3000.0</ele>
        <time>2020-09-21T11:17:04Z</time>
      </trkpt>
      <trkpt lat="52.14386" lon="4.497405">
        <ele>3000.0</ele>
        <time>2020-09-21T11:17:05Z</time>
      </trkpt>
      <trkpt lat="52.14384" lon="4.4973536">
        <ele>3000.0</ele>
        <time>2020-09-21T11:17:06Z</time>
      </trkpt>
      <trkpt lat="52.14382" lon="4.497301">
        <ele>3000.0</ele>
        <time>2020-09-21T11:17:07Z</time>
      </trkpt>
      <trkpt lat="52.1438" lon="4.497247">
        <ele>3000.0</ele>
        <time>2020-09-21T11:17:08Z</time>
      </trkpt>
      <trkpt lat="52.14378" lon="4.49719">
        <ele>3000.0</ele>
        <time>2020-09-21T11:17:09Z</time>
      </trkpt>
      <trkpt lat="52.14376" lon="4.4971313">
        <ele>3000.0</ele>
        <time>2020-09-21T11:17:10Z</time>
      </trkpt>
      <trkpt lat="52.143738" lon="4.497071">
        <ele>3000.0</ele>
        <time>2020-09-21T11:17:11Z</time>
      </trkpt>
      <trkpt lat="52.14372" lon="4.497011">
        <ele>3000.0</ele>
        <time>2020-09-21T11:17:12Z</time>
      </trkpt>
      <trkpt lat="52.1437" lon="4.4969516">
        <ele>3000.0</ele>
        <time>2020-09-21T11:17:13Z</time>
      </trkpt>
      <trkpt lat="52.143684" lon="4.496896">
        <ele>3000.0</ele>
        <time>2020-09-21T11:17:14Z</time>
      </trkpt>
      <trkpt lat="52.14366" lon="4.496838">
        <ele>3000.0</ele>
        <time>2020-09-21T11:17:15Z</time>
      </trkpt>
      <trkpt lat="52.143642" lon="4.4967756">
        <ele>3000.0</ele>
        <time>2020-09-21T11:17:16Z</time>
      </trkpt>
      <trkpt lat="52.143627" lon="4.4967146">
        <ele>3000.0</ele>
        <time>2020-09-21T11:17:17Z</time>
      </trkpt>
      <trkpt lat="52.143604" lon="4.4966536">
        <ele>3000.0</ele>
        <time>2020-09-21T11:17:18Z</time>
      </trkpt>
      <trkpt lat="52.143585" lon="4.496594">
        <ele>3000.0</ele>
        <time>2020-09-21T11:17:19Z</time>
      </trkpt>
      <trkpt lat="52.143566" lon="4.496535">
        <ele>3000.0</ele>
        <time>2020-09-21T11:17:20Z</time>
      </trkpt>
      <trkpt lat="52.14354" lon="4.4964795">
        <ele>3000.0</ele>
        <time>2020-09-21T11:17:22Z</time>
      </trkpt>
      <trkpt lat="52.143513" lon="4.4964256">
        <ele>3000.0</ele>
        <time>2020-09-21T11:17:22Z</time>
      </trkpt>
      <trkpt lat="52.143494" lon="4.4963756">
        <ele>3000.0</ele>
        <time>2020-09-21T11:17:23Z</time>
      </trkpt>
      <trkpt lat="52.143467" lon="4.4963193">
        <ele>3000.0</ele>
        <time>2020-09-21T11:17:24Z</time>
      </trkpt>
      <trkpt lat="52.14344" lon="4.4962645">
        <ele>3000.0</ele>
        <time>2020-09-21T11:17:25Z</time>
      </trkpt>
      <trkpt lat="52.14341" lon="4.4962053">
        <ele>3000.0</ele>
        <time>2020-09-21T11:17:26Z</time>
      </trkpt>
      <trkpt lat="52.14339" lon="4.4961505">
        <ele>3000.0</ele>
        <time>2020-09-21T11:17:27Z</time>
      </trkpt>
      <trkpt lat="52.143364" lon="4.496092">
        <ele>3000.0</ele>
        <time>2020-09-21T11:17:28Z</time>
      </trkpt>
      <trkpt lat="52.14334" lon="4.496033">
        <ele>3000.0</ele>
        <time>2020-09-21T11:17:29Z</time>
      </trkpt>
      <trkpt lat="52.14331" lon="4.4959745">
        <ele>3000.0</ele>
        <time>2020-09-21T11:17:30Z</time>
      </trkpt>
      <trkpt lat="52.143276" lon="4.495914">
        <ele>3000.0</ele>
        <time>2020-09-21T11:17:31Z</time>
      </trkpt>
      <trkpt lat="52.143253" lon="4.4958596">
        <ele>3000.0</ele>
        <time>2020-09-21T11:17:32Z</time>
      </trkpt>
      <trkpt lat="52.143227" lon="4.495805">
        <ele>3000.0</ele>
        <time>2020-09-21T11:17:33Z</time>
      </trkpt>
      <trkpt lat="52.143196" lon="4.495746">
        <ele>3000.0</ele>
        <time>2020-09-21T11:17:34Z</time>
      </trkpt>
      <trkpt lat="52.14317" lon="4.495689">
        <ele>3000.0</ele>
        <time>2020-09-21T11:17:35Z</time>
      </trkpt>
      <trkpt lat="52.14315" lon="4.495632">
        <ele>3000.0</ele>
        <time>2020-09-21T11:17:36Z</time>
      </trkpt>
      <trkpt lat="52.143124" lon="4.4955807">
        <ele>3000.0</ele>
        <time>2020-09-21T11:17:37Z</time>
      </trkpt>
      <trkpt lat="52.14311" lon="4.4955273">
        <ele>3000.0</ele>
        <time>2020-09-21T11:17:38Z</time>
      </trkpt>
      <trkpt lat="52.14309" lon="4.4954677">
        <ele>3000.0</ele>
        <time>2020-09-21T11:17:39Z</time>
      </trkpt>
      <trkpt lat="52.143074" lon="4.4954076">
        <ele>3000.0</ele>
        <time>2020-09-21T11:17:40Z</time>
      </trkpt>
      <trkpt lat="52.14306" lon="4.495349">
        <ele>3000.0</ele>
        <time>2020-09-21T11:17:41Z</time>
      </trkpt>
      <trkpt lat="52.143044" lon="4.4952955">
        <ele>3000.0</ele>
        <time>2020-09-21T11:17:43Z</time>
      </trkpt>
      <trkpt lat="52.14303" lon="4.495245">
        <ele>3000.0</ele>
        <time>2020-09-21T11:17:43Z</time>
      </trkpt>
      <trkpt lat="52.143005" lon="4.4952016">
        <ele>3000.0</ele>
        <time>2020-09-21T11:17:44Z</time>
      </trkpt>
      <trkpt lat="52.142982" lon="4.495171">
        <ele>3000.0</ele>
        <time>2020-09-21T11:17:45Z</time>
      </trkpt>
      <trkpt lat="52.142952" lon="4.495157">
        <ele>3000.0</ele>
        <time>2020-09-21T11:17:46Z</time>
      </trkpt>
      <trkpt lat="52.14292" lon="4.4951563">
        <ele>3000.0</ele>
        <time>2020-09-21T11:17:47Z</time>
      </trkpt>
      <trkpt lat="52.142887" lon="4.4951663">
        <ele>3000.0</ele>
        <time>2020-09-21T11:17:48Z</time>
      </trkpt>
      <trkpt lat="52.142853" lon="4.49518">
        <ele>3000.0</ele>
        <time>2020-09-21T11:17:49Z</time>
      </trkpt>
      <trkpt lat="52.14281" lon="4.4951982">
        <ele>3000.0</ele>
        <time>2020-09-21T11:17:50Z</time>
      </trkpt>
      <trkpt lat="52.142773" lon="4.495218">
        <ele>3000.0</ele>
        <time>2020-09-21T11:17:51Z</time>
      </trkpt>
      <trkpt lat="52.142735" lon="4.495233">
        <ele>3000.0</ele>
        <time>2020-09-21T11:17:53Z</time>
      </trkpt>
      <trkpt lat="52.14269" lon="4.4952455">
        <ele>3000.0</ele>
        <time>2020-09-21T11:17:53Z</time>
      </trkpt>
      <trkpt lat="52.142643" lon="4.495257">
        <ele>3000.0</ele>
        <time>2020-09-21T11:17:54Z</time>
      </trkpt>
      <trkpt lat="52.1426" lon="4.4952674">
        <ele>3000.0</ele>
        <time>2020-09-21T11:17:55Z</time>
      </trkpt>
      <trkpt lat="52.142563" lon="4.495275">
        <ele>3000.0</ele>
        <time>2020-09-21T11:17:56Z</time>
      </trkpt>
      <trkpt lat="52.14252" lon="4.495282">
        <ele>3000.0</ele>
        <time>2020-09-21T11:17:56Z</time>
      </trkpt>
      <trkpt lat="52.14248" lon="4.4952908">
        <ele>3000.0</ele>
        <time>2020-09-21T11:17:57Z</time>
      </trkpt>
      <trkpt lat="52.142445" lon="4.495302">
        <ele>3000.0</ele>
        <time>2020-09-21T11:17:58Z</time>
      </trkpt>
      <trkpt lat="52.142406" lon="4.495314">
        <ele>3000.0</ele>
        <time>2020-09-21T11:17:59Z</time>
      </trkpt>
      <trkpt lat="52.142372" lon="4.4953237">
        <ele>3000.0</ele>
        <time>2020-09-21T11:18:00Z</time>
      </trkpt>
      <trkpt lat="52.14233" lon="4.4953337">
        <ele>3000.0</ele>
        <time>2020-09-21T11:18:01Z</time>
      </trkpt>
      <trkpt lat="52.14229" lon="4.4953456">
        <ele>3000.0</ele>
        <time>2020-09-21T11:18:03Z</time>
      </trkpt>
      <trkpt lat="52.14225" lon="4.49536">
        <ele>3000.0</ele>
        <time>2020-09-21T11:18:03Z</time>
      </trkpt>
      <trkpt lat="52.14221" lon="4.4953756">
        <ele>3000.0</ele>
        <time>2020-09-21T11:18:04Z</time>
      </trkpt>
      <trkpt lat="52.142166" lon="4.4953938">
        <ele>3000.0</ele>
        <time>2020-09-21T11:18:05Z</time>
      </trkpt>
      <trkpt lat="52.14213" lon="4.4954123">
        <ele>3000.0</ele>
        <time>2020-09-21T11:18:06Z</time>
      </trkpt>
      <trkpt lat="52.142094" lon="4.495433">
        <ele>3000.0</ele>
        <time>2020-09-21T11:18:07Z</time>
      </trkpt>
      <trkpt lat="52.142056" lon="4.4954576">
        <ele>3000.0</ele>
        <time>2020-09-21T11:18:08Z</time>
      </trkpt>
      <trkpt lat="52.142014" lon="4.4954853">
        <ele>3000.0</ele>
        <time>2020-09-21T11:18:09Z</time>
      </trkpt>
      <trkpt lat="52.14198" lon="4.495511">
        <ele>3000.0</ele>
        <time>2020-09-21T11:18:10Z</time>
      </trkpt>
      <trkpt lat="52.141937" lon="4.4955373">
        <ele>3000.0</ele>
        <time>2020-09-21T11:18:11Z</time>
      </trkpt>
      <trkpt lat="52.141895" lon="4.495563">
        <ele>3000.0</ele>
        <time>2020-09-21T11:18:13Z</time>
      </trkpt>
      <trkpt lat="52.14186" lon="4.495589">
        <ele>3000.0</ele>
        <time>2020-09-21T11:18:13Z</time>
      </trkpt>
      <trkpt lat="52.141823" lon="4.495612">
        <ele>3000.0</ele>
        <time>2020-09-21T11:18:14Z</time>
      </trkpt>
      <trkpt lat="52.14179" lon="4.495636">
        <ele>3000.0</ele>
        <time>2020-09-21T11:18:15Z</time>
      </trkpt>
      <trkpt lat="52.141747" lon="4.4956613">
        <ele>3000.0</ele>
        <time>2020-09-21T11:18:16Z</time>
      </trkpt>
      <trkpt lat="52.141712" lon="4.4956894">
        <ele>3000.0</ele>
        <time>2020-09-21T11:18:17Z</time>
      </trkpt>
      <trkpt lat="52.141674" lon="4.495719">
        <ele>3000.0</ele>
        <time>2020-09-21T11:18:18Z</time>
      </trkpt>
      <trkpt lat="52.14164" lon="4.495748">
        <ele>3000.0</ele>
        <time>2020-09-21T11:18:19Z</time>
      </trkpt>
      <trkpt lat="52.141605" lon="4.495776">
        <ele>2900.0</ele>
        <time>2020-09-21T11:18:21Z</time>
      </trkpt>
      <trkpt lat="52.141567" lon="4.4958024">
        <ele>2900.0</ele>
        <time>2020-09-21T11:18:21Z</time>
      </trkpt>
      <trkpt lat="52.141537" lon="4.495829">
        <ele>2900.0</ele>
        <time>2020-09-21T11:18:22Z</time>
      </trkpt>
      <trkpt lat="52.141495" lon="4.4958544">
        <ele>2900.0</ele>
        <time>2020-09-21T11:18:23Z</time>
      </trkpt>
      <trkpt lat="52.141464" lon="4.4958725">
        <ele>2900.0</ele>
        <time>2020-09-21T11:18:24Z</time>
      </trkpt>
      <trkpt lat="52.14143" lon="4.495888">
        <ele>2900.0</ele>
        <time>2020-09-21T11:18:25Z</time>
      </trkpt>
      <trkpt lat="52.1414" lon="4.4959044">
        <ele>2900.0</ele>
        <time>2020-09-21T11:18:26Z</time>
      </trkpt>
      <trkpt lat="52.14137" lon="4.4959216">
        <ele>2900.0</ele>
        <time>2020-09-21T11:18:27Z</time>
      </trkpt>
      <trkpt lat="52.14133" lon="4.4959383">
        <ele>2900.0</ele>
        <time>2020-09-21T11:18:28Z</time>
      </trkpt>
      <trkpt lat="52.1413" lon="4.495955">
        <ele>2900.0</ele>
        <time>2020-09-21T11:18:29Z</time>
      </trkpt>
      <trkpt lat="52.14127" lon="4.4959707">
        <ele>2900.0</ele>
        <time>2020-09-21T11:18:31Z</time>
      </trkpt>
      <trkpt lat="52.14124" lon="4.495987">
        <ele>2900.0</ele>
        <time>2020-09-21T11:18:31Z</time>
      </trkpt>
      <trkpt lat="52.14121" lon="4.4960036">
        <ele>2900.0</ele>
        <time>2020-09-21T11:18:32Z</time>
      </trkpt>
      <trkpt lat="52.14118" lon="4.4960284">
        <ele>2900.0</ele>
        <time>2020-09-21T11:18:33Z</time>
      </trkpt>
      <trkpt lat="52.141148" lon="4.4960556">
        <ele>2900.0</ele>
        <time>2020-09-21T11:18:34Z</time>
      </trkpt>
      <trkpt lat="52.141117" lon="4.496086">
        <ele>2900.0</ele>
        <time>2020-09-21T11:18:35Z</time>
      </trkpt>
      <trkpt lat="52.141087" lon="4.4961147">
        <ele>2900.0</ele>
        <time>2020-09-21T11:18:36Z</time>
      </trkpt>
      <trkpt lat="52.141056" lon="4.4961424">
        <ele>2900.0</ele>
        <time>2020-09-21T11:18:37Z</time>
      </trkpt>
      <trkpt lat="52.141026" lon="4.496169">
        <ele>2900.0</ele>
        <time>2020-09-21T11:18:38Z</time>
      </trkpt>
      <trkpt lat="52.140995" lon="4.4961915">
        <ele>2900.0</ele>
        <time>2020-09-21T11:18:39Z</time>
      </trkpt>
      <trkpt lat="52.140965" lon="4.4962134">
        <ele>2900.0</ele>
        <time>2020-09-21T11:18:41Z</time>
      </trkpt>
      <trkpt lat="52.140934" lon="4.4962354">
        <ele>2900.0</ele>
        <time>2020-09-21T11:18:41Z</time>
      </trkpt>
      <trkpt lat="52.140907" lon="4.496255">
        <ele>2900.0</ele>
        <time>2020-09-21T11:18:42Z</time>
      </trkpt>
      <trkpt lat="52.140877" lon="4.4962726">
        <ele>2900.0</ele>
        <time>2020-09-21T11:18:43Z</time>
      </trkpt>
      <trkpt lat="52.140846" lon="4.496287">
        <ele>2900.0</ele>
        <time>2020-09-21T11:18:44Z</time>
      </trkpt>
      <trkpt lat="52.14082" lon="4.4963036">
        <ele>2900.0</ele>
        <time>2020-09-21T11:18:45Z</time>
      </trkpt>
      <trkpt lat="52.140797" lon="4.496323">
        <ele>2900.0</ele>
        <time>2020-09-21T11:18:46Z</time>
      </trkpt>
      <trkpt lat="52.14077" lon="4.496345">
        <ele>2900.0</ele>
        <time>2020-09-21T11:18:47Z</time>
      </trkpt>
      <trkpt lat="52.14074" lon="4.496366">
        <ele>2900.0</ele>
        <time>2020-09-21T11:18:48Z</time>
      </trkpt>
      <trkpt lat="52.14071" lon="4.496387">
        <ele>2900.0</ele>
        <time>2020-09-21T11:18:49Z</time>
      </trkpt>
      <trkpt lat="52.140682" lon="4.496405">
        <ele>2900.0</ele>
        <time>2020-09-21T11:18:50Z</time>
      </trkpt>
      <trkpt lat="52.14065" lon="4.4964213">
        <ele>2900.0</ele>
        <time>2020-09-21T11:18:52Z</time>
      </trkpt>
      <trkpt lat="52.14062" lon="4.4964356">
        <ele>2900.0</ele>
        <time>2020-09-21T11:18:52Z</time>
      </trkpt>
      <trkpt lat="52.140587" lon="4.4964495">
        <ele>2900.0</ele>
        <time>2020-09-21T11:18:53Z</time>
      </trkpt>
      <trkpt lat="52.140553" lon="4.4964657">
        <ele>2900.0</ele>
        <time>2020-09-21T11:18:54Z</time>
      </trkpt>
      <trkpt lat="52.14052" lon="4.4964824">
        <ele>2900.0</ele>
        <time>2020-09-21T11:18:55Z</time>
      </trkpt>
      <trkpt lat="52.140488" lon="4.496502">
        <ele>2900.0</ele>
        <time>2020-09-21T11:18:56Z</time>
      </trkpt>
      <trkpt lat="52.140453" lon="4.4965234">
        <ele>2900.0</ele>
        <time>2020-09-21T11:18:57Z</time>
      </trkpt>
      <trkpt lat="52.140423" lon="4.496545">
        <ele>2900.0</ele>
        <time>2020-09-21T11:18:58Z</time>
      </trkpt>
      <trkpt lat="52.140392" lon="4.4965663">
        <ele>2900.0</ele>
        <time>2020-09-21T11:18:59Z</time>
      </trkpt>
      <trkpt lat="52.140358" lon="4.4965887">
        <ele>2900.0</ele>
        <time>2020-09-21T11:19:00Z</time>
      </trkpt>
      <trkpt lat="52.140327" lon="4.496615">
        <ele>2900.0</ele>
        <time>2020-09-21T11:19:01Z</time>
      </trkpt>
      <trkpt lat="52.140297" lon="4.4966435">
        <ele>2900.0</ele>
        <time>2020-09-21T11:19:02Z</time>
      </trkpt>
      <trkpt lat="52.140266" lon="4.496674">
        <ele>2900.0</ele>
        <time>2020-09-21T11:19:03Z</time>
      </trkpt>
      <trkpt lat="52.140244" lon="4.4967084">
        <ele>2900.0</ele>
        <time>2020-09-21T11:19:04Z</time>
      </trkpt>
      <trkpt lat="52.140213" lon="4.4967422">
        <ele>2900.0</ele>
        <time>2020-09-21T11:19:05Z</time>
      </trkpt>
      <trkpt lat="52.14018" lon="4.4967732">
        <ele>2900.0</ele>
        <time>2020-09-21T11:19:06Z</time>
      </trkpt>
      <trkpt lat="52.14015" lon="4.4968023">
        <ele>2900.0</ele>
        <time>2020-09-21T11:19:07Z</time>
      </trkpt>
      <trkpt lat="52.140118" lon="4.49683">
        <ele>2900.0</ele>
        <time>2020-09-21T11:19:08Z</time>
      </trkpt>
      <trkpt lat="52.140087" lon="4.4968586">
        <ele>2900.0</ele>
        <time>2020-09-21T11:19:09Z</time>
      </trkpt>
      <trkpt lat="52.140053" lon="4.4968896">
        <ele>2900.0</ele>
        <time>2020-09-21T11:19:10Z</time>
      </trkpt>
      <trkpt lat="52.140022" lon="4.496922">
        <ele>2900.0</ele>
        <time>2020-09-21T11:19:11Z</time>
      </trkpt>
      <trkpt lat="52.13999" lon="4.4969554">
        <ele>2900.0</ele>
        <time>2020-09-21T11:19:12Z</time>
      </trkpt>
      <trkpt lat="52.13996" lon="4.496988">
        <ele>2900.0</ele>
        <time>2020-09-21T11:19:13Z</time>
      </trkpt>
      <trkpt lat="52.13993" lon="4.497019">
        <ele>2900.0</ele>
        <time>2020-09-21T11:19:14Z</time>
      </trkpt>
      <trkpt lat="52.1399" lon="4.497051">
        <ele>2900.0</ele>
        <time>2020-09-21T11:19:15Z</time>
      </trkpt>
      <trkpt lat="52.13987" lon="4.4970794">
        <ele>2900.0</ele>
        <time>2020-09-21T11:19:16Z</time>
      </trkpt>
      <trkpt lat="52.13984" lon="4.4971075">
        <ele>2900.0</ele>
        <time>2020-09-21T11:19:17Z</time>
      </trkpt>
      <trkpt lat="52.1398" lon="4.497136">
        <ele>2900.0</ele>
        <time>2020-09-21T11:19:18Z</time>
      </trkpt>
      <trkpt lat="52.13977" lon="4.4971657">
        <ele>2900.0</ele>
        <time>2020-09-21T11:19:19Z</time>
      </trkpt>
      <trkpt lat="52.139736" lon="4.4971957">
        <ele>2900.0</ele>
        <time>2020-09-21T11:19:20Z</time>
      </trkpt>
      <trkpt lat="52.139706" lon="4.4972277">
        <ele>2900.0</ele>
        <time>2020-09-21T11:19:21Z</time>
      </trkpt>
      <trkpt lat="52.139675" lon="4.4972615">
        <ele>2900.0</ele>
        <time>2020-09-21T11:19:22Z</time>
      </trkpt>
      <trkpt lat="52.139645" lon="4.497298">
        <ele>2900.0</ele>
        <time>2020-09-21T11:19:23Z</time>
      </trkpt>
      <trkpt lat="52.13961" lon="4.497333">
        <ele>2900.0</ele>
        <time>2020-09-21T11:19:24Z</time>
      </trkpt>
      <trkpt lat="52.13958" lon="4.4973674">
        <ele>2900.0</ele>
        <time>2020-09-21T11:19:25Z</time>
      </trkpt>
      <trkpt lat="52.139545" lon="4.4974017">
        <ele>2900.0</ele>
        <time>2020-09-21T11:19:26Z</time>
      </trkpt>
      <trkpt lat="52.139515" lon="4.497433">
        <ele>2900.0</ele>
        <time>2020-09-21T11:19:27Z</time>
      </trkpt>
      <trkpt lat="52.13948" lon="4.4974613">
        <ele>2900.0</ele>
        <time>2020-09-21T11:19:28Z</time>
      </trkpt>
      <trkpt lat="52.139442" lon="4.4974875">
        <ele>2900.0</ele>
        <time>2020-09-21T11:19:29Z</time>
      </trkpt>
      <trkpt lat="52.13941" lon="4.497511">
        <ele>2900.0</ele>
        <time>2020-09-21T11:19:30Z</time>
      </trkpt>
      <trkpt lat="52.13937" lon="4.4975324">
        <ele>2900.0</ele>
        <time>2020-09-21T11:19:31Z</time>
      </trkpt>
      <trkpt lat="52.13933" lon="4.4975486">
        <ele>2900.0</ele>
        <time>2020-09-21T11:19:32Z</time>
      </trkpt>
      <trkpt lat="52.139294" lon="4.497565">
        <ele>2900.0</ele>
        <time>2020-09-21T11:19:34Z</time>
      </trkpt>
      <trkpt lat="52.13926" lon="4.497584">
        <ele>2900.0</ele>
        <time>2020-09-21T11:19:34Z</time>
      </trkpt>
      <trkpt lat="52.13922" lon="4.497609">
        <ele>2900.0</ele>
        <time>2020-09-21T11:19:35Z</time>
      </trkpt>
      <trkpt lat="52.139183" lon="4.49764">
        <ele>2900.0</ele>
        <time>2020-09-21T11:19:36Z</time>
      </trkpt>
      <trkpt lat="52.139145" lon="4.4976773">
        <ele>2900.0</ele>
        <time>2020-09-21T11:19:37Z</time>
      </trkpt>
      <trkpt lat="52.13911" lon="4.49772">
        <ele>2800.0</ele>
        <time>2020-09-21T11:19:38Z</time>
      </trkpt>
      <trkpt lat="52.139076" lon="4.4977655">
        <ele>2800.0</ele>
        <time>2020-09-21T11:19:39Z</time>
      </trkpt>
      <trkpt lat="52.139038" lon="4.4978166">
        <ele>2800.0</ele>
        <time>2020-09-21T11:19:40Z</time>
      </trkpt>
      <trkpt lat="52.139004" lon="4.4978695">
        <ele>2800.0</ele>
        <time>2020-09-21T11:19:41Z</time>
      </trkpt>
      <trkpt lat="52.138973" lon="4.497924">
        <ele>2800.0</ele>
        <time>2020-09-21T11:19:42Z</time>
      </trkpt>
      <trkpt lat="52.138943" lon="4.497978">
        <ele>2800.0</ele>
        <time>2020-09-21T11:19:43Z</time>
      </trkpt>
      <trkpt lat="52.138916" lon="4.4980326">
        <ele>2800.0</ele>
        <time>2020-09-21T11:19:44Z</time>
      </trkpt>
      <trkpt lat="52.138885" lon="4.498086">
        <ele>2800.0</ele>
        <time>2020-09-21T11:19:45Z</time>
      </trkpt>
      <trkpt lat="52.138855" lon="4.498135">
        <ele>2800.0</ele>
        <time>2020-09-21T11:19:46Z</time>
      </trkpt>
      <trkpt lat="52.138817" lon="4.4981804">
        <ele>2800.0</ele>
        <time>2020-09-21T11:19:47Z</time>
      </trkpt>
      <trkpt lat="52.138783" lon="4.498221">
        <ele>2800.0</ele>
        <time>2020-09-21T11:19:48Z</time>
      </trkpt>
      <trkpt lat="52.138752" lon="4.498263">
        <ele>2800.0</ele>
        <time>2020-09-21T11:19:49Z</time>
      </trkpt>
      <trkpt lat="52.138718" lon="4.498302">
        <ele>2800.0</ele>
        <time>2020-09-21T11:19:50Z</time>
      </trkpt>
      <trkpt lat="52.138687" lon="4.4983377">
        <ele>2800.0</ele>
        <time>2020-09-21T11:19:51Z</time>
      </trkpt>
      <trkpt lat="52.138657" lon="4.4983706">
        <ele>2800.0</ele>
        <time>2020-09-21T11:19:52Z</time>
      </trkpt>
      <trkpt lat="52.138622" lon="4.4983997">
        <ele>2800.0</ele>
        <time>2020-09-21T11:19:54Z</time>
      </trkpt>
      <trkpt lat="52.138588" lon="4.4984303">
        <ele>2800.0</ele>
        <time>2020-09-21T11:19:54Z</time>
      </trkpt>
      <trkpt lat="52.13856" lon="4.4984636">
        <ele>2800.0</ele>
        <time>2020-09-21T11:19:55Z</time>
      </trkpt>
      <trkpt lat="52.138527" lon="4.4985013">
        <ele>2800.0</ele>
        <time>2020-09-21T11:19:56Z</time>
      </trkpt>
      <trkpt lat="52.1385" lon="4.498539">
        <ele>2800.0</ele>
        <time>2020-09-21T11:19:57Z</time>
      </trkpt>
      <trkpt lat="52.13847" lon="4.498579">
        <ele>2800.0</ele>
        <time>2020-09-21T11:19:58Z</time>
      </trkpt>
      <trkpt lat="52.138443" lon="4.498621">
        <ele>2800.0</ele>
        <time>2020-09-21T11:19:59Z</time>
      </trkpt>
      <trkpt lat="52.138412" lon="4.498667">
        <ele>2800.0</ele>
        <time>2020-09-21T11:20:00Z</time>
      </trkpt>
      <trkpt lat="52.13839" lon="4.4987063">
        <ele>2800.0</ele>
        <time>2020-09-21T11:20:01Z</time>
      </trkpt>
      <trkpt lat="52.138363" lon="4.4987464">
        <ele>2800.0</ele>
        <time>2020-09-21T11:20:02Z</time>
      </trkpt>
      <trkpt lat="52.138336" lon="4.4987874">
        <ele>2800.0</ele>
        <time>2020-09-21T11:20:04Z</time>
      </trkpt>
      <trkpt lat="52.138317" lon="4.4988265">
        <ele>2800.0</ele>
        <time>2020-09-21T11:20:04Z</time>
      </trkpt>
      <trkpt lat="52.13829" lon="4.498864">
        <ele>2800.0</ele>
        <time>2020-09-21T11:20:05Z</time>
      </trkpt>
      <trkpt lat="52.13827" lon="4.4988976">
        <ele>2800.0</ele>
        <time>2020-09-21T11:20:06Z</time>
      </trkpt>
      <trkpt lat="52.13825" lon="4.4989276">
        <ele>2800.0</ele>
        <time>2020-09-21T11:20:07Z</time>
      </trkpt>
      <trkpt lat="52.13823" lon="4.498954">
        <ele>2800.0</ele>
        <time>2020-09-21T11:20:08Z</time>
      </trkpt>
      <trkpt lat="52.138203" lon="4.4989777">
        <ele>2800.0</ele>
        <time>2020-09-21T11:20:09Z</time>
      </trkpt>
      <trkpt lat="52.138184" lon="4.4989963">
        <ele>2800.0</ele>
        <time>2020-09-21T11:20:10Z</time>
      </trkpt>
      <trkpt lat="52.138165" lon="4.4990087">
        <ele>2800.0</ele>
        <time>2020-09-21T11:20:11Z</time>
      </trkpt>
      <trkpt lat="52.13814" lon="4.4990187">
        <ele>2800.0</ele>
        <time>2020-09-21T11:20:12Z</time>
      </trkpt>
      <trkpt lat="52.13812" lon="4.4990306">
        <ele>2800.0</ele>
        <time>2020-09-21T11:20:13Z</time>
      </trkpt>
      <trkpt lat="52.138096" lon="4.4990444">
        <ele>2800.0</ele>
        <time>2020-09-21T11:20:14Z</time>
      </trkpt>
      <trkpt lat="52.138077" lon="4.499058">
        <ele>2800.0</ele>
        <time>2020-09-21T11:20:15Z</time>
      </trkpt>
      <trkpt lat="52.138054" lon="4.4990706">
        <ele>2800.0</ele>
        <time>2020-09-21T11:20:16Z</time>
      </trkpt>
      <trkpt lat="52.138035" lon="4.4990807">
        <ele>2800.0</ele>
        <time>2020-09-21T11:20:17Z</time>
      </trkpt>
      <trkpt lat="52.138016" lon="4.499088">
        <ele>2800.0</ele>
        <time>2020-09-21T11:20:18Z</time>
      </trkpt>
      <trkpt lat="52.13799" lon="4.4990964">
        <ele>2800.0</ele>
        <time>2020-09-21T11:20:19Z</time>
      </trkpt>
      <trkpt lat="52.13797" lon="4.4991074">
        <ele>2800.0</ele>
        <time>2020-09-21T11:20:20Z</time>
      </trkpt>
      <trkpt lat="52.137947" lon="4.499118">
        <ele>2800.0</ele>
        <time>2020-09-21T11:20:21Z</time>
      </trkpt>
      <trkpt lat="52.13793" lon="4.499127">
        <ele>2800.0</ele>
        <time>2020-09-21T11:20:22Z</time>
      </trkpt>
      <trkpt lat="52.137913" lon="4.4991355">
        <ele>2800.0</ele>
        <time>2020-09-21T11:20:23Z</time>
      </trkpt>
      <trkpt lat="52.137894" lon="4.499143">
        <ele>2800.0</ele>
        <time>2020-09-21T11:20:24Z</time>
      </trkpt>
      <trkpt lat="52.13787" lon="4.499149">
        <ele>2800.0</ele>
        <time>2020-09-21T11:20:25Z</time>
      </trkpt>
      <trkpt lat="52.137844" lon="4.4991493">
        <ele>2800.0</ele>
        <time>2020-09-21T11:20:26Z</time>
      </trkpt>
      <trkpt lat="52.137825" lon="4.499151">
        <ele>2800.0</ele>
        <time>2020-09-21T11:20:27Z</time>
      </trkpt>
      <trkpt lat="52.1378" lon="4.4991546">
        <ele>2800.0</ele>
        <time>2020-09-21T11:20:28Z</time>
      </trkpt>
      <trkpt lat="52.13778" lon="4.499159">
        <ele>2800.0</ele>
        <time>2020-09-21T11:20:29Z</time>
      </trkpt>
      <trkpt lat="52.137753" lon="4.4991646">
        <ele>2800.0</ele>
        <time>2020-09-21T11:20:30Z</time>
      </trkpt>
      <trkpt lat="52.137733" lon="4.4991717">
        <ele>2800.0</ele>
        <time>2020-09-21T11:20:32Z</time>
      </trkpt>
      <trkpt lat="52.137707" lon="4.4991803">
        <ele>2800.0</ele>
        <time>2020-09-21T11:20:32Z</time>
      </trkpt>
      <trkpt lat="52.13768" lon="4.49919">
        <ele>2800.0</ele>
        <time>2020-09-21T11:20:33Z</time>
      </trkpt>
      <trkpt lat="52.137657" lon="4.499199">
        <ele>2800.0</ele>
        <time>2020-09-21T11:20:34Z</time>
      </trkpt>
      <trkpt lat="52.13763" lon="4.4992046">
        <ele>2800.0</ele>
        <time>2020-09-21T11:20:35Z</time>
      </trkpt>
      <trkpt lat="52.137604" lon="4.499213">
        <ele>2800.0</ele>
        <time>2020-09-21T11:20:36Z</time>
      </trkpt>
      <trkpt lat="52.137585" lon="4.4992266">
        <ele>2800.0</ele>
        <time>2020-09-21T11:20:37Z</time>
      </trkpt>
      <trkpt lat="52.137566" lon="4.49924">
        <ele>2800.0</ele>
        <time>2020-09-21T11:20:38Z</time>
      </trkpt>
      <trkpt lat="52.137543" lon="4.499259">
        <ele>2800.0</ele>
        <time>2020-09-21T11:20:39Z</time>
      </trkpt>
      <trkpt lat="52.137527" lon="4.4992805">
        <ele>2800.0</ele>
        <time>2020-09-21T11:20:40Z</time>
      </trkpt>
      <trkpt lat="52.137524" lon="4.499304">
        <ele>2800.0</ele>
        <time>2020-09-21T11:20:41Z</time>
      </trkpt>
      <trkpt lat="52.13752" lon="4.499329">
        <ele>2800.0</ele>
        <time>2020-09-21T11:20:42Z</time>
      </trkpt>
      <trkpt lat="52.137512" lon="4.499358">
        <ele>2800.0</ele>
        <time>2020-09-21T11:20:43Z</time>
      </trkpt>
      <trkpt lat="52.13752" lon="4.4993896">
        <ele>2800.0</ele>
        <time>2020-09-21T11:20:44Z</time>
      </trkpt>
      <trkpt lat="52.137524" lon="4.4994235">
        <ele>2800.0</ele>
        <time>2020-09-21T11:20:45Z</time>
      </trkpt>
      <trkpt lat="52.137527" lon="4.4994574">
        <ele>2800.0</ele>
        <time>2020-09-21T11:20:46Z</time>
      </trkpt>
      <trkpt lat="52.137535" lon="4.4994965">
        <ele>2800.0</ele>
        <time>2020-09-21T11:20:47Z</time>
      </trkpt>
      <trkpt lat="52.137543" lon="4.499537">
        <ele>2800.0</ele>
        <time>2020-09-21T11:20:48Z</time>
      </trkpt>
      <trkpt lat="52.13755" lon="4.499577">
        <ele>2800.0</ele>
        <time>2020-09-21T11:20:49Z</time>
      </trkpt>
      <trkpt lat="52.137554" lon="4.4996185">
        <ele>2800.0</ele>
        <time>2020-09-21T11:20:50Z</time>
      </trkpt>
      <trkpt lat="52.137558" lon="4.499663">
        <ele>2800.0</ele>
        <time>2020-09-21T11:20:51Z</time>
      </trkpt>
      <trkpt lat="52.13757" lon="4.499707">
        <ele>2800.0</ele>
        <time>2020-09-21T11:20:53Z</time>
      </trkpt>
      <trkpt lat="52.137573" lon="4.4997525">
        <ele>2800.0</ele>
        <time>2020-09-21T11:20:53Z</time>
      </trkpt>
      <trkpt lat="52.137585" lon="4.499793">
        <ele>2800.0</ele>
        <time>2020-09-21T11:20:54Z</time>
      </trkpt>
      <trkpt lat="52.13759" lon="4.499835">
        <ele>2800.0</ele>
        <time>2020-09-21T11:20:55Z</time>
      </trkpt>
      <trkpt lat="52.1376" lon="4.499879">
        <ele>2800.0</ele>
        <time>2020-09-21T11:20:56Z</time>
      </trkpt>
      <trkpt lat="52.13761" lon="4.4999275">
        <ele>2800.0</ele>
        <time>2020-09-21T11:20:57Z</time>
      </trkpt>
      <trkpt lat="52.13762" lon="4.499977">
        <ele>2800.0</ele>
        <time>2020-09-21T11:20:58Z</time>
      </trkpt>
      <trkpt lat="52.13763" lon="4.500027">
        <ele>2800.0</ele>
        <time>2020-09-21T11:20:59Z</time>
      </trkpt>
      <trkpt lat="52.13764" lon="4.500076">
        <ele>2800.0</ele>
        <time>2020-09-21T11:21:00Z</time>
      </trkpt>
      <trkpt lat="52.13765" lon="4.50012">
        <ele>2800.0</ele>
        <time>2020-09-21T11:21:01Z</time>
      </trkpt>
      <trkpt lat="52.137657" lon="4.5001574">
        <ele>2800.0</ele>
        <time>2020-09-21T11:21:02Z</time>
      </trkpt>
      <trkpt lat="52.137665" lon="4.5001903">
        <ele>2800.0</ele>
        <time>2020-09-21T11:21:03Z</time>
      </trkpt>
      <trkpt lat="52.137676" lon="4.500222">
        <ele>2800.0</ele>
        <time>2020-09-21T11:21:04Z</time>
      </trkpt>
      <trkpt lat="52.137688" lon="4.500255">
        <ele>2800.0</ele>
        <time>2020-09-21T11:21:05Z</time>
      </trkpt>
      <trkpt lat="52.1377" lon="4.5002894">
        <ele>2800.0</ele>
        <time>2020-09-21T11:21:06Z</time>
      </trkpt>
      <trkpt lat="52.137707" lon="4.5003242">
        <ele>2800.0</ele>
        <time>2020-09-21T11:21:07Z</time>
      </trkpt>
      <trkpt lat="52.13772" lon="4.5003567">
        <ele>2800.0</ele>
        <time>2020-09-21T11:21:08Z</time>
      </trkpt>
      <trkpt lat="52.13773" lon="4.5003905">
        <ele>2800.0</ele>
        <time>2020-09-21T11:21:09Z</time>
      </trkpt>
      <trkpt lat="52.137737" lon="4.5004263">
        <ele>2800.0</ele>
        <time>2020-09-21T11:21:10Z</time>
      </trkpt>
      <trkpt lat="52.13775" lon="4.5004654">
        <ele>2800.0</ele>
        <time>2020-09-21T11:21:11Z</time>
      </trkpt>
      <trkpt lat="52.137753" lon="4.500503">
        <ele>2800.0</ele>
        <time>2020-09-21T11:21:12Z</time>
      </trkpt>
      <trkpt lat="52.13776" lon="4.5005403">
        <ele>2800.0</ele>
        <time>2020-09-21T11:21:14Z</time>
      </trkpt>
      <trkpt lat="52.137764" lon="4.500575">
        <ele>2800.0</ele>
        <time>2020-09-21T11:21:14Z</time>
      </trkpt>
      <trkpt lat="52.137764" lon="4.500612">
        <ele>2800.0</ele>
        <time>2020-09-21T11:21:15Z</time>
      </trkpt>
      <trkpt lat="52.137764" lon="4.500648">
        <ele>2800.0</ele>
        <time>2020-09-21T11:21:16Z</time>
      </trkpt>
      <trkpt lat="52.137753" lon="4.5006833">
        <ele>2800.0</ele>
        <time>2020-09-21T11:21:17Z</time>
      </trkpt>
      <trkpt lat="52.137745" lon="4.5007157">
        <ele>2800.0</ele>
        <time>2020-09-21T11:21:18Z</time>
      </trkpt>
      <trkpt lat="52.13773" lon="4.5007467">
        <ele>2800.0</ele>
        <time>2020-09-21T11:21:19Z</time>
      </trkpt>
      <trkpt lat="52.137714" lon="4.500776">
        <ele>2800.0</ele>
        <time>2020-09-21T11:21:21Z</time>
      </trkpt>
      <trkpt lat="52.1377" lon="4.5008035">
        <ele>2800.0</ele>
        <time>2020-09-21T11:21:21Z</time>
      </trkpt>
      <trkpt lat="52.137676" lon="4.500823">
        <ele>2800.0</ele>
        <time>2020-09-21T11:21:22Z</time>
      </trkpt>
      <trkpt lat="52.137657" lon="4.500833">
        <ele>2800.0</ele>
        <time>2020-09-21T11:21:23Z</time>
      </trkpt>
      <trkpt lat="52.13763" lon="4.5008364">
        <ele>2800.0</ele>
        <time>2020-09-21T11:21:24Z</time>
      </trkpt>
      <trkpt lat="52.13761" lon="4.50083">
        <ele>2800.0</ele>
        <time>2020-09-21T11:21:25Z</time>
      </trkpt>
      <trkpt lat="52.137585" lon="4.5008125">
        <ele>2800.0</ele>
        <time>2020-09-21T11:21:26Z</time>
      </trkpt>
      <trkpt lat="52.137566" lon="4.5007834">
        <ele>2800.0</ele>
        <time>2020-09-21T11:21:27Z</time>
      </trkpt>
      <trkpt lat="52.137543" lon="4.5007486">
        <ele>2800.0</ele>
        <time>2020-09-21T11:21:28Z</time>
      </trkpt>
      <trkpt lat="52.137527" lon="4.500715">
        <ele>2800.0</ele>
        <time>2020-09-21T11:21:29Z</time>
      </trkpt>
      <trkpt lat="52.137512" lon="4.5006795">
        <ele>2800.0</ele>
        <time>2020-09-21T11:21:30Z</time>
      </trkpt>
      <trkpt lat="52.137497" lon="4.500643">
        <ele>2800.0</ele>
        <time>2020-09-21T11:21:31Z</time>
      </trkpt>
      <trkpt lat="52.13748" lon="4.500609">
        <ele>2800.0</ele>
        <time>2020-09-21T11:21:32Z</time>
      </trkpt>
      <trkpt lat="52.137466" lon="4.5005755">
        <ele>2800.0</ele>
        <time>2020-09-21T11:21:33Z</time>
      </trkpt>
      <trkpt lat="52.137447" lon="4.5005393">
        <ele>2800.0</ele>
        <time>2020-09-21T11:21:34Z</time>
      </trkpt>
      <trkpt lat="52.137424" lon="4.5005007">
        <ele>2800.0</ele>
        <time>2020-09-21T11:21:35Z</time>
      </trkpt>
      <trkpt lat="52.1374" lon="4.5004635">
        <ele>2800.0</ele>
        <time>2020-09-21T11:21:36Z</time>
      </trkpt>
      <trkpt lat="52.137375" lon="4.5004215">
        <ele>2800.0</ele>
        <time>2020-09-21T11:21:37Z</time>
      </trkpt>
      <trkpt lat="52.137356" lon="4.500381">
        <ele>2800.0</ele>
        <time>2020-09-21T11:21:38Z</time>
      </trkpt>
      <trkpt lat="52.13733" lon="4.500338">
        <ele>2800.0</ele>
        <time>2020-09-21T11:21:39Z</time>
      </trkpt>
      <trkpt lat="52.13731" lon="4.500297">
        <ele>2800.0</ele>
        <time>2020-09-21T11:21:40Z</time>
      </trkpt>
      <trkpt lat="52.137287" lon="4.5002513">
        <ele>2800.0</ele>
        <time>2020-09-21T11:21:42Z</time>
      </trkpt>
      <trkpt lat="52.13727" lon="4.5002055">
        <ele>2800.0</ele>
        <time>2020-09-21T11:21:42Z</time>
      </trkpt>
      <trkpt lat="52.137253" lon="4.5001616">
        <ele>2800.0</ele>
        <time>2020-09-21T11:21:43Z</time>
      </trkpt>
      <trkpt lat="52.13723" lon="4.5001163">
        <ele>2800.0</ele>
        <time>2020-09-21T11:21:44Z</time>
      </trkpt>
      <trkpt lat="52.13721" lon="4.5000696">
        <ele>2800.0</ele>
        <time>2020-09-21T11:21:45Z</time>
      </trkpt>
      <trkpt lat="52.13719" lon="4.50002">
        <ele>2800.0</ele>
        <time>2020-09-21T11:21:46Z</time>
      </trkpt>
      <trkpt lat="52.13717" lon="4.4999657">
        <ele>2800.0</ele>
        <time>2020-09-21T11:21:47Z</time>
      </trkpt>
      <trkpt lat="52.13715" lon="4.499909">
        <ele>2800.0</ele>
        <time>2020-09-21T11:21:48Z</time>
      </trkpt>
      <trkpt lat="52.137135" lon="4.4998465">
        <ele>2800.0</ele>
        <time>2020-09-21T11:21:49Z</time>
      </trkpt>
      <trkpt lat="52.13712" lon="4.4997835">
        <ele>2800.0</ele>
        <time>2020-09-21T11:21:50Z</time>
      </trkpt>
      <trkpt lat="52.137104" lon="4.4997225">
        <ele>2800.0</ele>
        <time>2020-09-21T11:21:51Z</time>
      </trkpt>
      <trkpt lat="52.137093" lon="4.499659">
        <ele>2800.0</ele>
        <time>2020-09-21T11:21:52Z</time>
      </trkpt>
      <trkpt lat="52.13709" lon="4.499599">
        <ele>2800.0</ele>
        <time>2020-09-21T11:21:53Z</time>
      </trkpt>
      <trkpt lat="52.137077" lon="4.49954">
        <ele>2800.0</ele>
        <time>2020-09-21T11:21:54Z</time>
      </trkpt>
      <trkpt lat="52.137077" lon="4.499483">
        <ele>2800.0</ele>
        <time>2020-09-21T11:21:55Z</time>
      </trkpt>
      <trkpt lat="52.137066" lon="4.499419">
        <ele>2800.0</ele>
        <time>2020-09-21T11:21:56Z</time>
      </trkpt>
      <trkpt lat="52.13706" lon="4.4993577">
        <ele>2800.0</ele>
        <time>2020-09-21T11:21:57Z</time>
      </trkpt>
      <trkpt lat="52.137047" lon="4.499295">
        <ele>2800.0</ele>
        <time>2020-09-21T11:21:58Z</time>
      </trkpt>
      <trkpt lat="52.137035" lon="4.4992337">
        <ele>2800.0</ele>
        <time>2020-09-21T11:21:59Z</time>
      </trkpt>
      <trkpt lat="52.137028" lon="4.4991736">
        <ele>2800.0</ele>
        <time>2020-09-21T11:22:00Z</time>
      </trkpt>
      <trkpt lat="52.137016" lon="4.499113">
        <ele>2800.0</ele>
        <time>2020-09-21T11:22:01Z</time>
      </trkpt>
      <trkpt lat="52.137005" lon="4.49905">
        <ele>2800.0</ele>
        <time>2020-09-21T11:22:03Z</time>
      </trkpt>
      <trkpt lat="52.13699" lon="4.4989867">
        <ele>2800.0</ele>
        <time>2020-09-21T11:22:03Z</time>
      </trkpt>
      <trkpt lat="52.136982" lon="4.4989243">
        <ele>2800.0</ele>
        <time>2020-09-21T11:22:04Z</time>
      </trkpt>
      <trkpt lat="52.13697" lon="4.4988637">
        <ele>2800.0</ele>
        <time>2020-09-21T11:22:05Z</time>
      </trkpt>
      <trkpt lat="52.13696" lon="4.498807">
        <ele>2800.0</ele>
        <time>2020-09-21T11:22:06Z</time>
      </trkpt>
      <trkpt lat="52.13695" lon="4.498749">
        <ele>2800.0</ele>
        <time>2020-09-21T11:22:07Z</time>
      </trkpt>
      <trkpt lat="52.13694" lon="4.4986973">
        <ele>2800.0</ele>
        <time>2020-09-21T11:22:08Z</time>
      </trkpt>
      <trkpt lat="52.136936" lon="4.4986477">
        <ele>2800.0</ele>
        <time>2020-09-21T11:22:09Z</time>
      </trkpt>
      <trkpt lat="52.136925" lon="4.4986">
        <ele>2800.0</ele>
        <time>2020-09-21T11:22:10Z</time>
      </trkpt>
      <trkpt lat="52.136913" lon="4.498553">
        <ele>2800.0</ele>
        <time>2020-09-21T11:22:11Z</time>
      </trkpt>
      <trkpt lat="52.136898" lon="4.498507">
        <ele>2800.0</ele>
        <time>2020-09-21T11:22:12Z</time>
      </trkpt>
      <trkpt lat="52.136883" lon="4.4984627">
        <ele>2800.0</ele>
        <time>2020-09-21T11:22:12Z</time>
      </trkpt>
      <trkpt lat="52.136868" lon="4.4984193">
        <ele>2800.0</ele>
        <time>2020-09-21T11:22:13Z</time>
      </trkpt>
      <trkpt lat="52.13685" lon="4.498377">
        <ele>2800.0</ele>
        <time>2020-09-21T11:22:14Z</time>
      </trkpt>
      <trkpt lat="52.13682" lon="4.4983344">
        <ele>2800.0</ele>
        <time>2020-09-21T11:22:15Z</time>
      </trkpt>
      <trkpt lat="52.136795" lon="4.498291">
        <ele>2800.0</ele>
        <time>2020-09-21T11:22:16Z</time>
      </trkpt>
      <trkpt lat="52.136776" lon="4.498248">
        <ele>2800.0</ele>
        <time>2020-09-21T11:22:17Z</time>
      </trkpt>
      <trkpt lat="52.13675" lon="4.4982057">
        <ele>2800.0</ele>
        <time>2020-09-21T11:22:18Z</time>
      </trkpt>
      <trkpt lat="52.136726" lon="4.4981613">
        <ele>2800.0</ele>
        <time>2020-09-21T11:22:20Z</time>
      </trkpt>
      <trkpt lat="52.1367" lon="4.498116">
        <ele>2800.0</ele>
        <time>2020-09-21T11:22:20Z</time>
      </trkpt>
      <trkpt lat="52.136677" lon="4.498072">
        <ele>2800.0</ele>
        <time>2020-09-21T11:22:21Z</time>
      </trkpt>
      <trkpt lat="52.136654" lon="4.498033">
        <ele>2800.0</ele>
        <time>2020-09-21T11:22:22Z</time>
      </trkpt>
      <trkpt lat="52.13663" lon="4.497999">
        <ele>2800.0</ele>
        <time>2020-09-21T11:22:23Z</time>
      </trkpt>
      <trkpt lat="52.13661" lon="4.4979663">
        <ele>2800.0</ele>
        <time>2020-09-21T11:22:24Z</time>
      </trkpt>
      <trkpt lat="52.136578" lon="4.4979296">
        <ele>2800.0</ele>
        <time>2020-09-21T11:22:25Z</time>
      </trkpt>
      <trkpt lat="52.13655" lon="4.4978943">
        <ele>2800.0</ele>
        <time>2020-09-21T11:22:26Z</time>
      </trkpt>
      <trkpt lat="52.13652" lon="4.497859">
        <ele>2800.0</ele>
        <time>2020-09-21T11:22:27Z</time>
      </trkpt>
      <trkpt lat="52.136494" lon="4.4978266">
        <ele>2800.0</ele>
        <time>2020-09-21T11:22:28Z</time>
      </trkpt>
      <trkpt lat="52.136463" lon="4.4977946">
        <ele>2800.0</ele>
        <time>2020-09-21T11:22:30Z</time>
      </trkpt>
      <trkpt lat="52.136433" lon="4.497759">
        <ele>2800.0</ele>
        <time>2020-09-21T11:22:30Z</time>
      </trkpt>
      <trkpt lat="52.136402" lon="4.4977226">
        <ele>2800.0</ele>
        <time>2020-09-21T11:22:31Z</time>
      </trkpt>
      <trkpt lat="52.13637" lon="4.4976854">
        <ele>2800.0</ele>
        <time>2020-09-21T11:22:32Z</time>
      </trkpt>
      <trkpt lat="52.136345" lon="4.4976506">
        <ele>2800.0</ele>
        <time>2020-09-21T11:22:33Z</time>
      </trkpt>
      <trkpt lat="52.136326" lon="4.497615">
        <ele>2800.0</ele>
        <time>2020-09-21T11:22:34Z</time>
      </trkpt>
      <trkpt lat="52.1363" lon="4.4975796">
        <ele>2800.0</ele>
        <time>2020-09-21T11:22:35Z</time>
      </trkpt>
      <trkpt lat="52.13628" lon="4.4975405">
        <ele>2800.0</ele>
        <time>2020-09-21T11:22:36Z</time>
      </trkpt>
      <trkpt lat="52.136265" lon="4.497498">
        <ele>2800.0</ele>
        <time>2020-09-21T11:22:37Z</time>
      </trkpt>
      <trkpt lat="52.136242" lon="4.4974537">
        <ele>2800.0</ele>
        <time>2020-09-21T11:22:38Z</time>
      </trkpt>
      <trkpt lat="52.136234" lon="4.497411">
        <ele>2800.0</ele>
        <time>2020-09-21T11:22:40Z</time>
      </trkpt>
      <trkpt lat="52.13622" lon="4.49737">
        <ele>2800.0</ele>
        <time>2020-09-21T11:22:40Z</time>
      </trkpt>
      <trkpt lat="52.136204" lon="4.4973297">
        <ele>2800.0</ele>
        <time>2020-09-21T11:22:41Z</time>
      </trkpt>
      <trkpt lat="52.13619" lon="4.4972916">
        <ele>2800.0</ele>
        <time>2020-09-21T11:22:42Z</time>
      </trkpt>
      <trkpt lat="52.136177" lon="4.4972544">
        <ele>2800.0</ele>
        <time>2020-09-21T11:22:43Z</time>
      </trkpt>
      <trkpt lat="52.136166" lon="4.4972196">
        <ele>2800.0</ele>
        <time>2020-09-21T11:22:44Z</time>
      </trkpt>
      <trkpt lat="52.136158" lon="4.4971833">
        <ele>2800.0</ele>
        <time>2020-09-21T11:22:45Z</time>
      </trkpt>
      <trkpt lat="52.13615" lon="4.497147">
        <ele>2800.0</ele>
        <time>2020-09-21T11:22:46Z</time>
      </trkpt>
      <trkpt lat="52.13614" lon="4.4971094">
        <ele>2800.0</ele>
        <time>2020-09-21T11:22:47Z</time>
      </trkpt>
      <trkpt lat="52.136135" lon="4.497071">
        <ele>2800.0</ele>
        <time>2020-09-21T11:22:48Z</time>
      </trkpt>
      <trkpt lat="52.136124" lon="4.4970336">
        <ele>2800.0</ele>
        <time>2020-09-21T11:22:49Z</time>
      </trkpt>
      <trkpt lat="52.136116" lon="4.4969974">
        <ele>2800.0</ele>
        <time>2020-09-21T11:22:51Z</time>
      </trkpt>
      <trkpt lat="52.136105" lon="4.496962">
        <ele>2800.0</ele>
        <time>2020-09-21T11:22:51Z</time>
      </trkpt>
      <trkpt lat="52.136093" lon="4.4969263">
        <ele>2800.0</ele>
        <time>2020-09-21T11:22:52Z</time>
      </trkpt>
      <trkpt lat="52.136086" lon="4.496892">
        <ele>2800.0</ele>
        <time>2020-09-21T11:22:53Z</time>
      </trkpt>
      <trkpt lat="52.136074" lon="4.496858">
        <ele>2800.0</ele>
        <time>2020-09-21T11:22:54Z</time>
      </trkpt>
      <trkpt lat="52.13607" lon="4.496823">
        <ele>2800.0</ele>
        <time>2020-09-21T11:22:55Z</time>
      </trkpt>
      <trkpt lat="52.13606" lon="4.496793">
        <ele>2800.0</ele>
        <time>2020-09-21T11:22:56Z</time>
      </trkpt>
      <trkpt lat="52.136055" lon="4.496762">
        <ele>2800.0</ele>
        <time>2020-09-21T11:22:57Z</time>
      </trkpt>
      <trkpt lat="52.136047" lon="4.4967318">
        <ele>2800.0</ele>
        <time>2020-09-21T11:22:58Z</time>
      </trkpt>
      <trkpt lat="52.136044" lon="4.4967003">
        <ele>2800.0</ele>
        <time>2020-09-21T11:22:59Z</time>
      </trkpt>
      <trkpt lat="52.136032" lon="4.496669">
        <ele>2800.0</ele>
        <time>2020-09-21T11:23:01Z</time>
      </trkpt>
      <trkpt lat="52.13603" lon="4.4966373">
        <ele>2800.0</ele>
        <time>2020-09-21T11:23:01Z</time>
      </trkpt>
      <trkpt lat="52.136024" lon="4.496607">
        <ele>2800.0</ele>
        <time>2020-09-21T11:23:02Z</time>
      </trkpt>
      <trkpt lat="52.136013" lon="4.49658">
        <ele>2800.0</ele>
        <time>2020-09-21T11:23:03Z</time>
      </trkpt>
      <trkpt lat="52.13601" lon="4.496557">
        <ele>2800.0</ele>
        <time>2020-09-21T11:23:04Z</time>
      </trkpt>
      <trkpt lat="52.13601" lon="4.496542">
        <ele>2800.0</ele>
        <time>2020-09-21T11:23:05Z</time>
      </trkpt>
      <trkpt lat="52.136" lon="4.496534">
        <ele>2800.0</ele>
        <time>2020-09-21T11:23:06Z</time>
      </trkpt>
      <trkpt lat="52.136" lon="4.4965324">
        <ele>2800.0</ele>
        <time>2020-09-21T11:23:07Z</time>
      </trkpt>
      <trkpt lat="52.136" lon="4.496533">
        <ele>2800.0</ele>
        <time>2020-09-21T11:23:08Z</time>
      </trkpt>
      <trkpt lat="52.135998" lon="4.496531">
        <ele>2800.0</ele>
        <time>2020-09-21T11:23:09Z</time>
      </trkpt>
      <trkpt lat="52.135998" lon="4.496528">
        <ele>2800.0</ele>
        <time>2020-09-21T11:23:10Z</time>
      </trkpt>
      <trkpt lat="52.135998" lon="4.4965243">
        <ele>2800.0</ele>
        <time>2020-09-21T11:23:11Z</time>
      </trkpt>
      <trkpt lat="52.136" lon="4.496523">
        <ele>2800.0</ele>
        <time>2020-09-21T11:23:13Z</time>
      </trkpt>
      <trkpt lat="52.136" lon="4.4965205">
        <ele>2800.0</ele>
        <time>2020-09-21T11:23:14Z</time>
      </trkpt>
      <trkpt lat="52.136017" lon="4.4965115">
        <ele>2800.0</ele>
        <time>2020-09-21T11:23:41Z</time>
      </trkpt>
      <trkpt lat="52.136017" lon="4.496506">
        <ele>2800.0</ele>
        <time>2020-09-21T11:23:47Z</time>
      </trkpt>
      <trkpt lat="52.136017" lon="4.4964995">
        <ele>2800.0</ele>
        <time>2020-09-21T11:23:53Z</time>
      </trkpt>
      <trkpt lat="52.136017" lon="4.496498">
        <ele>2800.0</ele>
        <time>2020-09-21T11:23:54Z</time>
      </trkpt>
      <trkpt lat="52.136013" lon="4.4964943">
        <ele>2800.0</ele>
        <time>2020-09-21T11:23:56Z</time>
      </trkpt>
      <trkpt lat="52.136013" lon="4.49649">
        <ele>2800.0</ele>
        <time>2020-09-21T11:23:56Z</time>
      </trkpt>
      <trkpt lat="52.136013" lon="4.4964857">
        <ele>2800.0</ele>
        <time>2020-09-21T11:23:57Z</time>
      </trkpt>
      <trkpt lat="52.13601" lon="4.496482">
        <ele>2800.0</ele>
        <time>2020-09-21T11:23:58Z</time>
      </trkpt>
      <trkpt lat="52.13601" lon="4.496479">
        <ele>2800.0</ele>
        <time>2020-09-21T11:23:59Z</time>
      </trkpt>
      <trkpt lat="52.135994" lon="4.4964795">
        <ele>2800.0</ele>
        <time>2020-09-21T11:24:32Z</time>
      </trkpt>
      <trkpt lat="52.135994" lon="4.496478">
        <ele>2800.0</ele>
        <time>2020-09-21T11:24:33Z</time>
      </trkpt>
      <trkpt lat="52.135986" lon="4.496473">
        <ele>2800.0</ele>
        <time>2020-09-21T11:24:35Z</time>
      </trkpt>
      <trkpt lat="52.135986" lon="4.4964685">
        <ele>2800.0</ele>
        <time>2020-09-21T11:24:35Z</time>
      </trkpt>
      <trkpt lat="52.135983" lon="4.4964643">
        <ele>2800.0</ele>
        <time>2020-09-21T11:24:36Z</time>
      </trkpt>
      <trkpt lat="52.135983" lon="4.4964547">
        <ele>2800.0</ele>
        <time>2020-09-21T11:24:51Z</time>
      </trkpt>
      <trkpt lat="52.135983" lon="4.496456">
        <ele>2800.0</ele>
        <time>2020-09-21T11:24:53Z</time>
      </trkpt>
      <trkpt lat="52.135983" lon="4.4964576">
        <ele>2800.0</ele>
        <time>2020-09-21T11:24:54Z</time>
      </trkpt>
      <trkpt lat="52.135986" lon="4.496461">
        <ele>2800.0</ele>
        <time>2020-09-21T11:24:55Z</time>
      </trkpt>
      <trkpt lat="52.135994" lon="4.496503">
        <ele>2800.0</ele>
        <time>2020-09-21T11:24:58Z</time>
      </trkpt>
      <trkpt lat="52.135994" lon="4.4965057">
        <ele>2800.0</ele>
        <time>2020-09-21T11:24:59Z</time>
      </trkpt>
      <trkpt lat="52.135998" lon="4.4965115">
        <ele>2800.0</ele>
        <time>2020-09-21T11:25:00Z</time>
      </trkpt>
      <trkpt lat="52.135998" lon="4.496515">
        <ele>2800.0</ele>
        <time>2020-09-21T11:25:01Z</time>
      </trkpt>
      <trkpt lat="52.136" lon="4.496518">
        <ele>2800.0</ele>
        <time>2020-09-21T11:25:02Z</time>
      </trkpt>
      <trkpt lat="52.136013" lon="4.4965115">
        <ele>2800.0</ele>
        <time>2020-09-21T11:25:47Z</time>
      </trkpt>
      <trkpt lat="52.136017" lon="4.496498">
        <ele>2800.0</ele>
        <time>2020-09-21T11:26:04Z</time>
      </trkpt>
      <trkpt lat="52.136017" lon="4.496497">
        <ele>2800.0</ele>
        <time>2020-09-21T11:26:05Z</time>
      </trkpt>
      <trkpt lat="52.136017" lon="4.4964967">
        <ele>2800.0</ele>
        <time>2020-09-21T11:26:07Z</time>
      </trkpt>
      <trkpt lat="52.136017" lon="4.4964895">
        <ele>2800.0</ele>
        <time>2020-09-21T11:26:09Z</time>
      </trkpt>
      <trkpt lat="52.136017" lon="4.496489">
        <ele>2800.0</ele>
        <time>2020-09-21T11:26:10Z</time>
      </trkpt>
      <trkpt lat="52.136017" lon="4.4964876">
        <ele>2800.0</ele>
        <time>2020-09-21T11:26:11Z</time>
      </trkpt>
      <trkpt lat="52.136017" lon="4.4964795">
        <ele>2800.0</ele>
        <time>2020-09-21T11:26:14Z</time>
      </trkpt>
      <trkpt lat="52.136017" lon="4.4964786">
        <ele>2800.0</ele>
        <time>2020-09-21T11:26:15Z</time>
      </trkpt>
      <trkpt lat="52.136017" lon="4.49647">
        <ele>2800.0</ele>
        <time>2020-09-21T11:26:16Z</time>
      </trkpt>
      <trkpt lat="52.136013" lon="4.496452">
        <ele>2800.0</ele>
        <time>2020-09-21T11:26:17Z</time>
      </trkpt>
      <trkpt lat="52.136013" lon="4.496425">
        <ele>2800.0</ele>
        <time>2020-09-21T11:26:18Z</time>
      </trkpt>
      <trkpt lat="52.13601" lon="4.4963927">
        <ele>2800.0</ele>
        <time>2020-09-21T11:26:19Z</time>
      </trkpt>
      <trkpt lat="52.135998" lon="4.496358">
        <ele>2800.0</ele>
        <time>2020-09-21T11:26:20Z</time>
      </trkpt>
      <trkpt lat="52.135994" lon="4.4963207">
        <ele>2800.0</ele>
        <time>2020-09-21T11:26:21Z</time>
      </trkpt>
      <trkpt lat="52.135983" lon="4.496284">
        <ele>2800.0</ele>
        <time>2020-09-21T11:26:22Z</time>
      </trkpt>
      <trkpt lat="52.13597" lon="4.4962454">
        <ele>2800.0</ele>
        <time>2020-09-21T11:26:23Z</time>
      </trkpt>
      <trkpt lat="52.135963" lon="4.496205">
        <ele>2800.0</ele>
        <time>2020-09-21T11:26:24Z</time>
      </trkpt>
      <trkpt lat="52.135952" lon="4.496166">
        <ele>2800.0</ele>
        <time>2020-09-21T11:26:25Z</time>
      </trkpt>
      <trkpt lat="52.135944" lon="4.496129">
        <ele>2800.0</ele>
        <time>2020-09-21T11:26:26Z</time>
      </trkpt>
      <trkpt lat="52.13594" lon="4.496094">
        <ele>2800.0</ele>
        <time>2020-09-21T11:26:26Z</time>
      </trkpt>
      <trkpt lat="52.135937" lon="4.496059">
        <ele>2800.0</ele>
        <time>2020-09-21T11:26:27Z</time>
      </trkpt>
      <trkpt lat="52.135937" lon="4.496021">
        <ele>2800.0</ele>
        <time>2020-09-21T11:26:28Z</time>
      </trkpt>
      <trkpt lat="52.13593" lon="4.495983">
        <ele>2800.0</ele>
        <time>2020-09-21T11:26:29Z</time>
      </trkpt>
      <trkpt lat="52.135925" lon="4.4959464">
        <ele>2800.0</ele>
        <time>2020-09-21T11:26:30Z</time>
      </trkpt>
      <trkpt lat="52.13592" lon="4.495908">
        <ele>2800.0</ele>
        <time>2020-09-21T11:26:31Z</time>
      </trkpt>
      <trkpt lat="52.135914" lon="4.495866">
        <ele>2800.0</ele>
        <time>2020-09-21T11:26:32Z</time>
      </trkpt>
      <trkpt lat="52.13591" lon="4.495822">
        <ele>2800.0</ele>
        <time>2020-09-21T11:26:33Z</time>
      </trkpt>
      <trkpt lat="52.13591" lon="4.4957747">
        <ele>2800.0</ele>
        <time>2020-09-21T11:26:35Z</time>
      </trkpt>
      <trkpt lat="52.135906" lon="4.4957266">
        <ele>2800.0</ele>
        <time>2020-09-21T11:26:36Z</time>
      </trkpt>
      <trkpt lat="52.135906" lon="4.4956703">
        <ele>2800.0</ele>
        <time>2020-09-21T11:26:36Z</time>
      </trkpt>
      <trkpt lat="52.1359" lon="4.4956155">
        <ele>2800.0</ele>
        <time>2020-09-21T11:26:37Z</time>
      </trkpt>
      <trkpt lat="52.135895" lon="4.4955583">
        <ele>2800.0</ele>
        <time>2020-09-21T11:26:38Z</time>
      </trkpt>
      <trkpt lat="52.13589" lon="4.4955015">
        <ele>2800.0</ele>
        <time>2020-09-21T11:26:39Z</time>
      </trkpt>
      <trkpt lat="52.13588" lon="4.495442">
        <ele>2800.0</ele>
        <time>2020-09-21T11:26:40Z</time>
      </trkpt>
      <trkpt lat="52.135876" lon="4.4953823">
        <ele>2800.0</ele>
        <time>2020-09-21T11:26:41Z</time>
      </trkpt>
      <trkpt lat="52.135868" lon="4.4953237">
        <ele>2800.0</ele>
        <time>2020-09-21T11:26:42Z</time>
      </trkpt>
      <trkpt lat="52.135864" lon="4.495268">
        <ele>2800.0</ele>
        <time>2020-09-21T11:26:43Z</time>
      </trkpt>
      <trkpt lat="52.13586" lon="4.495214">
        <ele>2800.0</ele>
        <time>2020-09-21T11:26:44Z</time>
      </trkpt>
      <trkpt lat="52.135853" lon="4.495162">
        <ele>2800.0</ele>
        <time>2020-09-21T11:26:45Z</time>
      </trkpt>
      <trkpt lat="52.13585" lon="4.495113">
        <ele>2800.0</ele>
        <time>2020-09-21T11:26:46Z</time>
      </trkpt>
      <trkpt lat="52.135845" lon="4.4950643">
        <ele>2800.0</ele>
        <time>2020-09-21T11:26:47Z</time>
      </trkpt>
      <trkpt lat="52.135838" lon="4.495017">
        <ele>2800.0</ele>
        <time>2020-09-21T11:26:48Z</time>
      </trkpt>
      <trkpt lat="52.135834" lon="4.494971">
        <ele>2800.0</ele>
        <time>2020-09-21T11:26:49Z</time>
      </trkpt>
      <trkpt lat="52.135822" lon="4.4949217">
        <ele>2800.0</ele>
        <time>2020-09-21T11:26:50Z</time>
      </trkpt>
      <trkpt lat="52.135815" lon="4.4948683">
        <ele>2800.0</ele>
        <time>2020-09-21T11:26:51Z</time>
      </trkpt>
      <trkpt lat="52.135803" lon="4.494814">
        <ele>2800.0</ele>
        <time>2020-09-21T11:26:52Z</time>
      </trkpt>
      <trkpt lat="52.1358" lon="4.4947624">
        <ele>2800.0</ele>
        <time>2020-09-21T11:26:53Z</time>
      </trkpt>
      <trkpt lat="52.13579" lon="4.4947157">
        <ele>2800.0</ele>
        <time>2020-09-21T11:26:54Z</time>
      </trkpt>
      <trkpt lat="52.135784" lon="4.494668">
        <ele>2800.0</ele>
        <time>2020-09-21T11:26:55Z</time>
      </trkpt>
      <trkpt lat="52.135773" lon="4.4946194">
        <ele>2800.0</ele>
        <time>2020-09-21T11:26:57Z</time>
      </trkpt>
      <trkpt lat="52.13576" lon="4.4945707">
        <ele>2800.0</ele>
        <time>2020-09-21T11:26:57Z</time>
      </trkpt>
      <trkpt lat="52.135757" lon="4.4945197">
        <ele>2800.0</ele>
        <time>2020-09-21T11:26:58Z</time>
      </trkpt>
      <trkpt lat="52.135746" lon="4.4944663">
        <ele>2800.0</ele>
        <time>2020-09-21T11:26:59Z</time>
      </trkpt>
      <trkpt lat="52.135742" lon="4.4944134">
        <ele>2800.0</ele>
        <time>2020-09-21T11:27:00Z</time>
      </trkpt>
      <trkpt lat="52.135735" lon="4.4943624">
        <ele>2800.0</ele>
        <time>2020-09-21T11:27:01Z</time>
      </trkpt>
      <trkpt lat="52.13573" lon="4.494312">
        <ele>2800.0</ele>
        <time>2020-09-21T11:27:02Z</time>
      </trkpt>
      <trkpt lat="52.13572" lon="4.494262">
        <ele>2800.0</ele>
        <time>2020-09-21T11:27:03Z</time>
      </trkpt>
      <trkpt lat="52.135715" lon="4.494215">
        <ele>2800.0</ele>
        <time>2020-09-21T11:27:04Z</time>
      </trkpt>
      <trkpt lat="52.135704" lon="4.4941697">
        <ele>2800.0</ele>
        <time>2020-09-21T11:27:05Z</time>
      </trkpt>
      <trkpt lat="52.135696" lon="4.494124">
        <ele>2800.0</ele>
        <time>2020-09-21T11:27:07Z</time>
      </trkpt>
      <trkpt lat="52.135685" lon="4.4940805">
        <ele>2800.0</ele>
        <time>2020-09-21T11:27:07Z</time>
      </trkpt>
      <trkpt lat="52.13567" lon="4.494038">
        <ele>2800.0</ele>
        <time>2020-09-21T11:27:08Z</time>
      </trkpt>
      <trkpt lat="52.135654" lon="4.4939966">
        <ele>2800.0</ele>
        <time>2020-09-21T11:27:09Z</time>
      </trkpt>
      <trkpt lat="52.135643" lon="4.493954">
        <ele>2800.0</ele>
        <time>2020-09-21T11:27:10Z</time>
      </trkpt>
      <trkpt lat="52.135635" lon="4.493916">
        <ele>2800.0</ele>
        <time>2020-09-21T11:27:11Z</time>
      </trkpt>
      <trkpt lat="52.13562" lon="4.493886">
        <ele>2800.0</ele>
        <time>2020-09-21T11:27:12Z</time>
      </trkpt>
      <trkpt lat="52.13561" lon="4.4938636">
        <ele>2800.0</ele>
        <time>2020-09-21T11:27:13Z</time>
      </trkpt>
      <trkpt lat="52.135593" lon="4.493845">
        <ele>2800.0</ele>
        <time>2020-09-21T11:27:14Z</time>
      </trkpt>
      <trkpt lat="52.135582" lon="4.493824">
        <ele>2800.0</ele>
        <time>2020-09-21T11:27:15Z</time>
      </trkpt>
      <trkpt lat="52.135567" lon="4.493799">
        <ele>2800.0</ele>
        <time>2020-09-21T11:27:16Z</time>
      </trkpt>
      <trkpt lat="52.135555" lon="4.493769">
        <ele>2800.0</ele>
        <time>2020-09-21T11:27:17Z</time>
      </trkpt>
      <trkpt lat="52.13554" lon="4.4937334">
        <ele>2800.0</ele>
        <time>2020-09-21T11:27:18Z</time>
      </trkpt>
      <trkpt lat="52.135532" lon="4.493699">
        <ele>2800.0</ele>
        <time>2020-09-21T11:27:19Z</time>
      </trkpt>
      <trkpt lat="52.13552" lon="4.493663">
        <ele>2800.0</ele>
        <time>2020-09-21T11:27:20Z</time>
      </trkpt>
      <trkpt lat="52.13551" lon="4.493631">
        <ele>2800.0</ele>
        <time>2020-09-21T11:27:21Z</time>
      </trkpt>
      <trkpt lat="52.1355" lon="4.493602">
        <ele>2800.0</ele>
        <time>2020-09-21T11:27:22Z</time>
      </trkpt>
      <trkpt lat="52.13549" lon="4.4935727">
        <ele>2800.0</ele>
        <time>2020-09-21T11:27:23Z</time>
      </trkpt>
      <trkpt lat="52.13548" lon="4.493549">
        <ele>2800.0</ele>
        <time>2020-09-21T11:27:24Z</time>
      </trkpt>
      <trkpt lat="52.135475" lon="4.493528">
        <ele>2800.0</ele>
        <time>2020-09-21T11:27:25Z</time>
      </trkpt>
      <trkpt lat="52.13547" lon="4.4935102">
        <ele>2800.0</ele>
        <time>2020-09-21T11:27:26Z</time>
      </trkpt>
      <trkpt lat="52.13546" lon="4.4934916">
        <ele>2800.0</ele>
        <time>2020-09-21T11:27:28Z</time>
      </trkpt>
      <trkpt lat="52.13545" lon="4.493469">
        <ele>2800.0</ele>
        <time>2020-09-21T11:27:28Z</time>
      </trkpt>
      <trkpt lat="52.13544" lon="4.4934444">
        <ele>2800.0</ele>
        <time>2020-09-21T11:27:29Z</time>
      </trkpt>
      <trkpt lat="52.13543" lon="4.493417">
        <ele>2800.0</ele>
        <time>2020-09-21T11:27:30Z</time>
      </trkpt>
      <trkpt lat="52.135418" lon="4.493387">
        <ele>2800.0</ele>
        <time>2020-09-21T11:27:31Z</time>
      </trkpt>
      <trkpt lat="52.135414" lon="4.493359">
        <ele>2800.0</ele>
        <time>2020-09-21T11:27:32Z</time>
      </trkpt>
      <trkpt lat="52.135403" lon="4.4933305">
        <ele>2800.0</ele>
        <time>2020-09-21T11:27:33Z</time>
      </trkpt>
      <trkpt lat="52.1354" lon="4.4933">
        <ele>2800.0</ele>
        <time>2020-09-21T11:27:34Z</time>
      </trkpt>
      <trkpt lat="52.135387" lon="4.4932685">
        <ele>2800.0</ele>
        <time>2020-09-21T11:27:35Z</time>
      </trkpt>
      <trkpt lat="52.13538" lon="4.493237">
        <ele>2800.0</ele>
        <time>2020-09-21T11:27:36Z</time>
      </trkpt>
      <trkpt lat="52.13537" lon="4.4932055">
        <ele>2800.0</ele>
        <time>2020-09-21T11:27:37Z</time>
      </trkpt>
      <trkpt lat="52.135357" lon="4.4931793">
        <ele>2800.0</ele>
        <time>2020-09-21T11:27:38Z</time>
      </trkpt>
      <trkpt lat="52.135345" lon="4.4931607">
        <ele>2800.0</ele>
        <time>2020-09-21T11:27:39Z</time>
      </trkpt>
      <trkpt lat="52.135338" lon="4.4931507">
        <ele>2800.0</ele>
        <time>2020-09-21T11:27:40Z</time>
      </trkpt>
      <trkpt lat="52.135326" lon="4.493145">
        <ele>2800.0</ele>
        <time>2020-09-21T11:27:41Z</time>
      </trkpt>
      <trkpt lat="52.135323" lon="4.4931397">
        <ele>2800.0</ele>
        <time>2020-09-21T11:27:42Z</time>
      </trkpt>
      <trkpt lat="52.135326" lon="4.4931345">
        <ele>2800.0</ele>
        <time>2020-09-21T11:27:43Z</time>
      </trkpt>
      <trkpt lat="52.135338" lon="4.4931417">
        <ele>2800.0</ele>
        <time>2020-09-21T11:27:44Z</time>
      </trkpt>
      <trkpt lat="52.135345" lon="4.493158">
        <ele>2800.0</ele>
        <time>2020-09-21T11:27:45Z</time>
      </trkpt>
      <trkpt lat="52.13536" lon="4.4931774">
        <ele>2800.0</ele>
        <time>2020-09-21T11:27:46Z</time>
      </trkpt>
      <trkpt lat="52.135372" lon="4.493197">
        <ele>2800.0</ele>
        <time>2020-09-21T11:27:47Z</time>
      </trkpt>
      <trkpt lat="52.13538" lon="4.493215">
        <ele>2800.0</ele>
        <time>2020-09-21T11:27:49Z</time>
      </trkpt>
      <trkpt lat="52.135395" lon="4.493234">
        <ele>2800.0</ele>
        <time>2020-09-21T11:27:49Z</time>
      </trkpt>
      <trkpt lat="52.135403" lon="4.4932485">
        <ele>2800.0</ele>
        <time>2020-09-21T11:27:50Z</time>
      </trkpt>
      <trkpt lat="52.135418" lon="4.493255">
        <ele>2800.0</ele>
        <time>2020-09-21T11:27:51Z</time>
      </trkpt>
      <trkpt lat="52.135433" lon="4.4932537">
        <ele>2800.0</ele>
        <time>2020-09-21T11:27:52Z</time>
      </trkpt>
      <trkpt lat="52.135445" lon="4.4932466">
        <ele>2800.0</ele>
        <time>2020-09-21T11:27:53Z</time>
      </trkpt>
      <trkpt lat="52.135456" lon="4.493235">
        <ele>2800.0</ele>
        <time>2020-09-21T11:27:54Z</time>
      </trkpt>
      <trkpt lat="52.13546" lon="4.4932203">
        <ele>2800.0</ele>
        <time>2020-09-21T11:27:55Z</time>
      </trkpt>
      <trkpt lat="52.13546" lon="4.493203">
        <ele>2800.0</ele>
        <time>2020-09-21T11:27:56Z</time>
      </trkpt>
      <trkpt lat="52.13546" lon="4.493182">
        <ele>2900.0</ele>
        <time>2020-09-21T11:27:57Z</time>
      </trkpt>
      <trkpt lat="52.13546" lon="4.493157">
        <ele>2900.0</ele>
        <time>2020-09-21T11:27:59Z</time>
      </trkpt>
      <trkpt lat="52.135456" lon="4.493125">
        <ele>2900.0</ele>
        <time>2020-09-21T11:27:59Z</time>
      </trkpt>
      <trkpt lat="52.13545" lon="4.493089">
        <ele>2900.0</ele>
        <time>2020-09-21T11:28:00Z</time>
      </trkpt>
      <trkpt lat="52.13544" lon="4.493053">
        <ele>2900.0</ele>
        <time>2020-09-21T11:28:01Z</time>
      </trkpt>
      <trkpt lat="52.135433" lon="4.493015">
        <ele>2900.0</ele>
        <time>2020-09-21T11:28:02Z</time>
      </trkpt>
      <trkpt lat="52.135426" lon="4.492975">
        <ele>2900.0</ele>
        <time>2020-09-21T11:28:03Z</time>
      </trkpt>
      <trkpt lat="52.135414" lon="4.492935">
        <ele>2900.0</ele>
        <time>2020-09-21T11:28:04Z</time>
      </trkpt>
      <trkpt lat="52.135403" lon="4.4928956">
        <ele>2900.0</ele>
        <time>2020-09-21T11:28:05Z</time>
      </trkpt>
      <trkpt lat="52.135395" lon="4.4928555">
        <ele>2900.0</ele>
        <time>2020-09-21T11:28:06Z</time>
      </trkpt>
      <trkpt lat="52.135384" lon="4.492808">
        <ele>2900.0</ele>
        <time>2020-09-21T11:28:07Z</time>
      </trkpt>
      <trkpt lat="52.13536" lon="4.492758">
        <ele>2900.0</ele>
        <time>2020-09-21T11:28:08Z</time>
      </trkpt>
      <trkpt lat="52.13534" lon="4.4927063">
        <ele>2900.0</ele>
        <time>2020-09-21T11:28:10Z</time>
      </trkpt>
      <trkpt lat="52.135323" lon="4.4926567">
        <ele>2900.0</ele>
        <time>2020-09-21T11:28:10Z</time>
      </trkpt>
      <trkpt lat="52.135307" lon="4.4926143">
        <ele>2900.0</ele>
        <time>2020-09-21T11:28:11Z</time>
      </trkpt>
      <trkpt lat="52.13528" lon="4.492579">
        <ele>2900.0</ele>
        <time>2020-09-21T11:28:12Z</time>
      </trkpt>
      <trkpt lat="52.13526" lon="4.4925523">
        <ele>2900.0</ele>
        <time>2020-09-21T11:28:13Z</time>
      </trkpt>
      <trkpt lat="52.135235" lon="4.4925327">
        <ele>2900.0</ele>
        <time>2020-09-21T11:28:14Z</time>
      </trkpt>
      <trkpt lat="52.13521" lon="4.492521">
        <ele>2900.0</ele>
        <time>2020-09-21T11:28:15Z</time>
      </trkpt>
      <trkpt lat="52.135185" lon="4.4925175">
        <ele>2900.0</ele>
        <time>2020-09-21T11:28:16Z</time>
      </trkpt>
      <trkpt lat="52.13515" lon="4.4925237">
        <ele>2900.0</ele>
        <time>2020-09-21T11:28:17Z</time>
      </trkpt>
      <trkpt lat="52.135117" lon="4.492537">
        <ele>2900.0</ele>
        <time>2020-09-21T11:28:18Z</time>
      </trkpt>
      <trkpt lat="52.135086" lon="4.492555">
        <ele>2900.0</ele>
        <time>2020-09-21T11:28:19Z</time>
      </trkpt>
      <trkpt lat="52.135056" lon="4.492579">
        <ele>2900.0</ele>
        <time>2020-09-21T11:28:20Z</time>
      </trkpt>
      <trkpt lat="52.13502" lon="4.4926076">
        <ele>2900.0</ele>
        <time>2020-09-21T11:28:21Z</time>
      </trkpt>
      <trkpt lat="52.134983" lon="4.4926376">
        <ele>2900.0</ele>
        <time>2020-09-21T11:28:22Z</time>
      </trkpt>
      <trkpt lat="52.13495" lon="4.4926667">
        <ele>2900.0</ele>
        <time>2020-09-21T11:28:23Z</time>
      </trkpt>
      <trkpt lat="52.13491" lon="4.4926977">
        <ele>2900.0</ele>
        <time>2020-09-21T11:28:24Z</time>
      </trkpt>
      <trkpt lat="52.134872" lon="4.492732">
        <ele>2900.0</ele>
        <time>2020-09-21T11:28:25Z</time>
      </trkpt>
      <trkpt lat="52.134834" lon="4.492768">
        <ele>2900.0</ele>
        <time>2020-09-21T11:28:26Z</time>
      </trkpt>
      <trkpt lat="52.1348" lon="4.4928026">
        <ele>2900.0</ele>
        <time>2020-09-21T11:28:28Z</time>
      </trkpt>
      <trkpt lat="52.134758" lon="4.4928336">
        <ele>2900.0</ele>
        <time>2020-09-21T11:28:28Z</time>
      </trkpt>
      <trkpt lat="52.134724" lon="4.4928613">
        <ele>2900.0</ele>
        <time>2020-09-21T11:28:29Z</time>
      </trkpt>
      <trkpt lat="52.134686" lon="4.492889">
        <ele>2900.0</ele>
        <time>2020-09-21T11:28:30Z</time>
      </trkpt>
      <trkpt lat="52.13465" lon="4.492919">
        <ele>2900.0</ele>
        <time>2020-09-21T11:28:31Z</time>
      </trkpt>
      <trkpt lat="52.134617" lon="4.4929514">
        <ele>2900.0</ele>
        <time>2020-09-21T11:28:32Z</time>
      </trkpt>
      <trkpt lat="52.134575" lon="4.4929867">
        <ele>2900.0</ele>
        <time>2020-09-21T11:28:33Z</time>
      </trkpt>
      <trkpt lat="52.134537" lon="4.4930253">
        <ele>2900.0</ele>
        <time>2020-09-21T11:28:34Z</time>
      </trkpt>
      <trkpt lat="52.134502" lon="4.4930625">
        <ele>2900.0</ele>
        <time>2020-09-21T11:28:35Z</time>
      </trkpt>
      <trkpt lat="52.13446" lon="4.493106">
        <ele>2900.0</ele>
        <time>2020-09-21T11:28:36Z</time>
      </trkpt>
      <trkpt lat="52.134426" lon="4.4931493">
        <ele>2900.0</ele>
        <time>2020-09-21T11:28:38Z</time>
      </trkpt>
      <trkpt lat="52.134384" lon="4.493194">
        <ele>2900.0</ele>
        <time>2020-09-21T11:28:38Z</time>
      </trkpt>
      <trkpt lat="52.134342" lon="4.493242">
        <ele>2900.0</ele>
        <time>2020-09-21T11:28:39Z</time>
      </trkpt>
      <trkpt lat="52.134304" lon="4.4932933">
        <ele>2900.0</ele>
        <time>2020-09-21T11:28:40Z</time>
      </trkpt>
      <trkpt lat="52.13426" lon="4.4933457">
        <ele>2900.0</ele>
        <time>2020-09-21T11:28:41Z</time>
      </trkpt>
      <trkpt lat="52.134216" lon="4.4933996">
        <ele>2900.0</ele>
        <time>2020-09-21T11:28:42Z</time>
      </trkpt>
      <trkpt lat="52.134174" lon="4.4934525">
        <ele>2900.0</ele>
        <time>2020-09-21T11:28:43Z</time>
      </trkpt>
      <trkpt lat="52.13413" lon="4.4935045">
        <ele>2900.0</ele>
        <time>2020-09-21T11:28:44Z</time>
      </trkpt>
      <trkpt lat="52.134087" lon="4.493553">
        <ele>2900.0</ele>
        <time>2020-09-21T11:28:45Z</time>
      </trkpt>
      <trkpt lat="52.13404" lon="4.493599">
        <ele>2900.0</ele>
        <time>2020-09-21T11:28:46Z</time>
      </trkpt>
      <trkpt lat="52.133995" lon="4.4936433">
        <ele>2900.0</ele>
        <time>2020-09-21T11:28:47Z</time>
      </trkpt>
      <trkpt lat="52.133953" lon="4.493689">
        <ele>2900.0</ele>
        <time>2020-09-21T11:28:49Z</time>
      </trkpt>
      <trkpt lat="52.133915" lon="4.4937387">
        <ele>2900.0</ele>
        <time>2020-09-21T11:28:49Z</time>
      </trkpt>
      <trkpt lat="52.133873" lon="4.4937882">
        <ele>2900.0</ele>
        <time>2020-09-21T11:28:50Z</time>
      </trkpt>
      <trkpt lat="52.13383" lon="4.4938307">
        <ele>2900.0</ele>
        <time>2020-09-21T11:28:51Z</time>
      </trkpt>
      <trkpt lat="52.13379" lon="4.4938693">
        <ele>2900.0</ele>
        <time>2020-09-21T11:28:52Z</time>
      </trkpt>
      <trkpt lat="52.133755" lon="4.493904">
        <ele>2900.0</ele>
        <time>2020-09-21T11:28:53Z</time>
      </trkpt>
      <trkpt lat="52.13372" lon="4.493938">
        <ele>2900.0</ele>
        <time>2020-09-21T11:28:54Z</time>
      </trkpt>
      <trkpt lat="52.13369" lon="4.493974">
        <ele>2900.0</ele>
        <time>2020-09-21T11:28:55Z</time>
      </trkpt>
      <trkpt lat="52.13365" lon="4.494015">
        <ele>2900.0</ele>
        <time>2020-09-21T11:28:56Z</time>
      </trkpt>
      <trkpt lat="52.133617" lon="4.4940567">
        <ele>2900.0</ele>
        <time>2020-09-21T11:28:57Z</time>
      </trkpt>
      <trkpt lat="52.133587" lon="4.494102">
        <ele>2900.0</ele>
        <time>2020-09-21T11:28:58Z</time>
      </trkpt>
      <trkpt lat="52.13356" lon="4.4941473">
        <ele>2900.0</ele>
        <time>2020-09-21T11:28:59Z</time>
      </trkpt>
      <trkpt lat="52.13353" lon="4.4941883">
        <ele>2900.0</ele>
        <time>2020-09-21T11:29:00Z</time>
      </trkpt>
      <trkpt lat="52.133503" lon="4.4942226">
        <ele>2900.0</ele>
        <time>2020-09-21T11:29:01Z</time>
      </trkpt>
      <trkpt lat="52.133472" lon="4.4942474">
        <ele>2900.0</ele>
        <time>2020-09-21T11:29:02Z</time>
      </trkpt>
      <trkpt lat="52.13344" lon="4.494258">
        <ele>2900.0</ele>
        <time>2020-09-21T11:29:03Z</time>
      </trkpt>
      <trkpt lat="52.13341" lon="4.4942546">
        <ele>2900.0</ele>
        <time>2020-09-21T11:29:04Z</time>
      </trkpt>
      <trkpt lat="52.133385" lon="4.4942417">
        <ele>2900.0</ele>
        <time>2020-09-21T11:29:06Z</time>
      </trkpt>
      <trkpt lat="52.133366" lon="4.494222">
        <ele>3000.0</ele>
        <time>2020-09-21T11:29:06Z</time>
      </trkpt>
      <trkpt lat="52.133347" lon="4.4941964">
        <ele>3000.0</ele>
        <time>2020-09-21T11:29:07Z</time>
      </trkpt>
      <trkpt lat="52.13333" lon="4.494165">
        <ele>3000.0</ele>
        <time>2020-09-21T11:29:08Z</time>
      </trkpt>
      <trkpt lat="52.133316" lon="4.4941278">
        <ele>3000.0</ele>
        <time>2020-09-21T11:29:09Z</time>
      </trkpt>
      <trkpt lat="52.133305" lon="4.4940915">
        <ele>3000.0</ele>
        <time>2020-09-21T11:29:10Z</time>
      </trkpt>
      <trkpt lat="52.133293" lon="4.494059">
        <ele>3100.0</ele>
        <time>2020-09-21T11:29:11Z</time>
      </trkpt>
      <trkpt lat="52.133286" lon="4.494026">
        <ele>3100.0</ele>
        <time>2020-09-21T11:29:12Z</time>
      </trkpt>
      <trkpt lat="52.133278" lon="4.493987">
        <ele>3100.0</ele>
        <time>2020-09-21T11:29:13Z</time>
      </trkpt>
      <trkpt lat="52.133274" lon="4.4939446">
        <ele>3100.0</ele>
        <time>2020-09-21T11:29:14Z</time>
      </trkpt>
      <trkpt lat="52.133278" lon="4.4939003">
        <ele>3100.0</ele>
        <time>2020-09-21T11:29:16Z</time>
      </trkpt>
      <trkpt lat="52.13329" lon="4.493858">
        <ele>3100.0</ele>
        <time>2020-09-21T11:29:16Z</time>
      </trkpt>
      <trkpt lat="52.13331" lon="4.4938197">
        <ele>3100.0</ele>
        <time>2020-09-21T11:29:17Z</time>
      </trkpt>
      <trkpt lat="52.13333" lon="4.493787">
        <ele>3100.0</ele>
        <time>2020-09-21T11:29:18Z</time>
      </trkpt>
      <trkpt lat="52.133354" lon="4.493758">
        <ele>3100.0</ele>
        <time>2020-09-21T11:29:19Z</time>
      </trkpt>
      <trkpt lat="52.133385" lon="4.493732">
        <ele>3100.0</ele>
        <time>2020-09-21T11:29:20Z</time>
      </trkpt>
      <trkpt lat="52.133415" lon="4.4937053">
        <ele>3100.0</ele>
        <time>2020-09-21T11:29:21Z</time>
      </trkpt>
      <trkpt lat="52.133453" lon="4.4936795">
        <ele>3100.0</ele>
        <time>2020-09-21T11:29:22Z</time>
      </trkpt>
      <trkpt lat="52.133488" lon="4.4936514">
        <ele>3100.0</ele>
        <time>2020-09-21T11:29:24Z</time>
      </trkpt>
      <trkpt lat="52.133526" lon="4.493617">
        <ele>3100.0</ele>
        <time>2020-09-21T11:29:24Z</time>
      </trkpt>
      <trkpt lat="52.13355" lon="4.4935822">
        <ele>3100.0</ele>
        <time>2020-09-21T11:29:25Z</time>
      </trkpt>
      <trkpt lat="52.13358" lon="4.4935427">
        <ele>3100.0</ele>
        <time>2020-09-21T11:29:26Z</time>
      </trkpt>
      <trkpt lat="52.13361" lon="4.493503">
        <ele>3100.0</ele>
        <time>2020-09-21T11:29:27Z</time>
      </trkpt>
      <trkpt lat="52.133644" lon="4.4934645">
        <ele>3100.0</ele>
        <time>2020-09-21T11:29:28Z</time>
      </trkpt>
      <trkpt lat="52.133675" lon="4.493429">
        <ele>3100.0</ele>
        <time>2020-09-21T11:29:29Z</time>
      </trkpt>
      <trkpt lat="52.13371" lon="4.493395">
        <ele>3100.0</ele>
        <time>2020-09-21T11:29:30Z</time>
      </trkpt>
      <trkpt lat="52.13374" lon="4.4933615">
        <ele>3100.0</ele>
        <time>2020-09-21T11:29:31Z</time>
      </trkpt>
      <trkpt lat="52.133774" lon="4.4933286">
        <ele>3100.0</ele>
        <time>2020-09-21T11:29:32Z</time>
      </trkpt>
      <trkpt lat="52.133804" lon="4.493294">
        <ele>3100.0</ele>
        <time>2020-09-21T11:29:33Z</time>
      </trkpt>
      <trkpt lat="52.133842" lon="4.49326">
        <ele>3100.0</ele>
        <time>2020-09-21T11:29:34Z</time>
      </trkpt>
      <trkpt lat="52.133873" lon="4.4932246">
        <ele>3100.0</ele>
        <time>2020-09-21T11:29:35Z</time>
      </trkpt>
      <trkpt lat="52.133907" lon="4.493189">
        <ele>3100.0</ele>
        <time>2020-09-21T11:29:36Z</time>
      </trkpt>
      <trkpt lat="52.133945" lon="4.4931507">
        <ele>3100.0</ele>
        <time>2020-09-21T11:29:37Z</time>
      </trkpt>
      <trkpt lat="52.133976" lon="4.493113">
        <ele>3100.0</ele>
        <time>2020-09-21T11:29:38Z</time>
      </trkpt>
      <trkpt lat="52.13401" lon="4.493078">
        <ele>3100.0</ele>
        <time>2020-09-21T11:29:39Z</time>
      </trkpt>
      <trkpt lat="52.13405" lon="4.4930434">
        <ele>3100.0</ele>
        <time>2020-09-21T11:29:40Z</time>
      </trkpt>
      <trkpt lat="52.13408" lon="4.493009">
        <ele>3100.0</ele>
        <time>2020-09-21T11:29:41Z</time>
      </trkpt>
      <trkpt lat="52.134113" lon="4.492974">
        <ele>3100.0</ele>
        <time>2020-09-21T11:29:42Z</time>
      </trkpt>
      <trkpt lat="52.134148" lon="4.492935">
        <ele>3100.0</ele>
        <time>2020-09-21T11:29:43Z</time>
      </trkpt>
      <trkpt lat="52.13418" lon="4.492901">
        <ele>3100.0</ele>
        <time>2020-09-21T11:29:45Z</time>
      </trkpt>
      <trkpt lat="52.134216" lon="4.49287">
        <ele>3100.0</ele>
        <time>2020-09-21T11:29:45Z</time>
      </trkpt>
      <trkpt lat="52.134247" lon="4.49284">
        <ele>3100.0</ele>
        <time>2020-09-21T11:29:46Z</time>
      </trkpt>
      <trkpt lat="52.134277" lon="4.4928093">
        <ele>3100.0</ele>
        <time>2020-09-21T11:29:47Z</time>
      </trkpt>
      <trkpt lat="52.13431" lon="4.492775">
        <ele>3100.0</ele>
        <time>2020-09-21T11:29:48Z</time>
      </trkpt>
      <trkpt lat="52.134342" lon="4.4927435">
        <ele>3100.0</ele>
        <time>2020-09-21T11:29:49Z</time>
      </trkpt>
      <trkpt lat="52.13438" lon="4.4927115">
        <ele>3100.0</ele>
        <time>2020-09-21T11:29:50Z</time>
      </trkpt>
      <trkpt lat="52.134415" lon="4.4926796">
        <ele>3100.0</ele>
        <time>2020-09-21T11:29:51Z</time>
      </trkpt>
      <trkpt lat="52.134445" lon="4.4926443">
        <ele>3100.0</ele>
        <time>2020-09-21T11:29:52Z</time>
      </trkpt>
      <trkpt lat="52.134483" lon="4.4926076">
        <ele>3100.0</ele>
        <time>2020-09-21T11:29:53Z</time>
      </trkpt>
      <trkpt lat="52.134518" lon="4.4925714">
        <ele>3100.0</ele>
        <time>2020-09-21T11:29:55Z</time>
      </trkpt>
      <trkpt lat="52.134552" lon="4.492534">
        <ele>3100.0</ele>
        <time>2020-09-21T11:29:55Z</time>
      </trkpt>
      <trkpt lat="52.134583" lon="4.4924994">
        <ele>3100.0</ele>
        <time>2020-09-21T11:29:56Z</time>
      </trkpt>
      <trkpt lat="52.134624" lon="4.492467">
        <ele>3100.0</ele>
        <time>2020-09-21T11:29:57Z</time>
      </trkpt>
      <trkpt lat="52.134655" lon="4.492435">
        <ele>3100.0</ele>
        <time>2020-09-21T11:29:58Z</time>
      </trkpt>
      <trkpt lat="52.134697" lon="4.4924045">
        <ele>3100.0</ele>
        <time>2020-09-21T11:29:59Z</time>
      </trkpt>
      <trkpt lat="52.13473" lon="4.492375">
        <ele>3100.0</ele>
        <time>2020-09-21T11:30:00Z</time>
      </trkpt>
      <trkpt lat="52.134773" lon="4.4923444">
        <ele>3100.0</ele>
        <time>2020-09-21T11:30:01Z</time>
      </trkpt>
      <trkpt lat="52.134815" lon="4.4923096">
        <ele>3100.0</ele>
        <time>2020-09-21T11:30:02Z</time>
      </trkpt>
      <trkpt lat="52.134857" lon="4.4922776">
        <ele>3100.0</ele>
        <time>2020-09-21T11:30:03Z</time>
      </trkpt>
      <trkpt lat="52.134895" lon="4.4922457">
        <ele>3100.0</ele>
        <time>2020-09-21T11:30:04Z</time>
      </trkpt>
      <trkpt lat="52.134933" lon="4.4922123">
        <ele>3100.0</ele>
        <time>2020-09-21T11:30:05Z</time>
      </trkpt>
      <trkpt lat="52.13497" lon="4.492176">
        <ele>3100.0</ele>
        <time>2020-09-21T11:30:06Z</time>
      </trkpt>
      <trkpt lat="52.135014" lon="4.4921403">
        <ele>3100.0</ele>
        <time>2020-09-21T11:30:07Z</time>
      </trkpt>
      <trkpt lat="52.135056" lon="4.4921055">
        <ele>3100.0</ele>
        <time>2020-09-21T11:30:08Z</time>
      </trkpt>
      <trkpt lat="52.13509" lon="4.4920716">
        <ele>3100.0</ele>
        <time>2020-09-21T11:30:09Z</time>
      </trkpt>
      <trkpt lat="52.13513" lon="4.4920382">
        <ele>3100.0</ele>
        <time>2020-09-21T11:30:10Z</time>
      </trkpt>
      <trkpt lat="52.135166" lon="4.4920044">
        <ele>3100.0</ele>
        <time>2020-09-21T11:30:11Z</time>
      </trkpt>
      <trkpt lat="52.1352" lon="4.4919715">
        <ele>3100.0</ele>
        <time>2020-09-21T11:30:12Z</time>
      </trkpt>
      <trkpt lat="52.135235" lon="4.491939">
        <ele>3100.0</ele>
        <time>2020-09-21T11:30:13Z</time>
      </trkpt>
      <trkpt lat="52.135265" lon="4.491907">
        <ele>3100.0</ele>
        <time>2020-09-21T11:30:14Z</time>
      </trkpt>
      <trkpt lat="52.135296" lon="4.491873">
        <ele>3100.0</ele>
        <time>2020-09-21T11:30:16Z</time>
      </trkpt>
      <trkpt lat="52.13533" lon="4.491836">
        <ele>3100.0</ele>
        <time>2020-09-21T11:30:16Z</time>
      </trkpt>
      <trkpt lat="52.13536" lon="4.491801">
        <ele>3100.0</ele>
        <time>2020-09-21T11:30:17Z</time>
      </trkpt>
      <trkpt lat="52.1354" lon="4.491769">
        <ele>3100.0</ele>
        <time>2020-09-21T11:30:18Z</time>
      </trkpt>
      <trkpt lat="52.135433" lon="4.4917364">
        <ele>3100.0</ele>
        <time>2020-09-21T11:30:19Z</time>
      </trkpt>
      <trkpt lat="52.13547" lon="4.491704">
        <ele>3100.0</ele>
        <time>2020-09-21T11:30:20Z</time>
      </trkpt>
      <trkpt lat="52.135506" lon="4.491671">
        <ele>3100.0</ele>
        <time>2020-09-21T11:30:21Z</time>
      </trkpt>
      <trkpt lat="52.13554" lon="4.491637">
        <ele>3100.0</ele>
        <time>2020-09-21T11:30:22Z</time>
      </trkpt>
      <trkpt lat="52.13558" lon="4.4916024">
        <ele>3100.0</ele>
        <time>2020-09-21T11:30:23Z</time>
      </trkpt>
      <trkpt lat="52.135612" lon="4.4915686">
        <ele>3100.0</ele>
        <time>2020-09-21T11:30:24Z</time>
      </trkpt>
      <trkpt lat="52.13565" lon="4.491534">
        <ele>3100.0</ele>
        <time>2020-09-21T11:30:25Z</time>
      </trkpt>
      <trkpt lat="52.135685" lon="4.4914985">
        <ele>3100.0</ele>
        <time>2020-09-21T11:30:26Z</time>
      </trkpt>
      <trkpt lat="52.135715" lon="4.491463">
        <ele>3100.0</ele>
        <time>2020-09-21T11:30:27Z</time>
      </trkpt>
      <trkpt lat="52.13575" lon="4.4914317">
        <ele>3100.0</ele>
        <time>2020-09-21T11:30:28Z</time>
      </trkpt>
      <trkpt lat="52.135788" lon="4.491398">
        <ele>3100.0</ele>
        <time>2020-09-21T11:30:29Z</time>
      </trkpt>
      <trkpt lat="52.13583" lon="4.4913626">
        <ele>3100.0</ele>
        <time>2020-09-21T11:30:30Z</time>
      </trkpt>
      <trkpt lat="52.135864" lon="4.491327">
        <ele>3100.0</ele>
        <time>2020-09-21T11:30:31Z</time>
      </trkpt>
      <trkpt lat="52.1359" lon="4.491291">
        <ele>3100.0</ele>
        <time>2020-09-21T11:30:32Z</time>
      </trkpt>
      <trkpt lat="52.135937" lon="4.491253">
        <ele>3100.0</ele>
        <time>2020-09-21T11:30:34Z</time>
      </trkpt>
      <trkpt lat="52.13597" lon="4.4912124">
        <ele>3100.0</ele>
        <time>2020-09-21T11:30:34Z</time>
      </trkpt>
      <trkpt lat="52.13601" lon="4.491174">
        <ele>3100.0</ele>
        <time>2020-09-21T11:30:35Z</time>
      </trkpt>
      <trkpt lat="52.136044" lon="4.49114">
        <ele>3100.0</ele>
        <time>2020-09-21T11:30:36Z</time>
      </trkpt>
      <trkpt lat="52.136078" lon="4.491108">
        <ele>3100.0</ele>
        <time>2020-09-21T11:30:37Z</time>
      </trkpt>
      <trkpt lat="52.13611" lon="4.4910774">
        <ele>3100.0</ele>
        <time>2020-09-21T11:30:38Z</time>
      </trkpt>
      <trkpt lat="52.136147" lon="4.4910436">
        <ele>3100.0</ele>
        <time>2020-09-21T11:30:39Z</time>
      </trkpt>
      <trkpt lat="52.13618" lon="4.491006">
        <ele>3100.0</ele>
        <time>2020-09-21T11:30:40Z</time>
      </trkpt>
      <trkpt lat="52.13622" lon="4.4909706">
        <ele>3100.0</ele>
        <time>2020-09-21T11:30:41Z</time>
      </trkpt>
      <trkpt lat="52.136253" lon="4.4909368">
        <ele>3100.0</ele>
        <time>2020-09-21T11:30:41Z</time>
      </trkpt>
      <trkpt lat="52.136284" lon="4.4909067">
        <ele>3100.0</ele>
        <time>2020-09-21T11:30:43Z</time>
      </trkpt>
      <trkpt lat="52.13632" lon="4.490874">
        <ele>3100.0</ele>
        <time>2020-09-21T11:30:43Z</time>
      </trkpt>
      <trkpt lat="52.136356" lon="4.4908414">
        <ele>3100.0</ele>
        <time>2020-09-21T11:30:44Z</time>
      </trkpt>
      <trkpt lat="52.136387" lon="4.490809">
        <ele>3100.0</ele>
        <time>2020-09-21T11:30:45Z</time>
      </trkpt>
      <trkpt lat="52.13642" lon="4.4907784">
        <ele>3100.0</ele>
        <time>2020-09-21T11:30:46Z</time>
      </trkpt>
      <trkpt lat="52.13645" lon="4.4907465">
        <ele>3100.0</ele>
        <time>2020-09-21T11:30:47Z</time>
      </trkpt>
      <trkpt lat="52.136494" lon="4.4907136">
        <ele>3100.0</ele>
        <time>2020-09-21T11:30:48Z</time>
      </trkpt>
      <trkpt lat="52.136536" lon="4.490682">
        <ele>3100.0</ele>
        <time>2020-09-21T11:30:49Z</time>
      </trkpt>
      <trkpt lat="52.136578" lon="4.4906497">
        <ele>3100.0</ele>
        <time>2020-09-21T11:30:50Z</time>
      </trkpt>
      <trkpt lat="52.136616" lon="4.490617">
        <ele>3100.0</ele>
        <time>2020-09-21T11:30:51Z</time>
      </trkpt>
      <trkpt lat="52.136654" lon="4.4905834">
        <ele>3100.0</ele>
        <time>2020-09-21T11:30:52Z</time>
      </trkpt>
      <trkpt lat="52.136692" lon="4.4905496">
        <ele>3100.0</ele>
        <time>2020-09-21T11:30:53Z</time>
      </trkpt>
      <trkpt lat="52.136734" lon="4.4905157">
        <ele>3100.0</ele>
        <time>2020-09-21T11:30:54Z</time>
      </trkpt>
      <trkpt lat="52.136772" lon="4.4904823">
        <ele>3100.0</ele>
        <time>2020-09-21T11:30:55Z</time>
      </trkpt>
      <trkpt lat="52.13681" lon="4.4904475">
        <ele>3100.0</ele>
        <time>2020-09-21T11:30:56Z</time>
      </trkpt>
      <trkpt lat="52.13685" lon="4.4904137">
        <ele>3100.0</ele>
        <time>2020-09-21T11:30:57Z</time>
      </trkpt>
      <trkpt lat="52.136883" lon="4.4903765">
        <ele>3100.0</ele>
        <time>2020-09-21T11:30:58Z</time>
      </trkpt>
      <trkpt lat="52.13692" lon="4.4903355">
        <ele>3100.0</ele>
        <time>2020-09-21T11:30:59Z</time>
      </trkpt>
      <trkpt lat="52.136955" lon="4.4902964">
        <ele>3100.0</ele>
        <time>2020-09-21T11:31:00Z</time>
      </trkpt>
      <trkpt lat="52.136997" lon="4.490258">
        <ele>3100.0</ele>
        <time>2020-09-21T11:31:01Z</time>
      </trkpt>
      <trkpt lat="52.13703" lon="4.490222">
        <ele>3100.0</ele>
        <time>2020-09-21T11:31:02Z</time>
      </trkpt>
      <trkpt lat="52.137066" lon="4.4901876">
        <ele>3100.0</ele>
        <time>2020-09-21T11:31:04Z</time>
      </trkpt>
      <trkpt lat="52.137108" lon="4.490152">
        <ele>3100.0</ele>
        <time>2020-09-21T11:31:04Z</time>
      </trkpt>
      <trkpt lat="52.137146" lon="4.490115">
        <ele>3100.0</ele>
        <time>2020-09-21T11:31:05Z</time>
      </trkpt>
      <trkpt lat="52.13718" lon="4.4900813">
        <ele>3100.0</ele>
        <time>2020-09-21T11:31:06Z</time>
      </trkpt>
      <trkpt lat="52.137215" lon="4.4900455">
        <ele>3100.0</ele>
        <time>2020-09-21T11:31:07Z</time>
      </trkpt>
      <trkpt lat="52.137245" lon="4.4900084">
        <ele>3100.0</ele>
        <time>2020-09-21T11:31:08Z</time>
      </trkpt>
      <trkpt lat="52.137283" lon="4.489969">
        <ele>3100.0</ele>
        <time>2020-09-21T11:31:09Z</time>
      </trkpt>
      <trkpt lat="52.137314" lon="4.489927">
        <ele>3100.0</ele>
        <time>2020-09-21T11:31:10Z</time>
      </trkpt>
      <trkpt lat="52.13735" lon="4.4898815">
        <ele>3100.0</ele>
        <time>2020-09-21T11:31:11Z</time>
      </trkpt>
      <trkpt lat="52.137386" lon="4.4898434">
        <ele>3100.0</ele>
        <time>2020-09-21T11:31:12Z</time>
      </trkpt>
      <trkpt lat="52.137417" lon="4.489809">
        <ele>3100.0</ele>
        <time>2020-09-21T11:31:13Z</time>
      </trkpt>
      <trkpt lat="52.13745" lon="4.4897757">
        <ele>3100.0</ele>
        <time>2020-09-21T11:31:14Z</time>
      </trkpt>
      <trkpt lat="52.137493" lon="4.489742">
        <ele>3100.0</ele>
        <time>2020-09-21T11:31:15Z</time>
      </trkpt>
      <trkpt lat="52.137527" lon="4.489705">
        <ele>3100.0</ele>
        <time>2020-09-21T11:31:16Z</time>
      </trkpt>
      <trkpt lat="52.137566" lon="4.4896684">
        <ele>3100.0</ele>
        <time>2020-09-21T11:31:17Z</time>
      </trkpt>
      <trkpt lat="52.137596" lon="4.489633">
        <ele>3100.0</ele>
        <time>2020-09-21T11:31:18Z</time>
      </trkpt>
      <trkpt lat="52.137634" lon="4.489597">
        <ele>3100.0</ele>
        <time>2020-09-21T11:31:19Z</time>
      </trkpt>
      <trkpt lat="52.137676" lon="4.489562">
        <ele>3100.0</ele>
        <time>2020-09-21T11:31:20Z</time>
      </trkpt>
      <trkpt lat="52.13772" lon="4.489529">
        <ele>3100.0</ele>
        <time>2020-09-21T11:31:22Z</time>
      </trkpt>
      <trkpt lat="52.137753" lon="4.489496">
        <ele>3100.0</ele>
        <time>2020-09-21T11:31:22Z</time>
      </trkpt>
      <trkpt lat="52.137794" lon="4.4894624">
        <ele>3100.0</ele>
        <time>2020-09-21T11:31:23Z</time>
      </trkpt>
      <trkpt lat="52.137836" lon="4.489429">
        <ele>3100.0</ele>
        <time>2020-09-21T11:31:24Z</time>
      </trkpt>
      <trkpt lat="52.137875" lon="4.4893928">
        <ele>3100.0</ele>
        <time>2020-09-21T11:31:25Z</time>
      </trkpt>
      <trkpt lat="52.137917" lon="4.4893537">
        <ele>3100.0</ele>
        <time>2020-09-21T11:31:26Z</time>
      </trkpt>
      <trkpt lat="52.137955" lon="4.4893107">
        <ele>3100.0</ele>
        <time>2020-09-21T11:31:27Z</time>
      </trkpt>
      <trkpt lat="52.13799" lon="4.4892664">
        <ele>3100.0</ele>
        <time>2020-09-21T11:31:29Z</time>
      </trkpt>
      <trkpt lat="52.138023" lon="4.489225">
        <ele>3100.0</ele>
        <time>2020-09-21T11:31:29Z</time>
      </trkpt>
      <trkpt lat="52.138065" lon="4.489187">
        <ele>3100.0</ele>
        <time>2020-09-21T11:31:30Z</time>
      </trkpt>
      <trkpt lat="52.138107" lon="4.48915">
        <ele>3100.0</ele>
        <time>2020-09-21T11:31:31Z</time>
      </trkpt>
      <trkpt lat="52.138138" lon="4.4891167">
        <ele>3100.0</ele>
        <time>2020-09-21T11:31:32Z</time>
      </trkpt>
      <trkpt lat="52.13818" lon="4.489082">
        <ele>3100.0</ele>
        <time>2020-09-21T11:31:33Z</time>
      </trkpt>
      <trkpt lat="52.138214" lon="4.489051">
        <ele>3100.0</ele>
        <time>2020-09-21T11:31:34Z</time>
      </trkpt>
      <trkpt lat="52.138245" lon="4.4890213">
        <ele>3100.0</ele>
        <time>2020-09-21T11:31:36Z</time>
      </trkpt>
      <trkpt lat="52.138283" lon="4.4889913">
        <ele>3100.0</ele>
        <time>2020-09-21T11:31:36Z</time>
      </trkpt>
      <trkpt lat="52.138317" lon="4.488959">
        <ele>3100.0</ele>
        <time>2020-09-21T11:31:37Z</time>
      </trkpt>
      <trkpt lat="52.13835" lon="4.488925">
        <ele>3100.0</ele>
        <time>2020-09-21T11:31:38Z</time>
      </trkpt>
      <trkpt lat="52.13839" lon="4.4888916">
        <ele>3100.0</ele>
        <time>2020-09-21T11:31:39Z</time>
      </trkpt>
      <trkpt lat="52.138428" lon="4.4888535">
        <ele>3100.0</ele>
        <time>2020-09-21T11:31:40Z</time>
      </trkpt>
      <trkpt lat="52.138466" lon="4.488817">
        <ele>3100.0</ele>
        <time>2020-09-21T11:31:41Z</time>
      </trkpt>
      <trkpt lat="52.138508" lon="4.4887834">
        <ele>3100.0</ele>
        <time>2020-09-21T11:31:42Z</time>
      </trkpt>
      <trkpt lat="52.138546" lon="4.488749">
        <ele>3100.0</ele>
        <time>2020-09-21T11:31:43Z</time>
      </trkpt>
      <trkpt lat="52.13859" lon="4.4887166">
        <ele>3100.0</ele>
        <time>2020-09-21T11:31:44Z</time>
      </trkpt>
      <trkpt lat="52.13863" lon="4.488682">
        <ele>3100.0</ele>
        <time>2020-09-21T11:31:46Z</time>
      </trkpt>
      <trkpt lat="52.138664" lon="4.4886503">
        <ele>3100.0</ele>
        <time>2020-09-21T11:31:46Z</time>
      </trkpt>
      <trkpt lat="52.138706" lon="4.488622">
        <ele>3100.0</ele>
        <time>2020-09-21T11:31:47Z</time>
      </trkpt>
      <trkpt lat="52.13875" lon="4.488598">
        <ele>3100.0</ele>
        <time>2020-09-21T11:31:48Z</time>
      </trkpt>
      <trkpt lat="52.138786" lon="4.488579">
        <ele>3100.0</ele>
        <time>2020-09-21T11:31:49Z</time>
      </trkpt>
      <trkpt lat="52.138832" lon="4.488564">
        <ele>3100.0</ele>
        <time>2020-09-21T11:31:50Z</time>
      </trkpt>
      <trkpt lat="52.138874" lon="4.488555">
        <ele>3100.0</ele>
        <time>2020-09-21T11:31:51Z</time>
      </trkpt>
      <trkpt lat="52.138916" lon="4.488553">
        <ele>3100.0</ele>
        <time>2020-09-21T11:31:52Z</time>
      </trkpt>
      <trkpt lat="52.13896" lon="4.4885573">
        <ele>3100.0</ele>
        <time>2020-09-21T11:31:53Z</time>
      </trkpt>
      <trkpt lat="52.139004" lon="4.488563">
        <ele>3100.0</ele>
        <time>2020-09-21T11:31:54Z</time>
      </trkpt>
      <trkpt lat="52.139038" lon="4.4885697">
        <ele>3100.0</ele>
        <time>2020-09-21T11:31:55Z</time>
      </trkpt>
      <trkpt lat="52.13908" lon="4.4885764">
        <ele>3100.0</ele>
        <time>2020-09-21T11:31:56Z</time>
      </trkpt>
      <trkpt lat="52.139122" lon="4.4885826">
        <ele>3100.0</ele>
        <time>2020-09-21T11:31:57Z</time>
      </trkpt>
      <trkpt lat="52.139168" lon="4.488588">
        <ele>3100.0</ele>
        <time>2020-09-21T11:31:58Z</time>
      </trkpt>
      <trkpt lat="52.139206" lon="4.4885893">
        <ele>3100.0</ele>
        <time>2020-09-21T11:31:59Z</time>
      </trkpt>
      <trkpt lat="52.139248" lon="4.4885883">
        <ele>3100.0</ele>
        <time>2020-09-21T11:32:00Z</time>
      </trkpt>
      <trkpt lat="52.13929" lon="4.4885845">
        <ele>3100.0</ele>
        <time>2020-09-21T11:32:01Z</time>
      </trkpt>
      <trkpt lat="52.139336" lon="4.4885798">
        <ele>3100.0</ele>
        <time>2020-09-21T11:32:02Z</time>
      </trkpt>
      <trkpt lat="52.139385" lon="4.4885707">
        <ele>3100.0</ele>
        <time>2020-09-21T11:32:03Z</time>
      </trkpt>
      <trkpt lat="52.139435" lon="4.488561">
        <ele>3100.0</ele>
        <time>2020-09-21T11:32:04Z</time>
      </trkpt>
      <trkpt lat="52.13948" lon="4.4885516">
        <ele>3100.0</ele>
        <time>2020-09-21T11:32:05Z</time>
      </trkpt>
      <trkpt lat="52.139526" lon="4.488544">
        <ele>3100.0</ele>
        <time>2020-09-21T11:32:07Z</time>
      </trkpt>
      <trkpt lat="52.139572" lon="4.488534">
        <ele>3100.0</ele>
        <time>2020-09-21T11:32:07Z</time>
      </trkpt>
      <trkpt lat="52.13961" lon="4.48852">
        <ele>3100.0</ele>
        <time>2020-09-21T11:32:08Z</time>
      </trkpt>
      <trkpt lat="52.139652" lon="4.4885087">
        <ele>3100.0</ele>
        <time>2020-09-21T11:32:09Z</time>
      </trkpt>
      <trkpt lat="52.139698" lon="4.4884953">
        <ele>3100.0</ele>
        <time>2020-09-21T11:32:10Z</time>
      </trkpt>
      <trkpt lat="52.13974" lon="4.4884825">
        <ele>3100.0</ele>
        <time>2020-09-21T11:32:11Z</time>
      </trkpt>
      <trkpt lat="52.139782" lon="4.4884734">
        <ele>3100.0</ele>
        <time>2020-09-21T11:32:12Z</time>
      </trkpt>
      <trkpt lat="52.139816" lon="4.4884653">
        <ele>3100.0</ele>
        <time>2020-09-21T11:32:13Z</time>
      </trkpt>
      <trkpt lat="52.139854" lon="4.4884515">
        <ele>3100.0</ele>
        <time>2020-09-21T11:32:14Z</time>
      </trkpt>
      <trkpt lat="52.13989" lon="4.488435">
        <ele>3100.0</ele>
        <time>2020-09-21T11:32:15Z</time>
      </trkpt>
      <trkpt lat="52.139915" lon="4.488417">
        <ele>3100.0</ele>
        <time>2020-09-21T11:32:16Z</time>
      </trkpt>
      <trkpt lat="52.13995" lon="4.4883957">
        <ele>3100.0</ele>
        <time>2020-09-21T11:32:17Z</time>
      </trkpt>
      <trkpt lat="52.139977" lon="4.488375">
        <ele>3100.0</ele>
        <time>2020-09-21T11:32:18Z</time>
      </trkpt>
      <trkpt lat="52.14" lon="4.4883547">
        <ele>3100.0</ele>
        <time>2020-09-21T11:32:19Z</time>
      </trkpt>
      <trkpt lat="52.140026" lon="4.4883347">
        <ele>3100.0</ele>
        <time>2020-09-21T11:32:20Z</time>
      </trkpt>
      <trkpt lat="52.140053" lon="4.488315">
        <ele>3100.0</ele>
        <time>2020-09-21T11:32:21Z</time>
      </trkpt>
      <trkpt lat="52.14008" lon="4.4882946">
        <ele>3100.0</ele>
        <time>2020-09-21T11:32:22Z</time>
      </trkpt>
      <trkpt lat="52.140102" lon="4.4882727">
        <ele>3100.0</ele>
        <time>2020-09-21T11:32:23Z</time>
      </trkpt>
      <trkpt lat="52.140133" lon="4.4882536">
        <ele>3100.0</ele>
        <time>2020-09-21T11:32:24Z</time>
      </trkpt>
      <trkpt lat="52.14016" lon="4.4882393">
        <ele>3100.0</ele>
        <time>2020-09-21T11:32:25Z</time>
      </trkpt>
      <trkpt lat="52.14019" lon="4.4882207">
        <ele>3100.0</ele>
        <time>2020-09-21T11:32:26Z</time>
      </trkpt>
      <trkpt lat="52.14022" lon="4.488201">
        <ele>3100.0</ele>
        <time>2020-09-21T11:32:27Z</time>
      </trkpt>
      <trkpt lat="52.140247" lon="4.488181">
        <ele>3100.0</ele>
        <time>2020-09-21T11:32:28Z</time>
      </trkpt>
      <trkpt lat="52.140278" lon="4.488156">
        <ele>3100.0</ele>
        <time>2020-09-21T11:32:29Z</time>
      </trkpt>
      <trkpt lat="52.14031" lon="4.488132">
        <ele>3100.0</ele>
        <time>2020-09-21T11:32:30Z</time>
      </trkpt>
      <trkpt lat="52.14034" lon="4.4881043">
        <ele>3100.0</ele>
        <time>2020-09-21T11:32:31Z</time>
      </trkpt>
      <trkpt lat="52.140366" lon="4.488073">
        <ele>3100.0</ele>
        <time>2020-09-21T11:32:32Z</time>
      </trkpt>
      <trkpt lat="52.140396" lon="4.4880433">
        <ele>3100.0</ele>
        <time>2020-09-21T11:32:33Z</time>
      </trkpt>
      <trkpt lat="52.140423" lon="4.4880157">
        <ele>3100.0</ele>
        <time>2020-09-21T11:32:35Z</time>
      </trkpt>
      <trkpt lat="52.140446" lon="4.487991">
        <ele>3100.0</ele>
        <time>2020-09-21T11:32:35Z</time>
      </trkpt>
      <trkpt lat="52.140472" lon="4.4879665">
        <ele>3100.0</ele>
        <time>2020-09-21T11:32:36Z</time>
      </trkpt>
      <trkpt lat="52.14049" lon="4.487942">
        <ele>3100.0</ele>
        <time>2020-09-21T11:32:37Z</time>
      </trkpt>
      <trkpt lat="52.14052" lon="4.4879146">
        <ele>3100.0</ele>
        <time>2020-09-21T11:32:38Z</time>
      </trkpt>
      <trkpt lat="52.140537" lon="4.487884">
        <ele>3100.0</ele>
        <time>2020-09-21T11:32:39Z</time>
      </trkpt>
      <trkpt lat="52.14056" lon="4.4878507">
        <ele>3100.0</ele>
        <time>2020-09-21T11:32:40Z</time>
      </trkpt>
      <trkpt lat="52.140575" lon="4.487812">
        <ele>3100.0</ele>
        <time>2020-09-21T11:32:41Z</time>
      </trkpt>
      <trkpt lat="52.14059" lon="4.4877663">
        <ele>3100.0</ele>
        <time>2020-09-21T11:32:42Z</time>
      </trkpt>
      <trkpt lat="52.140602" lon="4.4877143">
        <ele>3100.0</ele>
        <time>2020-09-21T11:32:43Z</time>
      </trkpt>
      <trkpt lat="52.140606" lon="4.4876633">
        <ele>3100.0</ele>
        <time>2020-09-21T11:32:44Z</time>
      </trkpt>
      <trkpt lat="52.140396" lon="4.4870477">
        <ele>3100.0</ele>
        <time>2020-09-21T11:32:51Z</time>
      </trkpt>
      <trkpt lat="52.140385" lon="4.4870567">
        <ele>3100.0</ele>
        <time>2020-09-21T11:32:52Z</time>
      </trkpt>
      <trkpt lat="52.140373" lon="4.4870543">
        <ele>3100.0</ele>
        <time>2020-09-21T11:32:53Z</time>
      </trkpt>
      <trkpt lat="52.140366" lon="4.4870567">
        <ele>3100.0</ele>
        <time>2020-09-21T11:32:54Z</time>
      </trkpt>
      <trkpt lat="52.14035" lon="4.487048">
        <ele>3100.0</ele>
        <time>2020-09-21T11:32:55Z</time>
      </trkpt>
      <trkpt lat="52.140335" lon="4.4870214">
        <ele>3100.0</ele>
        <time>2020-09-21T11:32:57Z</time>
      </trkpt>
      <trkpt lat="52.140312" lon="4.486987">
        <ele>3100.0</ele>
        <time>2020-09-21T11:32:57Z</time>
      </trkpt>
      <trkpt lat="52.140293" lon="4.486948">
        <ele>3100.0</ele>
        <time>2020-09-21T11:32:58Z</time>
      </trkpt>
      <trkpt lat="52.140274" lon="4.486908">
        <ele>3100.0</ele>
        <time>2020-09-21T11:32:59Z</time>
      </trkpt>
      <trkpt lat="52.140247" lon="4.4868674">
        <ele>3100.0</ele>
        <time>2020-09-21T11:33:00Z</time>
      </trkpt>
      <trkpt lat="52.14023" lon="4.4868255">
        <ele>3100.0</ele>
        <time>2020-09-21T11:33:01Z</time>
      </trkpt>
      <trkpt lat="52.1402" lon="4.4867806">
        <ele>3100.0</ele>
        <time>2020-09-21T11:33:02Z</time>
      </trkpt>
      <trkpt lat="52.14018" lon="4.4867334">
        <ele>3100.0</ele>
        <time>2020-09-21T11:33:03Z</time>
      </trkpt>
      <trkpt lat="52.14015" lon="4.4866853">
        <ele>3100.0</ele>
        <time>2020-09-21T11:33:04Z</time>
      </trkpt>
      <trkpt lat="52.140125" lon="4.4866376">
        <ele>3100.0</ele>
        <time>2020-09-21T11:33:05Z</time>
      </trkpt>
      <trkpt lat="52.140102" lon="4.48659">
        <ele>3100.0</ele>
        <time>2020-09-21T11:33:06Z</time>
      </trkpt>
      <trkpt lat="52.14008" lon="4.486543">
        <ele>3100.0</ele>
        <time>2020-09-21T11:33:07Z</time>
      </trkpt>
      <trkpt lat="52.140053" lon="4.4864926">
        <ele>3100.0</ele>
        <time>2020-09-21T11:33:08Z</time>
      </trkpt>
      <trkpt lat="52.140026" lon="4.486441">
        <ele>3100.0</ele>
        <time>2020-09-21T11:33:09Z</time>
      </trkpt>
      <trkpt lat="52.139996" lon="4.486386">
        <ele>3100.0</ele>
        <time>2020-09-21T11:33:10Z</time>
      </trkpt>
      <trkpt lat="52.139965" lon="4.4863377">
        <ele>3100.0</ele>
        <time>2020-09-21T11:33:11Z</time>
      </trkpt>
      <trkpt lat="52.13994" lon="4.4862905">
        <ele>3100.0</ele>
        <time>2020-09-21T11:33:12Z</time>
      </trkpt>
      <trkpt lat="52.13992" lon="4.4862447">
        <ele>3100.0</ele>
        <time>2020-09-21T11:33:13Z</time>
      </trkpt>
      <trkpt lat="52.139904" lon="4.4861994">
        <ele>3100.0</ele>
        <time>2020-09-21T11:33:14Z</time>
      </trkpt>
      <trkpt lat="52.139885" lon="4.486152">
        <ele>3100.0</ele>
        <time>2020-09-21T11:33:15Z</time>
      </trkpt>
      <trkpt lat="52.139862" lon="4.4861064">
        <ele>3100.0</ele>
        <time>2020-09-21T11:33:16Z</time>
      </trkpt>
      <trkpt lat="52.139843" lon="4.4860673">
        <ele>3100.0</ele>
        <time>2020-09-21T11:33:17Z</time>
      </trkpt>
      <trkpt lat="52.139824" lon="4.4860296">
        <ele>3100.0</ele>
        <time>2020-09-21T11:33:18Z</time>
      </trkpt>
      <trkpt lat="52.1398" lon="4.4859915">
        <ele>3100.0</ele>
        <time>2020-09-21T11:33:19Z</time>
      </trkpt>
      <trkpt lat="52.139782" lon="4.485952">
        <ele>3100.0</ele>
        <time>2020-09-21T11:33:20Z</time>
      </trkpt>
      <trkpt lat="52.139755" lon="4.485909">
        <ele>3100.0</ele>
        <time>2020-09-21T11:33:22Z</time>
      </trkpt>
      <trkpt lat="52.139736" lon="4.485865">
        <ele>3100.0</ele>
        <time>2020-09-21T11:33:22Z</time>
      </trkpt>
      <trkpt lat="52.13971" lon="4.4858212">
        <ele>3100.0</ele>
        <time>2020-09-21T11:33:23Z</time>
      </trkpt>
      <trkpt lat="52.13969" lon="4.4857764">
        <ele>3100.0</ele>
        <time>2020-09-21T11:33:24Z</time>
      </trkpt>
      <trkpt lat="52.139668" lon="4.485733">
        <ele>3100.0</ele>
        <time>2020-09-21T11:33:25Z</time>
      </trkpt>
      <trkpt lat="52.139645" lon="4.4856873">
        <ele>3100.0</ele>
        <time>2020-09-21T11:33:26Z</time>
      </trkpt>
      <trkpt lat="52.13962" lon="4.4856415">
        <ele>3100.0</ele>
        <time>2020-09-21T11:33:27Z</time>
      </trkpt>
      <trkpt lat="52.139603" lon="4.4855957">
        <ele>3100.0</ele>
        <time>2020-09-21T11:33:28Z</time>
      </trkpt>
      <trkpt lat="52.139576" lon="4.485552">
        <ele>3100.0</ele>
        <time>2020-09-21T11:33:29Z</time>
      </trkpt>
      <trkpt lat="52.13955" lon="4.485505">
        <ele>3100.0</ele>
        <time>2020-09-21T11:33:30Z</time>
      </trkpt>
      <trkpt lat="52.13953" lon="4.4854593">
        <ele>3100.0</ele>
        <time>2020-09-21T11:33:31Z</time>
      </trkpt>
      <trkpt lat="52.139503" lon="4.4854174">
        <ele>3100.0</ele>
        <time>2020-09-21T11:33:32Z</time>
      </trkpt>
      <trkpt lat="52.139484" lon="4.4853745">
        <ele>3100.0</ele>
        <time>2020-09-21T11:33:33Z</time>
      </trkpt>
      <trkpt lat="52.139465" lon="4.485329">
        <ele>3100.0</ele>
        <time>2020-09-21T11:33:34Z</time>
      </trkpt>
      <trkpt lat="52.139442" lon="4.485285">
        <ele>3100.0</ele>
        <time>2020-09-21T11:33:35Z</time>
      </trkpt>
      <trkpt lat="52.139423" lon="4.4852376">
        <ele>3100.0</ele>
        <time>2020-09-21T11:33:36Z</time>
      </trkpt>
      <trkpt lat="52.1394" lon="4.485196">
        <ele>3100.0</ele>
        <time>2020-09-21T11:33:37Z</time>
      </trkpt>
      <trkpt lat="52.13938" lon="4.485155">
        <ele>3100.0</ele>
        <time>2020-09-21T11:33:38Z</time>
      </trkpt>
      <trkpt lat="52.139362" lon="4.485109">
        <ele>3100.0</ele>
        <time>2020-09-21T11:33:39Z</time>
      </trkpt>
      <trkpt lat="52.13934" lon="4.4850645">
        <ele>3100.0</ele>
        <time>2020-09-21T11:33:40Z</time>
      </trkpt>
      <trkpt lat="52.13932" lon="4.4850187">
        <ele>3100.0</ele>
        <time>2020-09-21T11:33:41Z</time>
      </trkpt>
      <trkpt lat="52.1393" lon="4.484975">
        <ele>3100.0</ele>
        <time>2020-09-21T11:33:43Z</time>
      </trkpt>
      <trkpt lat="52.13928" lon="4.4849324">
        <ele>3100.0</ele>
        <time>2020-09-21T11:33:43Z</time>
      </trkpt>
      <trkpt lat="52.13926" lon="4.4848914">
        <ele>3100.0</ele>
        <time>2020-09-21T11:33:44Z</time>
      </trkpt>
      <trkpt lat="52.139244" lon="4.484854">
        <ele>3100.0</ele>
        <time>2020-09-21T11:33:45Z</time>
      </trkpt>
      <trkpt lat="52.13922" lon="4.4848204">
        <ele>3100.0</ele>
        <time>2020-09-21T11:33:46Z</time>
      </trkpt>
      <trkpt lat="52.139214" lon="4.484793">
        <ele>3100.0</ele>
        <time>2020-09-21T11:33:47Z</time>
      </trkpt>
      <trkpt lat="52.1392" lon="4.4847693">
        <ele>3100.0</ele>
        <time>2020-09-21T11:33:48Z</time>
      </trkpt>
      <trkpt lat="52.139187" lon="4.4847465">
        <ele>3100.0</ele>
        <time>2020-09-21T11:33:49Z</time>
      </trkpt>
      <trkpt lat="52.139175" lon="4.4847317">
        <ele>3100.0</ele>
        <time>2020-09-21T11:33:50Z</time>
      </trkpt>
      <trkpt lat="52.13917" lon="4.4847174">
        <ele>3100.0</ele>
        <time>2020-09-21T11:33:51Z</time>
      </trkpt>
      <trkpt lat="52.139168" lon="4.4847035">
        <ele>3100.0</ele>
        <time>2020-09-21T11:33:53Z</time>
      </trkpt>
      <trkpt lat="52.139168" lon="4.484695">
        <ele>3100.0</ele>
        <time>2020-09-21T11:33:53Z</time>
      </trkpt>
      <trkpt lat="52.13916" lon="4.4846907">
        <ele>3100.0</ele>
        <time>2020-09-21T11:33:54Z</time>
      </trkpt>
      <trkpt lat="52.13916" lon="4.4846907">
        <ele>3100.0</ele>
        <time>2020-09-21T11:33:55Z</time>
      </trkpt>
      <trkpt lat="52.13916" lon="4.4846888">
        <ele>3100.0</ele>
        <time>2020-09-21T11:33:56Z</time>
      </trkpt>
      <trkpt lat="52.13916" lon="4.4846916">
        <ele>3100.0</ele>
        <time>2020-09-21T11:33:57Z</time>
      </trkpt>
      <trkpt lat="52.13916" lon="4.4846997">
        <ele>3100.0</ele>
        <time>2020-09-21T11:33:58Z</time>
      </trkpt>
      <trkpt lat="52.13916" lon="4.4847074">
        <ele>3100.0</ele>
        <time>2020-09-21T11:33:59Z</time>
      </trkpt>
      <trkpt lat="52.139168" lon="4.484715">
        <ele>3100.0</ele>
        <time>2020-09-21T11:34:00Z</time>
      </trkpt>
      <trkpt lat="52.139168" lon="4.484724">
        <ele>3100.0</ele>
        <time>2020-09-21T11:34:01Z</time>
      </trkpt>
      <trkpt lat="52.139175" lon="4.4847393">
        <ele>3100.0</ele>
        <time>2020-09-21T11:34:04Z</time>
      </trkpt>
      <trkpt lat="52.139175" lon="4.4847383">
        <ele>3100.0</ele>
        <time>2020-09-21T11:34:04Z</time>
      </trkpt>
      <trkpt lat="52.13917" lon="4.4847326">
        <ele>3100.0</ele>
        <time>2020-09-21T11:34:23Z</time>
      </trkpt>
      <trkpt lat="52.13917" lon="4.4847307">
        <ele>3100.0</ele>
        <time>2020-09-21T11:34:24Z</time>
      </trkpt>
      <trkpt lat="52.139168" lon="4.4847193">
        <ele>3100.0</ele>
        <time>2020-09-21T11:34:25Z</time>
      </trkpt>
      <trkpt lat="52.139156" lon="4.4847016">
        <ele>3100.0</ele>
        <time>2020-09-21T11:34:26Z</time>
      </trkpt>
      <trkpt lat="52.13914" lon="4.4846745">
        <ele>3100.0</ele>
        <time>2020-09-21T11:34:27Z</time>
      </trkpt>
      <trkpt lat="52.139126" lon="4.484644">
        <ele>3100.0</ele>
        <time>2020-09-21T11:34:28Z</time>
      </trkpt>
      <trkpt lat="52.13911" lon="4.484608">
        <ele>3100.0</ele>
        <time>2020-09-21T11:34:30Z</time>
      </trkpt>
      <trkpt lat="52.13909" lon="4.4845676">
        <ele>3100.0</ele>
        <time>2020-09-21T11:34:30Z</time>
      </trkpt>
      <trkpt lat="52.13907" lon="4.4845247">
        <ele>3100.0</ele>
        <time>2020-09-21T11:34:31Z</time>
      </trkpt>
      <trkpt lat="52.139053" lon="4.48448">
        <ele>3100.0</ele>
        <time>2020-09-21T11:34:32Z</time>
      </trkpt>
      <trkpt lat="52.139034" lon="4.484434">
        <ele>3100.0</ele>
        <time>2020-09-21T11:34:33Z</time>
      </trkpt>
      <trkpt lat="52.13902" lon="4.4843917">
        <ele>3100.0</ele>
        <time>2020-09-21T11:34:34Z</time>
      </trkpt>
      <trkpt lat="52.138996" lon="4.484351">
        <ele>3100.0</ele>
        <time>2020-09-21T11:34:35Z</time>
      </trkpt>
      <trkpt lat="52.13898" lon="4.484313">
        <ele>3100.0</ele>
        <time>2020-09-21T11:34:36Z</time>
      </trkpt>
      <trkpt lat="52.138966" lon="4.4842763">
        <ele>3100.0</ele>
        <time>2020-09-21T11:34:37Z</time>
      </trkpt>
      <trkpt lat="52.13895" lon="4.4842405">
        <ele>3100.0</ele>
        <time>2020-09-21T11:34:38Z</time>
      </trkpt>
      <trkpt lat="52.138935" lon="4.484206">
        <ele>3100.0</ele>
        <time>2020-09-21T11:34:40Z</time>
      </trkpt>
      <trkpt lat="52.13892" lon="4.4841743">
        <ele>3100.0</ele>
        <time>2020-09-21T11:34:40Z</time>
      </trkpt>
      <trkpt lat="52.1389" lon="4.4841413">
        <ele>3100.0</ele>
        <time>2020-09-21T11:34:41Z</time>
      </trkpt>
      <trkpt lat="52.138885" lon="4.4841084">
        <ele>3100.0</ele>
        <time>2020-09-21T11:34:42Z</time>
      </trkpt>
      <trkpt lat="52.13887" lon="4.484076">
        <ele>3100.0</ele>
        <time>2020-09-21T11:34:43Z</time>
      </trkpt>
      <trkpt lat="52.138855" lon="4.4840417">
        <ele>3100.0</ele>
        <time>2020-09-21T11:34:44Z</time>
      </trkpt>
      <trkpt lat="52.13884" lon="4.484006">
        <ele>3100.0</ele>
        <time>2020-09-21T11:34:45Z</time>
      </trkpt>
      <trkpt lat="52.138824" lon="4.4839697">
        <ele>3100.0</ele>
        <time>2020-09-21T11:34:46Z</time>
      </trkpt>
      <trkpt lat="52.13881" lon="4.483935">
        <ele>3100.0</ele>
        <time>2020-09-21T11:34:47Z</time>
      </trkpt>
      <trkpt lat="52.138794" lon="4.4839015">
        <ele>3100.0</ele>
        <time>2020-09-21T11:34:48Z</time>
      </trkpt>
      <trkpt lat="52.138783" lon="4.48387">
        <ele>3100.0</ele>
        <time>2020-09-21T11:34:49Z</time>
      </trkpt>
      <trkpt lat="52.138767" lon="4.4838395">
        <ele>3100.0</ele>
        <time>2020-09-21T11:34:50Z</time>
      </trkpt>
      <trkpt lat="52.138752" lon="4.4838047">
        <ele>3100.0</ele>
        <time>2020-09-21T11:34:51Z</time>
      </trkpt>
      <trkpt lat="52.138737" lon="4.4837694">
        <ele>3100.0</ele>
        <time>2020-09-21T11:34:52Z</time>
      </trkpt>
      <trkpt lat="52.13872" lon="4.4837327">
        <ele>3100.0</ele>
        <time>2020-09-21T11:34:53Z</time>
      </trkpt>
      <trkpt lat="52.138706" lon="4.4836917">
        <ele>3100.0</ele>
        <time>2020-09-21T11:34:54Z</time>
      </trkpt>
      <trkpt lat="52.13869" lon="4.483651">
        <ele>3100.0</ele>
        <time>2020-09-21T11:34:55Z</time>
      </trkpt>
      <trkpt lat="52.138676" lon="4.48361">
        <ele>3100.0</ele>
        <time>2020-09-21T11:34:56Z</time>
      </trkpt>
      <trkpt lat="52.13866" lon="4.483571">
        <ele>3100.0</ele>
        <time>2020-09-21T11:34:56Z</time>
      </trkpt>
      <trkpt lat="52.138638" lon="4.4835324">
        <ele>3100.0</ele>
        <time>2020-09-21T11:34:57Z</time>
      </trkpt>
      <trkpt lat="52.138622" lon="4.4834895">
        <ele>3100.0</ele>
        <time>2020-09-21T11:34:58Z</time>
      </trkpt>
      <trkpt lat="52.138607" lon="4.4834447">
        <ele>3100.0</ele>
        <time>2020-09-21T11:35:00Z</time>
      </trkpt>
      <trkpt lat="52.1386" lon="4.483401">
        <ele>3100.0</ele>
        <time>2020-09-21T11:35:00Z</time>
      </trkpt>
      <trkpt lat="52.138577" lon="4.483358">
        <ele>3100.0</ele>
        <time>2020-09-21T11:35:01Z</time>
      </trkpt>
      <trkpt lat="52.13856" lon="4.483316">
        <ele>3100.0</ele>
        <time>2020-09-21T11:35:02Z</time>
      </trkpt>
      <trkpt lat="52.138546" lon="4.4832754">
        <ele>3100.0</ele>
        <time>2020-09-21T11:35:03Z</time>
      </trkpt>
      <trkpt lat="52.13853" lon="4.4832354">
        <ele>3100.0</ele>
        <time>2020-09-21T11:35:04Z</time>
      </trkpt>
      <trkpt lat="52.13851" lon="4.4831915">
        <ele>3100.0</ele>
        <time>2020-09-21T11:35:05Z</time>
      </trkpt>
      <trkpt lat="52.138496" lon="4.4831505">
        <ele>3100.0</ele>
        <time>2020-09-21T11:35:06Z</time>
      </trkpt>
      <trkpt lat="52.13848" lon="4.4831057">
        <ele>3100.0</ele>
        <time>2020-09-21T11:35:07Z</time>
      </trkpt>
      <trkpt lat="52.138462" lon="4.483058">
        <ele>3100.0</ele>
        <time>2020-09-21T11:35:08Z</time>
      </trkpt>
      <trkpt lat="52.13845" lon="4.483014">
        <ele>3100.0</ele>
        <time>2020-09-21T11:35:10Z</time>
      </trkpt>
      <trkpt lat="52.138435" lon="4.48297">
        <ele>3100.0</ele>
        <time>2020-09-21T11:35:10Z</time>
      </trkpt>
      <trkpt lat="52.13842" lon="4.482927">
        <ele>3100.0</ele>
        <time>2020-09-21T11:35:11Z</time>
      </trkpt>
      <trkpt lat="52.138405" lon="4.4828835">
        <ele>3100.0</ele>
        <time>2020-09-21T11:35:12Z</time>
      </trkpt>
      <trkpt lat="52.138393" lon="4.482839">
        <ele>3100.0</ele>
        <time>2020-09-21T11:35:13Z</time>
      </trkpt>
      <trkpt lat="52.13838" lon="4.482795">
        <ele>3100.0</ele>
        <time>2020-09-21T11:35:14Z</time>
      </trkpt>
      <trkpt lat="52.138367" lon="4.482749">
        <ele>3100.0</ele>
        <time>2020-09-21T11:35:15Z</time>
      </trkpt>
      <trkpt lat="52.13835" lon="4.4827013">
        <ele>3100.0</ele>
        <time>2020-09-21T11:35:16Z</time>
      </trkpt>
      <trkpt lat="52.138336" lon="4.4826517">
        <ele>3100.0</ele>
        <time>2020-09-21T11:35:18Z</time>
      </trkpt>
      <trkpt lat="52.13832" lon="4.4826016">
        <ele>3100.0</ele>
        <time>2020-09-21T11:35:18Z</time>
      </trkpt>
      <trkpt lat="52.138306" lon="4.4825516">
        <ele>3100.0</ele>
        <time>2020-09-21T11:35:19Z</time>
      </trkpt>
      <trkpt lat="52.138287" lon="4.482503">
        <ele>3100.0</ele>
        <time>2020-09-21T11:35:20Z</time>
      </trkpt>
      <trkpt lat="52.13827" lon="4.482459">
        <ele>3100.0</ele>
        <time>2020-09-21T11:35:21Z</time>
      </trkpt>
      <trkpt lat="52.138256" lon="4.482416">
        <ele>3100.0</ele>
        <time>2020-09-21T11:35:22Z</time>
      </trkpt>
      <trkpt lat="52.138233" lon="4.4823728">
        <ele>3100.0</ele>
        <time>2020-09-21T11:35:23Z</time>
      </trkpt>
      <trkpt lat="52.138218" lon="4.4823265">
        <ele>3100.0</ele>
        <time>2020-09-21T11:35:24Z</time>
      </trkpt>
      <trkpt lat="52.1382" lon="4.482276">
        <ele>3100.0</ele>
        <time>2020-09-21T11:35:25Z</time>
      </trkpt>
      <trkpt lat="52.138172" lon="4.4822254">
        <ele>3100.0</ele>
        <time>2020-09-21T11:35:26Z</time>
      </trkpt>
      <trkpt lat="52.138153" lon="4.4821777">
        <ele>3100.0</ele>
        <time>2020-09-21T11:35:27Z</time>
      </trkpt>
      <trkpt lat="52.138126" lon="4.4821296">
        <ele>3100.0</ele>
        <time>2020-09-21T11:35:28Z</time>
      </trkpt>
      <trkpt lat="52.138107" lon="4.4820805">
        <ele>3100.0</ele>
        <time>2020-09-21T11:35:29Z</time>
      </trkpt>
      <trkpt lat="52.13809" lon="4.482033">
        <ele>3100.0</ele>
        <time>2020-09-21T11:35:30Z</time>
      </trkpt>
      <trkpt lat="52.138065" lon="4.481983">
        <ele>3100.0</ele>
        <time>2020-09-21T11:35:31Z</time>
      </trkpt>
      <trkpt lat="52.138046" lon="4.481932">
        <ele>3100.0</ele>
        <time>2020-09-21T11:35:32Z</time>
      </trkpt>
      <trkpt lat="52.13802" lon="4.4818745">
        <ele>3100.0</ele>
        <time>2020-09-21T11:35:33Z</time>
      </trkpt>
      <trkpt lat="52.137993" lon="4.4818196">
        <ele>3100.0</ele>
        <time>2020-09-21T11:35:34Z</time>
      </trkpt>
      <trkpt lat="52.13797" lon="4.4817677">
        <ele>3100.0</ele>
        <time>2020-09-21T11:35:35Z</time>
      </trkpt>
      <trkpt lat="52.137947" lon="4.481715">
        <ele>3100.0</ele>
        <time>2020-09-21T11:35:36Z</time>
      </trkpt>
      <trkpt lat="52.137924" lon="4.481663">
        <ele>3100.0</ele>
        <time>2020-09-21T11:35:37Z</time>
      </trkpt>
      <trkpt lat="52.137897" lon="4.481609">
        <ele>3100.0</ele>
        <time>2020-09-21T11:35:39Z</time>
      </trkpt>
      <trkpt lat="52.13787" lon="4.481554">
        <ele>3100.0</ele>
        <time>2020-09-21T11:35:39Z</time>
      </trkpt>
      <trkpt lat="52.13785" lon="4.4815006">
        <ele>3100.0</ele>
        <time>2020-09-21T11:35:40Z</time>
      </trkpt>
      <trkpt lat="52.13783" lon="4.4814487">
        <ele>3100.0</ele>
        <time>2020-09-21T11:35:41Z</time>
      </trkpt>
      <trkpt lat="52.13781" lon="4.4813967">
        <ele>3100.0</ele>
        <time>2020-09-21T11:35:42Z</time>
      </trkpt>
      <trkpt lat="52.137794" lon="4.4813433">
        <ele>3100.0</ele>
        <time>2020-09-21T11:35:43Z</time>
      </trkpt>
      <trkpt lat="52.137775" lon="4.4812884">
        <ele>3100.0</ele>
        <time>2020-09-21T11:35:44Z</time>
      </trkpt>
      <trkpt lat="52.13776" lon="4.481236">
        <ele>3100.0</ele>
        <time>2020-09-21T11:35:45Z</time>
      </trkpt>
      <trkpt lat="52.137745" lon="4.4811845">
        <ele>3100.0</ele>
        <time>2020-09-21T11:35:46Z</time>
      </trkpt>
      <trkpt lat="52.137722" lon="4.4811335">
        <ele>3100.0</ele>
        <time>2020-09-21T11:35:47Z</time>
      </trkpt>
      <trkpt lat="52.137707" lon="4.481082">
        <ele>3100.0</ele>
        <time>2020-09-21T11:35:49Z</time>
      </trkpt>
      <trkpt lat="52.13769" lon="4.48103">
        <ele>3100.0</ele>
        <time>2020-09-21T11:35:49Z</time>
      </trkpt>
      <trkpt lat="52.137676" lon="4.480977">
        <ele>3100.0</ele>
        <time>2020-09-21T11:35:50Z</time>
      </trkpt>
      <trkpt lat="52.13766" lon="4.4809256">
        <ele>3100.0</ele>
        <time>2020-09-21T11:35:51Z</time>
      </trkpt>
      <trkpt lat="52.137646" lon="4.480873">
        <ele>3100.0</ele>
        <time>2020-09-21T11:35:52Z</time>
      </trkpt>
      <trkpt lat="52.13763" lon="4.480824">
        <ele>3100.0</ele>
        <time>2020-09-21T11:35:53Z</time>
      </trkpt>
      <trkpt lat="52.137615" lon="4.480777">
        <ele>3100.0</ele>
        <time>2020-09-21T11:35:54Z</time>
      </trkpt>
      <trkpt lat="52.1376" lon="4.4807324">
        <ele>3100.0</ele>
        <time>2020-09-21T11:35:55Z</time>
      </trkpt>
      <trkpt lat="52.13758" lon="4.4806914">
        <ele>3100.0</ele>
        <time>2020-09-21T11:35:56Z</time>
      </trkpt>
      <trkpt lat="52.137558" lon="4.480654">
        <ele>3100.0</ele>
        <time>2020-09-21T11:35:57Z</time>
      </trkpt>
      <trkpt lat="52.13754" lon="4.48062">
        <ele>3100.0</ele>
        <time>2020-09-21T11:35:58Z</time>
      </trkpt>
      <trkpt lat="52.13752" lon="4.480588">
        <ele>3100.0</ele>
        <time>2020-09-21T11:35:59Z</time>
      </trkpt>
      <trkpt lat="52.137493" lon="4.48056">
        <ele>3100.0</ele>
        <time>2020-09-21T11:36:00Z</time>
      </trkpt>
      <trkpt lat="52.137463" lon="4.4805355">
        <ele>3100.0</ele>
        <time>2020-09-21T11:36:01Z</time>
      </trkpt>
      <trkpt lat="52.137436" lon="4.4805117">
        <ele>3100.0</ele>
        <time>2020-09-21T11:36:02Z</time>
      </trkpt>
      <trkpt lat="52.13741" lon="4.480488">
        <ele>3100.0</ele>
        <time>2020-09-21T11:36:03Z</time>
      </trkpt>
      <trkpt lat="52.13738" lon="4.480469">
        <ele>3100.0</ele>
        <time>2020-09-21T11:36:04Z</time>
      </trkpt>
      <trkpt lat="52.137356" lon="4.480454">
        <ele>3100.0</ele>
        <time>2020-09-21T11:36:05Z</time>
      </trkpt>
      <trkpt lat="52.137325" lon="4.4804435">
        <ele>3100.0</ele>
        <time>2020-09-21T11:36:06Z</time>
      </trkpt>
      <trkpt lat="52.1373" lon="4.4804373">
        <ele>3100.0</ele>
        <time>2020-09-21T11:36:07Z</time>
      </trkpt>
      <trkpt lat="52.137268" lon="4.4804306">
        <ele>3100.0</ele>
        <time>2020-09-21T11:36:08Z</time>
      </trkpt>
      <trkpt lat="52.137238" lon="4.4804235">
        <ele>3100.0</ele>
        <time>2020-09-21T11:36:10Z</time>
      </trkpt>
      <trkpt lat="52.13721" lon="4.480415">
        <ele>3100.0</ele>
        <time>2020-09-21T11:36:10Z</time>
      </trkpt>
      <trkpt lat="52.13718" lon="4.480402">
        <ele>3100.0</ele>
        <time>2020-09-21T11:36:11Z</time>
      </trkpt>
      <trkpt lat="52.13715" lon="4.480386">
        <ele>3100.0</ele>
        <time>2020-09-21T11:36:12Z</time>
      </trkpt>
      <trkpt lat="52.137115" lon="4.480369">
        <ele>3000.0</ele>
        <time>2020-09-21T11:36:13Z</time>
      </trkpt>
      <trkpt lat="52.13709" lon="4.480355">
        <ele>3000.0</ele>
        <time>2020-09-21T11:36:14Z</time>
      </trkpt>
      <trkpt lat="52.13706" lon="4.480337">
        <ele>3000.0</ele>
        <time>2020-09-21T11:36:15Z</time>
      </trkpt>
      <trkpt lat="52.13703" lon="4.480317">
        <ele>3000.0</ele>
        <time>2020-09-21T11:36:16Z</time>
      </trkpt>
      <trkpt lat="52.137005" lon="4.480295">
        <ele>3000.0</ele>
        <time>2020-09-21T11:36:17Z</time>
      </trkpt>
      <trkpt lat="52.136986" lon="4.480276">
        <ele>3000.0</ele>
        <time>2020-09-21T11:36:18Z</time>
      </trkpt>
      <trkpt lat="52.136967" lon="4.4802585">
        <ele>3000.0</ele>
        <time>2020-09-21T11:36:19Z</time>
      </trkpt>
      <trkpt lat="52.13695" lon="4.4802413">
        <ele>3000.0</ele>
        <time>2020-09-21T11:36:20Z</time>
      </trkpt>
      <trkpt lat="52.136936" lon="4.4802217">
        <ele>3000.0</ele>
        <time>2020-09-21T11:36:21Z</time>
      </trkpt>
      <trkpt lat="52.136925" lon="4.480199">
        <ele>3000.0</ele>
        <time>2020-09-21T11:36:22Z</time>
      </trkpt>
      <trkpt lat="52.13691" lon="4.4801726">
        <ele>3000.0</ele>
        <time>2020-09-21T11:36:23Z</time>
      </trkpt>
      <trkpt lat="52.136894" lon="4.4801474">
        <ele>3000.0</ele>
        <time>2020-09-21T11:36:24Z</time>
      </trkpt>
      <trkpt lat="52.13688" lon="4.480121">
        <ele>3000.0</ele>
        <time>2020-09-21T11:36:25Z</time>
      </trkpt>
      <trkpt lat="52.136868" lon="4.4800973">
        <ele>3000.0</ele>
        <time>2020-09-21T11:36:26Z</time>
      </trkpt>
      <trkpt lat="52.136856" lon="4.4800744">
        <ele>3000.0</ele>
        <time>2020-09-21T11:36:27Z</time>
      </trkpt>
      <trkpt lat="52.13685" lon="4.4800534">
        <ele>3000.0</ele>
        <time>2020-09-21T11:36:28Z</time>
      </trkpt>
      <trkpt lat="52.136837" lon="4.4800334">
        <ele>3000.0</ele>
        <time>2020-09-21T11:36:29Z</time>
      </trkpt>
      <trkpt lat="52.136833" lon="4.480015">
        <ele>3000.0</ele>
        <time>2020-09-21T11:36:30Z</time>
      </trkpt>
      <trkpt lat="52.13682" lon="4.479997">
        <ele>3000.0</ele>
        <time>2020-09-21T11:36:32Z</time>
      </trkpt>
      <trkpt lat="52.13681" lon="4.47998">
        <ele>3000.0</ele>
        <time>2020-09-21T11:36:32Z</time>
      </trkpt>
      <trkpt lat="52.136806" lon="4.4799614">
        <ele>3000.0</ele>
        <time>2020-09-21T11:36:33Z</time>
      </trkpt>
      <trkpt lat="52.136795" lon="4.479941">
        <ele>3000.0</ele>
        <time>2020-09-21T11:36:34Z</time>
      </trkpt>
      <trkpt lat="52.136787" lon="4.47992">
        <ele>3000.0</ele>
        <time>2020-09-21T11:36:35Z</time>
      </trkpt>
      <trkpt lat="52.13678" lon="4.4798946">
        <ele>3000.0</ele>
        <time>2020-09-21T11:36:36Z</time>
      </trkpt>
      <trkpt lat="52.136772" lon="4.4798713">
        <ele>3000.0</ele>
        <time>2020-09-21T11:36:37Z</time>
      </trkpt>
      <trkpt lat="52.13676" lon="4.4798484">
        <ele>3000.0</ele>
        <time>2020-09-21T11:36:38Z</time>
      </trkpt>
      <trkpt lat="52.136757" lon="4.4798255">
        <ele>3000.0</ele>
        <time>2020-09-21T11:36:39Z</time>
      </trkpt>
      <trkpt lat="52.136745" lon="4.479807">
        <ele>3000.0</ele>
        <time>2020-09-21T11:36:40Z</time>
      </trkpt>
      <trkpt lat="52.136734" lon="4.4797873">
        <ele>3000.0</ele>
        <time>2020-09-21T11:36:41Z</time>
      </trkpt>
      <trkpt lat="52.136726" lon="4.4797707">
        <ele>3000.0</ele>
        <time>2020-09-21T11:36:43Z</time>
      </trkpt>
      <trkpt lat="52.136715" lon="4.4797535">
        <ele>3000.0</ele>
        <time>2020-09-21T11:36:43Z</time>
      </trkpt>
      <trkpt lat="52.136703" lon="4.479735">
        <ele>3000.0</ele>
        <time>2020-09-21T11:36:44Z</time>
      </trkpt>
      <trkpt lat="52.1367" lon="4.479716">
        <ele>3000.0</ele>
        <time>2020-09-21T11:36:45Z</time>
      </trkpt>
      <trkpt lat="52.13669" lon="4.479695">
        <ele>3000.0</ele>
        <time>2020-09-21T11:36:46Z</time>
      </trkpt>
      <trkpt lat="52.136677" lon="4.479673">
        <ele>3000.0</ele>
        <time>2020-09-21T11:36:47Z</time>
      </trkpt>
      <trkpt lat="52.136673" lon="4.4796553">
        <ele>3000.0</ele>
        <time>2020-09-21T11:36:48Z</time>
      </trkpt>
      <trkpt lat="52.13667" lon="4.4796405">
        <ele>3000.0</ele>
        <time>2020-09-21T11:36:49Z</time>
      </trkpt>
      <trkpt lat="52.13666" lon="4.47963">
        <ele>3000.0</ele>
        <time>2020-09-21T11:36:50Z</time>
      </trkpt>
      <trkpt lat="52.136654" lon="4.479607">
        <ele>3000.0</ele>
        <time>2020-09-21T11:36:52Z</time>
      </trkpt>
      <trkpt lat="52.136654" lon="4.479602">
        <ele>3000.0</ele>
        <time>2020-09-21T11:36:54Z</time>
      </trkpt>
      <trkpt lat="52.136654" lon="4.4795995">
        <ele>3000.0</ele>
        <time>2020-09-21T11:36:55Z</time>
      </trkpt>
      <trkpt lat="52.136646" lon="4.4795947">
        <ele>3000.0</ele>
        <time>2020-09-21T11:36:56Z</time>
      </trkpt>
      <trkpt lat="52.136646" lon="4.4795885">
        <ele>3000.0</ele>
        <time>2020-09-21T11:36:57Z</time>
      </trkpt>
      <trkpt lat="52.136642" lon="4.47958">
        <ele>3000.0</ele>
        <time>2020-09-21T11:36:58Z</time>
      </trkpt>
      <trkpt lat="52.13664" lon="4.4795732">
        <ele>3000.0</ele>
        <time>2020-09-21T11:36:59Z</time>
      </trkpt>
      <trkpt lat="52.13664" lon="4.4795704">
        <ele>3000.0</ele>
        <time>2020-09-21T11:37:00Z</time>
      </trkpt>
      <trkpt lat="52.13663" lon="4.4795713">
        <ele>3000.0</ele>
        <time>2020-09-21T11:37:01Z</time>
      </trkpt>
      <trkpt lat="52.13663" lon="4.4795732">
        <ele>3000.0</ele>
        <time>2020-09-21T11:37:02Z</time>
      </trkpt>
      <trkpt lat="52.13663" lon="4.479578">
        <ele>3000.0</ele>
        <time>2020-09-21T11:37:04Z</time>
      </trkpt>
      <trkpt lat="52.136627" lon="4.4795837">
        <ele>3000.0</ele>
        <time>2020-09-21T11:37:04Z</time>
      </trkpt>
      <trkpt lat="52.136627" lon="4.479586">
        <ele>3000.0</ele>
        <time>2020-09-21T11:37:05Z</time>
      </trkpt>
      <trkpt lat="52.136627" lon="4.4795885">
        <ele>3000.0</ele>
        <time>2020-09-21T11:37:06Z</time>
      </trkpt>
      <trkpt lat="52.136627" lon="4.479587">
        <ele>3000.0</ele>
        <time>2020-09-21T11:37:07Z</time>
      </trkpt>
      <trkpt lat="52.136627" lon="4.479588">
        <ele>3000.0</ele>
        <time>2020-09-21T11:37:08Z</time>
      </trkpt>
      <trkpt lat="52.136627" lon="4.479585">
        <ele>3000.0</ele>
        <time>2020-09-21T11:37:09Z</time>
      </trkpt>
      <trkpt lat="52.136627" lon="4.4795785">
        <ele>3000.0</ele>
        <time>2020-09-21T11:37:10Z</time>
      </trkpt>
      <trkpt lat="52.13664" lon="4.479549">
        <ele>3000.0</ele>
        <time>2020-09-21T11:37:14Z</time>
      </trkpt>
      <trkpt lat="52.13664" lon="4.479548">
        <ele>3000.0</ele>
        <time>2020-09-21T11:37:15Z</time>
      </trkpt>
      <trkpt lat="52.13664" lon="4.479546">
        <ele>3000.0</ele>
        <time>2020-09-21T11:37:16Z</time>
      </trkpt>
      <trkpt lat="52.13663" lon="4.4795504">
        <ele>3000.0</ele>
        <time>2020-09-21T11:37:17Z</time>
      </trkpt>
      <trkpt lat="52.13663" lon="4.4795556">
        <ele>3000.0</ele>
        <time>2020-09-21T11:37:18Z</time>
      </trkpt>
      <trkpt lat="52.13663" lon="4.479567">
        <ele>3000.0</ele>
        <time>2020-09-21T11:37:20Z</time>
      </trkpt>
      <trkpt lat="52.13663" lon="4.479568">
        <ele>3000.0</ele>
        <time>2020-09-21T11:37:22Z</time>
      </trkpt>
      <trkpt lat="52.13663" lon="4.479577">
        <ele>3000.0</ele>
        <time>2020-09-21T11:37:23Z</time>
      </trkpt>
      <trkpt lat="52.13663" lon="4.4795837">
        <ele>3000.0</ele>
        <time>2020-09-21T11:37:39Z</time>
      </trkpt>
      <trkpt lat="52.13664" lon="4.4796057">
        <ele>3000.0</ele>
        <time>2020-09-21T11:37:41Z</time>
      </trkpt>
      <trkpt lat="52.13664" lon="4.4796205">
        <ele>3000.0</ele>
        <time>2020-09-21T11:37:58Z</time>
      </trkpt>
      <trkpt lat="52.13664" lon="4.4796185">
        <ele>3000.0</ele>
        <time>2020-09-21T11:37:59Z</time>
      </trkpt>
      <trkpt lat="52.13664" lon="4.479616">
        <ele>3000.0</ele>
        <time>2020-09-21T11:38:00Z</time>
      </trkpt>
      <trkpt lat="52.13664" lon="4.4796124">
        <ele>3000.0</ele>
        <time>2020-09-21T11:38:01Z</time>
      </trkpt>
      <trkpt lat="52.13663" lon="4.4796085">
        <ele>3000.0</ele>
        <time>2020-09-21T11:38:02Z</time>
      </trkpt>
      <trkpt lat="52.13663" lon="4.4796057">
        <ele>3000.0</ele>
        <time>2020-09-21T11:38:03Z</time>
      </trkpt>
      <trkpt lat="52.136627" lon="4.4796033">
        <ele>3000.0</ele>
        <time>2020-09-21T11:38:04Z</time>
      </trkpt>
      <trkpt lat="52.136623" lon="4.4796014">
        <ele>3000.0</ele>
        <time>2020-09-21T11:38:05Z</time>
      </trkpt>
      <trkpt lat="52.136612" lon="4.479592">
        <ele>3000.0</ele>
        <time>2020-09-21T11:38:09Z</time>
      </trkpt>
      <trkpt lat="52.136612" lon="4.4795904">
        <ele>3000.0</ele>
        <time>2020-09-21T11:38:12Z</time>
      </trkpt>
      <trkpt lat="52.136612" lon="4.479585">
        <ele>3000.0</ele>
        <time>2020-09-21T11:38:15Z</time>
      </trkpt>
      <trkpt lat="52.136612" lon="4.479584">
        <ele>3000.0</ele>
        <time>2020-09-21T11:38:16Z</time>
      </trkpt>
      <trkpt lat="52.136612" lon="4.4795804">
        <ele>3000.0</ele>
        <time>2020-09-21T11:38:17Z</time>
      </trkpt>
      <trkpt lat="52.136612" lon="4.479574">
        <ele>3000.0</ele>
        <time>2020-09-21T11:38:18Z</time>
      </trkpt>
      <trkpt lat="52.13661" lon="4.4795666">
        <ele>3000.0</ele>
        <time>2020-09-21T11:38:19Z</time>
      </trkpt>
      <trkpt lat="52.13661" lon="4.4795585">
        <ele>3000.0</ele>
        <time>2020-09-21T11:38:20Z</time>
      </trkpt>
      <trkpt lat="52.13661" lon="4.479551">
        <ele>3000.0</ele>
        <time>2020-09-21T11:38:21Z</time>
      </trkpt>
      <trkpt lat="52.136612" lon="4.479527">
        <ele>3000.0</ele>
        <time>2020-09-21T11:38:28Z</time>
      </trkpt>
      <trkpt lat="52.136612" lon="4.479526">
        <ele>3000.0</ele>
        <time>2020-09-21T11:38:29Z</time>
      </trkpt>
      <trkpt lat="52.136612" lon="4.479523">
        <ele>3000.0</ele>
        <time>2020-09-21T11:38:30Z</time>
      </trkpt>
      <trkpt lat="52.136612" lon="4.4795103">
        <ele>3000.0</ele>
        <time>2020-09-21T11:38:32Z</time>
      </trkpt>
      <trkpt lat="52.136612" lon="4.4795094">
        <ele>3000.0</ele>
        <time>2020-09-21T11:38:33Z</time>
      </trkpt>
      <trkpt lat="52.13661" lon="4.4795055">
        <ele>3000.0</ele>
        <time>2020-09-21T11:38:35Z</time>
      </trkpt>
      <trkpt lat="52.136612" lon="4.4795055">
        <ele>3000.0</ele>
        <time>2020-09-21T11:38:47Z</time>
      </trkpt>
      <trkpt lat="52.136616" lon="4.4795103">
        <ele>3000.0</ele>
        <time>2020-09-21T11:38:50Z</time>
      </trkpt>
      <trkpt lat="52.136623" lon="4.479517">
        <ele>3000.0</ele>
        <time>2020-09-21T11:38:54Z</time>
      </trkpt>
      <trkpt lat="52.136623" lon="4.479522">
        <ele>3000.0</ele>
        <time>2020-09-21T11:38:56Z</time>
      </trkpt>
      <trkpt lat="52.136627" lon="4.479527">
        <ele>3000.0</ele>
        <time>2020-09-21T11:38:59Z</time>
      </trkpt>
      <trkpt lat="52.136627" lon="4.479537">
        <ele>3000.0</ele>
        <time>2020-09-21T11:39:06Z</time>
      </trkpt>
      <trkpt lat="52.136623" lon="4.4795437">
        <ele>3000.0</ele>
        <time>2020-09-21T11:39:11Z</time>
      </trkpt>
      <trkpt lat="52.136616" lon="4.4795504">
        <ele>3000.0</ele>
        <time>2020-09-21T11:39:15Z</time>
      </trkpt>
      <trkpt lat="52.136616" lon="4.4795623">
        <ele>3000.0</ele>
        <time>2020-09-21T11:39:25Z</time>
      </trkpt>
      <trkpt lat="52.13661" lon="4.4795356">
        <ele>3000.0</ele>
        <time>2020-09-21T11:39:29Z</time>
      </trkpt>
      <trkpt lat="52.1366" lon="4.479529">
        <ele>3000.0</ele>
        <time>2020-09-21T11:39:30Z</time>
      </trkpt>
      <trkpt lat="52.136597" lon="4.4795184">
        <ele>3000.0</ele>
        <time>2020-09-21T11:39:31Z</time>
      </trkpt>
      <trkpt lat="52.136593" lon="4.479502">
        <ele>3000.0</ele>
        <time>2020-09-21T11:39:32Z</time>
      </trkpt>
      <trkpt lat="52.13658" lon="4.479485">
        <ele>3000.0</ele>
        <time>2020-09-21T11:39:33Z</time>
      </trkpt>
      <trkpt lat="52.13657" lon="4.4794607">
        <ele>3000.0</ele>
        <time>2020-09-21T11:39:35Z</time>
      </trkpt>
      <trkpt lat="52.136562" lon="4.479432">
        <ele>3000.0</ele>
        <time>2020-09-21T11:39:35Z</time>
      </trkpt>
      <trkpt lat="52.136555" lon="4.479404">
        <ele>3000.0</ele>
        <time>2020-09-21T11:39:36Z</time>
      </trkpt>
      <trkpt lat="52.13655" lon="4.4793777">
        <ele>3000.0</ele>
        <time>2020-09-21T11:39:37Z</time>
      </trkpt>
      <trkpt lat="52.13654" lon="4.47935">
        <ele>3000.0</ele>
        <time>2020-09-21T11:39:38Z</time>
      </trkpt>
      <trkpt lat="52.136536" lon="4.4793243">
        <ele>3000.0</ele>
        <time>2020-09-21T11:39:39Z</time>
      </trkpt>
      <trkpt lat="52.136524" lon="4.479299">
        <ele>3000.0</ele>
        <time>2020-09-21T11:39:40Z</time>
      </trkpt>
      <trkpt lat="52.13652" lon="4.479274">
        <ele>3000.0</ele>
        <time>2020-09-21T11:39:41Z</time>
      </trkpt>
      <trkpt lat="52.13651" lon="4.47925">
        <ele>3000.0</ele>
        <time>2020-09-21T11:39:42Z</time>
      </trkpt>
      <trkpt lat="52.136497" lon="4.4792233">
        <ele>3000.0</ele>
        <time>2020-09-21T11:39:43Z</time>
      </trkpt>
      <trkpt lat="52.136494" lon="4.4791975">
        <ele>3100.0</ele>
        <time>2020-09-21T11:39:44Z</time>
      </trkpt>
      <trkpt lat="52.136482" lon="4.4791746">
        <ele>3100.0</ele>
        <time>2020-09-21T11:39:45Z</time>
      </trkpt>
      <trkpt lat="52.13648" lon="4.479153">
        <ele>3100.0</ele>
        <time>2020-09-21T11:39:46Z</time>
      </trkpt>
      <trkpt lat="52.136463" lon="4.47913">
        <ele>3100.0</ele>
        <time>2020-09-21T11:39:47Z</time>
      </trkpt>
      <trkpt lat="52.13645" lon="4.4791093">
        <ele>3100.0</ele>
        <time>2020-09-21T11:39:48Z</time>
      </trkpt>
      <trkpt lat="52.136436" lon="4.479088">
        <ele>3100.0</ele>
        <time>2020-09-21T11:39:49Z</time>
      </trkpt>
      <trkpt lat="52.13643" lon="4.479071">
        <ele>3100.0</ele>
        <time>2020-09-21T11:39:50Z</time>
      </trkpt>
      <trkpt lat="52.13642" lon="4.4790606">
        <ele>3100.0</ele>
        <time>2020-09-21T11:39:51Z</time>
      </trkpt>
      <trkpt lat="52.136406" lon="4.4790573">
        <ele>3100.0</ele>
        <time>2020-09-21T11:39:52Z</time>
      </trkpt>
      <trkpt lat="52.1364" lon="4.479056">
        <ele>3100.0</ele>
        <time>2020-09-21T11:39:53Z</time>
      </trkpt>
      <trkpt lat="52.136387" lon="4.479056">
        <ele>3100.0</ele>
        <time>2020-09-21T11:39:54Z</time>
      </trkpt>
      <trkpt lat="52.136375" lon="4.479058">
        <ele>3100.0</ele>
        <time>2020-09-21T11:39:56Z</time>
      </trkpt>
      <trkpt lat="52.13636" lon="4.479062">
        <ele>3100.0</ele>
        <time>2020-09-21T11:39:56Z</time>
      </trkpt>
      <trkpt lat="52.136345" lon="4.479075">
        <ele>3100.0</ele>
        <time>2020-09-21T11:39:57Z</time>
      </trkpt>
      <trkpt lat="52.136333" lon="4.4790916">
        <ele>3100.0</ele>
        <time>2020-09-21T11:39:58Z</time>
      </trkpt>
      <trkpt lat="52.13632" lon="4.4791126">
        <ele>3100.0</ele>
        <time>2020-09-21T11:39:59Z</time>
      </trkpt>
      <trkpt lat="52.13631" lon="4.479133">
        <ele>3100.0</ele>
        <time>2020-09-21T11:40:00Z</time>
      </trkpt>
      <trkpt lat="52.136295" lon="4.479154">
        <ele>3100.0</ele>
        <time>2020-09-21T11:40:01Z</time>
      </trkpt>
      <trkpt lat="52.13628" lon="4.4791756">
        <ele>3100.0</ele>
        <time>2020-09-21T11:40:02Z</time>
      </trkpt>
      <trkpt lat="52.136265" lon="4.4792004">
        <ele>3100.0</ele>
        <time>2020-09-21T11:40:03Z</time>
      </trkpt>
      <trkpt lat="52.136242" lon="4.479227">
        <ele>3100.0</ele>
        <time>2020-09-21T11:40:04Z</time>
      </trkpt>
      <trkpt lat="52.136227" lon="4.4792533">
        <ele>3100.0</ele>
        <time>2020-09-21T11:40:05Z</time>
      </trkpt>
      <trkpt lat="52.136204" lon="4.479279">
        <ele>3100.0</ele>
        <time>2020-09-21T11:40:06Z</time>
      </trkpt>
      <trkpt lat="52.136177" lon="4.4793053">
        <ele>3100.0</ele>
        <time>2020-09-21T11:40:07Z</time>
      </trkpt>
      <trkpt lat="52.136147" lon="4.479331">
        <ele>3100.0</ele>
        <time>2020-09-21T11:40:08Z</time>
      </trkpt>
      <trkpt lat="52.136116" lon="4.4793596">
        <ele>3100.0</ele>
        <time>2020-09-21T11:40:09Z</time>
      </trkpt>
      <trkpt lat="52.13609" lon="4.479388">
        <ele>3100.0</ele>
        <time>2020-09-21T11:40:10Z</time>
      </trkpt>
      <trkpt lat="52.136063" lon="4.479417">
        <ele>3100.0</ele>
        <time>2020-09-21T11:40:11Z</time>
      </trkpt>
      <trkpt lat="52.136032" lon="4.4794497">
        <ele>3100.0</ele>
        <time>2020-09-21T11:40:12Z</time>
      </trkpt>
      <trkpt lat="52.13601" lon="4.4794846">
        <ele>3100.0</ele>
        <time>2020-09-21T11:40:13Z</time>
      </trkpt>
      <trkpt lat="52.135983" lon="4.4795175">
        <ele>3100.0</ele>
        <time>2020-09-21T11:40:14Z</time>
      </trkpt>
      <trkpt lat="52.135956" lon="4.479546">
        <ele>3100.0</ele>
        <time>2020-09-21T11:40:15Z</time>
      </trkpt>
      <trkpt lat="52.13593" lon="4.479573">
        <ele>3100.0</ele>
        <time>2020-09-21T11:40:16Z</time>
      </trkpt>
      <trkpt lat="52.135906" lon="4.4795995">
        <ele>3100.0</ele>
        <time>2020-09-21T11:40:17Z</time>
      </trkpt>
      <trkpt lat="52.13588" lon="4.479624">
        <ele>3100.0</ele>
        <time>2020-09-21T11:40:18Z</time>
      </trkpt>
      <trkpt lat="52.135853" lon="4.479647">
        <ele>3100.0</ele>
        <time>2020-09-21T11:40:19Z</time>
      </trkpt>
      <trkpt lat="52.13583" lon="4.4796715">
        <ele>3100.0</ele>
        <time>2020-09-21T11:40:20Z</time>
      </trkpt>
      <trkpt lat="52.1358" lon="4.4796977">
        <ele>3100.0</ele>
        <time>2020-09-21T11:40:21Z</time>
      </trkpt>
      <trkpt lat="52.135773" lon="4.479725">
        <ele>3100.0</ele>
        <time>2020-09-21T11:40:22Z</time>
      </trkpt>
      <trkpt lat="52.135746" lon="4.4797516">
        <ele>3100.0</ele>
        <time>2020-09-21T11:40:23Z</time>
      </trkpt>
      <trkpt lat="52.13572" lon="4.479777">
        <ele>3100.0</ele>
        <time>2020-09-21T11:40:24Z</time>
      </trkpt>
      <trkpt lat="52.135696" lon="4.4798007">
        <ele>3100.0</ele>
        <time>2020-09-21T11:40:25Z</time>
      </trkpt>
      <trkpt lat="52.135674" lon="4.4798245">
        <ele>3100.0</ele>
        <time>2020-09-21T11:40:26Z</time>
      </trkpt>
      <trkpt lat="52.13565" lon="4.479848">
        <ele>3100.0</ele>
        <time>2020-09-21T11:40:27Z</time>
      </trkpt>
      <trkpt lat="52.13562" lon="4.479872">
        <ele>3100.0</ele>
        <time>2020-09-21T11:40:28Z</time>
      </trkpt>
      <trkpt lat="52.135593" lon="4.4798965">
        <ele>3100.0</ele>
        <time>2020-09-21T11:40:29Z</time>
      </trkpt>
      <trkpt lat="52.135563" lon="4.479922">
        <ele>3100.0</ele>
        <time>2020-09-21T11:40:30Z</time>
      </trkpt>
      <trkpt lat="52.135536" lon="4.479949">
        <ele>3100.0</ele>
        <time>2020-09-21T11:40:31Z</time>
      </trkpt>
      <trkpt lat="52.13551" lon="4.479976">
        <ele>3100.0</ele>
        <time>2020-09-21T11:40:32Z</time>
      </trkpt>
      <trkpt lat="52.135487" lon="4.4800053">
        <ele>3100.0</ele>
        <time>2020-09-21T11:40:33Z</time>
      </trkpt>
      <trkpt lat="52.13546" lon="4.4800305">
        <ele>3100.0</ele>
        <time>2020-09-21T11:40:35Z</time>
      </trkpt>
      <trkpt lat="52.13543" lon="4.480054">
        <ele>3100.0</ele>
        <time>2020-09-21T11:40:35Z</time>
      </trkpt>
      <trkpt lat="52.1354" lon="4.48008">
        <ele>3100.0</ele>
        <time>2020-09-21T11:40:36Z</time>
      </trkpt>
      <trkpt lat="52.135372" lon="4.4801044">
        <ele>3100.0</ele>
        <time>2020-09-21T11:40:37Z</time>
      </trkpt>
      <trkpt lat="52.13534" lon="4.4801297">
        <ele>3100.0</ele>
        <time>2020-09-21T11:40:38Z</time>
      </trkpt>
      <trkpt lat="52.135315" lon="4.480154">
        <ele>3100.0</ele>
        <time>2020-09-21T11:40:39Z</time>
      </trkpt>
      <trkpt lat="52.135292" lon="4.4801774">
        <ele>3100.0</ele>
        <time>2020-09-21T11:40:40Z</time>
      </trkpt>
      <trkpt lat="52.135265" lon="4.480202">
        <ele>3100.0</ele>
        <time>2020-09-21T11:40:41Z</time>
      </trkpt>
      <trkpt lat="52.13524" lon="4.4802256">
        <ele>3100.0</ele>
        <time>2020-09-21T11:40:42Z</time>
      </trkpt>
      <trkpt lat="52.135216" lon="4.480256">
        <ele>3100.0</ele>
        <time>2020-09-21T11:40:43Z</time>
      </trkpt>
      <trkpt lat="52.13519" lon="4.4802876">
        <ele>3000.0</ele>
        <time>2020-09-21T11:40:45Z</time>
      </trkpt>
      <trkpt lat="52.135162" lon="4.4803166">
        <ele>3000.0</ele>
        <time>2020-09-21T11:40:45Z</time>
      </trkpt>
      <trkpt lat="52.135136" lon="4.480346">
        <ele>3000.0</ele>
        <time>2020-09-21T11:40:46Z</time>
      </trkpt>
      <trkpt lat="52.135117" lon="4.4803743">
        <ele>3000.0</ele>
        <time>2020-09-21T11:40:47Z</time>
      </trkpt>
      <trkpt lat="52.13509" lon="4.4804015">
        <ele>3000.0</ele>
        <time>2020-09-21T11:40:48Z</time>
      </trkpt>
      <trkpt lat="52.13507" lon="4.480426">
        <ele>3000.0</ele>
        <time>2020-09-21T11:40:49Z</time>
      </trkpt>
      <trkpt lat="52.13505" lon="4.4804473">
        <ele>3000.0</ele>
        <time>2020-09-21T11:40:50Z</time>
      </trkpt>
      <trkpt lat="52.13503" lon="4.4804697">
        <ele>3000.0</ele>
        <time>2020-09-21T11:40:51Z</time>
      </trkpt>
      <trkpt lat="52.13501" lon="4.4804893">
        <ele>3000.0</ele>
        <time>2020-09-21T11:40:52Z</time>
      </trkpt>
      <trkpt lat="52.134995" lon="4.4805083">
        <ele>3000.0</ele>
        <time>2020-09-21T11:40:53Z</time>
      </trkpt>
      <trkpt lat="52.134983" lon="4.4805255">
        <ele>3000.0</ele>
        <time>2020-09-21T11:40:54Z</time>
      </trkpt>
      <trkpt lat="52.134968" lon="4.480542">
        <ele>3000.0</ele>
        <time>2020-09-21T11:40:55Z</time>
      </trkpt>
      <trkpt lat="52.134953" lon="4.4805593">
        <ele>3000.0</ele>
        <time>2020-09-21T11:40:56Z</time>
      </trkpt>
      <trkpt lat="52.134937" lon="4.4805727">
        <ele>3000.0</ele>
        <time>2020-09-21T11:40:57Z</time>
      </trkpt>
      <trkpt lat="52.134922" lon="4.480587">
        <ele>3000.0</ele>
        <time>2020-09-21T11:40:58Z</time>
      </trkpt>
      <trkpt lat="52.134907" lon="4.480604">
        <ele>3000.0</ele>
        <time>2020-09-21T11:40:59Z</time>
      </trkpt>
      <trkpt lat="52.134895" lon="4.4806247">
        <ele>3000.0</ele>
        <time>2020-09-21T11:41:00Z</time>
      </trkpt>
      <trkpt lat="52.13489" lon="4.480649">
        <ele>3000.0</ele>
        <time>2020-09-21T11:41:01Z</time>
      </trkpt>
      <trkpt lat="52.13489" lon="4.4806776">
        <ele>3000.0</ele>
        <time>2020-09-21T11:41:02Z</time>
      </trkpt>
      <trkpt lat="52.13489" lon="4.4807076">
        <ele>3000.0</ele>
        <time>2020-09-21T11:41:03Z</time>
      </trkpt>
      <trkpt lat="52.13489" lon="4.4807343">
        <ele>3000.0</ele>
        <time>2020-09-21T11:41:04Z</time>
      </trkpt>
      <trkpt lat="52.13489" lon="4.480759">
        <ele>3000.0</ele>
        <time>2020-09-21T11:41:06Z</time>
      </trkpt>
      <trkpt lat="52.134895" lon="4.4807825">
        <ele>3000.0</ele>
        <time>2020-09-21T11:41:06Z</time>
      </trkpt>
      <trkpt lat="52.134903" lon="4.480802">
        <ele>3000.0</ele>
        <time>2020-09-21T11:41:07Z</time>
      </trkpt>
      <trkpt lat="52.134907" lon="4.480814">
        <ele>3000.0</ele>
        <time>2020-09-21T11:41:08Z</time>
      </trkpt>
      <trkpt lat="52.13491" lon="4.4808197">
        <ele>3000.0</ele>
        <time>2020-09-21T11:41:09Z</time>
      </trkpt>
      <trkpt lat="52.13492" lon="4.4808216">
        <ele>3000.0</ele>
        <time>2020-09-21T11:41:10Z</time>
      </trkpt>
      <trkpt lat="52.13491" lon="4.4808183">
        <ele>3000.0</ele>
        <time>2020-09-21T11:41:11Z</time>
      </trkpt>
      <trkpt lat="52.13491" lon="4.480815">
        <ele>3000.0</ele>
        <time>2020-09-21T11:41:12Z</time>
      </trkpt>
      <trkpt lat="52.134907" lon="4.480811">
        <ele>3000.0</ele>
        <time>2020-09-21T11:41:13Z</time>
      </trkpt>
      <trkpt lat="52.134903" lon="4.480806">
        <ele>3000.0</ele>
        <time>2020-09-21T11:41:14Z</time>
      </trkpt>
      <trkpt lat="52.134895" lon="4.480804">
        <ele>3000.0</ele>
        <time>2020-09-21T11:41:15Z</time>
      </trkpt>
      <trkpt lat="52.134895" lon="4.480804">
        <ele>3000.0</ele>
        <time>2020-09-21T11:41:16Z</time>
      </trkpt>
      <trkpt lat="52.134895" lon="4.480804">
        <ele>3000.0</ele>
        <time>2020-09-21T11:41:17Z</time>
      </trkpt>
      <trkpt lat="52.13489" lon="4.4807935">
        <ele>3000.0</ele>
        <time>2020-09-21T11:41:19Z</time>
      </trkpt>
      <trkpt lat="52.13489" lon="4.4807906">
        <ele>3000.0</ele>
        <time>2020-09-21T11:41:20Z</time>
      </trkpt>
      <trkpt lat="52.13489" lon="4.4807873">
        <ele>3000.0</ele>
        <time>2020-09-21T11:41:21Z</time>
      </trkpt>
      <trkpt lat="52.13489" lon="4.4807835">
        <ele>3000.0</ele>
        <time>2020-09-21T11:41:22Z</time>
      </trkpt>
      <trkpt lat="52.13489" lon="4.4807825">
        <ele>3000.0</ele>
        <time>2020-09-21T11:41:23Z</time>
      </trkpt>
      <trkpt lat="52.134888" lon="4.480781">
        <ele>3000.0</ele>
        <time>2020-09-21T11:41:24Z</time>
      </trkpt>
      <trkpt lat="52.134888" lon="4.480781">
        <ele>3000.0</ele>
        <time>2020-09-21T11:41:25Z</time>
      </trkpt>
      <trkpt lat="52.134888" lon="4.4807835">
        <ele>3000.0</ele>
        <time>2020-09-21T11:41:26Z</time>
      </trkpt>
      <trkpt lat="52.134888" lon="4.480786">
        <ele>3000.0</ele>
        <time>2020-09-21T11:41:27Z</time>
      </trkpt>
      <trkpt lat="52.13488" lon="4.4807863">
        <ele>3000.0</ele>
        <time>2020-09-21T11:41:28Z</time>
      </trkpt>
      <trkpt lat="52.13488" lon="4.4807854">
        <ele>3000.0</ele>
        <time>2020-09-21T11:41:29Z</time>
      </trkpt>
      <trkpt lat="52.134876" lon="4.4807825">
        <ele>3000.0</ele>
        <time>2020-09-21T11:41:30Z</time>
      </trkpt>
      <trkpt lat="52.134876" lon="4.48078">
        <ele>3000.0</ele>
        <time>2020-09-21T11:41:33Z</time>
      </trkpt>
      <trkpt lat="52.134876" lon="4.480781">
        <ele>3000.0</ele>
        <time>2020-09-21T11:41:33Z</time>
      </trkpt>
      <trkpt lat="52.134876" lon="4.4807835">
        <ele>3000.0</ele>
        <time>2020-09-21T11:41:35Z</time>
      </trkpt>
      <trkpt lat="52.134876" lon="4.4807935">
        <ele>3000.0</ele>
        <time>2020-09-21T11:41:36Z</time>
      </trkpt>
      <trkpt lat="52.134876" lon="4.4807944">
        <ele>3000.0</ele>
        <time>2020-09-21T11:41:37Z</time>
      </trkpt>
      <trkpt lat="52.134872" lon="4.480795">
        <ele>3000.0</ele>
        <time>2020-09-21T11:41:38Z</time>
      </trkpt>
      <trkpt lat="52.134872" lon="4.480797">
        <ele>3000.0</ele>
        <time>2020-09-21T11:41:39Z</time>
      </trkpt>
      <trkpt lat="52.134872" lon="4.480798">
        <ele>3000.0</ele>
        <time>2020-09-21T11:41:40Z</time>
      </trkpt>
      <trkpt lat="52.134876" lon="4.4807982">
        <ele>3000.0</ele>
        <time>2020-09-21T11:41:41Z</time>
      </trkpt>
      <trkpt lat="52.134876" lon="4.4807887">
        <ele>3000.0</ele>
        <time>2020-09-21T11:41:43Z</time>
      </trkpt>
      <trkpt lat="52.134876" lon="4.480787">
        <ele>3000.0</ele>
        <time>2020-09-21T11:41:44Z</time>
      </trkpt>
      <trkpt lat="52.134872" lon="4.4807787">
        <ele>3000.0</ele>
        <time>2020-09-21T11:42:01Z</time>
      </trkpt>
      <trkpt lat="52.134872" lon="4.4807777">
        <ele>3000.0</ele>
        <time>2020-09-21T11:42:02Z</time>
      </trkpt>
      <trkpt lat="52.134872" lon="4.480776">
        <ele>3000.0</ele>
        <time>2020-09-21T11:42:04Z</time>
      </trkpt>
      <trkpt lat="52.134865" lon="4.4807725">
        <ele>3000.0</ele>
        <time>2020-09-21T11:42:04Z</time>
      </trkpt>
      <trkpt lat="52.134865" lon="4.4807653">
        <ele>3000.0</ele>
        <time>2020-09-21T11:42:06Z</time>
      </trkpt>
      <trkpt lat="52.13486" lon="4.480762">
        <ele>3000.0</ele>
        <time>2020-09-21T11:42:12Z</time>
      </trkpt>
      <trkpt lat="52.134857" lon="4.4807553">
        <ele>3000.0</ele>
        <time>2020-09-21T11:42:18Z</time>
      </trkpt>
      <trkpt lat="52.134857" lon="4.4807487">
        <ele>3000.0</ele>
        <time>2020-09-21T11:42:19Z</time>
      </trkpt>
      <trkpt lat="52.134857" lon="4.480734">
        <ele>3000.0</ele>
        <time>2020-09-21T11:42:20Z</time>
      </trkpt>
      <trkpt lat="52.13485" lon="4.4807124">
        <ele>3000.0</ele>
        <time>2020-09-21T11:42:21Z</time>
      </trkpt>
      <trkpt lat="52.134857" lon="4.48069">
        <ele>3000.0</ele>
        <time>2020-09-21T11:42:22Z</time>
      </trkpt>
      <trkpt lat="52.13486" lon="4.4806695">
        <ele>3000.0</ele>
        <time>2020-09-21T11:42:23Z</time>
      </trkpt>
      <trkpt lat="52.134865" lon="4.4806476">
        <ele>3000.0</ele>
        <time>2020-09-21T11:42:24Z</time>
      </trkpt>
      <trkpt lat="52.134876" lon="4.480623">
        <ele>3000.0</ele>
        <time>2020-09-21T11:42:26Z</time>
      </trkpt>
      <trkpt lat="52.134888" lon="4.480596">
        <ele>3000.0</ele>
        <time>2020-09-21T11:42:26Z</time>
      </trkpt>
      <trkpt lat="52.134903" lon="4.480569">
        <ele>3000.0</ele>
        <time>2020-09-21T11:42:27Z</time>
      </trkpt>
      <trkpt lat="52.13492" lon="4.4805403">
        <ele>3000.0</ele>
        <time>2020-09-21T11:42:28Z</time>
      </trkpt>
      <trkpt lat="52.134933" lon="4.4805093">
        <ele>3000.0</ele>
        <time>2020-09-21T11:42:29Z</time>
      </trkpt>
      <trkpt lat="52.134953" lon="4.4804792">
        <ele>3000.0</ele>
        <time>2020-09-21T11:42:30Z</time>
      </trkpt>
      <trkpt lat="52.13498" lon="4.480449">
        <ele>3000.0</ele>
        <time>2020-09-21T11:42:31Z</time>
      </trkpt>
      <trkpt lat="52.135" lon="4.4804206">
        <ele>3000.0</ele>
        <time>2020-09-21T11:42:32Z</time>
      </trkpt>
      <trkpt lat="52.135025" lon="4.4803944">
        <ele>3000.0</ele>
        <time>2020-09-21T11:42:33Z</time>
      </trkpt>
      <trkpt lat="52.13505" lon="4.480369">
        <ele>3000.0</ele>
        <time>2020-09-21T11:42:34Z</time>
      </trkpt>
      <trkpt lat="52.135075" lon="4.480345">
        <ele>3000.0</ele>
        <time>2020-09-21T11:42:35Z</time>
      </trkpt>
      <trkpt lat="52.135105" lon="4.48032">
        <ele>3000.0</ele>
        <time>2020-09-21T11:42:37Z</time>
      </trkpt>
      <trkpt lat="52.13513" lon="4.480296">
        <ele>3000.0</ele>
        <time>2020-09-21T11:42:37Z</time>
      </trkpt>
      <trkpt lat="52.135162" lon="4.480272">
        <ele>3000.0</ele>
        <time>2020-09-21T11:42:38Z</time>
      </trkpt>
      <trkpt lat="52.13519" lon="4.480246">
        <ele>3000.0</ele>
        <time>2020-09-21T11:42:39Z</time>
      </trkpt>
      <trkpt lat="52.13522" lon="4.48022">
        <ele>3000.0</ele>
        <time>2020-09-21T11:42:40Z</time>
      </trkpt>
      <trkpt lat="52.13525" lon="4.4801903">
        <ele>3000.0</ele>
        <time>2020-09-21T11:42:41Z</time>
      </trkpt>
      <trkpt lat="52.13528" lon="4.4801598">
        <ele>3000.0</ele>
        <time>2020-09-21T11:42:42Z</time>
      </trkpt>
      <trkpt lat="52.135315" lon="4.4801326">
        <ele>3000.0</ele>
        <time>2020-09-21T11:42:43Z</time>
      </trkpt>
      <trkpt lat="52.135345" lon="4.4801087">
        <ele>3000.0</ele>
        <time>2020-09-21T11:42:44Z</time>
      </trkpt>
      <trkpt lat="52.135384" lon="4.4800897">
        <ele>3000.0</ele>
        <time>2020-09-21T11:42:45Z</time>
      </trkpt>
      <trkpt lat="52.135418" lon="4.4800725">
        <ele>3000.0</ele>
        <time>2020-09-21T11:42:47Z</time>
      </trkpt>
      <trkpt lat="52.13545" lon="4.480054">
        <ele>3000.0</ele>
        <time>2020-09-21T11:42:47Z</time>
      </trkpt>
      <trkpt lat="52.135487" lon="4.4800305">
        <ele>3000.0</ele>
        <time>2020-09-21T11:42:48Z</time>
      </trkpt>
      <trkpt lat="52.135517" lon="4.480004">
        <ele>3000.0</ele>
        <time>2020-09-21T11:42:49Z</time>
      </trkpt>
      <trkpt lat="52.135548" lon="4.479977">
        <ele>3000.0</ele>
        <time>2020-09-21T11:42:50Z</time>
      </trkpt>
      <trkpt lat="52.13558" lon="4.47995">
        <ele>3000.0</ele>
        <time>2020-09-21T11:42:51Z</time>
      </trkpt>
      <trkpt lat="52.135605" lon="4.4799185">
        <ele>3000.0</ele>
        <time>2020-09-21T11:42:52Z</time>
      </trkpt>
      <trkpt lat="52.135635" lon="4.4798846">
        <ele>3000.0</ele>
        <time>2020-09-21T11:42:53Z</time>
      </trkpt>
      <trkpt lat="52.13566" lon="4.479851">
        <ele>3000.0</ele>
        <time>2020-09-21T11:42:54Z</time>
      </trkpt>
      <trkpt lat="52.13569" lon="4.4798183">
        <ele>3000.0</ele>
        <time>2020-09-21T11:42:55Z</time>
      </trkpt>
      <trkpt lat="52.135715" lon="4.4797864">
        <ele>3000.0</ele>
        <time>2020-09-21T11:42:56Z</time>
      </trkpt>
      <trkpt lat="52.135742" lon="4.4797554">
        <ele>3000.0</ele>
        <time>2020-09-21T11:42:57Z</time>
      </trkpt>
      <trkpt lat="52.135773" lon="4.479722">
        <ele>3000.0</ele>
        <time>2020-09-21T11:42:58Z</time>
      </trkpt>
      <trkpt lat="52.1358" lon="4.47969">
        <ele>3000.0</ele>
        <time>2020-09-21T11:42:59Z</time>
      </trkpt>
      <trkpt lat="52.13583" lon="4.47966">
        <ele>3000.0</ele>
        <time>2020-09-21T11:43:00Z</time>
      </trkpt>
      <trkpt lat="52.13586" lon="4.4796314">
        <ele>3000.0</ele>
        <time>2020-09-21T11:43:01Z</time>
      </trkpt>
      <trkpt lat="52.135883" lon="4.4796047">
        <ele>3000.0</ele>
        <time>2020-09-21T11:43:02Z</time>
      </trkpt>
      <trkpt lat="52.135914" lon="4.479578">
        <ele>3000.0</ele>
        <time>2020-09-21T11:43:03Z</time>
      </trkpt>
      <trkpt lat="52.135944" lon="4.479549">
        <ele>3000.0</ele>
        <time>2020-09-21T11:43:04Z</time>
      </trkpt>
      <trkpt lat="52.13597" lon="4.479519">
        <ele>3000.0</ele>
        <time>2020-09-21T11:43:05Z</time>
      </trkpt>
      <trkpt lat="52.135998" lon="4.479489">
        <ele>3000.0</ele>
        <time>2020-09-21T11:43:06Z</time>
      </trkpt>
      <trkpt lat="52.13603" lon="4.479456">
        <ele>3000.0</ele>
        <time>2020-09-21T11:43:08Z</time>
      </trkpt>
      <trkpt lat="52.136055" lon="4.4794273">
        <ele>3000.0</ele>
        <time>2020-09-21T11:43:08Z</time>
      </trkpt>
      <trkpt lat="52.136086" lon="4.4794">
        <ele>3000.0</ele>
        <time>2020-09-21T11:43:09Z</time>
      </trkpt>
      <trkpt lat="52.13611" lon="4.479374">
        <ele>3000.0</ele>
        <time>2020-09-21T11:43:10Z</time>
      </trkpt>
      <trkpt lat="52.136135" lon="4.479348">
        <ele>3000.0</ele>
        <time>2020-09-21T11:43:11Z</time>
      </trkpt>
      <trkpt lat="52.13616" lon="4.479324">
        <ele>3000.0</ele>
        <time>2020-09-21T11:43:12Z</time>
      </trkpt>
      <trkpt lat="52.13618" lon="4.4792986">
        <ele>3000.0</ele>
        <time>2020-09-21T11:43:13Z</time>
      </trkpt>
      <trkpt lat="52.136208" lon="4.479275">
        <ele>3000.0</ele>
        <time>2020-09-21T11:43:14Z</time>
      </trkpt>
      <trkpt lat="52.136227" lon="4.4792566">
        <ele>3000.0</ele>
        <time>2020-09-21T11:43:15Z</time>
      </trkpt>
      <trkpt lat="52.136253" lon="4.4792395">
        <ele>3100.0</ele>
        <time>2020-09-21T11:43:16Z</time>
      </trkpt>
      <trkpt lat="52.136272" lon="4.4792213">
        <ele>3100.0</ele>
        <time>2020-09-21T11:43:17Z</time>
      </trkpt>
      <trkpt lat="52.136295" lon="4.479199">
        <ele>3100.0</ele>
        <time>2020-09-21T11:43:18Z</time>
      </trkpt>
      <trkpt lat="52.136314" lon="4.479178">
        <ele>3100.0</ele>
        <time>2020-09-21T11:43:19Z</time>
      </trkpt>
      <trkpt lat="52.136333" lon="4.479156">
        <ele>3100.0</ele>
        <time>2020-09-21T11:43:20Z</time>
      </trkpt>
      <trkpt lat="52.136356" lon="4.4791317">
        <ele>3100.0</ele>
        <time>2020-09-21T11:43:21Z</time>
      </trkpt>
      <trkpt lat="52.13637" lon="4.4791107">
        <ele>3100.0</ele>
        <time>2020-09-21T11:43:22Z</time>
      </trkpt>
      <trkpt lat="52.136387" lon="4.4790926">
        <ele>3100.0</ele>
        <time>2020-09-21T11:43:23Z</time>
      </trkpt>
      <trkpt lat="52.1364" lon="4.4790754">
        <ele>3100.0</ele>
        <time>2020-09-21T11:43:24Z</time>
      </trkpt>
      <trkpt lat="52.136402" lon="4.4790554">
        <ele>3100.0</ele>
        <time>2020-09-21T11:43:26Z</time>
      </trkpt>
      <trkpt lat="52.136402" lon="4.4790325">
        <ele>3100.0</ele>
        <time>2020-09-21T11:43:26Z</time>
      </trkpt>
      <trkpt lat="52.1364" lon="4.479004">
        <ele>3100.0</ele>
        <time>2020-09-21T11:43:26Z</time>
      </trkpt>
      <trkpt lat="52.136387" lon="4.4789705">
        <ele>3100.0</ele>
        <time>2020-09-21T11:43:27Z</time>
      </trkpt>
      <trkpt lat="52.13637" lon="4.4789333">
        <ele>3100.0</ele>
        <time>2020-09-21T11:43:28Z</time>
      </trkpt>
      <trkpt lat="52.13636" lon="4.478897">
        <ele>3100.0</ele>
        <time>2020-09-21T11:43:29Z</time>
      </trkpt>
      <trkpt lat="52.13634" lon="4.4788537">
        <ele>3100.0</ele>
        <time>2020-09-21T11:43:30Z</time>
      </trkpt>
      <trkpt lat="52.13632" lon="4.4788036">
        <ele>3100.0</ele>
        <time>2020-09-21T11:43:31Z</time>
      </trkpt>
      <trkpt lat="52.1363" lon="4.478751">
        <ele>3100.0</ele>
        <time>2020-09-21T11:43:32Z</time>
      </trkpt>
      <trkpt lat="52.13628" lon="4.478696">
        <ele>3100.0</ele>
        <time>2020-09-21T11:43:33Z</time>
      </trkpt>
      <trkpt lat="52.136257" lon="4.4786396">
        <ele>3100.0</ele>
        <time>2020-09-21T11:43:35Z</time>
      </trkpt>
      <trkpt lat="52.13624" lon="4.478583">
        <ele>3100.0</ele>
        <time>2020-09-21T11:43:35Z</time>
      </trkpt>
      <trkpt lat="52.136223" lon="4.478524">
        <ele>3100.0</ele>
        <time>2020-09-21T11:43:36Z</time>
      </trkpt>
      <trkpt lat="52.136208" lon="4.478467">
        <ele>3100.0</ele>
        <time>2020-09-21T11:43:37Z</time>
      </trkpt>
      <trkpt lat="52.13619" lon="4.4784117">
        <ele>3100.0</ele>
        <time>2020-09-21T11:43:38Z</time>
      </trkpt>
      <trkpt lat="52.136173" lon="4.4783583">
        <ele>3100.0</ele>
        <time>2020-09-21T11:43:39Z</time>
      </trkpt>
      <trkpt lat="52.136158" lon="4.478304">
        <ele>3100.0</ele>
        <time>2020-09-21T11:43:40Z</time>
      </trkpt>
      <trkpt lat="52.13614" lon="4.4782486">
        <ele>3100.0</ele>
        <time>2020-09-21T11:43:41Z</time>
      </trkpt>
      <trkpt lat="52.13613" lon="4.47819">
        <ele>3100.0</ele>
        <time>2020-09-21T11:43:42Z</time>
      </trkpt>
      <trkpt lat="52.13612" lon="4.478132">
        <ele>3100.0</ele>
        <time>2020-09-21T11:43:43Z</time>
      </trkpt>
      <trkpt lat="52.13611" lon="4.4780746">
        <ele>3100.0</ele>
        <time>2020-09-21T11:43:44Z</time>
      </trkpt>
      <trkpt lat="52.1361" lon="4.4780207">
        <ele>3100.0</ele>
        <time>2020-09-21T11:43:46Z</time>
      </trkpt>
      <trkpt lat="52.13609" lon="4.4779677">
        <ele>3100.0</ele>
        <time>2020-09-21T11:43:46Z</time>
      </trkpt>
      <trkpt lat="52.136086" lon="4.4779143">
        <ele>3100.0</ele>
        <time>2020-09-21T11:43:47Z</time>
      </trkpt>
      <trkpt lat="52.136078" lon="4.4778605">
        <ele>3100.0</ele>
        <time>2020-09-21T11:43:48Z</time>
      </trkpt>
      <trkpt lat="52.136074" lon="4.477809">
        <ele>3100.0</ele>
        <time>2020-09-21T11:43:49Z</time>
      </trkpt>
      <trkpt lat="52.13607" lon="4.4777594">
        <ele>3100.0</ele>
        <time>2020-09-21T11:43:50Z</time>
      </trkpt>
      <trkpt lat="52.136063" lon="4.4777117">
        <ele>3100.0</ele>
        <time>2020-09-21T11:43:51Z</time>
      </trkpt>
      <trkpt lat="52.136063" lon="4.4776645">
        <ele>3100.0</ele>
        <time>2020-09-21T11:43:52Z</time>
      </trkpt>
      <trkpt lat="52.13606" lon="4.4776177">
        <ele>3100.0</ele>
        <time>2020-09-21T11:43:53Z</time>
      </trkpt>
      <trkpt lat="52.136055" lon="4.477573">
        <ele>3100.0</ele>
        <time>2020-09-21T11:43:54Z</time>
      </trkpt>
      <trkpt lat="52.136055" lon="4.477529">
        <ele>3100.0</ele>
        <time>2020-09-21T11:43:56Z</time>
      </trkpt>
      <trkpt lat="52.136047" lon="4.4774876">
        <ele>3100.0</ele>
        <time>2020-09-21T11:43:56Z</time>
      </trkpt>
      <trkpt lat="52.136044" lon="4.4774494">
        <ele>3100.0</ele>
        <time>2020-09-21T11:43:57Z</time>
      </trkpt>
      <trkpt lat="52.136044" lon="4.4774127">
        <ele>3100.0</ele>
        <time>2020-09-21T11:43:58Z</time>
      </trkpt>
      <trkpt lat="52.13604" lon="4.4773755">
        <ele>3100.0</ele>
        <time>2020-09-21T11:43:59Z</time>
      </trkpt>
      <trkpt lat="52.13604" lon="4.4773426">
        <ele>3100.0</ele>
        <time>2020-09-21T11:44:00Z</time>
      </trkpt>
      <trkpt lat="52.136032" lon="4.4773173">
        <ele>3100.0</ele>
        <time>2020-09-21T11:44:01Z</time>
      </trkpt>
      <trkpt lat="52.136032" lon="4.4773">
        <ele>3100.0</ele>
        <time>2020-09-21T11:44:02Z</time>
      </trkpt>
      <trkpt lat="52.136024" lon="4.4772706">
        <ele>3100.0</ele>
        <time>2020-09-21T11:44:04Z</time>
      </trkpt>
      <trkpt lat="52.13603" lon="4.4772744">
        <ele>3100.0</ele>
        <time>2020-09-21T11:44:05Z</time>
      </trkpt>
      <trkpt lat="52.13603" lon="4.477279">
        <ele>3100.0</ele>
        <time>2020-09-21T11:44:07Z</time>
      </trkpt>
      <trkpt lat="52.13603" lon="4.477281">
        <ele>3100.0</ele>
        <time>2020-09-21T11:44:07Z</time>
      </trkpt>
      <trkpt lat="52.136032" lon="4.477284">
        <ele>3100.0</ele>
        <time>2020-09-21T11:44:09Z</time>
      </trkpt>
      <trkpt lat="52.136032" lon="4.477283">
        <ele>3100.0</ele>
        <time>2020-09-21T11:44:10Z</time>
      </trkpt>
      <trkpt lat="52.136032" lon="4.477282">
        <ele>3100.0</ele>
        <time>2020-09-21T11:44:11Z</time>
      </trkpt>
      <trkpt lat="52.136032" lon="4.477281">
        <ele>3100.0</ele>
        <time>2020-09-21T11:44:12Z</time>
      </trkpt>
      <trkpt lat="52.13604" lon="4.477284">
        <ele>3100.0</ele>
        <time>2020-09-21T11:44:28Z</time>
      </trkpt>
      <trkpt lat="52.136044" lon="4.477286">
        <ele>3100.0</ele>
        <time>2020-09-21T11:44:30Z</time>
      </trkpt>
      <trkpt lat="52.136047" lon="4.477286">
        <ele>3100.0</ele>
        <time>2020-09-21T11:44:32Z</time>
      </trkpt>
      <trkpt lat="52.136055" lon="4.4772887">
        <ele>3100.0</ele>
        <time>2020-09-21T11:44:33Z</time>
      </trkpt>
      <trkpt lat="52.136055" lon="4.477296">
        <ele>3100.0</ele>
        <time>2020-09-21T11:44:35Z</time>
      </trkpt>
      <trkpt lat="52.136055" lon="4.4772964">
        <ele>3100.0</ele>
        <time>2020-09-21T11:44:36Z</time>
      </trkpt>
      <trkpt lat="52.136055" lon="4.4773054">
        <ele>3100.0</ele>
        <time>2020-09-21T11:44:38Z</time>
      </trkpt>
      <trkpt lat="52.136055" lon="4.4773107">
        <ele>3100.0</ele>
        <time>2020-09-21T11:44:41Z</time>
      </trkpt>
      <trkpt lat="52.136047" lon="4.4773107">
        <ele>3100.0</ele>
        <time>2020-09-21T11:44:50Z</time>
      </trkpt>
      <trkpt lat="52.136044" lon="4.4773073">
        <ele>3100.0</ele>
        <time>2020-09-21T11:44:56Z</time>
      </trkpt>
      <trkpt lat="52.13604" lon="4.4772973">
        <ele>3100.0</ele>
        <time>2020-09-21T11:44:59Z</time>
      </trkpt>
      <trkpt lat="52.13604" lon="4.477291">
        <ele>3100.0</ele>
        <time>2020-09-21T11:45:00Z</time>
      </trkpt>
      <trkpt lat="52.136032" lon="4.477278">
        <ele>3100.0</ele>
        <time>2020-09-21T11:45:01Z</time>
      </trkpt>
      <trkpt lat="52.13603" lon="4.4772544">
        <ele>3100.0</ele>
        <time>2020-09-21T11:45:02Z</time>
      </trkpt>
      <trkpt lat="52.136024" lon="4.477219">
        <ele>3100.0</ele>
        <time>2020-09-21T11:45:03Z</time>
      </trkpt>
      <trkpt lat="52.136017" lon="4.477175">
        <ele>3100.0</ele>
        <time>2020-09-21T11:45:04Z</time>
      </trkpt>
      <trkpt lat="52.13601" lon="4.4771266">
        <ele>3100.0</ele>
        <time>2020-09-21T11:45:05Z</time>
      </trkpt>
      <trkpt lat="52.136" lon="4.477078">
        <ele>3100.0</ele>
        <time>2020-09-21T11:45:06Z</time>
      </trkpt>
      <trkpt lat="52.135994" lon="4.477023">
        <ele>3100.0</ele>
        <time>2020-09-21T11:45:07Z</time>
      </trkpt>
      <trkpt lat="52.135983" lon="4.4769707">
        <ele>3100.0</ele>
        <time>2020-09-21T11:45:08Z</time>
      </trkpt>
      <trkpt lat="52.13597" lon="4.476915">
        <ele>3100.0</ele>
        <time>2020-09-21T11:45:09Z</time>
      </trkpt>
      <trkpt lat="52.135967" lon="4.476865">
        <ele>3100.0</ele>
        <time>2020-09-21T11:45:10Z</time>
      </trkpt>
      <trkpt lat="52.135956" lon="4.476812">
        <ele>3100.0</ele>
        <time>2020-09-21T11:45:12Z</time>
      </trkpt>
      <trkpt lat="52.135952" lon="4.4767585">
        <ele>3100.0</ele>
        <time>2020-09-21T11:45:12Z</time>
      </trkpt>
      <trkpt lat="52.13594" lon="4.476705">
        <ele>3100.0</ele>
        <time>2020-09-21T11:45:13Z</time>
      </trkpt>
      <trkpt lat="52.13593" lon="4.4766517">
        <ele>3100.0</ele>
        <time>2020-09-21T11:45:14Z</time>
      </trkpt>
      <trkpt lat="52.135914" lon="4.4765987">
        <ele>3100.0</ele>
        <time>2020-09-21T11:45:15Z</time>
      </trkpt>
      <trkpt lat="52.135906" lon="4.476544">
        <ele>3100.0</ele>
        <time>2020-09-21T11:45:16Z</time>
      </trkpt>
      <trkpt lat="52.13589" lon="4.476493">
        <ele>3100.0</ele>
        <time>2020-09-21T11:45:17Z</time>
      </trkpt>
      <trkpt lat="52.135868" lon="4.4764357">
        <ele>3100.0</ele>
        <time>2020-09-21T11:45:19Z</time>
      </trkpt>
      <trkpt lat="52.135853" lon="4.4763803">
        <ele>3100.0</ele>
        <time>2020-09-21T11:45:19Z</time>
      </trkpt>
      <trkpt lat="52.135834" lon="4.476326">
        <ele>3100.0</ele>
        <time>2020-09-21T11:45:20Z</time>
      </trkpt>
      <trkpt lat="52.135815" lon="4.476272">
        <ele>3100.0</ele>
        <time>2020-09-21T11:45:21Z</time>
      </trkpt>
      <trkpt lat="52.135788" lon="4.4762206">
        <ele>3100.0</ele>
        <time>2020-09-21T11:45:22Z</time>
      </trkpt>
      <trkpt lat="52.13577" lon="4.4761686">
        <ele>3100.0</ele>
        <time>2020-09-21T11:45:23Z</time>
      </trkpt>
      <trkpt lat="52.135746" lon="4.4761147">
        <ele>3100.0</ele>
        <time>2020-09-21T11:45:24Z</time>
      </trkpt>
      <trkpt lat="52.13572" lon="4.476062">
        <ele>3100.0</ele>
        <time>2020-09-21T11:45:25Z</time>
      </trkpt>
      <trkpt lat="52.1357" lon="4.4760113">
        <ele>3100.0</ele>
        <time>2020-09-21T11:45:26Z</time>
      </trkpt>
      <trkpt lat="52.13568" lon="4.4759617">
        <ele>3100.0</ele>
        <time>2020-09-21T11:45:27Z</time>
      </trkpt>
      <trkpt lat="52.13566" lon="4.4759135">
        <ele>3100.0</ele>
        <time>2020-09-21T11:45:28Z</time>
      </trkpt>
      <trkpt lat="52.13564" lon="4.4758615">
        <ele>3100.0</ele>
        <time>2020-09-21T11:45:29Z</time>
      </trkpt>
      <trkpt lat="52.13562" lon="4.4758115">
        <ele>3100.0</ele>
        <time>2020-09-21T11:45:30Z</time>
      </trkpt>
      <trkpt lat="52.135593" lon="4.475755">
        <ele>3100.0</ele>
        <time>2020-09-21T11:45:31Z</time>
      </trkpt>
      <trkpt lat="52.135574" lon="4.4757004">
        <ele>3100.0</ele>
        <time>2020-09-21T11:45:32Z</time>
      </trkpt>
      <trkpt lat="52.135548" lon="4.4756403">
        <ele>3100.0</ele>
        <time>2020-09-21T11:45:33Z</time>
      </trkpt>
      <trkpt lat="52.135525" lon="4.4755826">
        <ele>3100.0</ele>
        <time>2020-09-21T11:45:34Z</time>
      </trkpt>
      <trkpt lat="52.135506" lon="4.475525">
        <ele>3100.0</ele>
        <time>2020-09-21T11:45:35Z</time>
      </trkpt>
      <trkpt lat="52.13548" lon="4.4754653">
        <ele>3100.0</ele>
        <time>2020-09-21T11:45:36Z</time>
      </trkpt>
      <trkpt lat="52.135456" lon="4.475407">
        <ele>3100.0</ele>
        <time>2020-09-21T11:45:37Z</time>
      </trkpt>
      <trkpt lat="52.135433" lon="4.475347">
        <ele>3100.0</ele>
        <time>2020-09-21T11:45:38Z</time>
      </trkpt>
      <trkpt lat="52.13541" lon="4.475287">
        <ele>3100.0</ele>
        <time>2020-09-21T11:45:40Z</time>
      </trkpt>
      <trkpt lat="52.135387" lon="4.4752274">
        <ele>3100.0</ele>
        <time>2020-09-21T11:45:40Z</time>
      </trkpt>
      <trkpt lat="52.13537" lon="4.4751687">
        <ele>3100.0</ele>
        <time>2020-09-21T11:45:41Z</time>
      </trkpt>
      <trkpt lat="52.135345" lon="4.4751124">
        <ele>3100.0</ele>
        <time>2020-09-21T11:45:42Z</time>
      </trkpt>
      <trkpt lat="52.135326" lon="4.475053">
        <ele>3100.0</ele>
        <time>2020-09-21T11:45:43Z</time>
      </trkpt>
      <trkpt lat="52.13531" lon="4.474992">
        <ele>3100.0</ele>
        <time>2020-09-21T11:45:44Z</time>
      </trkpt>
      <trkpt lat="52.135292" lon="4.474938">
        <ele>3100.0</ele>
        <time>2020-09-21T11:45:45Z</time>
      </trkpt>
      <trkpt lat="52.13527" lon="4.4748898">
        <ele>3100.0</ele>
        <time>2020-09-21T11:45:46Z</time>
      </trkpt>
      <trkpt lat="52.13525" lon="4.474839">
        <ele>3100.0</ele>
        <time>2020-09-21T11:45:47Z</time>
      </trkpt>
      <trkpt lat="52.13523" lon="4.474787">
        <ele>3100.0</ele>
        <time>2020-09-21T11:45:48Z</time>
      </trkpt>
      <trkpt lat="52.13521" lon="4.4747353">
        <ele>3100.0</ele>
        <time>2020-09-21T11:45:49Z</time>
      </trkpt>
      <trkpt lat="52.13519" lon="4.474686">
        <ele>3100.0</ele>
        <time>2020-09-21T11:45:51Z</time>
      </trkpt>
      <trkpt lat="52.135166" lon="4.474632">
        <ele>3100.0</ele>
        <time>2020-09-21T11:45:51Z</time>
      </trkpt>
      <trkpt lat="52.135143" lon="4.47458">
        <ele>3100.0</ele>
        <time>2020-09-21T11:45:52Z</time>
      </trkpt>
      <trkpt lat="52.135117" lon="4.474532">
        <ele>3100.0</ele>
        <time>2020-09-21T11:45:53Z</time>
      </trkpt>
      <trkpt lat="52.13509" lon="4.474488">
        <ele>3100.0</ele>
        <time>2020-09-21T11:45:54Z</time>
      </trkpt>
      <trkpt lat="52.13506" lon="4.4744444">
        <ele>3100.0</ele>
        <time>2020-09-21T11:45:55Z</time>
      </trkpt>
      <trkpt lat="52.13503" lon="4.4744024">
        <ele>3100.0</ele>
        <time>2020-09-21T11:45:56Z</time>
      </trkpt>
      <trkpt lat="52.135" lon="4.474364">
        <ele>3100.0</ele>
        <time>2020-09-21T11:45:57Z</time>
      </trkpt>
      <trkpt lat="52.134968" lon="4.4743257">
        <ele>3100.0</ele>
        <time>2020-09-21T11:45:58Z</time>
      </trkpt>
      <trkpt lat="52.134937" lon="4.4742913">
        <ele>3100.0</ele>
        <time>2020-09-21T11:45:59Z</time>
      </trkpt>
      <trkpt lat="52.13491" lon="4.474265">
        <ele>3100.0</ele>
        <time>2020-09-21T11:46:01Z</time>
      </trkpt>
      <trkpt lat="52.13488" lon="4.474242">
        <ele>3100.0</ele>
        <time>2020-09-21T11:46:01Z</time>
      </trkpt>
      <trkpt lat="52.134857" lon="4.4742203">
        <ele>3100.0</ele>
        <time>2020-09-21T11:46:02Z</time>
      </trkpt>
      <trkpt lat="52.13483" lon="4.474199">
        <ele>3100.0</ele>
        <time>2020-09-21T11:46:03Z</time>
      </trkpt>
      <trkpt lat="52.1348" lon="4.4741745">
        <ele>3100.0</ele>
        <time>2020-09-21T11:46:04Z</time>
      </trkpt>
      <trkpt lat="52.13477" lon="4.4741483">
        <ele>3100.0</ele>
        <time>2020-09-21T11:46:05Z</time>
      </trkpt>
      <trkpt lat="52.13473" lon="4.4741206">
        <ele>3100.0</ele>
        <time>2020-09-21T11:46:06Z</time>
      </trkpt>
      <trkpt lat="52.1347" lon="4.4740925">
        <ele>3100.0</ele>
        <time>2020-09-21T11:46:07Z</time>
      </trkpt>
      <trkpt lat="52.134666" lon="4.4740634">
        <ele>3100.0</ele>
        <time>2020-09-21T11:46:08Z</time>
      </trkpt>
      <trkpt lat="52.134636" lon="4.474034">
        <ele>3100.0</ele>
        <time>2020-09-21T11:46:09Z</time>
      </trkpt>
      <trkpt lat="52.134598" lon="4.4740043">
        <ele>3100.0</ele>
        <time>2020-09-21T11:46:10Z</time>
      </trkpt>
      <trkpt lat="52.134563" lon="4.473978">
        <ele>3100.0</ele>
        <time>2020-09-21T11:46:11Z</time>
      </trkpt>
      <trkpt lat="52.13453" lon="4.47395">
        <ele>3100.0</ele>
        <time>2020-09-21T11:46:12Z</time>
      </trkpt>
      <trkpt lat="52.13449" lon="4.4739237">
        <ele>3100.0</ele>
        <time>2020-09-21T11:46:13Z</time>
      </trkpt>
      <trkpt lat="52.134453" lon="4.4738975">
        <ele>3100.0</ele>
        <time>2020-09-21T11:46:14Z</time>
      </trkpt>
      <trkpt lat="52.13441" lon="4.473871">
        <ele>3100.0</ele>
        <time>2020-09-21T11:46:15Z</time>
      </trkpt>
      <trkpt lat="52.13437" lon="4.4738455">
        <ele>3100.0</ele>
        <time>2020-09-21T11:46:16Z</time>
      </trkpt>
      <trkpt lat="52.134335" lon="4.473823">
        <ele>3100.0</ele>
        <time>2020-09-21T11:46:17Z</time>
      </trkpt>
      <trkpt lat="52.134293" lon="4.4738007">
        <ele>3100.0</ele>
        <time>2020-09-21T11:46:18Z</time>
      </trkpt>
      <trkpt lat="52.13426" lon="4.4737797">
        <ele>3100.0</ele>
        <time>2020-09-21T11:46:19Z</time>
      </trkpt>
      <trkpt lat="52.13422" lon="4.4737544">
        <ele>3100.0</ele>
        <time>2020-09-21T11:46:20Z</time>
      </trkpt>
      <trkpt lat="52.134186" lon="4.4737263">
        <ele>3100.0</ele>
        <time>2020-09-21T11:46:22Z</time>
      </trkpt>
      <trkpt lat="52.134148" lon="4.473694">
        <ele>3100.0</ele>
        <time>2020-09-21T11:46:22Z</time>
      </trkpt>
      <trkpt lat="52.13411" lon="4.473655">
        <ele>3100.0</ele>
        <time>2020-09-21T11:46:23Z</time>
      </trkpt>
      <trkpt lat="52.13407" lon="4.473614">
        <ele>3100.0</ele>
        <time>2020-09-21T11:46:24Z</time>
      </trkpt>
      <trkpt lat="52.133945" lon="4.473461">
        <ele>3100.0</ele>
        <time>2020-09-21T11:46:26Z</time>
      </trkpt>
      <trkpt lat="52.133934" lon="4.4734507">
        <ele>3100.0</ele>
        <time>2020-09-21T11:46:27Z</time>
      </trkpt>
      <trkpt lat="52.13392" lon="4.473428">
        <ele>3100.0</ele>
        <time>2020-09-21T11:46:28Z</time>
      </trkpt>
      <trkpt lat="52.133904" lon="4.4733963">
        <ele>3100.0</ele>
        <time>2020-09-21T11:46:29Z</time>
      </trkpt>
      <trkpt lat="52.133884" lon="4.4733596">
        <ele>3100.0</ele>
        <time>2020-09-21T11:46:30Z</time>
      </trkpt>
      <trkpt lat="52.13386" lon="4.473321">
        <ele>3100.0</ele>
        <time>2020-09-21T11:46:31Z</time>
      </trkpt>
      <trkpt lat="52.133842" lon="4.473283">
        <ele>3100.0</ele>
        <time>2020-09-21T11:46:33Z</time>
      </trkpt>
      <trkpt lat="52.133827" lon="4.4732404">
        <ele>3100.0</ele>
        <time>2020-09-21T11:46:33Z</time>
      </trkpt>
      <trkpt lat="52.133812" lon="4.4731994">
        <ele>3100.0</ele>
        <time>2020-09-21T11:46:34Z</time>
      </trkpt>
      <trkpt lat="52.133797" lon="4.4731607">
        <ele>3100.0</ele>
        <time>2020-09-21T11:46:35Z</time>
      </trkpt>
      <trkpt lat="52.13378" lon="4.47312">
        <ele>3100.0</ele>
        <time>2020-09-21T11:46:36Z</time>
      </trkpt>
      <trkpt lat="52.13377" lon="4.4730744">
        <ele>3100.0</ele>
        <time>2020-09-21T11:46:37Z</time>
      </trkpt>
      <trkpt lat="52.13376" lon="4.4730253">
        <ele>3100.0</ele>
        <time>2020-09-21T11:46:38Z</time>
      </trkpt>
      <trkpt lat="52.133755" lon="4.472976">
        <ele>3100.0</ele>
        <time>2020-09-21T11:46:39Z</time>
      </trkpt>
      <trkpt lat="52.133755" lon="4.4729285">
        <ele>3100.0</ele>
        <time>2020-09-21T11:46:40Z</time>
      </trkpt>
      <trkpt lat="52.133766" lon="4.4728856">
        <ele>3100.0</ele>
        <time>2020-09-21T11:46:41Z</time>
      </trkpt>
      <trkpt lat="52.13378" lon="4.4728436">
        <ele>3100.0</ele>
        <time>2020-09-21T11:46:43Z</time>
      </trkpt>
      <trkpt lat="52.1338" lon="4.472805">
        <ele>3100.0</ele>
        <time>2020-09-21T11:46:43Z</time>
      </trkpt>
      <trkpt lat="52.133827" lon="4.4727716">
        <ele>3100.0</ele>
        <time>2020-09-21T11:46:44Z</time>
      </trkpt>
      <trkpt lat="52.133854" lon="4.4727407">
        <ele>3100.0</ele>
        <time>2020-09-21T11:46:45Z</time>
      </trkpt>
      <trkpt lat="52.133884" lon="4.472711">
        <ele>3100.0</ele>
        <time>2020-09-21T11:46:46Z</time>
      </trkpt>
      <trkpt lat="52.133915" lon="4.4726825">
        <ele>3100.0</ele>
        <time>2020-09-21T11:46:47Z</time>
      </trkpt>
      <trkpt lat="52.133945" lon="4.472653">
        <ele>3100.0</ele>
        <time>2020-09-21T11:46:48Z</time>
      </trkpt>
      <trkpt lat="52.13398" lon="4.472625">
        <ele>3100.0</ele>
        <time>2020-09-21T11:46:49Z</time>
      </trkpt>
      <trkpt lat="52.13401" lon="4.4725966">
        <ele>3100.0</ele>
        <time>2020-09-21T11:46:50Z</time>
      </trkpt>
      <trkpt lat="52.13405" lon="4.472572">
        <ele>3100.0</ele>
        <time>2020-09-21T11:46:51Z</time>
      </trkpt>
      <trkpt lat="52.134083" lon="4.472543">
        <ele>3100.0</ele>
        <time>2020-09-21T11:46:52Z</time>
      </trkpt>
      <trkpt lat="52.134113" lon="4.472512">
        <ele>3100.0</ele>
        <time>2020-09-21T11:46:54Z</time>
      </trkpt>
      <trkpt lat="52.134144" lon="4.472481">
        <ele>3100.0</ele>
        <time>2020-09-21T11:46:54Z</time>
      </trkpt>
      <trkpt lat="52.134174" lon="4.472447">
        <ele>3100.0</ele>
        <time>2020-09-21T11:46:55Z</time>
      </trkpt>
      <trkpt lat="52.1342" lon="4.472413">
        <ele>3100.0</ele>
        <time>2020-09-21T11:46:56Z</time>
      </trkpt>
      <trkpt lat="52.13422" lon="4.472376">
        <ele>3100.0</ele>
        <time>2020-09-21T11:46:57Z</time>
      </trkpt>
      <trkpt lat="52.13423" lon="4.472333">
        <ele>3100.0</ele>
        <time>2020-09-21T11:46:58Z</time>
      </trkpt>
      <trkpt lat="52.134235" lon="4.47229">
        <ele>3100.0</ele>
        <time>2020-09-21T11:46:59Z</time>
      </trkpt>
      <trkpt lat="52.13423" lon="4.472246">
        <ele>3100.0</ele>
        <time>2020-09-21T11:47:00Z</time>
      </trkpt>
      <trkpt lat="52.13422" lon="4.4722085">
        <ele>3100.0</ele>
        <time>2020-09-21T11:47:01Z</time>
      </trkpt>
      <trkpt lat="52.1342" lon="4.4721684">
        <ele>3100.0</ele>
        <time>2020-09-21T11:47:02Z</time>
      </trkpt>
      <trkpt lat="52.13418" lon="4.472122">
        <ele>3100.0</ele>
        <time>2020-09-21T11:47:04Z</time>
      </trkpt>
      <trkpt lat="52.134155" lon="4.4720693">
        <ele>3100.0</ele>
        <time>2020-09-21T11:47:04Z</time>
      </trkpt>
      <trkpt lat="52.134125" lon="4.4720135">
        <ele>3100.0</ele>
        <time>2020-09-21T11:47:05Z</time>
      </trkpt>
      <trkpt lat="52.134094" lon="4.471959">
        <ele>3100.0</ele>
        <time>2020-09-21T11:47:06Z</time>
      </trkpt>
      <trkpt lat="52.134064" lon="4.4719048">
        <ele>3100.0</ele>
        <time>2020-09-21T11:47:07Z</time>
      </trkpt>
      <trkpt lat="52.134033" lon="4.471849">
        <ele>3100.0</ele>
        <time>2020-09-21T11:47:08Z</time>
      </trkpt>
      <trkpt lat="52.134007" lon="4.471794">
        <ele>3100.0</ele>
        <time>2020-09-21T11:47:09Z</time>
      </trkpt>
      <trkpt lat="52.13398" lon="4.471739">
        <ele>3100.0</ele>
        <time>2020-09-21T11:47:10Z</time>
      </trkpt>
      <trkpt lat="52.133953" lon="4.471686">
        <ele>3100.0</ele>
        <time>2020-09-21T11:47:11Z</time>
      </trkpt>
      <trkpt lat="52.133934" lon="4.4716334">
        <ele>3100.0</ele>
        <time>2020-09-21T11:47:12Z</time>
      </trkpt>
      <trkpt lat="52.133907" lon="4.471579">
        <ele>3100.0</ele>
        <time>2020-09-21T11:47:13Z</time>
      </trkpt>
      <trkpt lat="52.13389" lon="4.4715276">
        <ele>3100.0</ele>
        <time>2020-09-21T11:47:14Z</time>
      </trkpt>
      <trkpt lat="52.13387" lon="4.4714704">
        <ele>3100.0</ele>
        <time>2020-09-21T11:47:15Z</time>
      </trkpt>
      <trkpt lat="52.133846" lon="4.471419">
        <ele>3100.0</ele>
        <time>2020-09-21T11:47:16Z</time>
      </trkpt>
      <trkpt lat="52.13382" lon="4.4713697">
        <ele>3100.0</ele>
        <time>2020-09-21T11:47:17Z</time>
      </trkpt>
      <trkpt lat="52.133797" lon="4.4713173">
        <ele>3100.0</ele>
        <time>2020-09-21T11:47:18Z</time>
      </trkpt>
      <trkpt lat="52.13377" lon="4.4712615">
        <ele>3100.0</ele>
        <time>2020-09-21T11:47:19Z</time>
      </trkpt>
      <trkpt lat="52.133743" lon="4.4712024">
        <ele>3100.0</ele>
        <time>2020-09-21T11:47:20Z</time>
      </trkpt>
      <trkpt lat="52.133724" lon="4.4711423">
        <ele>3100.0</ele>
        <time>2020-09-21T11:47:22Z</time>
      </trkpt>
      <trkpt lat="52.133698" lon="4.47108">
        <ele>3100.0</ele>
        <time>2020-09-21T11:47:22Z</time>
      </trkpt>
      <trkpt lat="52.13368" lon="4.4710135">
        <ele>3100.0</ele>
        <time>2020-09-21T11:47:23Z</time>
      </trkpt>
      <trkpt lat="52.13365" lon="4.4709435">
        <ele>3100.0</ele>
        <time>2020-09-21T11:47:24Z</time>
      </trkpt>
      <trkpt lat="52.133633" lon="4.470883">
        <ele>3100.0</ele>
        <time>2020-09-21T11:47:25Z</time>
      </trkpt>
      <trkpt lat="52.13361" lon="4.470822">
        <ele>3100.0</ele>
        <time>2020-09-21T11:47:26Z</time>
      </trkpt>
      <trkpt lat="52.13359" lon="4.470761">
        <ele>3100.0</ele>
        <time>2020-09-21T11:47:27Z</time>
      </trkpt>
      <trkpt lat="52.133575" lon="4.4707084">
        <ele>3100.0</ele>
        <time>2020-09-21T11:47:28Z</time>
      </trkpt>
      <trkpt lat="52.133556" lon="4.4706535">
        <ele>3100.0</ele>
        <time>2020-09-21T11:47:29Z</time>
      </trkpt>
      <trkpt lat="52.133533" lon="4.4706016">
        <ele>3100.0</ele>
        <time>2020-09-21T11:47:30Z</time>
      </trkpt>
      <trkpt lat="52.133514" lon="4.4705486">
        <ele>3100.0</ele>
        <time>2020-09-21T11:47:32Z</time>
      </trkpt>
      <trkpt lat="52.133495" lon="4.470497">
        <ele>3100.0</ele>
        <time>2020-09-21T11:47:32Z</time>
      </trkpt>
      <trkpt lat="52.13347" lon="4.4704375">
        <ele>3100.0</ele>
        <time>2020-09-21T11:47:33Z</time>
      </trkpt>
      <trkpt lat="52.13345" lon="4.4703784">
        <ele>3100.0</ele>
        <time>2020-09-21T11:47:34Z</time>
      </trkpt>
      <trkpt lat="52.133427" lon="4.4703236">
        <ele>3100.0</ele>
        <time>2020-09-21T11:47:35Z</time>
      </trkpt>
      <trkpt lat="52.13341" lon="4.4702764">
        <ele>3100.0</ele>
        <time>2020-09-21T11:47:36Z</time>
      </trkpt>
      <trkpt lat="52.133396" lon="4.4702315">
        <ele>3100.0</ele>
        <time>2020-09-21T11:47:37Z</time>
      </trkpt>
      <trkpt lat="52.13338" lon="4.470184">
        <ele>3100.0</ele>
        <time>2020-09-21T11:47:38Z</time>
      </trkpt>
      <trkpt lat="52.133366" lon="4.470134">
        <ele>3100.0</ele>
        <time>2020-09-21T11:47:39Z</time>
      </trkpt>
      <trkpt lat="52.13335" lon="4.4700875">
        <ele>3100.0</ele>
        <time>2020-09-21T11:47:40Z</time>
      </trkpt>
      <trkpt lat="52.133335" lon="4.4700418">
        <ele>3100.0</ele>
        <time>2020-09-21T11:47:41Z</time>
      </trkpt>
      <trkpt lat="52.13332" lon="4.4700017">
        <ele>3100.0</ele>
        <time>2020-09-21T11:47:41Z</time>
      </trkpt>
      <trkpt lat="52.133305" lon="4.469962">
        <ele>3100.0</ele>
        <time>2020-09-21T11:47:42Z</time>
      </trkpt>
      <trkpt lat="52.13329" lon="4.4699183">
        <ele>3100.0</ele>
        <time>2020-09-21T11:47:43Z</time>
      </trkpt>
      <trkpt lat="52.133274" lon="4.4698725">
        <ele>3100.0</ele>
        <time>2020-09-21T11:47:44Z</time>
      </trkpt>
      <trkpt lat="52.13326" lon="4.4698257">
        <ele>3100.0</ele>
        <time>2020-09-21T11:47:45Z</time>
      </trkpt>
      <trkpt lat="52.133244" lon="4.469779">
        <ele>3100.0</ele>
        <time>2020-09-21T11:47:46Z</time>
      </trkpt>
      <trkpt lat="52.13323" lon="4.469731">
        <ele>3100.0</ele>
        <time>2020-09-21T11:47:47Z</time>
      </trkpt>
      <trkpt lat="52.133205" lon="4.4696817">
        <ele>3100.0</ele>
        <time>2020-09-21T11:47:48Z</time>
      </trkpt>
      <trkpt lat="52.133186" lon="4.469638">
        <ele>3100.0</ele>
        <time>2020-09-21T11:47:49Z</time>
      </trkpt>
      <trkpt lat="52.133167" lon="4.469598">
        <ele>3100.0</ele>
        <time>2020-09-21T11:47:50Z</time>
      </trkpt>
      <trkpt lat="52.133144" lon="4.469559">
        <ele>3100.0</ele>
        <time>2020-09-21T11:47:51Z</time>
      </trkpt>
      <trkpt lat="52.13312" lon="4.4695225">
        <ele>3100.0</ele>
        <time>2020-09-21T11:47:52Z</time>
      </trkpt>
      <trkpt lat="52.133095" lon="4.469488">
        <ele>3100.0</ele>
        <time>2020-09-21T11:47:53Z</time>
      </trkpt>
      <trkpt lat="52.133068" lon="4.4694557">
        <ele>3100.0</ele>
        <time>2020-09-21T11:47:54Z</time>
      </trkpt>
      <trkpt lat="52.133038" lon="4.469425">
        <ele>3100.0</ele>
        <time>2020-09-21T11:47:55Z</time>
      </trkpt>
      <trkpt lat="52.133007" lon="4.4693956">
        <ele>3100.0</ele>
        <time>2020-09-21T11:47:56Z</time>
      </trkpt>
      <trkpt lat="52.132973" lon="4.4693646">
        <ele>3100.0</ele>
        <time>2020-09-21T11:47:57Z</time>
      </trkpt>
      <trkpt lat="52.132935" lon="4.4693346">
        <ele>3100.0</ele>
        <time>2020-09-21T11:47:58Z</time>
      </trkpt>
      <trkpt lat="52.1329" lon="4.4693093">
        <ele>3100.0</ele>
        <time>2020-09-21T11:47:59Z</time>
      </trkpt>
      <trkpt lat="52.13287" lon="4.469287">
        <ele>3100.0</ele>
        <time>2020-09-21T11:48:00Z</time>
      </trkpt>
      <trkpt lat="52.13283" lon="4.4692636">
        <ele>3100.0</ele>
        <time>2020-09-21T11:48:01Z</time>
      </trkpt>
      <trkpt lat="52.1328" lon="4.4692383">
        <ele>3100.0</ele>
        <time>2020-09-21T11:48:03Z</time>
      </trkpt>
      <trkpt lat="52.132767" lon="4.469216">
        <ele>3100.0</ele>
        <time>2020-09-21T11:48:03Z</time>
      </trkpt>
      <trkpt lat="52.132732" lon="4.4691973">
        <ele>3100.0</ele>
        <time>2020-09-21T11:48:04Z</time>
      </trkpt>
      <trkpt lat="52.132694" lon="4.4691815">
        <ele>3100.0</ele>
        <time>2020-09-21T11:48:05Z</time>
      </trkpt>
      <trkpt lat="52.132664" lon="4.469168">
        <ele>3100.0</ele>
        <time>2020-09-21T11:48:06Z</time>
      </trkpt>
      <trkpt lat="52.13263" lon="4.469155">
        <ele>3100.0</ele>
        <time>2020-09-21T11:48:07Z</time>
      </trkpt>
      <trkpt lat="52.13259" lon="4.469145">
        <ele>3100.0</ele>
        <time>2020-09-21T11:48:08Z</time>
      </trkpt>
      <trkpt lat="52.132557" lon="4.469134">
        <ele>3100.0</ele>
        <time>2020-09-21T11:48:09Z</time>
      </trkpt>
      <trkpt lat="52.132526" lon="4.4691215">
        <ele>3100.0</ele>
        <time>2020-09-21T11:48:10Z</time>
      </trkpt>
      <trkpt lat="52.132492" lon="4.469107">
        <ele>3100.0</ele>
        <time>2020-09-21T11:48:11Z</time>
      </trkpt>
      <trkpt lat="52.132458" lon="4.46909">
        <ele>3100.0</ele>
        <time>2020-09-21T11:48:12Z</time>
      </trkpt>
      <trkpt lat="52.132423" lon="4.469066">
        <ele>3100.0</ele>
        <time>2020-09-21T11:48:13Z</time>
      </trkpt>
      <trkpt lat="52.13239" lon="4.469042">
        <ele>3100.0</ele>
        <time>2020-09-21T11:48:14Z</time>
      </trkpt>
      <trkpt lat="52.13236" lon="4.469016">
        <ele>3100.0</ele>
        <time>2020-09-21T11:48:15Z</time>
      </trkpt>
      <trkpt lat="52.13233" lon="4.4689903">
        <ele>3100.0</ele>
        <time>2020-09-21T11:48:16Z</time>
      </trkpt>
      <trkpt lat="52.132298" lon="4.4689646">
        <ele>3100.0</ele>
        <time>2020-09-21T11:48:17Z</time>
      </trkpt>
      <trkpt lat="52.132263" lon="4.468941">
        <ele>3100.0</ele>
        <time>2020-09-21T11:48:18Z</time>
      </trkpt>
      <trkpt lat="52.132233" lon="4.46892">
        <ele>3100.0</ele>
        <time>2020-09-21T11:48:19Z</time>
      </trkpt>
      <trkpt lat="52.132202" lon="4.4688983">
        <ele>3100.0</ele>
        <time>2020-09-21T11:48:20Z</time>
      </trkpt>
      <trkpt lat="52.132168" lon="4.46887">
        <ele>3100.0</ele>
        <time>2020-09-21T11:48:21Z</time>
      </trkpt>
      <trkpt lat="52.132137" lon="4.468842">
        <ele>3100.0</ele>
        <time>2020-09-21T11:48:22Z</time>
      </trkpt>
      <trkpt lat="52.132103" lon="4.468819">
        <ele>3100.0</ele>
        <time>2020-09-21T11:48:23Z</time>
      </trkpt>
      <trkpt lat="52.132065" lon="4.4688025">
        <ele>3100.0</ele>
        <time>2020-09-21T11:48:24Z</time>
      </trkpt>
      <trkpt lat="52.132034" lon="4.4687915">
        <ele>3100.0</ele>
        <time>2020-09-21T11:48:25Z</time>
      </trkpt>
      <trkpt lat="52.132004" lon="4.468781">
        <ele>3100.0</ele>
        <time>2020-09-21T11:48:26Z</time>
      </trkpt>
      <trkpt lat="52.13197" lon="4.4687653">
        <ele>3100.0</ele>
        <time>2020-09-21T11:48:27Z</time>
      </trkpt>
      <trkpt lat="52.131927" lon="4.4687476">
        <ele>3100.0</ele>
        <time>2020-09-21T11:48:28Z</time>
      </trkpt>
      <trkpt lat="52.131886" lon="4.468725">
        <ele>3100.0</ele>
        <time>2020-09-21T11:48:29Z</time>
      </trkpt>
      <trkpt lat="52.131844" lon="4.4687033">
        <ele>3100.0</ele>
        <time>2020-09-21T11:48:31Z</time>
      </trkpt>
      <trkpt lat="52.13181" lon="4.4686813">
        <ele>3100.0</ele>
        <time>2020-09-21T11:48:31Z</time>
      </trkpt>
      <trkpt lat="52.131767" lon="4.468661">
        <ele>3100.0</ele>
        <time>2020-09-21T11:48:32Z</time>
      </trkpt>
      <trkpt lat="52.131733" lon="4.4686403">
        <ele>3100.0</ele>
        <time>2020-09-21T11:48:33Z</time>
      </trkpt>
      <trkpt lat="52.131695" lon="4.4686193">
        <ele>3100.0</ele>
        <time>2020-09-21T11:48:34Z</time>
      </trkpt>
      <trkpt lat="52.13166" lon="4.468597">
        <ele>3100.0</ele>
        <time>2020-09-21T11:48:35Z</time>
      </trkpt>
      <trkpt lat="52.131626" lon="4.4685726">
        <ele>3100.0</ele>
        <time>2020-09-21T11:48:36Z</time>
      </trkpt>
      <trkpt lat="52.131588" lon="4.4685473">
        <ele>3100.0</ele>
        <time>2020-09-21T11:48:37Z</time>
      </trkpt>
      <trkpt lat="52.131554" lon="4.468522">
        <ele>3100.0</ele>
        <time>2020-09-21T11:48:38Z</time>
      </trkpt>
      <trkpt lat="52.13152" lon="4.468495">
        <ele>3100.0</ele>
        <time>2020-09-21T11:48:39Z</time>
      </trkpt>
      <trkpt lat="52.13148" lon="4.4684706">
        <ele>3100.0</ele>
        <time>2020-09-21T11:48:41Z</time>
      </trkpt>
      <trkpt lat="52.131447" lon="4.4684453">
        <ele>3100.0</ele>
        <time>2020-09-21T11:48:41Z</time>
      </trkpt>
      <trkpt lat="52.13141" lon="4.468421">
        <ele>3100.0</ele>
        <time>2020-09-21T11:48:42Z</time>
      </trkpt>
      <trkpt lat="52.13138" lon="4.4683967">
        <ele>3100.0</ele>
        <time>2020-09-21T11:48:43Z</time>
      </trkpt>
      <trkpt lat="52.131344" lon="4.4683723">
        <ele>3100.0</ele>
        <time>2020-09-21T11:48:44Z</time>
      </trkpt>
      <trkpt lat="52.131313" lon="4.4683475">
        <ele>3100.0</ele>
        <time>2020-09-21T11:48:45Z</time>
      </trkpt>
      <trkpt lat="52.131283" lon="4.4683237">
        <ele>3100.0</ele>
        <time>2020-09-21T11:48:46Z</time>
      </trkpt>
      <trkpt lat="52.131245" lon="4.4683046">
        <ele>3100.0</ele>
        <time>2020-09-21T11:48:47Z</time>
      </trkpt>
      <trkpt lat="52.131214" lon="4.4682803">
        <ele>3100.0</ele>
        <time>2020-09-21T11:48:48Z</time>
      </trkpt>
      <trkpt lat="52.131184" lon="4.468251">
        <ele>3100.0</ele>
        <time>2020-09-21T11:48:49Z</time>
      </trkpt>
      <trkpt lat="52.13115" lon="4.46822">
        <ele>3100.0</ele>
        <time>2020-09-21T11:48:50Z</time>
      </trkpt>
      <trkpt lat="52.13112" lon="4.468188">
        <ele>3100.0</ele>
        <time>2020-09-21T11:48:52Z</time>
      </trkpt>
      <trkpt lat="52.13109" lon="4.4681563">
        <ele>3100.0</ele>
        <time>2020-09-21T11:48:52Z</time>
      </trkpt>
      <trkpt lat="52.131058" lon="4.468125">
        <ele>3100.0</ele>
        <time>2020-09-21T11:48:53Z</time>
      </trkpt>
      <trkpt lat="52.13102" lon="4.4680924">
        <ele>3100.0</ele>
        <time>2020-09-21T11:48:54Z</time>
      </trkpt>
      <trkpt lat="52.13099" lon="4.46806">
        <ele>3100.0</ele>
        <time>2020-09-21T11:48:55Z</time>
      </trkpt>
      <trkpt lat="52.130955" lon="4.468029">
        <ele>3100.0</ele>
        <time>2020-09-21T11:48:56Z</time>
      </trkpt>
      <trkpt lat="52.130917" lon="4.468">
        <ele>3100.0</ele>
        <time>2020-09-21T11:48:57Z</time>
      </trkpt>
      <trkpt lat="52.13088" lon="4.467971">
        <ele>3100.0</ele>
        <time>2020-09-21T11:48:58Z</time>
      </trkpt>
      <trkpt lat="52.13084" lon="4.467938">
        <ele>3100.0</ele>
        <time>2020-09-21T11:48:59Z</time>
      </trkpt>
      <trkpt lat="52.130806" lon="4.4679008">
        <ele>3100.0</ele>
        <time>2020-09-21T11:49:00Z</time>
      </trkpt>
      <trkpt lat="52.13077" lon="4.4678617">
        <ele>3100.0</ele>
        <time>2020-09-21T11:49:02Z</time>
      </trkpt>
      <trkpt lat="52.130733" lon="4.4678264">
        <ele>3100.0</ele>
        <time>2020-09-21T11:49:02Z</time>
      </trkpt>
      <trkpt lat="52.130703" lon="4.4677887">
        <ele>3100.0</ele>
        <time>2020-09-21T11:49:03Z</time>
      </trkpt>
      <trkpt lat="52.13066" lon="4.467748">
        <ele>3100.0</ele>
        <time>2020-09-21T11:49:04Z</time>
      </trkpt>
      <trkpt lat="52.130627" lon="4.467705">
        <ele>3100.0</ele>
        <time>2020-09-21T11:49:05Z</time>
      </trkpt>
      <trkpt lat="52.130592" lon="4.4676614">
        <ele>3100.0</ele>
        <time>2020-09-21T11:49:06Z</time>
      </trkpt>
      <trkpt lat="52.130554" lon="4.4676194">
        <ele>3100.0</ele>
        <time>2020-09-21T11:49:07Z</time>
      </trkpt>
      <trkpt lat="52.13052" lon="4.4675765">
        <ele>3100.0</ele>
        <time>2020-09-21T11:49:08Z</time>
      </trkpt>
      <trkpt lat="52.13048" lon="4.4675374">
        <ele>3100.0</ele>
        <time>2020-09-21T11:49:09Z</time>
      </trkpt>
      <trkpt lat="52.13045" lon="4.4675007">
        <ele>3100.0</ele>
        <time>2020-09-21T11:49:10Z</time>
      </trkpt>
      <trkpt lat="52.13043" lon="4.467464">
        <ele>3100.0</ele>
        <time>2020-09-21T11:49:11Z</time>
      </trkpt>
      <trkpt lat="52.13039" lon="4.467425">
        <ele>3100.0</ele>
        <time>2020-09-21T11:49:12Z</time>
      </trkpt>
      <trkpt lat="52.13036" lon="4.4673877">
        <ele>3100.0</ele>
        <time>2020-09-21T11:49:13Z</time>
      </trkpt>
      <trkpt lat="52.13033" lon="4.467351">
        <ele>3100.0</ele>
        <time>2020-09-21T11:49:14Z</time>
      </trkpt>
      <trkpt lat="52.130295" lon="4.467314">
        <ele>3100.0</ele>
        <time>2020-09-21T11:49:15Z</time>
      </trkpt>
      <trkpt lat="52.130264" lon="4.46728">
        <ele>3100.0</ele>
        <time>2020-09-21T11:49:16Z</time>
      </trkpt>
      <trkpt lat="52.130226" lon="4.4672475">
        <ele>3100.0</ele>
        <time>2020-09-21T11:49:17Z</time>
      </trkpt>
      <trkpt lat="52.13019" lon="4.467217">
        <ele>3100.0</ele>
        <time>2020-09-21T11:49:18Z</time>
      </trkpt>
      <trkpt lat="52.130154" lon="4.467187">
        <ele>3100.0</ele>
        <time>2020-09-21T11:49:20Z</time>
      </trkpt>
      <trkpt lat="52.13012" lon="4.4671583">
        <ele>3100.0</ele>
        <time>2020-09-21T11:49:20Z</time>
      </trkpt>
      <trkpt lat="52.130085" lon="4.4671307">
        <ele>3100.0</ele>
        <time>2020-09-21T11:49:21Z</time>
      </trkpt>
      <trkpt lat="52.130047" lon="4.4671025">
        <ele>3100.0</ele>
        <time>2020-09-21T11:49:22Z</time>
      </trkpt>
      <trkpt lat="52.130016" lon="4.467078">
        <ele>3100.0</ele>
        <time>2020-09-21T11:49:23Z</time>
      </trkpt>
      <trkpt lat="52.129986" lon="4.4670544">
        <ele>3100.0</ele>
        <time>2020-09-21T11:49:24Z</time>
      </trkpt>
      <trkpt lat="52.12996" lon="4.4670324">
        <ele>3100.0</ele>
        <time>2020-09-21T11:49:25Z</time>
      </trkpt>
      <trkpt lat="52.129936" lon="4.4670115">
        <ele>3100.0</ele>
        <time>2020-09-21T11:49:26Z</time>
      </trkpt>
      <trkpt lat="52.129906" lon="4.466991">
        <ele>3100.0</ele>
        <time>2020-09-21T11:49:27Z</time>
      </trkpt>
      <trkpt lat="52.129875" lon="4.4669685">
        <ele>3100.0</ele>
        <time>2020-09-21T11:49:28Z</time>
      </trkpt>
      <trkpt lat="52.129845" lon="4.466949">
        <ele>3100.0</ele>
        <time>2020-09-21T11:49:30Z</time>
      </trkpt>
      <trkpt lat="52.129818" lon="4.466931">
        <ele>3100.0</ele>
        <time>2020-09-21T11:49:30Z</time>
      </trkpt>
      <trkpt lat="52.12979" lon="4.4669147">
        <ele>3100.0</ele>
        <time>2020-09-21T11:49:31Z</time>
      </trkpt>
      <trkpt lat="52.129772" lon="4.466899">
        <ele>3100.0</ele>
        <time>2020-09-21T11:49:32Z</time>
      </trkpt>
      <trkpt lat="52.129745" lon="4.466885">
        <ele>3100.0</ele>
        <time>2020-09-21T11:49:33Z</time>
      </trkpt>
      <trkpt lat="52.129726" lon="4.4668703">
        <ele>3100.0</ele>
        <time>2020-09-21T11:49:34Z</time>
      </trkpt>
      <trkpt lat="52.1297" lon="4.4668555">
        <ele>3100.0</ele>
        <time>2020-09-21T11:49:35Z</time>
      </trkpt>
      <trkpt lat="52.129673" lon="4.4668407">
        <ele>3100.0</ele>
        <time>2020-09-21T11:49:36Z</time>
      </trkpt>
      <trkpt lat="52.12965" lon="4.4668303">
        <ele>3100.0</ele>
        <time>2020-09-21T11:49:37Z</time>
      </trkpt>
      <trkpt lat="52.129627" lon="4.4668202">
        <ele>3100.0</ele>
        <time>2020-09-21T11:49:38Z</time>
      </trkpt>
      <trkpt lat="52.129604" lon="4.466807">
        <ele>3100.0</ele>
        <time>2020-09-21T11:49:39Z</time>
      </trkpt>
      <trkpt lat="52.12958" lon="4.466792">
        <ele>3100.0</ele>
        <time>2020-09-21T11:49:41Z</time>
      </trkpt>
      <trkpt lat="52.129555" lon="4.466775">
        <ele>3100.0</ele>
        <time>2020-09-21T11:49:41Z</time>
      </trkpt>
      <trkpt lat="52.12953" lon="4.4667525">
        <ele>3100.0</ele>
        <time>2020-09-21T11:49:42Z</time>
      </trkpt>
      <trkpt lat="52.12951" lon="4.466731">
        <ele>3100.0</ele>
        <time>2020-09-21T11:49:43Z</time>
      </trkpt>
      <trkpt lat="52.129486" lon="4.4667115">
        <ele>3100.0</ele>
        <time>2020-09-21T11:49:44Z</time>
      </trkpt>
      <trkpt lat="52.12946" lon="4.466694">
        <ele>3100.0</ele>
        <time>2020-09-21T11:49:45Z</time>
      </trkpt>
      <trkpt lat="52.12944" lon="4.466675">
        <ele>3100.0</ele>
        <time>2020-09-21T11:49:46Z</time>
      </trkpt>
      <trkpt lat="52.129414" lon="4.4666524">
        <ele>3100.0</ele>
        <time>2020-09-21T11:49:47Z</time>
      </trkpt>
      <trkpt lat="52.129395" lon="4.466628">
        <ele>3100.0</ele>
        <time>2020-09-21T11:49:48Z</time>
      </trkpt>
      <trkpt lat="52.129368" lon="4.4666038">
        <ele>3100.0</ele>
        <time>2020-09-21T11:49:49Z</time>
      </trkpt>
      <trkpt lat="52.129345" lon="4.4665794">
        <ele>3100.0</ele>
        <time>2020-09-21T11:49:51Z</time>
      </trkpt>
      <trkpt lat="52.129322" lon="4.466555">
        <ele>3100.0</ele>
        <time>2020-09-21T11:49:51Z</time>
      </trkpt>
      <trkpt lat="52.129295" lon="4.4665303">
        <ele>3100.0</ele>
        <time>2020-09-21T11:49:52Z</time>
      </trkpt>
      <trkpt lat="52.129276" lon="4.466507">
        <ele>3100.0</ele>
        <time>2020-09-21T11:49:53Z</time>
      </trkpt>
      <trkpt lat="52.129253" lon="4.4664845">
        <ele>3100.0</ele>
        <time>2020-09-21T11:49:54Z</time>
      </trkpt>
      <trkpt lat="52.12923" lon="4.4664626">
        <ele>3100.0</ele>
        <time>2020-09-21T11:49:55Z</time>
      </trkpt>
      <trkpt lat="52.129208" lon="4.466441">
        <ele>3100.0</ele>
        <time>2020-09-21T11:49:56Z</time>
      </trkpt>
      <trkpt lat="52.12918" lon="4.466419">
        <ele>3100.0</ele>
        <time>2020-09-21T11:49:57Z</time>
      </trkpt>
      <trkpt lat="52.12916" lon="4.4663973">
        <ele>3100.0</ele>
        <time>2020-09-21T11:49:58Z</time>
      </trkpt>
      <trkpt lat="52.129135" lon="4.466377">
        <ele>3100.0</ele>
        <time>2020-09-21T11:49:59Z</time>
      </trkpt>
      <trkpt lat="52.129112" lon="4.466355">
        <ele>3100.0</ele>
        <time>2020-09-21T11:50:00Z</time>
      </trkpt>
      <trkpt lat="52.129086" lon="4.4663305">
        <ele>3100.0</ele>
        <time>2020-09-21T11:50:02Z</time>
      </trkpt>
      <trkpt lat="52.12906" lon="4.466302">
        <ele>3100.0</ele>
        <time>2020-09-21T11:50:02Z</time>
      </trkpt>
      <trkpt lat="52.12903" lon="4.466272">
        <ele>3100.0</ele>
        <time>2020-09-21T11:50:03Z</time>
      </trkpt>
      <trkpt lat="52.129" lon="4.466239">
        <ele>3100.0</ele>
        <time>2020-09-21T11:50:04Z</time>
      </trkpt>
      <trkpt lat="52.12897" lon="4.4662094">
        <ele>3100.0</ele>
        <time>2020-09-21T11:50:05Z</time>
      </trkpt>
      <trkpt lat="52.12895" lon="4.4661803">
        <ele>3100.0</ele>
        <time>2020-09-21T11:50:06Z</time>
      </trkpt>
      <trkpt lat="52.128918" lon="4.4661503">
        <ele>3100.0</ele>
        <time>2020-09-21T11:50:07Z</time>
      </trkpt>
      <trkpt lat="52.12889" lon="4.466121">
        <ele>3100.0</ele>
        <time>2020-09-21T11:50:08Z</time>
      </trkpt>
      <trkpt lat="52.128864" lon="4.4660892">
        <ele>3100.0</ele>
        <time>2020-09-21T11:50:09Z</time>
      </trkpt>
      <trkpt lat="52.128834" lon="4.466054">
        <ele>3100.0</ele>
        <time>2020-09-21T11:50:10Z</time>
      </trkpt>
      <trkpt lat="52.128807" lon="4.46602">
        <ele>3100.0</ele>
        <time>2020-09-21T11:50:12Z</time>
      </trkpt>
      <trkpt lat="52.128788" lon="4.4659877">
        <ele>3100.0</ele>
        <time>2020-09-21T11:50:12Z</time>
      </trkpt>
      <trkpt lat="52.12876" lon="4.465955">
        <ele>3100.0</ele>
        <time>2020-09-21T11:50:13Z</time>
      </trkpt>
      <trkpt lat="52.12874" lon="4.465924">
        <ele>3100.0</ele>
        <time>2020-09-21T11:50:14Z</time>
      </trkpt>
      <trkpt lat="52.12871" lon="4.4658923">
        <ele>3100.0</ele>
        <time>2020-09-21T11:50:15Z</time>
      </trkpt>
      <trkpt lat="52.128685" lon="4.4658594">
        <ele>3100.0</ele>
        <time>2020-09-21T11:50:16Z</time>
      </trkpt>
      <trkpt lat="52.128662" lon="4.465829">
        <ele>3100.0</ele>
        <time>2020-09-21T11:50:17Z</time>
      </trkpt>
      <trkpt lat="52.128635" lon="4.4658003">
        <ele>3100.0</ele>
        <time>2020-09-21T11:50:18Z</time>
      </trkpt>
      <trkpt lat="52.128613" lon="4.4657764">
        <ele>3100.0</ele>
        <time>2020-09-21T11:50:19Z</time>
      </trkpt>
      <trkpt lat="52.128593" lon="4.4657555">
        <ele>3100.0</ele>
        <time>2020-09-21T11:50:20Z</time>
      </trkpt>
      <trkpt lat="52.128574" lon="4.4657393">
        <ele>3100.0</ele>
        <time>2020-09-21T11:50:21Z</time>
      </trkpt>
      <trkpt lat="52.12855" lon="4.465724">
        <ele>3100.0</ele>
        <time>2020-09-21T11:50:22Z</time>
      </trkpt>
      <trkpt lat="52.12853" lon="4.4657097">
        <ele>3100.0</ele>
        <time>2020-09-21T11:50:23Z</time>
      </trkpt>
      <trkpt lat="52.1285" lon="4.465692">
        <ele>3100.0</ele>
        <time>2020-09-21T11:50:24Z</time>
      </trkpt>
      <trkpt lat="52.128475" lon="4.4656687">
        <ele>3100.0</ele>
        <time>2020-09-21T11:50:25Z</time>
      </trkpt>
      <trkpt lat="52.128445" lon="4.4656425">
        <ele>3100.0</ele>
        <time>2020-09-21T11:50:26Z</time>
      </trkpt>
      <trkpt lat="52.128414" lon="4.4656186">
        <ele>3100.0</ele>
        <time>2020-09-21T11:50:27Z</time>
      </trkpt>
      <trkpt lat="52.128387" lon="4.4655976">
        <ele>3100.0</ele>
        <time>2020-09-21T11:50:28Z</time>
      </trkpt>
      <trkpt lat="52.128365" lon="4.4655766">
        <ele>3100.0</ele>
        <time>2020-09-21T11:50:29Z</time>
      </trkpt>
      <trkpt lat="52.128338" lon="4.4655566">
        <ele>3100.0</ele>
        <time>2020-09-21T11:50:30Z</time>
      </trkpt>
      <trkpt lat="52.128307" lon="4.465536">
        <ele>3100.0</ele>
        <time>2020-09-21T11:50:31Z</time>
      </trkpt>
      <trkpt lat="52.128277" lon="4.465515">
        <ele>3100.0</ele>
        <time>2020-09-21T11:50:32Z</time>
      </trkpt>
      <trkpt lat="52.128246" lon="4.465493">
        <ele>3100.0</ele>
        <time>2020-09-21T11:50:33Z</time>
      </trkpt>
      <trkpt lat="52.12822" lon="4.465472">
        <ele>3100.0</ele>
        <time>2020-09-21T11:50:34Z</time>
      </trkpt>
      <trkpt lat="52.128193" lon="4.4654527">
        <ele>3100.0</ele>
        <time>2020-09-21T11:50:35Z</time>
      </trkpt>
      <trkpt lat="52.12817" lon="4.465435">
        <ele>3100.0</ele>
        <time>2020-09-21T11:50:36Z</time>
      </trkpt>
      <trkpt lat="52.128143" lon="4.4654164">
        <ele>3100.0</ele>
        <time>2020-09-21T11:50:37Z</time>
      </trkpt>
      <trkpt lat="52.128117" lon="4.465398">
        <ele>3100.0</ele>
        <time>2020-09-21T11:50:38Z</time>
      </trkpt>
      <trkpt lat="52.128094" lon="4.465379">
        <ele>3100.0</ele>
        <time>2020-09-21T11:50:39Z</time>
      </trkpt>
      <trkpt lat="52.128063" lon="4.4653597">
        <ele>3100.0</ele>
        <time>2020-09-21T11:50:40Z</time>
      </trkpt>
      <trkpt lat="52.12803" lon="4.4653397">
        <ele>3100.0</ele>
        <time>2020-09-21T11:50:41Z</time>
      </trkpt>
      <trkpt lat="52.128" lon="4.46532">
        <ele>3100.0</ele>
        <time>2020-09-21T11:50:42Z</time>
      </trkpt>
      <trkpt lat="52.127964" lon="4.4653">
        <ele>3100.0</ele>
        <time>2020-09-21T11:50:43Z</time>
      </trkpt>
      <trkpt lat="52.127934" lon="4.4652786">
        <ele>3100.0</ele>
        <time>2020-09-21T11:50:44Z</time>
      </trkpt>
      <trkpt lat="52.1279" lon="4.465256">
        <ele>3100.0</ele>
        <time>2020-09-21T11:50:45Z</time>
      </trkpt>
      <trkpt lat="52.12786" lon="4.4652305">
        <ele>3100.0</ele>
        <time>2020-09-21T11:50:46Z</time>
      </trkpt>
      <trkpt lat="52.12783" lon="4.465205">
        <ele>3100.0</ele>
        <time>2020-09-21T11:50:47Z</time>
      </trkpt>
      <trkpt lat="52.1278" lon="4.4651823">
        <ele>3100.0</ele>
        <time>2020-09-21T11:50:48Z</time>
      </trkpt>
      <trkpt lat="52.12777" lon="4.4651613">
        <ele>3100.0</ele>
        <time>2020-09-21T11:50:49Z</time>
      </trkpt>
      <trkpt lat="52.127743" lon="4.4651365">
        <ele>3100.0</ele>
        <time>2020-09-21T11:50:50Z</time>
      </trkpt>
      <trkpt lat="52.127712" lon="4.465111">
        <ele>3100.0</ele>
        <time>2020-09-21T11:50:51Z</time>
      </trkpt>
      <trkpt lat="52.12768" lon="4.465084">
        <ele>3100.0</ele>
        <time>2020-09-21T11:50:52Z</time>
      </trkpt>
      <trkpt lat="52.12765" lon="4.465055">
        <ele>3100.0</ele>
        <time>2020-09-21T11:50:53Z</time>
      </trkpt>
      <trkpt lat="52.12762" lon="4.465026">
        <ele>3100.0</ele>
        <time>2020-09-21T11:50:55Z</time>
      </trkpt>
      <trkpt lat="52.12759" lon="4.4649954">
        <ele>3100.0</ele>
        <time>2020-09-21T11:50:55Z</time>
      </trkpt>
      <trkpt lat="52.127556" lon="4.4649644">
        <ele>3100.0</ele>
        <time>2020-09-21T11:50:56Z</time>
      </trkpt>
      <trkpt lat="52.127525" lon="4.4649334">
        <ele>3100.0</ele>
        <time>2020-09-21T11:50:57Z</time>
      </trkpt>
      <trkpt lat="52.1275" lon="4.4649024">
        <ele>3100.0</ele>
        <time>2020-09-21T11:50:58Z</time>
      </trkpt>
      <trkpt lat="52.12747" lon="4.4648747">
        <ele>3100.0</ele>
        <time>2020-09-21T11:50:59Z</time>
      </trkpt>
      <trkpt lat="52.12744" lon="4.4648466">
        <ele>3100.0</ele>
        <time>2020-09-21T11:51:00Z</time>
      </trkpt>
      <trkpt lat="52.12741" lon="4.4648156">
        <ele>3100.0</ele>
        <time>2020-09-21T11:51:01Z</time>
      </trkpt>
      <trkpt lat="52.127377" lon="4.4647803">
        <ele>3100.0</ele>
        <time>2020-09-21T11:51:02Z</time>
      </trkpt>
      <trkpt lat="52.127346" lon="4.464742">
        <ele>3100.0</ele>
        <time>2020-09-21T11:51:03Z</time>
      </trkpt>
      <trkpt lat="52.127316" lon="4.4647036">
        <ele>3100.0</ele>
        <time>2020-09-21T11:51:04Z</time>
      </trkpt>
      <trkpt lat="52.127285" lon="4.4646664">
        <ele>3100.0</ele>
        <time>2020-09-21T11:51:05Z</time>
      </trkpt>
      <trkpt lat="52.127247" lon="4.46463">
        <ele>3100.0</ele>
        <time>2020-09-21T11:51:06Z</time>
      </trkpt>
      <trkpt lat="52.127213" lon="4.464596">
        <ele>3100.0</ele>
        <time>2020-09-21T11:51:07Z</time>
      </trkpt>
      <trkpt lat="52.127182" lon="4.4645624">
        <ele>3100.0</ele>
        <time>2020-09-21T11:51:08Z</time>
      </trkpt>
      <trkpt lat="52.127144" lon="4.464533">
        <ele>3100.0</ele>
        <time>2020-09-21T11:51:09Z</time>
      </trkpt>
      <trkpt lat="52.127113" lon="4.464497">
        <ele>3100.0</ele>
        <time>2020-09-21T11:51:10Z</time>
      </trkpt>
      <trkpt lat="52.127083" lon="4.464459">
        <ele>3100.0</ele>
        <time>2020-09-21T11:51:11Z</time>
      </trkpt>
      <trkpt lat="52.127052" lon="4.464416">
        <ele>3100.0</ele>
        <time>2020-09-21T11:51:12Z</time>
      </trkpt>
      <trkpt lat="52.12702" lon="4.4643693">
        <ele>3100.0</ele>
        <time>2020-09-21T11:51:13Z</time>
      </trkpt>
      <trkpt lat="52.12699" lon="4.464325">
        <ele>3100.0</ele>
        <time>2020-09-21T11:51:14Z</time>
      </trkpt>
      <trkpt lat="52.126965" lon="4.4642816">
        <ele>3100.0</ele>
        <time>2020-09-21T11:51:15Z</time>
      </trkpt>
      <trkpt lat="52.126934" lon="4.4642386">
        <ele>3100.0</ele>
        <time>2020-09-21T11:51:16Z</time>
      </trkpt>
      <trkpt lat="52.12691" lon="4.4641976">
        <ele>3100.0</ele>
        <time>2020-09-21T11:51:17Z</time>
      </trkpt>
      <trkpt lat="52.126877" lon="4.4641585">
        <ele>3100.0</ele>
        <time>2020-09-21T11:51:18Z</time>
      </trkpt>
      <trkpt lat="52.126846" lon="4.464122">
        <ele>3100.0</ele>
        <time>2020-09-21T11:51:19Z</time>
      </trkpt>
      <trkpt lat="52.126823" lon="4.464087">
        <ele>3100.0</ele>
        <time>2020-09-21T11:51:20Z</time>
      </trkpt>
      <trkpt lat="52.126797" lon="4.4640536">
        <ele>3100.0</ele>
        <time>2020-09-21T11:51:21Z</time>
      </trkpt>
      <trkpt lat="52.12677" lon="4.4640207">
        <ele>3100.0</ele>
        <time>2020-09-21T11:51:22Z</time>
      </trkpt>
      <trkpt lat="52.126747" lon="4.4639893">
        <ele>3100.0</ele>
        <time>2020-09-21T11:51:23Z</time>
      </trkpt>
      <trkpt lat="52.126717" lon="4.4639583">
        <ele>3100.0</ele>
        <time>2020-09-21T11:51:24Z</time>
      </trkpt>
      <trkpt lat="52.12669" lon="4.4639297">
        <ele>3100.0</ele>
        <time>2020-09-21T11:51:25Z</time>
      </trkpt>
      <trkpt lat="52.12666" lon="4.463901">
        <ele>3100.0</ele>
        <time>2020-09-21T11:51:26Z</time>
      </trkpt>
      <trkpt lat="52.12663" lon="4.46387">
        <ele>3100.0</ele>
        <time>2020-09-21T11:51:27Z</time>
      </trkpt>
      <trkpt lat="52.1266" lon="4.4638376">
        <ele>3100.0</ele>
        <time>2020-09-21T11:51:28Z</time>
      </trkpt>
      <trkpt lat="52.126568" lon="4.463802">
        <ele>3100.0</ele>
        <time>2020-09-21T11:51:29Z</time>
      </trkpt>
      <trkpt lat="52.126526" lon="4.4637628">
        <ele>3100.0</ele>
        <time>2020-09-21T11:51:30Z</time>
      </trkpt>
      <trkpt lat="52.126495" lon="4.4637227">
        <ele>3100.0</ele>
        <time>2020-09-21T11:51:31Z</time>
      </trkpt>
      <trkpt lat="52.126457" lon="4.4636817">
        <ele>3100.0</ele>
        <time>2020-09-21T11:51:32Z</time>
      </trkpt>
      <trkpt lat="52.126434" lon="4.4636416">
        <ele>3100.0</ele>
        <time>2020-09-21T11:51:34Z</time>
      </trkpt>
      <trkpt lat="52.126408" lon="4.463603">
        <ele>3100.0</ele>
        <time>2020-09-21T11:51:34Z</time>
      </trkpt>
      <trkpt lat="52.12638" lon="4.463568">
        <ele>3100.0</ele>
        <time>2020-09-21T11:51:35Z</time>
      </trkpt>
      <trkpt lat="52.126358" lon="4.4635353">
        <ele>3100.0</ele>
        <time>2020-09-21T11:51:36Z</time>
      </trkpt>
      <trkpt lat="52.12633" lon="4.463501">
        <ele>3100.0</ele>
        <time>2020-09-21T11:51:37Z</time>
      </trkpt>
      <trkpt lat="52.1263" lon="4.463467">
        <ele>3100.0</ele>
        <time>2020-09-21T11:51:38Z</time>
      </trkpt>
      <trkpt lat="52.126274" lon="4.4634337">
        <ele>3100.0</ele>
        <time>2020-09-21T11:51:39Z</time>
      </trkpt>
      <trkpt lat="52.126247" lon="4.4634023">
        <ele>3100.0</ele>
        <time>2020-09-21T11:51:40Z</time>
      </trkpt>
      <trkpt lat="52.126225" lon="4.4633727">
        <ele>3100.0</ele>
        <time>2020-09-21T11:51:41Z</time>
      </trkpt>
      <trkpt lat="52.1262" lon="4.463343">
        <ele>3100.0</ele>
        <time>2020-09-21T11:51:42Z</time>
      </trkpt>
      <trkpt lat="52.12618" lon="4.4633155">
        <ele>3100.0</ele>
        <time>2020-09-21T11:51:44Z</time>
      </trkpt>
      <trkpt lat="52.126152" lon="4.4632893">
        <ele>3100.0</ele>
        <time>2020-09-21T11:51:44Z</time>
      </trkpt>
      <trkpt lat="52.126125" lon="4.463261">
        <ele>3100.0</ele>
        <time>2020-09-21T11:51:45Z</time>
      </trkpt>
      <trkpt lat="52.1261" lon="4.463234">
        <ele>3100.0</ele>
        <time>2020-09-21T11:51:46Z</time>
      </trkpt>
      <trkpt lat="52.12608" lon="4.463207">
        <ele>3100.0</ele>
        <time>2020-09-21T11:51:47Z</time>
      </trkpt>
      <trkpt lat="52.12606" lon="4.46318">
        <ele>3100.0</ele>
        <time>2020-09-21T11:51:48Z</time>
      </trkpt>
      <trkpt lat="52.126038" lon="4.4631567">
        <ele>3100.0</ele>
        <time>2020-09-21T11:51:49Z</time>
      </trkpt>
      <trkpt lat="52.126022" lon="4.463138">
        <ele>3100.0</ele>
        <time>2020-09-21T11:51:50Z</time>
      </trkpt>
      <trkpt lat="52.126015" lon="4.463122">
        <ele>3100.0</ele>
        <time>2020-09-21T11:51:51Z</time>
      </trkpt>
      <trkpt lat="52.126003" lon="4.463107">
        <ele>3100.0</ele>
        <time>2020-09-21T11:51:52Z</time>
      </trkpt>
      <trkpt lat="52.12599" lon="4.4630985">
        <ele>3100.0</ele>
        <time>2020-09-21T11:51:53Z</time>
      </trkpt>
      <trkpt lat="52.12599" lon="4.4630957">
        <ele>3100.0</ele>
        <time>2020-09-21T11:51:55Z</time>
      </trkpt>
      <trkpt lat="52.125988" lon="4.4630976">
        <ele>3100.0</ele>
        <time>2020-09-21T11:51:55Z</time>
      </trkpt>
      <trkpt lat="52.12599" lon="4.463107">
        <ele>3100.0</ele>
        <time>2020-09-21T11:51:56Z</time>
      </trkpt>
      <trkpt lat="52.12599" lon="4.4631176">
        <ele>3100.0</ele>
        <time>2020-09-21T11:51:56Z</time>
      </trkpt>
      <trkpt lat="52.126" lon="4.463127">
        <ele>3100.0</ele>
        <time>2020-09-21T11:51:57Z</time>
      </trkpt>
      <trkpt lat="52.126" lon="4.4631352">
        <ele>3100.0</ele>
        <time>2020-09-21T11:51:58Z</time>
      </trkpt>
      <trkpt lat="52.126" lon="4.463141">
        <ele>3100.0</ele>
        <time>2020-09-21T11:51:59Z</time>
      </trkpt>
      <trkpt lat="52.126" lon="4.463145">
        <ele>3100.0</ele>
        <time>2020-09-21T11:52:00Z</time>
      </trkpt>
      <trkpt lat="52.126003" lon="4.4631505">
        <ele>3100.0</ele>
        <time>2020-09-21T11:52:01Z</time>
      </trkpt>
      <trkpt lat="52.126003" lon="4.463156">
        <ele>3100.0</ele>
        <time>2020-09-21T11:52:02Z</time>
      </trkpt>
      <trkpt lat="52.126007" lon="4.4631643">
        <ele>3100.0</ele>
        <time>2020-09-21T11:52:04Z</time>
      </trkpt>
      <trkpt lat="52.12602" lon="4.463175">
        <ele>3100.0</ele>
        <time>2020-09-21T11:52:04Z</time>
      </trkpt>
      <trkpt lat="52.12603" lon="4.4631867">
        <ele>3100.0</ele>
        <time>2020-09-21T11:52:05Z</time>
      </trkpt>
      <trkpt lat="52.126045" lon="4.4632">
        <ele>3100.0</ele>
        <time>2020-09-21T11:52:06Z</time>
      </trkpt>
      <trkpt lat="52.126064" lon="4.4632187">
        <ele>3100.0</ele>
        <time>2020-09-21T11:52:07Z</time>
      </trkpt>
      <trkpt lat="52.12608" lon="4.463239">
        <ele>3100.0</ele>
        <time>2020-09-21T11:52:08Z</time>
      </trkpt>
      <trkpt lat="52.1261" lon="4.4632597">
        <ele>3100.0</ele>
        <time>2020-09-21T11:52:09Z</time>
      </trkpt>
      <trkpt lat="52.126118" lon="4.4632845">
        <ele>3100.0</ele>
        <time>2020-09-21T11:52:10Z</time>
      </trkpt>
      <trkpt lat="52.12614" lon="4.4633117">
        <ele>3100.0</ele>
        <time>2020-09-21T11:52:12Z</time>
      </trkpt>
      <trkpt lat="52.126163" lon="4.4633403">
        <ele>3100.0</ele>
        <time>2020-09-21T11:52:12Z</time>
      </trkpt>
      <trkpt lat="52.126183" lon="4.4633718">
        <ele>3100.0</ele>
        <time>2020-09-21T11:52:13Z</time>
      </trkpt>
      <trkpt lat="52.12621" lon="4.4634037">
        <ele>3100.0</ele>
        <time>2020-09-21T11:52:14Z</time>
      </trkpt>
      <trkpt lat="52.126232" lon="4.4634366">
        <ele>3100.0</ele>
        <time>2020-09-21T11:52:15Z</time>
      </trkpt>
      <trkpt lat="52.126263" lon="4.463471">
        <ele>3100.0</ele>
        <time>2020-09-21T11:52:16Z</time>
      </trkpt>
      <trkpt lat="52.126293" lon="4.4635053">
        <ele>3100.0</ele>
        <time>2020-09-21T11:52:17Z</time>
      </trkpt>
      <trkpt lat="52.126328" lon="4.4635415">
        <ele>3100.0</ele>
        <time>2020-09-21T11:52:18Z</time>
      </trkpt>
      <trkpt lat="52.126358" lon="4.463578">
        <ele>3100.0</ele>
        <time>2020-09-21T11:52:19Z</time>
      </trkpt>
      <trkpt lat="52.12639" lon="4.4636106">
        <ele>3100.0</ele>
        <time>2020-09-21T11:52:20Z</time>
      </trkpt>
      <trkpt lat="52.12641" lon="4.46364">
        <ele>3100.0</ele>
        <time>2020-09-21T11:52:22Z</time>
      </trkpt>
      <trkpt lat="52.12644" lon="4.4636707">
        <ele>3100.0</ele>
        <time>2020-09-21T11:52:22Z</time>
      </trkpt>
      <trkpt lat="52.126465" lon="4.463703">
        <ele>3100.0</ele>
        <time>2020-09-21T11:52:23Z</time>
      </trkpt>
      <trkpt lat="52.126488" lon="4.4637375">
        <ele>3100.0</ele>
        <time>2020-09-21T11:52:24Z</time>
      </trkpt>
      <trkpt lat="52.12651" lon="4.463776">
        <ele>3100.0</ele>
        <time>2020-09-21T11:52:25Z</time>
      </trkpt>
      <trkpt lat="52.126522" lon="4.4638233">
        <ele>3100.0</ele>
        <time>2020-09-21T11:52:26Z</time>
      </trkpt>
      <trkpt lat="52.12653" lon="4.4638696">
        <ele>3100.0</ele>
        <time>2020-09-21T11:52:27Z</time>
      </trkpt>
      <trkpt lat="52.126526" lon="4.463918">
        <ele>3100.0</ele>
        <time>2020-09-21T11:52:28Z</time>
      </trkpt>
      <trkpt lat="52.126522" lon="4.463964">
        <ele>3100.0</ele>
        <time>2020-09-21T11:52:29Z</time>
      </trkpt>
      <trkpt lat="52.126507" lon="4.464009">
        <ele>3100.0</ele>
        <time>2020-09-21T11:52:30Z</time>
      </trkpt>
      <trkpt lat="52.126488" lon="4.4640546">
        <ele>3100.0</ele>
        <time>2020-09-21T11:52:31Z</time>
      </trkpt>
      <trkpt lat="52.12647" lon="4.4641004">
        <ele>3100.0</ele>
        <time>2020-09-21T11:52:32Z</time>
      </trkpt>
      <trkpt lat="52.12645" lon="4.464147">
        <ele>3100.0</ele>
        <time>2020-09-21T11:52:33Z</time>
      </trkpt>
      <trkpt lat="52.126423" lon="4.4641943">
        <ele>3200.0</ele>
        <time>2020-09-21T11:52:34Z</time>
      </trkpt>
      <trkpt lat="52.126396" lon="4.464242">
        <ele>3200.0</ele>
        <time>2020-09-21T11:52:35Z</time>
      </trkpt>
      <trkpt lat="52.126373" lon="4.4642906">
        <ele>3200.0</ele>
        <time>2020-09-21T11:52:36Z</time>
      </trkpt>
      <trkpt lat="52.126347" lon="4.4643416">
        <ele>3200.0</ele>
        <time>2020-09-21T11:52:37Z</time>
      </trkpt>
      <trkpt lat="52.12632" lon="4.464394">
        <ele>3200.0</ele>
        <time>2020-09-21T11:52:38Z</time>
      </trkpt>
      <trkpt lat="52.126293" lon="4.4644485">
        <ele>3200.0</ele>
        <time>2020-09-21T11:52:39Z</time>
      </trkpt>
      <trkpt lat="52.12627" lon="4.4645014">
        <ele>3200.0</ele>
        <time>2020-09-21T11:52:40Z</time>
      </trkpt>
      <trkpt lat="52.126244" lon="4.4645543">
        <ele>3200.0</ele>
        <time>2020-09-21T11:52:41Z</time>
      </trkpt>
      <trkpt lat="52.126217" lon="4.4646063">
        <ele>3200.0</ele>
        <time>2020-09-21T11:52:43Z</time>
      </trkpt>
      <trkpt lat="52.126186" lon="4.4646573">
        <ele>3200.0</ele>
        <time>2020-09-21T11:52:43Z</time>
      </trkpt>
      <trkpt lat="52.126163" lon="4.4647093">
        <ele>3200.0</ele>
        <time>2020-09-21T11:52:44Z</time>
      </trkpt>
      <trkpt lat="52.126133" lon="4.4647636">
        <ele>3200.0</ele>
        <time>2020-09-21T11:52:45Z</time>
      </trkpt>
      <trkpt lat="52.126106" lon="4.464818">
        <ele>3200.0</ele>
        <time>2020-09-21T11:52:46Z</time>
      </trkpt>
      <trkpt lat="52.12608" lon="4.464872">
        <ele>3200.0</ele>
        <time>2020-09-21T11:52:47Z</time>
      </trkpt>
      <trkpt lat="52.12605" lon="4.4649253">
        <ele>3200.0</ele>
        <time>2020-09-21T11:52:48Z</time>
      </trkpt>
      <trkpt lat="52.126022" lon="4.4649777">
        <ele>3200.0</ele>
        <time>2020-09-21T11:52:49Z</time>
      </trkpt>
      <trkpt lat="52.126" lon="4.465029">
        <ele>3200.0</ele>
        <time>2020-09-21T11:52:50Z</time>
      </trkpt>
      <trkpt lat="52.125973" lon="4.46508">
        <ele>3200.0</ele>
        <time>2020-09-21T11:52:51Z</time>
      </trkpt>
      <trkpt lat="52.125946" lon="4.465131">
        <ele>3200.0</ele>
        <time>2020-09-21T11:52:52Z</time>
      </trkpt>
      <trkpt lat="52.125923" lon="4.4651814">
        <ele>3200.0</ele>
        <time>2020-09-21T11:52:53Z</time>
      </trkpt>
      <trkpt lat="52.125896" lon="4.46523">
        <ele>3200.0</ele>
        <time>2020-09-21T11:52:54Z</time>
      </trkpt>
      <trkpt lat="52.125866" lon="4.4652762">
        <ele>3200.0</ele>
        <time>2020-09-21T11:52:55Z</time>
      </trkpt>
      <trkpt lat="52.12584" lon="4.465319">
        <ele>3200.0</ele>
        <time>2020-09-21T11:52:56Z</time>
      </trkpt>
      <trkpt lat="52.12581" lon="4.465361">
        <ele>3200.0</ele>
        <time>2020-09-21T11:52:57Z</time>
      </trkpt>
      <trkpt lat="52.12578" lon="4.465403">
        <ele>3200.0</ele>
        <time>2020-09-21T11:52:58Z</time>
      </trkpt>
      <trkpt lat="52.125748" lon="4.4654446">
        <ele>3200.0</ele>
        <time>2020-09-21T11:52:59Z</time>
      </trkpt>
      <trkpt lat="52.12571" lon="4.465492">
        <ele>3200.0</ele>
        <time>2020-09-21T11:53:00Z</time>
      </trkpt>
      <trkpt lat="52.125675" lon="4.4655366">
        <ele>3200.0</ele>
        <time>2020-09-21T11:53:01Z</time>
      </trkpt>
      <trkpt lat="52.12565" lon="4.4655843">
        <ele>3200.0</ele>
        <time>2020-09-21T11:53:02Z</time>
      </trkpt>
      <trkpt lat="52.125618" lon="4.4656334">
        <ele>3200.0</ele>
        <time>2020-09-21T11:53:04Z</time>
      </trkpt>
      <trkpt lat="52.125595" lon="4.465681">
        <ele>3200.0</ele>
        <time>2020-09-21T11:53:04Z</time>
      </trkpt>
      <trkpt lat="52.12557" lon="4.4657283">
        <ele>3200.0</ele>
        <time>2020-09-21T11:53:05Z</time>
      </trkpt>
      <trkpt lat="52.12554" lon="4.4657755">
        <ele>3200.0</ele>
        <time>2020-09-21T11:53:06Z</time>
      </trkpt>
      <trkpt lat="52.125515" lon="4.4658256">
        <ele>3200.0</ele>
        <time>2020-09-21T11:53:07Z</time>
      </trkpt>
      <trkpt lat="52.125492" lon="4.4658766">
        <ele>3200.0</ele>
        <time>2020-09-21T11:53:08Z</time>
      </trkpt>
      <trkpt lat="52.125465" lon="4.4659233">
        <ele>3200.0</ele>
        <time>2020-09-21T11:53:09Z</time>
      </trkpt>
      <trkpt lat="52.125446" lon="4.465966">
        <ele>3200.0</ele>
        <time>2020-09-21T11:53:10Z</time>
      </trkpt>
      <trkpt lat="52.12542" lon="4.4660034">
        <ele>3200.0</ele>
        <time>2020-09-21T11:53:11Z</time>
      </trkpt>
      <trkpt lat="52.1254" lon="4.4660397">
        <ele>3200.0</ele>
        <time>2020-09-21T11:53:12Z</time>
      </trkpt>
      <trkpt lat="52.125378" lon="4.4660735">
        <ele>3200.0</ele>
        <time>2020-09-21T11:53:13Z</time>
      </trkpt>
      <trkpt lat="52.12536" lon="4.466104">
        <ele>3200.0</ele>
        <time>2020-09-21T11:53:14Z</time>
      </trkpt>
      <trkpt lat="52.125343" lon="4.4661374">
        <ele>3200.0</ele>
        <time>2020-09-21T11:53:15Z</time>
      </trkpt>
      <trkpt lat="52.12532" lon="4.466169">
        <ele>3200.0</ele>
        <time>2020-09-21T11:53:16Z</time>
      </trkpt>
      <trkpt lat="52.125305" lon="4.4662037">
        <ele>3200.0</ele>
        <time>2020-09-21T11:53:17Z</time>
      </trkpt>
      <trkpt lat="52.12529" lon="4.4662385">
        <ele>3200.0</ele>
        <time>2020-09-21T11:53:18Z</time>
      </trkpt>
      <trkpt lat="52.12527" lon="4.466273">
        <ele>3200.0</ele>
        <time>2020-09-21T11:53:19Z</time>
      </trkpt>
      <trkpt lat="52.12525" lon="4.4663076">
        <ele>3200.0</ele>
        <time>2020-09-21T11:53:20Z</time>
      </trkpt>
      <trkpt lat="52.12523" lon="4.466343">
        <ele>3200.0</ele>
        <time>2020-09-21T11:53:22Z</time>
      </trkpt>
      <trkpt lat="52.12521" lon="4.466377">
        <ele>3200.0</ele>
        <time>2020-09-21T11:53:22Z</time>
      </trkpt>
      <trkpt lat="52.12519" lon="4.4664097">
        <ele>3200.0</ele>
        <time>2020-09-21T11:53:23Z</time>
      </trkpt>
      <trkpt lat="52.125168" lon="4.466441">
        <ele>3200.0</ele>
        <time>2020-09-21T11:53:24Z</time>
      </trkpt>
      <trkpt lat="52.12515" lon="4.4664726">
        <ele>3200.0</ele>
        <time>2020-09-21T11:53:25Z</time>
      </trkpt>
      <trkpt lat="52.125134" lon="4.4664984">
        <ele>3200.0</ele>
        <time>2020-09-21T11:53:26Z</time>
      </trkpt>
      <trkpt lat="52.125122" lon="4.466519">
        <ele>3200.0</ele>
        <time>2020-09-21T11:53:27Z</time>
      </trkpt>
      <trkpt lat="52.12512" lon="4.466533">
        <ele>3200.0</ele>
        <time>2020-09-21T11:53:28Z</time>
      </trkpt>
      <trkpt lat="52.12512" lon="4.4665422">
        <ele>3200.0</ele>
        <time>2020-09-21T11:53:29Z</time>
      </trkpt>
      <trkpt lat="52.12512" lon="4.4665475">
        <ele>3100.0</ele>
        <time>2020-09-21T11:53:30Z</time>
      </trkpt>
      <trkpt lat="52.125122" lon="4.4665523">
        <ele>3100.0</ele>
        <time>2020-09-21T11:53:32Z</time>
      </trkpt>
      <trkpt lat="52.125122" lon="4.4665527">
        <ele>3100.0</ele>
        <time>2020-09-21T11:53:32Z</time>
      </trkpt>
      <trkpt lat="52.125122" lon="4.466554">
        <ele>3100.0</ele>
        <time>2020-09-21T11:53:33Z</time>
      </trkpt>
      <trkpt lat="52.125126" lon="4.4665556">
        <ele>3100.0</ele>
        <time>2020-09-21T11:53:34Z</time>
      </trkpt>
      <trkpt lat="52.125126" lon="4.466557">
        <ele>3100.0</ele>
        <time>2020-09-21T11:53:35Z</time>
      </trkpt>
      <trkpt lat="52.125122" lon="4.466559">
        <ele>3100.0</ele>
        <time>2020-09-21T11:53:36Z</time>
      </trkpt>
      <trkpt lat="52.12512" lon="4.4665623">
        <ele>3100.0</ele>
        <time>2020-09-21T11:53:37Z</time>
      </trkpt>
      <trkpt lat="52.12512" lon="4.466565">
        <ele>3100.0</ele>
        <time>2020-09-21T11:53:38Z</time>
      </trkpt>
      <trkpt lat="52.12511" lon="4.4665685">
        <ele>3100.0</ele>
        <time>2020-09-21T11:53:39Z</time>
      </trkpt>
      <trkpt lat="52.125107" lon="4.4665723">
        <ele>3100.0</ele>
        <time>2020-09-21T11:53:40Z</time>
      </trkpt>
      <trkpt lat="52.125095" lon="4.4665756">
        <ele>3100.0</ele>
        <time>2020-09-21T11:53:43Z</time>
      </trkpt>
      <trkpt lat="52.125095" lon="4.466574">
        <ele>3100.0</ele>
        <time>2020-09-21T11:53:43Z</time>
      </trkpt>
      <trkpt lat="52.125095" lon="4.4665704">
        <ele>3100.0</ele>
        <time>2020-09-21T11:53:44Z</time>
      </trkpt>
      <trkpt lat="52.125103" lon="4.4665666">
        <ele>3100.0</ele>
        <time>2020-09-21T11:53:45Z</time>
      </trkpt>
      <trkpt lat="52.125103" lon="4.466561">
        <ele>3100.0</ele>
        <time>2020-09-21T11:54:01Z</time>
      </trkpt>
      <trkpt lat="52.125103" lon="4.466569">
        <ele>3100.0</ele>
        <time>2020-09-21T11:54:03Z</time>
      </trkpt>
      <trkpt lat="52.125103" lon="4.466574">
        <ele>3100.0</ele>
        <time>2020-09-21T11:54:05Z</time>
      </trkpt>
      <trkpt lat="52.125103" lon="4.466574">
        <ele>3100.0</ele>
        <time>2020-09-21T11:54:06Z</time>
      </trkpt>
      <trkpt lat="52.125107" lon="4.4665756">
        <ele>3100.0</ele>
        <time>2020-09-21T11:54:08Z</time>
      </trkpt>
      <trkpt lat="52.125107" lon="4.466576">
        <ele>3100.0</ele>
        <time>2020-09-21T11:54:09Z</time>
      </trkpt>
      <trkpt lat="52.12511" lon="4.4665804">
        <ele>3100.0</ele>
        <time>2020-09-21T11:54:12Z</time>
      </trkpt>
      <trkpt lat="52.12511" lon="4.466581">
        <ele>3100.0</ele>
        <time>2020-09-21T11:54:13Z</time>
      </trkpt>
      <trkpt lat="52.12512" lon="4.4665856">
        <ele>3100.0</ele>
        <time>2020-09-21T11:54:20Z</time>
      </trkpt>
      <trkpt lat="52.12512" lon="4.4665856">
        <ele>3100.0</ele>
        <time>2020-09-21T11:54:21Z</time>
      </trkpt>
      <trkpt lat="52.125122" lon="4.466586">
        <ele>3100.0</ele>
        <time>2020-09-21T11:54:22Z</time>
      </trkpt>
      <trkpt lat="52.125126" lon="4.466589">
        <ele>3100.0</ele>
        <time>2020-09-21T11:54:24Z</time>
      </trkpt>
      <trkpt lat="52.125126" lon="4.466588">
        <ele>3100.0</ele>
        <time>2020-09-21T11:54:25Z</time>
      </trkpt>
      <trkpt lat="52.125126" lon="4.466586">
        <ele>3100.0</ele>
        <time>2020-09-21T11:54:26Z</time>
      </trkpt>
      <trkpt lat="52.125126" lon="4.4665794">
        <ele>3100.0</ele>
        <time>2020-09-21T11:54:27Z</time>
      </trkpt>
      <trkpt lat="52.125122" lon="4.466573">
        <ele>3100.0</ele>
        <time>2020-09-21T11:54:28Z</time>
      </trkpt>
      <trkpt lat="52.12512" lon="4.4665675">
        <ele>3100.0</ele>
        <time>2020-09-21T11:54:29Z</time>
      </trkpt>
      <trkpt lat="52.12511" lon="4.466562">
        <ele>3100.0</ele>
        <time>2020-09-21T11:54:30Z</time>
      </trkpt>
      <trkpt lat="52.12511" lon="4.4665585">
        <ele>3100.0</ele>
        <time>2020-09-21T11:54:31Z</time>
      </trkpt>
      <trkpt lat="52.12511" lon="4.4665585">
        <ele>3100.0</ele>
        <time>2020-09-21T11:54:32Z</time>
      </trkpt>
      <trkpt lat="52.12512" lon="4.4665637">
        <ele>3100.0</ele>
        <time>2020-09-21T11:54:41Z</time>
      </trkpt>
      <trkpt lat="52.12512" lon="4.4665704">
        <ele>3100.0</ele>
        <time>2020-09-21T11:54:42Z</time>
      </trkpt>
      <trkpt lat="52.125134" lon="4.4665856">
        <ele>3100.0</ele>
        <time>2020-09-21T11:54:43Z</time>
      </trkpt>
      <trkpt lat="52.12514" lon="4.4666085">
        <ele>3100.0</ele>
        <time>2020-09-21T11:54:44Z</time>
      </trkpt>
      <trkpt lat="52.125164" lon="4.4666367">
        <ele>3100.0</ele>
        <time>2020-09-21T11:54:45Z</time>
      </trkpt>
      <trkpt lat="52.125183" lon="4.4666686">
        <ele>3100.0</ele>
        <time>2020-09-21T11:54:46Z</time>
      </trkpt>
      <trkpt lat="52.125206" lon="4.466706">
        <ele>3100.0</ele>
        <time>2020-09-21T11:54:47Z</time>
      </trkpt>
      <trkpt lat="52.12522" lon="4.4667435">
        <ele>3100.0</ele>
        <time>2020-09-21T11:54:48Z</time>
      </trkpt>
      <trkpt lat="52.12524" lon="4.466783">
        <ele>3100.0</ele>
        <time>2020-09-21T11:54:49Z</time>
      </trkpt>
      <trkpt lat="52.125256" lon="4.4668236">
        <ele>3100.0</ele>
        <time>2020-09-21T11:54:50Z</time>
      </trkpt>
      <trkpt lat="52.125267" lon="4.4668684">
        <ele>3100.0</ele>
        <time>2020-09-21T11:54:51Z</time>
      </trkpt>
      <trkpt lat="52.12527" lon="4.466916">
        <ele>3100.0</ele>
        <time>2020-09-21T11:54:52Z</time>
      </trkpt>
      <trkpt lat="52.125275" lon="4.4669657">
        <ele>3100.0</ele>
        <time>2020-09-21T11:54:53Z</time>
      </trkpt>
      <trkpt lat="52.125275" lon="4.4670134">
        <ele>3100.0</ele>
        <time>2020-09-21T11:54:54Z</time>
      </trkpt>
      <trkpt lat="52.12527" lon="4.467065">
        <ele>3100.0</ele>
        <time>2020-09-21T11:54:55Z</time>
      </trkpt>
      <trkpt lat="52.12526" lon="4.4671144">
        <ele>3100.0</ele>
        <time>2020-09-21T11:54:56Z</time>
      </trkpt>
      <trkpt lat="52.12525" lon="4.4671645">
        <ele>3100.0</ele>
        <time>2020-09-21T11:54:57Z</time>
      </trkpt>
      <trkpt lat="52.12524" lon="4.4672103">
        <ele>3100.0</ele>
        <time>2020-09-21T11:54:58Z</time>
      </trkpt>
      <trkpt lat="52.125225" lon="4.4672565">
        <ele>3100.0</ele>
        <time>2020-09-21T11:54:59Z</time>
      </trkpt>
      <trkpt lat="52.125214" lon="4.4673014">
        <ele>3100.0</ele>
        <time>2020-09-21T11:55:00Z</time>
      </trkpt>
      <trkpt lat="52.1252" lon="4.467349">
        <ele>3100.0</ele>
        <time>2020-09-21T11:55:01Z</time>
      </trkpt>
      <trkpt lat="52.125183" lon="4.4673986">
        <ele>3100.0</ele>
        <time>2020-09-21T11:55:02Z</time>
      </trkpt>
      <trkpt lat="52.125175" lon="4.467457">
        <ele>3100.0</ele>
        <time>2020-09-21T11:55:03Z</time>
      </trkpt>
      <trkpt lat="52.12516" lon="4.467516">
        <ele>3100.0</ele>
        <time>2020-09-21T11:55:04Z</time>
      </trkpt>
      <trkpt lat="52.125153" lon="4.4675746">
        <ele>3100.0</ele>
        <time>2020-09-21T11:55:05Z</time>
      </trkpt>
      <trkpt lat="52.125153" lon="4.4676423">
        <ele>3100.0</ele>
        <time>2020-09-21T11:55:06Z</time>
      </trkpt>
      <trkpt lat="52.12515" lon="4.467709">
        <ele>3100.0</ele>
        <time>2020-09-21T11:55:08Z</time>
      </trkpt>
      <trkpt lat="52.12514" lon="4.467775">
        <ele>3100.0</ele>
        <time>2020-09-21T11:55:08Z</time>
      </trkpt>
      <trkpt lat="52.125134" lon="4.4678373">
        <ele>3100.0</ele>
        <time>2020-09-21T11:55:09Z</time>
      </trkpt>
      <trkpt lat="52.125126" lon="4.4678936">
        <ele>3100.0</ele>
        <time>2020-09-21T11:55:10Z</time>
      </trkpt>
      <trkpt lat="52.125122" lon="4.4679503">
        <ele>3100.0</ele>
        <time>2020-09-21T11:55:11Z</time>
      </trkpt>
      <trkpt lat="52.12511" lon="4.4680095">
        <ele>3100.0</ele>
        <time>2020-09-21T11:55:12Z</time>
      </trkpt>
      <trkpt lat="52.125107" lon="4.4680715">
        <ele>3100.0</ele>
        <time>2020-09-21T11:55:13Z</time>
      </trkpt>
      <trkpt lat="52.12509" lon="4.4681363">
        <ele>3100.0</ele>
        <time>2020-09-21T11:55:14Z</time>
      </trkpt>
      <trkpt lat="52.12508" lon="4.4681973">
        <ele>3100.0</ele>
        <time>2020-09-21T11:55:15Z</time>
      </trkpt>
      <trkpt lat="52.12506" lon="4.468258">
        <ele>3100.0</ele>
        <time>2020-09-21T11:55:16Z</time>
      </trkpt>
      <trkpt lat="52.125046" lon="4.468318">
        <ele>3100.0</ele>
        <time>2020-09-21T11:55:17Z</time>
      </trkpt>
      <trkpt lat="52.125027" lon="4.4683723">
        <ele>3100.0</ele>
        <time>2020-09-21T11:55:18Z</time>
      </trkpt>
      <trkpt lat="52.12501" lon="4.468423">
        <ele>3100.0</ele>
        <time>2020-09-21T11:55:19Z</time>
      </trkpt>
      <trkpt lat="52.12499" lon="4.4684696">
        <ele>3100.0</ele>
        <time>2020-09-21T11:55:20Z</time>
      </trkpt>
      <trkpt lat="52.124966" lon="4.468519">
        <ele>3100.0</ele>
        <time>2020-09-21T11:55:21Z</time>
      </trkpt>
      <trkpt lat="52.124943" lon="4.468567">
        <ele>3100.0</ele>
        <time>2020-09-21T11:55:22Z</time>
      </trkpt>
      <trkpt lat="52.124916" lon="4.4686155">
        <ele>3100.0</ele>
        <time>2020-09-21T11:55:23Z</time>
      </trkpt>
      <trkpt lat="52.124893" lon="4.468665">
        <ele>3100.0</ele>
        <time>2020-09-21T11:55:24Z</time>
      </trkpt>
      <trkpt lat="52.124866" lon="4.468721">
        <ele>3100.0</ele>
        <time>2020-09-21T11:55:26Z</time>
      </trkpt>
      <trkpt lat="52.124847" lon="4.468776">
        <ele>3100.0</ele>
        <time>2020-09-21T11:55:26Z</time>
      </trkpt>
      <trkpt lat="52.124832" lon="4.468834">
        <ele>3100.0</ele>
        <time>2020-09-21T11:55:27Z</time>
      </trkpt>
      <trkpt lat="52.12482" lon="4.4688907">
        <ele>3100.0</ele>
        <time>2020-09-21T11:55:28Z</time>
      </trkpt>
      <trkpt lat="52.12481" lon="4.468944">
        <ele>3100.0</ele>
        <time>2020-09-21T11:55:29Z</time>
      </trkpt>
      <trkpt lat="52.124805" lon="4.4689903">
        <ele>3100.0</ele>
        <time>2020-09-21T11:55:30Z</time>
      </trkpt>
      <trkpt lat="52.124794" lon="4.4690375">
        <ele>3100.0</ele>
        <time>2020-09-21T11:55:31Z</time>
      </trkpt>
      <trkpt lat="52.124786" lon="4.4690857">
        <ele>3100.0</ele>
        <time>2020-09-21T11:55:32Z</time>
      </trkpt>
      <trkpt lat="52.124775" lon="4.469134">
        <ele>3100.0</ele>
        <time>2020-09-21T11:55:33Z</time>
      </trkpt>
      <trkpt lat="52.12476" lon="4.4691777">
        <ele>3100.0</ele>
        <time>2020-09-21T11:55:34Z</time>
      </trkpt>
      <trkpt lat="52.12475" lon="4.4692245">
        <ele>3100.0</ele>
        <time>2020-09-21T11:55:35Z</time>
      </trkpt>
      <trkpt lat="52.124733" lon="4.469275">
        <ele>3100.0</ele>
        <time>2020-09-21T11:55:36Z</time>
      </trkpt>
      <trkpt lat="52.124718" lon="4.4693227">
        <ele>3100.0</ele>
        <time>2020-09-21T11:55:37Z</time>
      </trkpt>
      <trkpt lat="52.124702" lon="4.4693704">
        <ele>3100.0</ele>
        <time>2020-09-21T11:55:38Z</time>
      </trkpt>
      <trkpt lat="52.124687" lon="4.4694204">
        <ele>3100.0</ele>
        <time>2020-09-21T11:55:39Z</time>
      </trkpt>
      <trkpt lat="52.124676" lon="4.4694734">
        <ele>3100.0</ele>
        <time>2020-09-21T11:55:40Z</time>
      </trkpt>
      <trkpt lat="52.12467" lon="4.4695272">
        <ele>3100.0</ele>
        <time>2020-09-21T11:55:41Z</time>
      </trkpt>
      <trkpt lat="52.124653" lon="4.469582">
        <ele>3100.0</ele>
        <time>2020-09-21T11:55:42Z</time>
      </trkpt>
      <trkpt lat="52.12464" lon="4.4696336">
        <ele>3100.0</ele>
        <time>2020-09-21T11:55:43Z</time>
      </trkpt>
      <trkpt lat="52.124626" lon="4.4696836">
        <ele>3100.0</ele>
        <time>2020-09-21T11:55:44Z</time>
      </trkpt>
      <trkpt lat="52.124615" lon="4.469737">
        <ele>3100.0</ele>
        <time>2020-09-21T11:55:45Z</time>
      </trkpt>
      <trkpt lat="52.1246" lon="4.469786">
        <ele>3100.0</ele>
        <time>2020-09-21T11:55:47Z</time>
      </trkpt>
      <trkpt lat="52.124584" lon="4.4698305">
        <ele>3100.0</ele>
        <time>2020-09-21T11:55:47Z</time>
      </trkpt>
      <trkpt lat="52.124565" lon="4.4698663">
        <ele>3100.0</ele>
        <time>2020-09-21T11:55:48Z</time>
      </trkpt>
      <trkpt lat="52.124542" lon="4.4698925">
        <ele>3100.0</ele>
        <time>2020-09-21T11:55:49Z</time>
      </trkpt>
      <trkpt lat="52.12451" lon="4.469911">
        <ele>3100.0</ele>
        <time>2020-09-21T11:55:50Z</time>
      </trkpt>
      <trkpt lat="52.12448" lon="4.469927">
        <ele>3100.0</ele>
        <time>2020-09-21T11:55:51Z</time>
      </trkpt>
      <trkpt lat="52.124447" lon="4.4699426">
        <ele>3100.0</ele>
        <time>2020-09-21T11:55:52Z</time>
      </trkpt>
      <trkpt lat="52.124413" lon="4.469955">
        <ele>3100.0</ele>
        <time>2020-09-21T11:55:53Z</time>
      </trkpt>
      <trkpt lat="52.124382" lon="4.469968">
        <ele>3100.0</ele>
        <time>2020-09-21T11:55:54Z</time>
      </trkpt>
      <trkpt lat="52.124344" lon="4.4699826">
        <ele>3100.0</ele>
        <time>2020-09-21T11:55:55Z</time>
      </trkpt>
      <trkpt lat="52.12431" lon="4.4700007">
        <ele>3100.0</ele>
        <time>2020-09-21T11:55:57Z</time>
      </trkpt>
      <trkpt lat="52.12427" lon="4.4700217">
        <ele>3100.0</ele>
        <time>2020-09-21T11:55:57Z</time>
      </trkpt>
      <trkpt lat="52.124237" lon="4.470045">
        <ele>3100.0</ele>
        <time>2020-09-21T11:55:58Z</time>
      </trkpt>
      <trkpt lat="52.124203" lon="4.4700794">
        <ele>3100.0</ele>
        <time>2020-09-21T11:55:59Z</time>
      </trkpt>
      <trkpt lat="52.124165" lon="4.4701147">
        <ele>3100.0</ele>
        <time>2020-09-21T11:56:00Z</time>
      </trkpt>
      <trkpt lat="52.124123" lon="4.470153">
        <ele>3100.0</ele>
        <time>2020-09-21T11:56:01Z</time>
      </trkpt>
      <trkpt lat="52.12409" lon="4.47019">
        <ele>3100.0</ele>
        <time>2020-09-21T11:56:02Z</time>
      </trkpt>
      <trkpt lat="52.124046" lon="4.470227">
        <ele>3100.0</ele>
        <time>2020-09-21T11:56:03Z</time>
      </trkpt>
      <trkpt lat="52.124012" lon="4.4702606">
        <ele>3100.0</ele>
        <time>2020-09-21T11:56:04Z</time>
      </trkpt>
      <trkpt lat="52.123974" lon="4.4702935">
        <ele>3100.0</ele>
        <time>2020-09-21T11:56:05Z</time>
      </trkpt>
      <trkpt lat="52.12395" lon="4.4703217">
        <ele>3100.0</ele>
        <time>2020-09-21T11:56:06Z</time>
      </trkpt>
      <trkpt lat="52.12392" lon="4.4703455">
        <ele>3100.0</ele>
        <time>2020-09-21T11:56:07Z</time>
      </trkpt>
      <trkpt lat="52.123898" lon="4.470365">
        <ele>3100.0</ele>
        <time>2020-09-21T11:56:08Z</time>
      </trkpt>
      <trkpt lat="52.12388" lon="4.470384">
        <ele>3100.0</ele>
        <time>2020-09-21T11:56:09Z</time>
      </trkpt>
      <trkpt lat="52.12386" lon="4.470402">
        <ele>3100.0</ele>
        <time>2020-09-21T11:56:10Z</time>
      </trkpt>
      <trkpt lat="52.123837" lon="4.4704204">
        <ele>3100.0</ele>
        <time>2020-09-21T11:56:11Z</time>
      </trkpt>
      <trkpt lat="52.12382" lon="4.470438">
        <ele>3100.0</ele>
        <time>2020-09-21T11:56:11Z</time>
      </trkpt>
      <trkpt lat="52.123802" lon="4.4704585">
        <ele>3100.0</ele>
        <time>2020-09-21T11:56:12Z</time>
      </trkpt>
      <trkpt lat="52.123787" lon="4.4704795">
        <ele>3100.0</ele>
        <time>2020-09-21T11:56:13Z</time>
      </trkpt>
      <trkpt lat="52.12377" lon="4.470498">
        <ele>3100.0</ele>
        <time>2020-09-21T11:56:14Z</time>
      </trkpt>
      <trkpt lat="52.123756" lon="4.470515">
        <ele>3100.0</ele>
        <time>2020-09-21T11:56:15Z</time>
      </trkpt>
      <trkpt lat="52.12374" lon="4.470527">
        <ele>3100.0</ele>
        <time>2020-09-21T11:56:16Z</time>
      </trkpt>
      <trkpt lat="52.123726" lon="4.470541">
        <ele>3100.0</ele>
        <time>2020-09-21T11:56:18Z</time>
      </trkpt>
      <trkpt lat="52.12371" lon="4.4705563">
        <ele>3100.0</ele>
        <time>2020-09-21T11:56:18Z</time>
      </trkpt>
      <trkpt lat="52.123695" lon="4.470572">
        <ele>3100.0</ele>
        <time>2020-09-21T11:56:19Z</time>
      </trkpt>
      <trkpt lat="52.12368" lon="4.4705896">
        <ele>3100.0</ele>
        <time>2020-09-21T11:56:20Z</time>
      </trkpt>
      <trkpt lat="52.12367" lon="4.470606">
        <ele>3100.0</ele>
        <time>2020-09-21T11:56:21Z</time>
      </trkpt>
      <trkpt lat="52.123653" lon="4.4706197">
        <ele>3100.0</ele>
        <time>2020-09-21T11:56:22Z</time>
      </trkpt>
      <trkpt lat="52.123642" lon="4.470633">
        <ele>3100.0</ele>
        <time>2020-09-21T11:56:23Z</time>
      </trkpt>
      <trkpt lat="52.12364" lon="4.470644">
        <ele>3100.0</ele>
        <time>2020-09-21T11:56:24Z</time>
      </trkpt>
      <trkpt lat="52.123627" lon="4.4706473">
        <ele>3100.0</ele>
        <time>2020-09-21T11:56:25Z</time>
      </trkpt>
      <trkpt lat="52.123627" lon="4.470647">
        <ele>3100.0</ele>
        <time>2020-09-21T11:56:26Z</time>
      </trkpt>
      <trkpt lat="52.123623" lon="4.4706426">
        <ele>3100.0</ele>
        <time>2020-09-21T11:56:28Z</time>
      </trkpt>
      <trkpt lat="52.123623" lon="4.4706364">
        <ele>3100.0</ele>
        <time>2020-09-21T11:56:28Z</time>
      </trkpt>
      <trkpt lat="52.123623" lon="4.4706283">
        <ele>3100.0</ele>
        <time>2020-09-21T11:56:30Z</time>
      </trkpt>
      <trkpt lat="52.123623" lon="4.470617">
        <ele>3100.0</ele>
        <time>2020-09-21T11:56:30Z</time>
      </trkpt>
      <trkpt lat="52.123623" lon="4.470603">
        <ele>3100.0</ele>
        <time>2020-09-21T11:56:31Z</time>
      </trkpt>
      <trkpt lat="52.123627" lon="4.4705896">
        <ele>3100.0</ele>
        <time>2020-09-21T11:56:32Z</time>
      </trkpt>
      <trkpt lat="52.123634" lon="4.4705734">
        <ele>3100.0</ele>
        <time>2020-09-21T11:56:33Z</time>
      </trkpt>
      <trkpt lat="52.123642" lon="4.470554">
        <ele>3100.0</ele>
        <time>2020-09-21T11:56:34Z</time>
      </trkpt>
      <trkpt lat="52.123653" lon="4.470534">
        <ele>3100.0</ele>
        <time>2020-09-21T11:56:35Z</time>
      </trkpt>
      <trkpt lat="52.12367" lon="4.470514">
        <ele>3100.0</ele>
        <time>2020-09-21T11:56:36Z</time>
      </trkpt>
      <trkpt lat="52.123684" lon="4.4704933">
        <ele>3100.0</ele>
        <time>2020-09-21T11:56:37Z</time>
      </trkpt>
      <trkpt lat="52.123703" lon="4.4704742">
        <ele>3100.0</ele>
        <time>2020-09-21T11:56:38Z</time>
      </trkpt>
      <trkpt lat="52.123726" lon="4.4704556">
        <ele>3100.0</ele>
        <time>2020-09-21T11:56:39Z</time>
      </trkpt>
      <trkpt lat="52.123745" lon="4.4704385">
        <ele>3100.0</ele>
        <time>2020-09-21T11:56:40Z</time>
      </trkpt>
      <trkpt lat="52.123764" lon="4.470423">
        <ele>3100.0</ele>
        <time>2020-09-21T11:56:41Z</time>
      </trkpt>
      <trkpt lat="52.123787" lon="4.4704075">
        <ele>3100.0</ele>
        <time>2020-09-21T11:56:42Z</time>
      </trkpt>
      <trkpt lat="52.123806" lon="4.4703884">
        <ele>3100.0</ele>
        <time>2020-09-21T11:56:43Z</time>
      </trkpt>
      <trkpt lat="52.12382" lon="4.4703636">
        <ele>3100.0</ele>
        <time>2020-09-21T11:56:44Z</time>
      </trkpt>
      <trkpt lat="52.123837" lon="4.470334">
        <ele>3100.0</ele>
        <time>2020-09-21T11:56:45Z</time>
      </trkpt>
      <trkpt lat="52.123848" lon="4.470302">
        <ele>3100.0</ele>
        <time>2020-09-21T11:56:46Z</time>
      </trkpt>
      <trkpt lat="52.12385" lon="4.4702687">
        <ele>3100.0</ele>
        <time>2020-09-21T11:56:47Z</time>
      </trkpt>
      <trkpt lat="52.123848" lon="4.470232">
        <ele>3100.0</ele>
        <time>2020-09-21T11:56:49Z</time>
      </trkpt>
      <trkpt lat="52.123844" lon="4.470192">
        <ele>3100.0</ele>
        <time>2020-09-21T11:56:49Z</time>
      </trkpt>
      <trkpt lat="52.123833" lon="4.4701576">
        <ele>3100.0</ele>
        <time>2020-09-21T11:56:50Z</time>
      </trkpt>
      <trkpt lat="52.123817" lon="4.4701295">
        <ele>3100.0</ele>
        <time>2020-09-21T11:56:51Z</time>
      </trkpt>
      <trkpt lat="52.12379" lon="4.4701066">
        <ele>3100.0</ele>
        <time>2020-09-21T11:56:52Z</time>
      </trkpt>
      <trkpt lat="52.12377" lon="4.4700933">
        <ele>3100.0</ele>
        <time>2020-09-21T11:56:53Z</time>
      </trkpt>
      <trkpt lat="52.123745" lon="4.470087">
        <ele>3100.0</ele>
        <time>2020-09-21T11:56:54Z</time>
      </trkpt>
      <trkpt lat="52.123714" lon="4.4700875">
        <ele>3100.0</ele>
        <time>2020-09-21T11:56:55Z</time>
      </trkpt>
      <trkpt lat="52.12368" lon="4.4700933">
        <ele>3100.0</ele>
        <time>2020-09-21T11:56:56Z</time>
      </trkpt>
      <trkpt lat="52.123642" lon="4.4701">
        <ele>3100.0</ele>
        <time>2020-09-21T11:56:57Z</time>
      </trkpt>
      <trkpt lat="52.12361" lon="4.47011">
        <ele>3100.0</ele>
        <time>2020-09-21T11:56:58Z</time>
      </trkpt>
      <trkpt lat="52.123577" lon="4.470119">
        <ele>3100.0</ele>
        <time>2020-09-21T11:56:59Z</time>
      </trkpt>
      <trkpt lat="52.12355" lon="4.470125">
        <ele>3100.0</ele>
        <time>2020-09-21T11:57:00Z</time>
      </trkpt>
      <trkpt lat="52.12352" lon="4.470132">
        <ele>3100.0</ele>
        <time>2020-09-21T11:57:01Z</time>
      </trkpt>
      <trkpt lat="52.12349" lon="4.470138">
        <ele>3100.0</ele>
        <time>2020-09-21T11:57:02Z</time>
      </trkpt>
      <trkpt lat="52.123455" lon="4.470145">
        <ele>3100.0</ele>
        <time>2020-09-21T11:57:03Z</time>
      </trkpt>
      <trkpt lat="52.123425" lon="4.470155">
        <ele>3100.0</ele>
        <time>2020-09-21T11:57:04Z</time>
      </trkpt>
      <trkpt lat="52.123386" lon="4.4701657">
        <ele>3100.0</ele>
        <time>2020-09-21T11:57:05Z</time>
      </trkpt>
      <trkpt lat="52.123356" lon="4.470177">
        <ele>3100.0</ele>
        <time>2020-09-21T11:57:06Z</time>
      </trkpt>
      <trkpt lat="52.12332" lon="4.4701886">
        <ele>3100.0</ele>
        <time>2020-09-21T11:57:07Z</time>
      </trkpt>
      <trkpt lat="52.123283" lon="4.470197">
        <ele>3100.0</ele>
        <time>2020-09-21T11:57:08Z</time>
      </trkpt>
      <trkpt lat="52.12325" lon="4.4702024">
        <ele>3100.0</ele>
        <time>2020-09-21T11:57:10Z</time>
      </trkpt>
      <trkpt lat="52.12321" lon="4.470204">
        <ele>3100.0</ele>
        <time>2020-09-21T11:57:10Z</time>
      </trkpt>
      <trkpt lat="52.123177" lon="4.470201">
        <ele>3100.0</ele>
        <time>2020-09-21T11:57:11Z</time>
      </trkpt>
      <trkpt lat="52.123142" lon="4.470193">
        <ele>3100.0</ele>
        <time>2020-09-21T11:57:12Z</time>
      </trkpt>
      <trkpt lat="52.123104" lon="4.470181">
        <ele>3100.0</ele>
        <time>2020-09-21T11:57:13Z</time>
      </trkpt>
      <trkpt lat="52.12307" lon="4.4701653">
        <ele>3100.0</ele>
        <time>2020-09-21T11:57:14Z</time>
      </trkpt>
      <trkpt lat="52.123035" lon="4.4701486">
        <ele>3100.0</ele>
        <time>2020-09-21T11:57:15Z</time>
      </trkpt>
      <trkpt lat="52.122997" lon="4.470127">
        <ele>3100.0</ele>
        <time>2020-09-21T11:57:17Z</time>
      </trkpt>
      <trkpt lat="52.122955" lon="4.470102">
        <ele>3100.0</ele>
        <time>2020-09-21T11:57:17Z</time>
      </trkpt>
      <trkpt lat="52.12292" lon="4.470073">
        <ele>3100.0</ele>
        <time>2020-09-21T11:57:18Z</time>
      </trkpt>
      <trkpt lat="52.122887" lon="4.4700446">
        <ele>3100.0</ele>
        <time>2020-09-21T11:57:19Z</time>
      </trkpt>
      <trkpt lat="52.12285" lon="4.4700184">
        <ele>3100.0</ele>
        <time>2020-09-21T11:57:20Z</time>
      </trkpt>
      <trkpt lat="52.122814" lon="4.4699926">
        <ele>3100.0</ele>
        <time>2020-09-21T11:57:21Z</time>
      </trkpt>
      <trkpt lat="52.122784" lon="4.4699697">
        <ele>3100.0</ele>
        <time>2020-09-21T11:57:22Z</time>
      </trkpt>
      <trkpt lat="52.122746" lon="4.4699464">
        <ele>3100.0</ele>
        <time>2020-09-21T11:57:23Z</time>
      </trkpt>
      <trkpt lat="52.122715" lon="4.469924">
        <ele>3100.0</ele>
        <time>2020-09-21T11:57:24Z</time>
      </trkpt>
      <trkpt lat="52.12268" lon="4.4699016">
        <ele>3100.0</ele>
        <time>2020-09-21T11:57:25Z</time>
      </trkpt>
      <trkpt lat="52.12264" lon="4.469879">
        <ele>3100.0</ele>
        <time>2020-09-21T11:57:26Z</time>
      </trkpt>
      <trkpt lat="52.122604" lon="4.4698524">
        <ele>3100.0</ele>
        <time>2020-09-21T11:57:27Z</time>
      </trkpt>
      <trkpt lat="52.122566" lon="4.469825">
        <ele>3100.0</ele>
        <time>2020-09-21T11:57:28Z</time>
      </trkpt>
      <trkpt lat="52.12253" lon="4.4697986">
        <ele>3100.0</ele>
        <time>2020-09-21T11:57:29Z</time>
      </trkpt>
      <trkpt lat="52.122498" lon="4.4697733">
        <ele>3100.0</ele>
        <time>2020-09-21T11:57:30Z</time>
      </trkpt>
      <trkpt lat="52.12246" lon="4.4697523">
        <ele>3100.0</ele>
        <time>2020-09-21T11:57:31Z</time>
      </trkpt>
      <trkpt lat="52.122425" lon="4.469731">
        <ele>3100.0</ele>
        <time>2020-09-21T11:57:32Z</time>
      </trkpt>
      <trkpt lat="52.122387" lon="4.4697075">
        <ele>3100.0</ele>
        <time>2020-09-21T11:57:33Z</time>
      </trkpt>
      <trkpt lat="52.122353" lon="4.4696774">
        <ele>3100.0</ele>
        <time>2020-09-21T11:57:34Z</time>
      </trkpt>
      <trkpt lat="52.122322" lon="4.469647">
        <ele>3100.0</ele>
        <time>2020-09-21T11:57:35Z</time>
      </trkpt>
      <trkpt lat="52.122288" lon="4.4696193">
        <ele>3100.0</ele>
        <time>2020-09-21T11:57:36Z</time>
      </trkpt>
      <trkpt lat="52.122246" lon="4.4695926">
        <ele>3100.0</ele>
        <time>2020-09-21T11:57:38Z</time>
      </trkpt>
      <trkpt lat="52.122208" lon="4.469564">
        <ele>3100.0</ele>
        <time>2020-09-21T11:57:38Z</time>
      </trkpt>
      <trkpt lat="52.12217" lon="4.4695344">
        <ele>3100.0</ele>
        <time>2020-09-21T11:57:39Z</time>
      </trkpt>
      <trkpt lat="52.12213" lon="4.4695034">
        <ele>3100.0</ele>
        <time>2020-09-21T11:57:40Z</time>
      </trkpt>
      <trkpt lat="52.122093" lon="4.469473">
        <ele>3100.0</ele>
        <time>2020-09-21T11:57:41Z</time>
      </trkpt>
      <trkpt lat="52.122055" lon="4.4694424">
        <ele>3100.0</ele>
        <time>2020-09-21T11:57:42Z</time>
      </trkpt>
      <trkpt lat="52.12202" lon="4.4694114">
        <ele>3100.0</ele>
        <time>2020-09-21T11:57:43Z</time>
      </trkpt>
      <trkpt lat="52.121983" lon="4.4693832">
        <ele>3100.0</ele>
        <time>2020-09-21T11:57:44Z</time>
      </trkpt>
      <trkpt lat="52.121952" lon="4.4693584">
        <ele>3100.0</ele>
        <time>2020-09-21T11:57:45Z</time>
      </trkpt>
      <trkpt lat="52.12193" lon="4.469336">
        <ele>3100.0</ele>
        <time>2020-09-21T11:57:46Z</time>
      </trkpt>
      <trkpt lat="52.1219" lon="4.4693136">
        <ele>3100.0</ele>
        <time>2020-09-21T11:57:47Z</time>
      </trkpt>
      <trkpt lat="52.121872" lon="4.469291">
        <ele>3100.0</ele>
        <time>2020-09-21T11:57:48Z</time>
      </trkpt>
      <trkpt lat="52.12184" lon="4.469271">
        <ele>3100.0</ele>
        <time>2020-09-21T11:57:49Z</time>
      </trkpt>
      <trkpt lat="52.121815" lon="4.4692545">
        <ele>3100.0</ele>
        <time>2020-09-21T11:57:50Z</time>
      </trkpt>
      <trkpt lat="52.121784" lon="4.4692416">
        <ele>3100.0</ele>
        <time>2020-09-21T11:57:51Z</time>
      </trkpt>
      <trkpt lat="52.121758" lon="4.4692287">
        <ele>3100.0</ele>
        <time>2020-09-21T11:57:52Z</time>
      </trkpt>
      <trkpt lat="52.121727" lon="4.4692154">
        <ele>3100.0</ele>
        <time>2020-09-21T11:57:53Z</time>
      </trkpt>
      <trkpt lat="52.121704" lon="4.469202">
        <ele>3100.0</ele>
        <time>2020-09-21T11:57:54Z</time>
      </trkpt>
      <trkpt lat="52.121677" lon="4.469187">
        <ele>3100.0</ele>
        <time>2020-09-21T11:57:55Z</time>
      </trkpt>
      <trkpt lat="52.12165" lon="4.469173">
        <ele>3100.0</ele>
        <time>2020-09-21T11:57:56Z</time>
      </trkpt>
      <trkpt lat="52.121624" lon="4.4691577">
        <ele>3100.0</ele>
        <time>2020-09-21T11:57:57Z</time>
      </trkpt>
      <trkpt lat="52.121605" lon="4.4691443">
        <ele>3100.0</ele>
        <time>2020-09-21T11:57:59Z</time>
      </trkpt>
      <trkpt lat="52.12158" lon="4.469135">
        <ele>3100.0</ele>
        <time>2020-09-21T11:57:59Z</time>
      </trkpt>
      <trkpt lat="52.12156" lon="4.4691267">
        <ele>3100.0</ele>
        <time>2020-09-21T11:58:00Z</time>
      </trkpt>
      <trkpt lat="52.12154" lon="4.469119">
        <ele>3100.0</ele>
        <time>2020-09-21T11:58:01Z</time>
      </trkpt>
      <trkpt lat="52.121517" lon="4.46911">
        <ele>3100.0</ele>
        <time>2020-09-21T11:58:02Z</time>
      </trkpt>
      <trkpt lat="52.1215" lon="4.4691057">
        <ele>3100.0</ele>
        <time>2020-09-21T11:58:03Z</time>
      </trkpt>
      <trkpt lat="52.121475" lon="4.4691067">
        <ele>3100.0</ele>
        <time>2020-09-21T11:58:04Z</time>
      </trkpt>
      <trkpt lat="52.12146" lon="4.4691143">
        <ele>3100.0</ele>
        <time>2020-09-21T11:58:05Z</time>
      </trkpt>
      <trkpt lat="52.121445" lon="4.469128">
        <ele>3100.0</ele>
        <time>2020-09-21T11:58:06Z</time>
      </trkpt>
      <trkpt lat="52.12143" lon="4.4691463">
        <ele>3100.0</ele>
        <time>2020-09-21T11:58:07Z</time>
      </trkpt>
      <trkpt lat="52.12141" lon="4.4691668">
        <ele>3100.0</ele>
        <time>2020-09-21T11:58:08Z</time>
      </trkpt>
      <trkpt lat="52.12139" lon="4.4691887">
        <ele>3100.0</ele>
        <time>2020-09-21T11:58:09Z</time>
      </trkpt>
      <trkpt lat="52.12137" lon="4.46921">
        <ele>3100.0</ele>
        <time>2020-09-21T11:58:10Z</time>
      </trkpt>
      <trkpt lat="52.12135" lon="4.469234">
        <ele>3100.0</ele>
        <time>2020-09-21T11:58:11Z</time>
      </trkpt>
      <trkpt lat="52.121323" lon="4.469258">
        <ele>3100.0</ele>
        <time>2020-09-21T11:58:12Z</time>
      </trkpt>
      <trkpt lat="52.1213" lon="4.4692826">
        <ele>3100.0</ele>
        <time>2020-09-21T11:58:13Z</time>
      </trkpt>
      <trkpt lat="52.121273" lon="4.4693036">
        <ele>3100.0</ele>
        <time>2020-09-21T11:58:14Z</time>
      </trkpt>
      <trkpt lat="52.121243" lon="4.469321">
        <ele>3100.0</ele>
        <time>2020-09-21T11:58:15Z</time>
      </trkpt>
      <trkpt lat="52.121216" lon="4.4693356">
        <ele>3100.0</ele>
        <time>2020-09-21T11:58:17Z</time>
      </trkpt>
      <trkpt lat="52.12118" lon="4.4693456">
        <ele>3100.0</ele>
        <time>2020-09-21T11:58:17Z</time>
      </trkpt>
      <trkpt lat="52.12115" lon="4.469351">
        <ele>3100.0</ele>
        <time>2020-09-21T11:58:18Z</time>
      </trkpt>
      <trkpt lat="52.121113" lon="4.4693522">
        <ele>3100.0</ele>
        <time>2020-09-21T11:58:19Z</time>
      </trkpt>
      <trkpt lat="52.121082" lon="4.469352">
        <ele>3100.0</ele>
        <time>2020-09-21T11:58:20Z</time>
      </trkpt>
      <trkpt lat="52.121048" lon="4.469347">
        <ele>3100.0</ele>
        <time>2020-09-21T11:58:21Z</time>
      </trkpt>
      <trkpt lat="52.121017" lon="4.4693394">
        <ele>3100.0</ele>
        <time>2020-09-21T11:58:22Z</time>
      </trkpt>
      <trkpt lat="52.12098" lon="4.4693274">
        <ele>3100.0</ele>
        <time>2020-09-21T11:58:23Z</time>
      </trkpt>
      <trkpt lat="52.12095" lon="4.4693127">
        <ele>3100.0</ele>
        <time>2020-09-21T11:58:24Z</time>
      </trkpt>
      <trkpt lat="52.12092" lon="4.469295">
        <ele>3100.0</ele>
        <time>2020-09-21T11:58:25Z</time>
      </trkpt>
      <trkpt lat="52.120884" lon="4.469274">
        <ele>3100.0</ele>
        <time>2020-09-21T11:58:27Z</time>
      </trkpt>
      <trkpt lat="52.120853" lon="4.4692526">
        <ele>3100.0</ele>
        <time>2020-09-21T11:58:27Z</time>
      </trkpt>
      <trkpt lat="52.120823" lon="4.469231">
        <ele>3100.0</ele>
        <time>2020-09-21T11:58:28Z</time>
      </trkpt>
      <trkpt lat="52.120792" lon="4.469211">
        <ele>3100.0</ele>
        <time>2020-09-21T11:58:29Z</time>
      </trkpt>
      <trkpt lat="52.12076" lon="4.469191">
        <ele>3100.0</ele>
        <time>2020-09-21T11:58:30Z</time>
      </trkpt>
      <trkpt lat="52.120735" lon="4.469172">
        <ele>3100.0</ele>
        <time>2020-09-21T11:58:31Z</time>
      </trkpt>
      <trkpt lat="52.12071" lon="4.4691534">
        <ele>3100.0</ele>
        <time>2020-09-21T11:58:32Z</time>
      </trkpt>
      <trkpt lat="52.12068" lon="4.4691367">
        <ele>3100.0</ele>
        <time>2020-09-21T11:58:33Z</time>
      </trkpt>
      <trkpt lat="52.120663" lon="4.4691176">
        <ele>3100.0</ele>
        <time>2020-09-21T11:58:34Z</time>
      </trkpt>
      <trkpt lat="52.120644" lon="4.469097">
        <ele>3100.0</ele>
        <time>2020-09-21T11:58:35Z</time>
      </trkpt>
      <trkpt lat="52.12063" lon="4.4690747">
        <ele>3100.0</ele>
        <time>2020-09-21T11:58:36Z</time>
      </trkpt>
      <trkpt lat="52.120605" lon="4.4690523">
        <ele>3100.0</ele>
        <time>2020-09-21T11:58:38Z</time>
      </trkpt>
      <trkpt lat="52.120583" lon="4.4690294">
        <ele>3100.0</ele>
        <time>2020-09-21T11:58:38Z</time>
      </trkpt>
      <trkpt lat="52.12056" lon="4.4690027">
        <ele>3100.0</ele>
        <time>2020-09-21T11:58:39Z</time>
      </trkpt>
      <trkpt lat="52.120537" lon="4.4689746">
        <ele>3100.0</ele>
        <time>2020-09-21T11:58:40Z</time>
      </trkpt>
      <trkpt lat="52.120514" lon="4.4689484">
        <ele>3100.0</ele>
        <time>2020-09-21T11:58:41Z</time>
      </trkpt>
      <trkpt lat="52.120487" lon="4.468926">
        <ele>3100.0</ele>
        <time>2020-09-21T11:58:42Z</time>
      </trkpt>
      <trkpt lat="52.120464" lon="4.4689064">
        <ele>3100.0</ele>
        <time>2020-09-21T11:58:43Z</time>
      </trkpt>
      <trkpt lat="52.120438" lon="4.468887">
        <ele>3100.0</ele>
        <time>2020-09-21T11:58:44Z</time>
      </trkpt>
      <trkpt lat="52.120407" lon="4.4688663">
        <ele>3100.0</ele>
        <time>2020-09-21T11:58:45Z</time>
      </trkpt>
      <trkpt lat="52.120377" lon="4.4688416">
        <ele>3100.0</ele>
        <time>2020-09-21T11:58:46Z</time>
      </trkpt>
      <trkpt lat="52.12035" lon="4.4688125">
        <ele>3100.0</ele>
        <time>2020-09-21T11:58:48Z</time>
      </trkpt>
      <trkpt lat="52.120327" lon="4.4687777">
        <ele>3100.0</ele>
        <time>2020-09-21T11:58:48Z</time>
      </trkpt>
      <trkpt lat="52.120304" lon="4.4687357">
        <ele>3100.0</ele>
        <time>2020-09-21T11:58:49Z</time>
      </trkpt>
      <trkpt lat="52.120285" lon="4.468691">
        <ele>3100.0</ele>
        <time>2020-09-21T11:58:50Z</time>
      </trkpt>
      <trkpt lat="52.120262" lon="4.468642">
        <ele>3100.0</ele>
        <time>2020-09-21T11:58:51Z</time>
      </trkpt>
      <trkpt lat="52.120247" lon="4.4685936">
        <ele>3100.0</ele>
        <time>2020-09-21T11:58:52Z</time>
      </trkpt>
      <trkpt lat="52.120224" lon="4.468545">
        <ele>3100.0</ele>
        <time>2020-09-21T11:58:53Z</time>
      </trkpt>
      <trkpt lat="52.1202" lon="4.468495">
        <ele>3100.0</ele>
        <time>2020-09-21T11:58:54Z</time>
      </trkpt>
      <trkpt lat="52.120182" lon="4.468447">
        <ele>3100.0</ele>
        <time>2020-09-21T11:58:55Z</time>
      </trkpt>
      <trkpt lat="52.120167" lon="4.468401">
        <ele>3100.0</ele>
        <time>2020-09-21T11:58:56Z</time>
      </trkpt>
      <trkpt lat="52.12015" lon="4.468349">
        <ele>3100.0</ele>
        <time>2020-09-21T11:58:57Z</time>
      </trkpt>
      <trkpt lat="52.12014" lon="4.4683003">
        <ele>3100.0</ele>
        <time>2020-09-21T11:58:58Z</time>
      </trkpt>
      <trkpt lat="52.120136" lon="4.4682546">
        <ele>3100.0</ele>
        <time>2020-09-21T11:58:59Z</time>
      </trkpt>
      <trkpt lat="52.120132" lon="4.468205">
        <ele>3100.0</ele>
        <time>2020-09-21T11:59:00Z</time>
      </trkpt>
      <trkpt lat="52.120125" lon="4.468148">
        <ele>3100.0</ele>
        <time>2020-09-21T11:59:01Z</time>
      </trkpt>
      <trkpt lat="52.120125" lon="4.4680843">
        <ele>3100.0</ele>
        <time>2020-09-21T11:59:02Z</time>
      </trkpt>
      <trkpt lat="52.120125" lon="4.468016">
        <ele>3100.0</ele>
        <time>2020-09-21T11:59:03Z</time>
      </trkpt>
      <trkpt lat="52.120132" lon="4.467951">
        <ele>3100.0</ele>
        <time>2020-09-21T11:59:04Z</time>
      </trkpt>
      <trkpt lat="52.12014" lon="4.4678907">
        <ele>3100.0</ele>
        <time>2020-09-21T11:59:05Z</time>
      </trkpt>
      <trkpt lat="52.120163" lon="4.4678316">
        <ele>3100.0</ele>
        <time>2020-09-21T11:59:06Z</time>
      </trkpt>
      <trkpt lat="52.12018" lon="4.4677677">
        <ele>3100.0</ele>
        <time>2020-09-21T11:59:07Z</time>
      </trkpt>
      <trkpt lat="52.120193" lon="4.467698">
        <ele>3100.0</ele>
        <time>2020-09-21T11:59:09Z</time>
      </trkpt>
      <trkpt lat="52.12021" lon="4.467632">
        <ele>3100.0</ele>
        <time>2020-09-21T11:59:09Z</time>
      </trkpt>
      <trkpt lat="52.120216" lon="4.4675665">
        <ele>3100.0</ele>
        <time>2020-09-21T11:59:10Z</time>
      </trkpt>
      <trkpt lat="52.12024" lon="4.4675097">
        <ele>3100.0</ele>
        <time>2020-09-21T11:59:11Z</time>
      </trkpt>
      <trkpt lat="52.12026" lon="4.4674625">
        <ele>3100.0</ele>
        <time>2020-09-21T11:59:12Z</time>
      </trkpt>
      <trkpt lat="52.120277" lon="4.4674177">
        <ele>3100.0</ele>
        <time>2020-09-21T11:59:13Z</time>
      </trkpt>
      <trkpt lat="52.12029" lon="4.467369">
        <ele>3200.0</ele>
        <time>2020-09-21T11:59:14Z</time>
      </trkpt>
      <trkpt lat="52.12029" lon="4.4673185">
        <ele>3200.0</ele>
        <time>2020-09-21T11:59:16Z</time>
      </trkpt>
      <trkpt lat="52.12029" lon="4.467273">
        <ele>3200.0</ele>
        <time>2020-09-21T11:59:16Z</time>
      </trkpt>
      <trkpt lat="52.120277" lon="4.4672313">
        <ele>3200.0</ele>
        <time>2020-09-21T11:59:17Z</time>
      </trkpt>
      <trkpt lat="52.12027" lon="4.467191">
        <ele>3200.0</ele>
        <time>2020-09-21T11:59:18Z</time>
      </trkpt>
      <trkpt lat="52.120255" lon="4.4671526">
        <ele>3200.0</ele>
        <time>2020-09-21T11:59:19Z</time>
      </trkpt>
      <trkpt lat="52.12024" lon="4.4671154">
        <ele>3200.0</ele>
        <time>2020-09-21T11:59:20Z</time>
      </trkpt>
      <trkpt lat="52.120216" lon="4.467074">
        <ele>3200.0</ele>
        <time>2020-09-21T11:59:21Z</time>
      </trkpt>
      <trkpt lat="52.1202" lon="4.467033">
        <ele>3200.0</ele>
        <time>2020-09-21T11:59:22Z</time>
      </trkpt>
      <trkpt lat="52.120186" lon="4.4669924">
        <ele>3200.0</ele>
        <time>2020-09-21T11:59:23Z</time>
      </trkpt>
      <trkpt lat="52.12017" lon="4.466954">
        <ele>3200.0</ele>
        <time>2020-09-21T11:59:24Z</time>
      </trkpt>
      <trkpt lat="52.120155" lon="4.466914">
        <ele>3200.0</ele>
        <time>2020-09-21T11:59:25Z</time>
      </trkpt>
      <trkpt lat="52.120136" lon="4.4668727">
        <ele>3200.0</ele>
        <time>2020-09-21T11:59:26Z</time>
      </trkpt>
      <trkpt lat="52.12011" lon="4.466824">
        <ele>3200.0</ele>
        <time>2020-09-21T11:59:27Z</time>
      </trkpt>
      <trkpt lat="52.120083" lon="4.4667697">
        <ele>3200.0</ele>
        <time>2020-09-21T11:59:28Z</time>
      </trkpt>
      <trkpt lat="52.12006" lon="4.4667163">
        <ele>3200.0</ele>
        <time>2020-09-21T11:59:29Z</time>
      </trkpt>
      <trkpt lat="52.120033" lon="4.466659">
        <ele>3200.0</ele>
        <time>2020-09-21T11:59:30Z</time>
      </trkpt>
      <trkpt lat="52.120014" lon="4.4666023">
        <ele>3200.0</ele>
        <time>2020-09-21T11:59:31Z</time>
      </trkpt>
      <trkpt lat="52.11999" lon="4.46655">
        <ele>3200.0</ele>
        <time>2020-09-21T11:59:32Z</time>
      </trkpt>
      <trkpt lat="52.119972" lon="4.4665036">
        <ele>3200.0</ele>
        <time>2020-09-21T11:59:33Z</time>
      </trkpt>
      <trkpt lat="52.119953" lon="4.4664636">
        <ele>3200.0</ele>
        <time>2020-09-21T11:59:34Z</time>
      </trkpt>
      <trkpt lat="52.11993" lon="4.466432">
        <ele>3200.0</ele>
        <time>2020-09-21T11:59:35Z</time>
      </trkpt>
      <trkpt lat="52.119915" lon="4.466412">
        <ele>3200.0</ele>
        <time>2020-09-21T11:59:37Z</time>
      </trkpt>
      <trkpt lat="52.1199" lon="4.4663982">
        <ele>3200.0</ele>
        <time>2020-09-21T11:59:37Z</time>
      </trkpt>
      <trkpt lat="52.11989" lon="4.466392">
        <ele>3200.0</ele>
        <time>2020-09-21T11:59:38Z</time>
      </trkpt>
      <trkpt lat="52.119884" lon="4.4663854">
        <ele>3200.0</ele>
        <time>2020-09-21T11:59:39Z</time>
      </trkpt>
      <trkpt lat="52.119884" lon="4.4663806">
        <ele>3200.0</ele>
        <time>2020-09-21T11:59:40Z</time>
      </trkpt>
      <trkpt lat="52.11988" lon="4.466377">
        <ele>3200.0</ele>
        <time>2020-09-21T11:59:41Z</time>
      </trkpt>
      <trkpt lat="52.11988" lon="4.466374">
        <ele>3200.0</ele>
        <time>2020-09-21T11:59:42Z</time>
      </trkpt>
      <trkpt lat="52.11988" lon="4.466369">
        <ele>3200.0</ele>
        <time>2020-09-21T11:59:43Z</time>
      </trkpt>
      <trkpt lat="52.11988" lon="4.4663634">
        <ele>3200.0</ele>
        <time>2020-09-21T11:59:44Z</time>
      </trkpt>
      <trkpt lat="52.119884" lon="4.466356">
        <ele>3200.0</ele>
        <time>2020-09-21T11:59:45Z</time>
      </trkpt>
      <trkpt lat="52.11989" lon="4.4663515">
        <ele>3200.0</ele>
        <time>2020-09-21T11:59:46Z</time>
      </trkpt>
      <trkpt lat="52.1199" lon="4.466354">
        <ele>3200.0</ele>
        <time>2020-09-21T11:59:47Z</time>
      </trkpt>
      <trkpt lat="52.119904" lon="4.466357">
        <ele>3200.0</ele>
        <time>2020-09-21T11:59:48Z</time>
      </trkpt>
      <trkpt lat="52.11991" lon="4.466361">
        <ele>3200.0</ele>
        <time>2020-09-21T11:59:49Z</time>
      </trkpt>
      <trkpt lat="52.11991" lon="4.4663615">
        <ele>3200.0</ele>
        <time>2020-09-21T11:59:50Z</time>
      </trkpt>
      <trkpt lat="52.119915" lon="4.46636">
        <ele>3200.0</ele>
        <time>2020-09-21T11:59:51Z</time>
      </trkpt>
      <trkpt lat="52.119915" lon="4.4663577">
        <ele>3200.0</ele>
        <time>2020-09-21T11:59:52Z</time>
      </trkpt>
      <trkpt lat="52.11992" lon="4.4663544">
        <ele>3200.0</ele>
        <time>2020-09-21T11:59:53Z</time>
      </trkpt>
      <trkpt lat="52.11992" lon="4.4663525">
        <ele>3200.0</ele>
        <time>2020-09-21T11:59:54Z</time>
      </trkpt>
      <trkpt lat="52.11992" lon="4.46635">
        <ele>3200.0</ele>
        <time>2020-09-21T11:59:55Z</time>
      </trkpt>
      <trkpt lat="52.119915" lon="4.4663496">
        <ele>3200.0</ele>
        <time>2020-09-21T11:59:56Z</time>
      </trkpt>
      <trkpt lat="52.119915" lon="4.46635">
        <ele>3200.0</ele>
        <time>2020-09-21T11:59:58Z</time>
      </trkpt>
      <trkpt lat="52.11991" lon="4.466356">
        <ele>3200.0</ele>
        <time>2020-09-21T12:00:12Z</time>
      </trkpt>
      <trkpt lat="52.11991" lon="4.4663644">
        <ele>3200.0</ele>
        <time>2020-09-21T12:00:14Z</time>
      </trkpt>
      <trkpt lat="52.11991" lon="4.466369">
        <ele>3200.0</ele>
        <time>2020-09-21T12:00:16Z</time>
      </trkpt>
      <trkpt lat="52.11991" lon="4.46637">
        <ele>3200.0</ele>
        <time>2020-09-21T12:00:17Z</time>
      </trkpt>
      <trkpt lat="52.11991" lon="4.466371">
        <ele>3200.0</ele>
        <time>2020-09-21T12:00:18Z</time>
      </trkpt>
      <trkpt lat="52.1199" lon="4.466374">
        <ele>3100.0</ele>
        <time>2020-09-21T12:00:21Z</time>
      </trkpt>
      <trkpt lat="52.1199" lon="4.466376">
        <ele>3100.0</ele>
        <time>2020-09-21T12:00:23Z</time>
      </trkpt>
      <trkpt lat="52.1199" lon="4.466377">
        <ele>3100.0</ele>
        <time>2020-09-21T12:00:24Z</time>
      </trkpt>
      <trkpt lat="52.11989" lon="4.4663925">
        <ele>3100.0</ele>
        <time>2020-09-21T12:00:33Z</time>
      </trkpt>
      <trkpt lat="52.119884" lon="4.466395">
        <ele>3100.0</ele>
        <time>2020-09-21T12:00:34Z</time>
      </trkpt>
      <trkpt lat="52.119873" lon="4.4663997">
        <ele>3100.0</ele>
        <time>2020-09-21T12:00:35Z</time>
      </trkpt>
      <trkpt lat="52.119858" lon="4.4664083">
        <ele>3100.0</ele>
        <time>2020-09-21T12:00:36Z</time>
      </trkpt>
      <trkpt lat="52.11984" lon="4.4664216">
        <ele>3100.0</ele>
        <time>2020-09-21T12:00:37Z</time>
      </trkpt>
      <trkpt lat="52.11982" lon="4.466439">
        <ele>3100.0</ele>
        <time>2020-09-21T12:00:38Z</time>
      </trkpt>
      <trkpt lat="52.119793" lon="4.4664555">
        <ele>3100.0</ele>
        <time>2020-09-21T12:00:39Z</time>
      </trkpt>
      <trkpt lat="52.119766" lon="4.466471">
        <ele>3100.0</ele>
        <time>2020-09-21T12:00:40Z</time>
      </trkpt>
      <trkpt lat="52.119736" lon="4.4664865">
        <ele>3100.0</ele>
        <time>2020-09-21T12:00:41Z</time>
      </trkpt>
      <trkpt lat="52.11971" lon="4.4665003">
        <ele>3100.0</ele>
        <time>2020-09-21T12:00:42Z</time>
      </trkpt>
      <trkpt lat="52.11968" lon="4.4665146">
        <ele>3100.0</ele>
        <time>2020-09-21T12:00:43Z</time>
      </trkpt>
      <trkpt lat="52.119656" lon="4.466528">
        <ele>3100.0</ele>
        <time>2020-09-21T12:00:44Z</time>
      </trkpt>
      <trkpt lat="52.119625" lon="4.4665422">
        <ele>3100.0</ele>
        <time>2020-09-21T12:00:45Z</time>
      </trkpt>
      <trkpt lat="52.1196" lon="4.466557">
        <ele>3100.0</ele>
        <time>2020-09-21T12:00:47Z</time>
      </trkpt>
      <trkpt lat="52.119568" lon="4.4665704">
        <ele>3100.0</ele>
        <time>2020-09-21T12:00:47Z</time>
      </trkpt>
      <trkpt lat="52.11954" lon="4.466585">
        <ele>3100.0</ele>
        <time>2020-09-21T12:00:48Z</time>
      </trkpt>
      <trkpt lat="52.119514" lon="4.466603">
        <ele>3100.0</ele>
        <time>2020-09-21T12:00:49Z</time>
      </trkpt>
      <trkpt lat="52.119495" lon="4.4666266">
        <ele>3100.0</ele>
        <time>2020-09-21T12:00:50Z</time>
      </trkpt>
      <trkpt lat="52.119476" lon="4.4666553">
        <ele>3100.0</ele>
        <time>2020-09-21T12:00:51Z</time>
      </trkpt>
      <trkpt lat="52.11945" lon="4.4666843">
        <ele>3100.0</ele>
        <time>2020-09-21T12:00:52Z</time>
      </trkpt>
      <trkpt lat="52.11943" lon="4.466711">
        <ele>3100.0</ele>
        <time>2020-09-21T12:00:53Z</time>
      </trkpt>
      <trkpt lat="52.119404" lon="4.4667325">
        <ele>3100.0</ele>
        <time>2020-09-21T12:00:54Z</time>
      </trkpt>
      <trkpt lat="52.119377" lon="4.4667506">
        <ele>3100.0</ele>
        <time>2020-09-21T12:00:55Z</time>
      </trkpt>
      <trkpt lat="52.11935" lon="4.466765">
        <ele>3100.0</ele>
        <time>2020-09-21T12:00:57Z</time>
      </trkpt>
      <trkpt lat="52.11932" lon="4.466772">
        <ele>3100.0</ele>
        <time>2020-09-21T12:00:57Z</time>
      </trkpt>
      <trkpt lat="52.11929" lon="4.466773">
        <ele>3100.0</ele>
        <time>2020-09-21T12:00:58Z</time>
      </trkpt>
      <trkpt lat="52.11926" lon="4.4667735">
        <ele>3100.0</ele>
        <time>2020-09-21T12:00:59Z</time>
      </trkpt>
      <trkpt lat="52.11923" lon="4.466777">
        <ele>3100.0</ele>
        <time>2020-09-21T12:01:00Z</time>
      </trkpt>
      <trkpt lat="52.119198" lon="4.466783">
        <ele>3100.0</ele>
        <time>2020-09-21T12:01:01Z</time>
      </trkpt>
      <trkpt lat="52.119167" lon="4.466791">
        <ele>3100.0</ele>
        <time>2020-09-21T12:01:02Z</time>
      </trkpt>
      <trkpt lat="52.11914" lon="4.4668">
        <ele>3100.0</ele>
        <time>2020-09-21T12:01:03Z</time>
      </trkpt>
      <trkpt lat="52.119118" lon="4.4668097">
        <ele>3100.0</ele>
        <time>2020-09-21T12:01:04Z</time>
      </trkpt>
      <trkpt lat="52.11909" lon="4.4668226">
        <ele>3100.0</ele>
        <time>2020-09-21T12:01:05Z</time>
      </trkpt>
      <trkpt lat="52.119064" lon="4.46684">
        <ele>3100.0</ele>
        <time>2020-09-21T12:01:06Z</time>
      </trkpt>
      <trkpt lat="52.11904" lon="4.4668617">
        <ele>3100.0</ele>
        <time>2020-09-21T12:01:07Z</time>
      </trkpt>
      <trkpt lat="52.119015" lon="4.4668837">
        <ele>3100.0</ele>
        <time>2020-09-21T12:01:08Z</time>
      </trkpt>
      <trkpt lat="52.118988" lon="4.466906">
        <ele>3100.0</ele>
        <time>2020-09-21T12:01:09Z</time>
      </trkpt>
      <trkpt lat="52.11896" lon="4.466929">
        <ele>3100.0</ele>
        <time>2020-09-21T12:01:10Z</time>
      </trkpt>
      <trkpt lat="52.11894" lon="4.466946">
        <ele>3100.0</ele>
        <time>2020-09-21T12:01:11Z</time>
      </trkpt>
      <trkpt lat="52.11891" lon="4.466962">
        <ele>3100.0</ele>
        <time>2020-09-21T12:01:12Z</time>
      </trkpt>
      <trkpt lat="52.118885" lon="4.4669824">
        <ele>3100.0</ele>
        <time>2020-09-21T12:01:13Z</time>
      </trkpt>
      <trkpt lat="52.118862" lon="4.4670057">
        <ele>3100.0</ele>
        <time>2020-09-21T12:01:15Z</time>
      </trkpt>
      <trkpt lat="52.118835" lon="4.467032">
        <ele>3100.0</ele>
        <time>2020-09-21T12:01:15Z</time>
      </trkpt>
      <trkpt lat="52.11881" lon="4.4670577">
        <ele>3100.0</ele>
        <time>2020-09-21T12:01:16Z</time>
      </trkpt>
      <trkpt lat="52.118786" lon="4.467082">
        <ele>3100.0</ele>
        <time>2020-09-21T12:01:17Z</time>
      </trkpt>
      <trkpt lat="52.11876" lon="4.467104">
        <ele>3100.0</ele>
        <time>2020-09-21T12:01:18Z</time>
      </trkpt>
      <trkpt lat="52.118736" lon="4.467126">
        <ele>3100.0</ele>
        <time>2020-09-21T12:01:19Z</time>
      </trkpt>
      <trkpt lat="52.118713" lon="4.467151">
        <ele>3100.0</ele>
        <time>2020-09-21T12:01:20Z</time>
      </trkpt>
      <trkpt lat="52.11869" lon="4.4671793">
        <ele>3100.0</ele>
        <time>2020-09-21T12:01:21Z</time>
      </trkpt>
      <trkpt lat="52.118675" lon="4.4672117">
        <ele>3100.0</ele>
        <time>2020-09-21T12:01:22Z</time>
      </trkpt>
      <trkpt lat="52.118668" lon="4.4672494">
        <ele>3100.0</ele>
        <time>2020-09-21T12:01:23Z</time>
      </trkpt>
      <trkpt lat="52.118656" lon="4.467292">
        <ele>3100.0</ele>
        <time>2020-09-21T12:01:24Z</time>
      </trkpt>
      <trkpt lat="52.118645" lon="4.467335">
        <ele>3100.0</ele>
        <time>2020-09-21T12:01:26Z</time>
      </trkpt>
      <trkpt lat="52.11864" lon="4.467376">
        <ele>3100.0</ele>
        <time>2020-09-21T12:01:26Z</time>
      </trkpt>
      <trkpt lat="52.11864" lon="4.467413">
        <ele>3100.0</ele>
        <time>2020-09-21T12:01:27Z</time>
      </trkpt>
      <trkpt lat="52.118637" lon="4.46745">
        <ele>3100.0</ele>
        <time>2020-09-21T12:01:28Z</time>
      </trkpt>
      <trkpt lat="52.118637" lon="4.467488">
        <ele>3100.0</ele>
        <time>2020-09-21T12:01:29Z</time>
      </trkpt>
      <trkpt lat="52.11863" lon="4.46752">
        <ele>3100.0</ele>
        <time>2020-09-21T12:01:30Z</time>
      </trkpt>
      <trkpt lat="52.11863" lon="4.467556">
        <ele>3100.0</ele>
        <time>2020-09-21T12:01:31Z</time>
      </trkpt>
      <trkpt lat="52.118626" lon="4.4675913">
        <ele>3100.0</ele>
        <time>2020-09-21T12:01:32Z</time>
      </trkpt>
      <trkpt lat="52.118626" lon="4.4676294">
        <ele>3100.0</ele>
        <time>2020-09-21T12:01:33Z</time>
      </trkpt>
      <trkpt lat="52.118626" lon="4.4676695">
        <ele>3100.0</ele>
        <time>2020-09-21T12:01:34Z</time>
      </trkpt>
      <trkpt lat="52.11862" lon="4.4677095">
        <ele>3100.0</ele>
        <time>2020-09-21T12:01:36Z</time>
      </trkpt>
      <trkpt lat="52.118614" lon="4.4677496">
        <ele>3100.0</ele>
        <time>2020-09-21T12:01:36Z</time>
      </trkpt>
      <trkpt lat="52.11861" lon="4.4677887">
        <ele>3100.0</ele>
        <time>2020-09-21T12:01:37Z</time>
      </trkpt>
      <trkpt lat="52.1186" lon="4.4678245">
        <ele>3100.0</ele>
        <time>2020-09-21T12:01:38Z</time>
      </trkpt>
      <trkpt lat="52.118584" lon="4.467856">
        <ele>3100.0</ele>
        <time>2020-09-21T12:01:39Z</time>
      </trkpt>
      <trkpt lat="52.118572" lon="4.467881">
        <ele>3100.0</ele>
        <time>2020-09-21T12:01:40Z</time>
      </trkpt>
      <trkpt lat="52.118565" lon="4.4679046">
        <ele>3100.0</ele>
        <time>2020-09-21T12:01:41Z</time>
      </trkpt>
      <trkpt lat="52.11855" lon="4.467925">
        <ele>3100.0</ele>
        <time>2020-09-21T12:01:42Z</time>
      </trkpt>
      <trkpt lat="52.118538" lon="4.4679427">
        <ele>3100.0</ele>
        <time>2020-09-21T12:01:43Z</time>
      </trkpt>
      <trkpt lat="52.118526" lon="4.467957">
        <ele>3100.0</ele>
        <time>2020-09-21T12:01:44Z</time>
      </trkpt>
      <trkpt lat="52.118523" lon="4.4679666">
        <ele>3100.0</ele>
        <time>2020-09-21T12:01:45Z</time>
      </trkpt>
      <trkpt lat="52.118523" lon="4.4679713">
        <ele>3100.0</ele>
        <time>2020-09-21T12:01:46Z</time>
      </trkpt>
      <trkpt lat="52.118523" lon="4.467976">
        <ele>3100.0</ele>
        <time>2020-09-21T12:01:47Z</time>
      </trkpt>
      <trkpt lat="52.118526" lon="4.4679785">
        <ele>3100.0</ele>
        <time>2020-09-21T12:01:48Z</time>
      </trkpt>
      <trkpt lat="52.118534" lon="4.4679813">
        <ele>3100.0</ele>
        <time>2020-09-21T12:01:49Z</time>
      </trkpt>
      <trkpt lat="52.118534" lon="4.4679847">
        <ele>3100.0</ele>
        <time>2020-09-21T12:01:50Z</time>
      </trkpt>
      <trkpt lat="52.11854" lon="4.4679904">
        <ele>3100.0</ele>
        <time>2020-09-21T12:01:52Z</time>
      </trkpt>
      <trkpt lat="52.118538" lon="4.4679904">
        <ele>3100.0</ele>
        <time>2020-09-21T12:01:53Z</time>
      </trkpt>
      <trkpt lat="52.118538" lon="4.467987">
        <ele>3100.0</ele>
        <time>2020-09-21T12:01:54Z</time>
      </trkpt>
      <trkpt lat="52.118538" lon="4.4679813">
        <ele>3100.0</ele>
        <time>2020-09-21T12:01:55Z</time>
      </trkpt>
      <trkpt lat="52.118538" lon="4.4679704">
        <ele>3100.0</ele>
        <time>2020-09-21T12:01:57Z</time>
      </trkpt>
      <trkpt lat="52.118538" lon="4.467957">
        <ele>3100.0</ele>
        <time>2020-09-21T12:01:57Z</time>
      </trkpt>
      <trkpt lat="52.118538" lon="4.4679403">
        <ele>3100.0</ele>
        <time>2020-09-21T12:01:58Z</time>
      </trkpt>
      <trkpt lat="52.11854" lon="4.467921">
        <ele>3100.0</ele>
        <time>2020-09-21T12:01:59Z</time>
      </trkpt>
      <trkpt lat="52.118538" lon="4.4679008">
        <ele>3100.0</ele>
        <time>2020-09-21T12:02:00Z</time>
      </trkpt>
      <trkpt lat="52.118538" lon="4.4678774">
        <ele>3100.0</ele>
        <time>2020-09-21T12:02:01Z</time>
      </trkpt>
      <trkpt lat="52.118526" lon="4.467852">
        <ele>3100.0</ele>
        <time>2020-09-21T12:02:02Z</time>
      </trkpt>
      <trkpt lat="52.11852" lon="4.4678245">
        <ele>3100.0</ele>
        <time>2020-09-21T12:02:03Z</time>
      </trkpt>
      <trkpt lat="52.118507" lon="4.4677935">
        <ele>3100.0</ele>
        <time>2020-09-21T12:02:04Z</time>
      </trkpt>
      <trkpt lat="52.118496" lon="4.4677596">
        <ele>3100.0</ele>
        <time>2020-09-21T12:02:05Z</time>
      </trkpt>
      <trkpt lat="52.118477" lon="4.4677224">
        <ele>3100.0</ele>
        <time>2020-09-21T12:02:06Z</time>
      </trkpt>
      <trkpt lat="52.11846" lon="4.467683">
        <ele>3100.0</ele>
        <time>2020-09-21T12:02:08Z</time>
      </trkpt>
      <trkpt lat="52.118443" lon="4.4676394">
        <ele>3100.0</ele>
        <time>2020-09-21T12:02:08Z</time>
      </trkpt>
      <trkpt lat="52.11842" lon="4.467597">
        <ele>3100.0</ele>
        <time>2020-09-21T12:02:09Z</time>
      </trkpt>
      <trkpt lat="52.1184" lon="4.467554">
        <ele>3100.0</ele>
        <time>2020-09-21T12:02:10Z</time>
      </trkpt>
      <trkpt lat="52.118378" lon="4.4675064">
        <ele>3100.0</ele>
        <time>2020-09-21T12:02:11Z</time>
      </trkpt>
      <trkpt lat="52.11836" lon="4.467455">
        <ele>3100.0</ele>
        <time>2020-09-21T12:02:12Z</time>
      </trkpt>
      <trkpt lat="52.11834" lon="4.4674063">
        <ele>3100.0</ele>
        <time>2020-09-21T12:02:13Z</time>
      </trkpt>
      <trkpt lat="52.118317" lon="4.4673586">
        <ele>3100.0</ele>
        <time>2020-09-21T12:02:14Z</time>
      </trkpt>
      <trkpt lat="52.118298" lon="4.467315">
        <ele>3100.0</ele>
        <time>2020-09-21T12:02:15Z</time>
      </trkpt>
      <trkpt lat="52.11827" lon="4.4672766">
        <ele>3100.0</ele>
        <time>2020-09-21T12:02:16Z</time>
      </trkpt>
      <trkpt lat="52.11825" lon="4.4672446">
        <ele>3100.0</ele>
        <time>2020-09-21T12:02:17Z</time>
      </trkpt>
      <trkpt lat="52.118237" lon="4.4672174">
        <ele>3100.0</ele>
        <time>2020-09-21T12:02:18Z</time>
      </trkpt>
      <trkpt lat="52.118225" lon="4.4671903">
        <ele>3100.0</ele>
        <time>2020-09-21T12:02:19Z</time>
      </trkpt>
      <trkpt lat="52.11821" lon="4.4671645">
        <ele>3100.0</ele>
        <time>2020-09-21T12:02:20Z</time>
      </trkpt>
      <trkpt lat="52.118206" lon="4.4671435">
        <ele>3100.0</ele>
        <time>2020-09-21T12:02:21Z</time>
      </trkpt>
      <trkpt lat="52.118183" lon="4.4670987">
        <ele>3100.0</ele>
        <time>2020-09-21T12:02:24Z</time>
      </trkpt>
      <trkpt lat="52.118183" lon="4.467098">
        <ele>3100.0</ele>
        <time>2020-09-21T12:02:25Z</time>
      </trkpt>
      <trkpt lat="52.118183" lon="4.467095">
        <ele>3100.0</ele>
        <time>2020-09-21T12:02:26Z</time>
      </trkpt>
      <trkpt lat="52.118183" lon="4.46709">
        <ele>3100.0</ele>
        <time>2020-09-21T12:02:27Z</time>
      </trkpt>
      <trkpt lat="52.118183" lon="4.467083">
        <ele>3100.0</ele>
        <time>2020-09-21T12:02:28Z</time>
      </trkpt>
      <trkpt lat="52.118183" lon="4.4670773">
        <ele>3100.0</ele>
        <time>2020-09-21T12:02:29Z</time>
      </trkpt>
      <trkpt lat="52.118183" lon="4.467074">
        <ele>3100.0</ele>
        <time>2020-09-21T12:02:30Z</time>
      </trkpt>
      <trkpt lat="52.11819" lon="4.467072">
        <ele>3100.0</ele>
        <time>2020-09-21T12:02:31Z</time>
      </trkpt>
      <trkpt lat="52.11819" lon="4.4670677">
        <ele>3100.0</ele>
        <time>2020-09-21T12:02:32Z</time>
      </trkpt>
      <trkpt lat="52.11819" lon="4.4670625">
        <ele>3100.0</ele>
        <time>2020-09-21T12:02:33Z</time>
      </trkpt>
      <trkpt lat="52.118195" lon="4.4670587">
        <ele>3100.0</ele>
        <time>2020-09-21T12:02:49Z</time>
      </trkpt>
      <trkpt lat="52.118195" lon="4.4670596">
        <ele>3100.0</ele>
        <time>2020-09-21T12:02:50Z</time>
      </trkpt>
      <trkpt lat="52.118195" lon="4.46706">
        <ele>3100.0</ele>
        <time>2020-09-21T12:02:51Z</time>
      </trkpt>
      <trkpt lat="52.11819" lon="4.4670525">
        <ele>3100.0</ele>
        <time>2020-09-21T12:02:52Z</time>
      </trkpt>
      <trkpt lat="52.11818" lon="4.4670396">
        <ele>3100.0</ele>
        <time>2020-09-21T12:02:53Z</time>
      </trkpt>
      <trkpt lat="52.118164" lon="4.46702">
        <ele>3100.0</ele>
        <time>2020-09-21T12:02:54Z</time>
      </trkpt>
      <trkpt lat="52.11815" lon="4.4669952">
        <ele>3100.0</ele>
        <time>2020-09-21T12:02:55Z</time>
      </trkpt>
      <trkpt lat="52.118134" lon="4.4669666">
        <ele>3100.0</ele>
        <time>2020-09-21T12:02:56Z</time>
      </trkpt>
      <trkpt lat="52.11812" lon="4.466935">
        <ele>3100.0</ele>
        <time>2020-09-21T12:02:57Z</time>
      </trkpt>
      <trkpt lat="52.118107" lon="4.466902">
        <ele>3100.0</ele>
        <time>2020-09-21T12:02:58Z</time>
      </trkpt>
      <trkpt lat="52.11809" lon="4.466867">
        <ele>3100.0</ele>
        <time>2020-09-21T12:02:59Z</time>
      </trkpt>
      <trkpt lat="52.118076" lon="4.466837">
        <ele>3100.0</ele>
        <time>2020-09-21T12:03:00Z</time>
      </trkpt>
      <trkpt lat="52.11806" lon="4.466811">
        <ele>3100.0</ele>
        <time>2020-09-21T12:03:01Z</time>
      </trkpt>
      <trkpt lat="52.118053" lon="4.4667892">
        <ele>3100.0</ele>
        <time>2020-09-21T12:03:02Z</time>
      </trkpt>
      <trkpt lat="52.118046" lon="4.4667716">
        <ele>3100.0</ele>
        <time>2020-09-21T12:03:03Z</time>
      </trkpt>
      <trkpt lat="52.11804" lon="4.4667554">
        <ele>3100.0</ele>
        <time>2020-09-21T12:03:04Z</time>
      </trkpt>
      <trkpt lat="52.118027" lon="4.4667387">
        <ele>3100.0</ele>
        <time>2020-09-21T12:03:05Z</time>
      </trkpt>
      <trkpt lat="52.118015" lon="4.466721">
        <ele>3100.0</ele>
        <time>2020-09-21T12:03:06Z</time>
      </trkpt>
      <trkpt lat="52.118008" lon="4.466706">
        <ele>3100.0</ele>
        <time>2020-09-21T12:03:07Z</time>
      </trkpt>
      <trkpt lat="52.118" lon="4.4666924">
        <ele>3100.0</ele>
        <time>2020-09-21T12:03:08Z</time>
      </trkpt>
      <trkpt lat="52.117996" lon="4.4666796">
        <ele>3100.0</ele>
        <time>2020-09-21T12:03:09Z</time>
      </trkpt>
      <trkpt lat="52.117985" lon="4.466666">
        <ele>3100.0</ele>
        <time>2020-09-21T12:03:10Z</time>
      </trkpt>
      <trkpt lat="52.11798" lon="4.4666543">
        <ele>3100.0</ele>
        <time>2020-09-21T12:03:11Z</time>
      </trkpt>
      <trkpt lat="52.11797" lon="4.466642">
        <ele>3100.0</ele>
        <time>2020-09-21T12:03:12Z</time>
      </trkpt>
      <trkpt lat="52.117966" lon="4.46663">
        <ele>3100.0</ele>
        <time>2020-09-21T12:03:13Z</time>
      </trkpt>
      <trkpt lat="52.117958" lon="4.4666204">
        <ele>3100.0</ele>
        <time>2020-09-21T12:03:14Z</time>
      </trkpt>
      <trkpt lat="52.117943" lon="4.46661">
        <ele>3100.0</ele>
        <time>2020-09-21T12:03:16Z</time>
      </trkpt>
      <trkpt lat="52.117935" lon="4.466597">
        <ele>3100.0</ele>
        <time>2020-09-21T12:03:16Z</time>
      </trkpt>
      <trkpt lat="52.117924" lon="4.4665833">
        <ele>3100.0</ele>
        <time>2020-09-21T12:03:17Z</time>
      </trkpt>
      <trkpt lat="52.11791" lon="4.4665666">
        <ele>3100.0</ele>
        <time>2020-09-21T12:03:18Z</time>
      </trkpt>
      <trkpt lat="52.117893" lon="4.466549">
        <ele>3100.0</ele>
        <time>2020-09-21T12:03:19Z</time>
      </trkpt>
      <trkpt lat="52.117878" lon="4.4665275">
        <ele>3100.0</ele>
        <time>2020-09-21T12:03:20Z</time>
      </trkpt>
      <trkpt lat="52.117863" lon="4.466504">
        <ele>3100.0</ele>
        <time>2020-09-21T12:03:21Z</time>
      </trkpt>
      <trkpt lat="52.117847" lon="4.46648">
        <ele>3200.0</ele>
        <time>2020-09-21T12:03:22Z</time>
      </trkpt>
      <trkpt lat="52.117832" lon="4.4664555">
        <ele>3200.0</ele>
        <time>2020-09-21T12:03:23Z</time>
      </trkpt>
      <trkpt lat="52.117817" lon="4.466429">
        <ele>3200.0</ele>
        <time>2020-09-21T12:03:24Z</time>
      </trkpt>
      <trkpt lat="52.1178" lon="4.466404">
        <ele>3200.0</ele>
        <time>2020-09-21T12:03:25Z</time>
      </trkpt>
      <trkpt lat="52.11779" lon="4.466381">
        <ele>3200.0</ele>
        <time>2020-09-21T12:03:27Z</time>
      </trkpt>
      <trkpt lat="52.117786" lon="4.4663553">
        <ele>3200.0</ele>
        <time>2020-09-21T12:03:27Z</time>
      </trkpt>
      <trkpt lat="52.11777" lon="4.466326">
        <ele>3200.0</ele>
        <time>2020-09-21T12:03:28Z</time>
      </trkpt>
      <trkpt lat="52.11776" lon="4.466297">
        <ele>3200.0</ele>
        <time>2020-09-21T12:03:29Z</time>
      </trkpt>
      <trkpt lat="52.11775" lon="4.466268">
        <ele>3200.0</ele>
        <time>2020-09-21T12:03:30Z</time>
      </trkpt>
      <trkpt lat="52.117733" lon="4.4662404">
        <ele>3200.0</ele>
        <time>2020-09-21T12:03:31Z</time>
      </trkpt>
      <trkpt lat="52.117718" lon="4.4662137">
        <ele>3200.0</ele>
        <time>2020-09-21T12:03:32Z</time>
      </trkpt>
      <trkpt lat="52.117702" lon="4.466189">
        <ele>3200.0</ele>
        <time>2020-09-21T12:03:33Z</time>
      </trkpt>
      <trkpt lat="52.117687" lon="4.4661665">
        <ele>3200.0</ele>
        <time>2020-09-21T12:03:34Z</time>
      </trkpt>
      <trkpt lat="52.117672" lon="4.466145">
        <ele>3200.0</ele>
        <time>2020-09-21T12:03:35Z</time>
      </trkpt>
      <trkpt lat="52.117657" lon="4.4661236">
        <ele>3200.0</ele>
        <time>2020-09-21T12:03:37Z</time>
      </trkpt>
      <trkpt lat="52.11764" lon="4.4660997">
        <ele>3200.0</ele>
        <time>2020-09-21T12:03:37Z</time>
      </trkpt>
      <trkpt lat="52.117622" lon="4.466075">
        <ele>3200.0</ele>
        <time>2020-09-21T12:03:38Z</time>
      </trkpt>
      <trkpt lat="52.1176" lon="4.466048">
        <ele>3200.0</ele>
        <time>2020-09-21T12:03:39Z</time>
      </trkpt>
      <trkpt lat="52.117577" lon="4.4660206">
        <ele>3200.0</ele>
        <time>2020-09-21T12:03:40Z</time>
      </trkpt>
      <trkpt lat="52.117554" lon="4.4659944">
        <ele>3200.0</ele>
        <time>2020-09-21T12:03:41Z</time>
      </trkpt>
      <trkpt lat="52.11753" lon="4.46597">
        <ele>3200.0</ele>
        <time>2020-09-21T12:03:42Z</time>
      </trkpt>
      <trkpt lat="52.117504" lon="4.4659433">
        <ele>3200.0</ele>
        <time>2020-09-21T12:03:43Z</time>
      </trkpt>
      <trkpt lat="52.117477" lon="4.4659176">
        <ele>3200.0</ele>
        <time>2020-09-21T12:03:44Z</time>
      </trkpt>
      <trkpt lat="52.117455" lon="4.4658895">
        <ele>3200.0</ele>
        <time>2020-09-21T12:03:45Z</time>
      </trkpt>
      <trkpt lat="52.117428" lon="4.4658628">
        <ele>3200.0</ele>
        <time>2020-09-21T12:03:46Z</time>
      </trkpt>
      <trkpt lat="52.117397" lon="4.4658375">
        <ele>3200.0</ele>
        <time>2020-09-21T12:03:47Z</time>
      </trkpt>
      <trkpt lat="52.11737" lon="4.465812">
        <ele>3200.0</ele>
        <time>2020-09-21T12:03:48Z</time>
      </trkpt>
      <trkpt lat="52.11734" lon="4.4657855">
        <ele>3200.0</ele>
        <time>2020-09-21T12:03:49Z</time>
      </trkpt>
      <trkpt lat="52.11731" lon="4.4657593">
        <ele>3200.0</ele>
        <time>2020-09-21T12:03:50Z</time>
      </trkpt>
      <trkpt lat="52.117283" lon="4.4657326">
        <ele>3200.0</ele>
        <time>2020-09-21T12:03:51Z</time>
      </trkpt>
      <trkpt lat="52.11725" lon="4.4657035">
        <ele>3200.0</ele>
        <time>2020-09-21T12:03:52Z</time>
      </trkpt>
      <trkpt lat="52.117218" lon="4.4656754">
        <ele>3200.0</ele>
        <time>2020-09-21T12:03:53Z</time>
      </trkpt>
      <trkpt lat="52.117188" lon="4.465648">
        <ele>3200.0</ele>
        <time>2020-09-21T12:03:54Z</time>
      </trkpt>
      <trkpt lat="52.117157" lon="4.465623">
        <ele>3200.0</ele>
        <time>2020-09-21T12:03:55Z</time>
      </trkpt>
      <trkpt lat="52.11713" lon="4.465598">
        <ele>3200.0</ele>
        <time>2020-09-21T12:03:56Z</time>
      </trkpt>
      <trkpt lat="52.1171" lon="4.465573">
        <ele>3200.0</ele>
        <time>2020-09-21T12:03:58Z</time>
      </trkpt>
      <trkpt lat="52.11707" lon="4.4655466">
        <ele>3200.0</ele>
        <time>2020-09-21T12:03:58Z</time>
      </trkpt>
      <trkpt lat="52.117043" lon="4.46552">
        <ele>3200.0</ele>
        <time>2020-09-21T12:03:59Z</time>
      </trkpt>
      <trkpt lat="52.117012" lon="4.4654922">
        <ele>3200.0</ele>
        <time>2020-09-21T12:04:00Z</time>
      </trkpt>
      <trkpt lat="52.11698" lon="4.465465">
        <ele>3200.0</ele>
        <time>2020-09-21T12:04:01Z</time>
      </trkpt>
      <trkpt lat="52.11695" lon="4.4654393">
        <ele>3200.0</ele>
        <time>2020-09-21T12:04:02Z</time>
      </trkpt>
      <trkpt lat="52.11692" lon="4.4654136">
        <ele>3200.0</ele>
        <time>2020-09-21T12:04:03Z</time>
      </trkpt>
      <trkpt lat="52.11689" lon="4.4653873">
        <ele>3200.0</ele>
        <time>2020-09-21T12:04:04Z</time>
      </trkpt>
      <trkpt lat="52.11686" lon="4.465363">
        <ele>3200.0</ele>
        <time>2020-09-21T12:04:05Z</time>
      </trkpt>
      <trkpt lat="52.11682" lon="4.465339">
        <ele>3200.0</ele>
        <time>2020-09-21T12:04:06Z</time>
      </trkpt>
      <trkpt lat="52.116783" lon="4.4653163">
        <ele>3200.0</ele>
        <time>2020-09-21T12:04:08Z</time>
      </trkpt>
      <trkpt lat="52.116745" lon="4.465295">
        <ele>3200.0</ele>
        <time>2020-09-21T12:04:08Z</time>
      </trkpt>
      <trkpt lat="52.11671" lon="4.4652734">
        <ele>3200.0</ele>
        <time>2020-09-21T12:04:09Z</time>
      </trkpt>
      <trkpt lat="52.116676" lon="4.4652534">
        <ele>3200.0</ele>
        <time>2020-09-21T12:04:10Z</time>
      </trkpt>
      <trkpt lat="52.11664" lon="4.4652357">
        <ele>3200.0</ele>
        <time>2020-09-21T12:04:11Z</time>
      </trkpt>
      <trkpt lat="52.116604" lon="4.4652195">
        <ele>3200.0</ele>
        <time>2020-09-21T12:04:12Z</time>
      </trkpt>
      <trkpt lat="52.116566" lon="4.4652023">
        <ele>3200.0</ele>
        <time>2020-09-21T12:04:13Z</time>
      </trkpt>
      <trkpt lat="52.116528" lon="4.4651856">
        <ele>3200.0</ele>
        <time>2020-09-21T12:04:14Z</time>
      </trkpt>
      <trkpt lat="52.11649" lon="4.465171">
        <ele>3200.0</ele>
        <time>2020-09-21T12:04:15Z</time>
      </trkpt>
      <trkpt lat="52.116447" lon="4.465156">
        <ele>3200.0</ele>
        <time>2020-09-21T12:04:16Z</time>
      </trkpt>
      <trkpt lat="52.11641" lon="4.4651375">
        <ele>3200.0</ele>
        <time>2020-09-21T12:04:17Z</time>
      </trkpt>
      <trkpt lat="52.11637" lon="4.4651175">
        <ele>3200.0</ele>
        <time>2020-09-21T12:04:18Z</time>
      </trkpt>
      <trkpt lat="52.116337" lon="4.4650965">
        <ele>3200.0</ele>
        <time>2020-09-21T12:04:19Z</time>
      </trkpt>
      <trkpt lat="52.116295" lon="4.4650736">
        <ele>3200.0</ele>
        <time>2020-09-21T12:04:20Z</time>
      </trkpt>
      <trkpt lat="52.116264" lon="4.465049">
        <ele>3200.0</ele>
        <time>2020-09-21T12:04:21Z</time>
      </trkpt>
      <trkpt lat="52.11623" lon="4.46502">
        <ele>3200.0</ele>
        <time>2020-09-21T12:04:22Z</time>
      </trkpt>
      <trkpt lat="52.1162" lon="4.4649897">
        <ele>3200.0</ele>
        <time>2020-09-21T12:04:23Z</time>
      </trkpt>
      <trkpt lat="52.11617" lon="4.464957">
        <ele>3200.0</ele>
        <time>2020-09-21T12:04:24Z</time>
      </trkpt>
      <trkpt lat="52.11614" lon="4.4649243">
        <ele>3200.0</ele>
        <time>2020-09-21T12:04:26Z</time>
      </trkpt>
      <trkpt lat="52.11611" lon="4.464885">
        <ele>3200.0</ele>
        <time>2020-09-21T12:04:26Z</time>
      </trkpt>
      <trkpt lat="52.116085" lon="4.464841">
        <ele>3200.0</ele>
        <time>2020-09-21T12:04:27Z</time>
      </trkpt>
      <trkpt lat="52.116066" lon="4.464795">
        <ele>3200.0</ele>
        <time>2020-09-21T12:04:28Z</time>
      </trkpt>
      <trkpt lat="52.11604" lon="4.464746">
        <ele>3200.0</ele>
        <time>2020-09-21T12:04:29Z</time>
      </trkpt>
      <trkpt lat="52.116013" lon="4.464699">
        <ele>3200.0</ele>
        <time>2020-09-21T12:04:30Z</time>
      </trkpt>
      <trkpt lat="52.115993" lon="4.464656">
        <ele>3200.0</ele>
        <time>2020-09-21T12:04:31Z</time>
      </trkpt>
      <trkpt lat="52.115967" lon="4.464619">
        <ele>3200.0</ele>
        <time>2020-09-21T12:04:32Z</time>
      </trkpt>
      <trkpt lat="52.115944" lon="4.4645877">
        <ele>3200.0</ele>
        <time>2020-09-21T12:04:33Z</time>
      </trkpt>
      <trkpt lat="52.115917" lon="4.464554">
        <ele>3200.0</ele>
        <time>2020-09-21T12:04:34Z</time>
      </trkpt>
      <trkpt lat="52.11588" lon="4.464514">
        <ele>3200.0</ele>
        <time>2020-09-21T12:04:35Z</time>
      </trkpt>
      <trkpt lat="52.11585" lon="4.4644785">
        <ele>3200.0</ele>
        <time>2020-09-21T12:04:37Z</time>
      </trkpt>
      <trkpt lat="52.115818" lon="4.464446">
        <ele>3200.0</ele>
        <time>2020-09-21T12:04:37Z</time>
      </trkpt>
      <trkpt lat="52.115784" lon="4.4644165">
        <ele>3200.0</ele>
        <time>2020-09-21T12:04:38Z</time>
      </trkpt>
      <trkpt lat="52.115753" lon="4.4643846">
        <ele>3200.0</ele>
        <time>2020-09-21T12:04:39Z</time>
      </trkpt>
      <trkpt lat="52.115723" lon="4.464352">
        <ele>3200.0</ele>
        <time>2020-09-21T12:04:40Z</time>
      </trkpt>
      <trkpt lat="52.115692" lon="4.464317">
        <ele>3200.0</ele>
        <time>2020-09-21T12:04:41Z</time>
      </trkpt>
      <trkpt lat="52.115654" lon="4.464282">
        <ele>3200.0</ele>
        <time>2020-09-21T12:04:41Z</time>
      </trkpt>
      <trkpt lat="52.11562" lon="4.4642487">
        <ele>3200.0</ele>
        <time>2020-09-21T12:04:42Z</time>
      </trkpt>
      <trkpt lat="52.11559" lon="4.46422">
        <ele>3200.0</ele>
        <time>2020-09-21T12:04:43Z</time>
      </trkpt>
      <trkpt lat="52.11556" lon="4.464194">
        <ele>3200.0</ele>
        <time>2020-09-21T12:04:44Z</time>
      </trkpt>
      <trkpt lat="52.115532" lon="4.4641724">
        <ele>3200.0</ele>
        <time>2020-09-21T12:04:46Z</time>
      </trkpt>
      <trkpt lat="52.115513" lon="4.46415">
        <ele>3200.0</ele>
        <time>2020-09-21T12:04:46Z</time>
      </trkpt>
      <trkpt lat="52.115498" lon="4.464129">
        <ele>3200.0</ele>
        <time>2020-09-21T12:04:47Z</time>
      </trkpt>
      <trkpt lat="52.115482" lon="4.4641094">
        <ele>3200.0</ele>
        <time>2020-09-21T12:04:48Z</time>
      </trkpt>
      <trkpt lat="52.11546" lon="4.4640913">
        <ele>3200.0</ele>
        <time>2020-09-21T12:04:49Z</time>
      </trkpt>
      <trkpt lat="52.115444" lon="4.4640727">
        <ele>3200.0</ele>
        <time>2020-09-21T12:04:50Z</time>
      </trkpt>
      <trkpt lat="52.11543" lon="4.4640517">
        <ele>3200.0</ele>
        <time>2020-09-21T12:04:51Z</time>
      </trkpt>
      <trkpt lat="52.11541" lon="4.464032">
        <ele>3200.0</ele>
        <time>2020-09-21T12:04:52Z</time>
      </trkpt>
      <trkpt lat="52.115395" lon="4.4640145">
        <ele>3200.0</ele>
        <time>2020-09-21T12:04:53Z</time>
      </trkpt>
      <trkpt lat="52.115376" lon="4.463997">
        <ele>3200.0</ele>
        <time>2020-09-21T12:04:54Z</time>
      </trkpt>
      <trkpt lat="52.11535" lon="4.4639792">
        <ele>3200.0</ele>
        <time>2020-09-21T12:04:55Z</time>
      </trkpt>
      <trkpt lat="52.11533" lon="4.4639583">
        <ele>3200.0</ele>
        <time>2020-09-21T12:04:56Z</time>
      </trkpt>
      <trkpt lat="52.115303" lon="4.4639378">
        <ele>3200.0</ele>
        <time>2020-09-21T12:04:57Z</time>
      </trkpt>
      <trkpt lat="52.115276" lon="4.4639153">
        <ele>3200.0</ele>
        <time>2020-09-21T12:04:58Z</time>
      </trkpt>
      <trkpt lat="52.11525" lon="4.463891">
        <ele>3200.0</ele>
        <time>2020-09-21T12:04:59Z</time>
      </trkpt>
      <trkpt lat="52.115227" lon="4.4638658">
        <ele>3200.0</ele>
        <time>2020-09-21T12:05:00Z</time>
      </trkpt>
      <trkpt lat="52.1152" lon="4.4638414">
        <ele>3200.0</ele>
        <time>2020-09-21T12:05:01Z</time>
      </trkpt>
      <trkpt lat="52.11518" lon="4.4638176">
        <ele>3200.0</ele>
        <time>2020-09-21T12:05:02Z</time>
      </trkpt>
      <trkpt lat="52.115154" lon="4.463794">
        <ele>3200.0</ele>
        <time>2020-09-21T12:05:03Z</time>
      </trkpt>
      <trkpt lat="52.115135" lon="4.463772">
        <ele>3200.0</ele>
        <time>2020-09-21T12:05:04Z</time>
      </trkpt>
      <trkpt lat="52.115112" lon="4.4637527">
        <ele>3200.0</ele>
        <time>2020-09-21T12:05:05Z</time>
      </trkpt>
      <trkpt lat="52.115093" lon="4.4637356">
        <ele>3200.0</ele>
        <time>2020-09-21T12:05:07Z</time>
      </trkpt>
      <trkpt lat="52.11507" lon="4.4637175">
        <ele>3200.0</ele>
        <time>2020-09-21T12:05:07Z</time>
      </trkpt>
      <trkpt lat="52.115055" lon="4.4637003">
        <ele>3200.0</ele>
        <time>2020-09-21T12:05:08Z</time>
      </trkpt>
      <trkpt lat="52.115036" lon="4.4636827">
        <ele>3200.0</ele>
        <time>2020-09-21T12:05:09Z</time>
      </trkpt>
      <trkpt lat="52.11502" lon="4.463666">
        <ele>3200.0</ele>
        <time>2020-09-21T12:05:10Z</time>
      </trkpt>
      <trkpt lat="52.115" lon="4.463648">
        <ele>3200.0</ele>
        <time>2020-09-21T12:05:11Z</time>
      </trkpt>
      <trkpt lat="52.11498" lon="4.4636273">
        <ele>3200.0</ele>
        <time>2020-09-21T12:05:12Z</time>
      </trkpt>
      <trkpt lat="52.11496" lon="4.463605">
        <ele>3200.0</ele>
        <time>2020-09-21T12:05:14Z</time>
      </trkpt>
      <trkpt lat="52.11494" lon="4.463584">
        <ele>3200.0</ele>
        <time>2020-09-21T12:05:14Z</time>
      </trkpt>
      <trkpt lat="52.114914" lon="4.463564">
        <ele>3200.0</ele>
        <time>2020-09-21T12:05:15Z</time>
      </trkpt>
      <trkpt lat="52.11489" lon="4.463545">
        <ele>3200.0</ele>
        <time>2020-09-21T12:05:16Z</time>
      </trkpt>
      <trkpt lat="52.114872" lon="4.4635262">
        <ele>3200.0</ele>
        <time>2020-09-21T12:05:17Z</time>
      </trkpt>
      <trkpt lat="52.114853" lon="4.4635086">
        <ele>3200.0</ele>
        <time>2020-09-21T12:05:18Z</time>
      </trkpt>
      <trkpt lat="52.11483" lon="4.46349">
        <ele>3200.0</ele>
        <time>2020-09-21T12:05:19Z</time>
      </trkpt>
      <trkpt lat="52.114807" lon="4.4634647">
        <ele>3200.0</ele>
        <time>2020-09-21T12:05:20Z</time>
      </trkpt>
      <trkpt lat="52.11478" lon="4.463435">
        <ele>3200.0</ele>
        <time>2020-09-21T12:05:21Z</time>
      </trkpt>
      <trkpt lat="52.114754" lon="4.4634037">
        <ele>3200.0</ele>
        <time>2020-09-21T12:05:22Z</time>
      </trkpt>
      <trkpt lat="52.114735" lon="4.4633737">
        <ele>3200.0</ele>
        <time>2020-09-21T12:05:23Z</time>
      </trkpt>
      <trkpt lat="52.11471" lon="4.463344">
        <ele>3200.0</ele>
        <time>2020-09-21T12:05:24Z</time>
      </trkpt>
      <trkpt lat="52.11469" lon="4.463314">
        <ele>3200.0</ele>
        <time>2020-09-21T12:05:25Z</time>
      </trkpt>
      <trkpt lat="52.114662" lon="4.4632826">
        <ele>3200.0</ele>
        <time>2020-09-21T12:05:26Z</time>
      </trkpt>
      <trkpt lat="52.11463" lon="4.463249">
        <ele>3200.0</ele>
        <time>2020-09-21T12:05:27Z</time>
      </trkpt>
      <trkpt lat="52.114605" lon="4.463214">
        <ele>3200.0</ele>
        <time>2020-09-21T12:05:28Z</time>
      </trkpt>
      <trkpt lat="52.114582" lon="4.4631786">
        <ele>3200.0</ele>
        <time>2020-09-21T12:05:29Z</time>
      </trkpt>
      <trkpt lat="52.114555" lon="4.4631433">
        <ele>3200.0</ele>
        <time>2020-09-21T12:05:30Z</time>
      </trkpt>
      <trkpt lat="52.11453" lon="4.463111">
        <ele>3200.0</ele>
        <time>2020-09-21T12:05:31Z</time>
      </trkpt>
      <trkpt lat="52.11451" lon="4.463081">
        <ele>3200.0</ele>
        <time>2020-09-21T12:05:32Z</time>
      </trkpt>
      <trkpt lat="52.114487" lon="4.463052">
        <ele>3200.0</ele>
        <time>2020-09-21T12:05:33Z</time>
      </trkpt>
      <trkpt lat="52.114468" lon="4.463022">
        <ele>3200.0</ele>
        <time>2020-09-21T12:05:35Z</time>
      </trkpt>
      <trkpt lat="52.11444" lon="4.462992">
        <ele>3200.0</ele>
        <time>2020-09-21T12:05:35Z</time>
      </trkpt>
      <trkpt lat="52.114418" lon="4.462962">
        <ele>3200.0</ele>
        <time>2020-09-21T12:05:36Z</time>
      </trkpt>
      <trkpt lat="52.11439" lon="4.4629292">
        <ele>3200.0</ele>
        <time>2020-09-21T12:05:37Z</time>
      </trkpt>
      <trkpt lat="52.114372" lon="4.4628973">
        <ele>3200.0</ele>
        <time>2020-09-21T12:05:38Z</time>
      </trkpt>
      <trkpt lat="52.11434" lon="4.4628606">
        <ele>3200.0</ele>
        <time>2020-09-21T12:05:39Z</time>
      </trkpt>
      <trkpt lat="52.114307" lon="4.462822">
        <ele>3200.0</ele>
        <time>2020-09-21T12:05:40Z</time>
      </trkpt>
      <trkpt lat="52.114285" lon="4.462783">
        <ele>3200.0</ele>
        <time>2020-09-21T12:05:41Z</time>
      </trkpt>
      <trkpt lat="52.114258" lon="4.462745">
        <ele>3200.0</ele>
        <time>2020-09-21T12:05:42Z</time>
      </trkpt>
      <trkpt lat="52.114227" lon="4.462709">
        <ele>3200.0</ele>
        <time>2020-09-21T12:05:43Z</time>
      </trkpt>
      <trkpt lat="52.1142" lon="4.462672">
        <ele>3200.0</ele>
        <time>2020-09-21T12:05:45Z</time>
      </trkpt>
      <trkpt lat="52.114178" lon="4.4626317">
        <ele>3200.0</ele>
        <time>2020-09-21T12:05:45Z</time>
      </trkpt>
      <trkpt lat="52.114147" lon="4.4625916">
        <ele>3200.0</ele>
        <time>2020-09-21T12:05:46Z</time>
      </trkpt>
      <trkpt lat="52.114113" lon="4.46255">
        <ele>3200.0</ele>
        <time>2020-09-21T12:05:47Z</time>
      </trkpt>
      <trkpt lat="52.11408" lon="4.4625106">
        <ele>3200.0</ele>
        <time>2020-09-21T12:05:48Z</time>
      </trkpt>
      <trkpt lat="52.114048" lon="4.4624715">
        <ele>3200.0</ele>
        <time>2020-09-21T12:05:49Z</time>
      </trkpt>
      <trkpt lat="52.114017" lon="4.4624405">
        <ele>3200.0</ele>
        <time>2020-09-21T12:05:50Z</time>
      </trkpt>
      <trkpt lat="52.113987" lon="4.462416">
        <ele>3200.0</ele>
        <time>2020-09-21T12:05:51Z</time>
      </trkpt>
      <trkpt lat="52.11395" lon="4.462399">
        <ele>3200.0</ele>
        <time>2020-09-21T12:05:52Z</time>
      </trkpt>
      <trkpt lat="52.11392" lon="4.46239">
        <ele>3200.0</ele>
        <time>2020-09-21T12:05:53Z</time>
      </trkpt>
      <trkpt lat="52.113884" lon="4.462388">
        <ele>3200.0</ele>
        <time>2020-09-21T12:05:54Z</time>
      </trkpt>
      <trkpt lat="52.11385" lon="4.462393">
        <ele>3200.0</ele>
        <time>2020-09-21T12:05:55Z</time>
      </trkpt>
      <trkpt lat="52.11381" lon="4.4624033">
        <ele>3200.0</ele>
        <time>2020-09-21T12:05:56Z</time>
      </trkpt>
      <trkpt lat="52.113777" lon="4.4624133">
        <ele>3200.0</ele>
        <time>2020-09-21T12:05:57Z</time>
      </trkpt>
      <trkpt lat="52.11374" lon="4.462424">
        <ele>3200.0</ele>
        <time>2020-09-21T12:05:58Z</time>
      </trkpt>
      <trkpt lat="52.11371" lon="4.4624357">
        <ele>3200.0</ele>
        <time>2020-09-21T12:05:59Z</time>
      </trkpt>
      <trkpt lat="52.113674" lon="4.4624467">
        <ele>3200.0</ele>
        <time>2020-09-21T12:06:00Z</time>
      </trkpt>
      <trkpt lat="52.11364" lon="4.462457">
        <ele>3200.0</ele>
        <time>2020-09-21T12:06:01Z</time>
      </trkpt>
      <trkpt lat="52.1136" lon="4.462466">
        <ele>3200.0</ele>
        <time>2020-09-21T12:06:02Z</time>
      </trkpt>
      <trkpt lat="52.11357" lon="4.4624715">
        <ele>3200.0</ele>
        <time>2020-09-21T12:06:03Z</time>
      </trkpt>
      <trkpt lat="52.11354" lon="4.4624724">
        <ele>3200.0</ele>
        <time>2020-09-21T12:06:04Z</time>
      </trkpt>
      <trkpt lat="52.113514" lon="4.4624686">
        <ele>3200.0</ele>
        <time>2020-09-21T12:06:06Z</time>
      </trkpt>
      <trkpt lat="52.11349" lon="4.4624577">
        <ele>3200.0</ele>
        <time>2020-09-21T12:06:06Z</time>
      </trkpt>
      <trkpt lat="52.11347" lon="4.462444">
        <ele>3200.0</ele>
        <time>2020-09-21T12:06:07Z</time>
      </trkpt>
      <trkpt lat="52.11345" lon="4.4624276">
        <ele>3200.0</ele>
        <time>2020-09-21T12:06:08Z</time>
      </trkpt>
      <trkpt lat="52.11343" lon="4.462413">
        <ele>3200.0</ele>
        <time>2020-09-21T12:06:09Z</time>
      </trkpt>
      <trkpt lat="52.113407" lon="4.4623995">
        <ele>3200.0</ele>
        <time>2020-09-21T12:06:10Z</time>
      </trkpt>
      <trkpt lat="52.113388" lon="4.462388">
        <ele>3200.0</ele>
        <time>2020-09-21T12:06:11Z</time>
      </trkpt>
      <trkpt lat="52.113373" lon="4.4623775">
        <ele>3200.0</ele>
        <time>2020-09-21T12:06:13Z</time>
      </trkpt>
      <trkpt lat="52.113358" lon="4.46237">
        <ele>3200.0</ele>
        <time>2020-09-21T12:06:13Z</time>
      </trkpt>
      <trkpt lat="52.113342" lon="4.462363">
        <ele>3200.0</ele>
        <time>2020-09-21T12:06:14Z</time>
      </trkpt>
      <trkpt lat="52.11333" lon="4.4623556">
        <ele>3200.0</ele>
        <time>2020-09-21T12:06:15Z</time>
      </trkpt>
      <trkpt lat="52.11332" lon="4.4623504">
        <ele>3200.0</ele>
        <time>2020-09-21T12:06:16Z</time>
      </trkpt>
      <trkpt lat="52.1133" lon="4.4623346">
        <ele>3200.0</ele>
        <time>2020-09-21T12:06:22Z</time>
      </trkpt>
      <trkpt lat="52.1133" lon="4.4623346">
        <ele>3200.0</ele>
        <time>2020-09-21T12:06:24Z</time>
      </trkpt>
      <trkpt lat="52.1133" lon="4.4623356">
        <ele>3200.0</ele>
        <time>2020-09-21T12:06:25Z</time>
      </trkpt>
      <trkpt lat="52.1133" lon="4.4623375">
        <ele>3200.0</ele>
        <time>2020-09-21T12:06:26Z</time>
      </trkpt>
      <trkpt lat="52.1133" lon="4.4623413">
        <ele>3200.0</ele>
        <time>2020-09-21T12:06:27Z</time>
      </trkpt>
      <trkpt lat="52.1133" lon="4.462347">
        <ele>3200.0</ele>
        <time>2020-09-21T12:06:28Z</time>
      </trkpt>
      <trkpt lat="52.113304" lon="4.462347">
        <ele>3100.0</ele>
        <time>2020-09-21T12:06:29Z</time>
      </trkpt>
      <trkpt lat="52.1133" lon="4.4623446">
        <ele>3100.0</ele>
        <time>2020-09-21T12:06:53Z</time>
      </trkpt>
      <trkpt lat="52.1133" lon="4.4623513">
        <ele>3100.0</ele>
        <time>2020-09-21T12:07:02Z</time>
      </trkpt>
      <trkpt lat="52.113304" lon="4.462358">
        <ele>3100.0</ele>
        <time>2020-09-21T12:07:08Z</time>
      </trkpt>
      <trkpt lat="52.113304" lon="4.462363">
        <ele>3100.0</ele>
        <time>2020-09-21T12:07:13Z</time>
      </trkpt>
      <trkpt lat="52.113304" lon="4.4623613">
        <ele>3100.0</ele>
        <time>2020-09-21T12:07:22Z</time>
      </trkpt>
      <trkpt lat="52.113304" lon="4.462361">
        <ele>3100.0</ele>
        <time>2020-09-21T12:07:23Z</time>
      </trkpt>
      <trkpt lat="52.1133" lon="4.4623547">
        <ele>3100.0</ele>
        <time>2020-09-21T12:07:27Z</time>
      </trkpt>
      <trkpt lat="52.1133" lon="4.4623528">
        <ele>3100.0</ele>
        <time>2020-09-21T12:07:31Z</time>
      </trkpt>
      <trkpt lat="52.11329" lon="4.4623547">
        <ele>3100.0</ele>
        <time>2020-09-21T12:07:43Z</time>
      </trkpt>
      <trkpt lat="52.11329" lon="4.4623556">
        <ele>3100.0</ele>
        <time>2020-09-21T12:07:44Z</time>
      </trkpt>
      <trkpt lat="52.113297" lon="4.4623694">
        <ele>3100.0</ele>
        <time>2020-09-21T12:08:08Z</time>
      </trkpt>
      <trkpt lat="52.113297" lon="4.4623694">
        <ele>3100.0</ele>
        <time>2020-09-21T12:08:09Z</time>
      </trkpt>
      <trkpt lat="52.1133" lon="4.4623694">
        <ele>3100.0</ele>
        <time>2020-09-21T12:08:10Z</time>
      </trkpt>
      <trkpt lat="52.113304" lon="4.462368">
        <ele>3100.0</ele>
        <time>2020-09-21T12:08:12Z</time>
      </trkpt>
      <trkpt lat="52.11331" lon="4.462368">
        <ele>3100.0</ele>
        <time>2020-09-21T12:08:13Z</time>
      </trkpt>
      <trkpt lat="52.11331" lon="4.4623675">
        <ele>3100.0</ele>
        <time>2020-09-21T12:08:14Z</time>
      </trkpt>
      <trkpt lat="52.11331" lon="4.4623666">
        <ele>3100.0</ele>
        <time>2020-09-21T12:08:15Z</time>
      </trkpt>
      <trkpt lat="52.11332" lon="4.4623694">
        <ele>3100.0</ele>
        <time>2020-09-21T12:08:16Z</time>
      </trkpt>
      <trkpt lat="52.11333" lon="4.4623775">
        <ele>3100.0</ele>
        <time>2020-09-21T12:08:17Z</time>
      </trkpt>
      <trkpt lat="52.113346" lon="4.46239">
        <ele>3100.0</ele>
        <time>2020-09-21T12:08:19Z</time>
      </trkpt>
      <trkpt lat="52.113365" lon="4.462404">
        <ele>3100.0</ele>
        <time>2020-09-21T12:08:19Z</time>
      </trkpt>
      <trkpt lat="52.113384" lon="4.4624205">
        <ele>3100.0</ele>
        <time>2020-09-21T12:08:20Z</time>
      </trkpt>
      <trkpt lat="52.113403" lon="4.4624405">
        <ele>3100.0</ele>
        <time>2020-09-21T12:08:21Z</time>
      </trkpt>
      <trkpt lat="52.113422" lon="4.462463">
        <ele>3100.0</ele>
        <time>2020-09-21T12:08:22Z</time>
      </trkpt>
      <trkpt lat="52.113445" lon="4.4624896">
        <ele>3100.0</ele>
        <time>2020-09-21T12:08:23Z</time>
      </trkpt>
      <trkpt lat="52.11346" lon="4.46252">
        <ele>3100.0</ele>
        <time>2020-09-21T12:08:24Z</time>
      </trkpt>
      <trkpt lat="52.11348" lon="4.4625525">
        <ele>3100.0</ele>
        <time>2020-09-21T12:08:25Z</time>
      </trkpt>
      <trkpt lat="52.113495" lon="4.4625854">
        <ele>3100.0</ele>
        <time>2020-09-21T12:08:26Z</time>
      </trkpt>
      <trkpt lat="52.113514" lon="4.462619">
        <ele>3100.0</ele>
        <time>2020-09-21T12:08:27Z</time>
      </trkpt>
      <trkpt lat="52.11353" lon="4.462652">
        <ele>3100.0</ele>
        <time>2020-09-21T12:08:29Z</time>
      </trkpt>
      <trkpt lat="52.113552" lon="4.4626827">
        <ele>3100.0</ele>
        <time>2020-09-21T12:08:29Z</time>
      </trkpt>
      <trkpt lat="52.11358" lon="4.462711">
        <ele>3100.0</ele>
        <time>2020-09-21T12:08:30Z</time>
      </trkpt>
      <trkpt lat="52.1136" lon="4.462736">
        <ele>3100.0</ele>
        <time>2020-09-21T12:08:31Z</time>
      </trkpt>
      <trkpt lat="52.113632" lon="4.4627547">
        <ele>3100.0</ele>
        <time>2020-09-21T12:08:32Z</time>
      </trkpt>
      <trkpt lat="52.11367" lon="4.462766">
        <ele>3100.0</ele>
        <time>2020-09-21T12:08:33Z</time>
      </trkpt>
      <trkpt lat="52.113705" lon="4.462774">
        <ele>3100.0</ele>
        <time>2020-09-21T12:08:34Z</time>
      </trkpt>
      <trkpt lat="52.11374" lon="4.462781">
        <ele>3100.0</ele>
        <time>2020-09-21T12:08:35Z</time>
      </trkpt>
      <trkpt lat="52.11378" lon="4.462787">
        <ele>3100.0</ele>
        <time>2020-09-21T12:08:36Z</time>
      </trkpt>
      <trkpt lat="52.113823" lon="4.4627967">
        <ele>3100.0</ele>
        <time>2020-09-21T12:08:37Z</time>
      </trkpt>
      <trkpt lat="52.113865" lon="4.462811">
        <ele>3100.0</ele>
        <time>2020-09-21T12:08:38Z</time>
      </trkpt>
      <trkpt lat="52.1139" lon="4.462831">
        <ele>3100.0</ele>
        <time>2020-09-21T12:08:40Z</time>
      </trkpt>
      <trkpt lat="52.113934" lon="4.462856">
        <ele>3100.0</ele>
        <time>2020-09-21T12:08:40Z</time>
      </trkpt>
      <trkpt lat="52.11397" lon="4.4628854">
        <ele>3100.0</ele>
        <time>2020-09-21T12:08:41Z</time>
      </trkpt>
      <trkpt lat="52.114006" lon="4.4629207">
        <ele>3100.0</ele>
        <time>2020-09-21T12:08:42Z</time>
      </trkpt>
      <trkpt lat="52.114048" lon="4.4629583">
        <ele>3100.0</ele>
        <time>2020-09-21T12:08:43Z</time>
      </trkpt>
      <trkpt lat="52.114082" lon="4.462995">
        <ele>3100.0</ele>
        <time>2020-09-21T12:08:44Z</time>
      </trkpt>
      <trkpt lat="52.11412" lon="4.4630356">
        <ele>3100.0</ele>
        <time>2020-09-21T12:08:45Z</time>
      </trkpt>
      <trkpt lat="52.114162" lon="4.4630766">
        <ele>3100.0</ele>
        <time>2020-09-21T12:08:46Z</time>
      </trkpt>
      <trkpt lat="52.114197" lon="4.4631176">
        <ele>3200.0</ele>
        <time>2020-09-21T12:08:47Z</time>
      </trkpt>
      <trkpt lat="52.11424" lon="4.463158">
        <ele>3200.0</ele>
        <time>2020-09-21T12:08:48Z</time>
      </trkpt>
      <trkpt lat="52.11427" lon="4.463198">
        <ele>3200.0</ele>
        <time>2020-09-21T12:08:49Z</time>
      </trkpt>
      <trkpt lat="52.114307" lon="4.4632363">
        <ele>3200.0</ele>
        <time>2020-09-21T12:08:50Z</time>
      </trkpt>
      <trkpt lat="52.114346" lon="4.4632754">
        <ele>3200.0</ele>
        <time>2020-09-21T12:08:51Z</time>
      </trkpt>
      <trkpt lat="52.11438" lon="4.4633117">
        <ele>3200.0</ele>
        <time>2020-09-21T12:08:52Z</time>
      </trkpt>
      <trkpt lat="52.11441" lon="4.4633484">
        <ele>3200.0</ele>
        <time>2020-09-21T12:08:53Z</time>
      </trkpt>
      <trkpt lat="52.11445" lon="4.463389">
        <ele>3200.0</ele>
        <time>2020-09-21T12:08:54Z</time>
      </trkpt>
      <trkpt lat="52.11448" lon="4.4634337">
        <ele>3200.0</ele>
        <time>2020-09-21T12:08:55Z</time>
      </trkpt>
      <trkpt lat="52.114513" lon="4.463478">
        <ele>3200.0</ele>
        <time>2020-09-21T12:08:56Z</time>
      </trkpt>
      <trkpt lat="52.11455" lon="4.4635243">
        <ele>3200.0</ele>
        <time>2020-09-21T12:08:56Z</time>
      </trkpt>
      <trkpt lat="52.114586" lon="4.463572">
        <ele>3200.0</ele>
        <time>2020-09-21T12:08:57Z</time>
      </trkpt>
      <trkpt lat="52.114616" lon="4.4636216">
        <ele>3200.0</ele>
        <time>2020-09-21T12:08:58Z</time>
      </trkpt>
      <trkpt lat="52.11466" lon="4.463674">
        <ele>3200.0</ele>
        <time>2020-09-21T12:09:00Z</time>
      </trkpt>
      <trkpt lat="52.114693" lon="4.4637284">
        <ele>3200.0</ele>
        <time>2020-09-21T12:09:00Z</time>
      </trkpt>
      <trkpt lat="52.114735" lon="4.4637837">
        <ele>3200.0</ele>
        <time>2020-09-21T12:09:01Z</time>
      </trkpt>
      <trkpt lat="52.114777" lon="4.463837">
        <ele>3200.0</ele>
        <time>2020-09-21T12:09:02Z</time>
      </trkpt>
      <trkpt lat="52.114815" lon="4.46389">
        <ele>3200.0</ele>
        <time>2020-09-21T12:09:03Z</time>
      </trkpt>
      <trkpt lat="52.11486" lon="4.463941">
        <ele>3200.0</ele>
        <time>2020-09-21T12:09:04Z</time>
      </trkpt>
      <trkpt lat="52.114902" lon="4.4639897">
        <ele>3200.0</ele>
        <time>2020-09-21T12:09:05Z</time>
      </trkpt>
      <trkpt lat="52.11495" lon="4.4640355">
        <ele>3200.0</ele>
        <time>2020-09-21T12:09:06Z</time>
      </trkpt>
      <trkpt lat="52.115" lon="4.464079">
        <ele>3200.0</ele>
        <time>2020-09-21T12:09:07Z</time>
      </trkpt>
      <trkpt lat="52.115047" lon="4.464122">
        <ele>3200.0</ele>
        <time>2020-09-21T12:09:08Z</time>
      </trkpt>
      <trkpt lat="52.115097" lon="4.4641633">
        <ele>3200.0</ele>
        <time>2020-09-21T12:09:09Z</time>
      </trkpt>
      <trkpt lat="52.115143" lon="4.464205">
        <ele>3200.0</ele>
        <time>2020-09-21T12:09:10Z</time>
      </trkpt>
      <trkpt lat="52.115196" lon="4.464247">
        <ele>3200.0</ele>
        <time>2020-09-21T12:09:11Z</time>
      </trkpt>
      <trkpt lat="52.115242" lon="4.4642916">
        <ele>3200.0</ele>
        <time>2020-09-21T12:09:12Z</time>
      </trkpt>
      <trkpt lat="52.11529" lon="4.464337">
        <ele>3200.0</ele>
        <time>2020-09-21T12:09:13Z</time>
      </trkpt>
      <trkpt lat="52.115337" lon="4.4643807">
        <ele>3200.0</ele>
        <time>2020-09-21T12:09:14Z</time>
      </trkpt>
      <trkpt lat="52.11539" lon="4.4644227">
        <ele>3200.0</ele>
        <time>2020-09-21T12:09:15Z</time>
      </trkpt>
      <trkpt lat="52.11544" lon="4.4644637">
        <ele>3200.0</ele>
        <time>2020-09-21T12:09:16Z</time>
      </trkpt>
      <trkpt lat="52.11549" lon="4.4645047">
        <ele>3200.0</ele>
        <time>2020-09-21T12:09:17Z</time>
      </trkpt>
      <trkpt lat="52.115543" lon="4.464549">
        <ele>3200.0</ele>
        <time>2020-09-21T12:09:18Z</time>
      </trkpt>
      <trkpt lat="52.11559" lon="4.4645915">
        <ele>3200.0</ele>
        <time>2020-09-21T12:09:19Z</time>
      </trkpt>
      <trkpt lat="52.115635" lon="4.464638">
        <ele>3200.0</ele>
        <time>2020-09-21T12:09:20Z</time>
      </trkpt>
      <trkpt lat="52.11568" lon="4.464688">
        <ele>3200.0</ele>
        <time>2020-09-21T12:09:21Z</time>
      </trkpt>
      <trkpt lat="52.115723" lon="4.4647403">
        <ele>3200.0</ele>
        <time>2020-09-21T12:09:22Z</time>
      </trkpt>
      <trkpt lat="52.115765" lon="4.464794">
        <ele>3200.0</ele>
        <time>2020-09-21T12:09:23Z</time>
      </trkpt>
      <trkpt lat="52.115803" lon="4.4648514">
        <ele>3200.0</ele>
        <time>2020-09-21T12:09:24Z</time>
      </trkpt>
      <trkpt lat="52.11584" lon="4.46491">
        <ele>3200.0</ele>
        <time>2020-09-21T12:09:25Z</time>
      </trkpt>
      <trkpt lat="52.115875" lon="4.46497">
        <ele>3200.0</ele>
        <time>2020-09-21T12:09:26Z</time>
      </trkpt>
      <trkpt lat="52.115906" lon="4.465031">
        <ele>3200.0</ele>
        <time>2020-09-21T12:09:27Z</time>
      </trkpt>
      <trkpt lat="52.115944" lon="4.4650927">
        <ele>3200.0</ele>
        <time>2020-09-21T12:09:28Z</time>
      </trkpt>
      <trkpt lat="52.115974" lon="4.4651513">
        <ele>3200.0</ele>
        <time>2020-09-21T12:09:29Z</time>
      </trkpt>
      <trkpt lat="52.11601" lon="4.4652095">
        <ele>3200.0</ele>
        <time>2020-09-21T12:09:30Z</time>
      </trkpt>
      <trkpt lat="52.11604" lon="4.4652653">
        <ele>3200.0</ele>
        <time>2020-09-21T12:09:31Z</time>
      </trkpt>
      <trkpt lat="52.116077" lon="4.465319">
        <ele>3200.0</ele>
        <time>2020-09-21T12:09:32Z</time>
      </trkpt>
      <trkpt lat="52.116108" lon="4.4653726">
        <ele>3200.0</ele>
        <time>2020-09-21T12:09:33Z</time>
      </trkpt>
      <trkpt lat="52.116142" lon="4.465425">
        <ele>3200.0</ele>
        <time>2020-09-21T12:09:34Z</time>
      </trkpt>
      <trkpt lat="52.116177" lon="4.465473">
        <ele>3200.0</ele>
        <time>2020-09-21T12:09:35Z</time>
      </trkpt>
      <trkpt lat="52.116207" lon="4.4655185">
        <ele>3200.0</ele>
        <time>2020-09-21T12:09:36Z</time>
      </trkpt>
      <trkpt lat="52.116245" lon="4.465562">
        <ele>3200.0</ele>
        <time>2020-09-21T12:09:37Z</time>
      </trkpt>
      <trkpt lat="52.11628" lon="4.4656024">
        <ele>3200.0</ele>
        <time>2020-09-21T12:09:38Z</time>
      </trkpt>
      <trkpt lat="52.116318" lon="4.465643">
        <ele>3200.0</ele>
        <time>2020-09-21T12:09:39Z</time>
      </trkpt>
      <trkpt lat="52.11635" lon="4.465686">
        <ele>3200.0</ele>
        <time>2020-09-21T12:09:40Z</time>
      </trkpt>
      <trkpt lat="52.116383" lon="4.4657264">
        <ele>3200.0</ele>
        <time>2020-09-21T12:09:42Z</time>
      </trkpt>
      <trkpt lat="52.116417" lon="4.4657607">
        <ele>3200.0</ele>
        <time>2020-09-21T12:09:42Z</time>
      </trkpt>
      <trkpt lat="52.116455" lon="4.4657884">
        <ele>3200.0</ele>
        <time>2020-09-21T12:09:43Z</time>
      </trkpt>
      <trkpt lat="52.11649" lon="4.465815">
        <ele>3200.0</ele>
        <time>2020-09-21T12:09:44Z</time>
      </trkpt>
      <trkpt lat="52.11653" lon="4.465842">
        <ele>3200.0</ele>
        <time>2020-09-21T12:09:45Z</time>
      </trkpt>
      <trkpt lat="52.116566" lon="4.46587">
        <ele>3200.0</ele>
        <time>2020-09-21T12:09:46Z</time>
      </trkpt>
      <trkpt lat="52.116604" lon="4.465899">
        <ele>3200.0</ele>
        <time>2020-09-21T12:09:47Z</time>
      </trkpt>
      <trkpt lat="52.116642" lon="4.4659286">
        <ele>3200.0</ele>
        <time>2020-09-21T12:09:48Z</time>
      </trkpt>
      <trkpt lat="52.116676" lon="4.4659567">
        <ele>3200.0</ele>
        <time>2020-09-21T12:09:49Z</time>
      </trkpt>
      <trkpt lat="52.11671" lon="4.465986">
        <ele>3200.0</ele>
        <time>2020-09-21T12:09:50Z</time>
      </trkpt>
      <trkpt lat="52.11674" lon="4.466016">
        <ele>3200.0</ele>
        <time>2020-09-21T12:09:52Z</time>
      </trkpt>
      <trkpt lat="52.116776" lon="4.466045">
        <ele>3200.0</ele>
        <time>2020-09-21T12:09:52Z</time>
      </trkpt>
      <trkpt lat="52.116806" lon="4.4660797">
        <ele>3200.0</ele>
        <time>2020-09-21T12:09:53Z</time>
      </trkpt>
      <trkpt lat="52.116833" lon="4.466122">
        <ele>3200.0</ele>
        <time>2020-09-21T12:09:54Z</time>
      </trkpt>
      <trkpt lat="52.116856" lon="4.4661684">
        <ele>3200.0</ele>
        <time>2020-09-21T12:09:55Z</time>
      </trkpt>
      <trkpt lat="52.11687" lon="4.4662185">
        <ele>3200.0</ele>
        <time>2020-09-21T12:09:56Z</time>
      </trkpt>
      <trkpt lat="52.116875" lon="4.4662724">
        <ele>3200.0</ele>
        <time>2020-09-21T12:09:57Z</time>
      </trkpt>
      <trkpt lat="52.116875" lon="4.466328">
        <ele>3200.0</ele>
        <time>2020-09-21T12:09:58Z</time>
      </trkpt>
      <trkpt lat="52.116875" lon="4.466387">
        <ele>3200.0</ele>
        <time>2020-09-21T12:09:59Z</time>
      </trkpt>
      <trkpt lat="52.11687" lon="4.466448">
        <ele>3200.0</ele>
        <time>2020-09-21T12:10:00Z</time>
      </trkpt>
      <trkpt lat="52.116863" lon="4.4665093">
        <ele>3200.0</ele>
        <time>2020-09-21T12:10:01Z</time>
      </trkpt>
      <trkpt lat="52.11686" lon="4.4665713">
        <ele>3200.0</ele>
        <time>2020-09-21T12:10:02Z</time>
      </trkpt>
      <trkpt lat="52.11686" lon="4.4666357">
        <ele>3200.0</ele>
        <time>2020-09-21T12:10:03Z</time>
      </trkpt>
      <trkpt lat="52.116863" lon="4.466701">
        <ele>3200.0</ele>
        <time>2020-09-21T12:10:04Z</time>
      </trkpt>
      <trkpt lat="52.11688" lon="4.466766">
        <ele>3200.0</ele>
        <time>2020-09-21T12:10:05Z</time>
      </trkpt>
      <trkpt lat="52.116894" lon="4.466827">
        <ele>3200.0</ele>
        <time>2020-09-21T12:10:06Z</time>
      </trkpt>
      <trkpt lat="52.11692" lon="4.4668846">
        <ele>3200.0</ele>
        <time>2020-09-21T12:10:07Z</time>
      </trkpt>
      <trkpt lat="52.116947" lon="4.46694">
        <ele>3200.0</ele>
        <time>2020-09-21T12:10:08Z</time>
      </trkpt>
      <trkpt lat="52.11698" lon="4.4669914">
        <ele>3200.0</ele>
        <time>2020-09-21T12:10:10Z</time>
      </trkpt>
      <trkpt lat="52.117016" lon="4.467038">
        <ele>3200.0</ele>
        <time>2020-09-21T12:10:10Z</time>
      </trkpt>
      <trkpt lat="52.117058" lon="4.467079">
        <ele>3200.0</ele>
        <time>2020-09-21T12:10:11Z</time>
      </trkpt>
      <trkpt lat="52.117096" lon="4.467114">
        <ele>3200.0</ele>
        <time>2020-09-21T12:10:12Z</time>
      </trkpt>
      <trkpt lat="52.11714" lon="4.467136">
        <ele>3200.0</ele>
        <time>2020-09-21T12:10:13Z</time>
      </trkpt>
      <trkpt lat="52.11718" lon="4.467146">
        <ele>3200.0</ele>
        <time>2020-09-21T12:10:14Z</time>
      </trkpt>
      <trkpt lat="52.117226" lon="4.4671416">
        <ele>3200.0</ele>
        <time>2020-09-21T12:10:15Z</time>
      </trkpt>
      <trkpt lat="52.11728" lon="4.467129">
        <ele>3200.0</ele>
        <time>2020-09-21T12:10:16Z</time>
      </trkpt>
      <trkpt lat="52.117325" lon="4.467113">
        <ele>3200.0</ele>
        <time>2020-09-21T12:10:17Z</time>
      </trkpt>
      <trkpt lat="52.117374" lon="4.4670973">
        <ele>3200.0</ele>
        <time>2020-09-21T12:10:18Z</time>
      </trkpt>
      <trkpt lat="52.117428" lon="4.467084">
        <ele>3200.0</ele>
        <time>2020-09-21T12:10:19Z</time>
      </trkpt>
      <trkpt lat="52.117477" lon="4.4670715">
        <ele>3200.0</ele>
        <time>2020-09-21T12:10:20Z</time>
      </trkpt>
      <trkpt lat="52.11753" lon="4.4670625">
        <ele>3200.0</ele>
        <time>2020-09-21T12:10:21Z</time>
      </trkpt>
      <trkpt lat="52.11758" lon="4.4670553">
        <ele>3200.0</ele>
        <time>2020-09-21T12:10:22Z</time>
      </trkpt>
      <trkpt lat="52.117634" lon="4.4670496">
        <ele>3200.0</ele>
        <time>2020-09-21T12:10:23Z</time>
      </trkpt>
      <trkpt lat="52.11768" lon="4.467045">
        <ele>3200.0</ele>
        <time>2020-09-21T12:10:24Z</time>
      </trkpt>
      <trkpt lat="52.11773" lon="4.4670453">
        <ele>3200.0</ele>
        <time>2020-09-21T12:10:25Z</time>
      </trkpt>
      <trkpt lat="52.11777" lon="4.467051">
        <ele>3200.0</ele>
        <time>2020-09-21T12:10:26Z</time>
      </trkpt>
      <trkpt lat="52.117817" lon="4.4670596">
        <ele>3200.0</ele>
        <time>2020-09-21T12:10:27Z</time>
      </trkpt>
      <trkpt lat="52.117863" lon="4.4670715">
        <ele>3200.0</ele>
        <time>2020-09-21T12:10:28Z</time>
      </trkpt>
      <trkpt lat="52.117905" lon="4.4670854">
        <ele>3200.0</ele>
        <time>2020-09-21T12:10:29Z</time>
      </trkpt>
      <trkpt lat="52.11794" lon="4.4670887">
        <ele>3200.0</ele>
        <time>2020-09-21T12:10:31Z</time>
      </trkpt>
      <trkpt lat="52.11798" lon="4.467095">
        <ele>3200.0</ele>
        <time>2020-09-21T12:10:31Z</time>
      </trkpt>
      <trkpt lat="52.118015" lon="4.467109">
        <ele>3200.0</ele>
        <time>2020-09-21T12:10:32Z</time>
      </trkpt>
      <trkpt lat="52.118053" lon="4.4671316">
        <ele>3200.0</ele>
        <time>2020-09-21T12:10:33Z</time>
      </trkpt>
      <trkpt lat="52.118088" lon="4.46716">
        <ele>3200.0</ele>
        <time>2020-09-21T12:10:34Z</time>
      </trkpt>
      <trkpt lat="52.118122" lon="4.467196">
        <ele>3200.0</ele>
        <time>2020-09-21T12:10:35Z</time>
      </trkpt>
      <trkpt lat="52.118153" lon="4.467235">
        <ele>3200.0</ele>
        <time>2020-09-21T12:10:36Z</time>
      </trkpt>
      <trkpt lat="52.118183" lon="4.46728">
        <ele>3200.0</ele>
        <time>2020-09-21T12:10:37Z</time>
      </trkpt>
      <trkpt lat="52.118217" lon="4.4673305">
        <ele>3200.0</ele>
        <time>2020-09-21T12:10:38Z</time>
      </trkpt>
      <trkpt lat="52.118248" lon="4.467383">
        <ele>3200.0</ele>
        <time>2020-09-21T12:10:39Z</time>
      </trkpt>
      <trkpt lat="52.11828" lon="4.467439">
        <ele>3200.0</ele>
        <time>2020-09-21T12:10:41Z</time>
      </trkpt>
      <trkpt lat="52.1183" lon="4.467501">
        <ele>3200.0</ele>
        <time>2020-09-21T12:10:41Z</time>
      </trkpt>
      <trkpt lat="52.11833" lon="4.467564">
        <ele>3200.0</ele>
        <time>2020-09-21T12:10:42Z</time>
      </trkpt>
      <trkpt lat="52.118355" lon="4.46763">
        <ele>3200.0</ele>
        <time>2020-09-21T12:10:43Z</time>
      </trkpt>
      <trkpt lat="52.118374" lon="4.467697">
        <ele>3200.0</ele>
        <time>2020-09-21T12:10:44Z</time>
      </trkpt>
      <trkpt lat="52.1184" lon="4.467767">
        <ele>3200.0</ele>
        <time>2020-09-21T12:10:45Z</time>
      </trkpt>
      <trkpt lat="52.11842" lon="4.4678373">
        <ele>3200.0</ele>
        <time>2020-09-21T12:10:46Z</time>
      </trkpt>
      <trkpt lat="52.118446" lon="4.4679117">
        <ele>3200.0</ele>
        <time>2020-09-21T12:10:47Z</time>
      </trkpt>
      <trkpt lat="52.118465" lon="4.467984">
        <ele>3200.0</ele>
        <time>2020-09-21T12:10:48Z</time>
      </trkpt>
      <trkpt lat="52.118492" lon="4.468054">
        <ele>3200.0</ele>
        <time>2020-09-21T12:10:49Z</time>
      </trkpt>
      <trkpt lat="52.11851" lon="4.46812">
        <ele>3200.0</ele>
        <time>2020-09-21T12:10:50Z</time>
      </trkpt>
      <trkpt lat="52.118526" lon="4.4681864">
        <ele>3200.0</ele>
        <time>2020-09-21T12:10:51Z</time>
      </trkpt>
      <trkpt lat="52.11855" lon="4.468251">
        <ele>3200.0</ele>
        <time>2020-09-21T12:10:52Z</time>
      </trkpt>
      <trkpt lat="52.118565" lon="4.4683146">
        <ele>3200.0</ele>
        <time>2020-09-21T12:10:53Z</time>
      </trkpt>
      <trkpt lat="52.118584" lon="4.468377">
        <ele>3200.0</ele>
        <time>2020-09-21T12:10:54Z</time>
      </trkpt>
      <trkpt lat="52.118607" lon="4.4684386">
        <ele>3200.0</ele>
        <time>2020-09-21T12:10:55Z</time>
      </trkpt>
      <trkpt lat="52.118626" lon="4.468497">
        <ele>3200.0</ele>
        <time>2020-09-21T12:10:56Z</time>
      </trkpt>
      <trkpt lat="52.118645" lon="4.4685493">
        <ele>3200.0</ele>
        <time>2020-09-21T12:10:57Z</time>
      </trkpt>
      <trkpt lat="52.11866" lon="4.4686">
        <ele>3200.0</ele>
        <time>2020-09-21T12:10:58Z</time>
      </trkpt>
      <trkpt lat="52.118675" lon="4.46865">
        <ele>3200.0</ele>
        <time>2020-09-21T12:10:59Z</time>
      </trkpt>
      <trkpt lat="52.11869" lon="4.4686975">
        <ele>3200.0</ele>
        <time>2020-09-21T12:11:00Z</time>
      </trkpt>
      <trkpt lat="52.118706" lon="4.4687457">
        <ele>3200.0</ele>
        <time>2020-09-21T12:11:02Z</time>
      </trkpt>
      <trkpt lat="52.11872" lon="4.4687896">
        <ele>3200.0</ele>
        <time>2020-09-21T12:11:02Z</time>
      </trkpt>
      <trkpt lat="52.118744" lon="4.4688387">
        <ele>3200.0</ele>
        <time>2020-09-21T12:11:03Z</time>
      </trkpt>
      <trkpt lat="52.11876" lon="4.4688835">
        <ele>3200.0</ele>
        <time>2020-09-21T12:11:04Z</time>
      </trkpt>
      <trkpt lat="52.11878" lon="4.46893">
        <ele>3200.0</ele>
        <time>2020-09-21T12:11:05Z</time>
      </trkpt>
      <trkpt lat="52.118793" lon="4.46898">
        <ele>3200.0</ele>
        <time>2020-09-21T12:11:06Z</time>
      </trkpt>
      <trkpt lat="52.118816" lon="4.4690266">
        <ele>3200.0</ele>
        <time>2020-09-21T12:11:07Z</time>
      </trkpt>
      <trkpt lat="52.118835" lon="4.4690742">
        <ele>3200.0</ele>
        <time>2020-09-21T12:11:08Z</time>
      </trkpt>
      <trkpt lat="52.11885" lon="4.469123">
        <ele>3200.0</ele>
        <time>2020-09-21T12:11:10Z</time>
      </trkpt>
      <trkpt lat="52.11887" lon="4.469167">
        <ele>3200.0</ele>
        <time>2020-09-21T12:11:10Z</time>
      </trkpt>
      <trkpt lat="52.118885" lon="4.4692025">
        <ele>3200.0</ele>
        <time>2020-09-21T12:11:11Z</time>
      </trkpt>
      <trkpt lat="52.118908" lon="4.4692264">
        <ele>3200.0</ele>
        <time>2020-09-21T12:11:12Z</time>
      </trkpt>
      <trkpt lat="52.118923" lon="4.4692364">
        <ele>3200.0</ele>
        <time>2020-09-21T12:11:13Z</time>
      </trkpt>
      <trkpt lat="52.118942" lon="4.4692373">
        <ele>3200.0</ele>
        <time>2020-09-21T12:11:14Z</time>
      </trkpt>
      <trkpt lat="52.11897" lon="4.4692326">
        <ele>3200.0</ele>
        <time>2020-09-21T12:11:15Z</time>
      </trkpt>
      <trkpt lat="52.118996" lon="4.4692206">
        <ele>3200.0</ele>
        <time>2020-09-21T12:11:16Z</time>
      </trkpt>
      <trkpt lat="52.11902" lon="4.469204">
        <ele>3200.0</ele>
        <time>2020-09-21T12:11:17Z</time>
      </trkpt>
      <trkpt lat="52.11905" lon="4.469184">
        <ele>3200.0</ele>
        <time>2020-09-21T12:11:18Z</time>
      </trkpt>
      <trkpt lat="52.119076" lon="4.469158">
        <ele>3200.0</ele>
        <time>2020-09-21T12:11:20Z</time>
      </trkpt>
      <trkpt lat="52.119102" lon="4.469129">
        <ele>3200.0</ele>
        <time>2020-09-21T12:11:20Z</time>
      </trkpt>
      <trkpt lat="52.119125" lon="4.469099">
        <ele>3200.0</ele>
        <time>2020-09-21T12:11:21Z</time>
      </trkpt>
      <trkpt lat="52.119156" lon="4.469072">
        <ele>3200.0</ele>
        <time>2020-09-21T12:11:22Z</time>
      </trkpt>
      <trkpt lat="52.11919" lon="4.469045">
        <ele>3200.0</ele>
        <time>2020-09-21T12:11:23Z</time>
      </trkpt>
      <trkpt lat="52.119213" lon="4.4690185">
        <ele>3200.0</ele>
        <time>2020-09-21T12:11:24Z</time>
      </trkpt>
      <trkpt lat="52.11924" lon="4.468986">
        <ele>3200.0</ele>
        <time>2020-09-21T12:11:25Z</time>
      </trkpt>
      <trkpt lat="52.119267" lon="4.4689536">
        <ele>3200.0</ele>
        <time>2020-09-21T12:11:26Z</time>
      </trkpt>
      <trkpt lat="52.11929" lon="4.4689226">
        <ele>3200.0</ele>
        <time>2020-09-21T12:11:27Z</time>
      </trkpt>
      <trkpt lat="52.119316" lon="4.4688897">
        <ele>3200.0</ele>
        <time>2020-09-21T12:11:28Z</time>
      </trkpt>
      <trkpt lat="52.11933" lon="4.468856">
        <ele>3200.0</ele>
        <time>2020-09-21T12:11:30Z</time>
      </trkpt>
      <trkpt lat="52.119347" lon="4.4688206">
        <ele>3200.0</ele>
        <time>2020-09-21T12:11:30Z</time>
      </trkpt>
      <trkpt lat="52.11935" lon="4.468783">
        <ele>3200.0</ele>
        <time>2020-09-21T12:11:31Z</time>
      </trkpt>
      <trkpt lat="52.11936" lon="4.468742">
        <ele>3200.0</ele>
        <time>2020-09-21T12:11:32Z</time>
      </trkpt>
      <trkpt lat="52.119373" lon="4.468701">
        <ele>3200.0</ele>
        <time>2020-09-21T12:11:33Z</time>
      </trkpt>
      <trkpt lat="52.119392" lon="4.468663">
        <ele>3200.0</ele>
        <time>2020-09-21T12:11:34Z</time>
      </trkpt>
      <trkpt lat="52.119415" lon="4.4686294">
        <ele>3200.0</ele>
        <time>2020-09-21T12:11:35Z</time>
      </trkpt>
      <trkpt lat="52.11944" lon="4.4685946">
        <ele>3200.0</ele>
        <time>2020-09-21T12:11:36Z</time>
      </trkpt>
      <trkpt lat="52.119465" lon="4.46856">
        <ele>3200.0</ele>
        <time>2020-09-21T12:11:37Z</time>
      </trkpt>
      <trkpt lat="52.11949" lon="4.4685264">
        <ele>3200.0</ele>
        <time>2020-09-21T12:11:38Z</time>
      </trkpt>
      <trkpt lat="52.119514" lon="4.468493">
        <ele>3200.0</ele>
        <time>2020-09-21T12:11:39Z</time>
      </trkpt>
      <trkpt lat="52.119545" lon="4.4684606">
        <ele>3200.0</ele>
        <time>2020-09-21T12:11:40Z</time>
      </trkpt>
      <trkpt lat="52.11958" lon="4.4684334">
        <ele>3200.0</ele>
        <time>2020-09-21T12:11:41Z</time>
      </trkpt>
      <trkpt lat="52.119614" lon="4.4684153">
        <ele>3200.0</ele>
        <time>2020-09-21T12:11:42Z</time>
      </trkpt>
      <trkpt lat="52.119648" lon="4.468408">
        <ele>3200.0</ele>
        <time>2020-09-21T12:11:43Z</time>
      </trkpt>
      <trkpt lat="52.11968" lon="4.468416">
        <ele>3200.0</ele>
        <time>2020-09-21T12:11:44Z</time>
      </trkpt>
      <trkpt lat="52.11971" lon="4.4684386">
        <ele>3200.0</ele>
        <time>2020-09-21T12:11:45Z</time>
      </trkpt>
      <trkpt lat="52.119736" lon="4.4684725">
        <ele>3200.0</ele>
        <time>2020-09-21T12:11:46Z</time>
      </trkpt>
      <trkpt lat="52.11976" lon="4.4685125">
        <ele>3200.0</ele>
        <time>2020-09-21T12:11:47Z</time>
      </trkpt>
      <trkpt lat="52.119774" lon="4.468553">
        <ele>3200.0</ele>
        <time>2020-09-21T12:11:48Z</time>
      </trkpt>
      <trkpt lat="52.119793" lon="4.468595">
        <ele>3200.0</ele>
        <time>2020-09-21T12:11:49Z</time>
      </trkpt>
      <trkpt lat="52.119812" lon="4.468633">
        <ele>3200.0</ele>
        <time>2020-09-21T12:11:51Z</time>
      </trkpt>
      <trkpt lat="52.11984" lon="4.468667">
        <ele>3200.0</ele>
        <time>2020-09-21T12:11:51Z</time>
      </trkpt>
      <trkpt lat="52.119865" lon="4.4686947">
        <ele>3200.0</ele>
        <time>2020-09-21T12:11:52Z</time>
      </trkpt>
      <trkpt lat="52.119884" lon="4.4687138">
        <ele>3200.0</ele>
        <time>2020-09-21T12:11:53Z</time>
      </trkpt>
      <trkpt lat="52.11991" lon="4.4687247">
        <ele>3200.0</ele>
        <time>2020-09-21T12:11:54Z</time>
      </trkpt>
      <trkpt lat="52.119938" lon="4.468726">
        <ele>3300.0</ele>
        <time>2020-09-21T12:11:55Z</time>
      </trkpt>
      <trkpt lat="52.119957" lon="4.468718">
        <ele>3300.0</ele>
        <time>2020-09-21T12:11:56Z</time>
      </trkpt>
      <trkpt lat="52.119976" lon="4.468706">
        <ele>3300.0</ele>
        <time>2020-09-21T12:11:57Z</time>
      </trkpt>
      <trkpt lat="52.12" lon="4.4686904">
        <ele>3300.0</ele>
        <time>2020-09-21T12:11:58Z</time>
      </trkpt>
      <trkpt lat="52.12002" lon="4.4686728">
        <ele>3300.0</ele>
        <time>2020-09-21T12:11:59Z</time>
      </trkpt>
      <trkpt lat="52.120045" lon="4.4686513">
        <ele>3300.0</ele>
        <time>2020-09-21T12:12:00Z</time>
      </trkpt>
      <trkpt lat="52.120068" lon="4.4686337">
        <ele>3300.0</ele>
        <time>2020-09-21T12:12:02Z</time>
      </trkpt>
      <trkpt lat="52.120094" lon="4.4686146">
        <ele>3300.0</ele>
        <time>2020-09-21T12:12:02Z</time>
      </trkpt>
      <trkpt lat="52.12012" lon="4.4685946">
        <ele>3300.0</ele>
        <time>2020-09-21T12:12:03Z</time>
      </trkpt>
      <trkpt lat="52.120148" lon="4.468572">
        <ele>3300.0</ele>
        <time>2020-09-21T12:12:04Z</time>
      </trkpt>
      <trkpt lat="52.120163" lon="4.4685497">
        <ele>3300.0</ele>
        <time>2020-09-21T12:12:05Z</time>
      </trkpt>
      <trkpt lat="52.120182" lon="4.468528">
        <ele>3300.0</ele>
        <time>2020-09-21T12:12:06Z</time>
      </trkpt>
      <trkpt lat="52.120193" lon="4.4685087">
        <ele>3300.0</ele>
        <time>2020-09-21T12:12:07Z</time>
      </trkpt>
      <trkpt lat="52.12021" lon="4.4684973">
        <ele>3300.0</ele>
        <time>2020-09-21T12:12:09Z</time>
      </trkpt>
      <trkpt lat="52.120216" lon="4.468492">
        <ele>3300.0</ele>
        <time>2020-09-21T12:12:09Z</time>
      </trkpt>
      <trkpt lat="52.12023" lon="4.4684973">
        <ele>3300.0</ele>
        <time>2020-09-21T12:12:10Z</time>
      </trkpt>
      <trkpt lat="52.120243" lon="4.468511">
        <ele>3300.0</ele>
        <time>2020-09-21T12:12:11Z</time>
      </trkpt>
      <trkpt lat="52.120255" lon="4.4685287">
        <ele>3300.0</ele>
        <time>2020-09-21T12:12:12Z</time>
      </trkpt>
      <trkpt lat="52.12026" lon="4.4685507">
        <ele>3300.0</ele>
        <time>2020-09-21T12:12:13Z</time>
      </trkpt>
      <trkpt lat="52.120262" lon="4.468572">
        <ele>3300.0</ele>
        <time>2020-09-21T12:12:14Z</time>
      </trkpt>
      <trkpt lat="52.120274" lon="4.468594">
        <ele>3300.0</ele>
        <time>2020-09-21T12:12:15Z</time>
      </trkpt>
      <trkpt lat="52.120277" lon="4.4686165">
        <ele>3300.0</ele>
        <time>2020-09-21T12:12:16Z</time>
      </trkpt>
      <trkpt lat="52.12029" lon="4.468636">
        <ele>3300.0</ele>
        <time>2020-09-21T12:12:17Z</time>
      </trkpt>
      <trkpt lat="52.1203" lon="4.468653">
        <ele>3300.0</ele>
        <time>2020-09-21T12:12:18Z</time>
      </trkpt>
      <trkpt lat="52.120316" lon="4.46867">
        <ele>3300.0</ele>
        <time>2020-09-21T12:12:19Z</time>
      </trkpt>
      <trkpt lat="52.120327" lon="4.4686837">
        <ele>3300.0</ele>
        <time>2020-09-21T12:12:20Z</time>
      </trkpt>
      <trkpt lat="52.120342" lon="4.468695">
        <ele>3300.0</ele>
        <time>2020-09-21T12:12:21Z</time>
      </trkpt>
      <trkpt lat="52.12035" lon="4.4687047">
        <ele>3300.0</ele>
        <time>2020-09-21T12:12:22Z</time>
      </trkpt>
      <trkpt lat="52.120358" lon="4.468712">
        <ele>3300.0</ele>
        <time>2020-09-21T12:12:23Z</time>
      </trkpt>
      <trkpt lat="52.12036" lon="4.4687176">
        <ele>3300.0</ele>
        <time>2020-09-21T12:12:24Z</time>
      </trkpt>
      <trkpt lat="52.120365" lon="4.4687214">
        <ele>3300.0</ele>
        <time>2020-09-21T12:12:25Z</time>
      </trkpt>
      <trkpt lat="52.120373" lon="4.4687257">
        <ele>3300.0</ele>
        <time>2020-09-21T12:12:26Z</time>
      </trkpt>
      <trkpt lat="52.120377" lon="4.468728">
        <ele>3300.0</ele>
        <time>2020-09-21T12:12:27Z</time>
      </trkpt>
      <trkpt lat="52.120377" lon="4.4687285">
        <ele>3300.0</ele>
        <time>2020-09-21T12:12:29Z</time>
      </trkpt>
      <trkpt lat="52.120377" lon="4.4687276">
        <ele>3300.0</ele>
        <time>2020-09-21T12:12:30Z</time>
      </trkpt>
      <trkpt lat="52.120373" lon="4.4687304">
        <ele>3300.0</ele>
        <time>2020-09-21T12:12:32Z</time>
      </trkpt>
      <trkpt lat="52.120373" lon="4.4687314">
        <ele>3300.0</ele>
        <time>2020-09-21T12:12:33Z</time>
      </trkpt>
      <trkpt lat="52.120373" lon="4.4687324">
        <ele>3300.0</ele>
        <time>2020-09-21T12:12:34Z</time>
      </trkpt>
      <trkpt lat="52.12036" lon="4.4687357">
        <ele>3300.0</ele>
        <time>2020-09-21T12:12:53Z</time>
      </trkpt>
      <trkpt lat="52.12036" lon="4.4687457">
        <ele>3300.0</ele>
        <time>2020-09-21T12:13:02Z</time>
      </trkpt>
      <trkpt lat="52.12036" lon="4.4687467">
        <ele>3300.0</ele>
        <time>2020-09-21T12:13:02Z</time>
      </trkpt>
      <trkpt lat="52.12036" lon="4.468749">
        <ele>3300.0</ele>
        <time>2020-09-21T12:13:03Z</time>
      </trkpt>
      <trkpt lat="52.12036" lon="4.468759">
        <ele>3300.0</ele>
        <time>2020-09-21T12:13:05Z</time>
      </trkpt>
      <trkpt lat="52.12036" lon="4.4687605">
        <ele>3300.0</ele>
        <time>2020-09-21T12:13:11Z</time>
      </trkpt>
      <trkpt lat="52.120365" lon="4.4687605">
        <ele>3300.0</ele>
        <time>2020-09-21T12:13:11Z</time>
      </trkpt>
      <trkpt lat="52.120377" lon="4.4687557">
        <ele>3300.0</ele>
        <time>2020-09-21T12:13:20Z</time>
      </trkpt>
      <trkpt lat="52.120377" lon="4.468755">
        <ele>3300.0</ele>
        <time>2020-09-21T12:13:21Z</time>
      </trkpt>
      <trkpt lat="52.120377" lon="4.468753">
        <ele>3300.0</ele>
        <time>2020-09-21T12:13:22Z</time>
      </trkpt>
      <trkpt lat="52.120377" lon="4.468751">
        <ele>3300.0</ele>
        <time>2020-09-21T12:13:23Z</time>
      </trkpt>
      <trkpt lat="52.120377" lon="4.468748">
        <ele>3300.0</ele>
        <time>2020-09-21T12:13:25Z</time>
      </trkpt>
      <trkpt lat="52.120377" lon="4.468737">
        <ele>3300.0</ele>
        <time>2020-09-21T12:13:26Z</time>
      </trkpt>
      <trkpt lat="52.120377" lon="4.4687347">
        <ele>3300.0</ele>
        <time>2020-09-21T12:13:27Z</time>
      </trkpt>
      <trkpt lat="52.120377" lon="4.4687304">
        <ele>3300.0</ele>
        <time>2020-09-21T12:13:28Z</time>
      </trkpt>
      <trkpt lat="52.12038" lon="4.4687266">
        <ele>3300.0</ele>
        <time>2020-09-21T12:13:29Z</time>
      </trkpt>
      <trkpt lat="52.12038" lon="4.4687223">
        <ele>3300.0</ele>
        <time>2020-09-21T12:13:30Z</time>
      </trkpt>
      <trkpt lat="52.120388" lon="4.468709">
        <ele>3300.0</ele>
        <time>2020-09-21T12:13:32Z</time>
      </trkpt>
      <trkpt lat="52.12039" lon="4.468707">
        <ele>3300.0</ele>
        <time>2020-09-21T12:13:58Z</time>
      </trkpt>
      <trkpt lat="52.120388" lon="4.468709">
        <ele>3300.0</ele>
        <time>2020-09-21T12:14:01Z</time>
      </trkpt>
      <trkpt lat="52.120388" lon="4.4687095">
        <ele>3300.0</ele>
        <time>2020-09-21T12:14:02Z</time>
      </trkpt>
      <trkpt lat="52.12038" lon="4.4687123">
        <ele>3300.0</ele>
        <time>2020-09-21T12:14:04Z</time>
      </trkpt>
      <trkpt lat="52.120377" lon="4.468699">
        <ele>3300.0</ele>
        <time>2020-09-21T12:14:34Z</time>
      </trkpt>
      <trkpt lat="52.120377" lon="4.468699">
        <ele>3300.0</ele>
        <time>2020-09-21T12:14:35Z</time>
      </trkpt>
      <trkpt lat="52.120373" lon="4.468698">
        <ele>3300.0</ele>
        <time>2020-09-21T12:14:36Z</time>
      </trkpt>
      <trkpt lat="52.12036" lon="4.4686956">
        <ele>3300.0</ele>
        <time>2020-09-21T12:14:39Z</time>
      </trkpt>
      <trkpt lat="52.12036" lon="4.468694">
        <ele>3300.0</ele>
        <time>2020-09-21T12:14:41Z</time>
      </trkpt>
      <trkpt lat="52.12036" lon="4.4686933">
        <ele>3300.0</ele>
        <time>2020-09-21T12:14:42Z</time>
      </trkpt>
      <trkpt lat="52.120358" lon="4.4686875">
        <ele>3300.0</ele>
        <time>2020-09-21T12:14:45Z</time>
      </trkpt>
      <trkpt lat="52.12035" lon="4.4686875">
        <ele>3300.0</ele>
        <time>2020-09-21T12:14:47Z</time>
      </trkpt>
      <trkpt lat="52.12035" lon="4.4686866">
        <ele>3300.0</ele>
        <time>2020-09-21T12:14:48Z</time>
      </trkpt>
      <trkpt lat="52.120342" lon="4.468697">
        <ele>3300.0</ele>
        <time>2020-09-21T12:15:10Z</time>
      </trkpt>
      <trkpt lat="52.120346" lon="4.468699">
        <ele>3300.0</ele>
        <time>2020-09-21T12:15:12Z</time>
      </trkpt>
      <trkpt lat="52.12036" lon="4.468707">
        <ele>3300.0</ele>
        <time>2020-09-21T12:18:20Z</time>
      </trkpt>
      <trkpt lat="52.12036" lon="4.468706">
        <ele>3300.0</ele>
        <time>2020-09-21T12:18:21Z</time>
      </trkpt>
      <trkpt lat="52.12035" lon="4.4687057">
        <ele>3300.0</ele>
        <time>2020-09-21T12:18:58Z</time>
      </trkpt>
      <trkpt lat="52.12035" lon="4.4687123">
        <ele>3300.0</ele>
        <time>2020-09-21T12:19:02Z</time>
      </trkpt>
      <trkpt lat="52.12035" lon="4.4687176">
        <ele>3300.0</ele>
        <time>2020-09-21T12:19:05Z</time>
      </trkpt>
      <trkpt lat="52.12035" lon="4.4687185">
        <ele>3300.0</ele>
        <time>2020-09-21T12:19:06Z</time>
      </trkpt>
      <trkpt lat="52.12035" lon="4.4687223">
        <ele>3300.0</ele>
        <time>2020-09-21T12:19:07Z</time>
      </trkpt>
      <trkpt lat="52.120358" lon="4.468737">
        <ele>3300.0</ele>
        <time>2020-09-21T12:19:10Z</time>
      </trkpt>
      <trkpt lat="52.120358" lon="4.4687376">
        <ele>3300.0</ele>
        <time>2020-09-21T12:19:11Z</time>
      </trkpt>
      <trkpt lat="52.12036" lon="4.4687405">
        <ele>3300.0</ele>
        <time>2020-09-21T12:19:16Z</time>
      </trkpt>
      <trkpt lat="52.12036" lon="4.468741">
        <ele>3300.0</ele>
        <time>2020-09-21T12:19:16Z</time>
      </trkpt>
      <trkpt lat="52.12036" lon="4.468741">
        <ele>3300.0</ele>
        <time>2020-09-21T12:19:17Z</time>
      </trkpt>
      <trkpt lat="52.120365" lon="4.4687405">
        <ele>3300.0</ele>
        <time>2020-09-21T12:19:32Z</time>
      </trkpt>
      <trkpt lat="52.120358" lon="4.4687357">
        <ele>3300.0</ele>
        <time>2020-09-21T12:19:38Z</time>
      </trkpt>
      <trkpt lat="52.120358" lon="4.468737">
        <ele>3300.0</ele>
        <time>2020-09-21T12:19:58Z</time>
      </trkpt>
      <trkpt lat="52.120358" lon="4.4687376">
        <ele>3300.0</ele>
        <time>2020-09-21T12:19:59Z</time>
      </trkpt>
      <trkpt lat="52.12036" lon="4.468739">
        <ele>3300.0</ele>
        <time>2020-09-21T12:20:00Z</time>
      </trkpt>
      <trkpt lat="52.12036" lon="4.468739">
        <ele>3300.0</ele>
        <time>2020-09-21T12:20:01Z</time>
      </trkpt>
      <trkpt lat="52.120365" lon="4.4687366">
        <ele>3300.0</ele>
        <time>2020-09-21T12:20:02Z</time>
      </trkpt>
      <trkpt lat="52.120373" lon="4.4687343">
        <ele>3300.0</ele>
        <time>2020-09-21T12:20:04Z</time>
      </trkpt>
      <trkpt lat="52.12038" lon="4.4687304">
        <ele>3300.0</ele>
        <time>2020-09-21T12:20:06Z</time>
      </trkpt>
      <trkpt lat="52.12038" lon="4.4687295">
        <ele>3300.0</ele>
        <time>2020-09-21T12:20:07Z</time>
      </trkpt>
      <trkpt lat="52.120388" lon="4.4687304">
        <ele>3300.0</ele>
        <time>2020-09-21T12:20:08Z</time>
      </trkpt>
      <trkpt lat="52.12039" lon="4.46873">
        <ele>3300.0</ele>
        <time>2020-09-21T12:20:09Z</time>
      </trkpt>
      <trkpt lat="52.12039" lon="4.468727">
        <ele>3300.0</ele>
        <time>2020-09-21T12:20:10Z</time>
      </trkpt>
      <trkpt lat="52.120396" lon="4.4687214">
        <ele>3300.0</ele>
        <time>2020-09-21T12:20:12Z</time>
      </trkpt>
      <trkpt lat="52.120396" lon="4.468715">
        <ele>3300.0</ele>
        <time>2020-09-21T12:20:12Z</time>
      </trkpt>
      <trkpt lat="52.12039" lon="4.4687095">
        <ele>3300.0</ele>
        <time>2020-09-21T12:20:13Z</time>
      </trkpt>
      <trkpt lat="52.12039" lon="4.4687033">
        <ele>3300.0</ele>
        <time>2020-09-21T12:20:14Z</time>
      </trkpt>
      <trkpt lat="52.12039" lon="4.468697">
        <ele>3300.0</ele>
        <time>2020-09-21T12:20:15Z</time>
      </trkpt>
      <trkpt lat="52.120388" lon="4.4686904">
        <ele>3300.0</ele>
        <time>2020-09-21T12:20:16Z</time>
      </trkpt>
      <trkpt lat="52.120377" lon="4.4686823">
        <ele>3300.0</ele>
        <time>2020-09-21T12:20:26Z</time>
      </trkpt>
      <trkpt lat="52.120373" lon="4.4686875">
        <ele>3300.0</ele>
        <time>2020-09-21T12:20:45Z</time>
      </trkpt>
      <trkpt lat="52.120373" lon="4.4686894">
        <ele>3300.0</ele>
        <time>2020-09-21T12:20:46Z</time>
      </trkpt>
      <trkpt lat="52.120373" lon="4.468704">
        <ele>3300.0</ele>
        <time>2020-09-21T12:20:51Z</time>
      </trkpt>
      <trkpt lat="52.120377" lon="4.4687157">
        <ele>3300.0</ele>
        <time>2020-09-21T12:20:59Z</time>
      </trkpt>
      <trkpt lat="52.120377" lon="4.4687185">
        <ele>3300.0</ele>
        <time>2020-09-21T12:20:59Z</time>
      </trkpt>
      <trkpt lat="52.12038" lon="4.4687223">
        <ele>3300.0</ele>
        <time>2020-09-21T12:21:18Z</time>
      </trkpt>
      <trkpt lat="52.12038" lon="4.4687214">
        <ele>3300.0</ele>
        <time>2020-09-21T12:21:19Z</time>
      </trkpt>
      <trkpt lat="52.120365" lon="4.468719">
        <ele>3300.0</ele>
        <time>2020-09-21T12:21:35Z</time>
      </trkpt>
      <trkpt lat="52.12036" lon="4.4687176">
        <ele>3300.0</ele>
        <time>2020-09-21T12:21:37Z</time>
      </trkpt>
      <trkpt lat="52.120358" lon="4.4687223">
        <ele>3300.0</ele>
        <time>2020-09-21T12:21:46Z</time>
      </trkpt>
      <trkpt lat="52.120358" lon="4.468724">
        <ele>3300.0</ele>
        <time>2020-09-21T12:21:48Z</time>
      </trkpt>
      <trkpt lat="52.120358" lon="4.4687257">
        <ele>3300.0</ele>
        <time>2020-09-21T12:21:54Z</time>
      </trkpt>
      <trkpt lat="52.120358" lon="4.4687324">
        <ele>3300.0</ele>
        <time>2020-09-21T12:21:57Z</time>
      </trkpt>
      <trkpt lat="52.120346" lon="4.4687324">
        <ele>3300.0</ele>
        <time>2020-09-21T12:22:10Z</time>
      </trkpt>
      <trkpt lat="52.120346" lon="4.4687304">
        <ele>3300.0</ele>
        <time>2020-09-21T12:22:12Z</time>
      </trkpt>
      <trkpt lat="52.120342" lon="4.4687276">
        <ele>3300.0</ele>
        <time>2020-09-21T12:22:22Z</time>
      </trkpt>
      <trkpt lat="52.120335" lon="4.4687257">
        <ele>3300.0</ele>
        <time>2020-09-21T12:22:25Z</time>
      </trkpt>
      <trkpt lat="52.120335" lon="4.4687223">
        <ele>3300.0</ele>
        <time>2020-09-21T12:22:46Z</time>
      </trkpt>
      <trkpt lat="52.120335" lon="4.4687204">
        <ele>3300.0</ele>
        <time>2020-09-21T12:22:48Z</time>
      </trkpt>
      <trkpt lat="52.120346" lon="4.4687157">
        <ele>3300.0</ele>
        <time>2020-09-21T12:22:54Z</time>
      </trkpt>
      <trkpt lat="52.120346" lon="4.4687123">
        <ele>3300.0</ele>
        <time>2020-09-21T12:22:57Z</time>
      </trkpt>
      <trkpt lat="52.12035" lon="4.468711">
        <ele>3300.0</ele>
        <time>2020-09-21T12:23:00Z</time>
      </trkpt>
      <trkpt lat="52.12035" lon="4.4687276">
        <ele>3300.0</ele>
        <time>2020-09-21T12:23:45Z</time>
      </trkpt>
      <trkpt lat="52.12035" lon="4.468729">
        <ele>3300.0</ele>
        <time>2020-09-21T12:23:48Z</time>
      </trkpt>
      <trkpt lat="52.120358" lon="4.4687304">
        <ele>3300.0</ele>
        <time>2020-09-21T12:27:59Z</time>
      </trkpt>
      <trkpt lat="52.120358" lon="4.4687314">
        <ele>3300.0</ele>
        <time>2020-09-21T12:28:00Z</time>
      </trkpt>
      <trkpt lat="52.120358" lon="4.468739">
        <ele>3300.0</ele>
        <time>2020-09-21T12:28:02Z</time>
      </trkpt>
      <trkpt lat="52.120358" lon="4.46874">
        <ele>3300.0</ele>
        <time>2020-09-21T12:28:03Z</time>
      </trkpt>
      <trkpt lat="52.120358" lon="4.4687424">
        <ele>3300.0</ele>
        <time>2020-09-21T12:28:04Z</time>
      </trkpt>
      <trkpt lat="52.120358" lon="4.4687443">
        <ele>3300.0</ele>
        <time>2020-09-21T12:28:05Z</time>
      </trkpt>
      <trkpt lat="52.12035" lon="4.4687476">
        <ele>3300.0</ele>
        <time>2020-09-21T12:28:06Z</time>
      </trkpt>
      <trkpt lat="52.120346" lon="4.46875">
        <ele>3300.0</ele>
        <time>2020-09-21T12:28:07Z</time>
      </trkpt>
      <trkpt lat="52.120335" lon="4.468751">
        <ele>3300.0</ele>
        <time>2020-09-21T12:28:08Z</time>
      </trkpt>
      <trkpt lat="52.12033" lon="4.468751">
        <ele>3300.0</ele>
        <time>2020-09-21T12:28:09Z</time>
      </trkpt>
      <trkpt lat="52.120327" lon="4.4687505">
        <ele>3300.0</ele>
        <time>2020-09-21T12:28:10Z</time>
      </trkpt>
      <trkpt lat="52.12032" lon="4.468751">
        <ele>3300.0</ele>
        <time>2020-09-21T12:28:12Z</time>
      </trkpt>
      <trkpt lat="52.120327" lon="4.4687533">
        <ele>3300.0</ele>
        <time>2020-09-21T12:28:13Z</time>
      </trkpt>
      <trkpt lat="52.120327" lon="4.4687567">
        <ele>3300.0</ele>
        <time>2020-09-21T12:28:14Z</time>
      </trkpt>
      <trkpt lat="52.12033" lon="4.4687595">
        <ele>3300.0</ele>
        <time>2020-09-21T12:28:15Z</time>
      </trkpt>
      <trkpt lat="52.12033" lon="4.468761">
        <ele>3300.0</ele>
        <time>2020-09-21T12:28:16Z</time>
      </trkpt>
      <trkpt lat="52.12033" lon="4.468759">
        <ele>3300.0</ele>
        <time>2020-09-21T12:28:27Z</time>
      </trkpt>
      <trkpt lat="52.12033" lon="4.4687576">
        <ele>3300.0</ele>
        <time>2020-09-21T12:28:28Z</time>
      </trkpt>
      <trkpt lat="52.12033" lon="4.4687424">
        <ele>3300.0</ele>
        <time>2020-09-21T12:28:35Z</time>
      </trkpt>
      <trkpt lat="52.120335" lon="4.468725">
        <ele>3300.0</ele>
        <time>2020-09-21T12:28:44Z</time>
      </trkpt>
      <trkpt lat="52.120335" lon="4.468709">
        <ele>3300.0</ele>
        <time>2020-09-21T12:28:54Z</time>
      </trkpt>
      <trkpt lat="52.12033" lon="4.4687223">
        <ele>3300.0</ele>
        <time>2020-09-21T12:29:18Z</time>
      </trkpt>
      <trkpt lat="52.12033" lon="4.4687324">
        <ele>3300.0</ele>
        <time>2020-09-21T12:29:20Z</time>
      </trkpt>
      <trkpt lat="52.12033" lon="4.4687324">
        <ele>3300.0</ele>
        <time>2020-09-21T12:29:21Z</time>
      </trkpt>
      <trkpt lat="52.120335" lon="4.4687357">
        <ele>3300.0</ele>
        <time>2020-09-21T12:29:23Z</time>
      </trkpt>
      <trkpt lat="52.120342" lon="4.468742">
        <ele>3300.0</ele>
        <time>2020-09-21T12:29:33Z</time>
      </trkpt>
      <trkpt lat="52.120342" lon="4.4687424">
        <ele>3300.0</ele>
        <time>2020-09-21T12:29:34Z</time>
      </trkpt>
      <trkpt lat="52.120342" lon="4.468743">
        <ele>3300.0</ele>
        <time>2020-09-21T12:29:35Z</time>
      </trkpt>
      <trkpt lat="52.120346" lon="4.468744">
        <ele>3300.0</ele>
        <time>2020-09-21T12:29:36Z</time>
      </trkpt>
      <trkpt lat="52.120346" lon="4.4687448">
        <ele>3300.0</ele>
        <time>2020-09-21T12:29:37Z</time>
      </trkpt>
      <trkpt lat="52.12035" lon="4.468746">
        <ele>3300.0</ele>
        <time>2020-09-21T12:29:38Z</time>
      </trkpt>
      <trkpt lat="52.120358" lon="4.468757">
        <ele>3300.0</ele>
        <time>2020-09-21T12:29:43Z</time>
      </trkpt>
      <trkpt lat="52.120358" lon="4.4687624">
        <ele>3300.0</ele>
        <time>2020-09-21T12:29:45Z</time>
      </trkpt>
      <trkpt lat="52.120358" lon="4.468763">
        <ele>3300.0</ele>
        <time>2020-09-21T12:29:46Z</time>
      </trkpt>
      <trkpt lat="52.120358" lon="4.4687643">
        <ele>3300.0</ele>
        <time>2020-09-21T12:29:47Z</time>
      </trkpt>
      <trkpt lat="52.12036" lon="4.4687705">
        <ele>3300.0</ele>
        <time>2020-09-21T12:30:05Z</time>
      </trkpt>
      <trkpt lat="52.120365" lon="4.46877">
        <ele>3300.0</ele>
        <time>2020-09-21T12:30:06Z</time>
      </trkpt>
      <trkpt lat="52.120373" lon="4.468767">
        <ele>3300.0</ele>
        <time>2020-09-21T12:30:08Z</time>
      </trkpt>
      <trkpt lat="52.120373" lon="4.4687653">
        <ele>3300.0</ele>
        <time>2020-09-21T12:30:11Z</time>
      </trkpt>
      <trkpt lat="52.120377" lon="4.4687624">
        <ele>3300.0</ele>
        <time>2020-09-21T12:30:21Z</time>
      </trkpt>
      <trkpt lat="52.120373" lon="4.468757">
        <ele>3300.0</ele>
        <time>2020-09-21T12:30:30Z</time>
      </trkpt>
      <trkpt lat="52.120373" lon="4.4687486">
        <ele>3300.0</ele>
        <time>2020-09-21T12:30:35Z</time>
      </trkpt>
      <trkpt lat="52.120373" lon="4.468748">
        <ele>3300.0</ele>
        <time>2020-09-21T12:30:37Z</time>
      </trkpt>
      <trkpt lat="52.120365" lon="4.4687476">
        <ele>3300.0</ele>
        <time>2020-09-21T12:30:37Z</time>
      </trkpt>
      <trkpt lat="52.12036" lon="4.468747">
        <ele>3300.0</ele>
        <time>2020-09-21T12:30:38Z</time>
      </trkpt>
      <trkpt lat="52.12036" lon="4.468746">
        <ele>3300.0</ele>
        <time>2020-09-21T12:30:39Z</time>
      </trkpt>
      <trkpt lat="52.120358" lon="4.468745">
        <ele>3300.0</ele>
        <time>2020-09-21T12:30:40Z</time>
      </trkpt>
      <trkpt lat="52.120358" lon="4.4687443">
        <ele>3300.0</ele>
        <time>2020-09-21T12:30:41Z</time>
      </trkpt>
      <trkpt lat="52.12035" lon="4.468743">
        <ele>3300.0</ele>
        <time>2020-09-21T12:30:42Z</time>
      </trkpt>
      <trkpt lat="52.120342" lon="4.468739">
        <ele>3300.0</ele>
        <time>2020-09-21T12:30:44Z</time>
      </trkpt>
      <trkpt lat="52.120342" lon="4.468738">
        <ele>3300.0</ele>
        <time>2020-09-21T12:30:45Z</time>
      </trkpt>
      <trkpt lat="52.120342" lon="4.4687366">
        <ele>3300.0</ele>
        <time>2020-09-21T12:30:46Z</time>
      </trkpt>
      <trkpt lat="52.120342" lon="4.468735">
        <ele>3300.0</ele>
        <time>2020-09-21T12:30:48Z</time>
      </trkpt>
      <trkpt lat="52.120335" lon="4.468729">
        <ele>3300.0</ele>
        <time>2020-09-21T12:30:49Z</time>
      </trkpt>
      <trkpt lat="52.120335" lon="4.468724">
        <ele>3300.0</ele>
        <time>2020-09-21T12:30:51Z</time>
      </trkpt>
      <trkpt lat="52.120335" lon="4.468719">
        <ele>3300.0</ele>
        <time>2020-09-21T12:30:55Z</time>
      </trkpt>
      <trkpt lat="52.120342" lon="4.4687157">
        <ele>3300.0</ele>
        <time>2020-09-21T12:30:59Z</time>
      </trkpt>
      <trkpt lat="52.120342" lon="4.4687123">
        <ele>3300.0</ele>
        <time>2020-09-21T12:31:02Z</time>
      </trkpt>
      <trkpt lat="52.12035" lon="4.468709">
        <ele>3300.0</ele>
        <time>2020-09-21T12:31:22Z</time>
      </trkpt>
      <trkpt lat="52.120358" lon="4.4687123">
        <ele>3300.0</ele>
        <time>2020-09-21T12:31:27Z</time>
      </trkpt>
      <trkpt lat="52.12036" lon="4.4687223">
        <ele>3300.0</ele>
        <time>2020-09-21T12:32:17Z</time>
      </trkpt>
      <trkpt lat="52.12036" lon="4.4687247">
        <ele>3300.0</ele>
        <time>2020-09-21T12:32:19Z</time>
      </trkpt>
      <trkpt lat="52.120365" lon="4.4687285">
        <ele>3300.0</ele>
        <time>2020-09-21T12:32:19Z</time>
      </trkpt>
      <trkpt lat="52.120373" lon="4.468737">
        <ele>3300.0</ele>
        <time>2020-09-21T12:32:21Z</time>
      </trkpt>
      <trkpt lat="52.12036" lon="4.468734">
        <ele>3300.0</ele>
        <time>2020-09-21T12:32:23Z</time>
      </trkpt>
      <trkpt lat="52.12036" lon="4.4687343">
        <ele>3300.0</ele>
        <time>2020-09-21T12:32:24Z</time>
      </trkpt>
      <trkpt lat="52.12036" lon="4.468737">
        <ele>3300.0</ele>
        <time>2020-09-21T12:32:25Z</time>
      </trkpt>
      <trkpt lat="52.12036" lon="4.4687414">
        <ele>3300.0</ele>
        <time>2020-09-21T12:32:26Z</time>
      </trkpt>
      <trkpt lat="52.12036" lon="4.4687457">
        <ele>3300.0</ele>
        <time>2020-09-21T12:32:37Z</time>
      </trkpt>
      <trkpt lat="52.12036" lon="4.4687448">
        <ele>3300.0</ele>
        <time>2020-09-21T12:32:38Z</time>
      </trkpt>
      <trkpt lat="52.12036" lon="4.468737">
        <ele>3300.0</ele>
        <time>2020-09-21T12:32:40Z</time>
      </trkpt>
      <trkpt lat="52.120358" lon="4.468729">
        <ele>3300.0</ele>
        <time>2020-09-21T12:32:42Z</time>
      </trkpt>
      <trkpt lat="52.120358" lon="4.468729">
        <ele>3300.0</ele>
        <time>2020-09-21T12:32:43Z</time>
      </trkpt>
      <trkpt lat="52.12035" lon="4.468728">
        <ele>3300.0</ele>
        <time>2020-09-21T12:32:44Z</time>
      </trkpt>
      <trkpt lat="52.120346" lon="4.4687247">
        <ele>3300.0</ele>
        <time>2020-09-21T12:32:45Z</time>
      </trkpt>
      <trkpt lat="52.120342" lon="4.4687233">
        <ele>3300.0</ele>
        <time>2020-09-21T12:32:46Z</time>
      </trkpt>
      <trkpt lat="52.12033" lon="4.468725">
        <ele>3300.0</ele>
        <time>2020-09-21T12:33:02Z</time>
      </trkpt>
      <trkpt lat="52.12033" lon="4.4687257">
        <ele>3300.0</ele>
        <time>2020-09-21T12:33:03Z</time>
      </trkpt>
      <trkpt lat="52.12033" lon="4.4687304">
        <ele>3300.0</ele>
        <time>2020-09-21T12:33:24Z</time>
      </trkpt>
      <trkpt lat="52.12033" lon="4.4687204">
        <ele>3300.0</ele>
        <time>2020-09-21T12:33:33Z</time>
      </trkpt>
      <trkpt lat="52.120335" lon="4.468719">
        <ele>3300.0</ele>
        <time>2020-09-21T12:33:43Z</time>
      </trkpt>
      <trkpt lat="52.120335" lon="4.468719">
        <ele>3300.0</ele>
        <time>2020-09-21T12:33:44Z</time>
      </trkpt>
      <trkpt lat="52.120342" lon="4.4687195">
        <ele>3300.0</ele>
        <time>2020-09-21T12:33:45Z</time>
      </trkpt>
      <trkpt lat="52.120346" lon="4.4687195">
        <ele>3300.0</ele>
        <time>2020-09-21T12:33:46Z</time>
      </trkpt>
      <trkpt lat="52.12035" lon="4.46872">
        <ele>3300.0</ele>
        <time>2020-09-21T12:33:47Z</time>
      </trkpt>
      <trkpt lat="52.120358" lon="4.46872">
        <ele>3300.0</ele>
        <time>2020-09-21T12:33:48Z</time>
      </trkpt>
      <trkpt lat="52.120373" lon="4.468729">
        <ele>3300.0</ele>
        <time>2020-09-21T12:33:55Z</time>
      </trkpt>
      <trkpt lat="52.120373" lon="4.4687295">
        <ele>3300.0</ele>
        <time>2020-09-21T12:33:56Z</time>
      </trkpt>
      <trkpt lat="52.120373" lon="4.4687314">
        <ele>3300.0</ele>
        <time>2020-09-21T12:33:57Z</time>
      </trkpt>
      <trkpt lat="52.120365" lon="4.468742">
        <ele>3300.0</ele>
        <time>2020-09-21T12:34:09Z</time>
      </trkpt>
      <trkpt lat="52.12036" lon="4.468742">
        <ele>3300.0</ele>
        <time>2020-09-21T12:34:12Z</time>
      </trkpt>
      <trkpt lat="52.12036" lon="4.4687424">
        <ele>3300.0</ele>
        <time>2020-09-21T12:34:12Z</time>
      </trkpt>
      <trkpt lat="52.120358" lon="4.4687457">
        <ele>3300.0</ele>
        <time>2020-09-21T12:34:15Z</time>
      </trkpt>
      <trkpt lat="52.120346" lon="4.4687457">
        <ele>3300.0</ele>
        <time>2020-09-21T12:34:19Z</time>
      </trkpt>
      <trkpt lat="52.120342" lon="4.4687457">
        <ele>3300.0</ele>
        <time>2020-09-21T12:34:20Z</time>
      </trkpt>
      <trkpt lat="52.120342" lon="4.468746">
        <ele>3300.0</ele>
        <time>2020-09-21T12:34:21Z</time>
      </trkpt>
      <trkpt lat="52.120335" lon="4.468747">
        <ele>3300.0</ele>
        <time>2020-09-21T12:34:23Z</time>
      </trkpt>
      <trkpt lat="52.12033" lon="4.4687505">
        <ele>3300.0</ele>
        <time>2020-09-21T12:34:26Z</time>
      </trkpt>
      <trkpt lat="52.12033" lon="4.4687557">
        <ele>3300.0</ele>
        <time>2020-09-21T12:34:31Z</time>
      </trkpt>
      <trkpt lat="52.12033" lon="4.4687567">
        <ele>3300.0</ele>
        <time>2020-09-21T12:34:32Z</time>
      </trkpt>
      <trkpt lat="52.12033" lon="4.4687605">
        <ele>3300.0</ele>
        <time>2020-09-21T12:34:33Z</time>
      </trkpt>
      <trkpt lat="52.120316" lon="4.4688005">
        <ele>3300.0</ele>
        <time>2020-09-21T12:34:35Z</time>
      </trkpt>
      <trkpt lat="52.120316" lon="4.468803">
        <ele>3300.0</ele>
        <time>2020-09-21T12:34:36Z</time>
      </trkpt>
      <trkpt lat="52.120316" lon="4.468806">
        <ele>3300.0</ele>
        <time>2020-09-21T12:34:38Z</time>
      </trkpt>
      <trkpt lat="52.12032" lon="4.4688106">
        <ele>3300.0</ele>
        <time>2020-09-21T12:34:38Z</time>
      </trkpt>
      <trkpt lat="52.12032" lon="4.468815">
        <ele>3300.0</ele>
        <time>2020-09-21T12:34:39Z</time>
      </trkpt>
      <trkpt lat="52.12032" lon="4.46882">
        <ele>3300.0</ele>
        <time>2020-09-21T12:34:40Z</time>
      </trkpt>
      <trkpt lat="52.12032" lon="4.4688187">
        <ele>3300.0</ele>
        <time>2020-09-21T12:34:41Z</time>
      </trkpt>
      <trkpt lat="52.120316" lon="4.4688106">
        <ele>3300.0</ele>
        <time>2020-09-21T12:34:43Z</time>
      </trkpt>
      <trkpt lat="52.12032" lon="4.4688106">
        <ele>3300.0</ele>
        <time>2020-09-21T12:34:44Z</time>
      </trkpt>
      <trkpt lat="52.12032" lon="4.4688096">
        <ele>3300.0</ele>
        <time>2020-09-21T12:34:45Z</time>
      </trkpt>
      <trkpt lat="52.120327" lon="4.4688063">
        <ele>3300.0</ele>
        <time>2020-09-21T12:34:46Z</time>
      </trkpt>
      <trkpt lat="52.120327" lon="4.4688015">
        <ele>3300.0</ele>
        <time>2020-09-21T12:34:47Z</time>
      </trkpt>
      <trkpt lat="52.12033" lon="4.4688005">
        <ele>3300.0</ele>
        <time>2020-09-21T12:34:49Z</time>
      </trkpt>
      <trkpt lat="52.12033" lon="4.468803">
        <ele>3300.0</ele>
        <time>2020-09-21T12:34:49Z</time>
      </trkpt>
      <trkpt lat="52.120346" lon="4.468772">
        <ele>3300.0</ele>
        <time>2020-09-21T12:34:53Z</time>
      </trkpt>
      <trkpt lat="52.120346" lon="4.468771">
        <ele>3300.0</ele>
        <time>2020-09-21T12:34:54Z</time>
      </trkpt>
      <trkpt lat="52.120342" lon="4.4687715">
        <ele>3300.0</ele>
        <time>2020-09-21T12:34:55Z</time>
      </trkpt>
      <trkpt lat="52.120335" lon="4.468772">
        <ele>3300.0</ele>
        <time>2020-09-21T12:34:56Z</time>
      </trkpt>
      <trkpt lat="52.12033" lon="4.4687653">
        <ele>3300.0</ele>
        <time>2020-09-21T12:34:58Z</time>
      </trkpt>
      <trkpt lat="52.12033" lon="4.4687643">
        <ele>3300.0</ele>
        <time>2020-09-21T12:34:59Z</time>
      </trkpt>
      <trkpt lat="52.12033" lon="4.4687624">
        <ele>3300.0</ele>
        <time>2020-09-21T12:35:01Z</time>
      </trkpt>
      <trkpt lat="52.120327" lon="4.4687557">
        <ele>3300.0</ele>
        <time>2020-09-21T12:35:03Z</time>
      </trkpt>
      <trkpt lat="52.120327" lon="4.468755">
        <ele>3300.0</ele>
        <time>2020-09-21T12:35:04Z</time>
      </trkpt>
      <trkpt lat="52.120327" lon="4.468753">
        <ele>3300.0</ele>
        <time>2020-09-21T12:35:05Z</time>
      </trkpt>
      <trkpt lat="52.12033" lon="4.4687514">
        <ele>3300.0</ele>
        <time>2020-09-21T12:35:06Z</time>
      </trkpt>
      <trkpt lat="52.12033" lon="4.4687533">
        <ele>3300.0</ele>
        <time>2020-09-21T12:35:07Z</time>
      </trkpt>
      <trkpt lat="52.12033" lon="4.468754">
        <ele>3300.0</ele>
        <time>2020-09-21T12:35:08Z</time>
      </trkpt>
      <trkpt lat="52.120335" lon="4.468755">
        <ele>3300.0</ele>
        <time>2020-09-21T12:35:10Z</time>
      </trkpt>
      <trkpt lat="52.120342" lon="4.468754">
        <ele>3300.0</ele>
        <time>2020-09-21T12:35:10Z</time>
      </trkpt>
      <trkpt lat="52.120342" lon="4.468727">
        <ele>3300.0</ele>
        <time>2020-09-21T12:35:32Z</time>
      </trkpt>
      <trkpt lat="52.120342" lon="4.4687185">
        <ele>3300.0</ele>
        <time>2020-09-21T12:35:34Z</time>
      </trkpt>
      <trkpt lat="52.12033" lon="4.468725">
        <ele>3300.0</ele>
        <time>2020-09-21T12:35:51Z</time>
      </trkpt>
      <trkpt lat="52.12033" lon="4.4687295">
        <ele>3300.0</ele>
        <time>2020-09-21T12:35:52Z</time>
      </trkpt>
      <trkpt lat="52.12033" lon="4.4687605">
        <ele>3300.0</ele>
        <time>2020-09-21T12:35:56Z</time>
      </trkpt>
      <trkpt lat="52.12033" lon="4.4687614">
        <ele>3300.0</ele>
        <time>2020-09-21T12:35:58Z</time>
      </trkpt>
      <trkpt lat="52.12033" lon="4.4687634">
        <ele>3300.0</ele>
        <time>2020-09-21T12:35:58Z</time>
      </trkpt>
      <trkpt lat="52.120327" lon="4.468765">
        <ele>3300.0</ele>
        <time>2020-09-21T12:35:59Z</time>
      </trkpt>
      <trkpt lat="52.12032" lon="4.468766">
        <ele>3300.0</ele>
        <time>2020-09-21T12:36:00Z</time>
      </trkpt>
      <trkpt lat="52.12032" lon="4.468768">
        <ele>3300.0</ele>
        <time>2020-09-21T12:36:01Z</time>
      </trkpt>
      <trkpt lat="52.120316" lon="4.4687705">
        <ele>3300.0</ele>
        <time>2020-09-21T12:36:02Z</time>
      </trkpt>
      <trkpt lat="52.120308" lon="4.468744">
        <ele>3300.0</ele>
        <time>2020-09-21T12:36:07Z</time>
      </trkpt>
      <trkpt lat="52.120308" lon="4.4687448">
        <ele>3300.0</ele>
        <time>2020-09-21T12:36:07Z</time>
      </trkpt>
      <trkpt lat="52.12032" lon="4.4687304">
        <ele>3300.0</ele>
        <time>2020-09-21T12:36:11Z</time>
      </trkpt>
      <trkpt lat="52.12032" lon="4.4687285">
        <ele>3300.0</ele>
        <time>2020-09-21T12:36:12Z</time>
      </trkpt>
      <trkpt lat="52.120316" lon="4.4687037">
        <ele>3300.0</ele>
        <time>2020-09-21T12:36:22Z</time>
      </trkpt>
      <trkpt lat="52.120316" lon="4.468705">
        <ele>3300.0</ele>
        <time>2020-09-21T12:36:23Z</time>
      </trkpt>
      <trkpt lat="52.120327" lon="4.468745">
        <ele>3300.0</ele>
        <time>2020-09-21T12:36:26Z</time>
      </trkpt>
      <trkpt lat="52.12032" lon="4.468744">
        <ele>3300.0</ele>
        <time>2020-09-21T12:36:27Z</time>
      </trkpt>
      <trkpt lat="52.120277" lon="4.4687586">
        <ele>3300.0</ele>
        <time>2020-09-21T12:36:34Z</time>
      </trkpt>
      <trkpt lat="52.120274" lon="4.468759">
        <ele>3300.0</ele>
        <time>2020-09-21T12:36:35Z</time>
      </trkpt>
      <trkpt lat="52.120262" lon="4.4687624">
        <ele>3300.0</ele>
        <time>2020-09-21T12:36:37Z</time>
      </trkpt>
      <trkpt lat="52.120262" lon="4.468763">
        <ele>3300.0</ele>
        <time>2020-09-21T12:36:38Z</time>
      </trkpt>
      <trkpt lat="52.120262" lon="4.4687643">
        <ele>3300.0</ele>
        <time>2020-09-21T12:36:39Z</time>
      </trkpt>
      <trkpt lat="52.12027" lon="4.4687657">
        <ele>3300.0</ele>
        <time>2020-09-21T12:36:40Z</time>
      </trkpt>
      <trkpt lat="52.12027" lon="4.468766">
        <ele>3300.0</ele>
        <time>2020-09-21T12:36:41Z</time>
      </trkpt>
      <trkpt lat="52.120274" lon="4.468765">
        <ele>3300.0</ele>
        <time>2020-09-21T12:36:42Z</time>
      </trkpt>
      <trkpt lat="52.120274" lon="4.46876">
        <ele>3300.0</ele>
        <time>2020-09-21T12:36:43Z</time>
      </trkpt>
      <trkpt lat="52.120274" lon="4.4687533">
        <ele>3300.0</ele>
        <time>2020-09-21T12:36:44Z</time>
      </trkpt>
      <trkpt lat="52.120274" lon="4.468746">
        <ele>3300.0</ele>
        <time>2020-09-21T12:36:45Z</time>
      </trkpt>
      <trkpt lat="52.120274" lon="4.468705">
        <ele>3300.0</ele>
        <time>2020-09-21T12:36:51Z</time>
      </trkpt>
      <trkpt lat="52.12027" lon="4.468706">
        <ele>3300.0</ele>
        <time>2020-09-21T12:36:51Z</time>
      </trkpt>
      <trkpt lat="52.120274" lon="4.468699">
        <ele>3300.0</ele>
        <time>2020-09-21T12:36:54Z</time>
      </trkpt>
      <trkpt lat="52.120274" lon="4.4686975">
        <ele>3300.0</ele>
        <time>2020-09-21T12:36:55Z</time>
      </trkpt>
      <trkpt lat="52.120327" lon="4.468717">
        <ele>3300.0</ele>
        <time>2020-09-21T12:37:04Z</time>
      </trkpt>
      <trkpt lat="52.12033" lon="4.4687185">
        <ele>3300.0</ele>
        <time>2020-09-21T12:37:05Z</time>
      </trkpt>
      <trkpt lat="52.120335" lon="4.468719">
        <ele>3300.0</ele>
        <time>2020-09-21T12:37:06Z</time>
      </trkpt>
      <trkpt lat="52.12036" lon="4.4687324">
        <ele>3300.0</ele>
        <time>2020-09-21T12:37:12Z</time>
      </trkpt>
      <trkpt lat="52.12036" lon="4.468727">
        <ele>3300.0</ele>
        <time>2020-09-21T12:37:14Z</time>
      </trkpt>
      <trkpt lat="52.12036" lon="4.4687257">
        <ele>3300.0</ele>
        <time>2020-09-21T12:37:15Z</time>
      </trkpt>
      <trkpt lat="52.120358" lon="4.468723">
        <ele>3300.0</ele>
        <time>2020-09-21T12:37:16Z</time>
      </trkpt>
      <trkpt lat="52.12035" lon="4.468717">
        <ele>3300.0</ele>
        <time>2020-09-21T12:37:21Z</time>
      </trkpt>
      <trkpt lat="52.120377" lon="4.468735">
        <ele>3300.0</ele>
        <time>2020-09-21T12:37:46Z</time>
      </trkpt>
      <trkpt lat="52.120377" lon="4.468736">
        <ele>3300.0</ele>
        <time>2020-09-21T12:37:47Z</time>
      </trkpt>
      <trkpt lat="52.12035" lon="4.4687934">
        <ele>3300.0</ele>
        <time>2020-09-21T12:37:50Z</time>
      </trkpt>
      <trkpt lat="52.12035" lon="4.4687905">
        <ele>3300.0</ele>
        <time>2020-09-21T12:37:51Z</time>
      </trkpt>
      <trkpt lat="52.120358" lon="4.4687924">
        <ele>3300.0</ele>
        <time>2020-09-21T12:37:52Z</time>
      </trkpt>
      <trkpt lat="52.12036" lon="4.4688005">
        <ele>3300.0</ele>
        <time>2020-09-21T12:37:53Z</time>
      </trkpt>
      <trkpt lat="52.12036" lon="4.468807">
        <ele>3300.0</ele>
        <time>2020-09-21T12:37:54Z</time>
      </trkpt>
      <trkpt lat="52.12036" lon="4.468813">
        <ele>3300.0</ele>
        <time>2020-09-21T12:37:55Z</time>
      </trkpt>
      <trkpt lat="52.12036" lon="4.4688163">
        <ele>3300.0</ele>
        <time>2020-09-21T12:37:56Z</time>
      </trkpt>
      <trkpt lat="52.12036" lon="4.468816">
        <ele>3300.0</ele>
        <time>2020-09-21T12:37:57Z</time>
      </trkpt>
      <trkpt lat="52.12036" lon="4.468814">
        <ele>3300.0</ele>
        <time>2020-09-21T12:37:58Z</time>
      </trkpt>
      <trkpt lat="52.12036" lon="4.4688125">
        <ele>3300.0</ele>
        <time>2020-09-21T12:37:59Z</time>
      </trkpt>
      <trkpt lat="52.12036" lon="4.468812">
        <ele>3300.0</ele>
        <time>2020-09-21T12:38:00Z</time>
      </trkpt>
      <trkpt lat="52.12036" lon="4.4688153">
        <ele>3300.0</ele>
        <time>2020-09-21T12:38:01Z</time>
      </trkpt>
      <trkpt lat="52.12036" lon="4.4688177">
        <ele>3300.0</ele>
        <time>2020-09-21T12:38:02Z</time>
      </trkpt>
      <trkpt lat="52.120365" lon="4.468816">
        <ele>3300.0</ele>
        <time>2020-09-21T12:38:03Z</time>
      </trkpt>
      <trkpt lat="52.120373" lon="4.46881">
        <ele>3300.0</ele>
        <time>2020-09-21T12:38:05Z</time>
      </trkpt>
      <trkpt lat="52.120373" lon="4.468797">
        <ele>3300.0</ele>
        <time>2020-09-21T12:38:05Z</time>
      </trkpt>
      <trkpt lat="52.120365" lon="4.4687824">
        <ele>3300.0</ele>
        <time>2020-09-21T12:38:06Z</time>
      </trkpt>
      <trkpt lat="52.12036" lon="4.4687486">
        <ele>3300.0</ele>
        <time>2020-09-21T12:38:23Z</time>
      </trkpt>
      <trkpt lat="52.12036" lon="4.4687486">
        <ele>3300.0</ele>
        <time>2020-09-21T12:38:24Z</time>
      </trkpt>
      <trkpt lat="52.120358" lon="4.468748">
        <ele>3300.0</ele>
        <time>2020-09-21T12:38:25Z</time>
      </trkpt>
      <trkpt lat="52.120358" lon="4.4687476">
        <ele>3300.0</ele>
        <time>2020-09-21T12:38:26Z</time>
      </trkpt>
      <trkpt lat="52.120346" lon="4.4687476">
        <ele>3300.0</ele>
        <time>2020-09-21T12:38:27Z</time>
      </trkpt>
      <trkpt lat="52.120342" lon="4.4687467">
        <ele>3300.0</ele>
        <time>2020-09-21T12:38:28Z</time>
      </trkpt>
      <trkpt lat="52.120335" lon="4.4687457">
        <ele>3300.0</ele>
        <time>2020-09-21T12:38:29Z</time>
      </trkpt>
      <trkpt lat="52.120327" lon="4.468735">
        <ele>3300.0</ele>
        <time>2020-09-21T12:38:33Z</time>
      </trkpt>
      <trkpt lat="52.120327" lon="4.4687285">
        <ele>3300.0</ele>
        <time>2020-09-21T12:38:35Z</time>
      </trkpt>
      <trkpt lat="52.120327" lon="4.4687204">
        <ele>3300.0</ele>
        <time>2020-09-21T12:38:37Z</time>
      </trkpt>
      <trkpt lat="52.120327" lon="4.468719">
        <ele>3300.0</ele>
        <time>2020-09-21T12:38:38Z</time>
      </trkpt>
      <trkpt lat="52.12033" lon="4.4687138">
        <ele>3300.0</ele>
        <time>2020-09-21T12:38:43Z</time>
      </trkpt>
      <trkpt lat="52.120335" lon="4.4687138">
        <ele>3300.0</ele>
        <time>2020-09-21T12:38:44Z</time>
      </trkpt>
      <trkpt lat="52.120335" lon="4.468715">
        <ele>3300.0</ele>
        <time>2020-09-21T12:38:46Z</time>
      </trkpt>
      <trkpt lat="52.120342" lon="4.468717">
        <ele>3300.0</ele>
        <time>2020-09-21T12:38:46Z</time>
      </trkpt>
      <trkpt lat="52.12036" lon="4.4687023">
        <ele>3300.0</ele>
        <time>2020-09-21T12:38:48Z</time>
      </trkpt>
      <trkpt lat="52.12036" lon="4.468701">
        <ele>3300.0</ele>
        <time>2020-09-21T12:38:49Z</time>
      </trkpt>
      <trkpt lat="52.120358" lon="4.468734">
        <ele>3300.0</ele>
        <time>2020-09-21T12:38:59Z</time>
      </trkpt>
      <trkpt lat="52.120358" lon="4.4687343">
        <ele>3300.0</ele>
        <time>2020-09-21T12:39:00Z</time>
      </trkpt>
      <trkpt lat="52.12035" lon="4.4687343">
        <ele>3300.0</ele>
        <time>2020-09-21T12:39:01Z</time>
      </trkpt>
      <trkpt lat="52.12035" lon="4.4687324">
        <ele>3300.0</ele>
        <time>2020-09-21T12:39:02Z</time>
      </trkpt>
      <trkpt lat="52.12035" lon="4.4687304">
        <ele>3300.0</ele>
        <time>2020-09-21T12:39:03Z</time>
      </trkpt>
      <trkpt lat="52.12039" lon="4.4686804">
        <ele>3300.0</ele>
        <time>2020-09-21T12:39:06Z</time>
      </trkpt>
      <trkpt lat="52.12039" lon="4.468676">
        <ele>3300.0</ele>
        <time>2020-09-21T12:39:07Z</time>
      </trkpt>
      <trkpt lat="52.12039" lon="4.468668">
        <ele>3300.0</ele>
        <time>2020-09-21T12:39:08Z</time>
      </trkpt>
      <trkpt lat="52.120388" lon="4.4686503">
        <ele>3300.0</ele>
        <time>2020-09-21T12:39:10Z</time>
      </trkpt>
      <trkpt lat="52.120388" lon="4.468612">
        <ele>3300.0</ele>
        <time>2020-09-21T12:39:17Z</time>
      </trkpt>
      <trkpt lat="52.120388" lon="4.4686093">
        <ele>3300.0</ele>
        <time>2020-09-21T12:39:18Z</time>
      </trkpt>
      <trkpt lat="52.120388" lon="4.4686155">
        <ele>3300.0</ele>
        <time>2020-09-21T12:39:19Z</time>
      </trkpt>
      <trkpt lat="52.12039" lon="4.4686213">
        <ele>3300.0</ele>
        <time>2020-09-21T12:39:20Z</time>
      </trkpt>
      <trkpt lat="52.12039" lon="4.468625">
        <ele>3300.0</ele>
        <time>2020-09-21T12:39:21Z</time>
      </trkpt>
      <trkpt lat="52.120396" lon="4.468628">
        <ele>3300.0</ele>
        <time>2020-09-21T12:39:22Z</time>
      </trkpt>
      <trkpt lat="52.12039" lon="4.468639">
        <ele>3300.0</ele>
        <time>2020-09-21T12:39:30Z</time>
      </trkpt>
      <trkpt lat="52.12039" lon="4.468639">
        <ele>3300.0</ele>
        <time>2020-09-21T12:39:31Z</time>
      </trkpt>
      <trkpt lat="52.120388" lon="4.4686394">
        <ele>3300.0</ele>
        <time>2020-09-21T12:39:32Z</time>
      </trkpt>
      <trkpt lat="52.120388" lon="4.468641">
        <ele>3300.0</ele>
        <time>2020-09-21T12:39:33Z</time>
      </trkpt>
      <trkpt lat="52.120365" lon="4.4686537">
        <ele>3300.0</ele>
        <time>2020-09-21T12:39:36Z</time>
      </trkpt>
      <trkpt lat="52.12036" lon="4.4686594">
        <ele>3300.0</ele>
        <time>2020-09-21T12:39:38Z</time>
      </trkpt>
      <trkpt lat="52.120358" lon="4.468669">
        <ele>3300.0</ele>
        <time>2020-09-21T12:39:38Z</time>
      </trkpt>
      <trkpt lat="52.12035" lon="4.4686723">
        <ele>3300.0</ele>
        <time>2020-09-21T12:39:39Z</time>
      </trkpt>
      <trkpt lat="52.12036" lon="4.4687304">
        <ele>3300.0</ele>
        <time>2020-09-21T12:39:46Z</time>
      </trkpt>
      <trkpt lat="52.120388" lon="4.4687557">
        <ele>3300.0</ele>
        <time>2020-09-21T12:39:48Z</time>
      </trkpt>
      <trkpt lat="52.12038" lon="4.468754">
        <ele>3300.0</ele>
        <time>2020-09-21T12:39:49Z</time>
      </trkpt>
      <trkpt lat="52.12038" lon="4.468751">
        <ele>3300.0</ele>
        <time>2020-09-21T12:39:50Z</time>
      </trkpt>
      <trkpt lat="52.12038" lon="4.468748">
        <ele>3300.0</ele>
        <time>2020-09-21T12:39:52Z</time>
      </trkpt>
      <trkpt lat="52.120377" lon="4.4687443">
        <ele>3300.0</ele>
        <time>2020-09-21T12:39:52Z</time>
      </trkpt>
      <trkpt lat="52.120377" lon="4.4687395">
        <ele>3300.0</ele>
        <time>2020-09-21T12:39:53Z</time>
      </trkpt>
      <trkpt lat="52.120377" lon="4.4687347">
        <ele>3300.0</ele>
        <time>2020-09-21T12:39:54Z</time>
      </trkpt>
      <trkpt lat="52.12041" lon="4.468727">
        <ele>3300.0</ele>
        <time>2020-09-21T12:39:56Z</time>
      </trkpt>
      <trkpt lat="52.12042" lon="4.4687304">
        <ele>3300.0</ele>
        <time>2020-09-21T12:39:57Z</time>
      </trkpt>
      <trkpt lat="52.12042" lon="4.468741">
        <ele>3300.0</ele>
        <time>2020-09-21T12:39:58Z</time>
      </trkpt>
      <trkpt lat="52.12041" lon="4.4687533">
        <ele>3300.0</ele>
        <time>2020-09-21T12:39:59Z</time>
      </trkpt>
      <trkpt lat="52.12041" lon="4.468762">
        <ele>3300.0</ele>
        <time>2020-09-21T12:40:01Z</time>
      </trkpt>
      <trkpt lat="52.12041" lon="4.4687667">
        <ele>3300.0</ele>
        <time>2020-09-21T12:40:01Z</time>
      </trkpt>
      <trkpt lat="52.12041" lon="4.468767">
        <ele>3300.0</ele>
        <time>2020-09-21T12:40:02Z</time>
      </trkpt>
      <trkpt lat="52.12041" lon="4.468766">
        <ele>3300.0</ele>
        <time>2020-09-21T12:40:03Z</time>
      </trkpt>
      <trkpt lat="52.120407" lon="4.468765">
        <ele>3300.0</ele>
        <time>2020-09-21T12:40:04Z</time>
      </trkpt>
      <trkpt lat="52.120407" lon="4.4687634">
        <ele>3300.0</ele>
        <time>2020-09-21T12:40:05Z</time>
      </trkpt>
      <trkpt lat="52.120407" lon="4.4687557">
        <ele>3300.0</ele>
        <time>2020-09-21T12:40:07Z</time>
      </trkpt>
      <trkpt lat="52.120407" lon="4.468755">
        <ele>3300.0</ele>
        <time>2020-09-21T12:40:08Z</time>
      </trkpt>
      <trkpt lat="52.12041" lon="4.4687543">
        <ele>3300.0</ele>
        <time>2020-09-21T12:40:09Z</time>
      </trkpt>
      <trkpt lat="52.12041" lon="4.468755">
        <ele>3300.0</ele>
        <time>2020-09-21T12:40:11Z</time>
      </trkpt>
      <trkpt lat="52.120422" lon="4.468754">
        <ele>3300.0</ele>
        <time>2020-09-21T12:40:15Z</time>
      </trkpt>
      <trkpt lat="52.120422" lon="4.468747">
        <ele>3300.0</ele>
        <time>2020-09-21T12:40:16Z</time>
      </trkpt>
      <trkpt lat="52.120426" lon="4.468727">
        <ele>3300.0</ele>
        <time>2020-09-21T12:40:17Z</time>
      </trkpt>
      <trkpt lat="52.120426" lon="4.468708">
        <ele>3300.0</ele>
        <time>2020-09-21T12:40:18Z</time>
      </trkpt>
      <trkpt lat="52.120434" lon="4.4686823">
        <ele>3300.0</ele>
        <time>2020-09-21T12:40:20Z</time>
      </trkpt>
      <trkpt lat="52.120434" lon="4.468679">
        <ele>3300.0</ele>
        <time>2020-09-21T12:40:21Z</time>
      </trkpt>
      <trkpt lat="52.120434" lon="4.4686756">
        <ele>3300.0</ele>
        <time>2020-09-21T12:40:23Z</time>
      </trkpt>
      <trkpt lat="52.120426" lon="4.4686704">
        <ele>3300.0</ele>
        <time>2020-09-21T12:40:23Z</time>
      </trkpt>
      <trkpt lat="52.120426" lon="4.468664">
        <ele>3300.0</ele>
        <time>2020-09-21T12:40:24Z</time>
      </trkpt>
      <trkpt lat="52.120422" lon="4.46866">
        <ele>3300.0</ele>
        <time>2020-09-21T12:40:25Z</time>
      </trkpt>
      <trkpt lat="52.12041" lon="4.4686556">
        <ele>3300.0</ele>
        <time>2020-09-21T12:40:26Z</time>
      </trkpt>
      <trkpt lat="52.120407" lon="4.468653">
        <ele>3300.0</ele>
        <time>2020-09-21T12:40:27Z</time>
      </trkpt>
      <trkpt lat="52.120396" lon="4.468643">
        <ele>3300.0</ele>
        <time>2020-09-21T12:40:28Z</time>
      </trkpt>
      <trkpt lat="52.120388" lon="4.468621">
        <ele>3300.0</ele>
        <time>2020-09-21T12:40:29Z</time>
      </trkpt>
      <trkpt lat="52.120403" lon="4.468524">
        <ele>3300.0</ele>
        <time>2020-09-21T12:40:31Z</time>
      </trkpt>
      <trkpt lat="52.120426" lon="4.468552">
        <ele>3300.0</ele>
        <time>2020-09-21T12:40:33Z</time>
      </trkpt>
      <trkpt lat="52.120426" lon="4.4685564">
        <ele>3300.0</ele>
        <time>2020-09-21T12:40:35Z</time>
      </trkpt>
      <trkpt lat="52.120434" lon="4.468565">
        <ele>3300.0</ele>
        <time>2020-09-21T12:40:35Z</time>
      </trkpt>
      <trkpt lat="52.120438" lon="4.4685745">
        <ele>3300.0</ele>
        <time>2020-09-21T12:40:36Z</time>
      </trkpt>
      <trkpt lat="52.12044" lon="4.4685845">
        <ele>3300.0</ele>
        <time>2020-09-21T12:40:37Z</time>
      </trkpt>
      <trkpt lat="52.12044" lon="4.4685936">
        <ele>3300.0</ele>
        <time>2020-09-21T12:40:38Z</time>
      </trkpt>
      <trkpt lat="52.12044" lon="4.468601">
        <ele>3300.0</ele>
        <time>2020-09-21T12:40:39Z</time>
      </trkpt>
      <trkpt lat="52.120403" lon="4.4686356">
        <ele>3300.0</ele>
        <time>2020-09-21T12:40:42Z</time>
      </trkpt>
      <trkpt lat="52.120396" lon="4.4686384">
        <ele>3300.0</ele>
        <time>2020-09-21T12:40:43Z</time>
      </trkpt>
      <trkpt lat="52.12039" lon="4.468647">
        <ele>3300.0</ele>
        <time>2020-09-21T12:40:44Z</time>
      </trkpt>
      <trkpt lat="52.120358" lon="4.4686804">
        <ele>3300.0</ele>
        <time>2020-09-21T12:40:47Z</time>
      </trkpt>
      <trkpt lat="52.120388" lon="4.4686823">
        <ele>3300.0</ele>
        <time>2020-09-21T12:40:48Z</time>
      </trkpt>
      <trkpt lat="52.12039" lon="4.4686823">
        <ele>3300.0</ele>
        <time>2020-09-21T12:40:49Z</time>
      </trkpt>
      <trkpt lat="52.120403" lon="4.4686837">
        <ele>3300.0</ele>
        <time>2020-09-21T12:40:50Z</time>
      </trkpt>
      <trkpt lat="52.12041" lon="4.468681">
        <ele>3300.0</ele>
        <time>2020-09-21T12:40:51Z</time>
      </trkpt>
      <trkpt lat="52.12045" lon="4.4686623">
        <ele>3300.0</ele>
        <time>2020-09-21T12:40:53Z</time>
      </trkpt>
      <trkpt lat="52.12045" lon="4.4686594">
        <ele>3300.0</ele>
        <time>2020-09-21T12:40:54Z</time>
      </trkpt>
      <trkpt lat="52.12044" lon="4.4686546">
        <ele>3300.0</ele>
        <time>2020-09-21T12:40:55Z</time>
      </trkpt>
      <trkpt lat="52.12044" lon="4.4686475">
        <ele>3300.0</ele>
        <time>2020-09-21T12:40:56Z</time>
      </trkpt>
      <trkpt lat="52.12044" lon="4.468642">
        <ele>3300.0</ele>
        <time>2020-09-21T12:40:57Z</time>
      </trkpt>
      <trkpt lat="52.12044" lon="4.4686394">
        <ele>3300.0</ele>
        <time>2020-09-21T12:40:59Z</time>
      </trkpt>
      <trkpt lat="52.120438" lon="4.468639">
        <ele>3300.0</ele>
        <time>2020-09-21T12:40:59Z</time>
      </trkpt>
      <trkpt lat="52.120438" lon="4.468642">
        <ele>3300.0</ele>
        <time>2020-09-21T12:41:00Z</time>
      </trkpt>
      <trkpt lat="52.12044" lon="4.468647">
        <ele>3300.0</ele>
        <time>2020-09-21T12:41:01Z</time>
      </trkpt>
      <trkpt lat="52.12045" lon="4.4686475">
        <ele>3300.0</ele>
        <time>2020-09-21T12:41:02Z</time>
      </trkpt>
      <trkpt lat="52.12045" lon="4.468646">
        <ele>3300.0</ele>
        <time>2020-09-21T12:41:03Z</time>
      </trkpt>
      <trkpt lat="52.12045" lon="4.4686437">
        <ele>3300.0</ele>
        <time>2020-09-21T12:41:04Z</time>
      </trkpt>
      <trkpt lat="52.12044" lon="4.468643">
        <ele>3300.0</ele>
        <time>2020-09-21T12:41:06Z</time>
      </trkpt>
      <trkpt lat="52.12044" lon="4.468645">
        <ele>3300.0</ele>
        <time>2020-09-21T12:41:06Z</time>
      </trkpt>
      <trkpt lat="52.120438" lon="4.4686503">
        <ele>3300.0</ele>
        <time>2020-09-21T12:41:12Z</time>
      </trkpt>
      <trkpt lat="52.12044" lon="4.4687138">
        <ele>3300.0</ele>
        <time>2020-09-21T12:41:18Z</time>
      </trkpt>
      <trkpt lat="52.12045" lon="4.4687166">
        <ele>3300.0</ele>
        <time>2020-09-21T12:41:19Z</time>
      </trkpt>
      <trkpt lat="52.120438" lon="4.4687324">
        <ele>3300.0</ele>
        <time>2020-09-21T12:41:22Z</time>
      </trkpt>
      <trkpt lat="52.120434" lon="4.468733">
        <ele>3300.0</ele>
        <time>2020-09-21T12:41:22Z</time>
      </trkpt>
      <trkpt lat="52.120426" lon="4.4687333">
        <ele>3300.0</ele>
        <time>2020-09-21T12:41:23Z</time>
      </trkpt>
      <trkpt lat="52.120422" lon="4.4687333">
        <ele>3300.0</ele>
        <time>2020-09-21T12:41:24Z</time>
      </trkpt>
      <trkpt lat="52.120434" lon="4.4687285">
        <ele>3300.0</ele>
        <time>2020-09-21T12:41:29Z</time>
      </trkpt>
      <trkpt lat="52.12042" lon="4.468777">
        <ele>3300.0</ele>
        <time>2020-09-21T12:41:34Z</time>
      </trkpt>
      <trkpt lat="52.120422" lon="4.468774">
        <ele>3300.0</ele>
        <time>2020-09-21T12:41:37Z</time>
      </trkpt>
      <trkpt lat="52.120434" lon="4.4687624">
        <ele>3300.0</ele>
        <time>2020-09-21T12:41:39Z</time>
      </trkpt>
      <trkpt lat="52.120434" lon="4.4687304">
        <ele>3300.0</ele>
        <time>2020-09-21T12:41:43Z</time>
      </trkpt>
      <trkpt lat="52.120438" lon="4.4687295">
        <ele>3300.0</ele>
        <time>2020-09-21T12:41:44Z</time>
      </trkpt>
      <trkpt lat="52.12044" lon="4.4687285">
        <ele>3300.0</ele>
        <time>2020-09-21T12:41:45Z</time>
      </trkpt>
      <trkpt lat="52.12044" lon="4.4687314">
        <ele>3300.0</ele>
        <time>2020-09-21T12:41:46Z</time>
      </trkpt>
      <trkpt lat="52.12044" lon="4.4687343">
        <ele>3300.0</ele>
        <time>2020-09-21T12:41:47Z</time>
      </trkpt>
      <trkpt lat="52.12044" lon="4.468736">
        <ele>3300.0</ele>
        <time>2020-09-21T12:41:48Z</time>
      </trkpt>
      <trkpt lat="52.120407" lon="4.468747">
        <ele>3300.0</ele>
        <time>2020-09-21T12:41:59Z</time>
      </trkpt>
      <trkpt lat="52.120407" lon="4.4687457">
        <ele>3300.0</ele>
        <time>2020-09-21T12:42:00Z</time>
      </trkpt>
      <trkpt lat="52.120403" lon="4.4687395">
        <ele>3300.0</ele>
        <time>2020-09-21T12:42:01Z</time>
      </trkpt>
      <trkpt lat="52.120407" lon="4.4687304">
        <ele>3300.0</ele>
        <time>2020-09-21T12:42:02Z</time>
      </trkpt>
      <trkpt lat="52.120403" lon="4.4686503">
        <ele>3300.0</ele>
        <time>2020-09-21T12:42:09Z</time>
      </trkpt>
      <trkpt lat="52.120396" lon="4.468655">
        <ele>3300.0</ele>
        <time>2020-09-21T12:42:10Z</time>
      </trkpt>
      <trkpt lat="52.12039" lon="4.468667">
        <ele>3300.0</ele>
        <time>2020-09-21T12:42:11Z</time>
      </trkpt>
      <trkpt lat="52.12038" lon="4.468682">
        <ele>3300.0</ele>
        <time>2020-09-21T12:42:12Z</time>
      </trkpt>
      <trkpt lat="52.120365" lon="4.4687204">
        <ele>3300.0</ele>
        <time>2020-09-21T12:42:15Z</time>
      </trkpt>
      <trkpt lat="52.120365" lon="4.4687214">
        <ele>3300.0</ele>
        <time>2020-09-21T12:42:16Z</time>
      </trkpt>
      <trkpt lat="52.120365" lon="4.4687223">
        <ele>3300.0</ele>
        <time>2020-09-21T12:42:17Z</time>
      </trkpt>
      <trkpt lat="52.12045" lon="4.468554">
        <ele>3300.0</ele>
        <time>2020-09-21T12:42:36Z</time>
      </trkpt>
      <trkpt lat="52.120434" lon="4.4685802">
        <ele>3300.0</ele>
        <time>2020-09-21T12:42:38Z</time>
      </trkpt>
      <trkpt lat="52.120434" lon="4.4685864">
        <ele>3300.0</ele>
        <time>2020-09-21T12:42:40Z</time>
      </trkpt>
      <trkpt lat="52.120438" lon="4.4686003">
        <ele>3300.0</ele>
        <time>2020-09-21T12:42:42Z</time>
      </trkpt>
      <trkpt lat="52.120438" lon="4.4686003">
        <ele>3300.0</ele>
        <time>2020-09-21T12:42:43Z</time>
      </trkpt>
      <trkpt lat="52.120434" lon="4.4686356">
        <ele>3300.0</ele>
        <time>2020-09-21T12:42:45Z</time>
      </trkpt>
      <trkpt lat="52.120434" lon="4.468638">
        <ele>3300.0</ele>
        <time>2020-09-21T12:42:46Z</time>
      </trkpt>
      <trkpt lat="52.120426" lon="4.468643">
        <ele>3300.0</ele>
        <time>2020-09-21T12:42:47Z</time>
      </trkpt>
      <trkpt lat="52.120422" lon="4.4686465">
        <ele>3300.0</ele>
        <time>2020-09-21T12:42:48Z</time>
      </trkpt>
      <trkpt lat="52.120407" lon="4.4686522">
        <ele>3300.0</ele>
        <time>2020-09-21T12:42:51Z</time>
      </trkpt>
      <trkpt lat="52.120407" lon="4.4686513">
        <ele>3300.0</ele>
        <time>2020-09-21T12:42:52Z</time>
      </trkpt>
      <trkpt lat="52.12042" lon="4.4686484">
        <ele>3300.0</ele>
        <time>2020-09-21T12:43:00Z</time>
      </trkpt>
      <trkpt lat="52.12042" lon="4.4686484">
        <ele>3300.0</ele>
        <time>2020-09-21T12:43:11Z</time>
      </trkpt>
      <trkpt lat="52.12041" lon="4.4686484">
        <ele>3300.0</ele>
        <time>2020-09-21T12:43:12Z</time>
      </trkpt>
      <trkpt lat="52.120407" lon="4.468647">
        <ele>3300.0</ele>
        <time>2020-09-21T12:43:13Z</time>
      </trkpt>
      <trkpt lat="52.120403" lon="4.4686437">
        <ele>3300.0</ele>
        <time>2020-09-21T12:43:14Z</time>
      </trkpt>
      <trkpt lat="52.12039" lon="4.4686418">
        <ele>3300.0</ele>
        <time>2020-09-21T12:43:15Z</time>
      </trkpt>
      <trkpt lat="52.120388" lon="4.4686427">
        <ele>3300.0</ele>
        <time>2020-09-21T12:43:16Z</time>
      </trkpt>
      <trkpt lat="52.12038" lon="4.4686446">
        <ele>3300.0</ele>
        <time>2020-09-21T12:43:17Z</time>
      </trkpt>
      <trkpt lat="52.120373" lon="4.4686484">
        <ele>3300.0</ele>
        <time>2020-09-21T12:43:18Z</time>
      </trkpt>
      <trkpt lat="52.12036" lon="4.468653">
        <ele>3300.0</ele>
        <time>2020-09-21T12:43:19Z</time>
      </trkpt>
      <trkpt lat="52.120358" lon="4.4686575">
        <ele>3300.0</ele>
        <time>2020-09-21T12:43:20Z</time>
      </trkpt>
      <trkpt lat="52.120346" lon="4.468665">
        <ele>3300.0</ele>
        <time>2020-09-21T12:43:22Z</time>
      </trkpt>
      <trkpt lat="52.120346" lon="4.468664">
        <ele>3300.0</ele>
        <time>2020-09-21T12:43:23Z</time>
      </trkpt>
      <trkpt lat="52.12035" lon="4.4686646">
        <ele>3300.0</ele>
        <time>2020-09-21T12:43:24Z</time>
      </trkpt>
      <trkpt lat="52.120358" lon="4.4686656">
        <ele>3300.0</ele>
        <time>2020-09-21T12:43:25Z</time>
      </trkpt>
      <trkpt lat="52.12036" lon="4.4686737">
        <ele>3300.0</ele>
        <time>2020-09-21T12:43:33Z</time>
      </trkpt>
      <trkpt lat="52.12036" lon="4.4686737">
        <ele>3300.0</ele>
        <time>2020-09-21T12:43:34Z</time>
      </trkpt>
      <trkpt lat="52.120358" lon="4.4686747">
        <ele>3300.0</ele>
        <time>2020-09-21T12:43:35Z</time>
      </trkpt>
      <trkpt lat="52.120358" lon="4.468677">
        <ele>3300.0</ele>
        <time>2020-09-21T12:43:36Z</time>
      </trkpt>
      <trkpt lat="52.120358" lon="4.468679">
        <ele>3300.0</ele>
        <time>2020-09-21T12:43:37Z</time>
      </trkpt>
      <trkpt lat="52.12035" lon="4.468683">
        <ele>3300.0</ele>
        <time>2020-09-21T12:43:38Z</time>
      </trkpt>
      <trkpt lat="52.12035" lon="4.4686885">
        <ele>3300.0</ele>
        <time>2020-09-21T12:43:39Z</time>
      </trkpt>
      <trkpt lat="52.120346" lon="4.468694">
        <ele>3300.0</ele>
        <time>2020-09-21T12:43:40Z</time>
      </trkpt>
      <trkpt lat="52.120342" lon="4.4687">
        <ele>3300.0</ele>
        <time>2020-09-21T12:43:41Z</time>
      </trkpt>
      <trkpt lat="52.120335" lon="4.468704">
        <ele>3300.0</ele>
        <time>2020-09-21T12:43:42Z</time>
      </trkpt>
      <trkpt lat="52.120335" lon="4.468706">
        <ele>3300.0</ele>
        <time>2020-09-21T12:43:43Z</time>
      </trkpt>
      <trkpt lat="52.120335" lon="4.468707">
        <ele>3300.0</ele>
        <time>2020-09-21T12:43:44Z</time>
      </trkpt>
      <trkpt lat="52.120335" lon="4.468706">
        <ele>3300.0</ele>
        <time>2020-09-21T12:43:45Z</time>
      </trkpt>
      <trkpt lat="52.120335" lon="4.4687">
        <ele>3300.0</ele>
        <time>2020-09-21T12:43:46Z</time>
      </trkpt>
      <trkpt lat="52.12029" lon="4.4686155">
        <ele>3300.0</ele>
        <time>2020-09-21T12:43:52Z</time>
      </trkpt>
      <trkpt lat="52.12029" lon="4.4686127">
        <ele>3300.0</ele>
        <time>2020-09-21T12:43:53Z</time>
      </trkpt>
      <trkpt lat="52.12029" lon="4.468608">
        <ele>3300.0</ele>
        <time>2020-09-21T12:43:54Z</time>
      </trkpt>
      <trkpt lat="52.12029" lon="4.4686003">
        <ele>3300.0</ele>
        <time>2020-09-21T12:43:56Z</time>
      </trkpt>
      <trkpt lat="52.120293" lon="4.468595">
        <ele>3300.0</ele>
        <time>2020-09-21T12:43:56Z</time>
      </trkpt>
      <trkpt lat="52.120293" lon="4.4685974">
        <ele>3300.0</ele>
        <time>2020-09-21T12:43:57Z</time>
      </trkpt>
      <trkpt lat="52.1203" lon="4.4686027">
        <ele>3300.0</ele>
        <time>2020-09-21T12:43:58Z</time>
      </trkpt>
      <trkpt lat="52.120293" lon="4.468598">
        <ele>3300.0</ele>
        <time>2020-09-21T12:43:59Z</time>
      </trkpt>
      <trkpt lat="52.120293" lon="4.4685917">
        <ele>3300.0</ele>
        <time>2020-09-21T12:44:00Z</time>
      </trkpt>
      <trkpt lat="52.12029" lon="4.468585">
        <ele>3300.0</ele>
        <time>2020-09-21T12:44:01Z</time>
      </trkpt>
      <trkpt lat="52.12029" lon="4.4685807">
        <ele>3300.0</ele>
        <time>2020-09-21T12:44:02Z</time>
      </trkpt>
      <trkpt lat="52.120285" lon="4.4685774">
        <ele>3300.0</ele>
        <time>2020-09-21T12:44:03Z</time>
      </trkpt>
      <trkpt lat="52.120285" lon="4.468577">
        <ele>3300.0</ele>
        <time>2020-09-21T12:44:04Z</time>
      </trkpt>
      <trkpt lat="52.120277" lon="4.468579">
        <ele>3300.0</ele>
        <time>2020-09-21T12:44:05Z</time>
      </trkpt>
      <trkpt lat="52.120277" lon="4.4685774">
        <ele>3300.0</ele>
        <time>2020-09-21T12:44:06Z</time>
      </trkpt>
      <trkpt lat="52.120274" lon="4.468578">
        <ele>3300.0</ele>
        <time>2020-09-21T12:44:07Z</time>
      </trkpt>
      <trkpt lat="52.120277" lon="4.468607">
        <ele>3300.0</ele>
        <time>2020-09-21T12:44:11Z</time>
      </trkpt>
      <trkpt lat="52.120277" lon="4.4686127">
        <ele>3300.0</ele>
        <time>2020-09-21T12:44:12Z</time>
      </trkpt>
      <trkpt lat="52.120285" lon="4.4686236">
        <ele>3300.0</ele>
        <time>2020-09-21T12:44:13Z</time>
      </trkpt>
      <trkpt lat="52.12029" lon="4.468634">
        <ele>3300.0</ele>
        <time>2020-09-21T12:44:14Z</time>
      </trkpt>
      <trkpt lat="52.120293" lon="4.4686427">
        <ele>3300.0</ele>
        <time>2020-09-21T12:44:15Z</time>
      </trkpt>
      <trkpt lat="52.12029" lon="4.468657">
        <ele>3300.0</ele>
        <time>2020-09-21T12:44:21Z</time>
      </trkpt>
      <trkpt lat="52.12029" lon="4.4686565">
        <ele>3300.0</ele>
        <time>2020-09-21T12:44:22Z</time>
      </trkpt>
      <trkpt lat="52.120285" lon="4.4686556">
        <ele>3300.0</ele>
        <time>2020-09-21T12:44:23Z</time>
      </trkpt>
      <trkpt lat="52.1203" lon="4.468737">
        <ele>3300.0</ele>
        <time>2020-09-21T12:44:39Z</time>
      </trkpt>
      <trkpt lat="52.1203" lon="4.468739">
        <ele>3300.0</ele>
        <time>2020-09-21T12:44:40Z</time>
      </trkpt>
      <trkpt lat="52.120293" lon="4.4687405">
        <ele>3300.0</ele>
        <time>2020-09-21T12:44:41Z</time>
      </trkpt>
      <trkpt lat="52.12029" lon="4.4687433">
        <ele>3300.0</ele>
        <time>2020-09-21T12:44:42Z</time>
      </trkpt>
      <trkpt lat="52.120277" lon="4.468748">
        <ele>3300.0</ele>
        <time>2020-09-21T12:44:43Z</time>
      </trkpt>
      <trkpt lat="52.120274" lon="4.468752">
        <ele>3300.0</ele>
        <time>2020-09-21T12:44:44Z</time>
      </trkpt>
      <trkpt lat="52.12027" lon="4.4687576">
        <ele>3300.0</ele>
        <time>2020-09-21T12:44:46Z</time>
      </trkpt>
      <trkpt lat="52.120262" lon="4.4687634">
        <ele>3300.0</ele>
        <time>2020-09-21T12:44:46Z</time>
      </trkpt>
      <trkpt lat="52.120262" lon="4.46877">
        <ele>3300.0</ele>
        <time>2020-09-21T12:44:47Z</time>
      </trkpt>
      <trkpt lat="52.12026" lon="4.468776">
        <ele>3300.0</ele>
        <time>2020-09-21T12:44:48Z</time>
      </trkpt>
      <trkpt lat="52.12026" lon="4.468782">
        <ele>3300.0</ele>
        <time>2020-09-21T12:44:49Z</time>
      </trkpt>
      <trkpt lat="52.12026" lon="4.4687896">
        <ele>3300.0</ele>
        <time>2020-09-21T12:44:50Z</time>
      </trkpt>
      <trkpt lat="52.120262" lon="4.4687943">
        <ele>3300.0</ele>
        <time>2020-09-21T12:44:52Z</time>
      </trkpt>
      <trkpt lat="52.120262" lon="4.4687963">
        <ele>3300.0</ele>
        <time>2020-09-21T12:44:52Z</time>
      </trkpt>
      <trkpt lat="52.12027" lon="4.4688005">
        <ele>3300.0</ele>
        <time>2020-09-21T12:44:53Z</time>
      </trkpt>
      <trkpt lat="52.120274" lon="4.4688063">
        <ele>3300.0</ele>
        <time>2020-09-21T12:44:54Z</time>
      </trkpt>
      <trkpt lat="52.120277" lon="4.4688125">
        <ele>3300.0</ele>
        <time>2020-09-21T12:44:55Z</time>
      </trkpt>
      <trkpt lat="52.120285" lon="4.46882">
        <ele>3300.0</ele>
        <time>2020-09-21T12:44:56Z</time>
      </trkpt>
      <trkpt lat="52.12029" lon="4.4688272">
        <ele>3300.0</ele>
        <time>2020-09-21T12:44:57Z</time>
      </trkpt>
      <trkpt lat="52.120293" lon="4.46883">
        <ele>3300.0</ele>
        <time>2020-09-21T12:44:58Z</time>
      </trkpt>
      <trkpt lat="52.1203" lon="4.4688325">
        <ele>3300.0</ele>
        <time>2020-09-21T12:44:59Z</time>
      </trkpt>
      <trkpt lat="52.1203" lon="4.468826">
        <ele>3300.0</ele>
        <time>2020-09-21T12:45:01Z</time>
      </trkpt>
      <trkpt lat="52.1203" lon="4.468817">
        <ele>3300.0</ele>
        <time>2020-09-21T12:45:01Z</time>
      </trkpt>
      <trkpt lat="52.1203" lon="4.468813">
        <ele>3300.0</ele>
        <time>2020-09-21T12:45:02Z</time>
      </trkpt>
      <trkpt lat="52.120304" lon="4.4688153">
        <ele>3300.0</ele>
        <time>2020-09-21T12:45:03Z</time>
      </trkpt>
      <trkpt lat="52.120304" lon="4.4688187">
        <ele>3300.0</ele>
        <time>2020-09-21T12:45:04Z</time>
      </trkpt>
      <trkpt lat="52.1203" lon="4.4688215">
        <ele>3300.0</ele>
        <time>2020-09-21T12:45:05Z</time>
      </trkpt>
      <trkpt lat="52.1203" lon="4.468832">
        <ele>3300.0</ele>
        <time>2020-09-21T12:45:07Z</time>
      </trkpt>
      <trkpt lat="52.120293" lon="4.46883">
        <ele>3300.0</ele>
        <time>2020-09-21T12:45:09Z</time>
      </trkpt>
      <trkpt lat="52.120293" lon="4.4688053">
        <ele>3300.0</ele>
        <time>2020-09-21T12:45:13Z</time>
      </trkpt>
      <trkpt lat="52.120293" lon="4.4688015">
        <ele>3300.0</ele>
        <time>2020-09-21T12:45:14Z</time>
      </trkpt>
      <trkpt lat="52.12029" lon="4.468795">
        <ele>3300.0</ele>
        <time>2020-09-21T12:45:15Z</time>
      </trkpt>
      <trkpt lat="52.12029" lon="4.4687905">
        <ele>3300.0</ele>
        <time>2020-09-21T12:45:16Z</time>
      </trkpt>
      <trkpt lat="52.12029" lon="4.4687877">
        <ele>3300.0</ele>
        <time>2020-09-21T12:45:17Z</time>
      </trkpt>
      <trkpt lat="52.12029" lon="4.4687853">
        <ele>3300.0</ele>
        <time>2020-09-21T12:45:18Z</time>
      </trkpt>
      <trkpt lat="52.12029" lon="4.468784">
        <ele>3300.0</ele>
        <time>2020-09-21T12:45:19Z</time>
      </trkpt>
      <trkpt lat="52.120293" lon="4.468783">
        <ele>3300.0</ele>
        <time>2020-09-21T12:45:20Z</time>
      </trkpt>
      <trkpt lat="52.120293" lon="4.468774">
        <ele>3300.0</ele>
        <time>2020-09-21T12:45:22Z</time>
      </trkpt>
      <trkpt lat="52.120293" lon="4.468772">
        <ele>3300.0</ele>
        <time>2020-09-21T12:45:23Z</time>
      </trkpt>
      <trkpt lat="52.1203" lon="4.4687696">
        <ele>3300.0</ele>
        <time>2020-09-21T12:45:24Z</time>
      </trkpt>
      <trkpt lat="52.1203" lon="4.4687657">
        <ele>3300.0</ele>
        <time>2020-09-21T12:45:25Z</time>
      </trkpt>
      <trkpt lat="52.1203" lon="4.468763">
        <ele>3300.0</ele>
        <time>2020-09-21T12:45:26Z</time>
      </trkpt>
      <trkpt lat="52.120304" lon="4.468762">
        <ele>3300.0</ele>
        <time>2020-09-21T12:45:28Z</time>
      </trkpt>
      <trkpt lat="52.120308" lon="4.468761">
        <ele>3300.0</ele>
        <time>2020-09-21T12:45:29Z</time>
      </trkpt>
      <trkpt lat="52.120308" lon="4.4687586">
        <ele>3300.0</ele>
        <time>2020-09-21T12:45:30Z</time>
      </trkpt>
      <trkpt lat="52.120316" lon="4.4687576">
        <ele>3300.0</ele>
        <time>2020-09-21T12:45:31Z</time>
      </trkpt>
      <trkpt lat="52.12032" lon="4.4687634">
        <ele>3300.0</ele>
        <time>2020-09-21T12:45:33Z</time>
      </trkpt>
      <trkpt lat="52.12032" lon="4.468765">
        <ele>3300.0</ele>
        <time>2020-09-21T12:45:34Z</time>
      </trkpt>
      <trkpt lat="52.12032" lon="4.468767">
        <ele>3300.0</ele>
        <time>2020-09-21T12:45:35Z</time>
      </trkpt>
      <trkpt lat="52.12032" lon="4.4687705">
        <ele>3300.0</ele>
        <time>2020-09-21T12:45:36Z</time>
      </trkpt>
      <trkpt lat="52.120327" lon="4.468774">
        <ele>3300.0</ele>
        <time>2020-09-21T12:45:37Z</time>
      </trkpt>
      <trkpt lat="52.12033" lon="4.468782">
        <ele>3300.0</ele>
        <time>2020-09-21T12:45:39Z</time>
      </trkpt>
      <trkpt lat="52.12033" lon="4.468783">
        <ele>3300.0</ele>
        <time>2020-09-21T12:45:40Z</time>
      </trkpt>
      <trkpt lat="52.12033" lon="4.468784">
        <ele>3300.0</ele>
        <time>2020-09-21T12:45:41Z</time>
      </trkpt>
      <trkpt lat="52.120335" lon="4.4687862">
        <ele>3300.0</ele>
        <time>2020-09-21T12:45:42Z</time>
      </trkpt>
      <trkpt lat="52.120342" lon="4.4687657">
        <ele>3300.0</ele>
        <time>2020-09-21T12:45:43Z</time>
      </trkpt>
      <trkpt lat="52.120346" lon="4.4687295">
        <ele>3300.0</ele>
        <time>2020-09-21T12:45:44Z</time>
      </trkpt>
      <trkpt lat="52.12035" lon="4.468671">
        <ele>3300.0</ele>
        <time>2020-09-21T12:45:45Z</time>
      </trkpt>
      <trkpt lat="52.12036" lon="4.468608">
        <ele>3300.0</ele>
        <time>2020-09-21T12:45:46Z</time>
      </trkpt>
      <trkpt lat="52.120373" lon="4.4685726">
        <ele>3300.0</ele>
        <time>2020-09-21T12:45:48Z</time>
      </trkpt>
      <trkpt lat="52.120377" lon="4.468584">
        <ele>3300.0</ele>
        <time>2020-09-21T12:45:48Z</time>
      </trkpt>
      <trkpt lat="52.120373" lon="4.4686136">
        <ele>3300.0</ele>
        <time>2020-09-21T12:45:49Z</time>
      </trkpt>
      <trkpt lat="52.120365" lon="4.4686384">
        <ele>3300.0</ele>
        <time>2020-09-21T12:45:50Z</time>
      </trkpt>
      <trkpt lat="52.12036" lon="4.468653">
        <ele>3300.0</ele>
        <time>2020-09-21T12:45:51Z</time>
      </trkpt>
      <trkpt lat="52.12036" lon="4.468663">
        <ele>3300.0</ele>
        <time>2020-09-21T12:45:52Z</time>
      </trkpt>
      <trkpt lat="52.120358" lon="4.46867">
        <ele>3300.0</ele>
        <time>2020-09-21T12:45:54Z</time>
      </trkpt>
      <trkpt lat="52.12035" lon="4.468675">
        <ele>3300.0</ele>
        <time>2020-09-21T12:45:54Z</time>
      </trkpt>
      <trkpt lat="52.12032" lon="4.4686985">
        <ele>3300.0</ele>
        <time>2020-09-21T12:45:57Z</time>
      </trkpt>
      <trkpt lat="52.120335" lon="4.468735">
        <ele>3300.0</ele>
        <time>2020-09-21T12:46:00Z</time>
      </trkpt>
      <trkpt lat="52.120335" lon="4.468735">
        <ele>3300.0</ele>
        <time>2020-09-21T12:46:02Z</time>
      </trkpt>
      <trkpt lat="52.12035" lon="4.4687304">
        <ele>3300.0</ele>
        <time>2020-09-21T12:46:03Z</time>
      </trkpt>
      <trkpt lat="52.12035" lon="4.468724">
        <ele>3300.0</ele>
        <time>2020-09-21T12:46:04Z</time>
      </trkpt>
      <trkpt lat="52.120346" lon="4.4687233">
        <ele>3300.0</ele>
        <time>2020-09-21T12:46:06Z</time>
      </trkpt>
      <trkpt lat="52.120342" lon="4.4687204">
        <ele>3300.0</ele>
        <time>2020-09-21T12:46:08Z</time>
      </trkpt>
      <trkpt lat="52.120335" lon="4.468705">
        <ele>3300.0</ele>
        <time>2020-09-21T12:46:10Z</time>
      </trkpt>
      <trkpt lat="52.120358" lon="4.4686904">
        <ele>3300.0</ele>
        <time>2020-09-21T12:46:54Z</time>
      </trkpt>
      <trkpt lat="52.12036" lon="4.4687185">
        <ele>3300.0</ele>
        <time>2020-09-21T12:47:05Z</time>
      </trkpt>
      <trkpt lat="52.120365" lon="4.468757">
        <ele>3300.0</ele>
        <time>2020-09-21T12:47:24Z</time>
      </trkpt>
      <trkpt lat="52.12038" lon="4.468727">
        <ele>3300.0</ele>
        <time>2020-09-21T12:47:28Z</time>
      </trkpt>
      <trkpt lat="52.120388" lon="4.4687266">
        <ele>3300.0</ele>
        <time>2020-09-21T12:47:29Z</time>
      </trkpt>
      <trkpt lat="52.120373" lon="4.4687467">
        <ele>3300.0</ele>
        <time>2020-09-21T12:47:34Z</time>
      </trkpt>
      <trkpt lat="52.120373" lon="4.468749">
        <ele>3300.0</ele>
        <time>2020-09-21T12:47:35Z</time>
      </trkpt>
      <trkpt lat="52.120373" lon="4.468753">
        <ele>3300.0</ele>
        <time>2020-09-21T12:47:36Z</time>
      </trkpt>
      <trkpt lat="52.120373" lon="4.4687557">
        <ele>3300.0</ele>
        <time>2020-09-21T12:47:37Z</time>
      </trkpt>
      <trkpt lat="52.120377" lon="4.4687557">
        <ele>3300.0</ele>
        <time>2020-09-21T12:47:39Z</time>
      </trkpt>
      <trkpt lat="52.120377" lon="4.4687543">
        <ele>3300.0</ele>
        <time>2020-09-21T12:47:39Z</time>
      </trkpt>
      <trkpt lat="52.120373" lon="4.468759">
        <ele>3300.0</ele>
        <time>2020-09-21T12:47:40Z</time>
      </trkpt>
      <trkpt lat="52.120365" lon="4.4687676">
        <ele>3300.0</ele>
        <time>2020-09-21T12:47:41Z</time>
      </trkpt>
      <trkpt lat="52.120335" lon="4.4688168">
        <ele>3300.0</ele>
        <time>2020-09-21T12:47:45Z</time>
      </trkpt>
      <trkpt lat="52.120335" lon="4.4688177">
        <ele>3300.0</ele>
        <time>2020-09-21T12:47:46Z</time>
      </trkpt>
      <trkpt lat="52.120342" lon="4.468807">
        <ele>3300.0</ele>
        <time>2020-09-21T12:47:48Z</time>
      </trkpt>
      <trkpt lat="52.120342" lon="4.468804">
        <ele>3300.0</ele>
        <time>2020-09-21T12:47:49Z</time>
      </trkpt>
      <trkpt lat="52.120342" lon="4.4688025">
        <ele>3300.0</ele>
        <time>2020-09-21T12:47:50Z</time>
      </trkpt>
      <trkpt lat="52.120346" lon="4.4688034">
        <ele>3300.0</ele>
        <time>2020-09-21T12:47:51Z</time>
      </trkpt>
      <trkpt lat="52.12035" lon="4.4688087">
        <ele>3300.0</ele>
        <time>2020-09-21T12:47:53Z</time>
      </trkpt>
      <trkpt lat="52.12035" lon="4.468807">
        <ele>3300.0</ele>
        <time>2020-09-21T12:47:54Z</time>
      </trkpt>
      <trkpt lat="52.12035" lon="4.468806">
        <ele>3300.0</ele>
        <time>2020-09-21T12:47:55Z</time>
      </trkpt>
      <trkpt lat="52.120358" lon="4.4687953">
        <ele>3300.0</ele>
        <time>2020-09-21T12:47:58Z</time>
      </trkpt>
      <trkpt lat="52.120358" lon="4.468796">
        <ele>3300.0</ele>
        <time>2020-09-21T12:47:58Z</time>
      </trkpt>
      <trkpt lat="52.120358" lon="4.468797">
        <ele>3300.0</ele>
        <time>2020-09-21T12:47:59Z</time>
      </trkpt>
      <trkpt lat="52.12036" lon="4.468795">
        <ele>3300.0</ele>
        <time>2020-09-21T12:48:00Z</time>
      </trkpt>
      <trkpt lat="52.12036" lon="4.4687915">
        <ele>3300.0</ele>
        <time>2020-09-21T12:48:01Z</time>
      </trkpt>
      <trkpt lat="52.12036" lon="4.4687867">
        <ele>3300.0</ele>
        <time>2020-09-21T12:48:02Z</time>
      </trkpt>
      <trkpt lat="52.120365" lon="4.468777">
        <ele>3300.0</ele>
        <time>2020-09-21T12:48:11Z</time>
      </trkpt>
      <trkpt lat="52.12036" lon="4.468777">
        <ele>3300.0</ele>
        <time>2020-09-21T12:48:13Z</time>
      </trkpt>
      <trkpt lat="52.12035" lon="4.4687386">
        <ele>3300.0</ele>
        <time>2020-09-21T12:48:28Z</time>
      </trkpt>
      <trkpt lat="52.12035" lon="4.468737">
        <ele>3300.0</ele>
        <time>2020-09-21T12:48:29Z</time>
      </trkpt>
      <trkpt lat="52.12035" lon="4.4687347">
        <ele>3300.0</ele>
        <time>2020-09-21T12:48:30Z</time>
      </trkpt>
      <trkpt lat="52.12035" lon="4.4687304">
        <ele>3300.0</ele>
        <time>2020-09-21T12:48:31Z</time>
      </trkpt>
      <trkpt lat="52.12035" lon="4.468687">
        <ele>3300.0</ele>
        <time>2020-09-21T12:48:46Z</time>
      </trkpt>
      <trkpt lat="52.120365" lon="4.4686937">
        <ele>3300.0</ele>
        <time>2020-09-21T12:49:26Z</time>
      </trkpt>
      <trkpt lat="52.120373" lon="4.468697">
        <ele>3300.0</ele>
        <time>2020-09-21T12:49:35Z</time>
      </trkpt>
      <trkpt lat="52.120365" lon="4.468705">
        <ele>3300.0</ele>
        <time>2020-09-21T12:50:16Z</time>
      </trkpt>
      <trkpt lat="52.120365" lon="4.4687037">
        <ele>3300.0</ele>
        <time>2020-09-21T12:50:17Z</time>
      </trkpt>
      <trkpt lat="52.120373" lon="4.468695">
        <ele>3300.0</ele>
        <time>2020-09-21T12:50:18Z</time>
      </trkpt>
      <trkpt lat="52.120373" lon="4.468688">
        <ele>3300.0</ele>
        <time>2020-09-21T12:50:19Z</time>
      </trkpt>
      <trkpt lat="52.120373" lon="4.468702">
        <ele>3300.0</ele>
        <time>2020-09-21T12:50:20Z</time>
      </trkpt>
      <trkpt lat="52.120373" lon="4.4687023">
        <ele>3300.0</ele>
        <time>2020-09-21T12:50:21Z</time>
      </trkpt>
      <trkpt lat="52.120365" lon="4.468701">
        <ele>3300.0</ele>
        <time>2020-09-21T12:50:22Z</time>
      </trkpt>
      <trkpt lat="52.12036" lon="4.4687047">
        <ele>3300.0</ele>
        <time>2020-09-21T12:50:23Z</time>
      </trkpt>
      <trkpt lat="52.12035" lon="4.468713">
        <ele>3300.0</ele>
        <time>2020-09-21T12:50:24Z</time>
      </trkpt>
      <trkpt lat="52.120346" lon="4.4687243">
        <ele>3300.0</ele>
        <time>2020-09-21T12:50:25Z</time>
      </trkpt>
      <trkpt lat="52.120346" lon="4.4687324">
        <ele>3300.0</ele>
        <time>2020-09-21T12:50:26Z</time>
      </trkpt>
      <trkpt lat="52.120346" lon="4.468737">
        <ele>3300.0</ele>
        <time>2020-09-21T12:50:28Z</time>
      </trkpt>
      <trkpt lat="52.120346" lon="4.4687395">
        <ele>3300.0</ele>
        <time>2020-09-21T12:50:28Z</time>
      </trkpt>
      <trkpt lat="52.120346" lon="4.468738">
        <ele>3300.0</ele>
        <time>2020-09-21T12:50:29Z</time>
      </trkpt>
      <trkpt lat="52.120342" lon="4.4687324">
        <ele>3300.0</ele>
        <time>2020-09-21T12:50:30Z</time>
      </trkpt>
      <trkpt lat="52.120342" lon="4.468724">
        <ele>3300.0</ele>
        <time>2020-09-21T12:50:31Z</time>
      </trkpt>
      <trkpt lat="52.120335" lon="4.4687166">
        <ele>3300.0</ele>
        <time>2020-09-21T12:50:32Z</time>
      </trkpt>
      <trkpt lat="52.120335" lon="4.468708">
        <ele>3300.0</ele>
        <time>2020-09-21T12:50:33Z</time>
      </trkpt>
      <trkpt lat="52.120335" lon="4.468701">
        <ele>3300.0</ele>
        <time>2020-09-21T12:50:34Z</time>
      </trkpt>
      <trkpt lat="52.120335" lon="4.4686937">
        <ele>3300.0</ele>
        <time>2020-09-21T12:50:35Z</time>
      </trkpt>
      <trkpt lat="52.120335" lon="4.46869">
        <ele>3300.0</ele>
        <time>2020-09-21T12:50:36Z</time>
      </trkpt>
      <trkpt lat="52.12033" lon="4.4686856">
        <ele>3300.0</ele>
        <time>2020-09-21T12:50:39Z</time>
      </trkpt>
      <trkpt lat="52.12033" lon="4.4686904">
        <ele>3300.0</ele>
        <time>2020-09-21T12:50:53Z</time>
      </trkpt>
      <trkpt lat="52.12033" lon="4.468691">
        <ele>3300.0</ele>
        <time>2020-09-21T12:50:55Z</time>
      </trkpt>
      <trkpt lat="52.12033" lon="4.4686985">
        <ele>3300.0</ele>
        <time>2020-09-21T12:50:56Z</time>
      </trkpt>
      <trkpt lat="52.12033" lon="4.4687004">
        <ele>3300.0</ele>
        <time>2020-09-21T12:50:59Z</time>
      </trkpt>
      <trkpt lat="52.12033" lon="4.4686985">
        <ele>3300.0</ele>
        <time>2020-09-21T12:51:15Z</time>
      </trkpt>
      <trkpt lat="52.120342" lon="4.4686985">
        <ele>3300.0</ele>
        <time>2020-09-21T12:51:18Z</time>
      </trkpt>
      <trkpt lat="52.120342" lon="4.468695">
        <ele>3300.0</ele>
        <time>2020-09-21T12:51:22Z</time>
      </trkpt>
      <trkpt lat="52.120346" lon="4.4686904">
        <ele>3300.0</ele>
        <time>2020-09-21T12:51:26Z</time>
      </trkpt>
      <trkpt lat="52.12035" lon="4.468687">
        <ele>3300.0</ele>
        <time>2020-09-21T12:51:29Z</time>
      </trkpt>
      <trkpt lat="52.12036" lon="4.4686837">
        <ele>3300.0</ele>
        <time>2020-09-21T12:51:31Z</time>
      </trkpt>
      <trkpt lat="52.120358" lon="4.4686856">
        <ele>3300.0</ele>
        <time>2020-09-21T12:51:47Z</time>
      </trkpt>
      <trkpt lat="52.12035" lon="4.4686923">
        <ele>3300.0</ele>
        <time>2020-09-21T12:51:51Z</time>
      </trkpt>
      <trkpt lat="52.12035" lon="4.468694">
        <ele>3300.0</ele>
        <time>2020-09-21T12:51:53Z</time>
      </trkpt>
      <trkpt lat="52.12035" lon="4.468697">
        <ele>3300.0</ele>
        <time>2020-09-21T12:51:53Z</time>
      </trkpt>
      <trkpt lat="52.12035" lon="4.4687014">
        <ele>3300.0</ele>
        <time>2020-09-21T12:51:54Z</time>
      </trkpt>
      <trkpt lat="52.12035" lon="4.468715">
        <ele>3300.0</ele>
        <time>2020-09-21T12:51:56Z</time>
      </trkpt>
      <trkpt lat="52.120342" lon="4.4687304">
        <ele>3300.0</ele>
        <time>2020-09-21T12:52:26Z</time>
      </trkpt>
      <trkpt lat="52.120342" lon="4.4687314">
        <ele>3300.0</ele>
        <time>2020-09-21T12:52:27Z</time>
      </trkpt>
      <trkpt lat="52.120342" lon="4.468735">
        <ele>3300.0</ele>
        <time>2020-09-21T12:52:28Z</time>
      </trkpt>
      <trkpt lat="52.120342" lon="4.468739">
        <ele>3300.0</ele>
        <time>2020-09-21T12:52:29Z</time>
      </trkpt>
      <trkpt lat="52.120346" lon="4.468754">
        <ele>3300.0</ele>
        <time>2020-09-21T12:52:33Z</time>
      </trkpt>
      <trkpt lat="52.120346" lon="4.4687467">
        <ele>3300.0</ele>
        <time>2020-09-21T12:52:51Z</time>
      </trkpt>
      <trkpt lat="52.120346" lon="4.46874">
        <ele>3300.0</ele>
        <time>2020-09-21T12:52:55Z</time>
      </trkpt>
      <trkpt lat="52.120342" lon="4.4687395">
        <ele>3300.0</ele>
        <time>2020-09-21T12:52:56Z</time>
      </trkpt>
      <trkpt lat="52.120342" lon="4.468737">
        <ele>3300.0</ele>
        <time>2020-09-21T12:53:13Z</time>
      </trkpt>
      <trkpt lat="52.120342" lon="4.468744">
        <ele>3300.0</ele>
        <time>2020-09-21T12:53:17Z</time>
      </trkpt>
      <trkpt lat="52.120346" lon="4.46877">
        <ele>3300.0</ele>
        <time>2020-09-21T12:53:46Z</time>
      </trkpt>
      <trkpt lat="52.120342" lon="4.4688053">
        <ele>3300.0</ele>
        <time>2020-09-21T12:53:55Z</time>
      </trkpt>
      <trkpt lat="52.120342" lon="4.4688063">
        <ele>3300.0</ele>
        <time>2020-09-21T12:53:56Z</time>
      </trkpt>
      <trkpt lat="52.12035" lon="4.4688153">
        <ele>3300.0</ele>
        <time>2020-09-21T12:54:04Z</time>
      </trkpt>
      <trkpt lat="52.12035" lon="4.468816">
        <ele>3300.0</ele>
        <time>2020-09-21T12:54:05Z</time>
      </trkpt>
      <trkpt lat="52.120358" lon="4.468842">
        <ele>3300.0</ele>
        <time>2020-09-21T12:54:31Z</time>
      </trkpt>
      <trkpt lat="52.120358" lon="4.468841">
        <ele>3300.0</ele>
        <time>2020-09-21T12:54:32Z</time>
      </trkpt>
      <trkpt lat="52.120358" lon="4.468838">
        <ele>3300.0</ele>
        <time>2020-09-21T12:54:33Z</time>
      </trkpt>
      <trkpt lat="52.120358" lon="4.4688354">
        <ele>3300.0</ele>
        <time>2020-09-21T12:54:34Z</time>
      </trkpt>
      <trkpt lat="52.120358" lon="4.468833">
        <ele>3300.0</ele>
        <time>2020-09-21T12:54:35Z</time>
      </trkpt>
      <trkpt lat="52.120358" lon="4.4688187">
        <ele>3300.0</ele>
        <time>2020-09-21T12:54:37Z</time>
      </trkpt>
      <trkpt lat="52.120358" lon="4.468813">
        <ele>3300.0</ele>
        <time>2020-09-21T12:54:38Z</time>
      </trkpt>
      <trkpt lat="52.12029" lon="4.4687686">
        <ele>3300.0</ele>
        <time>2020-09-21T12:54:46Z</time>
      </trkpt>
      <trkpt lat="52.12029" lon="4.4687786">
        <ele>3300.0</ele>
        <time>2020-09-21T12:54:48Z</time>
      </trkpt>
      <trkpt lat="52.1203" lon="4.4687867">
        <ele>3300.0</ele>
        <time>2020-09-21T12:54:50Z</time>
      </trkpt>
      <trkpt lat="52.120327" lon="4.4687886">
        <ele>3300.0</ele>
        <time>2020-09-21T12:54:55Z</time>
      </trkpt>
      <trkpt lat="52.120327" lon="4.468787">
        <ele>3300.0</ele>
        <time>2020-09-21T12:54:56Z</time>
      </trkpt>
      <trkpt lat="52.12033" lon="4.4687853">
        <ele>3300.0</ele>
        <time>2020-09-21T12:54:57Z</time>
      </trkpt>
      <trkpt lat="52.12033" lon="4.468782">
        <ele>3300.0</ele>
        <time>2020-09-21T12:54:58Z</time>
      </trkpt>
      <trkpt lat="52.12033" lon="4.468776">
        <ele>3300.0</ele>
        <time>2020-09-21T12:54:59Z</time>
      </trkpt>
      <trkpt lat="52.120327" lon="4.4687705">
        <ele>3300.0</ele>
        <time>2020-09-21T12:55:00Z</time>
      </trkpt>
      <trkpt lat="52.12032" lon="4.4687657">
        <ele>3300.0</ele>
        <time>2020-09-21T12:55:01Z</time>
      </trkpt>
      <trkpt lat="52.120316" lon="4.468764">
        <ele>3300.0</ele>
        <time>2020-09-21T12:55:02Z</time>
      </trkpt>
      <trkpt lat="52.120316" lon="4.468765">
        <ele>3300.0</ele>
        <time>2020-09-21T12:55:03Z</time>
      </trkpt>
      <trkpt lat="52.120308" lon="4.4687653">
        <ele>3300.0</ele>
        <time>2020-09-21T12:55:06Z</time>
      </trkpt>
      <trkpt lat="52.120308" lon="4.4687653">
        <ele>3300.0</ele>
        <time>2020-09-21T12:55:07Z</time>
      </trkpt>
      <trkpt lat="52.120308" lon="4.4687657">
        <ele>3300.0</ele>
        <time>2020-09-21T12:55:08Z</time>
      </trkpt>
      <trkpt lat="52.120327" lon="4.4687686">
        <ele>3300.0</ele>
        <time>2020-09-21T12:55:10Z</time>
      </trkpt>
      <trkpt lat="52.120327" lon="4.4687705">
        <ele>3300.0</ele>
        <time>2020-09-21T12:55:11Z</time>
      </trkpt>
      <trkpt lat="52.12033" lon="4.468775">
        <ele>3300.0</ele>
        <time>2020-09-21T12:55:12Z</time>
      </trkpt>
      <trkpt lat="52.12033" lon="4.468779">
        <ele>3300.0</ele>
        <time>2020-09-21T12:55:13Z</time>
      </trkpt>
      <trkpt lat="52.120335" lon="4.4687843">
        <ele>3300.0</ele>
        <time>2020-09-21T12:55:14Z</time>
      </trkpt>
      <trkpt lat="52.120342" lon="4.4687886">
        <ele>3300.0</ele>
        <time>2020-09-21T12:55:15Z</time>
      </trkpt>
      <trkpt lat="52.120346" lon="4.468792">
        <ele>3300.0</ele>
        <time>2020-09-21T12:55:16Z</time>
      </trkpt>
      <trkpt lat="52.120346" lon="4.468797">
        <ele>3300.0</ele>
        <time>2020-09-21T12:55:17Z</time>
      </trkpt>
      <trkpt lat="52.120346" lon="4.468802">
        <ele>3300.0</ele>
        <time>2020-09-21T12:55:19Z</time>
      </trkpt>
      <trkpt lat="52.12032" lon="4.4688087">
        <ele>3300.0</ele>
        <time>2020-09-21T12:55:36Z</time>
      </trkpt>
      <trkpt lat="52.120308" lon="4.468827">
        <ele>3300.0</ele>
        <time>2020-09-21T12:55:40Z</time>
      </trkpt>
      <trkpt lat="52.120308" lon="4.468826">
        <ele>3300.0</ele>
        <time>2020-09-21T12:55:41Z</time>
      </trkpt>
      <trkpt lat="52.120308" lon="4.468822">
        <ele>3300.0</ele>
        <time>2020-09-21T12:55:41Z</time>
      </trkpt>
      <trkpt lat="52.120308" lon="4.4688168">
        <ele>3300.0</ele>
        <time>2020-09-21T12:55:42Z</time>
      </trkpt>
      <trkpt lat="52.120308" lon="4.4688115">
        <ele>3300.0</ele>
        <time>2020-09-21T12:55:43Z</time>
      </trkpt>
      <trkpt lat="52.120293" lon="4.4687886">
        <ele>3300.0</ele>
        <time>2020-09-21T12:55:57Z</time>
      </trkpt>
      <trkpt lat="52.120293" lon="4.4687896">
        <ele>3300.0</ele>
        <time>2020-09-21T12:55:58Z</time>
      </trkpt>
      <trkpt lat="52.12029" lon="4.4687915">
        <ele>3300.0</ele>
        <time>2020-09-21T12:55:59Z</time>
      </trkpt>
      <trkpt lat="52.12029" lon="4.468793">
        <ele>3300.0</ele>
        <time>2020-09-21T12:56:01Z</time>
      </trkpt>
      <trkpt lat="52.12029" lon="4.4687934">
        <ele>3300.0</ele>
        <time>2020-09-21T12:56:01Z</time>
      </trkpt>
      <trkpt lat="52.12029" lon="4.46879">
        <ele>3300.0</ele>
        <time>2020-09-21T12:56:02Z</time>
      </trkpt>
      <trkpt lat="52.120304" lon="4.468782">
        <ele>3300.0</ele>
        <time>2020-09-21T12:56:11Z</time>
      </trkpt>
      <trkpt lat="52.120304" lon="4.468783">
        <ele>3300.0</ele>
        <time>2020-09-21T12:56:12Z</time>
      </trkpt>
      <trkpt lat="52.120316" lon="4.468772">
        <ele>3300.0</ele>
        <time>2020-09-21T12:56:41Z</time>
      </trkpt>
      <trkpt lat="52.120346" lon="4.468695">
        <ele>3300.0</ele>
        <time>2020-09-21T12:56:47Z</time>
      </trkpt>
      <trkpt lat="52.120346" lon="4.4686956">
        <ele>3300.0</ele>
        <time>2020-09-21T12:56:48Z</time>
      </trkpt>
      <trkpt lat="52.12035" lon="4.468695">
        <ele>3300.0</ele>
        <time>2020-09-21T12:56:49Z</time>
      </trkpt>
      <trkpt lat="52.12035" lon="4.4686985">
        <ele>3300.0</ele>
        <time>2020-09-21T12:56:50Z</time>
      </trkpt>
      <trkpt lat="52.12035" lon="4.468701">
        <ele>3300.0</ele>
        <time>2020-09-21T12:56:51Z</time>
      </trkpt>
      <trkpt lat="52.12035" lon="4.4687023">
        <ele>3300.0</ele>
        <time>2020-09-21T12:56:52Z</time>
      </trkpt>
      <trkpt lat="52.120342" lon="4.4687023">
        <ele>3300.0</ele>
        <time>2020-09-21T12:56:54Z</time>
      </trkpt>
      <trkpt lat="52.120342" lon="4.4687014">
        <ele>3300.0</ele>
        <time>2020-09-21T12:56:55Z</time>
      </trkpt>
      <trkpt lat="52.120346" lon="4.468697">
        <ele>3300.0</ele>
        <time>2020-09-21T12:56:57Z</time>
      </trkpt>
      <trkpt lat="52.12038" lon="4.468744">
        <ele>3300.0</ele>
        <time>2020-09-21T12:57:06Z</time>
      </trkpt>
      <trkpt lat="52.12038" lon="4.468747">
        <ele>3300.0</ele>
        <time>2020-09-21T12:57:07Z</time>
      </trkpt>
      <trkpt lat="52.120377" lon="4.468774">
        <ele>3300.0</ele>
        <time>2020-09-21T12:57:10Z</time>
      </trkpt>
      <trkpt lat="52.12041" lon="4.4688053">
        <ele>3300.0</ele>
        <time>2020-09-21T12:57:31Z</time>
      </trkpt>
      <trkpt lat="52.120388" lon="4.4687386">
        <ele>3300.0</ele>
        <time>2020-09-21T12:57:58Z</time>
      </trkpt>
      <trkpt lat="52.120388" lon="4.4687386">
        <ele>3300.0</ele>
        <time>2020-09-21T12:58:00Z</time>
      </trkpt>
      <trkpt lat="52.120388" lon="4.4687405">
        <ele>3300.0</ele>
        <time>2020-09-21T12:58:01Z</time>
      </trkpt>
      <trkpt lat="52.12038" lon="4.468739">
        <ele>3300.0</ele>
        <time>2020-09-21T12:58:02Z</time>
      </trkpt>
      <trkpt lat="52.120358" lon="4.468672">
        <ele>3300.0</ele>
        <time>2020-09-21T12:58:04Z</time>
      </trkpt>
      <trkpt lat="52.120358" lon="4.4686623">
        <ele>3300.0</ele>
        <time>2020-09-21T12:58:05Z</time>
      </trkpt>
      <trkpt lat="52.120346" lon="4.4686446">
        <ele>3300.0</ele>
        <time>2020-09-21T12:58:06Z</time>
      </trkpt>
      <trkpt lat="52.120342" lon="4.4686255">
        <ele>3300.0</ele>
        <time>2020-09-21T12:58:08Z</time>
      </trkpt>
      <trkpt lat="52.120335" lon="4.468612">
        <ele>3300.0</ele>
        <time>2020-09-21T12:58:08Z</time>
      </trkpt>
      <trkpt lat="52.12033" lon="4.4686">
        <ele>3300.0</ele>
        <time>2020-09-21T12:58:09Z</time>
      </trkpt>
      <trkpt lat="52.120327" lon="4.468594">
        <ele>3300.0</ele>
        <time>2020-09-21T12:58:10Z</time>
      </trkpt>
      <trkpt lat="52.120327" lon="4.4685965">
        <ele>3300.0</ele>
        <time>2020-09-21T12:58:11Z</time>
      </trkpt>
      <trkpt lat="52.12032" lon="4.4686">
        <ele>3300.0</ele>
        <time>2020-09-21T12:58:12Z</time>
      </trkpt>
      <trkpt lat="52.12032" lon="4.4686055">
        <ele>3300.0</ele>
        <time>2020-09-21T12:58:13Z</time>
      </trkpt>
      <trkpt lat="52.120316" lon="4.4686136">
        <ele>3300.0</ele>
        <time>2020-09-21T12:58:14Z</time>
      </trkpt>
      <trkpt lat="52.120316" lon="4.4686227">
        <ele>3300.0</ele>
        <time>2020-09-21T12:58:15Z</time>
      </trkpt>
      <trkpt lat="52.120316" lon="4.4686303">
        <ele>3300.0</ele>
        <time>2020-09-21T12:58:16Z</time>
      </trkpt>
      <trkpt lat="52.120316" lon="4.4686346">
        <ele>3300.0</ele>
        <time>2020-09-21T12:58:18Z</time>
      </trkpt>
      <trkpt lat="52.120327" lon="4.4686437">
        <ele>3300.0</ele>
        <time>2020-09-21T12:58:19Z</time>
      </trkpt>
      <trkpt lat="52.12035" lon="4.4685836">
        <ele>3300.0</ele>
        <time>2020-09-21T12:58:22Z</time>
      </trkpt>
      <trkpt lat="52.120346" lon="4.468595">
        <ele>3300.0</ele>
        <time>2020-09-21T12:58:25Z</time>
      </trkpt>
      <trkpt lat="52.120346" lon="4.4685993">
        <ele>3300.0</ele>
        <time>2020-09-21T12:58:26Z</time>
      </trkpt>
      <trkpt lat="52.120346" lon="4.468632">
        <ele>3300.0</ele>
        <time>2020-09-21T12:58:28Z</time>
      </trkpt>
      <trkpt lat="52.120327" lon="4.468722">
        <ele>3300.0</ele>
        <time>2020-09-21T12:58:49Z</time>
      </trkpt>
      <trkpt lat="52.120327" lon="4.4687634">
        <ele>3300.0</ele>
        <time>2020-09-21T12:58:52Z</time>
      </trkpt>
      <trkpt lat="52.120327" lon="4.468767">
        <ele>3300.0</ele>
        <time>2020-09-21T12:58:53Z</time>
      </trkpt>
      <trkpt lat="52.12033" lon="4.4687734">
        <ele>3300.0</ele>
        <time>2020-09-21T12:58:54Z</time>
      </trkpt>
      <trkpt lat="52.12033" lon="4.4687777">
        <ele>3300.0</ele>
        <time>2020-09-21T12:58:55Z</time>
      </trkpt>
      <trkpt lat="52.120308" lon="4.4688153">
        <ele>3300.0</ele>
        <time>2020-09-21T12:58:58Z</time>
      </trkpt>
      <trkpt lat="52.12032" lon="4.4688735">
        <ele>3300.0</ele>
        <time>2020-09-21T12:59:01Z</time>
      </trkpt>
      <trkpt lat="52.120308" lon="4.46885">
        <ele>3300.0</ele>
        <time>2020-09-21T12:59:03Z</time>
      </trkpt>
      <trkpt lat="52.120308" lon="4.468849">
        <ele>3300.0</ele>
        <time>2020-09-21T12:59:04Z</time>
      </trkpt>
      <trkpt lat="52.120316" lon="4.468851">
        <ele>3300.0</ele>
        <time>2020-09-21T12:59:05Z</time>
      </trkpt>
      <trkpt lat="52.120335" lon="4.468885">
        <ele>3300.0</ele>
        <time>2020-09-21T12:59:07Z</time>
      </trkpt>
      <trkpt lat="52.120335" lon="4.468887">
        <ele>3300.0</ele>
        <time>2020-09-21T12:59:09Z</time>
      </trkpt>
      <trkpt lat="52.12036" lon="4.468915">
        <ele>3300.0</ele>
        <time>2020-09-21T12:59:11Z</time>
      </trkpt>
      <trkpt lat="52.12036" lon="4.468918">
        <ele>3300.0</ele>
        <time>2020-09-21T12:59:12Z</time>
      </trkpt>
      <trkpt lat="52.12036" lon="4.468923">
        <ele>3300.0</ele>
        <time>2020-09-21T12:59:13Z</time>
      </trkpt>
      <trkpt lat="52.12036" lon="4.4689403">
        <ele>3300.0</ele>
        <time>2020-09-21T12:59:21Z</time>
      </trkpt>
      <trkpt lat="52.12036" lon="4.4689536">
        <ele>3300.0</ele>
        <time>2020-09-21T12:59:25Z</time>
      </trkpt>
      <trkpt lat="52.120365" lon="4.4689436">
        <ele>3300.0</ele>
        <time>2020-09-21T12:59:29Z</time>
      </trkpt>
      <trkpt lat="52.12036" lon="4.4689236">
        <ele>3300.0</ele>
        <time>2020-09-21T12:59:31Z</time>
      </trkpt>
      <trkpt lat="52.12036" lon="4.468921">
        <ele>3300.0</ele>
        <time>2020-09-21T12:59:32Z</time>
      </trkpt>
      <trkpt lat="52.12036" lon="4.468917">
        <ele>3300.0</ele>
        <time>2020-09-21T12:59:33Z</time>
      </trkpt>
      <trkpt lat="52.12036" lon="4.4688954">
        <ele>3300.0</ele>
        <time>2020-09-21T12:59:54Z</time>
      </trkpt>
      <trkpt lat="52.120358" lon="4.468907">
        <ele>3300.0</ele>
        <time>2020-09-21T12:59:57Z</time>
      </trkpt>
      <trkpt lat="52.120358" lon="4.4689083">
        <ele>3300.0</ele>
        <time>2020-09-21T12:59:58Z</time>
      </trkpt>
      <trkpt lat="52.120346" lon="4.4689083">
        <ele>3300.0</ele>
        <time>2020-09-21T13:00:00Z</time>
      </trkpt>
      <trkpt lat="52.120342" lon="4.4689007">
        <ele>3300.0</ele>
        <time>2020-09-21T13:00:01Z</time>
      </trkpt>
      <trkpt lat="52.12032" lon="4.4688754">
        <ele>3300.0</ele>
        <time>2020-09-21T13:00:06Z</time>
      </trkpt>
      <trkpt lat="52.120316" lon="4.4688387">
        <ele>3300.0</ele>
        <time>2020-09-21T13:00:10Z</time>
      </trkpt>
      <trkpt lat="52.120327" lon="4.468947">
        <ele>3300.0</ele>
        <time>2020-09-21T13:00:19Z</time>
      </trkpt>
      <trkpt lat="52.120327" lon="4.468952">
        <ele>3300.0</ele>
        <time>2020-09-21T13:00:21Z</time>
      </trkpt>
      <trkpt lat="52.120327" lon="4.46896">
        <ele>3300.0</ele>
        <time>2020-09-21T13:00:21Z</time>
      </trkpt>
      <trkpt lat="52.120327" lon="4.4689636">
        <ele>3300.0</ele>
        <time>2020-09-21T13:00:22Z</time>
      </trkpt>
      <trkpt lat="52.120327" lon="4.4689636">
        <ele>3300.0</ele>
        <time>2020-09-21T13:00:23Z</time>
      </trkpt>
      <trkpt lat="52.12032" lon="4.46891">
        <ele>3300.0</ele>
        <time>2020-09-21T13:00:26Z</time>
      </trkpt>
      <trkpt lat="52.12032" lon="4.4689064">
        <ele>3300.0</ele>
        <time>2020-09-21T13:00:27Z</time>
      </trkpt>
      <trkpt lat="52.12032" lon="4.4689016">
        <ele>3300.0</ele>
        <time>2020-09-21T13:00:28Z</time>
      </trkpt>
      <trkpt lat="52.12032" lon="4.468899">
        <ele>3300.0</ele>
        <time>2020-09-21T13:00:29Z</time>
      </trkpt>
      <trkpt lat="52.120327" lon="4.468901">
        <ele>3300.0</ele>
        <time>2020-09-21T13:00:31Z</time>
      </trkpt>
      <trkpt lat="52.120327" lon="4.468912">
        <ele>3300.0</ele>
        <time>2020-09-21T13:00:31Z</time>
      </trkpt>
      <trkpt lat="52.12033" lon="4.4689302">
        <ele>3300.0</ele>
        <time>2020-09-21T13:00:34Z</time>
      </trkpt>
      <trkpt lat="52.120327" lon="4.468912">
        <ele>3300.0</ele>
        <time>2020-09-21T13:00:41Z</time>
      </trkpt>
      <trkpt lat="52.120308" lon="4.468885">
        <ele>3300.0</ele>
        <time>2020-09-21T13:00:49Z</time>
      </trkpt>
      <trkpt lat="52.120308" lon="4.4688797">
        <ele>3300.0</ele>
        <time>2020-09-21T13:00:50Z</time>
      </trkpt>
      <trkpt lat="52.120308" lon="4.4688725">
        <ele>3300.0</ele>
        <time>2020-09-21T13:00:51Z</time>
      </trkpt>
      <trkpt lat="52.120358" lon="4.4688387">
        <ele>3300.0</ele>
        <time>2020-09-21T13:01:35Z</time>
      </trkpt>
      <trkpt lat="52.120358" lon="4.4688396">
        <ele>3300.0</ele>
        <time>2020-09-21T13:01:36Z</time>
      </trkpt>
      <trkpt lat="52.120358" lon="4.468842">
        <ele>3300.0</ele>
        <time>2020-09-21T13:01:38Z</time>
      </trkpt>
      <trkpt lat="52.12038" lon="4.4693003">
        <ele>3300.0</ele>
        <time>2020-09-21T13:01:47Z</time>
      </trkpt>
      <trkpt lat="52.120377" lon="4.4692883">
        <ele>3300.0</ele>
        <time>2020-09-21T13:01:48Z</time>
      </trkpt>
      <trkpt lat="52.120365" lon="4.469284">
        <ele>3300.0</ele>
        <time>2020-09-21T13:01:49Z</time>
      </trkpt>
      <trkpt lat="52.12036" lon="4.4692616">
        <ele>3300.0</ele>
        <time>2020-09-21T13:01:50Z</time>
      </trkpt>
      <trkpt lat="52.12035" lon="4.469249">
        <ele>3300.0</ele>
        <time>2020-09-21T13:01:51Z</time>
      </trkpt>
      <trkpt lat="52.120358" lon="4.4692354">
        <ele>3300.0</ele>
        <time>2020-09-21T13:01:53Z</time>
      </trkpt>
      <trkpt lat="52.12036" lon="4.4692225">
        <ele>3300.0</ele>
        <time>2020-09-21T13:01:53Z</time>
      </trkpt>
      <trkpt lat="52.12036" lon="4.46921">
        <ele>3300.0</ele>
        <time>2020-09-21T13:01:54Z</time>
      </trkpt>
      <trkpt lat="52.12036" lon="4.4691806">
        <ele>3300.0</ele>
        <time>2020-09-21T13:01:55Z</time>
      </trkpt>
      <trkpt lat="52.12035" lon="4.4691505">
        <ele>3300.0</ele>
        <time>2020-09-21T13:01:56Z</time>
      </trkpt>
      <trkpt lat="52.120342" lon="4.4691234">
        <ele>3300.0</ele>
        <time>2020-09-21T13:01:57Z</time>
      </trkpt>
      <trkpt lat="52.120346" lon="4.469098">
        <ele>3300.0</ele>
        <time>2020-09-21T13:01:58Z</time>
      </trkpt>
      <trkpt lat="52.120346" lon="4.469084">
        <ele>3300.0</ele>
        <time>2020-09-21T13:01:59Z</time>
      </trkpt>
      <trkpt lat="52.12035" lon="4.469071">
        <ele>3300.0</ele>
        <time>2020-09-21T13:02:00Z</time>
      </trkpt>
      <trkpt lat="52.120426" lon="4.4689903">
        <ele>3300.0</ele>
        <time>2020-09-21T13:02:15Z</time>
      </trkpt>
      <trkpt lat="52.120426" lon="4.468986">
        <ele>3300.0</ele>
        <time>2020-09-21T13:02:16Z</time>
      </trkpt>
      <trkpt lat="52.120438" lon="4.4689755">
        <ele>3300.0</ele>
        <time>2020-09-21T13:02:17Z</time>
      </trkpt>
      <trkpt lat="52.12041" lon="4.468792">
        <ele>3300.0</ele>
        <time>2020-09-21T13:02:20Z</time>
      </trkpt>
      <trkpt lat="52.12041" lon="4.468786">
        <ele>3300.0</ele>
        <time>2020-09-21T13:02:21Z</time>
      </trkpt>
      <trkpt lat="52.120407" lon="4.468774">
        <ele>3300.0</ele>
        <time>2020-09-21T13:02:22Z</time>
      </trkpt>
      <trkpt lat="52.120407" lon="4.4687567">
        <ele>3300.0</ele>
        <time>2020-09-21T13:02:23Z</time>
      </trkpt>
      <trkpt lat="52.120407" lon="4.468736">
        <ele>3300.0</ele>
        <time>2020-09-21T13:02:24Z</time>
      </trkpt>
      <trkpt lat="52.120346" lon="4.4685574">
        <ele>3300.0</ele>
        <time>2020-09-21T13:02:35Z</time>
      </trkpt>
      <trkpt lat="52.120342" lon="4.4685593">
        <ele>3300.0</ele>
        <time>2020-09-21T13:02:36Z</time>
      </trkpt>
      <trkpt lat="52.120335" lon="4.4685717">
        <ele>3300.0</ele>
        <time>2020-09-21T13:02:37Z</time>
      </trkpt>
      <trkpt lat="52.120316" lon="4.4686">
        <ele>3300.0</ele>
        <time>2020-09-21T13:02:38Z</time>
      </trkpt>
      <trkpt lat="52.120243" lon="4.468665">
        <ele>3300.0</ele>
        <time>2020-09-21T13:02:40Z</time>
      </trkpt>
      <trkpt lat="52.120243" lon="4.468629">
        <ele>3300.0</ele>
        <time>2020-09-21T13:02:46Z</time>
      </trkpt>
      <trkpt lat="52.120243" lon="4.468627">
        <ele>3300.0</ele>
        <time>2020-09-21T13:02:47Z</time>
      </trkpt>
      <trkpt lat="52.120243" lon="4.468626">
        <ele>3300.0</ele>
        <time>2020-09-21T13:02:48Z</time>
      </trkpt>
      <trkpt lat="52.120373" lon="4.468735">
        <ele>3300.0</ele>
        <time>2020-09-21T13:03:06Z</time>
      </trkpt>
      <trkpt lat="52.120373" lon="4.4687314">
        <ele>3300.0</ele>
        <time>2020-09-21T13:03:07Z</time>
      </trkpt>
      <trkpt lat="52.120373" lon="4.4687295">
        <ele>3300.0</ele>
        <time>2020-09-21T13:03:09Z</time>
      </trkpt>
      <trkpt lat="52.120365" lon="4.468731">
        <ele>3300.0</ele>
        <time>2020-09-21T13:03:10Z</time>
      </trkpt>
      <trkpt lat="52.12036" lon="4.4687233">
        <ele>3300.0</ele>
        <time>2020-09-21T13:03:12Z</time>
      </trkpt>
      <trkpt lat="52.120358" lon="4.468719">
        <ele>3300.0</ele>
        <time>2020-09-21T13:03:13Z</time>
      </trkpt>
      <trkpt lat="52.120358" lon="4.4687166">
        <ele>3300.0</ele>
        <time>2020-09-21T13:03:15Z</time>
      </trkpt>
      <trkpt lat="52.120358" lon="4.468708">
        <ele>3300.0</ele>
        <time>2020-09-21T13:03:15Z</time>
      </trkpt>
      <trkpt lat="52.120358" lon="4.4686794">
        <ele>3300.0</ele>
        <time>2020-09-21T13:03:16Z</time>
      </trkpt>
      <trkpt lat="52.120358" lon="4.468645">
        <ele>3300.0</ele>
        <time>2020-09-21T13:03:17Z</time>
      </trkpt>
      <trkpt lat="52.120358" lon="4.468621">
        <ele>3300.0</ele>
        <time>2020-09-21T13:03:18Z</time>
      </trkpt>
      <trkpt lat="52.12035" lon="4.4686027">
        <ele>3300.0</ele>
        <time>2020-09-21T13:03:19Z</time>
      </trkpt>
      <trkpt lat="52.12035" lon="4.4686036">
        <ele>3300.0</ele>
        <time>2020-09-21T13:03:22Z</time>
      </trkpt>
      <trkpt lat="52.12035" lon="4.46861">
        <ele>3300.0</ele>
        <time>2020-09-21T13:03:23Z</time>
      </trkpt>
      <trkpt lat="52.120346" lon="4.468682">
        <ele>3300.0</ele>
        <time>2020-09-21T13:03:25Z</time>
      </trkpt>
      <trkpt lat="52.120346" lon="4.468695">
        <ele>3300.0</ele>
        <time>2020-09-21T13:03:27Z</time>
      </trkpt>
      <trkpt lat="52.120346" lon="4.4687114">
        <ele>3300.0</ele>
        <time>2020-09-21T13:03:27Z</time>
      </trkpt>
      <trkpt lat="52.120342" lon="4.4687276">
        <ele>3300.0</ele>
        <time>2020-09-21T13:03:28Z</time>
      </trkpt>
      <trkpt lat="52.120335" lon="4.46874">
        <ele>3300.0</ele>
        <time>2020-09-21T13:03:29Z</time>
      </trkpt>
      <trkpt lat="52.120335" lon="4.4687486">
        <ele>3300.0</ele>
        <time>2020-09-21T13:03:30Z</time>
      </trkpt>
      <trkpt lat="52.120342" lon="4.468753">
        <ele>3300.0</ele>
        <time>2020-09-21T13:03:31Z</time>
      </trkpt>
      <trkpt lat="52.120346" lon="4.468758">
        <ele>3300.0</ele>
        <time>2020-09-21T13:03:32Z</time>
      </trkpt>
      <trkpt lat="52.120358" lon="4.4687653">
        <ele>3300.0</ele>
        <time>2020-09-21T13:03:33Z</time>
      </trkpt>
      <trkpt lat="52.120358" lon="4.4687734">
        <ele>3300.0</ele>
        <time>2020-09-21T13:03:34Z</time>
      </trkpt>
      <trkpt lat="52.120346" lon="4.4687953">
        <ele>3300.0</ele>
        <time>2020-09-21T13:03:36Z</time>
      </trkpt>
      <trkpt lat="52.120342" lon="4.4687934">
        <ele>3300.0</ele>
        <time>2020-09-21T13:03:38Z</time>
      </trkpt>
      <trkpt lat="52.12035" lon="4.468792">
        <ele>3300.0</ele>
        <time>2020-09-21T13:03:45Z</time>
      </trkpt>
      <trkpt lat="52.12035" lon="4.4687943">
        <ele>3300.0</ele>
        <time>2020-09-21T13:03:46Z</time>
      </trkpt>
      <trkpt lat="52.120335" lon="4.4686937">
        <ele>3300.0</ele>
        <time>2020-09-21T13:03:57Z</time>
      </trkpt>
      <trkpt lat="52.120335" lon="4.4686875">
        <ele>3300.0</ele>
        <time>2020-09-21T13:03:58Z</time>
      </trkpt>
      <trkpt lat="52.12033" lon="4.4686694">
        <ele>3300.0</ele>
        <time>2020-09-21T13:03:59Z</time>
      </trkpt>
      <trkpt lat="52.12033" lon="4.468657">
        <ele>3300.0</ele>
        <time>2020-09-21T13:04:02Z</time>
      </trkpt>
      <trkpt lat="52.120335" lon="4.468667">
        <ele>3300.0</ele>
        <time>2020-09-21T13:04:03Z</time>
      </trkpt>
      <trkpt lat="52.120342" lon="4.468683">
        <ele>3300.0</ele>
        <time>2020-09-21T13:04:04Z</time>
      </trkpt>
      <trkpt lat="52.120342" lon="4.4687037">
        <ele>3300.0</ele>
        <time>2020-09-21T13:04:05Z</time>
      </trkpt>
      <trkpt lat="52.12036" lon="4.4688187">
        <ele>3300.0</ele>
        <time>2020-09-21T13:04:09Z</time>
      </trkpt>
      <trkpt lat="52.120365" lon="4.468825">
        <ele>3300.0</ele>
        <time>2020-09-21T13:04:10Z</time>
      </trkpt>
      <trkpt lat="52.120365" lon="4.4688363">
        <ele>3300.0</ele>
        <time>2020-09-21T13:04:11Z</time>
      </trkpt>
      <trkpt lat="52.120373" lon="4.468849">
        <ele>3300.0</ele>
        <time>2020-09-21T13:04:11Z</time>
      </trkpt>
      <trkpt lat="52.120373" lon="4.4688616">
        <ele>3300.0</ele>
        <time>2020-09-21T13:04:12Z</time>
      </trkpt>
      <trkpt lat="52.120396" lon="4.468929">
        <ele>3300.0</ele>
        <time>2020-09-21T13:04:21Z</time>
      </trkpt>
      <trkpt lat="52.120403" lon="4.468931">
        <ele>3300.0</ele>
        <time>2020-09-21T13:04:22Z</time>
      </trkpt>
      <trkpt lat="52.120403" lon="4.4689307">
        <ele>3300.0</ele>
        <time>2020-09-21T13:04:23Z</time>
      </trkpt>
      <trkpt lat="52.120403" lon="4.468924">
        <ele>3300.0</ele>
        <time>2020-09-21T13:04:24Z</time>
      </trkpt>
      <trkpt lat="52.120403" lon="4.468915">
        <ele>3300.0</ele>
        <time>2020-09-21T13:04:25Z</time>
      </trkpt>
      <trkpt lat="52.120403" lon="4.4689074">
        <ele>3300.0</ele>
        <time>2020-09-21T13:04:26Z</time>
      </trkpt>
      <trkpt lat="52.120407" lon="4.468894">
        <ele>3300.0</ele>
        <time>2020-09-21T13:04:27Z</time>
      </trkpt>
      <trkpt lat="52.12041" lon="4.468883">
        <ele>3300.0</ele>
        <time>2020-09-21T13:04:28Z</time>
      </trkpt>
      <trkpt lat="52.120407" lon="4.46884">
        <ele>3300.0</ele>
        <time>2020-09-21T13:04:31Z</time>
      </trkpt>
      <trkpt lat="52.120407" lon="4.468843">
        <ele>3300.0</ele>
        <time>2020-09-21T13:04:32Z</time>
      </trkpt>
      <trkpt lat="52.120403" lon="4.468851">
        <ele>3300.0</ele>
        <time>2020-09-21T13:04:33Z</time>
      </trkpt>
      <trkpt lat="52.120396" lon="4.468854">
        <ele>3300.0</ele>
        <time>2020-09-21T13:04:34Z</time>
      </trkpt>
      <trkpt lat="52.12039" lon="4.4688587">
        <ele>3300.0</ele>
        <time>2020-09-21T13:04:35Z</time>
      </trkpt>
      <trkpt lat="52.12038" lon="4.4688673">
        <ele>3300.0</ele>
        <time>2020-09-21T13:04:36Z</time>
      </trkpt>
      <trkpt lat="52.120377" lon="4.468878">
        <ele>3300.0</ele>
        <time>2020-09-21T13:04:37Z</time>
      </trkpt>
      <trkpt lat="52.120373" lon="4.468884">
        <ele>3300.0</ele>
        <time>2020-09-21T13:04:38Z</time>
      </trkpt>
      <trkpt lat="52.120365" lon="4.4688973">
        <ele>3300.0</ele>
        <time>2020-09-21T13:04:39Z</time>
      </trkpt>
      <trkpt lat="52.120358" lon="4.468922">
        <ele>3300.0</ele>
        <time>2020-09-21T13:04:40Z</time>
      </trkpt>
      <trkpt lat="52.12032" lon="4.469002">
        <ele>3300.0</ele>
        <time>2020-09-21T13:04:42Z</time>
      </trkpt>
      <trkpt lat="52.12032" lon="4.469003">
        <ele>3300.0</ele>
        <time>2020-09-21T13:04:43Z</time>
      </trkpt>
      <trkpt lat="52.120327" lon="4.469005">
        <ele>3300.0</ele>
        <time>2020-09-21T13:04:44Z</time>
      </trkpt>
      <trkpt lat="52.120327" lon="4.469006">
        <ele>3300.0</ele>
        <time>2020-09-21T13:04:45Z</time>
      </trkpt>
      <trkpt lat="52.120327" lon="4.469006">
        <ele>3300.0</ele>
        <time>2020-09-21T13:04:46Z</time>
      </trkpt>
      <trkpt lat="52.120327" lon="4.469007">
        <ele>3300.0</ele>
        <time>2020-09-21T13:04:48Z</time>
      </trkpt>
      <trkpt lat="52.120285" lon="4.469092">
        <ele>3300.0</ele>
        <time>2020-09-21T13:04:49Z</time>
      </trkpt>
      <trkpt lat="52.120277" lon="4.4690986">
        <ele>3300.0</ele>
        <time>2020-09-21T13:04:50Z</time>
      </trkpt>
      <trkpt lat="52.120247" lon="4.469085">
        <ele>3300.0</ele>
        <time>2020-09-21T13:04:53Z</time>
      </trkpt>
      <trkpt lat="52.120255" lon="4.4690795">
        <ele>3300.0</ele>
        <time>2020-09-21T13:04:54Z</time>
      </trkpt>
      <trkpt lat="52.12029" lon="4.468987">
        <ele>3300.0</ele>
        <time>2020-09-21T13:05:03Z</time>
      </trkpt>
      <trkpt lat="52.12029" lon="4.4689837">
        <ele>3300.0</ele>
        <time>2020-09-21T13:05:04Z</time>
      </trkpt>
      <trkpt lat="52.12029" lon="4.4689794">
        <ele>3300.0</ele>
        <time>2020-09-21T13:05:05Z</time>
      </trkpt>
      <trkpt lat="52.120308" lon="4.468937">
        <ele>3300.0</ele>
        <time>2020-09-21T13:05:15Z</time>
      </trkpt>
      <trkpt lat="52.120277" lon="4.468907">
        <ele>3300.0</ele>
        <time>2020-09-21T13:05:23Z</time>
      </trkpt>
      <trkpt lat="52.120274" lon="4.468907">
        <ele>3300.0</ele>
        <time>2020-09-21T13:05:32Z</time>
      </trkpt>
      <trkpt lat="52.120274" lon="4.468908">
        <ele>3300.0</ele>
        <time>2020-09-21T13:05:33Z</time>
      </trkpt>
      <trkpt lat="52.120274" lon="4.46891">
        <ele>3300.0</ele>
        <time>2020-09-21T13:05:34Z</time>
      </trkpt>
      <trkpt lat="52.120274" lon="4.468912">
        <ele>3300.0</ele>
        <time>2020-09-21T13:05:35Z</time>
      </trkpt>
      <trkpt lat="52.120277" lon="4.4689145">
        <ele>3300.0</ele>
        <time>2020-09-21T13:05:36Z</time>
      </trkpt>
      <trkpt lat="52.120285" lon="4.468916">
        <ele>3300.0</ele>
        <time>2020-09-21T13:05:37Z</time>
      </trkpt>
      <trkpt lat="52.120285" lon="4.4689183">
        <ele>3300.0</ele>
        <time>2020-09-21T13:05:38Z</time>
      </trkpt>
      <trkpt lat="52.120285" lon="4.468923">
        <ele>3300.0</ele>
        <time>2020-09-21T13:05:40Z</time>
      </trkpt>
      <trkpt lat="52.120277" lon="4.4689317">
        <ele>3300.0</ele>
        <time>2020-09-21T13:05:40Z</time>
      </trkpt>
      <trkpt lat="52.120277" lon="4.46894">
        <ele>3300.0</ele>
        <time>2020-09-21T13:05:41Z</time>
      </trkpt>
      <trkpt lat="52.120274" lon="4.4689603">
        <ele>3300.0</ele>
        <time>2020-09-21T13:05:43Z</time>
      </trkpt>
      <trkpt lat="52.12027" lon="4.468961">
        <ele>3300.0</ele>
        <time>2020-09-21T13:05:44Z</time>
      </trkpt>
      <trkpt lat="52.120262" lon="4.4689617">
        <ele>3300.0</ele>
        <time>2020-09-21T13:05:45Z</time>
      </trkpt>
      <trkpt lat="52.12026" lon="4.4689612">
        <ele>3300.0</ele>
        <time>2020-09-21T13:05:46Z</time>
      </trkpt>
      <trkpt lat="52.12026" lon="4.46896">
        <ele>3300.0</ele>
        <time>2020-09-21T13:05:47Z</time>
      </trkpt>
      <trkpt lat="52.12026" lon="4.468959">
        <ele>3300.0</ele>
        <time>2020-09-21T13:05:48Z</time>
      </trkpt>
      <trkpt lat="52.12027" lon="4.4689527">
        <ele>3300.0</ele>
        <time>2020-09-21T13:05:49Z</time>
      </trkpt>
      <trkpt lat="52.120274" lon="4.4689436">
        <ele>3300.0</ele>
        <time>2020-09-21T13:05:51Z</time>
      </trkpt>
      <trkpt lat="52.120277" lon="4.468932">
        <ele>3300.0</ele>
        <time>2020-09-21T13:05:51Z</time>
      </trkpt>
      <trkpt lat="52.120285" lon="4.468923">
        <ele>3300.0</ele>
        <time>2020-09-21T13:05:52Z</time>
      </trkpt>
      <trkpt lat="52.120293" lon="4.468917">
        <ele>3300.0</ele>
        <time>2020-09-21T13:05:53Z</time>
      </trkpt>
      <trkpt lat="52.1203" lon="4.4689136">
        <ele>3300.0</ele>
        <time>2020-09-21T13:05:54Z</time>
      </trkpt>
      <trkpt lat="52.120342" lon="4.468899">
        <ele>3300.0</ele>
        <time>2020-09-21T13:05:57Z</time>
      </trkpt>
      <trkpt lat="52.120342" lon="4.4688954">
        <ele>3300.0</ele>
        <time>2020-09-21T13:05:58Z</time>
      </trkpt>
      <trkpt lat="52.120346" lon="4.468857">
        <ele>3300.0</ele>
        <time>2020-09-21T13:06:00Z</time>
      </trkpt>
      <trkpt lat="52.120365" lon="4.468867">
        <ele>3300.0</ele>
        <time>2020-09-21T13:06:02Z</time>
      </trkpt>
      <trkpt lat="52.120377" lon="4.46885">
        <ele>3300.0</ele>
        <time>2020-09-21T13:06:04Z</time>
      </trkpt>
      <trkpt lat="52.12038" lon="4.4686837">
        <ele>3300.0</ele>
        <time>2020-09-21T13:06:11Z</time>
      </trkpt>
      <trkpt lat="52.120388" lon="4.468695">
        <ele>3300.0</ele>
        <time>2020-09-21T13:06:12Z</time>
      </trkpt>
      <trkpt lat="52.12039" lon="4.468697">
        <ele>3300.0</ele>
        <time>2020-09-21T13:06:13Z</time>
      </trkpt>
      <trkpt lat="52.12039" lon="4.4687">
        <ele>3300.0</ele>
        <time>2020-09-21T13:06:14Z</time>
      </trkpt>
      <trkpt lat="52.12039" lon="4.4687138">
        <ele>3300.0</ele>
        <time>2020-09-21T13:06:15Z</time>
      </trkpt>
      <trkpt lat="52.12039" lon="4.468736">
        <ele>3300.0</ele>
        <time>2020-09-21T13:06:16Z</time>
      </trkpt>
      <trkpt lat="52.120396" lon="4.4687586">
        <ele>3300.0</ele>
        <time>2020-09-21T13:06:17Z</time>
      </trkpt>
      <trkpt lat="52.120407" lon="4.4687777">
        <ele>3300.0</ele>
        <time>2020-09-21T13:06:18Z</time>
      </trkpt>
      <trkpt lat="52.12042" lon="4.468785">
        <ele>3300.0</ele>
        <time>2020-09-21T13:06:19Z</time>
      </trkpt>
      <trkpt lat="52.120426" lon="4.468785">
        <ele>3300.0</ele>
        <time>2020-09-21T13:06:20Z</time>
      </trkpt>
      <trkpt lat="52.120426" lon="4.468782">
        <ele>3300.0</ele>
        <time>2020-09-21T13:06:28Z</time>
      </trkpt>
      <trkpt lat="52.12042" lon="4.4687853">
        <ele>3300.0</ele>
        <time>2020-09-21T13:06:33Z</time>
      </trkpt>
      <trkpt lat="52.12042" lon="4.4687843">
        <ele>3300.0</ele>
        <time>2020-09-21T13:06:34Z</time>
      </trkpt>
      <trkpt lat="52.12042" lon="4.4687815">
        <ele>3300.0</ele>
        <time>2020-09-21T13:06:35Z</time>
      </trkpt>
      <trkpt lat="52.12033" lon="4.468827">
        <ele>3300.0</ele>
        <time>2020-09-21T13:06:58Z</time>
      </trkpt>
      <trkpt lat="52.12032" lon="4.468837">
        <ele>3300.0</ele>
        <time>2020-09-21T13:07:02Z</time>
      </trkpt>
      <trkpt lat="52.12033" lon="4.468744">
        <ele>3300.0</ele>
        <time>2020-09-21T13:07:07Z</time>
      </trkpt>
      <trkpt lat="52.12033" lon="4.4687405">
        <ele>3300.0</ele>
        <time>2020-09-21T13:07:09Z</time>
      </trkpt>
      <trkpt lat="52.12033" lon="4.4687343">
        <ele>3300.0</ele>
        <time>2020-09-21T13:07:09Z</time>
      </trkpt>
      <trkpt lat="52.120335" lon="4.468723">
        <ele>3300.0</ele>
        <time>2020-09-21T13:07:10Z</time>
      </trkpt>
      <trkpt lat="52.120335" lon="4.4687166">
        <ele>3300.0</ele>
        <time>2020-09-21T13:07:11Z</time>
      </trkpt>
      <trkpt lat="52.12035" lon="4.4687138">
        <ele>3300.0</ele>
        <time>2020-09-21T13:07:13Z</time>
      </trkpt>
      <trkpt lat="52.12035" lon="4.468713">
        <ele>3300.0</ele>
        <time>2020-09-21T13:07:14Z</time>
      </trkpt>
      <trkpt lat="52.120327" lon="4.4687">
        <ele>3300.0</ele>
        <time>2020-09-21T13:07:17Z</time>
      </trkpt>
      <trkpt lat="52.120316" lon="4.4687233">
        <ele>3300.0</ele>
        <time>2020-09-21T13:07:27Z</time>
      </trkpt>
      <trkpt lat="52.120293" lon="4.4687023">
        <ele>3300.0</ele>
        <time>2020-09-21T13:07:31Z</time>
      </trkpt>
      <trkpt lat="52.120293" lon="4.468699">
        <ele>3300.0</ele>
        <time>2020-09-21T13:07:32Z</time>
      </trkpt>
      <trkpt lat="52.120293" lon="4.4686947">
        <ele>3300.0</ele>
        <time>2020-09-21T13:07:33Z</time>
      </trkpt>
      <trkpt lat="52.120377" lon="4.468772">
        <ele>3300.0</ele>
        <time>2020-09-21T13:07:43Z</time>
      </trkpt>
      <trkpt lat="52.120377" lon="4.468771">
        <ele>3300.0</ele>
        <time>2020-09-21T13:07:44Z</time>
      </trkpt>
      <trkpt lat="52.12038" lon="4.4687586">
        <ele>3300.0</ele>
        <time>2020-09-21T13:08:11Z</time>
      </trkpt>
      <trkpt lat="52.120377" lon="4.46882">
        <ele>3300.0</ele>
        <time>2020-09-21T13:08:25Z</time>
      </trkpt>
      <trkpt lat="52.12035" lon="4.468745">
        <ele>3300.0</ele>
        <time>2020-09-21T13:08:43Z</time>
      </trkpt>
      <trkpt lat="52.12033" lon="4.468727">
        <ele>3300.0</ele>
        <time>2020-09-21T13:08:47Z</time>
      </trkpt>
      <trkpt lat="52.120346" lon="4.4687233">
        <ele>3300.0</ele>
        <time>2020-09-21T13:08:48Z</time>
      </trkpt>
      <trkpt lat="52.120342" lon="4.4687204">
        <ele>3300.0</ele>
        <time>2020-09-21T13:08:51Z</time>
      </trkpt>
      <trkpt lat="52.120342" lon="4.468721">
        <ele>3300.0</ele>
        <time>2020-09-21T13:08:52Z</time>
      </trkpt>
      <trkpt lat="52.120342" lon="4.468732">
        <ele>3300.0</ele>
        <time>2020-09-21T13:09:06Z</time>
      </trkpt>
      <trkpt lat="52.120342" lon="4.4687467">
        <ele>3300.0</ele>
        <time>2020-09-21T13:09:08Z</time>
      </trkpt>
      <trkpt lat="52.12033" lon="4.4687586">
        <ele>3300.0</ele>
        <time>2020-09-21T13:09:13Z</time>
      </trkpt>
      <trkpt lat="52.12033" lon="4.4687653">
        <ele>3300.0</ele>
        <time>2020-09-21T13:09:16Z</time>
      </trkpt>
      <trkpt lat="52.120327" lon="4.468767">
        <ele>3300.0</ele>
        <time>2020-09-21T13:09:20Z</time>
      </trkpt>
      <trkpt lat="52.120358" lon="4.468737">
        <ele>3300.0</ele>
        <time>2020-09-21T13:10:37Z</time>
      </trkpt>
      <trkpt lat="52.120358" lon="4.4687285">
        <ele>3300.0</ele>
        <time>2020-09-21T13:10:39Z</time>
      </trkpt>
      <trkpt lat="52.120358" lon="4.468737">
        <ele>3300.0</ele>
        <time>2020-09-21T13:10:46Z</time>
      </trkpt>
      <trkpt lat="52.120358" lon="4.4687376">
        <ele>3300.0</ele>
        <time>2020-09-21T13:10:47Z</time>
      </trkpt>
      <trkpt lat="52.120346" lon="4.4687386">
        <ele>3300.0</ele>
        <time>2020-09-21T13:10:57Z</time>
      </trkpt>
      <trkpt lat="52.120342" lon="4.4687376">
        <ele>3300.0</ele>
        <time>2020-09-21T13:10:58Z</time>
      </trkpt>
      <trkpt lat="52.120342" lon="4.4687138">
        <ele>3300.0</ele>
        <time>2020-09-21T13:11:10Z</time>
      </trkpt>
      <trkpt lat="52.120342" lon="4.468709">
        <ele>3300.0</ele>
        <time>2020-09-21T13:11:21Z</time>
      </trkpt>
      <trkpt lat="52.120342" lon="4.468708">
        <ele>3300.0</ele>
        <time>2020-09-21T13:11:22Z</time>
      </trkpt>
      <trkpt lat="52.120346" lon="4.468707">
        <ele>3300.0</ele>
        <time>2020-09-21T13:11:24Z</time>
      </trkpt>
      <trkpt lat="52.120365" lon="4.468735">
        <ele>3300.0</ele>
        <time>2020-09-21T13:11:45Z</time>
      </trkpt>
      <trkpt lat="52.120365" lon="4.4687347">
        <ele>3300.0</ele>
        <time>2020-09-21T13:11:46Z</time>
      </trkpt>
      <trkpt lat="52.120358" lon="4.468722">
        <ele>3300.0</ele>
        <time>2020-09-21T13:11:53Z</time>
      </trkpt>
      <trkpt lat="52.120358" lon="4.468721">
        <ele>3300.0</ele>
        <time>2020-09-21T13:11:54Z</time>
      </trkpt>
      <trkpt lat="52.120335" lon="4.4687138">
        <ele>3300.0</ele>
        <time>2020-09-21T13:12:21Z</time>
      </trkpt>
      <trkpt lat="52.120335" lon="4.468705">
        <ele>3300.0</ele>
        <time>2020-09-21T13:12:34Z</time>
      </trkpt>
      <trkpt lat="52.120335" lon="4.468704">
        <ele>3300.0</ele>
        <time>2020-09-21T13:12:35Z</time>
      </trkpt>
      <trkpt lat="52.120335" lon="4.468703">
        <ele>3300.0</ele>
        <time>2020-09-21T13:12:36Z</time>
      </trkpt>
      <trkpt lat="52.120342" lon="4.4686937">
        <ele>3300.0</ele>
        <time>2020-09-21T13:12:39Z</time>
      </trkpt>
      <trkpt lat="52.120342" lon="4.4686937">
        <ele>3300.0</ele>
        <time>2020-09-21T13:12:53Z</time>
      </trkpt>
      <trkpt lat="52.120335" lon="4.468697">
        <ele>3300.0</ele>
        <time>2020-09-21T13:12:55Z</time>
      </trkpt>
      <trkpt lat="52.120335" lon="4.468698">
        <ele>3300.0</ele>
        <time>2020-09-21T13:12:56Z</time>
      </trkpt>
      <trkpt lat="52.120327" lon="4.468715">
        <ele>3300.0</ele>
        <time>2020-09-21T13:12:59Z</time>
      </trkpt>
      <trkpt lat="52.120327" lon="4.4687204">
        <ele>3300.0</ele>
        <time>2020-09-21T13:13:01Z</time>
      </trkpt>
      <trkpt lat="52.120327" lon="4.4687233">
        <ele>3300.0</ele>
        <time>2020-09-21T13:13:04Z</time>
      </trkpt>
      <trkpt lat="52.12038" lon="4.468715">
        <ele>3300.0</ele>
        <time>2020-09-21T13:14:19Z</time>
      </trkpt>
      <trkpt lat="52.12038" lon="4.468715">
        <ele>3300.0</ele>
        <time>2020-09-21T13:14:20Z</time>
      </trkpt>
      <trkpt lat="52.12039" lon="4.468715">
        <ele>3300.0</ele>
        <time>2020-09-21T13:14:22Z</time>
      </trkpt>
      <trkpt lat="52.120407" lon="4.468717">
        <ele>3300.0</ele>
        <time>2020-09-21T13:14:29Z</time>
      </trkpt>
      <trkpt lat="52.120407" lon="4.4687176">
        <ele>3300.0</ele>
        <time>2020-09-21T13:14:30Z</time>
      </trkpt>
      <trkpt lat="52.12042" lon="4.468745">
        <ele>3300.0</ele>
        <time>2020-09-21T13:14:51Z</time>
      </trkpt>
      <trkpt lat="52.12042" lon="4.4687448">
        <ele>3300.0</ele>
        <time>2020-09-21T13:14:53Z</time>
      </trkpt>
      <trkpt lat="52.12041" lon="4.468744">
        <ele>3300.0</ele>
        <time>2020-09-21T13:14:53Z</time>
      </trkpt>
      <trkpt lat="52.120407" lon="4.4687433">
        <ele>3300.0</ele>
        <time>2020-09-21T13:14:54Z</time>
      </trkpt>
      <trkpt lat="52.120403" lon="4.4687424">
        <ele>3300.0</ele>
        <time>2020-09-21T13:14:55Z</time>
      </trkpt>
      <trkpt lat="52.120396" lon="4.468743">
        <ele>3300.0</ele>
        <time>2020-09-21T13:14:56Z</time>
      </trkpt>
      <trkpt lat="52.12036" lon="4.4687467">
        <ele>3300.0</ele>
        <time>2020-09-21T13:14:58Z</time>
      </trkpt>
      <trkpt lat="52.12036" lon="4.4687476">
        <ele>3300.0</ele>
        <time>2020-09-21T13:14:59Z</time>
      </trkpt>
      <trkpt lat="52.12036" lon="4.468748">
        <ele>3300.0</ele>
        <time>2020-09-21T13:15:00Z</time>
      </trkpt>
      <trkpt lat="52.120358" lon="4.468751">
        <ele>3300.0</ele>
        <time>2020-09-21T13:15:01Z</time>
      </trkpt>
      <trkpt lat="52.12035" lon="4.468754">
        <ele>3300.0</ele>
        <time>2020-09-21T13:15:02Z</time>
      </trkpt>
      <trkpt lat="52.120346" lon="4.4687595">
        <ele>3300.0</ele>
        <time>2020-09-21T13:15:03Z</time>
      </trkpt>
      <trkpt lat="52.120342" lon="4.4687624">
        <ele>3300.0</ele>
        <time>2020-09-21T13:15:04Z</time>
      </trkpt>
      <trkpt lat="52.12033" lon="4.4687634">
        <ele>3300.0</ele>
        <time>2020-09-21T13:15:26Z</time>
      </trkpt>
      <trkpt lat="52.12033" lon="4.468763">
        <ele>3300.0</ele>
        <time>2020-09-21T13:15:27Z</time>
      </trkpt>
      <trkpt lat="52.12033" lon="4.468757">
        <ele>3300.0</ele>
        <time>2020-09-21T13:15:30Z</time>
      </trkpt>
      <trkpt lat="52.120342" lon="4.468752">
        <ele>3300.0</ele>
        <time>2020-09-21T13:15:36Z</time>
      </trkpt>
      <trkpt lat="52.120342" lon="4.4687514">
        <ele>3300.0</ele>
        <time>2020-09-21T13:15:36Z</time>
      </trkpt>
      <trkpt lat="52.12036" lon="4.4687486">
        <ele>3300.0</ele>
        <time>2020-09-21T13:15:43Z</time>
      </trkpt>
      <trkpt lat="52.120373" lon="4.468737">
        <ele>3300.0</ele>
        <time>2020-09-21T13:15:49Z</time>
      </trkpt>
      <trkpt lat="52.120388" lon="4.468715">
        <ele>3300.0</ele>
        <time>2020-09-21T13:15:52Z</time>
      </trkpt>
      <trkpt lat="52.12039" lon="4.4687037">
        <ele>3300.0</ele>
        <time>2020-09-21T13:15:57Z</time>
      </trkpt>
      <trkpt lat="52.12039" lon="4.468701">
        <ele>3300.0</ele>
        <time>2020-09-21T13:15:57Z</time>
      </trkpt>
      <trkpt lat="52.120403" lon="4.4686804">
        <ele>3300.0</ele>
        <time>2020-09-21T13:15:59Z</time>
      </trkpt>
      <trkpt lat="52.120403" lon="4.4686804">
        <ele>3300.0</ele>
        <time>2020-09-21T13:16:00Z</time>
      </trkpt>
      <trkpt lat="52.120365" lon="4.468792">
        <ele>3300.0</ele>
        <time>2020-09-21T13:16:44Z</time>
      </trkpt>
      <trkpt lat="52.120388" lon="4.4687304">
        <ele>3300.0</ele>
        <time>2020-09-21T13:17:45Z</time>
      </trkpt>
      <trkpt lat="52.120388" lon="4.4687304">
        <ele>3300.0</ele>
        <time>2020-09-21T13:17:46Z</time>
      </trkpt>
      <trkpt lat="52.12039" lon="4.4687304">
        <ele>3300.0</ele>
        <time>2020-09-21T13:17:47Z</time>
      </trkpt>
      <trkpt lat="52.120396" lon="4.468734">
        <ele>3300.0</ele>
        <time>2020-09-21T13:17:49Z</time>
      </trkpt>
      <trkpt lat="52.120403" lon="4.468735">
        <ele>3300.0</ele>
        <time>2020-09-21T13:17:51Z</time>
      </trkpt>
      <trkpt lat="52.120403" lon="4.468736">
        <ele>3300.0</ele>
        <time>2020-09-21T13:17:52Z</time>
      </trkpt>
      <trkpt lat="52.120403" lon="4.468738">
        <ele>3300.0</ele>
        <time>2020-09-21T13:17:53Z</time>
      </trkpt>
      <trkpt lat="52.120403" lon="4.468752">
        <ele>3300.0</ele>
        <time>2020-09-21T13:18:00Z</time>
      </trkpt>
      <trkpt lat="52.120403" lon="4.468753">
        <ele>3300.0</ele>
        <time>2020-09-21T13:18:01Z</time>
      </trkpt>
      <trkpt lat="52.120403" lon="4.468756">
        <ele>3300.0</ele>
        <time>2020-09-21T13:18:03Z</time>
      </trkpt>
      <trkpt lat="52.120403" lon="4.468763">
        <ele>3300.0</ele>
        <time>2020-09-21T13:18:03Z</time>
      </trkpt>
      <trkpt lat="52.120396" lon="4.4687705">
        <ele>3300.0</ele>
        <time>2020-09-21T13:18:04Z</time>
      </trkpt>
      <trkpt lat="52.120396" lon="4.4687777">
        <ele>3300.0</ele>
        <time>2020-09-21T13:18:05Z</time>
      </trkpt>
      <trkpt lat="52.12039" lon="4.4687834">
        <ele>3300.0</ele>
        <time>2020-09-21T13:18:06Z</time>
      </trkpt>
      <trkpt lat="52.12039" lon="4.468788">
        <ele>3300.0</ele>
        <time>2020-09-21T13:18:07Z</time>
      </trkpt>
      <trkpt lat="52.12038" lon="4.468802">
        <ele>3300.0</ele>
        <time>2020-09-21T13:18:09Z</time>
      </trkpt>
      <trkpt lat="52.12038" lon="4.468792">
        <ele>3300.0</ele>
        <time>2020-09-21T13:18:34Z</time>
      </trkpt>
      <trkpt lat="52.120373" lon="4.4687867">
        <ele>3300.0</ele>
        <time>2020-09-21T13:18:51Z</time>
      </trkpt>
      <trkpt lat="52.120373" lon="4.468787">
        <ele>3300.0</ele>
        <time>2020-09-21T13:18:51Z</time>
      </trkpt>
      <trkpt lat="52.120365" lon="4.468792">
        <ele>3300.0</ele>
        <time>2020-09-21T13:18:53Z</time>
      </trkpt>
      <trkpt lat="52.120365" lon="4.4687924">
        <ele>3300.0</ele>
        <time>2020-09-21T13:18:54Z</time>
      </trkpt>
      <trkpt lat="52.120365" lon="4.468793">
        <ele>3300.0</ele>
        <time>2020-09-21T13:18:55Z</time>
      </trkpt>
      <trkpt lat="52.12036" lon="4.4687943">
        <ele>3300.0</ele>
        <time>2020-09-21T13:18:56Z</time>
      </trkpt>
      <trkpt lat="52.120358" lon="4.4687986">
        <ele>3300.0</ele>
        <time>2020-09-21T13:18:59Z</time>
      </trkpt>
      <trkpt lat="52.12035" lon="4.4688005">
        <ele>3300.0</ele>
        <time>2020-09-21T13:19:01Z</time>
      </trkpt>
      <trkpt lat="52.120358" lon="4.4688005">
        <ele>3300.0</ele>
        <time>2020-09-21T13:19:35Z</time>
      </trkpt>
      <trkpt lat="52.12036" lon="4.4688005">
        <ele>3300.0</ele>
        <time>2020-09-21T13:19:37Z</time>
      </trkpt>
      <trkpt lat="52.12036" lon="4.4687986">
        <ele>3300.0</ele>
        <time>2020-09-21T13:19:47Z</time>
      </trkpt>
      <trkpt lat="52.12036" lon="4.4687986">
        <ele>3300.0</ele>
        <time>2020-09-21T13:19:48Z</time>
      </trkpt>
      <trkpt lat="52.120373" lon="4.4687986">
        <ele>3300.0</ele>
        <time>2020-09-21T13:19:50Z</time>
      </trkpt>
      <trkpt lat="52.120373" lon="4.468792">
        <ele>3300.0</ele>
        <time>2020-09-21T13:19:55Z</time>
      </trkpt>
      <trkpt lat="52.120373" lon="4.4687867">
        <ele>3300.0</ele>
        <time>2020-09-21T13:19:57Z</time>
      </trkpt>
      <trkpt lat="52.120373" lon="4.4687862">
        <ele>3300.0</ele>
        <time>2020-09-21T13:19:58Z</time>
      </trkpt>
      <trkpt lat="52.12039" lon="4.4687304">
        <ele>3300.0</ele>
        <time>2020-09-21T13:20:21Z</time>
      </trkpt>
      <trkpt lat="52.12039" lon="4.4687295">
        <ele>3300.0</ele>
        <time>2020-09-21T13:20:22Z</time>
      </trkpt>
      <trkpt lat="52.12039" lon="4.4687276">
        <ele>3300.0</ele>
        <time>2020-09-21T13:20:23Z</time>
      </trkpt>
      <trkpt lat="52.12039" lon="4.4687243">
        <ele>3300.0</ele>
        <time>2020-09-21T13:20:24Z</time>
      </trkpt>
      <trkpt lat="52.120373" lon="4.468707">
        <ele>3300.0</ele>
        <time>2020-09-21T13:20:37Z</time>
      </trkpt>
      <trkpt lat="52.120373" lon="4.468707">
        <ele>3300.0</ele>
        <time>2020-09-21T13:20:38Z</time>
      </trkpt>
      <trkpt lat="52.120365" lon="4.468707">
        <ele>3300.0</ele>
        <time>2020-09-21T13:20:39Z</time>
      </trkpt>
      <trkpt lat="52.12036" lon="4.468705">
        <ele>3300.0</ele>
        <time>2020-09-21T13:20:41Z</time>
      </trkpt>
      <trkpt lat="52.120358" lon="4.468715">
        <ele>3300.0</ele>
        <time>2020-09-21T13:20:57Z</time>
      </trkpt>
      <trkpt lat="52.12035" lon="4.468752">
        <ele>3300.0</ele>
        <time>2020-09-21T13:21:19Z</time>
      </trkpt>
      <trkpt lat="52.120346" lon="4.468751">
        <ele>3300.0</ele>
        <time>2020-09-21T13:21:20Z</time>
      </trkpt>
      <trkpt lat="52.120346" lon="4.4687495">
        <ele>3300.0</ele>
        <time>2020-09-21T13:21:21Z</time>
      </trkpt>
      <trkpt lat="52.120346" lon="4.4687467">
        <ele>3300.0</ele>
        <time>2020-09-21T13:21:22Z</time>
      </trkpt>
      <trkpt lat="52.120346" lon="4.4687443">
        <ele>3300.0</ele>
        <time>2020-09-21T13:21:23Z</time>
      </trkpt>
      <trkpt lat="52.120346" lon="4.468741">
        <ele>3300.0</ele>
        <time>2020-09-21T13:21:24Z</time>
      </trkpt>
      <trkpt lat="52.120346" lon="4.468738">
        <ele>3300.0</ele>
        <time>2020-09-21T13:21:25Z</time>
      </trkpt>
      <trkpt lat="52.120346" lon="4.4687386">
        <ele>3300.0</ele>
        <time>2020-09-21T13:21:59Z</time>
      </trkpt>
      <trkpt lat="52.12035" lon="4.468737">
        <ele>3300.0</ele>
        <time>2020-09-21T13:22:01Z</time>
      </trkpt>
      <trkpt lat="52.120358" lon="4.468736">
        <ele>3300.0</ele>
        <time>2020-09-21T13:22:02Z</time>
      </trkpt>
      <trkpt lat="52.120358" lon="4.4687357">
        <ele>3300.0</ele>
        <time>2020-09-21T13:22:03Z</time>
      </trkpt>
      <trkpt lat="52.12036" lon="4.4687357">
        <ele>3300.0</ele>
        <time>2020-09-21T13:22:04Z</time>
      </trkpt>
      <trkpt lat="52.120365" lon="4.468736">
        <ele>3300.0</ele>
        <time>2020-09-21T13:22:05Z</time>
      </trkpt>
      <trkpt lat="52.120373" lon="4.468736">
        <ele>3300.0</ele>
        <time>2020-09-21T13:22:06Z</time>
      </trkpt>
      <trkpt lat="52.120373" lon="4.468736">
        <ele>3300.0</ele>
        <time>2020-09-21T13:22:07Z</time>
      </trkpt>
      <trkpt lat="52.120377" lon="4.4687347">
        <ele>3300.0</ele>
        <time>2020-09-21T13:22:08Z</time>
      </trkpt>
      <trkpt lat="52.12038" lon="4.4687314">
        <ele>3300.0</ele>
        <time>2020-09-21T13:22:09Z</time>
      </trkpt>
      <trkpt lat="52.120388" lon="4.4687276">
        <ele>3300.0</ele>
        <time>2020-09-21T13:22:10Z</time>
      </trkpt>
      <trkpt lat="52.120388" lon="4.4687257">
        <ele>3300.0</ele>
        <time>2020-09-21T13:22:11Z</time>
      </trkpt>
      <trkpt lat="52.120388" lon="4.468725">
        <ele>3300.0</ele>
        <time>2020-09-21T13:22:13Z</time>
      </trkpt>
      <trkpt lat="52.120388" lon="4.468737">
        <ele>3300.0</ele>
        <time>2020-09-21T13:22:33Z</time>
      </trkpt>
      <trkpt lat="52.12036" lon="4.468744">
        <ele>3300.0</ele>
        <time>2020-09-21T13:22:57Z</time>
      </trkpt>
      <trkpt lat="52.12036" lon="4.468742">
        <ele>3300.0</ele>
        <time>2020-09-21T13:23:00Z</time>
      </trkpt>
      <trkpt lat="52.12036" lon="4.468735">
        <ele>3300.0</ele>
        <time>2020-09-21T13:23:04Z</time>
      </trkpt>
      <trkpt lat="52.120358" lon="4.4687324">
        <ele>3300.0</ele>
        <time>2020-09-21T13:23:10Z</time>
      </trkpt>
      <trkpt lat="52.12035" lon="4.4687324">
        <ele>3300.0</ele>
        <time>2020-09-21T13:23:13Z</time>
      </trkpt>
      <trkpt lat="52.120346" lon="4.468757">
        <ele>3300.0</ele>
        <time>2020-09-21T13:23:48Z</time>
      </trkpt>
      <trkpt lat="52.120346" lon="4.4687552">
        <ele>3300.0</ele>
        <time>2020-09-21T13:23:50Z</time>
      </trkpt>
      <trkpt lat="52.120346" lon="4.468755">
        <ele>3300.0</ele>
        <time>2020-09-21T13:23:51Z</time>
      </trkpt>
      <trkpt lat="52.12035" lon="4.468754">
        <ele>3300.0</ele>
        <time>2020-09-21T13:23:52Z</time>
      </trkpt>
      <trkpt lat="52.120358" lon="4.4687486">
        <ele>3300.0</ele>
        <time>2020-09-21T13:23:54Z</time>
      </trkpt>
      <trkpt lat="52.120358" lon="4.468748">
        <ele>3300.0</ele>
        <time>2020-09-21T13:23:55Z</time>
      </trkpt>
      <trkpt lat="52.120358" lon="4.468745">
        <ele>3300.0</ele>
        <time>2020-09-21T13:23:57Z</time>
      </trkpt>
      <trkpt lat="52.12036" lon="4.468744">
        <ele>3300.0</ele>
        <time>2020-09-21T13:24:00Z</time>
      </trkpt>
      <trkpt lat="52.120377" lon="4.468727">
        <ele>3300.0</ele>
        <time>2020-09-21T13:24:42Z</time>
      </trkpt>
      <trkpt lat="52.120377" lon="4.468725">
        <ele>3300.0</ele>
        <time>2020-09-21T13:24:45Z</time>
      </trkpt>
      <trkpt lat="52.120373" lon="4.468744">
        <ele>3300.0</ele>
        <time>2020-09-21T13:25:28Z</time>
      </trkpt>
      <trkpt lat="52.120365" lon="4.4687505">
        <ele>3300.0</ele>
        <time>2020-09-21T13:26:16Z</time>
      </trkpt>
      <trkpt lat="52.120365" lon="4.4687505">
        <ele>3300.0</ele>
        <time>2020-09-21T13:26:17Z</time>
      </trkpt>
      <trkpt lat="52.12036" lon="4.468751">
        <ele>3300.0</ele>
        <time>2020-09-21T13:26:18Z</time>
      </trkpt>
      <trkpt lat="52.12036" lon="4.468751">
        <ele>3300.0</ele>
        <time>2020-09-21T13:26:19Z</time>
      </trkpt>
      <trkpt lat="52.120358" lon="4.4687505">
        <ele>3300.0</ele>
        <time>2020-09-21T13:26:20Z</time>
      </trkpt>
      <trkpt lat="52.12035" lon="4.468751">
        <ele>3300.0</ele>
        <time>2020-09-21T13:26:21Z</time>
      </trkpt>
      <trkpt lat="52.12035" lon="4.468751">
        <ele>3300.0</ele>
        <time>2020-09-21T13:26:22Z</time>
      </trkpt>
      <trkpt lat="52.120346" lon="4.46875">
        <ele>3300.0</ele>
        <time>2020-09-21T13:26:24Z</time>
      </trkpt>
      <trkpt lat="52.120346" lon="4.468751">
        <ele>3300.0</ele>
        <time>2020-09-21T13:26:24Z</time>
      </trkpt>
      <trkpt lat="52.120342" lon="4.468755">
        <ele>3300.0</ele>
        <time>2020-09-21T13:26:25Z</time>
      </trkpt>
      <trkpt lat="52.120342" lon="4.4687586">
        <ele>3300.0</ele>
        <time>2020-09-21T13:26:26Z</time>
      </trkpt>
      <trkpt lat="52.120342" lon="4.4687595">
        <ele>3300.0</ele>
        <time>2020-09-21T13:26:27Z</time>
      </trkpt>
      <trkpt lat="52.120342" lon="4.468762">
        <ele>3300.0</ele>
        <time>2020-09-21T13:26:28Z</time>
      </trkpt>
      <trkpt lat="52.120346" lon="4.468762">
        <ele>3300.0</ele>
        <time>2020-09-21T13:26:29Z</time>
      </trkpt>
      <trkpt lat="52.12035" lon="4.4687605">
        <ele>3300.0</ele>
        <time>2020-09-21T13:26:30Z</time>
      </trkpt>
      <trkpt lat="52.120358" lon="4.468758">
        <ele>3300.0</ele>
        <time>2020-09-21T13:26:31Z</time>
      </trkpt>
      <trkpt lat="52.120365" lon="4.468752">
        <ele>3300.0</ele>
        <time>2020-09-21T13:26:33Z</time>
      </trkpt>
      <trkpt lat="52.120365" lon="4.468751">
        <ele>3300.0</ele>
        <time>2020-09-21T13:26:35Z</time>
      </trkpt>
      <trkpt lat="52.120377" lon="4.4687486">
        <ele>3300.0</ele>
        <time>2020-09-21T13:26:55Z</time>
      </trkpt>
      <trkpt lat="52.12038" lon="4.4687486">
        <ele>3300.0</ele>
        <time>2020-09-21T13:26:58Z</time>
      </trkpt>
      <trkpt lat="52.120388" lon="4.4687486">
        <ele>3300.0</ele>
        <time>2020-09-21T13:26:59Z</time>
      </trkpt>
      <trkpt lat="52.120388" lon="4.4687486">
        <ele>3300.0</ele>
        <time>2020-09-21T13:27:00Z</time>
      </trkpt>
      <trkpt lat="52.120396" lon="4.468757">
        <ele>3300.0</ele>
        <time>2020-09-21T13:27:05Z</time>
      </trkpt>
      <trkpt lat="52.120396" lon="4.468759">
        <ele>3300.0</ele>
        <time>2020-09-21T13:27:06Z</time>
      </trkpt>
      <trkpt lat="52.120403" lon="4.46877">
        <ele>3300.0</ele>
        <time>2020-09-21T13:27:14Z</time>
      </trkpt>
      <trkpt lat="52.120396" lon="4.46877">
        <ele>3300.0</ele>
        <time>2020-09-21T13:27:34Z</time>
      </trkpt>
      <trkpt lat="52.120396" lon="4.46877">
        <ele>3300.0</ele>
        <time>2020-09-21T13:27:35Z</time>
      </trkpt>
      <trkpt lat="52.12039" lon="4.46877">
        <ele>3300.0</ele>
        <time>2020-09-21T13:27:36Z</time>
      </trkpt>
      <trkpt lat="52.12038" lon="4.46877">
        <ele>3300.0</ele>
        <time>2020-09-21T13:27:39Z</time>
      </trkpt>
      <trkpt lat="52.12038" lon="4.46877">
        <ele>3300.0</ele>
        <time>2020-09-21T13:27:40Z</time>
      </trkpt>
      <trkpt lat="52.120377" lon="4.4687686">
        <ele>3300.0</ele>
        <time>2020-09-21T13:27:43Z</time>
      </trkpt>
      <trkpt lat="52.120377" lon="4.468747">
        <ele>3300.0</ele>
        <time>2020-09-21T13:27:48Z</time>
      </trkpt>
      <trkpt lat="52.120377" lon="4.468744">
        <ele>3300.0</ele>
        <time>2020-09-21T13:27:50Z</time>
      </trkpt>
      <trkpt lat="52.120373" lon="4.468739">
        <ele>3300.0</ele>
        <time>2020-09-21T13:28:00Z</time>
      </trkpt>
      <trkpt lat="52.120373" lon="4.4687185">
        <ele>3300.0</ele>
        <time>2020-09-21T13:28:43Z</time>
      </trkpt>
      <trkpt lat="52.120377" lon="4.4687204">
        <ele>3300.0</ele>
        <time>2020-09-21T13:28:45Z</time>
      </trkpt>
      <trkpt lat="52.120377" lon="4.4687204">
        <ele>3300.0</ele>
        <time>2020-09-21T13:28:46Z</time>
      </trkpt>
      <trkpt lat="52.120377" lon="4.4687204">
        <ele>3300.0</ele>
        <time>2020-09-21T13:28:47Z</time>
      </trkpt>
      <trkpt lat="52.12038" lon="4.4687204">
        <ele>3300.0</ele>
        <time>2020-09-21T13:28:48Z</time>
      </trkpt>
      <trkpt lat="52.120396" lon="4.468724">
        <ele>3300.0</ele>
        <time>2020-09-21T13:28:52Z</time>
      </trkpt>
      <trkpt lat="52.120396" lon="4.468727">
        <ele>3300.0</ele>
        <time>2020-09-21T13:28:54Z</time>
      </trkpt>
      <trkpt lat="52.120396" lon="4.4687276">
        <ele>3300.0</ele>
        <time>2020-09-21T13:28:55Z</time>
      </trkpt>
      <trkpt lat="52.120396" lon="4.468742">
        <ele>3300.0</ele>
        <time>2020-09-21T13:29:07Z</time>
      </trkpt>
      <trkpt lat="52.12039" lon="4.4687424">
        <ele>3300.0</ele>
        <time>2020-09-21T13:29:08Z</time>
      </trkpt>
      <trkpt lat="52.12039" lon="4.468743">
        <ele>3300.0</ele>
        <time>2020-09-21T13:29:09Z</time>
      </trkpt>
      <trkpt lat="52.12039" lon="4.4687448">
        <ele>3300.0</ele>
        <time>2020-09-21T13:29:10Z</time>
      </trkpt>
      <trkpt lat="52.120388" lon="4.468746">
        <ele>3300.0</ele>
        <time>2020-09-21T13:29:11Z</time>
      </trkpt>
      <trkpt lat="52.120388" lon="4.4687486">
        <ele>3300.0</ele>
        <time>2020-09-21T13:29:12Z</time>
      </trkpt>
      <trkpt lat="52.12038" lon="4.46875">
        <ele>3300.0</ele>
        <time>2020-09-21T13:29:13Z</time>
      </trkpt>
      <trkpt lat="52.12038" lon="4.468752">
        <ele>3300.0</ele>
        <time>2020-09-21T13:29:15Z</time>
      </trkpt>
      <trkpt lat="52.120373" lon="4.468757">
        <ele>3300.0</ele>
        <time>2020-09-21T13:29:17Z</time>
      </trkpt>
      <trkpt lat="52.120377" lon="4.4687686">
        <ele>3300.0</ele>
        <time>2020-09-21T13:29:23Z</time>
      </trkpt>
      <trkpt lat="52.12038" lon="4.468775">
        <ele>3300.0</ele>
        <time>2020-09-21T13:29:24Z</time>
      </trkpt>
      <trkpt lat="52.120388" lon="4.4687853">
        <ele>3300.0</ele>
        <time>2020-09-21T13:29:25Z</time>
      </trkpt>
      <trkpt lat="52.120403" lon="4.468802">
        <ele>3700.0</ele>
        <time>2020-09-21T13:29:26Z</time>
      </trkpt>
      <trkpt lat="52.120422" lon="4.468822">
        <ele>3700.0</ele>
        <time>2020-09-21T13:29:27Z</time>
      </trkpt>
      <trkpt lat="52.12044" lon="4.4688463">
        <ele>3700.0</ele>
        <time>2020-09-21T13:29:29Z</time>
      </trkpt>
      <trkpt lat="52.12047" lon="4.4688745">
        <ele>3700.0</ele>
        <time>2020-09-21T13:29:29Z</time>
      </trkpt>
      <trkpt lat="52.120487" lon="4.4689035">
        <ele>3700.0</ele>
        <time>2020-09-21T13:29:30Z</time>
      </trkpt>
      <trkpt lat="52.12052" lon="4.4689364">
        <ele>3700.0</ele>
        <time>2020-09-21T13:29:31Z</time>
      </trkpt>
      <trkpt lat="52.120544" lon="4.4689693">
        <ele>3700.0</ele>
        <time>2020-09-21T13:29:32Z</time>
      </trkpt>
      <trkpt lat="52.12057" lon="4.469001">
        <ele>3700.0</ele>
        <time>2020-09-21T13:29:33Z</time>
      </trkpt>
      <trkpt lat="52.120598" lon="4.469031">
        <ele>3700.0</ele>
        <time>2020-09-21T13:29:34Z</time>
      </trkpt>
      <trkpt lat="52.120617" lon="4.4690576">
        <ele>3700.0</ele>
        <time>2020-09-21T13:29:35Z</time>
      </trkpt>
      <trkpt lat="52.120644" lon="4.4690824">
        <ele>3700.0</ele>
        <time>2020-09-21T13:29:36Z</time>
      </trkpt>
      <trkpt lat="52.120663" lon="4.469105">
        <ele>3700.0</ele>
        <time>2020-09-21T13:29:37Z</time>
      </trkpt>
      <trkpt lat="52.12069" lon="4.4691267">
        <ele>3700.0</ele>
        <time>2020-09-21T13:29:38Z</time>
      </trkpt>
      <trkpt lat="52.120716" lon="4.4691496">
        <ele>3700.0</ele>
        <time>2020-09-21T13:29:39Z</time>
      </trkpt>
      <trkpt lat="52.12074" lon="4.4691706">
        <ele>3700.0</ele>
        <time>2020-09-21T13:29:40Z</time>
      </trkpt>
      <trkpt lat="52.12077" lon="4.4691896">
        <ele>3700.0</ele>
        <time>2020-09-21T13:29:41Z</time>
      </trkpt>
      <trkpt lat="52.1208" lon="4.4692106">
        <ele>3700.0</ele>
        <time>2020-09-21T13:29:41Z</time>
      </trkpt>
      <trkpt lat="52.12083" lon="4.469232">
        <ele>3700.0</ele>
        <time>2020-09-21T13:29:42Z</time>
      </trkpt>
      <trkpt lat="52.12086" lon="4.469252">
        <ele>3700.0</ele>
        <time>2020-09-21T13:29:43Z</time>
      </trkpt>
      <trkpt lat="52.12089" lon="4.469273">
        <ele>3700.0</ele>
        <time>2020-09-21T13:29:44Z</time>
      </trkpt>
      <trkpt lat="52.120926" lon="4.4692936">
        <ele>3700.0</ele>
        <time>2020-09-21T13:29:45Z</time>
      </trkpt>
      <trkpt lat="52.12096" lon="4.469313">
        <ele>3700.0</ele>
        <time>2020-09-21T13:29:46Z</time>
      </trkpt>
      <trkpt lat="52.12099" lon="4.4693317">
        <ele>3700.0</ele>
        <time>2020-09-21T13:29:47Z</time>
      </trkpt>
      <trkpt lat="52.121025" lon="4.4693475">
        <ele>3700.0</ele>
        <time>2020-09-21T13:29:48Z</time>
      </trkpt>
      <trkpt lat="52.121056" lon="4.46936">
        <ele>3700.0</ele>
        <time>2020-09-21T13:29:49Z</time>
      </trkpt>
      <trkpt lat="52.121098" lon="4.46937">
        <ele>3700.0</ele>
        <time>2020-09-21T13:29:50Z</time>
      </trkpt>
      <trkpt lat="52.121136" lon="4.4693756">
        <ele>3700.0</ele>
        <time>2020-09-21T13:29:51Z</time>
      </trkpt>
      <trkpt lat="52.12117" lon="4.4693785">
        <ele>3700.0</ele>
        <time>2020-09-21T13:29:52Z</time>
      </trkpt>
      <trkpt lat="52.1212" lon="4.469375">
        <ele>3700.0</ele>
        <time>2020-09-21T13:29:53Z</time>
      </trkpt>
      <trkpt lat="52.121235" lon="4.4693666">
        <ele>3700.0</ele>
        <time>2020-09-21T13:29:54Z</time>
      </trkpt>
      <trkpt lat="52.121265" lon="4.469351">
        <ele>3700.0</ele>
        <time>2020-09-21T13:29:56Z</time>
      </trkpt>
      <trkpt lat="52.121304" lon="4.4693284">
        <ele>3700.0</ele>
        <time>2020-09-21T13:29:56Z</time>
      </trkpt>
      <trkpt lat="52.121334" lon="4.469299">
        <ele>3700.0</ele>
        <time>2020-09-21T13:29:57Z</time>
      </trkpt>
      <trkpt lat="52.121365" lon="4.4692655">
        <ele>3700.0</ele>
        <time>2020-09-21T13:29:58Z</time>
      </trkpt>
      <trkpt lat="52.121395" lon="4.469232">
        <ele>3700.0</ele>
        <time>2020-09-21T13:29:59Z</time>
      </trkpt>
      <trkpt lat="52.121426" lon="4.469193">
        <ele>3700.0</ele>
        <time>2020-09-21T13:30:00Z</time>
      </trkpt>
      <trkpt lat="52.121452" lon="4.4691534">
        <ele>3700.0</ele>
        <time>2020-09-21T13:30:01Z</time>
      </trkpt>
      <trkpt lat="52.121483" lon="4.4691114">
        <ele>3700.0</ele>
        <time>2020-09-21T13:30:02Z</time>
      </trkpt>
      <trkpt lat="52.121513" lon="4.469068">
        <ele>3700.0</ele>
        <time>2020-09-21T13:30:03Z</time>
      </trkpt>
      <trkpt lat="52.12154" lon="4.469026">
        <ele>3700.0</ele>
        <time>2020-09-21T13:30:04Z</time>
      </trkpt>
      <trkpt lat="52.121563" lon="4.4689803">
        <ele>3700.0</ele>
        <time>2020-09-21T13:30:05Z</time>
      </trkpt>
      <trkpt lat="52.121593" lon="4.4689364">
        <ele>3700.0</ele>
        <time>2020-09-21T13:30:06Z</time>
      </trkpt>
      <trkpt lat="52.12162" lon="4.468892">
        <ele>3700.0</ele>
        <time>2020-09-21T13:30:07Z</time>
      </trkpt>
      <trkpt lat="52.121647" lon="4.46885">
        <ele>3700.0</ele>
        <time>2020-09-21T13:30:08Z</time>
      </trkpt>
      <trkpt lat="52.121674" lon="4.468802">
        <ele>3700.0</ele>
        <time>2020-09-21T13:30:09Z</time>
      </trkpt>
      <trkpt lat="52.121696" lon="4.4687524">
        <ele>3700.0</ele>
        <time>2020-09-21T13:30:10Z</time>
      </trkpt>
      <trkpt lat="52.121723" lon="4.4687023">
        <ele>3700.0</ele>
        <time>2020-09-21T13:30:11Z</time>
      </trkpt>
      <trkpt lat="52.12175" lon="4.468658">
        <ele>3700.0</ele>
        <time>2020-09-21T13:30:13Z</time>
      </trkpt>
      <trkpt lat="52.121773" lon="4.4686146">
        <ele>3700.0</ele>
        <time>2020-09-21T13:30:13Z</time>
      </trkpt>
      <trkpt lat="52.1218" lon="4.468571">
        <ele>3700.0</ele>
        <time>2020-09-21T13:30:14Z</time>
      </trkpt>
      <trkpt lat="52.12182" lon="4.4685283">
        <ele>3700.0</ele>
        <time>2020-09-21T13:30:15Z</time>
      </trkpt>
      <trkpt lat="52.121845" lon="4.4684825">
        <ele>3700.0</ele>
        <time>2020-09-21T13:30:16Z</time>
      </trkpt>
      <trkpt lat="52.12186" lon="4.468439">
        <ele>3700.0</ele>
        <time>2020-09-21T13:30:17Z</time>
      </trkpt>
      <trkpt lat="52.121872" lon="4.468399">
        <ele>3700.0</ele>
        <time>2020-09-21T13:30:18Z</time>
      </trkpt>
      <trkpt lat="52.121876" lon="4.468352">
        <ele>3700.0</ele>
        <time>2020-09-21T13:30:19Z</time>
      </trkpt>
      <trkpt lat="52.121872" lon="4.468306">
        <ele>3700.0</ele>
        <time>2020-09-21T13:30:21Z</time>
      </trkpt>
      <trkpt lat="52.12186" lon="4.4682593">
        <ele>3700.0</ele>
        <time>2020-09-21T13:30:21Z</time>
      </trkpt>
      <trkpt lat="52.12185" lon="4.4682155">
        <ele>3700.0</ele>
        <time>2020-09-21T13:30:22Z</time>
      </trkpt>
      <trkpt lat="52.121834" lon="4.4681706">
        <ele>3700.0</ele>
        <time>2020-09-21T13:30:23Z</time>
      </trkpt>
      <trkpt lat="52.12182" lon="4.4681206">
        <ele>3700.0</ele>
        <time>2020-09-21T13:30:24Z</time>
      </trkpt>
      <trkpt lat="52.1218" lon="4.4680696">
        <ele>3700.0</ele>
        <time>2020-09-21T13:30:25Z</time>
      </trkpt>
      <trkpt lat="52.12178" lon="4.46802">
        <ele>3700.0</ele>
        <time>2020-09-21T13:30:26Z</time>
      </trkpt>
      <trkpt lat="52.121765" lon="4.4679723">
        <ele>3700.0</ele>
        <time>2020-09-21T13:30:27Z</time>
      </trkpt>
      <trkpt lat="52.121742" lon="4.4679246">
        <ele>3700.0</ele>
        <time>2020-09-21T13:30:28Z</time>
      </trkpt>
      <trkpt lat="52.121723" lon="4.467872">
        <ele>3700.0</ele>
        <time>2020-09-21T13:30:29Z</time>
      </trkpt>
      <trkpt lat="52.121704" lon="4.4678206">
        <ele>3700.0</ele>
        <time>2020-09-21T13:30:31Z</time>
      </trkpt>
      <trkpt lat="52.12168" lon="4.4677687">
        <ele>3700.0</ele>
        <time>2020-09-21T13:30:31Z</time>
      </trkpt>
      <trkpt lat="52.121662" lon="4.467719">
        <ele>3700.0</ele>
        <time>2020-09-21T13:30:32Z</time>
      </trkpt>
      <trkpt lat="52.12164" lon="4.4676676">
        <ele>3700.0</ele>
        <time>2020-09-21T13:30:33Z</time>
      </trkpt>
      <trkpt lat="52.12162" lon="4.4676104">
        <ele>3700.0</ele>
        <time>2020-09-21T13:30:34Z</time>
      </trkpt>
      <trkpt lat="52.1216" lon="4.467553">
        <ele>3700.0</ele>
        <time>2020-09-21T13:30:35Z</time>
      </trkpt>
      <trkpt lat="52.12159" lon="4.467496">
        <ele>3700.0</ele>
        <time>2020-09-21T13:30:36Z</time>
      </trkpt>
      <trkpt lat="52.12158" lon="4.467439">
        <ele>3700.0</ele>
        <time>2020-09-21T13:30:37Z</time>
      </trkpt>
      <trkpt lat="52.12158" lon="4.467386">
        <ele>3700.0</ele>
        <time>2020-09-21T13:30:38Z</time>
      </trkpt>
      <trkpt lat="52.121586" lon="4.4673347">
        <ele>3700.0</ele>
        <time>2020-09-21T13:30:39Z</time>
      </trkpt>
      <trkpt lat="52.121593" lon="4.4672847">
        <ele>3700.0</ele>
        <time>2020-09-21T13:30:40Z</time>
      </trkpt>
      <trkpt lat="52.121605" lon="4.4672346">
        <ele>3700.0</ele>
        <time>2020-09-21T13:30:41Z</time>
      </trkpt>
      <trkpt lat="52.12162" lon="4.467184">
        <ele>3700.0</ele>
        <time>2020-09-21T13:30:42Z</time>
      </trkpt>
      <trkpt lat="52.121635" lon="4.4671335">
        <ele>3700.0</ele>
        <time>2020-09-21T13:30:43Z</time>
      </trkpt>
      <trkpt lat="52.12165" lon="4.4670835">
        <ele>3700.0</ele>
        <time>2020-09-21T13:30:44Z</time>
      </trkpt>
      <trkpt lat="52.121674" lon="4.467034">
        <ele>3700.0</ele>
        <time>2020-09-21T13:30:45Z</time>
      </trkpt>
      <trkpt lat="52.121693" lon="4.466984">
        <ele>3700.0</ele>
        <time>2020-09-21T13:30:46Z</time>
      </trkpt>
      <trkpt lat="52.121708" lon="4.466939">
        <ele>3700.0</ele>
        <time>2020-09-21T13:30:47Z</time>
      </trkpt>
      <trkpt lat="52.121727" lon="4.4668937">
        <ele>3700.0</ele>
        <time>2020-09-21T13:30:49Z</time>
      </trkpt>
      <trkpt lat="52.121742" lon="4.4668446">
        <ele>3700.0</ele>
        <time>2020-09-21T13:30:49Z</time>
      </trkpt>
      <trkpt lat="52.121765" lon="4.4667964">
        <ele>3700.0</ele>
        <time>2020-09-21T13:30:50Z</time>
      </trkpt>
      <trkpt lat="52.12178" lon="4.4667463">
        <ele>3700.0</ele>
        <time>2020-09-21T13:30:51Z</time>
      </trkpt>
      <trkpt lat="52.1218" lon="4.4666977">
        <ele>3700.0</ele>
        <time>2020-09-21T13:30:52Z</time>
      </trkpt>
      <trkpt lat="52.121815" lon="4.466651">
        <ele>3700.0</ele>
        <time>2020-09-21T13:30:53Z</time>
      </trkpt>
      <trkpt lat="52.121834" lon="4.4666076">
        <ele>3700.0</ele>
        <time>2020-09-21T13:30:54Z</time>
      </trkpt>
      <trkpt lat="52.12185" lon="4.4665666">
        <ele>3700.0</ele>
        <time>2020-09-21T13:30:55Z</time>
      </trkpt>
      <trkpt lat="52.121872" lon="4.466531">
        <ele>3700.0</ele>
        <time>2020-09-21T13:30:56Z</time>
      </trkpt>
      <trkpt lat="52.12189" lon="4.466502">
        <ele>3700.0</ele>
        <time>2020-09-21T13:30:57Z</time>
      </trkpt>
      <trkpt lat="52.121914" lon="4.466485">
        <ele>3700.0</ele>
        <time>2020-09-21T13:30:58Z</time>
      </trkpt>
      <trkpt lat="52.121937" lon="4.4664807">
        <ele>3700.0</ele>
        <time>2020-09-21T13:30:59Z</time>
      </trkpt>
      <trkpt lat="52.12196" lon="4.466486">
        <ele>3700.0</ele>
        <time>2020-09-21T13:31:00Z</time>
      </trkpt>
      <trkpt lat="52.121983" lon="4.466494">
        <ele>3700.0</ele>
        <time>2020-09-21T13:31:01Z</time>
      </trkpt>
      <trkpt lat="52.12201" lon="4.466503">
        <ele>3700.0</ele>
        <time>2020-09-21T13:31:02Z</time>
      </trkpt>
      <trkpt lat="52.12204" lon="4.46651">
        <ele>3700.0</ele>
        <time>2020-09-21T13:31:03Z</time>
      </trkpt>
      <trkpt lat="52.12207" lon="4.466513">
        <ele>3700.0</ele>
        <time>2020-09-21T13:31:04Z</time>
      </trkpt>
      <trkpt lat="52.12211" lon="4.466512">
        <ele>3700.0</ele>
        <time>2020-09-21T13:31:05Z</time>
      </trkpt>
      <trkpt lat="52.12214" lon="4.4665074">
        <ele>3700.0</ele>
        <time>2020-09-21T13:31:06Z</time>
      </trkpt>
      <trkpt lat="52.122173" lon="4.4664993">
        <ele>3700.0</ele>
        <time>2020-09-21T13:31:07Z</time>
      </trkpt>
      <trkpt lat="52.122204" lon="4.4664893">
        <ele>3700.0</ele>
        <time>2020-09-21T13:31:08Z</time>
      </trkpt>
      <trkpt lat="52.122246" lon="4.4664774">
        <ele>3700.0</ele>
        <time>2020-09-21T13:31:09Z</time>
      </trkpt>
      <trkpt lat="52.12228" lon="4.4664683">
        <ele>3700.0</ele>
        <time>2020-09-21T13:31:10Z</time>
      </trkpt>
      <trkpt lat="52.12232" lon="4.466461">
        <ele>3700.0</ele>
        <time>2020-09-21T13:31:11Z</time>
      </trkpt>
      <trkpt lat="52.12235" lon="4.466456">
        <ele>3700.0</ele>
        <time>2020-09-21T13:31:12Z</time>
      </trkpt>
      <trkpt lat="52.12237" lon="4.4664516">
        <ele>3700.0</ele>
        <time>2020-09-21T13:31:13Z</time>
      </trkpt>
      <trkpt lat="52.122402" lon="4.4664483">
        <ele>3700.0</ele>
        <time>2020-09-21T13:31:14Z</time>
      </trkpt>
      <trkpt lat="52.12243" lon="4.466446">
        <ele>3700.0</ele>
        <time>2020-09-21T13:31:15Z</time>
      </trkpt>
      <trkpt lat="52.12245" lon="4.466442">
        <ele>3700.0</ele>
        <time>2020-09-21T13:31:16Z</time>
      </trkpt>
      <trkpt lat="52.122467" lon="4.4664373">
        <ele>3700.0</ele>
        <time>2020-09-21T13:31:17Z</time>
      </trkpt>
      <trkpt lat="52.122482" lon="4.466431">
        <ele>3700.0</ele>
        <time>2020-09-21T13:31:18Z</time>
      </trkpt>
      <trkpt lat="52.122498" lon="4.466425">
        <ele>3700.0</ele>
        <time>2020-09-21T13:31:20Z</time>
      </trkpt>
      <trkpt lat="52.122505" lon="4.466424">
        <ele>3700.0</ele>
        <time>2020-09-21T13:31:20Z</time>
      </trkpt>
      <trkpt lat="52.122513" lon="4.4664283">
        <ele>3700.0</ele>
        <time>2020-09-21T13:31:21Z</time>
      </trkpt>
      <trkpt lat="52.12252" lon="4.4664383">
        <ele>3700.0</ele>
        <time>2020-09-21T13:31:22Z</time>
      </trkpt>
      <trkpt lat="52.122528" lon="4.466453">
        <ele>3700.0</ele>
        <time>2020-09-21T13:31:23Z</time>
      </trkpt>
      <trkpt lat="52.12253" lon="4.46647">
        <ele>3700.0</ele>
        <time>2020-09-21T13:31:24Z</time>
      </trkpt>
      <trkpt lat="52.122543" lon="4.466487">
        <ele>3700.0</ele>
        <time>2020-09-21T13:31:25Z</time>
      </trkpt>
      <trkpt lat="52.12256" lon="4.466501">
        <ele>3700.0</ele>
        <time>2020-09-21T13:31:26Z</time>
      </trkpt>
      <trkpt lat="52.122566" lon="4.466509">
        <ele>3700.0</ele>
        <time>2020-09-21T13:31:27Z</time>
      </trkpt>
      <trkpt lat="52.12258" lon="4.466509">
        <ele>3700.0</ele>
        <time>2020-09-21T13:31:28Z</time>
      </trkpt>
      <trkpt lat="52.122597" lon="4.466504">
        <ele>3700.0</ele>
        <time>2020-09-21T13:31:29Z</time>
      </trkpt>
      <trkpt lat="52.12262" lon="4.4664984">
        <ele>3800.0</ele>
        <time>2020-09-21T13:31:30Z</time>
      </trkpt>
      <trkpt lat="52.12264" lon="4.466496">
        <ele>3800.0</ele>
        <time>2020-09-21T13:31:31Z</time>
      </trkpt>
      <trkpt lat="52.122665" lon="4.466497">
        <ele>3800.0</ele>
        <time>2020-09-21T13:31:32Z</time>
      </trkpt>
      <trkpt lat="52.122692" lon="4.466502">
        <ele>3800.0</ele>
        <time>2020-09-21T13:31:33Z</time>
      </trkpt>
      <trkpt lat="52.122715" lon="4.4665127">
        <ele>3800.0</ele>
        <time>2020-09-21T13:31:34Z</time>
      </trkpt>
      <trkpt lat="52.12274" lon="4.4665246">
        <ele>3800.0</ele>
        <time>2020-09-21T13:31:35Z</time>
      </trkpt>
      <trkpt lat="52.12277" lon="4.4665365">
        <ele>3800.0</ele>
        <time>2020-09-21T13:31:36Z</time>
      </trkpt>
      <trkpt lat="52.12279" lon="4.466551">
        <ele>3800.0</ele>
        <time>2020-09-21T13:31:38Z</time>
      </trkpt>
      <trkpt lat="52.12282" lon="4.4665666">
        <ele>3800.0</ele>
        <time>2020-09-21T13:31:38Z</time>
      </trkpt>
      <trkpt lat="52.12286" lon="4.4665823">
        <ele>3800.0</ele>
        <time>2020-09-21T13:31:39Z</time>
      </trkpt>
      <trkpt lat="52.122894" lon="4.4665985">
        <ele>3800.0</ele>
        <time>2020-09-21T13:31:41Z</time>
      </trkpt>
      <trkpt lat="52.122932" lon="4.466616">
        <ele>3800.0</ele>
        <time>2020-09-21T13:31:41Z</time>
      </trkpt>
      <trkpt lat="52.122967" lon="4.4666348">
        <ele>3800.0</ele>
        <time>2020-09-21T13:31:42Z</time>
      </trkpt>
      <trkpt lat="52.123" lon="4.466654">
        <ele>3800.0</ele>
        <time>2020-09-21T13:31:43Z</time>
      </trkpt>
      <trkpt lat="52.12304" lon="4.4666743">
        <ele>3800.0</ele>
        <time>2020-09-21T13:31:44Z</time>
      </trkpt>
      <trkpt lat="52.12308" lon="4.466695">
        <ele>3800.0</ele>
        <time>2020-09-21T13:31:45Z</time>
      </trkpt>
      <trkpt lat="52.123116" lon="4.466712">
        <ele>3800.0</ele>
        <time>2020-09-21T13:31:46Z</time>
      </trkpt>
      <trkpt lat="52.123158" lon="4.466727">
        <ele>3800.0</ele>
        <time>2020-09-21T13:31:47Z</time>
      </trkpt>
      <trkpt lat="52.123196" lon="4.4667397">
        <ele>3800.0</ele>
        <time>2020-09-21T13:31:48Z</time>
      </trkpt>
      <trkpt lat="52.123238" lon="4.466751">
        <ele>3800.0</ele>
        <time>2020-09-21T13:31:49Z</time>
      </trkpt>
      <trkpt lat="52.123276" lon="4.4667606">
        <ele>3800.0</ele>
        <time>2020-09-21T13:31:50Z</time>
      </trkpt>
      <trkpt lat="52.12331" lon="4.466771">
        <ele>3800.0</ele>
        <time>2020-09-21T13:31:51Z</time>
      </trkpt>
      <trkpt lat="52.123352" lon="4.4667835">
        <ele>3800.0</ele>
        <time>2020-09-21T13:31:52Z</time>
      </trkpt>
      <trkpt lat="52.12339" lon="4.4667983">
        <ele>3800.0</ele>
        <time>2020-09-21T13:31:53Z</time>
      </trkpt>
      <trkpt lat="52.12343" lon="4.4668136">
        <ele>3800.0</ele>
        <time>2020-09-21T13:31:54Z</time>
      </trkpt>
      <trkpt lat="52.123463" lon="4.4668293">
        <ele>3800.0</ele>
        <time>2020-09-21T13:31:55Z</time>
      </trkpt>
      <trkpt lat="52.1235" lon="4.46685">
        <ele>3800.0</ele>
        <time>2020-09-21T13:31:56Z</time>
      </trkpt>
      <trkpt lat="52.123535" lon="4.4668717">
        <ele>3800.0</ele>
        <time>2020-09-21T13:31:57Z</time>
      </trkpt>
      <trkpt lat="52.12357" lon="4.4668937">
        <ele>3800.0</ele>
        <time>2020-09-21T13:31:59Z</time>
      </trkpt>
      <trkpt lat="52.123608" lon="4.466912">
        <ele>3800.0</ele>
        <time>2020-09-21T13:31:59Z</time>
      </trkpt>
      <trkpt lat="52.123642" lon="4.466924">
        <ele>3800.0</ele>
        <time>2020-09-21T13:32:00Z</time>
      </trkpt>
      <trkpt lat="52.123672" lon="4.466926">
        <ele>3800.0</ele>
        <time>2020-09-21T13:32:01Z</time>
      </trkpt>
      <trkpt lat="52.1237" lon="4.4669156">
        <ele>3800.0</ele>
        <time>2020-09-21T13:32:02Z</time>
      </trkpt>
      <trkpt lat="52.12372" lon="4.466892">
        <ele>3800.0</ele>
        <time>2020-09-21T13:32:03Z</time>
      </trkpt>
      <trkpt lat="52.123734" lon="4.4668584">
        <ele>3800.0</ele>
        <time>2020-09-21T13:32:04Z</time>
      </trkpt>
      <trkpt lat="52.12375" lon="4.4668164">
        <ele>3800.0</ele>
        <time>2020-09-21T13:32:05Z</time>
      </trkpt>
      <trkpt lat="52.12376" lon="4.4667687">
        <ele>3800.0</ele>
        <time>2020-09-21T13:32:06Z</time>
      </trkpt>
      <trkpt lat="52.12377" lon="4.4667172">
        <ele>3800.0</ele>
        <time>2020-09-21T13:32:07Z</time>
      </trkpt>
      <trkpt lat="52.123775" lon="4.4666643">
        <ele>3800.0</ele>
        <time>2020-09-21T13:32:09Z</time>
      </trkpt>
      <trkpt lat="52.123787" lon="4.466615">
        <ele>3800.0</ele>
        <time>2020-09-21T13:32:09Z</time>
      </trkpt>
      <trkpt lat="52.1238" lon="4.466574">
        <ele>3800.0</ele>
        <time>2020-09-21T13:32:10Z</time>
      </trkpt>
      <trkpt lat="52.123817" lon="4.4665413">
        <ele>3800.0</ele>
        <time>2020-09-21T13:32:11Z</time>
      </trkpt>
      <trkpt lat="52.123837" lon="4.4665174">
        <ele>3800.0</ele>
        <time>2020-09-21T13:32:12Z</time>
      </trkpt>
      <trkpt lat="52.123863" lon="4.466504">
        <ele>3800.0</ele>
        <time>2020-09-21T13:32:13Z</time>
      </trkpt>
      <trkpt lat="52.123894" lon="4.4664984">
        <ele>3800.0</ele>
        <time>2020-09-21T13:32:14Z</time>
      </trkpt>
      <trkpt lat="52.12392" lon="4.466487">
        <ele>3800.0</ele>
        <time>2020-09-21T13:32:15Z</time>
      </trkpt>
      <trkpt lat="52.12395" lon="4.466471">
        <ele>3800.0</ele>
        <time>2020-09-21T13:32:16Z</time>
      </trkpt>
      <trkpt lat="52.12398" lon="4.466452">
        <ele>3800.0</ele>
        <time>2020-09-21T13:32:17Z</time>
      </trkpt>
      <trkpt lat="52.12401" lon="4.466431">
        <ele>3800.0</ele>
        <time>2020-09-21T13:32:18Z</time>
      </trkpt>
      <trkpt lat="52.12404" lon="4.4664083">
        <ele>3800.0</ele>
        <time>2020-09-21T13:32:19Z</time>
      </trkpt>
      <trkpt lat="52.12406" lon="4.4663854">
        <ele>3800.0</ele>
        <time>2020-09-21T13:32:20Z</time>
      </trkpt>
      <trkpt lat="52.124092" lon="4.466363">
        <ele>3800.0</ele>
        <time>2020-09-21T13:32:21Z</time>
      </trkpt>
      <trkpt lat="52.124123" lon="4.466343">
        <ele>3800.0</ele>
        <time>2020-09-21T13:32:22Z</time>
      </trkpt>
      <trkpt lat="52.12416" lon="4.4663224">
        <ele>3800.0</ele>
        <time>2020-09-21T13:32:23Z</time>
      </trkpt>
      <trkpt lat="52.12419" lon="4.4663033">
        <ele>3800.0</ele>
        <time>2020-09-21T13:32:24Z</time>
      </trkpt>
      <trkpt lat="52.124226" lon="4.4662867">
        <ele>3800.0</ele>
        <time>2020-09-21T13:32:25Z</time>
      </trkpt>
      <trkpt lat="52.124264" lon="4.4662757">
        <ele>3800.0</ele>
        <time>2020-09-21T13:32:26Z</time>
      </trkpt>
      <trkpt lat="52.124294" lon="4.46627">
        <ele>3800.0</ele>
        <time>2020-09-21T13:32:27Z</time>
      </trkpt>
      <trkpt lat="52.124325" lon="4.466267">
        <ele>3800.0</ele>
        <time>2020-09-21T13:32:28Z</time>
      </trkpt>
      <trkpt lat="52.124355" lon="4.466261">
        <ele>3800.0</ele>
        <time>2020-09-21T13:32:30Z</time>
      </trkpt>
      <trkpt lat="52.124386" lon="4.4662485">
        <ele>3800.0</ele>
        <time>2020-09-21T13:32:30Z</time>
      </trkpt>
      <trkpt lat="52.124416" lon="4.4662337">
        <ele>3800.0</ele>
        <time>2020-09-21T13:32:31Z</time>
      </trkpt>
      <trkpt lat="52.124447" lon="4.4662185">
        <ele>3800.0</ele>
        <time>2020-09-21T13:32:32Z</time>
      </trkpt>
      <trkpt lat="52.124474" lon="4.4662056">
        <ele>3800.0</ele>
        <time>2020-09-21T13:32:33Z</time>
      </trkpt>
      <trkpt lat="52.124504" lon="4.4661975">
        <ele>3800.0</ele>
        <time>2020-09-21T13:32:34Z</time>
      </trkpt>
      <trkpt lat="52.124535" lon="4.4661927">
        <ele>3800.0</ele>
        <time>2020-09-21T13:32:35Z</time>
      </trkpt>
      <trkpt lat="52.124557" lon="4.4661884">
        <ele>3800.0</ele>
        <time>2020-09-21T13:32:36Z</time>
      </trkpt>
      <trkpt lat="52.12459" lon="4.466184">
        <ele>3800.0</ele>
        <time>2020-09-21T13:32:37Z</time>
      </trkpt>
      <trkpt lat="52.124622" lon="4.4661765">
        <ele>3800.0</ele>
        <time>2020-09-21T13:32:38Z</time>
      </trkpt>
      <trkpt lat="52.124645" lon="4.46617">
        <ele>3800.0</ele>
        <time>2020-09-21T13:32:39Z</time>
      </trkpt>
      <trkpt lat="52.124672" lon="4.46616">
        <ele>3800.0</ele>
        <time>2020-09-21T13:32:41Z</time>
      </trkpt>
      <trkpt lat="52.124702" lon="4.466146">
        <ele>3800.0</ele>
        <time>2020-09-21T13:32:41Z</time>
      </trkpt>
      <trkpt lat="52.12473" lon="4.4661307">
        <ele>3800.0</ele>
        <time>2020-09-21T13:32:42Z</time>
      </trkpt>
      <trkpt lat="52.124752" lon="4.466108">
        <ele>3800.0</ele>
        <time>2020-09-21T13:32:43Z</time>
      </trkpt>
      <trkpt lat="52.12478" lon="4.466076">
        <ele>3800.0</ele>
        <time>2020-09-21T13:32:44Z</time>
      </trkpt>
      <trkpt lat="52.124805" lon="4.466039">
        <ele>3800.0</ele>
        <time>2020-09-21T13:32:45Z</time>
      </trkpt>
      <trkpt lat="52.124832" lon="4.4660015">
        <ele>3800.0</ele>
        <time>2020-09-21T13:32:46Z</time>
      </trkpt>
      <trkpt lat="52.124855" lon="4.4659615">
        <ele>3800.0</ele>
        <time>2020-09-21T13:32:48Z</time>
      </trkpt>
      <trkpt lat="52.124878" lon="4.465921">
        <ele>3800.0</ele>
        <time>2020-09-21T13:32:48Z</time>
      </trkpt>
      <trkpt lat="52.124897" lon="4.465882">
        <ele>3800.0</ele>
        <time>2020-09-21T13:32:49Z</time>
      </trkpt>
      <trkpt lat="52.124916" lon="4.4658413">
        <ele>3800.0</ele>
        <time>2020-09-21T13:32:50Z</time>
      </trkpt>
      <trkpt lat="52.12494" lon="4.4658">
        <ele>3800.0</ele>
        <time>2020-09-21T13:32:51Z</time>
      </trkpt>
      <trkpt lat="52.124954" lon="4.465758">
        <ele>3800.0</ele>
        <time>2020-09-21T13:32:52Z</time>
      </trkpt>
      <trkpt lat="52.124966" lon="4.4657197">
        <ele>3800.0</ele>
        <time>2020-09-21T13:32:53Z</time>
      </trkpt>
      <trkpt lat="52.12497" lon="4.4656835">
        <ele>3800.0</ele>
        <time>2020-09-21T13:32:55Z</time>
      </trkpt>
      <trkpt lat="52.124966" lon="4.46565">
        <ele>3800.0</ele>
        <time>2020-09-21T13:32:55Z</time>
      </trkpt>
      <trkpt lat="52.124954" lon="4.465618">
        <ele>3800.0</ele>
        <time>2020-09-21T13:32:56Z</time>
      </trkpt>
      <trkpt lat="52.12493" lon="4.4655876">
        <ele>3800.0</ele>
        <time>2020-09-21T13:32:57Z</time>
      </trkpt>
      <trkpt lat="52.12491" lon="4.4655614">
        <ele>3800.0</ele>
        <time>2020-09-21T13:32:58Z</time>
      </trkpt>
      <trkpt lat="52.124878" lon="4.4655313">
        <ele>3800.0</ele>
        <time>2020-09-21T13:32:59Z</time>
      </trkpt>
      <trkpt lat="52.124847" lon="4.4655004">
        <ele>3800.0</ele>
        <time>2020-09-21T13:33:00Z</time>
      </trkpt>
      <trkpt lat="52.12482" lon="4.4654665">
        <ele>3800.0</ele>
        <time>2020-09-21T13:33:01Z</time>
      </trkpt>
      <trkpt lat="52.12479" lon="4.4654346">
        <ele>3800.0</ele>
        <time>2020-09-21T13:33:02Z</time>
      </trkpt>
      <trkpt lat="52.124763" lon="4.4654045">
        <ele>3800.0</ele>
        <time>2020-09-21T13:33:03Z</time>
      </trkpt>
      <trkpt lat="52.124733" lon="4.465377">
        <ele>3800.0</ele>
        <time>2020-09-21T13:33:05Z</time>
      </trkpt>
      <trkpt lat="52.124706" lon="4.465349">
        <ele>3800.0</ele>
        <time>2020-09-21T13:33:05Z</time>
      </trkpt>
      <trkpt lat="52.124683" lon="4.465322">
        <ele>3800.0</ele>
        <time>2020-09-21T13:33:06Z</time>
      </trkpt>
      <trkpt lat="52.124657" lon="4.4652967">
        <ele>3800.0</ele>
        <time>2020-09-21T13:33:07Z</time>
      </trkpt>
      <trkpt lat="52.12463" lon="4.465273">
        <ele>3800.0</ele>
        <time>2020-09-21T13:33:08Z</time>
      </trkpt>
      <trkpt lat="52.124607" lon="4.465247">
        <ele>3800.0</ele>
        <time>2020-09-21T13:33:09Z</time>
      </trkpt>
      <trkpt lat="52.12458" lon="4.4652195">
        <ele>3800.0</ele>
        <time>2020-09-21T13:33:10Z</time>
      </trkpt>
      <trkpt lat="52.124554" lon="4.4651885">
        <ele>3800.0</ele>
        <time>2020-09-21T13:33:11Z</time>
      </trkpt>
      <trkpt lat="52.124527" lon="4.465159">
        <ele>3800.0</ele>
        <time>2020-09-21T13:33:12Z</time>
      </trkpt>
      <trkpt lat="52.124508" lon="4.465127">
        <ele>3800.0</ele>
        <time>2020-09-21T13:33:13Z</time>
      </trkpt>
      <trkpt lat="52.12448" lon="4.465089">
        <ele>3800.0</ele>
        <time>2020-09-21T13:33:14Z</time>
      </trkpt>
      <trkpt lat="52.124466" lon="4.465052">
        <ele>3800.0</ele>
        <time>2020-09-21T13:33:16Z</time>
      </trkpt>
      <trkpt lat="52.124447" lon="4.465017">
        <ele>3800.0</ele>
        <time>2020-09-21T13:33:16Z</time>
      </trkpt>
      <trkpt lat="52.12442" lon="4.4649825">
        <ele>3800.0</ele>
        <time>2020-09-21T13:33:17Z</time>
      </trkpt>
      <trkpt lat="52.1244" lon="4.4649477">
        <ele>3800.0</ele>
        <time>2020-09-21T13:33:18Z</time>
      </trkpt>
      <trkpt lat="52.12437" lon="4.46491">
        <ele>3800.0</ele>
        <time>2020-09-21T13:33:19Z</time>
      </trkpt>
      <trkpt lat="52.124344" lon="4.464874">
        <ele>3800.0</ele>
        <time>2020-09-21T13:33:20Z</time>
      </trkpt>
      <trkpt lat="52.124313" lon="4.464837">
        <ele>3800.0</ele>
        <time>2020-09-21T13:33:21Z</time>
      </trkpt>
      <trkpt lat="52.124287" lon="4.4648004">
        <ele>3800.0</ele>
        <time>2020-09-21T13:33:22Z</time>
      </trkpt>
      <trkpt lat="52.124264" lon="4.464766">
        <ele>3800.0</ele>
        <time>2020-09-21T13:33:23Z</time>
      </trkpt>
      <trkpt lat="52.124237" lon="4.464728">
        <ele>3800.0</ele>
        <time>2020-09-21T13:33:24Z</time>
      </trkpt>
      <trkpt lat="52.124218" lon="4.4646916">
        <ele>3800.0</ele>
        <time>2020-09-21T13:33:26Z</time>
      </trkpt>
      <trkpt lat="52.12419" lon="4.464655">
        <ele>3800.0</ele>
        <time>2020-09-21T13:33:26Z</time>
      </trkpt>
      <trkpt lat="52.12417" lon="4.464624">
        <ele>3800.0</ele>
        <time>2020-09-21T13:33:27Z</time>
      </trkpt>
      <trkpt lat="52.12415" lon="4.4645925">
        <ele>3800.0</ele>
        <time>2020-09-21T13:33:28Z</time>
      </trkpt>
      <trkpt lat="52.12413" lon="4.4645596">
        <ele>3800.0</ele>
        <time>2020-09-21T13:33:29Z</time>
      </trkpt>
      <trkpt lat="52.124107" lon="4.464528">
        <ele>3800.0</ele>
        <time>2020-09-21T13:33:30Z</time>
      </trkpt>
      <trkpt lat="52.12409" lon="4.464496">
        <ele>3800.0</ele>
        <time>2020-09-21T13:33:31Z</time>
      </trkpt>
      <trkpt lat="52.12407" lon="4.4644647">
        <ele>3800.0</ele>
        <time>2020-09-21T13:33:32Z</time>
      </trkpt>
      <trkpt lat="52.124043" lon="4.464434">
        <ele>3800.0</ele>
        <time>2020-09-21T13:33:33Z</time>
      </trkpt>
      <trkpt lat="52.124023" lon="4.4643993">
        <ele>3800.0</ele>
        <time>2020-09-21T13:33:34Z</time>
      </trkpt>
      <trkpt lat="52.123997" lon="4.464365">
        <ele>3800.0</ele>
        <time>2020-09-21T13:33:35Z</time>
      </trkpt>
      <trkpt lat="52.12397" lon="4.4643307">
        <ele>3800.0</ele>
        <time>2020-09-21T13:33:36Z</time>
      </trkpt>
      <trkpt lat="52.123943" lon="4.4642944">
        <ele>3800.0</ele>
        <time>2020-09-21T13:33:37Z</time>
      </trkpt>
      <trkpt lat="52.123913" lon="4.4642587">
        <ele>3800.0</ele>
        <time>2020-09-21T13:33:38Z</time>
      </trkpt>
      <trkpt lat="52.12389" lon="4.4642234">
        <ele>3800.0</ele>
        <time>2020-09-21T13:33:39Z</time>
      </trkpt>
      <trkpt lat="52.123863" lon="4.4641895">
        <ele>3800.0</ele>
        <time>2020-09-21T13:33:40Z</time>
      </trkpt>
      <trkpt lat="52.123837" lon="4.4641576">
        <ele>3800.0</ele>
        <time>2020-09-21T13:33:41Z</time>
      </trkpt>
      <trkpt lat="52.123806" lon="4.4641275">
        <ele>3800.0</ele>
        <time>2020-09-21T13:33:42Z</time>
      </trkpt>
      <trkpt lat="52.12378" lon="4.4640965">
        <ele>3800.0</ele>
        <time>2020-09-21T13:33:43Z</time>
      </trkpt>
      <trkpt lat="52.12375" lon="4.4640656">
        <ele>3800.0</ele>
        <time>2020-09-21T13:33:44Z</time>
      </trkpt>
      <trkpt lat="52.12372" lon="4.464032">
        <ele>3800.0</ele>
        <time>2020-09-21T13:33:45Z</time>
      </trkpt>
      <trkpt lat="52.123688" lon="4.4639926">
        <ele>3800.0</ele>
        <time>2020-09-21T13:33:47Z</time>
      </trkpt>
      <trkpt lat="52.123657" lon="4.4639554">
        <ele>3800.0</ele>
        <time>2020-09-21T13:33:47Z</time>
      </trkpt>
      <trkpt lat="52.123627" lon="4.4639173">
        <ele>3800.0</ele>
        <time>2020-09-21T13:33:48Z</time>
      </trkpt>
      <trkpt lat="52.123592" lon="4.463877">
        <ele>3800.0</ele>
        <time>2020-09-21T13:33:49Z</time>
      </trkpt>
      <trkpt lat="52.123554" lon="4.4638376">
        <ele>3800.0</ele>
        <time>2020-09-21T13:33:50Z</time>
      </trkpt>
      <trkpt lat="52.123524" lon="4.4637985">
        <ele>3800.0</ele>
        <time>2020-09-21T13:33:51Z</time>
      </trkpt>
      <trkpt lat="52.1235" lon="4.463757">
        <ele>3800.0</ele>
        <time>2020-09-21T13:33:52Z</time>
      </trkpt>
      <trkpt lat="52.123474" lon="4.463711">
        <ele>3800.0</ele>
        <time>2020-09-21T13:33:54Z</time>
      </trkpt>
      <trkpt lat="52.123447" lon="4.463652">
        <ele>3800.0</ele>
        <time>2020-09-21T13:33:54Z</time>
      </trkpt>
      <trkpt lat="52.12343" lon="4.4635925">
        <ele>3800.0</ele>
        <time>2020-09-21T13:33:55Z</time>
      </trkpt>
      <trkpt lat="52.123405" lon="4.4635315">
        <ele>3800.0</ele>
        <time>2020-09-21T13:33:56Z</time>
      </trkpt>
      <trkpt lat="52.123386" lon="4.46347">
        <ele>3800.0</ele>
        <time>2020-09-21T13:33:56Z</time>
      </trkpt>
      <trkpt lat="52.12337" lon="4.4634066">
        <ele>3800.0</ele>
        <time>2020-09-21T13:33:57Z</time>
      </trkpt>
      <trkpt lat="52.123352" lon="4.463343">
        <ele>3800.0</ele>
        <time>2020-09-21T13:33:58Z</time>
      </trkpt>
      <trkpt lat="52.123337" lon="4.463281">
        <ele>3800.0</ele>
        <time>2020-09-21T13:33:59Z</time>
      </trkpt>
      <trkpt lat="52.123314" lon="4.463215">
        <ele>3800.0</ele>
        <time>2020-09-21T13:34:00Z</time>
      </trkpt>
      <trkpt lat="52.123306" lon="4.4631524">
        <ele>3800.0</ele>
        <time>2020-09-21T13:34:01Z</time>
      </trkpt>
      <trkpt lat="52.12329" lon="4.4630904">
        <ele>3800.0</ele>
        <time>2020-09-21T13:34:02Z</time>
      </trkpt>
      <trkpt lat="52.12328" lon="4.463025">
        <ele>3800.0</ele>
        <time>2020-09-21T13:34:04Z</time>
      </trkpt>
      <trkpt lat="52.12327" lon="4.4629626">
        <ele>3800.0</ele>
        <time>2020-09-21T13:34:04Z</time>
      </trkpt>
      <trkpt lat="52.12326" lon="4.4628954">
        <ele>3800.0</ele>
        <time>2020-09-21T13:34:05Z</time>
      </trkpt>
      <trkpt lat="52.123253" lon="4.4628325">
        <ele>3800.0</ele>
        <time>2020-09-21T13:34:06Z</time>
      </trkpt>
      <trkpt lat="52.123245" lon="4.4627714">
        <ele>3800.0</ele>
        <time>2020-09-21T13:34:07Z</time>
      </trkpt>
      <trkpt lat="52.123234" lon="4.462707">
        <ele>3800.0</ele>
        <time>2020-09-21T13:34:08Z</time>
      </trkpt>
      <trkpt lat="52.123222" lon="4.462645">
        <ele>3800.0</ele>
        <time>2020-09-21T13:34:09Z</time>
      </trkpt>
      <trkpt lat="52.12322" lon="4.4625835">
        <ele>3800.0</ele>
        <time>2020-09-21T13:34:10Z</time>
      </trkpt>
      <trkpt lat="52.123207" lon="4.462526">
        <ele>3800.0</ele>
        <time>2020-09-21T13:34:11Z</time>
      </trkpt>
      <trkpt lat="52.123203" lon="4.4624686">
        <ele>3800.0</ele>
        <time>2020-09-21T13:34:12Z</time>
      </trkpt>
      <trkpt lat="52.12319" lon="4.4624124">
        <ele>3800.0</ele>
        <time>2020-09-21T13:34:14Z</time>
      </trkpt>
      <trkpt lat="52.123188" lon="4.4623494">
        <ele>3800.0</ele>
        <time>2020-09-21T13:34:14Z</time>
      </trkpt>
      <trkpt lat="52.12318" lon="4.462287">
        <ele>3800.0</ele>
        <time>2020-09-21T13:34:15Z</time>
      </trkpt>
      <trkpt lat="52.123177" lon="4.462227">
        <ele>3800.0</ele>
        <time>2020-09-21T13:34:16Z</time>
      </trkpt>
      <trkpt lat="52.123173" lon="4.4621677">
        <ele>3800.0</ele>
        <time>2020-09-21T13:34:17Z</time>
      </trkpt>
      <trkpt lat="52.123165" lon="4.462106">
        <ele>3800.0</ele>
        <time>2020-09-21T13:34:18Z</time>
      </trkpt>
      <trkpt lat="52.123158" lon="4.4620466">
        <ele>3800.0</ele>
        <time>2020-09-21T13:34:19Z</time>
      </trkpt>
      <trkpt lat="52.12315" lon="4.461988">
        <ele>3800.0</ele>
        <time>2020-09-21T13:34:20Z</time>
      </trkpt>
      <trkpt lat="52.123135" lon="4.4619336">
        <ele>3800.0</ele>
        <time>2020-09-21T13:34:21Z</time>
      </trkpt>
      <trkpt lat="52.123127" lon="4.4618764">
        <ele>3800.0</ele>
        <time>2020-09-21T13:34:22Z</time>
      </trkpt>
      <trkpt lat="52.12311" lon="4.4618196">
        <ele>3800.0</ele>
        <time>2020-09-21T13:34:23Z</time>
      </trkpt>
      <trkpt lat="52.123096" lon="4.461761">
        <ele>3800.0</ele>
        <time>2020-09-21T13:34:24Z</time>
      </trkpt>
      <trkpt lat="52.123085" lon="4.4617047">
        <ele>3800.0</ele>
        <time>2020-09-21T13:34:25Z</time>
      </trkpt>
      <trkpt lat="52.123074" lon="4.4616456">
        <ele>3800.0</ele>
        <time>2020-09-21T13:34:26Z</time>
      </trkpt>
      <trkpt lat="52.123066" lon="4.461581">
        <ele>3800.0</ele>
        <time>2020-09-21T13:34:27Z</time>
      </trkpt>
      <trkpt lat="52.12305" lon="4.4615183">
        <ele>3800.0</ele>
        <time>2020-09-21T13:34:28Z</time>
      </trkpt>
      <trkpt lat="52.12304" lon="4.461457">
        <ele>3800.0</ele>
        <time>2020-09-21T13:34:29Z</time>
      </trkpt>
      <trkpt lat="52.123028" lon="4.4613957">
        <ele>3800.0</ele>
        <time>2020-09-21T13:34:30Z</time>
      </trkpt>
      <trkpt lat="52.123016" lon="4.4613395">
        <ele>3800.0</ele>
        <time>2020-09-21T13:34:31Z</time>
      </trkpt>
      <trkpt lat="52.12301" lon="4.4612794">
        <ele>3800.0</ele>
        <time>2020-09-21T13:34:32Z</time>
      </trkpt>
      <trkpt lat="52.122997" lon="4.461219">
        <ele>3800.0</ele>
        <time>2020-09-21T13:34:33Z</time>
      </trkpt>
      <trkpt lat="52.122993" lon="4.4611583">
        <ele>3800.0</ele>
        <time>2020-09-21T13:34:35Z</time>
      </trkpt>
      <trkpt lat="52.122982" lon="4.461104">
        <ele>3800.0</ele>
        <time>2020-09-21T13:34:35Z</time>
      </trkpt>
      <trkpt lat="52.12298" lon="4.461048">
        <ele>3800.0</ele>
        <time>2020-09-21T13:34:36Z</time>
      </trkpt>
      <trkpt lat="52.12298" lon="4.4609895">
        <ele>3800.0</ele>
        <time>2020-09-21T13:34:37Z</time>
      </trkpt>
      <trkpt lat="52.122967" lon="4.4609294">
        <ele>3800.0</ele>
        <time>2020-09-21T13:34:38Z</time>
      </trkpt>
      <trkpt lat="52.122955" lon="4.460871">
        <ele>3800.0</ele>
        <time>2020-09-21T13:34:39Z</time>
      </trkpt>
      <trkpt lat="52.12294" lon="4.4608154">
        <ele>3800.0</ele>
        <time>2020-09-21T13:34:40Z</time>
      </trkpt>
      <trkpt lat="52.122936" lon="4.4607553">
        <ele>3800.0</ele>
        <time>2020-09-21T13:34:41Z</time>
      </trkpt>
      <trkpt lat="52.122925" lon="4.4606986">
        <ele>3800.0</ele>
        <time>2020-09-21T13:34:43Z</time>
      </trkpt>
      <trkpt lat="52.122917" lon="4.460639">
        <ele>3800.0</ele>
        <time>2020-09-21T13:34:43Z</time>
      </trkpt>
      <trkpt lat="52.12291" lon="4.460591">
        <ele>3800.0</ele>
        <time>2020-09-21T13:34:44Z</time>
      </trkpt>
      <trkpt lat="52.122902" lon="4.4605484">
        <ele>3800.0</ele>
        <time>2020-09-21T13:34:45Z</time>
      </trkpt>
      <trkpt lat="52.12289" lon="4.460512">
        <ele>3800.0</ele>
        <time>2020-09-21T13:34:46Z</time>
      </trkpt>
      <trkpt lat="52.12287" lon="4.4604864">
        <ele>3800.0</ele>
        <time>2020-09-21T13:34:47Z</time>
      </trkpt>
      <trkpt lat="52.122856" lon="4.46047">
        <ele>3800.0</ele>
        <time>2020-09-21T13:34:48Z</time>
      </trkpt>
      <trkpt lat="52.12284" lon="4.4604616">
        <ele>3800.0</ele>
        <time>2020-09-21T13:34:49Z</time>
      </trkpt>
      <trkpt lat="52.12282" lon="4.460457">
        <ele>3800.0</ele>
        <time>2020-09-21T13:34:50Z</time>
      </trkpt>
      <trkpt lat="52.122818" lon="4.4604535">
        <ele>3800.0</ele>
        <time>2020-09-21T13:34:51Z</time>
      </trkpt>
      <trkpt lat="52.122807" lon="4.460453">
        <ele>3800.0</ele>
        <time>2020-09-21T13:34:52Z</time>
      </trkpt>
      <trkpt lat="52.122803" lon="4.460456">
        <ele>3800.0</ele>
        <time>2020-09-21T13:34:53Z</time>
      </trkpt>
      <trkpt lat="52.12279" lon="4.460459">
        <ele>3800.0</ele>
        <time>2020-09-21T13:34:54Z</time>
      </trkpt>
      <trkpt lat="52.122787" lon="4.4604616">
        <ele>3800.0</ele>
        <time>2020-09-21T13:34:56Z</time>
      </trkpt>
      <trkpt lat="52.122776" lon="4.460464">
        <ele>3800.0</ele>
        <time>2020-09-21T13:34:56Z</time>
      </trkpt>
      <trkpt lat="52.12277" lon="4.4604654">
        <ele>3800.0</ele>
        <time>2020-09-21T13:34:57Z</time>
      </trkpt>
      <trkpt lat="52.122753" lon="4.4604664">
        <ele>3800.0</ele>
        <time>2020-09-21T13:34:58Z</time>
      </trkpt>
      <trkpt lat="52.12273" lon="4.4604692">
        <ele>3800.0</ele>
        <time>2020-09-21T13:34:59Z</time>
      </trkpt>
      <trkpt lat="52.12271" lon="4.4604735">
        <ele>3800.0</ele>
        <time>2020-09-21T13:35:00Z</time>
      </trkpt>
      <trkpt lat="52.122692" lon="4.460477">
        <ele>3800.0</ele>
        <time>2020-09-21T13:35:01Z</time>
      </trkpt>
      <trkpt lat="52.12267" lon="4.4604807">
        <ele>3800.0</ele>
        <time>2020-09-21T13:35:02Z</time>
      </trkpt>
      <trkpt lat="52.12265" lon="4.460484">
        <ele>3800.0</ele>
        <time>2020-09-21T13:35:03Z</time>
      </trkpt>
      <trkpt lat="52.122635" lon="4.460485">
        <ele>3800.0</ele>
        <time>2020-09-21T13:35:04Z</time>
      </trkpt>
      <trkpt lat="52.12262" lon="4.4604845">
        <ele>3800.0</ele>
        <time>2020-09-21T13:35:05Z</time>
      </trkpt>
      <trkpt lat="52.122604" lon="4.460484">
        <ele>3800.0</ele>
        <time>2020-09-21T13:35:06Z</time>
      </trkpt>
      <trkpt lat="52.12258" lon="4.4604855">
        <ele>3800.0</ele>
        <time>2020-09-21T13:35:07Z</time>
      </trkpt>
      <trkpt lat="52.122562" lon="4.460491">
        <ele>3800.0</ele>
        <time>2020-09-21T13:35:08Z</time>
      </trkpt>
      <trkpt lat="52.122536" lon="4.460499">
        <ele>3800.0</ele>
        <time>2020-09-21T13:35:09Z</time>
      </trkpt>
      <trkpt lat="52.122513" lon="4.4605055">
        <ele>3800.0</ele>
        <time>2020-09-21T13:35:10Z</time>
      </trkpt>
      <trkpt lat="52.12249" lon="4.460511">
        <ele>3800.0</ele>
        <time>2020-09-21T13:35:11Z</time>
      </trkpt>
      <trkpt lat="52.122467" lon="4.4605165">
        <ele>3800.0</ele>
        <time>2020-09-21T13:35:12Z</time>
      </trkpt>
      <trkpt lat="52.122444" lon="4.4605227">
        <ele>3800.0</ele>
        <time>2020-09-21T13:35:13Z</time>
      </trkpt>
      <trkpt lat="52.122425" lon="4.4605303">
        <ele>3800.0</ele>
        <time>2020-09-21T13:35:14Z</time>
      </trkpt>
      <trkpt lat="52.12241" lon="4.4605412">
        <ele>3800.0</ele>
        <time>2020-09-21T13:35:15Z</time>
      </trkpt>
      <trkpt lat="52.1224" lon="4.4605575">
        <ele>3800.0</ele>
        <time>2020-09-21T13:35:17Z</time>
      </trkpt>
      <trkpt lat="52.122387" lon="4.460579">
        <ele>3800.0</ele>
        <time>2020-09-21T13:35:17Z</time>
      </trkpt>
      <trkpt lat="52.122387" lon="4.460604">
        <ele>3800.0</ele>
        <time>2020-09-21T13:35:18Z</time>
      </trkpt>
      <trkpt lat="52.122387" lon="4.4606314">
        <ele>3800.0</ele>
        <time>2020-09-21T13:35:19Z</time>
      </trkpt>
      <trkpt lat="52.122387" lon="4.46066">
        <ele>3800.0</ele>
        <time>2020-09-21T13:35:20Z</time>
      </trkpt>
      <trkpt lat="52.122387" lon="4.460688">
        <ele>3800.0</ele>
        <time>2020-09-21T13:35:21Z</time>
      </trkpt>
      <trkpt lat="52.122387" lon="4.4607162">
        <ele>3800.0</ele>
        <time>2020-09-21T13:35:22Z</time>
      </trkpt>
      <trkpt lat="52.122387" lon="4.4607406">
        <ele>3800.0</ele>
        <time>2020-09-21T13:35:23Z</time>
      </trkpt>
      <trkpt lat="52.122387" lon="4.460758">
        <ele>3800.0</ele>
        <time>2020-09-21T13:35:24Z</time>
      </trkpt>
      <trkpt lat="52.122387" lon="4.46077">
        <ele>3800.0</ele>
        <time>2020-09-21T13:35:25Z</time>
      </trkpt>
      <trkpt lat="52.122387" lon="4.4607797">
        <ele>3800.0</ele>
        <time>2020-09-21T13:35:27Z</time>
      </trkpt>
      <trkpt lat="52.122395" lon="4.4607863">
        <ele>3800.0</ele>
        <time>2020-09-21T13:35:27Z</time>
      </trkpt>
      <trkpt lat="52.1224" lon="4.460789">
        <ele>3800.0</ele>
        <time>2020-09-21T13:35:28Z</time>
      </trkpt>
      <trkpt lat="52.122402" lon="4.4607873">
        <ele>3800.0</ele>
        <time>2020-09-21T13:35:29Z</time>
      </trkpt>
      <trkpt lat="52.12241" lon="4.4607844">
        <ele>3800.0</ele>
        <time>2020-09-21T13:35:30Z</time>
      </trkpt>
      <trkpt lat="52.12241" lon="4.4607816">
        <ele>3800.0</ele>
        <time>2020-09-21T13:35:31Z</time>
      </trkpt>
      <trkpt lat="52.122414" lon="4.460779">
        <ele>3800.0</ele>
        <time>2020-09-21T13:35:32Z</time>
      </trkpt>
      <trkpt lat="52.122414" lon="4.4607773">
        <ele>3800.0</ele>
        <time>2020-09-21T13:35:33Z</time>
      </trkpt>
      <trkpt lat="52.122417" lon="4.4607763">
        <ele>3800.0</ele>
        <time>2020-09-21T13:35:34Z</time>
      </trkpt>
      <trkpt lat="52.122417" lon="4.4607763">
        <ele>3800.0</ele>
        <time>2020-09-21T13:35:35Z</time>
      </trkpt>
      <trkpt lat="52.122425" lon="4.4607744">
        <ele>3800.0</ele>
        <time>2020-09-21T13:35:36Z</time>
      </trkpt>
      <trkpt lat="52.122425" lon="4.460772">
        <ele>3800.0</ele>
        <time>2020-09-21T13:35:38Z</time>
      </trkpt>
      <trkpt lat="52.122417" lon="4.4607697">
        <ele>3800.0</ele>
        <time>2020-09-21T13:35:38Z</time>
      </trkpt>
      <trkpt lat="52.122417" lon="4.4607673">
        <ele>3800.0</ele>
        <time>2020-09-21T13:35:39Z</time>
      </trkpt>
      <trkpt lat="52.122414" lon="4.460765">
        <ele>3800.0</ele>
        <time>2020-09-21T13:35:40Z</time>
      </trkpt>
      <trkpt lat="52.12241" lon="4.460763">
        <ele>3800.0</ele>
        <time>2020-09-21T13:35:58Z</time>
      </trkpt>
      <trkpt lat="52.12241" lon="4.4607635">
        <ele>3800.0</ele>
        <time>2020-09-21T13:35:59Z</time>
      </trkpt>
      <trkpt lat="52.12241" lon="4.460771">
        <ele>3700.0</ele>
        <time>2020-09-21T13:36:08Z</time>
      </trkpt>
      <trkpt lat="52.122414" lon="4.460773">
        <ele>3700.0</ele>
        <time>2020-09-21T13:36:10Z</time>
      </trkpt>
      <trkpt lat="52.122414" lon="4.4607735">
        <ele>3700.0</ele>
        <time>2020-09-21T13:36:11Z</time>
      </trkpt>
      <trkpt lat="52.122414" lon="4.460769">
        <ele>3700.0</ele>
        <time>2020-09-21T13:36:15Z</time>
      </trkpt>
      <trkpt lat="52.12241" lon="4.4607606">
        <ele>3700.0</ele>
        <time>2020-09-21T13:36:16Z</time>
      </trkpt>
      <trkpt lat="52.122402" lon="4.4607415">
        <ele>3700.0</ele>
        <time>2020-09-21T13:36:17Z</time>
      </trkpt>
      <trkpt lat="52.122395" lon="4.4607153">
        <ele>3700.0</ele>
        <time>2020-09-21T13:36:19Z</time>
      </trkpt>
      <trkpt lat="52.12237" lon="4.4606853">
        <ele>3700.0</ele>
        <time>2020-09-21T13:36:19Z</time>
      </trkpt>
      <trkpt lat="52.122356" lon="4.4606533">
        <ele>3700.0</ele>
        <time>2020-09-21T13:36:20Z</time>
      </trkpt>
      <trkpt lat="52.122337" lon="4.4606214">
        <ele>3700.0</ele>
        <time>2020-09-21T13:36:21Z</time>
      </trkpt>
      <trkpt lat="52.12231" lon="4.460591">
        <ele>3700.0</ele>
        <time>2020-09-21T13:36:22Z</time>
      </trkpt>
      <trkpt lat="52.122288" lon="4.4605627">
        <ele>3700.0</ele>
        <time>2020-09-21T13:36:23Z</time>
      </trkpt>
      <trkpt lat="52.122265" lon="4.4605355">
        <ele>3700.0</ele>
        <time>2020-09-21T13:36:24Z</time>
      </trkpt>
      <trkpt lat="52.12224" lon="4.4605117">
        <ele>3700.0</ele>
        <time>2020-09-21T13:36:25Z</time>
      </trkpt>
      <trkpt lat="52.12222" lon="4.4604893">
        <ele>3700.0</ele>
        <time>2020-09-21T13:36:26Z</time>
      </trkpt>
      <trkpt lat="52.1222" lon="4.460467">
        <ele>3700.0</ele>
        <time>2020-09-21T13:36:27Z</time>
      </trkpt>
      <trkpt lat="52.122177" lon="4.4604473">
        <ele>3700.0</ele>
        <time>2020-09-21T13:36:29Z</time>
      </trkpt>
      <trkpt lat="52.12216" lon="4.4604297">
        <ele>3700.0</ele>
        <time>2020-09-21T13:36:29Z</time>
      </trkpt>
      <trkpt lat="52.122143" lon="4.460413">
        <ele>3700.0</ele>
        <time>2020-09-21T13:36:30Z</time>
      </trkpt>
      <trkpt lat="52.122124" lon="4.4603906">
        <ele>3700.0</ele>
        <time>2020-09-21T13:36:31Z</time>
      </trkpt>
      <trkpt lat="52.1221" lon="4.4603586">
        <ele>3800.0</ele>
        <time>2020-09-21T13:36:32Z</time>
      </trkpt>
      <trkpt lat="52.12208" lon="4.460322">
        <ele>3800.0</ele>
        <time>2020-09-21T13:36:33Z</time>
      </trkpt>
      <trkpt lat="52.122066" lon="4.460286">
        <ele>3800.0</ele>
        <time>2020-09-21T13:36:34Z</time>
      </trkpt>
      <trkpt lat="52.122055" lon="4.4602466">
        <ele>3800.0</ele>
        <time>2020-09-21T13:36:35Z</time>
      </trkpt>
      <trkpt lat="52.122044" lon="4.4602056">
        <ele>3800.0</ele>
        <time>2020-09-21T13:36:36Z</time>
      </trkpt>
      <trkpt lat="52.12203" lon="4.460169">
        <ele>3800.0</ele>
        <time>2020-09-21T13:36:37Z</time>
      </trkpt>
      <trkpt lat="52.122013" lon="4.4601336">
        <ele>3800.0</ele>
        <time>2020-09-21T13:36:38Z</time>
      </trkpt>
      <trkpt lat="52.122005" lon="4.460101">
        <ele>3800.0</ele>
        <time>2020-09-21T13:36:39Z</time>
      </trkpt>
      <trkpt lat="52.121994" lon="4.4600716">
        <ele>3800.0</ele>
        <time>2020-09-21T13:36:40Z</time>
      </trkpt>
      <trkpt lat="52.121983" lon="4.4600444">
        <ele>3800.0</ele>
        <time>2020-09-21T13:36:41Z</time>
      </trkpt>
      <trkpt lat="52.121975" lon="4.460018">
        <ele>3800.0</ele>
        <time>2020-09-21T13:36:42Z</time>
      </trkpt>
      <trkpt lat="52.121964" lon="4.459994">
        <ele>3800.0</ele>
        <time>2020-09-21T13:36:43Z</time>
      </trkpt>
      <trkpt lat="52.12196" lon="4.4599705">
        <ele>3800.0</ele>
        <time>2020-09-21T13:36:44Z</time>
      </trkpt>
      <trkpt lat="52.121952" lon="4.459953">
        <ele>3800.0</ele>
        <time>2020-09-21T13:36:45Z</time>
      </trkpt>
      <trkpt lat="52.121944" lon="4.4599147">
        <ele>3800.0</ele>
        <time>2020-09-21T13:36:48Z</time>
      </trkpt>
      <trkpt lat="52.121944" lon="4.4599137">
        <ele>3800.0</ele>
        <time>2020-09-21T13:36:49Z</time>
      </trkpt>
      <trkpt lat="52.121944" lon="4.459914">
        <ele>3800.0</ele>
        <time>2020-09-21T13:36:50Z</time>
      </trkpt>
      <trkpt lat="52.121937" lon="4.4599113">
        <ele>3800.0</ele>
        <time>2020-09-21T13:36:52Z</time>
      </trkpt>
      <trkpt lat="52.121937" lon="4.459912">
        <ele>3800.0</ele>
        <time>2020-09-21T13:36:53Z</time>
      </trkpt>
      <trkpt lat="52.121933" lon="4.4599137">
        <ele>3800.0</ele>
        <time>2020-09-21T13:36:54Z</time>
      </trkpt>
      <trkpt lat="52.121933" lon="4.4599156">
        <ele>3800.0</ele>
        <time>2020-09-21T13:36:55Z</time>
      </trkpt>
      <trkpt lat="52.121933" lon="4.4599175">
        <ele>3800.0</ele>
        <time>2020-09-21T13:36:56Z</time>
      </trkpt>
      <trkpt lat="52.121933" lon="4.45992">
        <ele>3800.0</ele>
        <time>2020-09-21T13:36:58Z</time>
      </trkpt>
      <trkpt lat="52.121933" lon="4.4599237">
        <ele>3800.0</ele>
        <time>2020-09-21T13:36:58Z</time>
      </trkpt>
      <trkpt lat="52.121933" lon="4.4599285">
        <ele>3800.0</ele>
        <time>2020-09-21T13:36:59Z</time>
      </trkpt>
      <trkpt lat="52.121937" lon="4.459932">
        <ele>3800.0</ele>
        <time>2020-09-21T13:37:00Z</time>
      </trkpt>
      <trkpt lat="52.121944" lon="4.4599395">
        <ele>3800.0</ele>
        <time>2020-09-21T13:37:16Z</time>
      </trkpt>
      <trkpt lat="52.121944" lon="4.45994">
        <ele>3800.0</ele>
        <time>2020-09-21T13:37:17Z</time>
      </trkpt>
      <trkpt lat="52.121944" lon="4.45994">
        <ele>3800.0</ele>
        <time>2020-09-21T13:37:18Z</time>
      </trkpt>
      <trkpt lat="52.121952" lon="4.459943">
        <ele>3800.0</ele>
        <time>2020-09-21T13:37:20Z</time>
      </trkpt>
      <trkpt lat="52.121952" lon="4.459938">
        <ele>3800.0</ele>
        <time>2020-09-21T13:37:35Z</time>
      </trkpt>
      <trkpt lat="52.121952" lon="4.4599285">
        <ele>3800.0</ele>
        <time>2020-09-21T13:37:36Z</time>
      </trkpt>
      <trkpt lat="52.121952" lon="4.4599085">
        <ele>3800.0</ele>
        <time>2020-09-21T13:37:37Z</time>
      </trkpt>
      <trkpt lat="52.12195" lon="4.459879">
        <ele>3800.0</ele>
        <time>2020-09-21T13:37:38Z</time>
      </trkpt>
      <trkpt lat="52.121952" lon="4.4598427">
        <ele>3800.0</ele>
        <time>2020-09-21T13:37:39Z</time>
      </trkpt>
      <trkpt lat="52.12196" lon="4.459801">
        <ele>3800.0</ele>
        <time>2020-09-21T13:37:40Z</time>
      </trkpt>
      <trkpt lat="52.121964" lon="4.459756">
        <ele>3800.0</ele>
        <time>2020-09-21T13:37:42Z</time>
      </trkpt>
      <trkpt lat="52.121975" lon="4.4597087">
        <ele>3800.0</ele>
        <time>2020-09-21T13:37:42Z</time>
      </trkpt>
      <trkpt lat="52.12198" lon="4.459661">
        <ele>3800.0</ele>
        <time>2020-09-21T13:37:43Z</time>
      </trkpt>
      <trkpt lat="52.12199" lon="4.459613">
        <ele>3800.0</ele>
        <time>2020-09-21T13:37:44Z</time>
      </trkpt>
      <trkpt lat="52.121994" lon="4.4595695">
        <ele>3800.0</ele>
        <time>2020-09-21T13:37:45Z</time>
      </trkpt>
      <trkpt lat="52.122005" lon="4.4595256">
        <ele>3800.0</ele>
        <time>2020-09-21T13:37:46Z</time>
      </trkpt>
      <trkpt lat="52.12202" lon="4.4594836">
        <ele>3800.0</ele>
        <time>2020-09-21T13:37:47Z</time>
      </trkpt>
      <trkpt lat="52.12203" lon="4.4594445">
        <ele>3800.0</ele>
        <time>2020-09-21T13:37:48Z</time>
      </trkpt>
      <trkpt lat="52.122044" lon="4.459406">
        <ele>3800.0</ele>
        <time>2020-09-21T13:37:49Z</time>
      </trkpt>
      <trkpt lat="52.122055" lon="4.459368">
        <ele>3800.0</ele>
        <time>2020-09-21T13:37:50Z</time>
      </trkpt>
      <trkpt lat="52.122078" lon="4.459331">
        <ele>3800.0</ele>
        <time>2020-09-21T13:37:51Z</time>
      </trkpt>
      <trkpt lat="52.122093" lon="4.459295">
        <ele>3800.0</ele>
        <time>2020-09-21T13:37:52Z</time>
      </trkpt>
      <trkpt lat="52.122112" lon="4.459256">
        <ele>3800.0</ele>
        <time>2020-09-21T13:37:53Z</time>
      </trkpt>
      <trkpt lat="52.12213" lon="4.45922">
        <ele>3800.0</ele>
        <time>2020-09-21T13:37:54Z</time>
      </trkpt>
      <trkpt lat="52.122147" lon="4.459185">
        <ele>3800.0</ele>
        <time>2020-09-21T13:37:55Z</time>
      </trkpt>
      <trkpt lat="52.122158" lon="4.459153">
        <ele>3800.0</ele>
        <time>2020-09-21T13:37:56Z</time>
      </trkpt>
      <trkpt lat="52.12217" lon="4.4591203">
        <ele>3800.0</ele>
        <time>2020-09-21T13:37:57Z</time>
      </trkpt>
      <trkpt lat="52.12217" lon="4.4590955">
        <ele>3800.0</ele>
        <time>2020-09-21T13:37:58Z</time>
      </trkpt>
      <trkpt lat="52.12217" lon="4.459076">
        <ele>3800.0</ele>
        <time>2020-09-21T13:38:00Z</time>
      </trkpt>
      <trkpt lat="52.12217" lon="4.459063">
        <ele>3800.0</ele>
        <time>2020-09-21T13:38:00Z</time>
      </trkpt>
      <trkpt lat="52.12217" lon="4.459053">
        <ele>3800.0</ele>
        <time>2020-09-21T13:38:01Z</time>
      </trkpt>
      <trkpt lat="52.12217" lon="4.4590487">
        <ele>3800.0</ele>
        <time>2020-09-21T13:38:02Z</time>
      </trkpt>
      <trkpt lat="52.12217" lon="4.4590473">
        <ele>3800.0</ele>
        <time>2020-09-21T13:38:03Z</time>
      </trkpt>
      <trkpt lat="52.12217" lon="4.4590445">
        <ele>3800.0</ele>
        <time>2020-09-21T13:38:04Z</time>
      </trkpt>
      <trkpt lat="52.122173" lon="4.4590344">
        <ele>3800.0</ele>
        <time>2020-09-21T13:38:06Z</time>
      </trkpt>
      <trkpt lat="52.122173" lon="4.4590364">
        <ele>3800.0</ele>
        <time>2020-09-21T13:38:07Z</time>
      </trkpt>
      <trkpt lat="52.122177" lon="4.4590464">
        <ele>3800.0</ele>
        <time>2020-09-21T13:38:51Z</time>
      </trkpt>
      <trkpt lat="52.12223" lon="4.459013">
        <ele>3800.0</ele>
        <time>2020-09-21T13:39:49Z</time>
      </trkpt>
      <trkpt lat="52.12224" lon="4.459013">
        <ele>3800.0</ele>
        <time>2020-09-21T13:39:51Z</time>
      </trkpt>
      <trkpt lat="52.12224" lon="4.4590096">
        <ele>3800.0</ele>
        <time>2020-09-21T13:39:54Z</time>
      </trkpt>
      <trkpt lat="52.122246" lon="4.4590063">
        <ele>3800.0</ele>
        <time>2020-09-21T13:39:58Z</time>
      </trkpt>
      <trkpt lat="52.122246" lon="4.4589996">
        <ele>3800.0</ele>
        <time>2020-09-21T13:40:05Z</time>
      </trkpt>
      <trkpt lat="52.122246" lon="4.4589963">
        <ele>3800.0</ele>
        <time>2020-09-21T13:40:06Z</time>
      </trkpt>
      <trkpt lat="52.12225" lon="4.458993">
        <ele>3800.0</ele>
        <time>2020-09-21T13:40:32Z</time>
      </trkpt>
      <trkpt lat="52.122246" lon="4.4589925">
        <ele>3800.0</ele>
        <time>2020-09-21T13:40:33Z</time>
      </trkpt>
      <trkpt lat="52.122246" lon="4.458991">
        <ele>3800.0</ele>
        <time>2020-09-21T13:40:34Z</time>
      </trkpt>
      <trkpt lat="52.12224" lon="4.458989">
        <ele>3800.0</ele>
        <time>2020-09-21T13:40:35Z</time>
      </trkpt>
      <trkpt lat="52.12224" lon="4.458988">
        <ele>3800.0</ele>
        <time>2020-09-21T13:40:36Z</time>
      </trkpt>
      <trkpt lat="52.122234" lon="4.4589887">
        <ele>3800.0</ele>
        <time>2020-09-21T13:40:37Z</time>
      </trkpt>
      <trkpt lat="52.12223" lon="4.45899">
        <ele>3800.0</ele>
        <time>2020-09-21T13:40:38Z</time>
      </trkpt>
      <trkpt lat="52.12223" lon="4.458992">
        <ele>3800.0</ele>
        <time>2020-09-21T13:40:39Z</time>
      </trkpt>
      <trkpt lat="52.12222" lon="4.458998">
        <ele>3800.0</ele>
        <time>2020-09-21T13:40:41Z</time>
      </trkpt>
      <trkpt lat="52.12222" lon="4.458998">
        <ele>3800.0</ele>
        <time>2020-09-21T13:40:42Z</time>
      </trkpt>
      <trkpt lat="52.122223" lon="4.458999">
        <ele>3800.0</ele>
        <time>2020-09-21T13:40:43Z</time>
      </trkpt>
      <trkpt lat="52.122223" lon="4.459">
        <ele>3800.0</ele>
        <time>2020-09-21T13:40:44Z</time>
      </trkpt>
      <trkpt lat="52.12223" lon="4.4590096">
        <ele>3800.0</ele>
        <time>2020-09-21T13:40:47Z</time>
      </trkpt>
      <trkpt lat="52.122234" lon="4.459008">
        <ele>3800.0</ele>
        <time>2020-09-21T13:40:48Z</time>
      </trkpt>
      <trkpt lat="52.122234" lon="4.459007">
        <ele>3800.0</ele>
        <time>2020-09-21T13:40:49Z</time>
      </trkpt>
      <trkpt lat="52.12224" lon="4.459003">
        <ele>3800.0</ele>
        <time>2020-09-21T13:41:02Z</time>
      </trkpt>
      <trkpt lat="52.122234" lon="4.459003">
        <ele>3800.0</ele>
        <time>2020-09-21T13:41:05Z</time>
      </trkpt>
      <trkpt lat="52.122223" lon="4.459003">
        <ele>3800.0</ele>
        <time>2020-09-21T13:41:11Z</time>
      </trkpt>
      <trkpt lat="52.122223" lon="4.459003">
        <ele>3800.0</ele>
        <time>2020-09-21T13:41:13Z</time>
      </trkpt>
      <trkpt lat="52.12222" lon="4.459003">
        <ele>3700.0</ele>
        <time>2020-09-21T13:41:14Z</time>
      </trkpt>
      <trkpt lat="52.12222" lon="4.459003">
        <ele>3700.0</ele>
        <time>2020-09-21T13:41:15Z</time>
      </trkpt>
      <trkpt lat="52.122215" lon="4.459003">
        <ele>3700.0</ele>
        <time>2020-09-21T13:41:16Z</time>
      </trkpt>
      <trkpt lat="52.122192" lon="4.459003">
        <ele>3700.0</ele>
        <time>2020-09-21T13:41:25Z</time>
      </trkpt>
      <trkpt lat="52.122185" lon="4.458998">
        <ele>3700.0</ele>
        <time>2020-09-21T13:41:32Z</time>
      </trkpt>
      <trkpt lat="52.122185" lon="4.4589972">
        <ele>3700.0</ele>
        <time>2020-09-21T13:41:33Z</time>
      </trkpt>
      <trkpt lat="52.122185" lon="4.458988">
        <ele>3700.0</ele>
        <time>2020-09-21T13:41:42Z</time>
      </trkpt>
      <trkpt lat="52.122185" lon="4.4589868">
        <ele>3700.0</ele>
        <time>2020-09-21T13:41:43Z</time>
      </trkpt>
      <trkpt lat="52.122177" lon="4.458983">
        <ele>3700.0</ele>
        <time>2020-09-21T13:41:45Z</time>
      </trkpt>
      <trkpt lat="52.122177" lon="4.4589777">
        <ele>3700.0</ele>
        <time>2020-09-21T13:41:45Z</time>
      </trkpt>
      <trkpt lat="52.122177" lon="4.458974">
        <ele>3700.0</ele>
        <time>2020-09-21T13:41:46Z</time>
      </trkpt>
      <trkpt lat="52.122177" lon="4.45897">
        <ele>3700.0</ele>
        <time>2020-09-21T13:41:47Z</time>
      </trkpt>
      <trkpt lat="52.12217" lon="4.4589634">
        <ele>3700.0</ele>
        <time>2020-09-21T13:41:57Z</time>
      </trkpt>
      <trkpt lat="52.12216" lon="4.4589634">
        <ele>3700.0</ele>
        <time>2020-09-21T13:41:58Z</time>
      </trkpt>
      <trkpt lat="52.12216" lon="4.4589634">
        <ele>3700.0</ele>
        <time>2020-09-21T13:41:59Z</time>
      </trkpt>
      <trkpt lat="52.122158" lon="4.4589634">
        <ele>3700.0</ele>
        <time>2020-09-21T13:42:00Z</time>
      </trkpt>
      <trkpt lat="52.122154" lon="4.4589643">
        <ele>3700.0</ele>
        <time>2020-09-21T13:42:01Z</time>
      </trkpt>
      <trkpt lat="52.122147" lon="4.458975">
        <ele>3700.0</ele>
        <time>2020-09-21T13:42:06Z</time>
      </trkpt>
      <trkpt lat="52.122154" lon="4.458985">
        <ele>3700.0</ele>
        <time>2020-09-21T13:42:18Z</time>
      </trkpt>
      <trkpt lat="52.122154" lon="4.458988">
        <ele>3700.0</ele>
        <time>2020-09-21T13:42:20Z</time>
      </trkpt>
      <trkpt lat="52.122158" lon="4.458993">
        <ele>3700.0</ele>
        <time>2020-09-21T13:42:22Z</time>
      </trkpt>
      <trkpt lat="52.12216" lon="4.4589953">
        <ele>3700.0</ele>
        <time>2020-09-21T13:42:23Z</time>
      </trkpt>
      <trkpt lat="52.12216" lon="4.458999">
        <ele>3700.0</ele>
        <time>2020-09-21T13:42:25Z</time>
      </trkpt>
      <trkpt lat="52.12217" lon="4.459003">
        <ele>3700.0</ele>
        <time>2020-09-21T13:42:25Z</time>
      </trkpt>
      <trkpt lat="52.122173" lon="4.459006">
        <ele>3700.0</ele>
        <time>2020-09-21T13:42:26Z</time>
      </trkpt>
      <trkpt lat="52.122177" lon="4.4590063">
        <ele>3700.0</ele>
        <time>2020-09-21T13:42:26Z</time>
      </trkpt>
      <trkpt lat="52.122185" lon="4.4590096">
        <ele>3700.0</ele>
        <time>2020-09-21T13:42:27Z</time>
      </trkpt>
      <trkpt lat="52.12219" lon="4.459014">
        <ele>3700.0</ele>
        <time>2020-09-21T13:42:28Z</time>
      </trkpt>
      <trkpt lat="52.122192" lon="4.459018">
        <ele>3700.0</ele>
        <time>2020-09-21T13:42:29Z</time>
      </trkpt>
      <trkpt lat="52.1222" lon="4.4590344">
        <ele>3700.0</ele>
        <time>2020-09-21T13:42:51Z</time>
      </trkpt>
      <trkpt lat="52.122192" lon="4.4590344">
        <ele>3700.0</ele>
        <time>2020-09-21T13:42:52Z</time>
      </trkpt>
      <trkpt lat="52.122173" lon="4.4590344">
        <ele>3700.0</ele>
        <time>2020-09-21T13:42:59Z</time>
      </trkpt>
      <trkpt lat="52.12216" lon="4.4590383">
        <ele>3700.0</ele>
        <time>2020-09-21T13:43:11Z</time>
      </trkpt>
      <trkpt lat="52.12216" lon="4.4590397">
        <ele>3700.0</ele>
        <time>2020-09-21T13:43:13Z</time>
      </trkpt>
      <trkpt lat="52.12216" lon="4.459048">
        <ele>3700.0</ele>
        <time>2020-09-21T13:43:25Z</time>
      </trkpt>
      <trkpt lat="52.12216" lon="4.4590483">
        <ele>3700.0</ele>
        <time>2020-09-21T13:43:26Z</time>
      </trkpt>
      <trkpt lat="52.122158" lon="4.459051">
        <ele>3700.0</ele>
        <time>2020-09-21T13:43:28Z</time>
      </trkpt>
      <trkpt lat="52.122154" lon="4.459051">
        <ele>3700.0</ele>
        <time>2020-09-21T13:43:34Z</time>
      </trkpt>
      <trkpt lat="52.122154" lon="4.459051">
        <ele>3700.0</ele>
        <time>2020-09-21T13:43:35Z</time>
      </trkpt>
      <trkpt lat="52.122143" lon="4.459053">
        <ele>3700.0</ele>
        <time>2020-09-21T13:43:38Z</time>
      </trkpt>
      <trkpt lat="52.122154" lon="4.459053">
        <ele>3700.0</ele>
        <time>2020-09-21T13:44:05Z</time>
      </trkpt>
      <trkpt lat="52.122154" lon="4.459052">
        <ele>3700.0</ele>
        <time>2020-09-21T13:44:07Z</time>
      </trkpt>
      <trkpt lat="52.122154" lon="4.4590516">
        <ele>3700.0</ele>
        <time>2020-09-21T13:44:07Z</time>
      </trkpt>
      <trkpt lat="52.122158" lon="4.45905">
        <ele>3700.0</ele>
        <time>2020-09-21T13:44:08Z</time>
      </trkpt>
      <trkpt lat="52.122158" lon="4.4590487">
        <ele>3700.0</ele>
        <time>2020-09-21T13:44:09Z</time>
      </trkpt>
      <trkpt lat="52.12216" lon="4.459048">
        <ele>3700.0</ele>
        <time>2020-09-21T13:44:10Z</time>
      </trkpt>
      <trkpt lat="52.12216" lon="4.4590464">
        <ele>3700.0</ele>
        <time>2020-09-21T13:44:11Z</time>
      </trkpt>
      <trkpt lat="52.122173" lon="4.4590397">
        <ele>3700.0</ele>
        <time>2020-09-21T13:44:13Z</time>
      </trkpt>
      <trkpt lat="52.122173" lon="4.4590373">
        <ele>3700.0</ele>
        <time>2020-09-21T13:44:14Z</time>
      </trkpt>
      <trkpt lat="52.122173" lon="4.4590316">
        <ele>3700.0</ele>
        <time>2020-09-21T13:44:15Z</time>
      </trkpt>
      <trkpt lat="52.122185" lon="4.4590254">
        <ele>3700.0</ele>
        <time>2020-09-21T13:44:16Z</time>
      </trkpt>
      <trkpt lat="52.12219" lon="4.4590206">
        <ele>3700.0</ele>
        <time>2020-09-21T13:44:18Z</time>
      </trkpt>
      <trkpt lat="52.122192" lon="4.4590187">
        <ele>3700.0</ele>
        <time>2020-09-21T13:44:18Z</time>
      </trkpt>
      <trkpt lat="52.122204" lon="4.459021">
        <ele>3700.0</ele>
        <time>2020-09-21T13:44:19Z</time>
      </trkpt>
      <trkpt lat="52.122208" lon="4.4590244">
        <ele>3700.0</ele>
        <time>2020-09-21T13:44:20Z</time>
      </trkpt>
      <trkpt lat="52.122215" lon="4.4590306">
        <ele>3700.0</ele>
        <time>2020-09-21T13:44:21Z</time>
      </trkpt>
      <trkpt lat="52.122215" lon="4.459039">
        <ele>3700.0</ele>
        <time>2020-09-21T13:44:22Z</time>
      </trkpt>
      <trkpt lat="52.122215" lon="4.4590497">
        <ele>3700.0</ele>
        <time>2020-09-21T13:44:23Z</time>
      </trkpt>
      <trkpt lat="52.122215" lon="4.459065">
        <ele>3700.0</ele>
        <time>2020-09-21T13:44:24Z</time>
      </trkpt>
      <trkpt lat="52.122215" lon="4.459082">
        <ele>3700.0</ele>
        <time>2020-09-21T13:44:25Z</time>
      </trkpt>
      <trkpt lat="52.122215" lon="4.4591002">
        <ele>3700.0</ele>
        <time>2020-09-21T13:44:26Z</time>
      </trkpt>
      <trkpt lat="52.122215" lon="4.459119">
        <ele>3700.0</ele>
        <time>2020-09-21T13:44:27Z</time>
      </trkpt>
      <trkpt lat="52.122208" lon="4.4591346">
        <ele>3700.0</ele>
        <time>2020-09-21T13:44:29Z</time>
      </trkpt>
      <trkpt lat="52.122204" lon="4.459148">
        <ele>3700.0</ele>
        <time>2020-09-21T13:44:29Z</time>
      </trkpt>
      <trkpt lat="52.1222" lon="4.4591584">
        <ele>3700.0</ele>
        <time>2020-09-21T13:44:30Z</time>
      </trkpt>
      <trkpt lat="52.122192" lon="4.4591684">
        <ele>3700.0</ele>
        <time>2020-09-21T13:44:31Z</time>
      </trkpt>
      <trkpt lat="52.12219" lon="4.4591794">
        <ele>3700.0</ele>
        <time>2020-09-21T13:44:32Z</time>
      </trkpt>
      <trkpt lat="52.12219" lon="4.459188">
        <ele>3700.0</ele>
        <time>2020-09-21T13:44:33Z</time>
      </trkpt>
      <trkpt lat="52.122185" lon="4.459194">
        <ele>3700.0</ele>
        <time>2020-09-21T13:44:34Z</time>
      </trkpt>
      <trkpt lat="52.122177" lon="4.459198">
        <ele>3700.0</ele>
        <time>2020-09-21T13:44:35Z</time>
      </trkpt>
      <trkpt lat="52.122177" lon="4.4592">
        <ele>3700.0</ele>
        <time>2020-09-21T13:44:36Z</time>
      </trkpt>
      <trkpt lat="52.122173" lon="4.459202">
        <ele>3700.0</ele>
        <time>2020-09-21T13:44:37Z</time>
      </trkpt>
      <trkpt lat="52.122173" lon="4.4592032">
        <ele>3700.0</ele>
        <time>2020-09-21T13:44:39Z</time>
      </trkpt>
      <trkpt lat="52.122177" lon="4.459204">
        <ele>3700.0</ele>
        <time>2020-09-21T13:44:39Z</time>
      </trkpt>
      <trkpt lat="52.122185" lon="4.459208">
        <ele>3700.0</ele>
        <time>2020-09-21T13:44:42Z</time>
      </trkpt>
      <trkpt lat="52.122185" lon="4.459209">
        <ele>3700.0</ele>
        <time>2020-09-21T13:44:43Z</time>
      </trkpt>
      <trkpt lat="52.122185" lon="4.4592113">
        <ele>3700.0</ele>
        <time>2020-09-21T13:44:44Z</time>
      </trkpt>
      <trkpt lat="52.122185" lon="4.459213">
        <ele>3700.0</ele>
        <time>2020-09-21T13:44:45Z</time>
      </trkpt>
      <trkpt lat="52.122185" lon="4.4592133">
        <ele>3700.0</ele>
        <time>2020-09-21T13:44:47Z</time>
      </trkpt>
      <trkpt lat="52.12219" lon="4.4592133">
        <ele>3700.0</ele>
        <time>2020-09-21T13:44:47Z</time>
      </trkpt>
      <trkpt lat="52.122192" lon="4.459216">
        <ele>3700.0</ele>
        <time>2020-09-21T13:44:49Z</time>
      </trkpt>
      <trkpt lat="52.122192" lon="4.4592166">
        <ele>3700.0</ele>
        <time>2020-09-21T13:44:50Z</time>
      </trkpt>
      <trkpt lat="52.122192" lon="4.459219">
        <ele>3700.0</ele>
        <time>2020-09-21T13:44:51Z</time>
      </trkpt>
      <trkpt lat="52.12219" lon="4.4592237">
        <ele>3700.0</ele>
        <time>2020-09-21T13:44:52Z</time>
      </trkpt>
      <trkpt lat="52.122177" lon="4.459233">
        <ele>3700.0</ele>
        <time>2020-09-21T13:44:53Z</time>
      </trkpt>
      <trkpt lat="52.12217" lon="4.4592457">
        <ele>3700.0</ele>
        <time>2020-09-21T13:44:54Z</time>
      </trkpt>
      <trkpt lat="52.122158" lon="4.4592614">
        <ele>3700.0</ele>
        <time>2020-09-21T13:44:55Z</time>
      </trkpt>
      <trkpt lat="52.122147" lon="4.459284">
        <ele>3700.0</ele>
        <time>2020-09-21T13:44:56Z</time>
      </trkpt>
      <trkpt lat="52.122143" lon="4.459306">
        <ele>3700.0</ele>
        <time>2020-09-21T13:44:58Z</time>
      </trkpt>
      <trkpt lat="52.12213" lon="4.459331">
        <ele>3700.0</ele>
        <time>2020-09-21T13:44:58Z</time>
      </trkpt>
      <trkpt lat="52.122124" lon="4.4593563">
        <ele>3700.0</ele>
        <time>2020-09-21T13:44:59Z</time>
      </trkpt>
      <trkpt lat="52.122112" lon="4.4593787">
        <ele>3700.0</ele>
        <time>2020-09-21T13:45:00Z</time>
      </trkpt>
      <trkpt lat="52.1221" lon="4.4593987">
        <ele>3700.0</ele>
        <time>2020-09-21T13:45:01Z</time>
      </trkpt>
      <trkpt lat="52.122086" lon="4.4594126">
        <ele>3700.0</ele>
        <time>2020-09-21T13:45:02Z</time>
      </trkpt>
      <trkpt lat="52.12207" lon="4.459419">
        <ele>3700.0</ele>
        <time>2020-09-21T13:45:03Z</time>
      </trkpt>
      <trkpt lat="52.12205" lon="4.459415">
        <ele>3700.0</ele>
        <time>2020-09-21T13:45:04Z</time>
      </trkpt>
      <trkpt lat="52.122036" lon="4.4594045">
        <ele>3700.0</ele>
        <time>2020-09-21T13:45:05Z</time>
      </trkpt>
      <trkpt lat="52.12201" lon="4.459389">
        <ele>3700.0</ele>
        <time>2020-09-21T13:45:06Z</time>
      </trkpt>
      <trkpt lat="52.12199" lon="4.459372">
        <ele>3700.0</ele>
        <time>2020-09-21T13:45:08Z</time>
      </trkpt>
      <trkpt lat="52.121964" lon="4.459349">
        <ele>3700.0</ele>
        <time>2020-09-21T13:45:08Z</time>
      </trkpt>
      <trkpt lat="52.121944" lon="4.4593186">
        <ele>3700.0</ele>
        <time>2020-09-21T13:45:09Z</time>
      </trkpt>
      <trkpt lat="52.12192" lon="4.459284">
        <ele>3700.0</ele>
        <time>2020-09-21T13:45:10Z</time>
      </trkpt>
      <trkpt lat="52.121902" lon="4.459245">
        <ele>3700.0</ele>
        <time>2020-09-21T13:45:11Z</time>
      </trkpt>
      <trkpt lat="52.121883" lon="4.4592094">
        <ele>3700.0</ele>
        <time>2020-09-21T13:45:12Z</time>
      </trkpt>
      <trkpt lat="52.12186" lon="4.4591765">
        <ele>3700.0</ele>
        <time>2020-09-21T13:45:13Z</time>
      </trkpt>
      <trkpt lat="52.12184" lon="4.459147">
        <ele>3700.0</ele>
        <time>2020-09-21T13:45:14Z</time>
      </trkpt>
      <trkpt lat="52.12182" lon="4.459116">
        <ele>3700.0</ele>
        <time>2020-09-21T13:45:15Z</time>
      </trkpt>
      <trkpt lat="52.1218" lon="4.4590874">
        <ele>3700.0</ele>
        <time>2020-09-21T13:45:16Z</time>
      </trkpt>
      <trkpt lat="52.12178" lon="4.4590597">
        <ele>3700.0</ele>
        <time>2020-09-21T13:45:17Z</time>
      </trkpt>
      <trkpt lat="52.121754" lon="4.4590344">
        <ele>3700.0</ele>
        <time>2020-09-21T13:45:19Z</time>
      </trkpt>
      <trkpt lat="52.12174" lon="4.4590106">
        <ele>3700.0</ele>
        <time>2020-09-21T13:45:19Z</time>
      </trkpt>
      <trkpt lat="52.12171" lon="4.458984">
        <ele>3700.0</ele>
        <time>2020-09-21T13:45:20Z</time>
      </trkpt>
      <trkpt lat="52.121696" lon="4.458956">
        <ele>3700.0</ele>
        <time>2020-09-21T13:45:21Z</time>
      </trkpt>
      <trkpt lat="52.121677" lon="4.4589276">
        <ele>3700.0</ele>
        <time>2020-09-21T13:45:22Z</time>
      </trkpt>
      <trkpt lat="52.121655" lon="4.458898">
        <ele>3700.0</ele>
        <time>2020-09-21T13:45:23Z</time>
      </trkpt>
      <trkpt lat="52.12164" lon="4.458867">
        <ele>3700.0</ele>
        <time>2020-09-21T13:45:24Z</time>
      </trkpt>
      <trkpt lat="52.12162" lon="4.458831">
        <ele>3700.0</ele>
        <time>2020-09-21T13:45:25Z</time>
      </trkpt>
      <trkpt lat="52.1216" lon="4.458793">
        <ele>3700.0</ele>
        <time>2020-09-21T13:45:26Z</time>
      </trkpt>
      <trkpt lat="52.121574" lon="4.458757">
        <ele>3700.0</ele>
        <time>2020-09-21T13:45:27Z</time>
      </trkpt>
      <trkpt lat="52.121548" lon="4.458727">
        <ele>3700.0</ele>
        <time>2020-09-21T13:45:29Z</time>
      </trkpt>
      <trkpt lat="52.121517" lon="4.458698">
        <ele>3700.0</ele>
        <time>2020-09-21T13:45:29Z</time>
      </trkpt>
      <trkpt lat="52.121494" lon="4.458667">
        <ele>3700.0</ele>
        <time>2020-09-21T13:45:30Z</time>
      </trkpt>
      <trkpt lat="52.12146" lon="4.4586353">
        <ele>3700.0</ele>
        <time>2020-09-21T13:45:31Z</time>
      </trkpt>
      <trkpt lat="52.12144" lon="4.4586005">
        <ele>3700.0</ele>
        <time>2020-09-21T13:45:32Z</time>
      </trkpt>
      <trkpt lat="52.121414" lon="4.4585605">
        <ele>3700.0</ele>
        <time>2020-09-21T13:45:33Z</time>
      </trkpt>
      <trkpt lat="52.12139" lon="4.458523">
        <ele>3700.0</ele>
        <time>2020-09-21T13:45:34Z</time>
      </trkpt>
      <trkpt lat="52.121365" lon="4.4584856">
        <ele>3700.0</ele>
        <time>2020-09-21T13:45:35Z</time>
      </trkpt>
      <trkpt lat="52.121338" lon="4.458448">
        <ele>3700.0</ele>
        <time>2020-09-21T13:45:36Z</time>
      </trkpt>
      <trkpt lat="52.121315" lon="4.4584107">
        <ele>3700.0</ele>
        <time>2020-09-21T13:45:37Z</time>
      </trkpt>
      <trkpt lat="52.121292" lon="4.458378">
        <ele>3700.0</ele>
        <time>2020-09-21T13:45:38Z</time>
      </trkpt>
      <trkpt lat="52.121273" lon="4.458341">
        <ele>3700.0</ele>
        <time>2020-09-21T13:45:39Z</time>
      </trkpt>
      <trkpt lat="52.12125" lon="4.458304">
        <ele>3700.0</ele>
        <time>2020-09-21T13:45:40Z</time>
      </trkpt>
      <trkpt lat="52.12122" lon="4.4582744">
        <ele>3700.0</ele>
        <time>2020-09-21T13:45:41Z</time>
      </trkpt>
      <trkpt lat="52.121197" lon="4.458252">
        <ele>3700.0</ele>
        <time>2020-09-21T13:45:42Z</time>
      </trkpt>
      <trkpt lat="52.12117" lon="4.4582286">
        <ele>3700.0</ele>
        <time>2020-09-21T13:45:43Z</time>
      </trkpt>
      <trkpt lat="52.12114" lon="4.458207">
        <ele>3700.0</ele>
        <time>2020-09-21T13:45:44Z</time>
      </trkpt>
      <trkpt lat="52.12111" lon="4.458186">
        <ele>3700.0</ele>
        <time>2020-09-21T13:45:45Z</time>
      </trkpt>
      <trkpt lat="52.12108" lon="4.4581623">
        <ele>3700.0</ele>
        <time>2020-09-21T13:45:47Z</time>
      </trkpt>
      <trkpt lat="52.121048" lon="4.4581366">
        <ele>3700.0</ele>
        <time>2020-09-21T13:45:47Z</time>
      </trkpt>
      <trkpt lat="52.121017" lon="4.458111">
        <ele>3700.0</ele>
        <time>2020-09-21T13:45:48Z</time>
      </trkpt>
      <trkpt lat="52.12099" lon="4.4580812">
        <ele>3700.0</ele>
        <time>2020-09-21T13:45:49Z</time>
      </trkpt>
      <trkpt lat="52.120964" lon="4.4580526">
        <ele>3700.0</ele>
        <time>2020-09-21T13:45:50Z</time>
      </trkpt>
      <trkpt lat="52.12094" lon="4.458024">
        <ele>3700.0</ele>
        <time>2020-09-21T13:45:51Z</time>
      </trkpt>
      <trkpt lat="52.120914" lon="4.457999">
        <ele>3700.0</ele>
        <time>2020-09-21T13:45:52Z</time>
      </trkpt>
      <trkpt lat="52.120884" lon="4.4579754">
        <ele>3700.0</ele>
        <time>2020-09-21T13:45:53Z</time>
      </trkpt>
      <trkpt lat="52.120857" lon="4.4579496">
        <ele>3700.0</ele>
        <time>2020-09-21T13:45:54Z</time>
      </trkpt>
      <trkpt lat="52.12083" lon="4.4579225">
        <ele>3700.0</ele>
        <time>2020-09-21T13:45:55Z</time>
      </trkpt>
      <trkpt lat="52.120808" lon="4.4578958">
        <ele>3700.0</ele>
        <time>2020-09-21T13:45:57Z</time>
      </trkpt>
      <trkpt lat="52.120777" lon="4.4578705">
        <ele>3700.0</ele>
        <time>2020-09-21T13:45:57Z</time>
      </trkpt>
      <trkpt lat="52.120747" lon="4.4578485">
        <ele>3700.0</ele>
        <time>2020-09-21T13:45:58Z</time>
      </trkpt>
      <trkpt lat="52.120716" lon="4.457829">
        <ele>3700.0</ele>
        <time>2020-09-21T13:45:59Z</time>
      </trkpt>
      <trkpt lat="52.12069" lon="4.457806">
        <ele>3700.0</ele>
        <time>2020-09-21T13:46:00Z</time>
      </trkpt>
      <trkpt lat="52.120663" lon="4.45778">
        <ele>3700.0</ele>
        <time>2020-09-21T13:46:01Z</time>
      </trkpt>
      <trkpt lat="52.120636" lon="4.457749">
        <ele>3700.0</ele>
        <time>2020-09-21T13:46:02Z</time>
      </trkpt>
      <trkpt lat="52.120613" lon="4.457718">
        <ele>3700.0</ele>
        <time>2020-09-21T13:46:03Z</time>
      </trkpt>
      <trkpt lat="52.120586" lon="4.45768">
        <ele>3700.0</ele>
        <time>2020-09-21T13:46:04Z</time>
      </trkpt>
      <trkpt lat="52.12056" lon="4.457643">
        <ele>3700.0</ele>
        <time>2020-09-21T13:46:05Z</time>
      </trkpt>
      <trkpt lat="52.12054" lon="4.457606">
        <ele>3700.0</ele>
        <time>2020-09-21T13:46:06Z</time>
      </trkpt>
      <trkpt lat="52.120514" lon="4.457567">
        <ele>3700.0</ele>
        <time>2020-09-21T13:46:08Z</time>
      </trkpt>
      <trkpt lat="52.1205" lon="4.457529">
        <ele>3700.0</ele>
        <time>2020-09-21T13:46:08Z</time>
      </trkpt>
      <trkpt lat="52.120483" lon="4.4574895">
        <ele>3700.0</ele>
        <time>2020-09-21T13:46:09Z</time>
      </trkpt>
      <trkpt lat="52.12047" lon="4.4574523">
        <ele>3700.0</ele>
        <time>2020-09-21T13:46:10Z</time>
      </trkpt>
      <trkpt lat="52.120453" lon="4.4574165">
        <ele>3700.0</ele>
        <time>2020-09-21T13:46:11Z</time>
      </trkpt>
      <trkpt lat="52.120438" lon="4.457381">
        <ele>3700.0</ele>
        <time>2020-09-21T13:46:12Z</time>
      </trkpt>
      <trkpt lat="52.120422" lon="4.4573464">
        <ele>3700.0</ele>
        <time>2020-09-21T13:46:13Z</time>
      </trkpt>
      <trkpt lat="52.120407" lon="4.457313">
        <ele>3700.0</ele>
        <time>2020-09-21T13:46:14Z</time>
      </trkpt>
      <trkpt lat="52.120388" lon="4.457285">
        <ele>3700.0</ele>
        <time>2020-09-21T13:46:15Z</time>
      </trkpt>
      <trkpt lat="52.120373" lon="4.4572587">
        <ele>3700.0</ele>
        <time>2020-09-21T13:46:16Z</time>
      </trkpt>
      <trkpt lat="52.120358" lon="4.457235">
        <ele>3700.0</ele>
        <time>2020-09-21T13:46:18Z</time>
      </trkpt>
      <trkpt lat="52.120342" lon="4.4572134">
        <ele>3700.0</ele>
        <time>2020-09-21T13:46:18Z</time>
      </trkpt>
      <trkpt lat="52.120327" lon="4.457191">
        <ele>3700.0</ele>
        <time>2020-09-21T13:46:19Z</time>
      </trkpt>
      <trkpt lat="52.120308" lon="4.457168">
        <ele>3700.0</ele>
        <time>2020-09-21T13:46:20Z</time>
      </trkpt>
      <trkpt lat="52.120293" lon="4.457144">
        <ele>3700.0</ele>
        <time>2020-09-21T13:46:21Z</time>
      </trkpt>
      <trkpt lat="52.120285" lon="4.457119">
        <ele>3700.0</ele>
        <time>2020-09-21T13:46:22Z</time>
      </trkpt>
      <trkpt lat="52.120274" lon="4.4570932">
        <ele>3700.0</ele>
        <time>2020-09-21T13:46:23Z</time>
      </trkpt>
      <trkpt lat="52.12026" lon="4.4570665">
        <ele>3700.0</ele>
        <time>2020-09-21T13:46:24Z</time>
      </trkpt>
      <trkpt lat="52.120247" lon="4.457041">
        <ele>3700.0</ele>
        <time>2020-09-21T13:46:25Z</time>
      </trkpt>
      <trkpt lat="52.12023" lon="4.4570146">
        <ele>3700.0</ele>
        <time>2020-09-21T13:46:26Z</time>
      </trkpt>
      <trkpt lat="52.120224" lon="4.4569902">
        <ele>3700.0</ele>
        <time>2020-09-21T13:46:27Z</time>
      </trkpt>
      <trkpt lat="52.120213" lon="4.456969">
        <ele>3700.0</ele>
        <time>2020-09-21T13:46:29Z</time>
      </trkpt>
      <trkpt lat="52.120197" lon="4.456945">
        <ele>3700.0</ele>
        <time>2020-09-21T13:46:29Z</time>
      </trkpt>
      <trkpt lat="52.120186" lon="4.456919">
        <ele>3700.0</ele>
        <time>2020-09-21T13:46:30Z</time>
      </trkpt>
      <trkpt lat="52.12018" lon="4.456889">
        <ele>3700.0</ele>
        <time>2020-09-21T13:46:31Z</time>
      </trkpt>
      <trkpt lat="52.120167" lon="4.456859">
        <ele>3700.0</ele>
        <time>2020-09-21T13:46:32Z</time>
      </trkpt>
      <trkpt lat="52.12015" lon="4.4568305">
        <ele>3700.0</ele>
        <time>2020-09-21T13:46:33Z</time>
      </trkpt>
      <trkpt lat="52.120136" lon="4.4568043">
        <ele>3700.0</ele>
        <time>2020-09-21T13:46:34Z</time>
      </trkpt>
      <trkpt lat="52.12012" lon="4.4567823">
        <ele>3700.0</ele>
        <time>2020-09-21T13:46:35Z</time>
      </trkpt>
      <trkpt lat="52.120033" lon="4.4566765">
        <ele>3700.0</ele>
        <time>2020-09-21T13:46:37Z</time>
      </trkpt>
      <trkpt lat="52.12003" lon="4.45667">
        <ele>3700.0</ele>
        <time>2020-09-21T13:46:38Z</time>
      </trkpt>
      <trkpt lat="52.120018" lon="4.4566536">
        <ele>3700.0</ele>
        <time>2020-09-21T13:46:39Z</time>
      </trkpt>
      <trkpt lat="52.120003" lon="4.45663">
        <ele>3700.0</ele>
        <time>2020-09-21T13:46:40Z</time>
      </trkpt>
      <trkpt lat="52.119984" lon="4.456602">
        <ele>3700.0</ele>
        <time>2020-09-21T13:46:41Z</time>
      </trkpt>
      <trkpt lat="52.11997" lon="4.45657">
        <ele>3700.0</ele>
        <time>2020-09-21T13:46:41Z</time>
      </trkpt>
      <trkpt lat="52.119946" lon="4.4565406">
        <ele>3700.0</ele>
        <time>2020-09-21T13:46:42Z</time>
      </trkpt>
      <trkpt lat="52.11992" lon="4.456514">
        <ele>3700.0</ele>
        <time>2020-09-21T13:46:43Z</time>
      </trkpt>
      <trkpt lat="52.1199" lon="4.456489">
        <ele>3700.0</ele>
        <time>2020-09-21T13:46:44Z</time>
      </trkpt>
      <trkpt lat="52.119884" lon="4.4564633">
        <ele>3700.0</ele>
        <time>2020-09-21T13:46:46Z</time>
      </trkpt>
      <trkpt lat="52.119865" lon="4.456438">
        <ele>3700.0</ele>
        <time>2020-09-21T13:46:46Z</time>
      </trkpt>
      <trkpt lat="52.11985" lon="4.4564137">
        <ele>3700.0</ele>
        <time>2020-09-21T13:46:47Z</time>
      </trkpt>
      <trkpt lat="52.119827" lon="4.456389">
        <ele>3700.0</ele>
        <time>2020-09-21T13:46:48Z</time>
      </trkpt>
      <trkpt lat="52.11981" lon="4.4563637">
        <ele>3700.0</ele>
        <time>2020-09-21T13:46:49Z</time>
      </trkpt>
      <trkpt lat="52.119793" lon="4.456337">
        <ele>3700.0</ele>
        <time>2020-09-21T13:46:50Z</time>
      </trkpt>
      <trkpt lat="52.119774" lon="4.4563103">
        <ele>3700.0</ele>
        <time>2020-09-21T13:46:51Z</time>
      </trkpt>
      <trkpt lat="52.11975" lon="4.4562817">
        <ele>3700.0</ele>
        <time>2020-09-21T13:46:52Z</time>
      </trkpt>
      <trkpt lat="52.119736" lon="4.4562516">
        <ele>3700.0</ele>
        <time>2020-09-21T13:46:53Z</time>
      </trkpt>
      <trkpt lat="52.119717" lon="4.456221">
        <ele>3700.0</ele>
        <time>2020-09-21T13:46:54Z</time>
      </trkpt>
      <trkpt lat="52.1197" lon="4.4561896">
        <ele>3700.0</ele>
        <time>2020-09-21T13:46:56Z</time>
      </trkpt>
      <trkpt lat="52.11969" lon="4.456156">
        <ele>3700.0</ele>
        <time>2020-09-21T13:46:56Z</time>
      </trkpt>
      <trkpt lat="52.119675" lon="4.4561186">
        <ele>3700.0</ele>
        <time>2020-09-21T13:46:57Z</time>
      </trkpt>
      <trkpt lat="52.11967" lon="4.456083">
        <ele>3700.0</ele>
        <time>2020-09-21T13:46:58Z</time>
      </trkpt>
      <trkpt lat="52.11966" lon="4.4560494">
        <ele>3700.0</ele>
        <time>2020-09-21T13:46:59Z</time>
      </trkpt>
      <trkpt lat="52.119656" lon="4.4560194">
        <ele>3700.0</ele>
        <time>2020-09-21T13:47:00Z</time>
      </trkpt>
      <trkpt lat="52.119648" lon="4.4559917">
        <ele>3700.0</ele>
        <time>2020-09-21T13:47:01Z</time>
      </trkpt>
      <trkpt lat="52.119644" lon="4.4559636">
        <ele>3700.0</ele>
        <time>2020-09-21T13:47:02Z</time>
      </trkpt>
      <trkpt lat="52.11964" lon="4.4559402">
        <ele>3700.0</ele>
        <time>2020-09-21T13:47:03Z</time>
      </trkpt>
      <trkpt lat="52.119633" lon="4.455921">
        <ele>3700.0</ele>
        <time>2020-09-21T13:47:04Z</time>
      </trkpt>
      <trkpt lat="52.11963" lon="4.455908">
        <ele>3700.0</ele>
        <time>2020-09-21T13:47:05Z</time>
      </trkpt>
      <trkpt lat="52.119614" lon="4.455882">
        <ele>3700.0</ele>
        <time>2020-09-21T13:47:07Z</time>
      </trkpt>
      <trkpt lat="52.119614" lon="4.4558825">
        <ele>3700.0</ele>
        <time>2020-09-21T13:47:08Z</time>
      </trkpt>
      <trkpt lat="52.119617" lon="4.455882">
        <ele>3700.0</ele>
        <time>2020-09-21T13:47:10Z</time>
      </trkpt>
      <trkpt lat="52.119617" lon="4.45588">
        <ele>3700.0</ele>
        <time>2020-09-21T13:47:11Z</time>
      </trkpt>
      <trkpt lat="52.119617" lon="4.455876">
        <ele>3700.0</ele>
        <time>2020-09-21T13:47:12Z</time>
      </trkpt>
      <trkpt lat="52.119617" lon="4.4558682">
        <ele>3700.0</ele>
        <time>2020-09-21T13:47:13Z</time>
      </trkpt>
      <trkpt lat="52.119614" lon="4.4558625">
        <ele>3700.0</ele>
        <time>2020-09-21T13:47:14Z</time>
      </trkpt>
      <trkpt lat="52.11961" lon="4.4558597">
        <ele>3700.0</ele>
        <time>2020-09-21T13:47:15Z</time>
      </trkpt>
      <trkpt lat="52.1196" lon="4.4558578">
        <ele>3700.0</ele>
        <time>2020-09-21T13:47:16Z</time>
      </trkpt>
      <trkpt lat="52.1196" lon="4.455856">
        <ele>3700.0</ele>
        <time>2020-09-21T13:47:18Z</time>
      </trkpt>
      <trkpt lat="52.119587" lon="4.45585">
        <ele>3700.0</ele>
        <time>2020-09-21T13:47:20Z</time>
      </trkpt>
      <trkpt lat="52.119587" lon="4.455848">
        <ele>3700.0</ele>
        <time>2020-09-21T13:47:21Z</time>
      </trkpt>
      <trkpt lat="52.119595" lon="4.455846">
        <ele>3700.0</ele>
        <time>2020-09-21T13:47:22Z</time>
      </trkpt>
      <trkpt lat="52.119595" lon="4.455843">
        <ele>3700.0</ele>
        <time>2020-09-21T13:47:23Z</time>
      </trkpt>
      <trkpt lat="52.1196" lon="4.4558406">
        <ele>3700.0</ele>
        <time>2020-09-21T13:47:24Z</time>
      </trkpt>
      <trkpt lat="52.11961" lon="4.4558287">
        <ele>3700.0</ele>
        <time>2020-09-21T13:47:27Z</time>
      </trkpt>
      <trkpt lat="52.11961" lon="4.455826">
        <ele>3700.0</ele>
        <time>2020-09-21T13:47:28Z</time>
      </trkpt>
      <trkpt lat="52.11961" lon="4.4558187">
        <ele>3700.0</ele>
        <time>2020-09-21T13:47:30Z</time>
      </trkpt>
      <trkpt lat="52.119602" lon="4.455807">
        <ele>3700.0</ele>
        <time>2020-09-21T13:47:30Z</time>
      </trkpt>
      <trkpt lat="52.1196" lon="4.455792">
        <ele>3700.0</ele>
        <time>2020-09-21T13:47:31Z</time>
      </trkpt>
      <trkpt lat="52.119583" lon="4.4557734">
        <ele>3700.0</ele>
        <time>2020-09-21T13:47:32Z</time>
      </trkpt>
      <trkpt lat="52.119568" lon="4.455752">
        <ele>3700.0</ele>
        <time>2020-09-21T13:47:33Z</time>
      </trkpt>
      <trkpt lat="52.119553" lon="4.4557257">
        <ele>3700.0</ele>
        <time>2020-09-21T13:47:34Z</time>
      </trkpt>
      <trkpt lat="52.11953" lon="4.455699">
        <ele>3700.0</ele>
        <time>2020-09-21T13:47:35Z</time>
      </trkpt>
      <trkpt lat="52.11951" lon="4.45567">
        <ele>3700.0</ele>
        <time>2020-09-21T13:47:36Z</time>
      </trkpt>
      <trkpt lat="52.11949" lon="4.4556427">
        <ele>3700.0</ele>
        <time>2020-09-21T13:47:37Z</time>
      </trkpt>
      <trkpt lat="52.11947" lon="4.455615">
        <ele>3700.0</ele>
        <time>2020-09-21T13:47:38Z</time>
      </trkpt>
      <trkpt lat="52.119453" lon="4.4555893">
        <ele>3700.0</ele>
        <time>2020-09-21T13:47:39Z</time>
      </trkpt>
      <trkpt lat="52.119434" lon="4.455566">
        <ele>3700.0</ele>
        <time>2020-09-21T13:47:40Z</time>
      </trkpt>
      <trkpt lat="52.119415" lon="4.4555445">
        <ele>3700.0</ele>
        <time>2020-09-21T13:47:41Z</time>
      </trkpt>
      <trkpt lat="52.1194" lon="4.455527">
        <ele>3700.0</ele>
        <time>2020-09-21T13:47:42Z</time>
      </trkpt>
      <trkpt lat="52.119385" lon="4.4555116">
        <ele>3700.0</ele>
        <time>2020-09-21T13:47:43Z</time>
      </trkpt>
      <trkpt lat="52.119373" lon="4.4555006">
        <ele>3800.0</ele>
        <time>2020-09-21T13:47:44Z</time>
      </trkpt>
      <trkpt lat="52.11937" lon="4.455493">
        <ele>3800.0</ele>
        <time>2020-09-21T13:47:45Z</time>
      </trkpt>
      <trkpt lat="52.119358" lon="4.455489">
        <ele>3800.0</ele>
        <time>2020-09-21T13:47:46Z</time>
      </trkpt>
      <trkpt lat="52.11935" lon="4.455486">
        <ele>3800.0</ele>
        <time>2020-09-21T13:47:48Z</time>
      </trkpt>
      <trkpt lat="52.119347" lon="4.4554825">
        <ele>3800.0</ele>
        <time>2020-09-21T13:47:48Z</time>
      </trkpt>
      <trkpt lat="52.119335" lon="4.45548">
        <ele>3800.0</ele>
        <time>2020-09-21T13:47:49Z</time>
      </trkpt>
      <trkpt lat="52.11933" lon="4.4554744">
        <ele>3800.0</ele>
        <time>2020-09-21T13:47:50Z</time>
      </trkpt>
      <trkpt lat="52.119328" lon="4.455465">
        <ele>3800.0</ele>
        <time>2020-09-21T13:47:51Z</time>
      </trkpt>
      <trkpt lat="52.119328" lon="4.4554543">
        <ele>3800.0</ele>
        <time>2020-09-21T13:47:52Z</time>
      </trkpt>
      <trkpt lat="52.119328" lon="4.455447">
        <ele>3800.0</ele>
        <time>2020-09-21T13:47:53Z</time>
      </trkpt>
      <trkpt lat="52.119328" lon="4.4554434">
        <ele>3800.0</ele>
        <time>2020-09-21T13:47:54Z</time>
      </trkpt>
      <trkpt lat="52.11932" lon="4.455443">
        <ele>3800.0</ele>
        <time>2020-09-21T13:47:55Z</time>
      </trkpt>
      <trkpt lat="52.11932" lon="4.455464">
        <ele>3800.0</ele>
        <time>2020-09-21T13:47:59Z</time>
      </trkpt>
      <trkpt lat="52.119316" lon="4.455464">
        <ele>3800.0</ele>
        <time>2020-09-21T13:47:59Z</time>
      </trkpt>
      <trkpt lat="52.119328" lon="4.455462">
        <ele>3800.0</ele>
        <time>2020-09-21T13:48:01Z</time>
      </trkpt>
      <trkpt lat="52.119328" lon="4.4554605">
        <ele>3800.0</ele>
        <time>2020-09-21T13:48:02Z</time>
      </trkpt>
      <trkpt lat="52.119328" lon="4.4554543">
        <ele>3800.0</ele>
        <time>2020-09-21T13:48:03Z</time>
      </trkpt>
      <trkpt lat="52.11932" lon="4.4554443">
        <ele>3800.0</ele>
        <time>2020-09-21T13:48:04Z</time>
      </trkpt>
      <trkpt lat="52.119312" lon="4.4554296">
        <ele>3800.0</ele>
        <time>2020-09-21T13:48:05Z</time>
      </trkpt>
      <trkpt lat="52.119297" lon="4.4554114">
        <ele>3800.0</ele>
        <time>2020-09-21T13:48:06Z</time>
      </trkpt>
      <trkpt lat="52.119286" lon="4.455391">
        <ele>3800.0</ele>
        <time>2020-09-21T13:48:07Z</time>
      </trkpt>
      <trkpt lat="52.119274" lon="4.45537">
        <ele>3800.0</ele>
        <time>2020-09-21T13:48:08Z</time>
      </trkpt>
      <trkpt lat="52.11927" lon="4.4553494">
        <ele>3800.0</ele>
        <time>2020-09-21T13:48:10Z</time>
      </trkpt>
      <trkpt lat="52.119267" lon="4.4553294">
        <ele>3800.0</ele>
        <time>2020-09-21T13:48:10Z</time>
      </trkpt>
      <trkpt lat="52.11926" lon="4.4553103">
        <ele>3800.0</ele>
        <time>2020-09-21T13:48:11Z</time>
      </trkpt>
      <trkpt lat="52.11926" lon="4.455293">
        <ele>3800.0</ele>
        <time>2020-09-21T13:48:12Z</time>
      </trkpt>
      <trkpt lat="52.119255" lon="4.4552746">
        <ele>4000.0</ele>
        <time>2020-09-21T13:48:13Z</time>
      </trkpt>
      <trkpt lat="52.11925" lon="4.4552555">
        <ele>4000.0</ele>
        <time>2020-09-21T13:48:14Z</time>
      </trkpt>
      <trkpt lat="52.119244" lon="4.4552336">
        <ele>4000.0</ele>
        <time>2020-09-21T13:48:15Z</time>
      </trkpt>
      <trkpt lat="52.119236" lon="4.4552126">
        <ele>4000.0</ele>
        <time>2020-09-21T13:48:16Z</time>
      </trkpt>
      <trkpt lat="52.119225" lon="4.4551897">
        <ele>4000.0</ele>
        <time>2020-09-21T13:48:17Z</time>
      </trkpt>
      <trkpt lat="52.11922" lon="4.455166">
        <ele>4000.0</ele>
        <time>2020-09-21T13:48:18Z</time>
      </trkpt>
      <trkpt lat="52.11921" lon="4.455141">
        <ele>4000.0</ele>
        <time>2020-09-21T13:48:19Z</time>
      </trkpt>
      <trkpt lat="52.119205" lon="4.4551144">
        <ele>4000.0</ele>
        <time>2020-09-21T13:48:20Z</time>
      </trkpt>
      <trkpt lat="52.119194" lon="4.455083">
        <ele>4000.0</ele>
        <time>2020-09-21T13:48:21Z</time>
      </trkpt>
      <trkpt lat="52.119183" lon="4.455046">
        <ele>4000.0</ele>
        <time>2020-09-21T13:48:22Z</time>
      </trkpt>
      <trkpt lat="52.119167" lon="4.4550066">
        <ele>3900.0</ele>
        <time>2020-09-21T13:48:23Z</time>
      </trkpt>
      <trkpt lat="52.119156" lon="4.454965">
        <ele>3900.0</ele>
        <time>2020-09-21T13:48:24Z</time>
      </trkpt>
      <trkpt lat="52.11914" lon="4.4549227">
        <ele>3900.0</ele>
        <time>2020-09-21T13:48:25Z</time>
      </trkpt>
      <trkpt lat="52.119133" lon="4.454879">
        <ele>3900.0</ele>
        <time>2020-09-21T13:48:26Z</time>
      </trkpt>
      <trkpt lat="52.11912" lon="4.4548373">
        <ele>3900.0</ele>
        <time>2020-09-21T13:48:27Z</time>
      </trkpt>
      <trkpt lat="52.119106" lon="4.454798">
        <ele>3900.0</ele>
        <time>2020-09-21T13:48:28Z</time>
      </trkpt>
      <trkpt lat="52.119095" lon="4.4547596">
        <ele>3900.0</ele>
        <time>2020-09-21T13:48:29Z</time>
      </trkpt>
      <trkpt lat="52.11908" lon="4.4547224">
        <ele>3800.0</ele>
        <time>2020-09-21T13:48:31Z</time>
      </trkpt>
      <trkpt lat="52.119072" lon="4.454684">
        <ele>3800.0</ele>
        <time>2020-09-21T13:48:31Z</time>
      </trkpt>
      <trkpt lat="52.11905" lon="4.454645">
        <ele>3800.0</ele>
        <time>2020-09-21T13:48:32Z</time>
      </trkpt>
      <trkpt lat="52.11903" lon="4.454606">
        <ele>3800.0</ele>
        <time>2020-09-21T13:48:33Z</time>
      </trkpt>
      <trkpt lat="52.119015" lon="4.454568">
        <ele>3800.0</ele>
        <time>2020-09-21T13:48:34Z</time>
      </trkpt>
      <trkpt lat="52.118996" lon="4.4545293">
        <ele>3800.0</ele>
        <time>2020-09-21T13:48:35Z</time>
      </trkpt>
      <trkpt lat="52.118973" lon="4.4544926">
        <ele>3800.0</ele>
        <time>2020-09-21T13:48:36Z</time>
      </trkpt>
      <trkpt lat="52.118954" lon="4.4544587">
        <ele>3800.0</ele>
        <time>2020-09-21T13:48:37Z</time>
      </trkpt>
      <trkpt lat="52.11893" lon="4.454423">
        <ele>3800.0</ele>
        <time>2020-09-21T13:48:38Z</time>
      </trkpt>
      <trkpt lat="52.118916" lon="4.454383">
        <ele>3800.0</ele>
        <time>2020-09-21T13:48:39Z</time>
      </trkpt>
      <trkpt lat="52.1189" lon="4.4543405">
        <ele>3800.0</ele>
        <time>2020-09-21T13:48:41Z</time>
      </trkpt>
      <trkpt lat="52.118893" lon="4.454298">
        <ele>3800.0</ele>
        <time>2020-09-21T13:48:41Z</time>
      </trkpt>
      <trkpt lat="52.11888" lon="4.454256">
        <ele>3800.0</ele>
        <time>2020-09-21T13:48:42Z</time>
      </trkpt>
      <trkpt lat="52.11887" lon="4.454213">
        <ele>3800.0</ele>
        <time>2020-09-21T13:48:43Z</time>
      </trkpt>
      <trkpt lat="52.118855" lon="4.4541707">
        <ele>3800.0</ele>
        <time>2020-09-21T13:48:44Z</time>
      </trkpt>
      <trkpt lat="52.118847" lon="4.454128">
        <ele>3800.0</ele>
        <time>2020-09-21T13:48:45Z</time>
      </trkpt>
      <trkpt lat="52.118835" lon="4.4540844">
        <ele>3800.0</ele>
        <time>2020-09-21T13:48:46Z</time>
      </trkpt>
      <trkpt lat="52.118824" lon="4.4540415">
        <ele>3800.0</ele>
        <time>2020-09-21T13:48:47Z</time>
      </trkpt>
      <trkpt lat="52.11882" lon="4.453993">
        <ele>3800.0</ele>
        <time>2020-09-21T13:48:49Z</time>
      </trkpt>
      <trkpt lat="52.11882" lon="4.4539423">
        <ele>3800.0</ele>
        <time>2020-09-21T13:48:49Z</time>
      </trkpt>
      <trkpt lat="52.11882" lon="4.4538913">
        <ele>3800.0</ele>
        <time>2020-09-21T13:48:50Z</time>
      </trkpt>
      <trkpt lat="52.11882" lon="4.4538436">
        <ele>3800.0</ele>
        <time>2020-09-21T13:48:51Z</time>
      </trkpt>
      <trkpt lat="52.118824" lon="4.4537964">
        <ele>3800.0</ele>
        <time>2020-09-21T13:48:52Z</time>
      </trkpt>
      <trkpt lat="52.11883" lon="4.4537497">
        <ele>3800.0</ele>
        <time>2020-09-21T13:48:53Z</time>
      </trkpt>
      <trkpt lat="52.118835" lon="4.453701">
        <ele>3800.0</ele>
        <time>2020-09-21T13:48:54Z</time>
      </trkpt>
      <trkpt lat="52.11884" lon="4.4536505">
        <ele>3800.0</ele>
        <time>2020-09-21T13:48:55Z</time>
      </trkpt>
      <trkpt lat="52.11884" lon="4.453598">
        <ele>3800.0</ele>
        <time>2020-09-21T13:48:56Z</time>
      </trkpt>
      <trkpt lat="52.11884" lon="4.453547">
        <ele>3800.0</ele>
        <time>2020-09-21T13:48:57Z</time>
      </trkpt>
      <trkpt lat="52.118835" lon="4.4534965">
        <ele>3800.0</ele>
        <time>2020-09-21T13:48:59Z</time>
      </trkpt>
      <trkpt lat="52.11883" lon="4.4534454">
        <ele>3800.0</ele>
        <time>2020-09-21T13:48:59Z</time>
      </trkpt>
      <trkpt lat="52.118824" lon="4.4533963">
        <ele>3800.0</ele>
        <time>2020-09-21T13:49:00Z</time>
      </trkpt>
      <trkpt lat="52.11881" lon="4.453349">
        <ele>3800.0</ele>
        <time>2020-09-21T13:49:01Z</time>
      </trkpt>
      <trkpt lat="52.118793" lon="4.4533043">
        <ele>3800.0</ele>
        <time>2020-09-21T13:49:02Z</time>
      </trkpt>
      <trkpt lat="52.118774" lon="4.453261">
        <ele>3800.0</ele>
        <time>2020-09-21T13:49:03Z</time>
      </trkpt>
      <trkpt lat="52.11875" lon="4.4532175">
        <ele>3800.0</ele>
        <time>2020-09-21T13:49:04Z</time>
      </trkpt>
      <trkpt lat="52.11873" lon="4.4531765">
        <ele>3800.0</ele>
        <time>2020-09-21T13:49:05Z</time>
      </trkpt>
      <trkpt lat="52.118706" lon="4.453139">
        <ele>3800.0</ele>
        <time>2020-09-21T13:49:06Z</time>
      </trkpt>
      <trkpt lat="52.118683" lon="4.453103">
        <ele>3800.0</ele>
        <time>2020-09-21T13:49:07Z</time>
      </trkpt>
      <trkpt lat="52.118656" lon="4.453066">
        <ele>3800.0</ele>
        <time>2020-09-21T13:49:08Z</time>
      </trkpt>
      <trkpt lat="52.11863" lon="4.4530287">
        <ele>3800.0</ele>
        <time>2020-09-21T13:49:09Z</time>
      </trkpt>
      <trkpt lat="52.118607" lon="4.4529924">
        <ele>3800.0</ele>
        <time>2020-09-21T13:49:10Z</time>
      </trkpt>
      <trkpt lat="52.11858" lon="4.4529586">
        <ele>3800.0</ele>
        <time>2020-09-21T13:49:11Z</time>
      </trkpt>
      <trkpt lat="52.11855" lon="4.4529243">
        <ele>3800.0</ele>
        <time>2020-09-21T13:49:12Z</time>
      </trkpt>
      <trkpt lat="52.118523" lon="4.452889">
        <ele>3800.0</ele>
        <time>2020-09-21T13:49:13Z</time>
      </trkpt>
      <trkpt lat="52.118492" lon="4.4528556">
        <ele>3800.0</ele>
        <time>2020-09-21T13:49:14Z</time>
      </trkpt>
      <trkpt lat="52.118465" lon="4.452823">
        <ele>3800.0</ele>
        <time>2020-09-21T13:49:15Z</time>
      </trkpt>
      <trkpt lat="52.118435" lon="4.4527893">
        <ele>3800.0</ele>
        <time>2020-09-21T13:49:16Z</time>
      </trkpt>
      <trkpt lat="52.118412" lon="4.4527545">
        <ele>3800.0</ele>
        <time>2020-09-21T13:49:17Z</time>
      </trkpt>
      <trkpt lat="52.118385" lon="4.45272">
        <ele>3800.0</ele>
        <time>2020-09-21T13:49:18Z</time>
      </trkpt>
      <trkpt lat="52.11836" lon="4.452687">
        <ele>3800.0</ele>
        <time>2020-09-21T13:49:20Z</time>
      </trkpt>
      <trkpt lat="52.11833" lon="4.4526563">
        <ele>3800.0</ele>
        <time>2020-09-21T13:49:20Z</time>
      </trkpt>
      <trkpt lat="52.1183" lon="4.4526267">
        <ele>3800.0</ele>
        <time>2020-09-21T13:49:21Z</time>
      </trkpt>
      <trkpt lat="52.118267" lon="4.452595">
        <ele>3800.0</ele>
        <time>2020-09-21T13:49:22Z</time>
      </trkpt>
      <trkpt lat="52.118237" lon="4.4525623">
        <ele>3800.0</ele>
        <time>2020-09-21T13:49:23Z</time>
      </trkpt>
      <trkpt lat="52.118206" lon="4.4525304">
        <ele>3800.0</ele>
        <time>2020-09-21T13:49:24Z</time>
      </trkpt>
      <trkpt lat="52.11818" lon="4.4524984">
        <ele>3800.0</ele>
        <time>2020-09-21T13:49:26Z</time>
      </trkpt>
      <trkpt lat="52.118153" lon="4.452469">
        <ele>3800.0</ele>
        <time>2020-09-21T13:49:26Z</time>
      </trkpt>
      <trkpt lat="52.118134" lon="4.452438">
        <ele>3800.0</ele>
        <time>2020-09-21T13:49:27Z</time>
      </trkpt>
      <trkpt lat="52.118114" lon="4.4524074">
        <ele>3800.0</ele>
        <time>2020-09-21T13:49:28Z</time>
      </trkpt>
      <trkpt lat="52.11809" lon="4.452376">
        <ele>3800.0</ele>
        <time>2020-09-21T13:49:29Z</time>
      </trkpt>
      <trkpt lat="52.11807" lon="4.4523444">
        <ele>3800.0</ele>
        <time>2020-09-21T13:49:30Z</time>
      </trkpt>
      <trkpt lat="52.11804" lon="4.4523125">
        <ele>3800.0</ele>
        <time>2020-09-21T13:49:31Z</time>
      </trkpt>
      <trkpt lat="52.11801" lon="4.4522805">
        <ele>3800.0</ele>
        <time>2020-09-21T13:49:32Z</time>
      </trkpt>
      <trkpt lat="52.11798" lon="4.452252">
        <ele>3800.0</ele>
        <time>2020-09-21T13:49:34Z</time>
      </trkpt>
      <trkpt lat="52.117954" lon="4.4522233">
        <ele>3800.0</ele>
        <time>2020-09-21T13:49:34Z</time>
      </trkpt>
      <trkpt lat="52.117924" lon="4.4521947">
        <ele>3800.0</ele>
        <time>2020-09-21T13:49:35Z</time>
      </trkpt>
      <trkpt lat="52.117893" lon="4.4521646">
        <ele>3800.0</ele>
        <time>2020-09-21T13:49:36Z</time>
      </trkpt>
      <trkpt lat="52.117863" lon="4.4521317">
        <ele>3800.0</ele>
        <time>2020-09-21T13:49:37Z</time>
      </trkpt>
      <trkpt lat="52.11783" lon="4.452098">
        <ele>3800.0</ele>
        <time>2020-09-21T13:49:38Z</time>
      </trkpt>
      <trkpt lat="52.117794" lon="4.452066">
        <ele>3800.0</ele>
        <time>2020-09-21T13:49:39Z</time>
      </trkpt>
      <trkpt lat="52.117764" lon="4.452035">
        <ele>3800.0</ele>
        <time>2020-09-21T13:49:40Z</time>
      </trkpt>
      <trkpt lat="52.117733" lon="4.452004">
        <ele>3800.0</ele>
        <time>2020-09-21T13:49:41Z</time>
      </trkpt>
      <trkpt lat="52.117702" lon="4.451975">
        <ele>3800.0</ele>
        <time>2020-09-21T13:49:42Z</time>
      </trkpt>
      <trkpt lat="52.11767" lon="4.4519486">
        <ele>3800.0</ele>
        <time>2020-09-21T13:49:44Z</time>
      </trkpt>
      <trkpt lat="52.117626" lon="4.4519234">
        <ele>3800.0</ele>
        <time>2020-09-21T13:49:44Z</time>
      </trkpt>
      <trkpt lat="52.11759" lon="4.4518933">
        <ele>3800.0</ele>
        <time>2020-09-21T13:49:45Z</time>
      </trkpt>
      <trkpt lat="52.11756" lon="4.45186">
        <ele>3800.0</ele>
        <time>2020-09-21T13:49:46Z</time>
      </trkpt>
      <trkpt lat="52.11753" lon="4.4518266">
        <ele>3800.0</ele>
        <time>2020-09-21T13:49:47Z</time>
      </trkpt>
      <trkpt lat="52.1175" lon="4.4517927">
        <ele>3800.0</ele>
        <time>2020-09-21T13:49:48Z</time>
      </trkpt>
      <trkpt lat="52.117474" lon="4.451761">
        <ele>3800.0</ele>
        <time>2020-09-21T13:49:49Z</time>
      </trkpt>
      <trkpt lat="52.117443" lon="4.451733">
        <ele>3800.0</ele>
        <time>2020-09-21T13:49:51Z</time>
      </trkpt>
      <trkpt lat="52.117405" lon="4.4517055">
        <ele>3800.0</ele>
        <time>2020-09-21T13:49:51Z</time>
      </trkpt>
      <trkpt lat="52.117374" lon="4.4516735">
        <ele>3800.0</ele>
        <time>2020-09-21T13:49:52Z</time>
      </trkpt>
      <trkpt lat="52.11735" lon="4.451639">
        <ele>3800.0</ele>
        <time>2020-09-21T13:49:53Z</time>
      </trkpt>
      <trkpt lat="52.11732" lon="4.4516034">
        <ele>3800.0</ele>
        <time>2020-09-21T13:49:54Z</time>
      </trkpt>
      <trkpt lat="52.117294" lon="4.4515686">
        <ele>3800.0</ele>
        <time>2020-09-21T13:49:55Z</time>
      </trkpt>
      <trkpt lat="52.11726" lon="4.4515324">
        <ele>3800.0</ele>
        <time>2020-09-21T13:49:56Z</time>
      </trkpt>
      <trkpt lat="52.117226" lon="4.451498">
        <ele>3800.0</ele>
        <time>2020-09-21T13:49:57Z</time>
      </trkpt>
      <trkpt lat="52.117195" lon="4.4514623">
        <ele>3800.0</ele>
        <time>2020-09-21T13:49:58Z</time>
      </trkpt>
      <trkpt lat="52.117172" lon="4.451427">
        <ele>3800.0</ele>
        <time>2020-09-21T13:49:59Z</time>
      </trkpt>
      <trkpt lat="52.117146" lon="4.451391">
        <ele>3800.0</ele>
        <time>2020-09-21T13:50:00Z</time>
      </trkpt>
      <trkpt lat="52.11712" lon="4.451361">
        <ele>3800.0</ele>
        <time>2020-09-21T13:50:01Z</time>
      </trkpt>
      <trkpt lat="52.117085" lon="4.45134">
        <ele>3800.0</ele>
        <time>2020-09-21T13:50:02Z</time>
      </trkpt>
      <trkpt lat="52.117054" lon="4.451324">
        <ele>3800.0</ele>
        <time>2020-09-21T13:50:03Z</time>
      </trkpt>
      <trkpt lat="52.117023" lon="4.451309">
        <ele>3800.0</ele>
        <time>2020-09-21T13:50:04Z</time>
      </trkpt>
      <trkpt lat="52.116997" lon="4.451294">
        <ele>3800.0</ele>
        <time>2020-09-21T13:50:05Z</time>
      </trkpt>
      <trkpt lat="52.116978" lon="4.4512796">
        <ele>3800.0</ele>
        <time>2020-09-21T13:50:06Z</time>
      </trkpt>
      <trkpt lat="52.116962" lon="4.4512653">
        <ele>3800.0</ele>
        <time>2020-09-21T13:50:07Z</time>
      </trkpt>
      <trkpt lat="52.11694" lon="4.451253">
        <ele>3800.0</ele>
        <time>2020-09-21T13:50:08Z</time>
      </trkpt>
      <trkpt lat="52.11692" lon="4.4512434">
        <ele>3800.0</ele>
        <time>2020-09-21T13:50:09Z</time>
      </trkpt>
      <trkpt lat="52.116905" lon="4.4512334">
        <ele>3800.0</ele>
        <time>2020-09-21T13:50:10Z</time>
      </trkpt>
      <trkpt lat="52.116886" lon="4.451224">
        <ele>3800.0</ele>
        <time>2020-09-21T13:50:12Z</time>
      </trkpt>
      <trkpt lat="52.116863" lon="4.451215">
        <ele>3800.0</ele>
        <time>2020-09-21T13:50:12Z</time>
      </trkpt>
      <trkpt lat="52.116848" lon="4.451207">
        <ele>3800.0</ele>
        <time>2020-09-21T13:50:13Z</time>
      </trkpt>
      <trkpt lat="52.116833" lon="4.4512024">
        <ele>3800.0</ele>
        <time>2020-09-21T13:50:14Z</time>
      </trkpt>
      <trkpt lat="52.116814" lon="4.451201">
        <ele>3800.0</ele>
        <time>2020-09-21T13:50:15Z</time>
      </trkpt>
      <trkpt lat="52.1168" lon="4.451202">
        <ele>3800.0</ele>
        <time>2020-09-21T13:50:16Z</time>
      </trkpt>
      <trkpt lat="52.116776" lon="4.4512014">
        <ele>3800.0</ele>
        <time>2020-09-21T13:50:17Z</time>
      </trkpt>
      <trkpt lat="52.116756" lon="4.4511976">
        <ele>3800.0</ele>
        <time>2020-09-21T13:50:18Z</time>
      </trkpt>
      <trkpt lat="52.11673" lon="4.451191">
        <ele>3800.0</ele>
        <time>2020-09-21T13:50:19Z</time>
      </trkpt>
      <trkpt lat="52.11671" lon="4.451181">
        <ele>3800.0</ele>
        <time>2020-09-21T13:50:20Z</time>
      </trkpt>
      <trkpt lat="52.11669" lon="4.4511676">
        <ele>3800.0</ele>
        <time>2020-09-21T13:50:21Z</time>
      </trkpt>
      <trkpt lat="52.11667" lon="4.451151">
        <ele>3800.0</ele>
        <time>2020-09-21T13:50:22Z</time>
      </trkpt>
      <trkpt lat="52.116642" lon="4.4511313">
        <ele>3800.0</ele>
        <time>2020-09-21T13:50:23Z</time>
      </trkpt>
      <trkpt lat="52.116623" lon="4.451111">
        <ele>3800.0</ele>
        <time>2020-09-21T13:50:24Z</time>
      </trkpt>
      <trkpt lat="52.116604" lon="4.4510884">
        <ele>3800.0</ele>
        <time>2020-09-21T13:50:25Z</time>
      </trkpt>
      <trkpt lat="52.11658" lon="4.4510665">
        <ele>3800.0</ele>
        <time>2020-09-21T13:50:26Z</time>
      </trkpt>
      <trkpt lat="52.116558" lon="4.4510474">
        <ele>3800.0</ele>
        <time>2020-09-21T13:50:27Z</time>
      </trkpt>
      <trkpt lat="52.11653" lon="4.4510303">
        <ele>3800.0</ele>
        <time>2020-09-21T13:50:28Z</time>
      </trkpt>
      <trkpt lat="52.116505" lon="4.451016">
        <ele>3800.0</ele>
        <time>2020-09-21T13:50:29Z</time>
      </trkpt>
      <trkpt lat="52.11648" lon="4.4510016">
        <ele>3800.0</ele>
        <time>2020-09-21T13:50:30Z</time>
      </trkpt>
      <trkpt lat="52.116447" lon="4.450988">
        <ele>3800.0</ele>
        <time>2020-09-21T13:50:31Z</time>
      </trkpt>
      <trkpt lat="52.116417" lon="4.450973">
        <ele>3800.0</ele>
        <time>2020-09-21T13:50:33Z</time>
      </trkpt>
      <trkpt lat="52.116383" lon="4.4509563">
        <ele>3800.0</ele>
        <time>2020-09-21T13:50:33Z</time>
      </trkpt>
      <trkpt lat="52.11635" lon="4.450933">
        <ele>3900.0</ele>
        <time>2020-09-21T13:50:34Z</time>
      </trkpt>
      <trkpt lat="52.116318" lon="4.450903">
        <ele>3900.0</ele>
        <time>2020-09-21T13:50:35Z</time>
      </trkpt>
      <trkpt lat="52.116287" lon="4.4508724">
        <ele>3900.0</ele>
        <time>2020-09-21T13:50:36Z</time>
      </trkpt>
      <trkpt lat="52.116253" lon="4.4508424">
        <ele>3900.0</ele>
        <time>2020-09-21T13:50:37Z</time>
      </trkpt>
      <trkpt lat="52.116222" lon="4.4508133">
        <ele>3900.0</ele>
        <time>2020-09-21T13:50:38Z</time>
      </trkpt>
      <trkpt lat="52.1162" lon="4.450787">
        <ele>3900.0</ele>
        <time>2020-09-21T13:50:39Z</time>
      </trkpt>
      <trkpt lat="52.11617" lon="4.450762">
        <ele>3900.0</ele>
        <time>2020-09-21T13:50:40Z</time>
      </trkpt>
      <trkpt lat="52.116142" lon="4.45074">
        <ele>3900.0</ele>
        <time>2020-09-21T13:50:41Z</time>
      </trkpt>
      <trkpt lat="52.116116" lon="4.450719">
        <ele>3900.0</ele>
        <time>2020-09-21T13:50:43Z</time>
      </trkpt>
      <trkpt lat="52.116093" lon="4.450699">
        <ele>3900.0</ele>
        <time>2020-09-21T13:50:43Z</time>
      </trkpt>
      <trkpt lat="52.116066" lon="4.450678">
        <ele>3900.0</ele>
        <time>2020-09-21T13:50:44Z</time>
      </trkpt>
      <trkpt lat="52.116035" lon="4.4506545">
        <ele>3900.0</ele>
        <time>2020-09-21T13:50:45Z</time>
      </trkpt>
      <trkpt lat="52.11601" lon="4.4506283">
        <ele>3900.0</ele>
        <time>2020-09-21T13:50:46Z</time>
      </trkpt>
      <trkpt lat="52.11598" lon="4.450603">
        <ele>3900.0</ele>
        <time>2020-09-21T13:50:47Z</time>
      </trkpt>
      <trkpt lat="52.115944" lon="4.450578">
        <ele>3900.0</ele>
        <time>2020-09-21T13:50:48Z</time>
      </trkpt>
      <trkpt lat="52.115906" lon="4.450551">
        <ele>3900.0</ele>
        <time>2020-09-21T13:50:49Z</time>
      </trkpt>
      <trkpt lat="52.11588" lon="4.4505224">
        <ele>3900.0</ele>
        <time>2020-09-21T13:50:50Z</time>
      </trkpt>
      <trkpt lat="52.11585" lon="4.450485">
        <ele>3900.0</ele>
        <time>2020-09-21T13:50:51Z</time>
      </trkpt>
      <trkpt lat="52.115818" lon="4.4504423">
        <ele>3900.0</ele>
        <time>2020-09-21T13:50:52Z</time>
      </trkpt>
      <trkpt lat="52.115795" lon="4.4503956">
        <ele>3900.0</ele>
        <time>2020-09-21T13:50:53Z</time>
      </trkpt>
      <trkpt lat="52.115772" lon="4.4503436">
        <ele>3900.0</ele>
        <time>2020-09-21T13:50:54Z</time>
      </trkpt>
      <trkpt lat="52.115753" lon="4.4502926">
        <ele>3900.0</ele>
        <time>2020-09-21T13:50:55Z</time>
      </trkpt>
      <trkpt lat="52.115738" lon="4.4502344">
        <ele>3900.0</ele>
        <time>2020-09-21T13:50:56Z</time>
      </trkpt>
      <trkpt lat="52.115726" lon="4.450174">
        <ele>3900.0</ele>
        <time>2020-09-21T13:50:56Z</time>
      </trkpt>
      <trkpt lat="52.11571" lon="4.4501143">
        <ele>3900.0</ele>
        <time>2020-09-21T13:50:57Z</time>
      </trkpt>
      <trkpt lat="52.115696" lon="4.4500556">
        <ele>3900.0</ele>
        <time>2020-09-21T13:50:58Z</time>
      </trkpt>
      <trkpt lat="52.11568" lon="4.449999">
        <ele>3900.0</ele>
        <time>2020-09-21T13:50:59Z</time>
      </trkpt>
      <trkpt lat="52.115665" lon="4.4499426">
        <ele>3900.0</ele>
        <time>2020-09-21T13:51:00Z</time>
      </trkpt>
      <trkpt lat="52.11565" lon="4.4498887">
        <ele>3900.0</ele>
        <time>2020-09-21T13:51:01Z</time>
      </trkpt>
      <trkpt lat="52.115635" lon="4.449838">
        <ele>3800.0</ele>
        <time>2020-09-21T13:51:02Z</time>
      </trkpt>
      <trkpt lat="52.115616" lon="4.449791">
        <ele>3800.0</ele>
        <time>2020-09-21T13:51:03Z</time>
      </trkpt>
      <trkpt lat="52.1156" lon="4.44974">
        <ele>3800.0</ele>
        <time>2020-09-21T13:51:04Z</time>
      </trkpt>
      <trkpt lat="52.115578" lon="4.4496922">
        <ele>3800.0</ele>
        <time>2020-09-21T13:51:05Z</time>
      </trkpt>
      <trkpt lat="52.115562" lon="4.449646">
        <ele>3800.0</ele>
        <time>2020-09-21T13:51:06Z</time>
      </trkpt>
      <trkpt lat="52.115555" lon="4.449602">
        <ele>3800.0</ele>
        <time>2020-09-21T13:51:07Z</time>
      </trkpt>
      <trkpt lat="52.115543" lon="4.449558">
        <ele>3800.0</ele>
        <time>2020-09-21T13:51:08Z</time>
      </trkpt>
      <trkpt lat="52.115532" lon="4.4495115">
        <ele>3800.0</ele>
        <time>2020-09-21T13:51:09Z</time>
      </trkpt>
      <trkpt lat="52.115524" lon="4.4494667">
        <ele>3800.0</ele>
        <time>2020-09-21T13:51:10Z</time>
      </trkpt>
      <trkpt lat="52.115513" lon="4.4494267">
        <ele>3800.0</ele>
        <time>2020-09-21T13:51:11Z</time>
      </trkpt>
      <trkpt lat="52.115498" lon="4.449388">
        <ele>3800.0</ele>
        <time>2020-09-21T13:51:12Z</time>
      </trkpt>
      <trkpt lat="52.115482" lon="4.449352">
        <ele>3800.0</ele>
        <time>2020-09-21T13:51:13Z</time>
      </trkpt>
      <trkpt lat="52.115467" lon="4.449316">
        <ele>3800.0</ele>
        <time>2020-09-21T13:51:14Z</time>
      </trkpt>
      <trkpt lat="52.115444" lon="4.449282">
        <ele>3800.0</ele>
        <time>2020-09-21T13:51:15Z</time>
      </trkpt>
      <trkpt lat="52.115425" lon="4.4492507">
        <ele>3800.0</ele>
        <time>2020-09-21T13:51:16Z</time>
      </trkpt>
      <trkpt lat="52.115395" lon="4.4492207">
        <ele>3800.0</ele>
        <time>2020-09-21T13:51:17Z</time>
      </trkpt>
      <trkpt lat="52.115368" lon="4.449192">
        <ele>3800.0</ele>
        <time>2020-09-21T13:51:18Z</time>
      </trkpt>
      <trkpt lat="52.115345" lon="4.449162">
        <ele>3800.0</ele>
        <time>2020-09-21T13:51:19Z</time>
      </trkpt>
      <trkpt lat="52.115314" lon="4.4491315">
        <ele>3800.0</ele>
        <time>2020-09-21T13:51:21Z</time>
      </trkpt>
      <trkpt lat="52.115288" lon="4.449102">
        <ele>3800.0</ele>
        <time>2020-09-21T13:51:21Z</time>
      </trkpt>
      <trkpt lat="52.115257" lon="4.449071">
        <ele>3800.0</ele>
        <time>2020-09-21T13:51:22Z</time>
      </trkpt>
      <trkpt lat="52.11523" lon="4.449035">
        <ele>3800.0</ele>
        <time>2020-09-21T13:51:23Z</time>
      </trkpt>
      <trkpt lat="52.1152" lon="4.449">
        <ele>3800.0</ele>
        <time>2020-09-21T13:51:24Z</time>
      </trkpt>
      <trkpt lat="52.11517" lon="4.4489636">
        <ele>3800.0</ele>
        <time>2020-09-21T13:51:25Z</time>
      </trkpt>
      <trkpt lat="52.11514" lon="4.448931">
        <ele>3800.0</ele>
        <time>2020-09-21T13:51:26Z</time>
      </trkpt>
      <trkpt lat="52.1151" lon="4.4489026">
        <ele>3800.0</ele>
        <time>2020-09-21T13:51:27Z</time>
      </trkpt>
      <trkpt lat="52.115078" lon="4.4488754">
        <ele>3800.0</ele>
        <time>2020-09-21T13:51:28Z</time>
      </trkpt>
      <trkpt lat="52.115047" lon="4.448848">
        <ele>3800.0</ele>
        <time>2020-09-21T13:51:29Z</time>
      </trkpt>
      <trkpt lat="52.115017" lon="4.4488187">
        <ele>3800.0</ele>
        <time>2020-09-21T13:51:31Z</time>
      </trkpt>
      <trkpt lat="52.11499" lon="4.448787">
        <ele>3800.0</ele>
        <time>2020-09-21T13:51:31Z</time>
      </trkpt>
      <trkpt lat="52.11496" lon="4.4487576">
        <ele>3800.0</ele>
        <time>2020-09-21T13:51:32Z</time>
      </trkpt>
      <trkpt lat="52.11494" lon="4.448728">
        <ele>3800.0</ele>
        <time>2020-09-21T13:51:33Z</time>
      </trkpt>
      <trkpt lat="52.114914" lon="4.448699">
        <ele>3800.0</ele>
        <time>2020-09-21T13:51:34Z</time>
      </trkpt>
      <trkpt lat="52.114887" lon="4.448672">
        <ele>3800.0</ele>
        <time>2020-09-21T13:51:35Z</time>
      </trkpt>
      <trkpt lat="52.11486" lon="4.4486465">
        <ele>3800.0</ele>
        <time>2020-09-21T13:51:36Z</time>
      </trkpt>
      <trkpt lat="52.114838" lon="4.448623">
        <ele>3800.0</ele>
        <time>2020-09-21T13:51:37Z</time>
      </trkpt>
      <trkpt lat="52.11481" lon="4.4485984">
        <ele>3800.0</ele>
        <time>2020-09-21T13:51:38Z</time>
      </trkpt>
      <trkpt lat="52.114784" lon="4.448573">
        <ele>3800.0</ele>
        <time>2020-09-21T13:51:39Z</time>
      </trkpt>
      <trkpt lat="52.11476" lon="4.4485445">
        <ele>3800.0</ele>
        <time>2020-09-21T13:51:40Z</time>
      </trkpt>
      <trkpt lat="52.11474" lon="4.4485164">
        <ele>3800.0</ele>
        <time>2020-09-21T13:51:41Z</time>
      </trkpt>
      <trkpt lat="52.11471" lon="4.4484906">
        <ele>3800.0</ele>
        <time>2020-09-21T13:51:42Z</time>
      </trkpt>
      <trkpt lat="52.11468" lon="4.448467">
        <ele>3800.0</ele>
        <time>2020-09-21T13:51:43Z</time>
      </trkpt>
      <trkpt lat="52.11465" lon="4.448444">
        <ele>3800.0</ele>
        <time>2020-09-21T13:51:44Z</time>
      </trkpt>
      <trkpt lat="52.11462" lon="4.448421">
        <ele>3800.0</ele>
        <time>2020-09-21T13:51:46Z</time>
      </trkpt>
      <trkpt lat="52.114597" lon="4.448399">
        <ele>3800.0</ele>
        <time>2020-09-21T13:51:46Z</time>
      </trkpt>
      <trkpt lat="52.114567" lon="4.448377">
        <ele>3800.0</ele>
        <time>2020-09-21T13:51:47Z</time>
      </trkpt>
      <trkpt lat="52.11454" lon="4.448353">
        <ele>3800.0</ele>
        <time>2020-09-21T13:51:48Z</time>
      </trkpt>
      <trkpt lat="52.114513" lon="4.448325">
        <ele>3800.0</ele>
        <time>2020-09-21T13:51:49Z</time>
      </trkpt>
      <trkpt lat="52.114487" lon="4.448296">
        <ele>3800.0</ele>
        <time>2020-09-21T13:51:50Z</time>
      </trkpt>
      <trkpt lat="52.114464" lon="4.448266">
        <ele>3800.0</ele>
        <time>2020-09-21T13:51:51Z</time>
      </trkpt>
      <trkpt lat="52.11444" lon="4.448237">
        <ele>3800.0</ele>
        <time>2020-09-21T13:51:52Z</time>
      </trkpt>
      <trkpt lat="52.114418" lon="4.4482083">
        <ele>3800.0</ele>
        <time>2020-09-21T13:51:53Z</time>
      </trkpt>
      <trkpt lat="52.11439" lon="4.448181">
        <ele>3800.0</ele>
        <time>2020-09-21T13:51:54Z</time>
      </trkpt>
      <trkpt lat="52.114365" lon="4.4481554">
        <ele>3800.0</ele>
        <time>2020-09-21T13:51:56Z</time>
      </trkpt>
      <trkpt lat="52.11434" lon="4.44813">
        <ele>3800.0</ele>
        <time>2020-09-21T13:51:56Z</time>
      </trkpt>
      <trkpt lat="52.114307" lon="4.448104">
        <ele>3800.0</ele>
        <time>2020-09-21T13:51:57Z</time>
      </trkpt>
      <trkpt lat="52.114277" lon="4.448078">
        <ele>3800.0</ele>
        <time>2020-09-21T13:51:58Z</time>
      </trkpt>
      <trkpt lat="52.114246" lon="4.4480543">
        <ele>3800.0</ele>
        <time>2020-09-21T13:51:59Z</time>
      </trkpt>
      <trkpt lat="52.114216" lon="4.448033">
        <ele>3800.0</ele>
        <time>2020-09-21T13:52:00Z</time>
      </trkpt>
      <trkpt lat="52.114185" lon="4.448013">
        <ele>3800.0</ele>
        <time>2020-09-21T13:52:01Z</time>
      </trkpt>
      <trkpt lat="52.11415" lon="4.4479938">
        <ele>3800.0</ele>
        <time>2020-09-21T13:52:02Z</time>
      </trkpt>
      <trkpt lat="52.11412" lon="4.447974">
        <ele>3800.0</ele>
        <time>2020-09-21T13:52:03Z</time>
      </trkpt>
      <trkpt lat="52.114082" lon="4.44795">
        <ele>3800.0</ele>
        <time>2020-09-21T13:52:04Z</time>
      </trkpt>
      <trkpt lat="52.11406" lon="4.4479203">
        <ele>3800.0</ele>
        <time>2020-09-21T13:52:05Z</time>
      </trkpt>
      <trkpt lat="52.114033" lon="4.447886">
        <ele>3800.0</ele>
        <time>2020-09-21T13:52:06Z</time>
      </trkpt>
      <trkpt lat="52.114006" lon="4.447849">
        <ele>3800.0</ele>
        <time>2020-09-21T13:52:07Z</time>
      </trkpt>
      <trkpt lat="52.113983" lon="4.4478116">
        <ele>3800.0</ele>
        <time>2020-09-21T13:52:08Z</time>
      </trkpt>
      <trkpt lat="52.113956" lon="4.4477754">
        <ele>3800.0</ele>
        <time>2020-09-21T13:52:09Z</time>
      </trkpt>
      <trkpt lat="52.11393" lon="4.4477396">
        <ele>3800.0</ele>
        <time>2020-09-21T13:52:10Z</time>
      </trkpt>
      <trkpt lat="52.1139" lon="4.447704">
        <ele>3800.0</ele>
        <time>2020-09-21T13:52:11Z</time>
      </trkpt>
      <trkpt lat="52.113873" lon="4.4476676">
        <ele>3800.0</ele>
        <time>2020-09-21T13:52:12Z</time>
      </trkpt>
      <trkpt lat="52.113842" lon="4.4476314">
        <ele>3800.0</ele>
        <time>2020-09-21T13:52:13Z</time>
      </trkpt>
      <trkpt lat="52.11382" lon="4.4475937">
        <ele>3800.0</ele>
        <time>2020-09-21T13:52:14Z</time>
      </trkpt>
      <trkpt lat="52.11379" lon="4.447557">
        <ele>3800.0</ele>
        <time>2020-09-21T13:52:15Z</time>
      </trkpt>
      <trkpt lat="52.11376" lon="4.44752">
        <ele>3800.0</ele>
        <time>2020-09-21T13:52:17Z</time>
      </trkpt>
      <trkpt lat="52.11373" lon="4.447482">
        <ele>3800.0</ele>
        <time>2020-09-21T13:52:17Z</time>
      </trkpt>
      <trkpt lat="52.113705" lon="4.4474444">
        <ele>3800.0</ele>
        <time>2020-09-21T13:52:18Z</time>
      </trkpt>
      <trkpt lat="52.113674" lon="4.447411">
        <ele>3800.0</ele>
        <time>2020-09-21T13:52:19Z</time>
      </trkpt>
      <trkpt lat="52.11364" lon="4.447376">
        <ele>3800.0</ele>
        <time>2020-09-21T13:52:20Z</time>
      </trkpt>
      <trkpt lat="52.11361" lon="4.44734">
        <ele>3800.0</ele>
        <time>2020-09-21T13:52:21Z</time>
      </trkpt>
      <trkpt lat="52.113583" lon="4.4473047">
        <ele>3800.0</ele>
        <time>2020-09-21T13:52:22Z</time>
      </trkpt>
      <trkpt lat="52.113544" lon="4.447269">
        <ele>3800.0</ele>
        <time>2020-09-21T13:52:23Z</time>
      </trkpt>
      <trkpt lat="52.11352" lon="4.4472337">
        <ele>3800.0</ele>
        <time>2020-09-21T13:52:24Z</time>
      </trkpt>
      <trkpt lat="52.11349" lon="4.447202">
        <ele>3800.0</ele>
        <time>2020-09-21T13:52:25Z</time>
      </trkpt>
      <trkpt lat="52.113464" lon="4.447168">
        <ele>3800.0</ele>
        <time>2020-09-21T13:52:26Z</time>
      </trkpt>
      <trkpt lat="52.113434" lon="4.4471345">
        <ele>3800.0</ele>
        <time>2020-09-21T13:52:27Z</time>
      </trkpt>
      <trkpt lat="52.113407" lon="4.4471006">
        <ele>3800.0</ele>
        <time>2020-09-21T13:52:28Z</time>
      </trkpt>
      <trkpt lat="52.113384" lon="4.447066">
        <ele>3800.0</ele>
        <time>2020-09-21T13:52:29Z</time>
      </trkpt>
      <trkpt lat="52.113358" lon="4.4470286">
        <ele>3800.0</ele>
        <time>2020-09-21T13:52:30Z</time>
      </trkpt>
      <trkpt lat="52.113335" lon="4.4469886">
        <ele>3800.0</ele>
        <time>2020-09-21T13:52:31Z</time>
      </trkpt>
      <trkpt lat="52.11331" lon="4.446949">
        <ele>3800.0</ele>
        <time>2020-09-21T13:52:32Z</time>
      </trkpt>
      <trkpt lat="52.113285" lon="4.4469094">
        <ele>3800.0</ele>
        <time>2020-09-21T13:52:33Z</time>
      </trkpt>
      <trkpt lat="52.113266" lon="4.446871">
        <ele>3800.0</ele>
        <time>2020-09-21T13:52:34Z</time>
      </trkpt>
      <trkpt lat="52.113243" lon="4.446833">
        <ele>3800.0</ele>
        <time>2020-09-21T13:52:35Z</time>
      </trkpt>
      <trkpt lat="52.113224" lon="4.446798">
        <ele>3800.0</ele>
        <time>2020-09-21T13:52:36Z</time>
      </trkpt>
      <trkpt lat="52.113205" lon="4.446763">
        <ele>3800.0</ele>
        <time>2020-09-21T13:52:38Z</time>
      </trkpt>
      <trkpt lat="52.113182" lon="4.44673">
        <ele>3800.0</ele>
        <time>2020-09-21T13:52:38Z</time>
      </trkpt>
      <trkpt lat="52.113163" lon="4.4466934">
        <ele>3800.0</ele>
        <time>2020-09-21T13:52:39Z</time>
      </trkpt>
      <trkpt lat="52.113148" lon="4.446656">
        <ele>3800.0</ele>
        <time>2020-09-21T13:52:40Z</time>
      </trkpt>
      <trkpt lat="52.113125" lon="4.4466214">
        <ele>3800.0</ele>
        <time>2020-09-21T13:52:41Z</time>
      </trkpt>
      <trkpt lat="52.113106" lon="4.4465876">
        <ele>3800.0</ele>
        <time>2020-09-21T13:52:42Z</time>
      </trkpt>
      <trkpt lat="52.11309" lon="4.4465537">
        <ele>3800.0</ele>
        <time>2020-09-21T13:52:43Z</time>
      </trkpt>
      <trkpt lat="52.113075" lon="4.446521">
        <ele>3800.0</ele>
        <time>2020-09-21T13:52:45Z</time>
      </trkpt>
      <trkpt lat="52.11306" lon="4.446489">
        <ele>3800.0</ele>
        <time>2020-09-21T13:52:45Z</time>
      </trkpt>
      <trkpt lat="52.113045" lon="4.446457">
        <ele>3800.0</ele>
        <time>2020-09-21T13:52:46Z</time>
      </trkpt>
      <trkpt lat="52.11303" lon="4.4464245">
        <ele>3800.0</ele>
        <time>2020-09-21T13:52:47Z</time>
      </trkpt>
      <trkpt lat="52.11301" lon="4.4463935">
        <ele>3800.0</ele>
        <time>2020-09-21T13:52:48Z</time>
      </trkpt>
      <trkpt lat="52.112995" lon="4.4463625">
        <ele>3800.0</ele>
        <time>2020-09-21T13:52:49Z</time>
      </trkpt>
      <trkpt lat="52.112984" lon="4.4463315">
        <ele>3800.0</ele>
        <time>2020-09-21T13:52:50Z</time>
      </trkpt>
      <trkpt lat="52.11297" lon="4.446303">
        <ele>3800.0</ele>
        <time>2020-09-21T13:52:51Z</time>
      </trkpt>
      <trkpt lat="52.112957" lon="4.4462776">
        <ele>3800.0</ele>
        <time>2020-09-21T13:52:52Z</time>
      </trkpt>
      <trkpt lat="52.112953" lon="4.4462514">
        <ele>3800.0</ele>
        <time>2020-09-21T13:52:53Z</time>
      </trkpt>
      <trkpt lat="52.11294" lon="4.446222">
        <ele>3800.0</ele>
        <time>2020-09-21T13:52:54Z</time>
      </trkpt>
      <trkpt lat="52.11293" lon="4.4461827">
        <ele>3800.0</ele>
        <time>2020-09-21T13:52:55Z</time>
      </trkpt>
      <trkpt lat="52.112923" lon="4.446142">
        <ele>3800.0</ele>
        <time>2020-09-21T13:52:56Z</time>
      </trkpt>
      <trkpt lat="52.1129" lon="4.4460993">
        <ele>3800.0</ele>
        <time>2020-09-21T13:52:57Z</time>
      </trkpt>
      <trkpt lat="52.112885" lon="4.446054">
        <ele>3800.0</ele>
        <time>2020-09-21T13:52:58Z</time>
      </trkpt>
      <trkpt lat="52.112865" lon="4.4460106">
        <ele>3800.0</ele>
        <time>2020-09-21T13:52:59Z</time>
      </trkpt>
      <trkpt lat="52.11284" lon="4.445967">
        <ele>3800.0</ele>
        <time>2020-09-21T13:53:00Z</time>
      </trkpt>
      <trkpt lat="52.11282" lon="4.4459224">
        <ele>3800.0</ele>
        <time>2020-09-21T13:53:01Z</time>
      </trkpt>
      <trkpt lat="52.112793" lon="4.4458776">
        <ele>3800.0</ele>
        <time>2020-09-21T13:53:02Z</time>
      </trkpt>
      <trkpt lat="52.112766" lon="4.4458327">
        <ele>3800.0</ele>
        <time>2020-09-21T13:53:03Z</time>
      </trkpt>
      <trkpt lat="52.112743" lon="4.4457884">
        <ele>3800.0</ele>
        <time>2020-09-21T13:53:04Z</time>
      </trkpt>
      <trkpt lat="52.112717" lon="4.4457426">
        <ele>3800.0</ele>
        <time>2020-09-21T13:53:06Z</time>
      </trkpt>
      <trkpt lat="52.11269" lon="4.445698">
        <ele>3800.0</ele>
        <time>2020-09-21T13:53:06Z</time>
      </trkpt>
      <trkpt lat="52.112667" lon="4.445651">
        <ele>3800.0</ele>
        <time>2020-09-21T13:53:07Z</time>
      </trkpt>
      <trkpt lat="52.11264" lon="4.4456043">
        <ele>3800.0</ele>
        <time>2020-09-21T13:53:08Z</time>
      </trkpt>
      <trkpt lat="52.112614" lon="4.445561">
        <ele>3800.0</ele>
        <time>2020-09-21T13:53:09Z</time>
      </trkpt>
      <trkpt lat="52.112587" lon="4.4455113">
        <ele>3800.0</ele>
        <time>2020-09-21T13:53:10Z</time>
      </trkpt>
      <trkpt lat="52.112564" lon="4.4454613">
        <ele>3800.0</ele>
        <time>2020-09-21T13:53:11Z</time>
      </trkpt>
      <trkpt lat="52.11254" lon="4.445417">
        <ele>3800.0</ele>
        <time>2020-09-21T13:53:12Z</time>
      </trkpt>
      <trkpt lat="52.11252" lon="4.445369">
        <ele>3800.0</ele>
        <time>2020-09-21T13:53:13Z</time>
      </trkpt>
      <trkpt lat="52.112495" lon="4.4453197">
        <ele>3800.0</ele>
        <time>2020-09-21T13:53:14Z</time>
      </trkpt>
      <trkpt lat="52.112473" lon="4.4452686">
        <ele>3800.0</ele>
        <time>2020-09-21T13:53:16Z</time>
      </trkpt>
      <trkpt lat="52.112446" lon="4.4452186">
        <ele>3800.0</ele>
        <time>2020-09-21T13:53:16Z</time>
      </trkpt>
      <trkpt lat="52.112427" lon="4.4451675">
        <ele>3800.0</ele>
        <time>2020-09-21T13:53:17Z</time>
      </trkpt>
      <trkpt lat="52.112392" lon="4.445119">
        <ele>3800.0</ele>
        <time>2020-09-21T13:53:18Z</time>
      </trkpt>
      <trkpt lat="52.11237" lon="4.4450693">
        <ele>3800.0</ele>
        <time>2020-09-21T13:53:19Z</time>
      </trkpt>
      <trkpt lat="52.11234" lon="4.4450192">
        <ele>3800.0</ele>
        <time>2020-09-21T13:53:20Z</time>
      </trkpt>
      <trkpt lat="52.112316" lon="4.4449673">
        <ele>3800.0</ele>
        <time>2020-09-21T13:53:21Z</time>
      </trkpt>
      <trkpt lat="52.112293" lon="4.4449162">
        <ele>3800.0</ele>
        <time>2020-09-21T13:53:22Z</time>
      </trkpt>
      <trkpt lat="52.11227" lon="4.44487">
        <ele>3800.0</ele>
        <time>2020-09-21T13:53:23Z</time>
      </trkpt>
      <trkpt lat="52.112247" lon="4.444825">
        <ele>3800.0</ele>
        <time>2020-09-21T13:53:24Z</time>
      </trkpt>
      <trkpt lat="52.11222" lon="4.4447784">
        <ele>3800.0</ele>
        <time>2020-09-21T13:53:25Z</time>
      </trkpt>
      <trkpt lat="52.11219" lon="4.4447327">
        <ele>3800.0</ele>
        <time>2020-09-21T13:53:27Z</time>
      </trkpt>
      <trkpt lat="52.11216" lon="4.444686">
        <ele>3800.0</ele>
        <time>2020-09-21T13:53:27Z</time>
      </trkpt>
      <trkpt lat="52.112133" lon="4.444642">
        <ele>3800.0</ele>
        <time>2020-09-21T13:53:28Z</time>
      </trkpt>
      <trkpt lat="52.112103" lon="4.4445972">
        <ele>3800.0</ele>
        <time>2020-09-21T13:53:29Z</time>
      </trkpt>
      <trkpt lat="52.112076" lon="4.444551">
        <ele>3800.0</ele>
        <time>2020-09-21T13:53:30Z</time>
      </trkpt>
      <trkpt lat="52.11204" lon="4.444503">
        <ele>3800.0</ele>
        <time>2020-09-21T13:53:31Z</time>
      </trkpt>
      <trkpt lat="52.112015" lon="4.4444575">
        <ele>3800.0</ele>
        <time>2020-09-21T13:53:32Z</time>
      </trkpt>
      <trkpt lat="52.111988" lon="4.4444103">
        <ele>3800.0</ele>
        <time>2020-09-21T13:53:33Z</time>
      </trkpt>
      <trkpt lat="52.111965" lon="4.444364">
        <ele>3800.0</ele>
        <time>2020-09-21T13:53:34Z</time>
      </trkpt>
      <trkpt lat="52.11194" lon="4.4443192">
        <ele>3800.0</ele>
        <time>2020-09-21T13:53:35Z</time>
      </trkpt>
      <trkpt lat="52.111908" lon="4.4442697">
        <ele>3800.0</ele>
        <time>2020-09-21T13:53:37Z</time>
      </trkpt>
      <trkpt lat="52.11188" lon="4.44422">
        <ele>3800.0</ele>
        <time>2020-09-21T13:53:37Z</time>
      </trkpt>
      <trkpt lat="52.11185" lon="4.4441733">
        <ele>3800.0</ele>
        <time>2020-09-21T13:53:38Z</time>
      </trkpt>
      <trkpt lat="52.11182" lon="4.444125">
        <ele>3800.0</ele>
        <time>2020-09-21T13:53:39Z</time>
      </trkpt>
      <trkpt lat="52.111794" lon="4.4440746">
        <ele>3800.0</ele>
        <time>2020-09-21T13:53:40Z</time>
      </trkpt>
      <trkpt lat="52.111763" lon="4.444023">
        <ele>3800.0</ele>
        <time>2020-09-21T13:53:41Z</time>
      </trkpt>
      <trkpt lat="52.111732" lon="4.4439716">
        <ele>3800.0</ele>
        <time>2020-09-21T13:53:42Z</time>
      </trkpt>
      <trkpt lat="52.11171" lon="4.443918">
        <ele>3800.0</ele>
        <time>2020-09-21T13:53:43Z</time>
      </trkpt>
      <trkpt lat="52.111683" lon="4.443863">
        <ele>3800.0</ele>
        <time>2020-09-21T13:53:44Z</time>
      </trkpt>
      <trkpt lat="52.111652" lon="4.4438057">
        <ele>3800.0</ele>
        <time>2020-09-21T13:53:45Z</time>
      </trkpt>
      <trkpt lat="52.111626" lon="4.443753">
        <ele>3800.0</ele>
        <time>2020-09-21T13:53:46Z</time>
      </trkpt>
      <trkpt lat="52.1116" lon="4.4437037">
        <ele>3800.0</ele>
        <time>2020-09-21T13:53:47Z</time>
      </trkpt>
      <trkpt lat="52.11158" lon="4.4436593">
        <ele>3800.0</ele>
        <time>2020-09-21T13:53:48Z</time>
      </trkpt>
      <trkpt lat="52.11156" lon="4.4436154">
        <ele>3800.0</ele>
        <time>2020-09-21T13:53:49Z</time>
      </trkpt>
      <trkpt lat="52.111538" lon="4.4435706">
        <ele>3800.0</ele>
        <time>2020-09-21T13:53:50Z</time>
      </trkpt>
      <trkpt lat="52.111515" lon="4.4435205">
        <ele>3800.0</ele>
        <time>2020-09-21T13:53:51Z</time>
      </trkpt>
      <trkpt lat="52.111492" lon="4.4434695">
        <ele>3800.0</ele>
        <time>2020-09-21T13:53:52Z</time>
      </trkpt>
      <trkpt lat="52.111473" lon="4.4434223">
        <ele>3800.0</ele>
        <time>2020-09-21T13:53:53Z</time>
      </trkpt>
      <trkpt lat="52.111454" lon="4.4433756">
        <ele>3800.0</ele>
        <time>2020-09-21T13:53:54Z</time>
      </trkpt>
      <trkpt lat="52.11143" lon="4.4433284">
        <ele>3800.0</ele>
        <time>2020-09-21T13:53:55Z</time>
      </trkpt>
      <trkpt lat="52.111412" lon="4.4432783">
        <ele>3800.0</ele>
        <time>2020-09-21T13:53:56Z</time>
      </trkpt>
      <trkpt lat="52.11139" lon="4.4432235">
        <ele>3800.0</ele>
        <time>2020-09-21T13:53:58Z</time>
      </trkpt>
      <trkpt lat="52.111366" lon="4.4431734">
        <ele>3800.0</ele>
        <time>2020-09-21T13:53:58Z</time>
      </trkpt>
      <trkpt lat="52.111343" lon="4.4431214">
        <ele>3800.0</ele>
        <time>2020-09-21T13:53:59Z</time>
      </trkpt>
      <trkpt lat="52.111324" lon="4.4430666">
        <ele>3800.0</ele>
        <time>2020-09-21T13:54:00Z</time>
      </trkpt>
      <trkpt lat="52.111298" lon="4.4430165">
        <ele>3800.0</ele>
        <time>2020-09-21T13:54:01Z</time>
      </trkpt>
      <trkpt lat="52.11128" lon="4.4429684">
        <ele>3800.0</ele>
        <time>2020-09-21T13:54:02Z</time>
      </trkpt>
      <trkpt lat="52.111263" lon="4.442919">
        <ele>3800.0</ele>
        <time>2020-09-21T13:54:03Z</time>
      </trkpt>
      <trkpt lat="52.11124" lon="4.4428678">
        <ele>3800.0</ele>
        <time>2020-09-21T13:54:04Z</time>
      </trkpt>
      <trkpt lat="52.11122" lon="4.442814">
        <ele>3800.0</ele>
        <time>2020-09-21T13:54:05Z</time>
      </trkpt>
      <trkpt lat="52.111202" lon="4.4427648">
        <ele>3800.0</ele>
        <time>2020-09-21T13:54:06Z</time>
      </trkpt>
      <trkpt lat="52.11118" lon="4.442715">
        <ele>3800.0</ele>
        <time>2020-09-21T13:54:07Z</time>
      </trkpt>
      <trkpt lat="52.11116" lon="4.442667">
        <ele>3800.0</ele>
        <time>2020-09-21T13:54:08Z</time>
      </trkpt>
      <trkpt lat="52.111134" lon="4.442618">
        <ele>3800.0</ele>
        <time>2020-09-21T13:54:09Z</time>
      </trkpt>
      <trkpt lat="52.111115" lon="4.442568">
        <ele>3800.0</ele>
        <time>2020-09-21T13:54:10Z</time>
      </trkpt>
      <trkpt lat="52.111095" lon="4.4425178">
        <ele>3800.0</ele>
        <time>2020-09-21T13:54:11Z</time>
      </trkpt>
      <trkpt lat="52.111073" lon="4.442467">
        <ele>3800.0</ele>
        <time>2020-09-21T13:54:12Z</time>
      </trkpt>
      <trkpt lat="52.111057" lon="4.442415">
        <ele>3800.0</ele>
        <time>2020-09-21T13:54:13Z</time>
      </trkpt>
      <trkpt lat="52.11104" lon="4.4423623">
        <ele>3800.0</ele>
        <time>2020-09-21T13:54:14Z</time>
      </trkpt>
      <trkpt lat="52.111023" lon="4.4423084">
        <ele>3800.0</ele>
        <time>2020-09-21T13:54:15Z</time>
      </trkpt>
      <trkpt lat="52.111008" lon="4.4422545">
        <ele>3800.0</ele>
        <time>2020-09-21T13:54:16Z</time>
      </trkpt>
      <trkpt lat="52.110985" lon="4.4421997">
        <ele>3800.0</ele>
        <time>2020-09-21T13:54:17Z</time>
      </trkpt>
      <trkpt lat="52.11097" lon="4.442145">
        <ele>3800.0</ele>
        <time>2020-09-21T13:54:19Z</time>
      </trkpt>
      <trkpt lat="52.11095" lon="4.442091">
        <ele>3800.0</ele>
        <time>2020-09-21T13:54:19Z</time>
      </trkpt>
      <trkpt lat="52.11093" lon="4.4420366">
        <ele>3800.0</ele>
        <time>2020-09-21T13:54:20Z</time>
      </trkpt>
      <trkpt lat="52.11091" lon="4.4419804">
        <ele>3800.0</ele>
        <time>2020-09-21T13:54:21Z</time>
      </trkpt>
      <trkpt lat="52.11089" lon="4.4419217">
        <ele>3800.0</ele>
        <time>2020-09-21T13:54:22Z</time>
      </trkpt>
      <trkpt lat="52.11087" lon="4.4418616">
        <ele>3800.0</ele>
        <time>2020-09-21T13:54:23Z</time>
      </trkpt>
      <trkpt lat="52.110847" lon="4.441802">
        <ele>3800.0</ele>
        <time>2020-09-21T13:54:24Z</time>
      </trkpt>
      <trkpt lat="52.11083" lon="4.4417443">
        <ele>3800.0</ele>
        <time>2020-09-21T13:54:25Z</time>
      </trkpt>
      <trkpt lat="52.110806" lon="4.4416857">
        <ele>3800.0</ele>
        <time>2020-09-21T13:54:26Z</time>
      </trkpt>
      <trkpt lat="52.110783" lon="4.4416265">
        <ele>3800.0</ele>
        <time>2020-09-21T13:54:27Z</time>
      </trkpt>
      <trkpt lat="52.11076" lon="4.4415674">
        <ele>3800.0</ele>
        <time>2020-09-21T13:54:29Z</time>
      </trkpt>
      <trkpt lat="52.11074" lon="4.4415092">
        <ele>3800.0</ele>
        <time>2020-09-21T13:54:29Z</time>
      </trkpt>
      <trkpt lat="52.110714" lon="4.4414515">
        <ele>3800.0</ele>
        <time>2020-09-21T13:54:30Z</time>
      </trkpt>
      <trkpt lat="52.11069" lon="4.441395">
        <ele>3800.0</ele>
        <time>2020-09-21T13:54:31Z</time>
      </trkpt>
      <trkpt lat="52.110664" lon="4.441338">
        <ele>3800.0</ele>
        <time>2020-09-21T13:54:32Z</time>
      </trkpt>
      <trkpt lat="52.11064" lon="4.4412885">
        <ele>3800.0</ele>
        <time>2020-09-21T13:54:33Z</time>
      </trkpt>
      <trkpt lat="52.110622" lon="4.441238">
        <ele>3800.0</ele>
        <time>2020-09-21T13:54:34Z</time>
      </trkpt>
      <trkpt lat="52.110596" lon="4.4411864">
        <ele>3800.0</ele>
        <time>2020-09-21T13:54:35Z</time>
      </trkpt>
      <trkpt lat="52.110577" lon="4.4411297">
        <ele>3800.0</ele>
        <time>2020-09-21T13:54:36Z</time>
      </trkpt>
      <trkpt lat="52.11055" lon="4.4410725">
        <ele>3800.0</ele>
        <time>2020-09-21T13:54:37Z</time>
      </trkpt>
      <trkpt lat="52.110527" lon="4.441019">
        <ele>3800.0</ele>
        <time>2020-09-21T13:54:38Z</time>
      </trkpt>
      <trkpt lat="52.110504" lon="4.4409657">
        <ele>3800.0</ele>
        <time>2020-09-21T13:54:40Z</time>
      </trkpt>
      <trkpt lat="52.11048" lon="4.4409046">
        <ele>3800.0</ele>
        <time>2020-09-21T13:54:40Z</time>
      </trkpt>
      <trkpt lat="52.110455" lon="4.440848">
        <ele>3800.0</ele>
        <time>2020-09-21T13:54:41Z</time>
      </trkpt>
      <trkpt lat="52.11043" lon="4.440789">
        <ele>3800.0</ele>
        <time>2020-09-21T13:54:42Z</time>
      </trkpt>
      <trkpt lat="52.11041" lon="4.4407315">
        <ele>3800.0</ele>
        <time>2020-09-21T13:54:43Z</time>
      </trkpt>
      <trkpt lat="52.110386" lon="4.4406767">
        <ele>3800.0</ele>
        <time>2020-09-21T13:54:44Z</time>
      </trkpt>
      <trkpt lat="52.110367" lon="4.440618">
        <ele>3800.0</ele>
        <time>2020-09-21T13:54:45Z</time>
      </trkpt>
      <trkpt lat="52.110348" lon="4.4405613">
        <ele>3800.0</ele>
        <time>2020-09-21T13:54:47Z</time>
      </trkpt>
      <trkpt lat="52.110325" lon="4.440505">
        <ele>3800.0</ele>
        <time>2020-09-21T13:54:47Z</time>
      </trkpt>
      <trkpt lat="52.11031" lon="4.4404526">
        <ele>3800.0</ele>
        <time>2020-09-21T13:54:48Z</time>
      </trkpt>
      <trkpt lat="52.110294" lon="4.440402">
        <ele>3800.0</ele>
        <time>2020-09-21T13:54:49Z</time>
      </trkpt>
      <trkpt lat="52.110275" lon="4.4403505">
        <ele>3800.0</ele>
        <time>2020-09-21T13:54:50Z</time>
      </trkpt>
      <trkpt lat="52.110252" lon="4.440298">
        <ele>3800.0</ele>
        <time>2020-09-21T13:54:51Z</time>
      </trkpt>
      <trkpt lat="52.110237" lon="4.4402466">
        <ele>3800.0</ele>
        <time>2020-09-21T13:54:52Z</time>
      </trkpt>
      <trkpt lat="52.11022" lon="4.4401913">
        <ele>3800.0</ele>
        <time>2020-09-21T13:54:53Z</time>
      </trkpt>
      <trkpt lat="52.110207" lon="4.4401374">
        <ele>3800.0</ele>
        <time>2020-09-21T13:54:54Z</time>
      </trkpt>
      <trkpt lat="52.110188" lon="4.440085">
        <ele>3800.0</ele>
        <time>2020-09-21T13:54:55Z</time>
      </trkpt>
      <trkpt lat="52.110172" lon="4.4400334">
        <ele>3800.0</ele>
        <time>2020-09-21T13:54:56Z</time>
      </trkpt>
      <trkpt lat="52.110157" lon="4.439982">
        <ele>3800.0</ele>
        <time>2020-09-21T13:54:57Z</time>
      </trkpt>
      <trkpt lat="52.110138" lon="4.4399304">
        <ele>3800.0</ele>
        <time>2020-09-21T13:54:58Z</time>
      </trkpt>
      <trkpt lat="52.110123" lon="4.4398775">
        <ele>3800.0</ele>
        <time>2020-09-21T13:54:59Z</time>
      </trkpt>
      <trkpt lat="52.1101" lon="4.439824">
        <ele>3800.0</ele>
        <time>2020-09-21T13:55:00Z</time>
      </trkpt>
      <trkpt lat="52.110085" lon="4.4397726">
        <ele>3800.0</ele>
        <time>2020-09-21T13:55:01Z</time>
      </trkpt>
      <trkpt lat="52.110065" lon="4.439723">
        <ele>3800.0</ele>
        <time>2020-09-21T13:55:02Z</time>
      </trkpt>
      <trkpt lat="52.110043" lon="4.4396744">
        <ele>3800.0</ele>
        <time>2020-09-21T13:55:03Z</time>
      </trkpt>
      <trkpt lat="52.110023" lon="4.4396286">
        <ele>3800.0</ele>
        <time>2020-09-21T13:55:04Z</time>
      </trkpt>
      <trkpt lat="52.109997" lon="4.4395804">
        <ele>3800.0</ele>
        <time>2020-09-21T13:55:05Z</time>
      </trkpt>
      <trkpt lat="52.109974" lon="4.4395366">
        <ele>3800.0</ele>
        <time>2020-09-21T13:55:06Z</time>
      </trkpt>
      <trkpt lat="52.10995" lon="4.439499">
        <ele>3800.0</ele>
        <time>2020-09-21T13:55:08Z</time>
      </trkpt>
      <trkpt lat="52.109932" lon="4.4394617">
        <ele>3800.0</ele>
        <time>2020-09-21T13:55:08Z</time>
      </trkpt>
      <trkpt lat="52.109913" lon="4.4394207">
        <ele>3800.0</ele>
        <time>2020-09-21T13:55:09Z</time>
      </trkpt>
      <trkpt lat="52.10989" lon="4.439379">
        <ele>3800.0</ele>
        <time>2020-09-21T13:55:10Z</time>
      </trkpt>
      <trkpt lat="52.10987" lon="4.4393415">
        <ele>3800.0</ele>
        <time>2020-09-21T13:55:11Z</time>
      </trkpt>
      <trkpt lat="52.109856" lon="4.4393086">
        <ele>3800.0</ele>
        <time>2020-09-21T13:55:11Z</time>
      </trkpt>
      <trkpt lat="52.109844" lon="4.4392796">
        <ele>3800.0</ele>
        <time>2020-09-21T13:55:12Z</time>
      </trkpt>
      <trkpt lat="52.10983" lon="4.4392505">
        <ele>3800.0</ele>
        <time>2020-09-21T13:55:13Z</time>
      </trkpt>
      <trkpt lat="52.109814" lon="4.43922">
        <ele>3800.0</ele>
        <time>2020-09-21T13:55:14Z</time>
      </trkpt>
      <trkpt lat="52.1098" lon="4.439187">
        <ele>3800.0</ele>
        <time>2020-09-21T13:55:15Z</time>
      </trkpt>
      <trkpt lat="52.10978" lon="4.4391527">
        <ele>3800.0</ele>
        <time>2020-09-21T13:55:17Z</time>
      </trkpt>
      <trkpt lat="52.109756" lon="4.4391184">
        <ele>3800.0</ele>
        <time>2020-09-21T13:55:17Z</time>
      </trkpt>
      <trkpt lat="52.109737" lon="4.439077">
        <ele>3800.0</ele>
        <time>2020-09-21T13:55:18Z</time>
      </trkpt>
      <trkpt lat="52.10971" lon="4.439036">
        <ele>3800.0</ele>
        <time>2020-09-21T13:55:19Z</time>
      </trkpt>
      <trkpt lat="52.10968" lon="4.4389935">
        <ele>3800.0</ele>
        <time>2020-09-21T13:55:20Z</time>
      </trkpt>
      <trkpt lat="52.10965" lon="4.4389515">
        <ele>3800.0</ele>
        <time>2020-09-21T13:55:21Z</time>
      </trkpt>
      <trkpt lat="52.10962" lon="4.4389105">
        <ele>3800.0</ele>
        <time>2020-09-21T13:55:22Z</time>
      </trkpt>
      <trkpt lat="52.10959" lon="4.438871">
        <ele>3800.0</ele>
        <time>2020-09-21T13:55:23Z</time>
      </trkpt>
      <trkpt lat="52.109554" lon="4.4388323">
        <ele>3800.0</ele>
        <time>2020-09-21T13:55:24Z</time>
      </trkpt>
      <trkpt lat="52.109524" lon="4.438796">
        <ele>3800.0</ele>
        <time>2020-09-21T13:55:25Z</time>
      </trkpt>
      <trkpt lat="52.10949" lon="4.43876">
        <ele>3800.0</ele>
        <time>2020-09-21T13:55:26Z</time>
      </trkpt>
      <trkpt lat="52.109455" lon="4.438721">
        <ele>3800.0</ele>
        <time>2020-09-21T13:55:27Z</time>
      </trkpt>
      <trkpt lat="52.109425" lon="4.4386883">
        <ele>3800.0</ele>
        <time>2020-09-21T13:55:28Z</time>
      </trkpt>
      <trkpt lat="52.10939" lon="4.4386535">
        <ele>3800.0</ele>
        <time>2020-09-21T13:55:29Z</time>
      </trkpt>
      <trkpt lat="52.10936" lon="4.4386196">
        <ele>3800.0</ele>
        <time>2020-09-21T13:55:30Z</time>
      </trkpt>
      <trkpt lat="52.109333" lon="4.4385886">
        <ele>3800.0</ele>
        <time>2020-09-21T13:55:31Z</time>
      </trkpt>
      <trkpt lat="52.109306" lon="4.438552">
        <ele>3800.0</ele>
        <time>2020-09-21T13:55:32Z</time>
      </trkpt>
      <trkpt lat="52.109276" lon="4.438516">
        <ele>3800.0</ele>
        <time>2020-09-21T13:55:33Z</time>
      </trkpt>
      <trkpt lat="52.10925" lon="4.438481">
        <ele>3800.0</ele>
        <time>2020-09-21T13:55:34Z</time>
      </trkpt>
      <trkpt lat="52.109226" lon="4.4384446">
        <ele>3800.0</ele>
        <time>2020-09-21T13:55:35Z</time>
      </trkpt>
      <trkpt lat="52.109203" lon="4.438411">
        <ele>3800.0</ele>
        <time>2020-09-21T13:55:36Z</time>
      </trkpt>
      <trkpt lat="52.10918" lon="4.438378">
        <ele>3800.0</ele>
        <time>2020-09-21T13:55:38Z</time>
      </trkpt>
      <trkpt lat="52.109154" lon="4.438341">
        <ele>3800.0</ele>
        <time>2020-09-21T13:55:38Z</time>
      </trkpt>
      <trkpt lat="52.109135" lon="4.438304">
        <ele>3800.0</ele>
        <time>2020-09-21T13:55:39Z</time>
      </trkpt>
      <trkpt lat="52.109108" lon="4.4382663">
        <ele>3800.0</ele>
        <time>2020-09-21T13:55:40Z</time>
      </trkpt>
      <trkpt lat="52.109085" lon="4.43823">
        <ele>3800.0</ele>
        <time>2020-09-21T13:55:41Z</time>
      </trkpt>
      <trkpt lat="52.109062" lon="4.43819">
        <ele>3800.0</ele>
        <time>2020-09-21T13:55:42Z</time>
      </trkpt>
      <trkpt lat="52.10903" lon="4.438149">
        <ele>3800.0</ele>
        <time>2020-09-21T13:55:43Z</time>
      </trkpt>
      <trkpt lat="52.109" lon="4.4381065">
        <ele>3800.0</ele>
        <time>2020-09-21T13:55:44Z</time>
      </trkpt>
      <trkpt lat="52.108974" lon="4.438066">
        <ele>3800.0</ele>
        <time>2020-09-21T13:55:45Z</time>
      </trkpt>
      <trkpt lat="52.108944" lon="4.4380226">
        <ele>3800.0</ele>
        <time>2020-09-21T13:55:46Z</time>
      </trkpt>
      <trkpt lat="52.108913" lon="4.437982">
        <ele>3800.0</ele>
        <time>2020-09-21T13:55:47Z</time>
      </trkpt>
      <trkpt lat="52.108883" lon="4.4379387">
        <ele>3800.0</ele>
        <time>2020-09-21T13:55:48Z</time>
      </trkpt>
      <trkpt lat="52.108856" lon="4.4378967">
        <ele>3800.0</ele>
        <time>2020-09-21T13:55:49Z</time>
      </trkpt>
      <trkpt lat="52.10883" lon="4.437857">
        <ele>3800.0</ele>
        <time>2020-09-21T13:55:50Z</time>
      </trkpt>
      <trkpt lat="52.108807" lon="4.437817">
        <ele>3800.0</ele>
        <time>2020-09-21T13:55:51Z</time>
      </trkpt>
      <trkpt lat="52.10878" lon="4.437781">
        <ele>3800.0</ele>
        <time>2020-09-21T13:55:52Z</time>
      </trkpt>
      <trkpt lat="52.108753" lon="4.437743">
        <ele>3800.0</ele>
        <time>2020-09-21T13:55:53Z</time>
      </trkpt>
      <trkpt lat="52.108723" lon="4.4377084">
        <ele>3800.0</ele>
        <time>2020-09-21T13:55:54Z</time>
      </trkpt>
      <trkpt lat="52.10869" lon="4.437678">
        <ele>3800.0</ele>
        <time>2020-09-21T13:55:56Z</time>
      </trkpt>
      <trkpt lat="52.108658" lon="4.437649">
        <ele>3700.0</ele>
        <time>2020-09-21T13:55:56Z</time>
      </trkpt>
      <trkpt lat="52.108627" lon="4.4376225">
        <ele>3700.0</ele>
        <time>2020-09-21T13:55:57Z</time>
      </trkpt>
      <trkpt lat="52.108597" lon="4.4375963">
        <ele>3700.0</ele>
        <time>2020-09-21T13:55:58Z</time>
      </trkpt>
      <trkpt lat="52.108566" lon="4.437571">
        <ele>3700.0</ele>
        <time>2020-09-21T13:55:59Z</time>
      </trkpt>
      <trkpt lat="52.108532" lon="4.4375463">
        <ele>3700.0</ele>
        <time>2020-09-21T13:56:00Z</time>
      </trkpt>
      <trkpt lat="52.108498" lon="4.437522">
        <ele>3700.0</ele>
        <time>2020-09-21T13:56:01Z</time>
      </trkpt>
      <trkpt lat="52.108467" lon="4.437498">
        <ele>3700.0</ele>
        <time>2020-09-21T13:56:02Z</time>
      </trkpt>
      <trkpt lat="52.108437" lon="4.437475">
        <ele>3700.0</ele>
        <time>2020-09-21T13:56:03Z</time>
      </trkpt>
      <trkpt lat="52.108406" lon="4.4374533">
        <ele>3700.0</ele>
        <time>2020-09-21T13:56:04Z</time>
      </trkpt>
      <trkpt lat="52.108376" lon="4.437433">
        <ele>3700.0</ele>
        <time>2020-09-21T13:56:06Z</time>
      </trkpt>
      <trkpt lat="52.108345" lon="4.437409">
        <ele>3700.0</ele>
        <time>2020-09-21T13:56:06Z</time>
      </trkpt>
      <trkpt lat="52.108315" lon="4.437384">
        <ele>3700.0</ele>
        <time>2020-09-21T13:56:07Z</time>
      </trkpt>
      <trkpt lat="52.108284" lon="4.437357">
        <ele>3700.0</ele>
        <time>2020-09-21T13:56:08Z</time>
      </trkpt>
      <trkpt lat="52.108257" lon="4.437329">
        <ele>3700.0</ele>
        <time>2020-09-21T13:56:09Z</time>
      </trkpt>
      <trkpt lat="52.10824" lon="4.437303">
        <ele>3700.0</ele>
        <time>2020-09-21T13:56:10Z</time>
      </trkpt>
      <trkpt lat="52.10821" lon="4.4372773">
        <ele>3700.0</ele>
        <time>2020-09-21T13:56:11Z</time>
      </trkpt>
      <trkpt lat="52.108185" lon="4.437251">
        <ele>3700.0</ele>
        <time>2020-09-21T13:56:12Z</time>
      </trkpt>
      <trkpt lat="52.108154" lon="4.437225">
        <ele>3700.0</ele>
        <time>2020-09-21T13:56:13Z</time>
      </trkpt>
      <trkpt lat="52.108128" lon="4.4371996">
        <ele>3700.0</ele>
        <time>2020-09-21T13:56:14Z</time>
      </trkpt>
      <trkpt lat="52.108105" lon="4.437175">
        <ele>3700.0</ele>
        <time>2020-09-21T13:56:15Z</time>
      </trkpt>
      <trkpt lat="52.108078" lon="4.43715">
        <ele>3700.0</ele>
        <time>2020-09-21T13:56:16Z</time>
      </trkpt>
      <trkpt lat="52.10805" lon="4.4371257">
        <ele>3700.0</ele>
        <time>2020-09-21T13:56:17Z</time>
      </trkpt>
      <trkpt lat="52.10802" lon="4.4371">
        <ele>3700.0</ele>
        <time>2020-09-21T13:56:18Z</time>
      </trkpt>
      <trkpt lat="52.107998" lon="4.437073">
        <ele>3700.0</ele>
        <time>2020-09-21T13:56:19Z</time>
      </trkpt>
      <trkpt lat="52.107964" lon="4.4370427">
        <ele>3700.0</ele>
        <time>2020-09-21T13:56:20Z</time>
      </trkpt>
      <trkpt lat="52.107933" lon="4.437006">
        <ele>3700.0</ele>
        <time>2020-09-21T13:56:21Z</time>
      </trkpt>
      <trkpt lat="52.107903" lon="4.4369664">
        <ele>3700.0</ele>
        <time>2020-09-21T13:56:22Z</time>
      </trkpt>
      <trkpt lat="52.107872" lon="4.436925">
        <ele>3700.0</ele>
        <time>2020-09-21T13:56:23Z</time>
      </trkpt>
      <trkpt lat="52.10784" lon="4.4368854">
        <ele>3700.0</ele>
        <time>2020-09-21T13:56:24Z</time>
      </trkpt>
      <trkpt lat="52.10782" lon="4.4368453">
        <ele>3700.0</ele>
        <time>2020-09-21T13:56:25Z</time>
      </trkpt>
      <trkpt lat="52.107788" lon="4.436803">
        <ele>3700.0</ele>
        <time>2020-09-21T13:56:27Z</time>
      </trkpt>
      <trkpt lat="52.10776" lon="4.4367614">
        <ele>3700.0</ele>
        <time>2020-09-21T13:56:27Z</time>
      </trkpt>
      <trkpt lat="52.10774" lon="4.436721">
        <ele>3700.0</ele>
        <time>2020-09-21T13:56:28Z</time>
      </trkpt>
      <trkpt lat="52.107716" lon="4.436682">
        <ele>3700.0</ele>
        <time>2020-09-21T13:56:29Z</time>
      </trkpt>
      <trkpt lat="52.10769" lon="4.4366426">
        <ele>3700.0</ele>
        <time>2020-09-21T13:56:30Z</time>
      </trkpt>
      <trkpt lat="52.107662" lon="4.436602">
        <ele>3700.0</ele>
        <time>2020-09-21T13:56:31Z</time>
      </trkpt>
      <trkpt lat="52.10764" lon="4.4365606">
        <ele>3700.0</ele>
        <time>2020-09-21T13:56:32Z</time>
      </trkpt>
      <trkpt lat="52.107613" lon="4.4365153">
        <ele>3700.0</ele>
        <time>2020-09-21T13:56:33Z</time>
      </trkpt>
      <trkpt lat="52.107594" lon="4.4364724">
        <ele>3700.0</ele>
        <time>2020-09-21T13:56:34Z</time>
      </trkpt>
      <trkpt lat="52.107567" lon="4.436431">
        <ele>3700.0</ele>
        <time>2020-09-21T13:56:35Z</time>
      </trkpt>
      <trkpt lat="52.10754" lon="4.4363894">
        <ele>3700.0</ele>
        <time>2020-09-21T13:56:36Z</time>
      </trkpt>
      <trkpt lat="52.10752" lon="4.4363484">
        <ele>3700.0</ele>
        <time>2020-09-21T13:56:37Z</time>
      </trkpt>
      <trkpt lat="52.107494" lon="4.43631">
        <ele>3700.0</ele>
        <time>2020-09-21T13:56:38Z</time>
      </trkpt>
      <trkpt lat="52.107468" lon="4.4362726">
        <ele>3700.0</ele>
        <time>2020-09-21T13:56:39Z</time>
      </trkpt>
      <trkpt lat="52.107445" lon="4.4362373">
        <ele>3700.0</ele>
        <time>2020-09-21T13:56:40Z</time>
      </trkpt>
      <trkpt lat="52.107418" lon="4.4362006">
        <ele>3700.0</ele>
        <time>2020-09-21T13:56:41Z</time>
      </trkpt>
      <trkpt lat="52.10739" lon="4.4361696">
        <ele>3700.0</ele>
        <time>2020-09-21T13:56:42Z</time>
      </trkpt>
      <trkpt lat="52.107365" lon="4.436141">
        <ele>3700.0</ele>
        <time>2020-09-21T13:56:43Z</time>
      </trkpt>
      <trkpt lat="52.10734" lon="4.436115">
        <ele>3700.0</ele>
        <time>2020-09-21T13:56:45Z</time>
      </trkpt>
      <trkpt lat="52.10731" lon="4.436089">
        <ele>3700.0</ele>
        <time>2020-09-21T13:56:45Z</time>
      </trkpt>
      <trkpt lat="52.10729" lon="4.436067">
        <ele>3700.0</ele>
        <time>2020-09-21T13:56:46Z</time>
      </trkpt>
      <trkpt lat="52.107258" lon="4.4360476">
        <ele>3700.0</ele>
        <time>2020-09-21T13:56:47Z</time>
      </trkpt>
      <trkpt lat="52.107227" lon="4.4360323">
        <ele>3700.0</ele>
        <time>2020-09-21T13:56:48Z</time>
      </trkpt>
      <trkpt lat="52.107204" lon="4.4360194">
        <ele>3700.0</ele>
        <time>2020-09-21T13:56:49Z</time>
      </trkpt>
      <trkpt lat="52.10717" lon="4.436008">
        <ele>3700.0</ele>
        <time>2020-09-21T13:56:50Z</time>
      </trkpt>
      <trkpt lat="52.10714" lon="4.4360003">
        <ele>3700.0</ele>
        <time>2020-09-21T13:56:51Z</time>
      </trkpt>
      <trkpt lat="52.10711" lon="4.435995">
        <ele>3700.0</ele>
        <time>2020-09-21T13:56:52Z</time>
      </trkpt>
      <trkpt lat="52.107086" lon="4.435992">
        <ele>3800.0</ele>
        <time>2020-09-21T13:56:53Z</time>
      </trkpt>
      <trkpt lat="52.10706" lon="4.4359903">
        <ele>3800.0</ele>
        <time>2020-09-21T13:56:55Z</time>
      </trkpt>
      <trkpt lat="52.107033" lon="4.435987">
        <ele>3800.0</ele>
        <time>2020-09-21T13:56:55Z</time>
      </trkpt>
      <trkpt lat="52.10701" lon="4.435984">
        <ele>3800.0</ele>
        <time>2020-09-21T13:56:56Z</time>
      </trkpt>
      <trkpt lat="52.106983" lon="4.4359813">
        <ele>3800.0</ele>
        <time>2020-09-21T13:56:57Z</time>
      </trkpt>
      <trkpt lat="52.106956" lon="4.4359784">
        <ele>3800.0</ele>
        <time>2020-09-21T13:56:58Z</time>
      </trkpt>
      <trkpt lat="52.106937" lon="4.4359746">
        <ele>3800.0</ele>
        <time>2020-09-21T13:56:59Z</time>
      </trkpt>
      <trkpt lat="52.10691" lon="4.435965">
        <ele>3900.0</ele>
        <time>2020-09-21T13:57:00Z</time>
      </trkpt>
      <trkpt lat="52.106884" lon="4.435953">
        <ele>3900.0</ele>
        <time>2020-09-21T13:57:01Z</time>
      </trkpt>
      <trkpt lat="52.10686" lon="4.4359393">
        <ele>3900.0</ele>
        <time>2020-09-21T13:57:02Z</time>
      </trkpt>
      <trkpt lat="52.10684" lon="4.4359226">
        <ele>3900.0</ele>
        <time>2020-09-21T13:57:03Z</time>
      </trkpt>
      <trkpt lat="52.106815" lon="4.435902">
        <ele>3900.0</ele>
        <time>2020-09-21T13:57:04Z</time>
      </trkpt>
      <trkpt lat="52.10679" lon="4.4358797">
        <ele>3900.0</ele>
        <time>2020-09-21T13:57:05Z</time>
      </trkpt>
      <trkpt lat="52.106762" lon="4.4358506">
        <ele>3900.0</ele>
        <time>2020-09-21T13:57:06Z</time>
      </trkpt>
      <trkpt lat="52.106735" lon="4.4358187">
        <ele>3900.0</ele>
        <time>2020-09-21T13:57:07Z</time>
      </trkpt>
      <trkpt lat="52.106716" lon="4.4357843">
        <ele>3900.0</ele>
        <time>2020-09-21T13:57:08Z</time>
      </trkpt>
      <trkpt lat="52.106697" lon="4.4357486">
        <ele>3900.0</ele>
        <time>2020-09-21T13:57:09Z</time>
      </trkpt>
      <trkpt lat="52.10667" lon="4.4357085">
        <ele>3800.0</ele>
        <time>2020-09-21T13:57:10Z</time>
      </trkpt>
      <trkpt lat="52.106644" lon="4.435672">
        <ele>3800.0</ele>
        <time>2020-09-21T13:57:11Z</time>
      </trkpt>
      <trkpt lat="52.106613" lon="4.4356394">
        <ele>3800.0</ele>
        <time>2020-09-21T13:57:12Z</time>
      </trkpt>
      <trkpt lat="52.10658" lon="4.435613">
        <ele>3800.0</ele>
        <time>2020-09-21T13:57:13Z</time>
      </trkpt>
      <trkpt lat="52.10654" lon="4.4355907">
        <ele>3800.0</ele>
        <time>2020-09-21T13:57:14Z</time>
      </trkpt>
      <trkpt lat="52.106503" lon="4.43557">
        <ele>3800.0</ele>
        <time>2020-09-21T13:57:16Z</time>
      </trkpt>
      <trkpt lat="52.106464" lon="4.4355493">
        <ele>3800.0</ele>
        <time>2020-09-21T13:57:16Z</time>
      </trkpt>
      <trkpt lat="52.106434" lon="4.43553">
        <ele>3800.0</ele>
        <time>2020-09-21T13:57:17Z</time>
      </trkpt>
      <trkpt lat="52.1064" lon="4.4355106">
        <ele>3800.0</ele>
        <time>2020-09-21T13:57:18Z</time>
      </trkpt>
      <trkpt lat="52.10636" lon="4.435493">
        <ele>3800.0</ele>
        <time>2020-09-21T13:57:19Z</time>
      </trkpt>
      <trkpt lat="52.106327" lon="4.4354773">
        <ele>3800.0</ele>
        <time>2020-09-21T13:57:20Z</time>
      </trkpt>
      <trkpt lat="52.106297" lon="4.435463">
        <ele>3800.0</ele>
        <time>2020-09-21T13:57:21Z</time>
      </trkpt>
      <trkpt lat="52.106266" lon="4.4354467">
        <ele>3800.0</ele>
        <time>2020-09-21T13:57:22Z</time>
      </trkpt>
      <trkpt lat="52.106236" lon="4.4354296">
        <ele>3800.0</ele>
        <time>2020-09-21T13:57:23Z</time>
      </trkpt>
      <trkpt lat="52.106197" lon="4.435414">
        <ele>3800.0</ele>
        <time>2020-09-21T13:57:24Z</time>
      </trkpt>
      <trkpt lat="52.106163" lon="4.435398">
        <ele>3800.0</ele>
        <time>2020-09-21T13:57:25Z</time>
      </trkpt>
      <trkpt lat="52.10613" lon="4.4353843">
        <ele>3800.0</ele>
        <time>2020-09-21T13:57:26Z</time>
      </trkpt>
      <trkpt lat="52.1061" lon="4.4353714">
        <ele>3800.0</ele>
        <time>2020-09-21T13:57:27Z</time>
      </trkpt>
      <trkpt lat="52.106068" lon="4.435358">
        <ele>3800.0</ele>
        <time>2020-09-21T13:57:28Z</time>
      </trkpt>
      <trkpt lat="52.106033" lon="4.435345">
        <ele>3800.0</ele>
        <time>2020-09-21T13:57:29Z</time>
      </trkpt>
      <trkpt lat="52.106" lon="4.4353294">
        <ele>3800.0</ele>
        <time>2020-09-21T13:57:30Z</time>
      </trkpt>
      <trkpt lat="52.10597" lon="4.4353127">
        <ele>3800.0</ele>
        <time>2020-09-21T13:57:31Z</time>
      </trkpt>
      <trkpt lat="52.105938" lon="4.4352956">
        <ele>3800.0</ele>
        <time>2020-09-21T13:57:32Z</time>
      </trkpt>
      <trkpt lat="52.105907" lon="4.4352794">
        <ele>3800.0</ele>
        <time>2020-09-21T13:57:33Z</time>
      </trkpt>
      <trkpt lat="52.105873" lon="4.435263">
        <ele>3800.0</ele>
        <time>2020-09-21T13:57:34Z</time>
      </trkpt>
      <trkpt lat="52.10584" lon="4.435245">
        <ele>3800.0</ele>
        <time>2020-09-21T13:57:35Z</time>
      </trkpt>
      <trkpt lat="52.10581" lon="4.4352283">
        <ele>3800.0</ele>
        <time>2020-09-21T13:57:37Z</time>
      </trkpt>
      <trkpt lat="52.105785" lon="4.4352126">
        <ele>3800.0</ele>
        <time>2020-09-21T13:57:37Z</time>
      </trkpt>
      <trkpt lat="52.10576" lon="4.435197">
        <ele>3700.0</ele>
        <time>2020-09-21T13:57:38Z</time>
      </trkpt>
      <trkpt lat="52.105732" lon="4.435183">
        <ele>3700.0</ele>
        <time>2020-09-21T13:57:39Z</time>
      </trkpt>
      <trkpt lat="52.1057" lon="4.435173">
        <ele>3700.0</ele>
        <time>2020-09-21T13:57:40Z</time>
      </trkpt>
      <trkpt lat="52.10568" lon="4.435161">
        <ele>3700.0</ele>
        <time>2020-09-21T13:57:41Z</time>
      </trkpt>
      <trkpt lat="52.105644" lon="4.4351487">
        <ele>3700.0</ele>
        <time>2020-09-21T13:57:42Z</time>
      </trkpt>
      <trkpt lat="52.10562" lon="4.4351373">
        <ele>3700.0</ele>
        <time>2020-09-21T13:57:44Z</time>
      </trkpt>
      <trkpt lat="52.105583" lon="4.4351263">
        <ele>3700.0</ele>
        <time>2020-09-21T13:57:44Z</time>
      </trkpt>
      <trkpt lat="52.105553" lon="4.4351153">
        <ele>3700.0</ele>
        <time>2020-09-21T13:57:45Z</time>
      </trkpt>
      <trkpt lat="52.105434" lon="4.435058">
        <ele>3700.0</ele>
        <time>2020-09-21T13:57:47Z</time>
      </trkpt>
      <trkpt lat="52.105434" lon="4.4350553">
        <ele>3700.0</ele>
        <time>2020-09-21T13:57:48Z</time>
      </trkpt>
      <trkpt lat="52.105427" lon="4.4350505">
        <ele>3700.0</ele>
        <time>2020-09-21T13:57:49Z</time>
      </trkpt>
      <trkpt lat="52.105404" lon="4.435045">
        <ele>3700.0</ele>
        <time>2020-09-21T13:57:50Z</time>
      </trkpt>
      <trkpt lat="52.105385" lon="4.4350376">
        <ele>3700.0</ele>
        <time>2020-09-21T13:57:51Z</time>
      </trkpt>
      <trkpt lat="52.10536" lon="4.435027">
        <ele>3700.0</ele>
        <time>2020-09-21T13:57:52Z</time>
      </trkpt>
      <trkpt lat="52.10534" lon="4.4350123">
        <ele>3700.0</ele>
        <time>2020-09-21T13:57:53Z</time>
      </trkpt>
      <trkpt lat="52.10532" lon="4.4349966">
        <ele>3700.0</ele>
        <time>2020-09-21T13:57:55Z</time>
      </trkpt>
      <trkpt lat="52.105297" lon="4.4349823">
        <ele>3700.0</ele>
        <time>2020-09-21T13:57:55Z</time>
      </trkpt>
      <trkpt lat="52.105274" lon="4.434969">
        <ele>3700.0</ele>
        <time>2020-09-21T13:57:56Z</time>
      </trkpt>
      <trkpt lat="52.10525" lon="4.434954">
        <ele>3700.0</ele>
        <time>2020-09-21T13:57:57Z</time>
      </trkpt>
      <trkpt lat="52.105225" lon="4.4349394">
        <ele>3700.0</ele>
        <time>2020-09-21T13:57:58Z</time>
      </trkpt>
      <trkpt lat="52.1052" lon="4.4349236">
        <ele>3700.0</ele>
        <time>2020-09-21T13:57:59Z</time>
      </trkpt>
      <trkpt lat="52.105175" lon="4.4349055">
        <ele>3700.0</ele>
        <time>2020-09-21T13:58:00Z</time>
      </trkpt>
      <trkpt lat="52.105156" lon="4.4348865">
        <ele>3700.0</ele>
        <time>2020-09-21T13:58:01Z</time>
      </trkpt>
      <trkpt lat="52.105133" lon="4.4348693">
        <ele>3700.0</ele>
        <time>2020-09-21T13:58:02Z</time>
      </trkpt>
      <trkpt lat="52.105114" lon="4.4348536">
        <ele>3700.0</ele>
        <time>2020-09-21T13:58:03Z</time>
      </trkpt>
      <trkpt lat="52.105095" lon="4.4348383">
        <ele>3700.0</ele>
        <time>2020-09-21T13:58:04Z</time>
      </trkpt>
      <trkpt lat="52.105072" lon="4.4348235">
        <ele>3700.0</ele>
        <time>2020-09-21T13:58:05Z</time>
      </trkpt>
      <trkpt lat="52.105053" lon="4.434809">
        <ele>3700.0</ele>
        <time>2020-09-21T13:58:06Z</time>
      </trkpt>
      <trkpt lat="52.10503" lon="4.4347935">
        <ele>3700.0</ele>
        <time>2020-09-21T13:58:07Z</time>
      </trkpt>
      <trkpt lat="52.10501" lon="4.4347777">
        <ele>3700.0</ele>
        <time>2020-09-21T13:58:08Z</time>
      </trkpt>
      <trkpt lat="52.104996" lon="4.434762">
        <ele>3700.0</ele>
        <time>2020-09-21T13:58:09Z</time>
      </trkpt>
      <trkpt lat="52.104977" lon="4.4347453">
        <ele>3700.0</ele>
        <time>2020-09-21T13:58:10Z</time>
      </trkpt>
      <trkpt lat="52.10496" lon="4.434727">
        <ele>3700.0</ele>
        <time>2020-09-21T13:58:11Z</time>
      </trkpt>
      <trkpt lat="52.10494" lon="4.4347067">
        <ele>3700.0</ele>
        <time>2020-09-21T13:58:12Z</time>
      </trkpt>
      <trkpt lat="52.10492" lon="4.434686">
        <ele>3700.0</ele>
        <time>2020-09-21T13:58:13Z</time>
      </trkpt>
      <trkpt lat="52.104893" lon="4.4346666">
        <ele>3700.0</ele>
        <time>2020-09-21T13:58:14Z</time>
      </trkpt>
      <trkpt lat="52.104866" lon="4.434646">
        <ele>3700.0</ele>
        <time>2020-09-21T13:58:16Z</time>
      </trkpt>
      <trkpt lat="52.104843" lon="4.4346232">
        <ele>3700.0</ele>
        <time>2020-09-21T13:58:16Z</time>
      </trkpt>
      <trkpt lat="52.104813" lon="4.434602">
        <ele>3700.0</ele>
        <time>2020-09-21T13:58:17Z</time>
      </trkpt>
      <trkpt lat="52.104786" lon="4.4345818">
        <ele>3700.0</ele>
        <time>2020-09-21T13:58:18Z</time>
      </trkpt>
      <trkpt lat="52.104755" lon="4.434561">
        <ele>3700.0</ele>
        <time>2020-09-21T13:58:19Z</time>
      </trkpt>
      <trkpt lat="52.104725" lon="4.4345407">
        <ele>3700.0</ele>
        <time>2020-09-21T13:58:21Z</time>
      </trkpt>
      <trkpt lat="52.104694" lon="4.434522">
        <ele>3700.0</ele>
        <time>2020-09-21T13:58:21Z</time>
      </trkpt>
      <trkpt lat="52.104656" lon="4.434502">
        <ele>3700.0</ele>
        <time>2020-09-21T13:58:22Z</time>
      </trkpt>
      <trkpt lat="52.104633" lon="4.4344816">
        <ele>3700.0</ele>
        <time>2020-09-21T13:58:23Z</time>
      </trkpt>
      <trkpt lat="52.104603" lon="4.4344587">
        <ele>3700.0</ele>
        <time>2020-09-21T13:58:24Z</time>
      </trkpt>
      <trkpt lat="52.104572" lon="4.434434">
        <ele>3700.0</ele>
        <time>2020-09-21T13:58:25Z</time>
      </trkpt>
      <trkpt lat="52.10454" lon="4.434408">
        <ele>3700.0</ele>
        <time>2020-09-21T13:58:26Z</time>
      </trkpt>
      <trkpt lat="52.104515" lon="4.4343834">
        <ele>3700.0</ele>
        <time>2020-09-21T13:58:27Z</time>
      </trkpt>
      <trkpt lat="52.10449" lon="4.4343596">
        <ele>3700.0</ele>
        <time>2020-09-21T13:58:28Z</time>
      </trkpt>
      <trkpt lat="52.104458" lon="4.434335">
        <ele>3700.0</ele>
        <time>2020-09-21T13:58:30Z</time>
      </trkpt>
      <trkpt lat="52.10443" lon="4.434311">
        <ele>3700.0</ele>
        <time>2020-09-21T13:58:30Z</time>
      </trkpt>
      <trkpt lat="52.1044" lon="4.4342885">
        <ele>3700.0</ele>
        <time>2020-09-21T13:58:31Z</time>
      </trkpt>
      <trkpt lat="52.10437" lon="4.434267">
        <ele>3700.0</ele>
        <time>2020-09-21T13:58:32Z</time>
      </trkpt>
      <trkpt lat="52.10434" lon="4.4342456">
        <ele>3700.0</ele>
        <time>2020-09-21T13:58:33Z</time>
      </trkpt>
      <trkpt lat="52.10431" lon="4.434225">
        <ele>3700.0</ele>
        <time>2020-09-21T13:58:34Z</time>
      </trkpt>
      <trkpt lat="52.104282" lon="4.4342046">
        <ele>3700.0</ele>
        <time>2020-09-21T13:58:35Z</time>
      </trkpt>
      <trkpt lat="52.10426" lon="4.4341817">
        <ele>3700.0</ele>
        <time>2020-09-21T13:58:36Z</time>
      </trkpt>
      <trkpt lat="52.10423" lon="4.434157">
        <ele>3700.0</ele>
        <time>2020-09-21T13:58:37Z</time>
      </trkpt>
      <trkpt lat="52.104202" lon="4.4341307">
        <ele>3700.0</ele>
        <time>2020-09-21T13:58:38Z</time>
      </trkpt>
      <trkpt lat="52.104176" lon="4.4341025">
        <ele>3700.0</ele>
        <time>2020-09-21T13:58:40Z</time>
      </trkpt>
      <trkpt lat="52.104145" lon="4.4340744">
        <ele>3700.0</ele>
        <time>2020-09-21T13:58:40Z</time>
      </trkpt>
      <trkpt lat="52.104122" lon="4.4340453">
        <ele>3700.0</ele>
        <time>2020-09-21T13:58:41Z</time>
      </trkpt>
      <trkpt lat="52.104088" lon="4.434015">
        <ele>3700.0</ele>
        <time>2020-09-21T13:58:42Z</time>
      </trkpt>
      <trkpt lat="52.104065" lon="4.4339824">
        <ele>3700.0</ele>
        <time>2020-09-21T13:58:43Z</time>
      </trkpt>
      <trkpt lat="52.10404" lon="4.4339504">
        <ele>3700.0</ele>
        <time>2020-09-21T13:58:44Z</time>
      </trkpt>
      <trkpt lat="52.10402" lon="4.433919">
        <ele>3700.0</ele>
        <time>2020-09-21T13:58:45Z</time>
      </trkpt>
      <trkpt lat="52.103996" lon="4.4338865">
        <ele>3700.0</ele>
        <time>2020-09-21T13:58:46Z</time>
      </trkpt>
      <trkpt lat="52.103973" lon="4.4338546">
        <ele>3700.0</ele>
        <time>2020-09-21T13:58:48Z</time>
      </trkpt>
      <trkpt lat="52.10395" lon="4.4338226">
        <ele>3700.0</ele>
        <time>2020-09-21T13:58:48Z</time>
      </trkpt>
      <trkpt lat="52.103928" lon="4.4337897">
        <ele>3700.0</ele>
        <time>2020-09-21T13:58:49Z</time>
      </trkpt>
      <trkpt lat="52.103893" lon="4.433758">
        <ele>3700.0</ele>
        <time>2020-09-21T13:58:50Z</time>
      </trkpt>
      <trkpt lat="52.10387" lon="4.433724">
        <ele>3700.0</ele>
        <time>2020-09-21T13:58:51Z</time>
      </trkpt>
      <trkpt lat="52.103844" lon="4.433689">
        <ele>3700.0</ele>
        <time>2020-09-21T13:58:52Z</time>
      </trkpt>
      <trkpt lat="52.103825" lon="4.4336524">
        <ele>3700.0</ele>
        <time>2020-09-21T13:58:53Z</time>
      </trkpt>
      <trkpt lat="52.103798" lon="4.433616">
        <ele>3700.0</ele>
        <time>2020-09-21T13:58:54Z</time>
      </trkpt>
      <trkpt lat="52.10378" lon="4.433582">
        <ele>3700.0</ele>
        <time>2020-09-21T13:58:55Z</time>
      </trkpt>
      <trkpt lat="52.103756" lon="4.433551">
        <ele>3700.0</ele>
        <time>2020-09-21T13:58:56Z</time>
      </trkpt>
      <trkpt lat="52.103737" lon="4.4335217">
        <ele>3700.0</ele>
        <time>2020-09-21T13:58:57Z</time>
      </trkpt>
      <trkpt lat="52.10371" lon="4.433492">
        <ele>3700.0</ele>
        <time>2020-09-21T13:58:58Z</time>
      </trkpt>
      <trkpt lat="52.10369" lon="4.4334626">
        <ele>3700.0</ele>
        <time>2020-09-21T13:58:59Z</time>
      </trkpt>
      <trkpt lat="52.10367" lon="4.433432">
        <ele>3700.0</ele>
        <time>2020-09-21T13:59:00Z</time>
      </trkpt>
      <trkpt lat="52.103645" lon="4.4334016">
        <ele>3700.0</ele>
        <time>2020-09-21T13:59:01Z</time>
      </trkpt>
      <trkpt lat="52.103622" lon="4.433369">
        <ele>3700.0</ele>
        <time>2020-09-21T13:59:02Z</time>
      </trkpt>
      <trkpt lat="52.1036" lon="4.433336">
        <ele>3700.0</ele>
        <time>2020-09-21T13:59:03Z</time>
      </trkpt>
      <trkpt lat="52.103577" lon="4.4333024">
        <ele>3700.0</ele>
        <time>2020-09-21T13:59:04Z</time>
      </trkpt>
      <trkpt lat="52.103558" lon="4.4332666">
        <ele>3700.0</ele>
        <time>2020-09-21T13:59:05Z</time>
      </trkpt>
      <trkpt lat="52.10354" lon="4.43323">
        <ele>3700.0</ele>
        <time>2020-09-21T13:59:06Z</time>
      </trkpt>
      <trkpt lat="52.103516" lon="4.4331946">
        <ele>3700.0</ele>
        <time>2020-09-21T13:59:07Z</time>
      </trkpt>
      <trkpt lat="52.1035" lon="4.43316">
        <ele>3700.0</ele>
        <time>2020-09-21T13:59:09Z</time>
      </trkpt>
      <trkpt lat="52.10348" lon="4.433125">
        <ele>3700.0</ele>
        <time>2020-09-21T13:59:09Z</time>
      </trkpt>
      <trkpt lat="52.10346" lon="4.43309">
        <ele>3700.0</ele>
        <time>2020-09-21T13:59:10Z</time>
      </trkpt>
      <trkpt lat="52.10344" lon="4.433055">
        <ele>3700.0</ele>
        <time>2020-09-21T13:59:11Z</time>
      </trkpt>
      <trkpt lat="52.10342" lon="4.433018">
        <ele>3700.0</ele>
        <time>2020-09-21T13:59:12Z</time>
      </trkpt>
      <trkpt lat="52.103397" lon="4.432983">
        <ele>3700.0</ele>
        <time>2020-09-21T13:59:13Z</time>
      </trkpt>
      <trkpt lat="52.103374" lon="4.4329467">
        <ele>3700.0</ele>
        <time>2020-09-21T13:59:14Z</time>
      </trkpt>
      <trkpt lat="52.10335" lon="4.4329114">
        <ele>3700.0</ele>
        <time>2020-09-21T13:59:15Z</time>
      </trkpt>
      <trkpt lat="52.103336" lon="4.4328756">
        <ele>3700.0</ele>
        <time>2020-09-21T13:59:16Z</time>
      </trkpt>
      <trkpt lat="52.10332" lon="4.432839">
        <ele>3700.0</ele>
        <time>2020-09-21T13:59:17Z</time>
      </trkpt>
      <trkpt lat="52.103306" lon="4.432801">
        <ele>3700.0</ele>
        <time>2020-09-21T13:59:19Z</time>
      </trkpt>
      <trkpt lat="52.103294" lon="4.432761">
        <ele>3700.0</ele>
        <time>2020-09-21T13:59:19Z</time>
      </trkpt>
      <trkpt lat="52.10328" lon="4.432729">
        <ele>3700.0</ele>
        <time>2020-09-21T13:59:20Z</time>
      </trkpt>
      <trkpt lat="52.103275" lon="4.4327">
        <ele>3700.0</ele>
        <time>2020-09-21T13:59:21Z</time>
      </trkpt>
      <trkpt lat="52.103264" lon="4.432681">
        <ele>3700.0</ele>
        <time>2020-09-21T13:59:22Z</time>
      </trkpt>
      <trkpt lat="52.10326" lon="4.432667">
        <ele>3700.0</ele>
        <time>2020-09-21T13:59:23Z</time>
      </trkpt>
      <trkpt lat="52.10325" lon="4.4326334">
        <ele>3700.0</ele>
        <time>2020-09-21T13:59:25Z</time>
      </trkpt>
      <trkpt lat="52.10325" lon="4.432632">
        <ele>3700.0</ele>
        <time>2020-09-21T13:59:26Z</time>
      </trkpt>
      <trkpt lat="52.10325" lon="4.4326286">
        <ele>3700.0</ele>
        <time>2020-09-21T13:59:26Z</time>
      </trkpt>
      <trkpt lat="52.10325" lon="4.432624">
        <ele>3800.0</ele>
        <time>2020-09-21T13:59:27Z</time>
      </trkpt>
      <trkpt lat="52.10325" lon="4.4326196">
        <ele>3800.0</ele>
        <time>2020-09-21T13:59:29Z</time>
      </trkpt>
      <trkpt lat="52.10325" lon="4.432607">
        <ele>3800.0</ele>
        <time>2020-09-21T13:59:30Z</time>
      </trkpt>
      <trkpt lat="52.10325" lon="4.4326077">
        <ele>3800.0</ele>
        <time>2020-09-21T13:59:31Z</time>
      </trkpt>
      <trkpt lat="52.10325" lon="4.432609">
        <ele>3800.0</ele>
        <time>2020-09-21T13:59:32Z</time>
      </trkpt>
      <trkpt lat="52.10325" lon="4.4326186">
        <ele>3800.0</ele>
        <time>2020-09-21T13:59:34Z</time>
      </trkpt>
      <trkpt lat="52.10325" lon="4.432621">
        <ele>3800.0</ele>
        <time>2020-09-21T13:59:35Z</time>
      </trkpt>
      <trkpt lat="52.10325" lon="4.4326234">
        <ele>3800.0</ele>
        <time>2020-09-21T13:59:36Z</time>
      </trkpt>
      <trkpt lat="52.10325" lon="4.432625">
        <ele>3800.0</ele>
        <time>2020-09-21T13:59:37Z</time>
      </trkpt>
      <trkpt lat="52.10325" lon="4.4326243">
        <ele>3800.0</ele>
        <time>2020-09-21T13:59:38Z</time>
      </trkpt>
      <trkpt lat="52.10325" lon="4.432622">
        <ele>3800.0</ele>
        <time>2020-09-21T13:59:39Z</time>
      </trkpt>
      <trkpt lat="52.103256" lon="4.432618">
        <ele>3800.0</ele>
        <time>2020-09-21T13:59:40Z</time>
      </trkpt>
      <trkpt lat="52.103256" lon="4.4326143">
        <ele>3800.0</ele>
        <time>2020-09-21T13:59:41Z</time>
      </trkpt>
      <trkpt lat="52.10325" lon="4.432611">
        <ele>3800.0</ele>
        <time>2020-09-21T13:59:42Z</time>
      </trkpt>
      <trkpt lat="52.10325" lon="4.432607">
        <ele>3800.0</ele>
        <time>2020-09-21T13:59:46Z</time>
      </trkpt>
      <trkpt lat="52.10325" lon="4.4326053">
        <ele>3800.0</ele>
        <time>2020-09-21T13:59:49Z</time>
      </trkpt>
      <trkpt lat="52.10325" lon="4.432605">
        <ele>3800.0</ele>
        <time>2020-09-21T13:59:49Z</time>
      </trkpt>
      <trkpt lat="52.10325" lon="4.432604">
        <ele>3800.0</ele>
        <time>2020-09-21T13:59:51Z</time>
      </trkpt>
      <trkpt lat="52.103245" lon="4.4326043">
        <ele>3800.0</ele>
        <time>2020-09-21T13:59:52Z</time>
      </trkpt>
      <trkpt lat="52.10324" lon="4.432608">
        <ele>3800.0</ele>
        <time>2020-09-21T13:59:53Z</time>
      </trkpt>
      <trkpt lat="52.103233" lon="4.432614">
        <ele>3800.0</ele>
        <time>2020-09-21T13:59:54Z</time>
      </trkpt>
      <trkpt lat="52.103226" lon="4.432621">
        <ele>3800.0</ele>
        <time>2020-09-21T13:59:55Z</time>
      </trkpt>
      <trkpt lat="52.103218" lon="4.432626">
        <ele>3800.0</ele>
        <time>2020-09-21T13:59:56Z</time>
      </trkpt>
      <trkpt lat="52.103214" lon="4.4326315">
        <ele>3800.0</ele>
        <time>2020-09-21T13:59:57Z</time>
      </trkpt>
      <trkpt lat="52.103214" lon="4.4326377">
        <ele>3800.0</ele>
        <time>2020-09-21T13:59:58Z</time>
      </trkpt>
      <trkpt lat="52.103214" lon="4.432644">
        <ele>3800.0</ele>
        <time>2020-09-21T14:00:00Z</time>
      </trkpt>
      <trkpt lat="52.103218" lon="4.432648">
        <ele>3800.0</ele>
        <time>2020-09-21T14:00:00Z</time>
      </trkpt>
      <trkpt lat="52.103226" lon="4.432654">
        <ele>3800.0</ele>
        <time>2020-09-21T14:00:01Z</time>
      </trkpt>
      <trkpt lat="52.10323" lon="4.432662">
        <ele>3800.0</ele>
        <time>2020-09-21T14:00:02Z</time>
      </trkpt>
      <trkpt lat="52.103233" lon="4.4326744">
        <ele>3800.0</ele>
        <time>2020-09-21T14:00:03Z</time>
      </trkpt>
      <trkpt lat="52.103245" lon="4.432695">
        <ele>3800.0</ele>
        <time>2020-09-21T14:00:04Z</time>
      </trkpt>
      <trkpt lat="52.10325" lon="4.43272">
        <ele>3800.0</ele>
        <time>2020-09-21T14:00:05Z</time>
      </trkpt>
      <trkpt lat="52.10326" lon="4.432747">
        <ele>3800.0</ele>
        <time>2020-09-21T14:00:06Z</time>
      </trkpt>
      <trkpt lat="52.10327" lon="4.4327803">
        <ele>3800.0</ele>
        <time>2020-09-21T14:00:07Z</time>
      </trkpt>
      <trkpt lat="52.10328" lon="4.4328117">
        <ele>3800.0</ele>
        <time>2020-09-21T14:00:08Z</time>
      </trkpt>
      <trkpt lat="52.103294" lon="4.4328475">
        <ele>3800.0</ele>
        <time>2020-09-21T14:00:10Z</time>
      </trkpt>
      <trkpt lat="52.103306" lon="4.4328837">
        <ele>3800.0</ele>
        <time>2020-09-21T14:00:10Z</time>
      </trkpt>
      <trkpt lat="52.10332" lon="4.4329166">
        <ele>3800.0</ele>
        <time>2020-09-21T14:00:11Z</time>
      </trkpt>
      <trkpt lat="52.103336" lon="4.4329534">
        <ele>3800.0</ele>
        <time>2020-09-21T14:00:12Z</time>
      </trkpt>
      <trkpt lat="52.10335" lon="4.432989">
        <ele>3800.0</ele>
        <time>2020-09-21T14:00:13Z</time>
      </trkpt>
      <trkpt lat="52.103367" lon="4.4330273">
        <ele>3800.0</ele>
        <time>2020-09-21T14:00:14Z</time>
      </trkpt>
      <trkpt lat="52.10339" lon="4.4330635">
        <ele>3800.0</ele>
        <time>2020-09-21T14:00:15Z</time>
      </trkpt>
      <trkpt lat="52.10341" lon="4.4331">
        <ele>3800.0</ele>
        <time>2020-09-21T14:00:16Z</time>
      </trkpt>
      <trkpt lat="52.103428" lon="4.4331403">
        <ele>3800.0</ele>
        <time>2020-09-21T14:00:17Z</time>
      </trkpt>
      <trkpt lat="52.10345" lon="4.433179">
        <ele>3700.0</ele>
        <time>2020-09-21T14:00:18Z</time>
      </trkpt>
      <trkpt lat="52.103474" lon="4.433218">
        <ele>3700.0</ele>
        <time>2020-09-21T14:00:19Z</time>
      </trkpt>
      <trkpt lat="52.1035" lon="4.433257">
        <ele>3700.0</ele>
        <time>2020-09-21T14:00:20Z</time>
      </trkpt>
      <trkpt lat="52.10352" lon="4.433296">
        <ele>3700.0</ele>
        <time>2020-09-21T14:00:21Z</time>
      </trkpt>
      <trkpt lat="52.103546" lon="4.4333353">
        <ele>3700.0</ele>
        <time>2020-09-21T14:00:22Z</time>
      </trkpt>
      <trkpt lat="52.103573" lon="4.433373">
        <ele>3700.0</ele>
        <time>2020-09-21T14:00:23Z</time>
      </trkpt>
      <trkpt lat="52.103592" lon="4.43341">
        <ele>3700.0</ele>
        <time>2020-09-21T14:00:24Z</time>
      </trkpt>
      <trkpt lat="52.103615" lon="4.4334455">
        <ele>3700.0</ele>
        <time>2020-09-21T14:00:25Z</time>
      </trkpt>
      <trkpt lat="52.103638" lon="4.4334826">
        <ele>3700.0</ele>
        <time>2020-09-21T14:00:26Z</time>
      </trkpt>
      <trkpt lat="52.10366" lon="4.433517">
        <ele>3700.0</ele>
        <time>2020-09-21T14:00:27Z</time>
      </trkpt>
      <trkpt lat="52.103683" lon="4.433552">
        <ele>3700.0</ele>
        <time>2020-09-21T14:00:28Z</time>
      </trkpt>
      <trkpt lat="52.10371" lon="4.433585">
        <ele>3700.0</ele>
        <time>2020-09-21T14:00:29Z</time>
      </trkpt>
      <trkpt lat="52.103733" lon="4.433617">
        <ele>3700.0</ele>
        <time>2020-09-21T14:00:31Z</time>
      </trkpt>
      <trkpt lat="52.103756" lon="4.433648">
        <ele>3700.0</ele>
        <time>2020-09-21T14:00:31Z</time>
      </trkpt>
      <trkpt lat="52.103783" lon="4.4336777">
        <ele>3700.0</ele>
        <time>2020-09-21T14:00:32Z</time>
      </trkpt>
      <trkpt lat="52.1038" lon="4.4337053">
        <ele>3700.0</ele>
        <time>2020-09-21T14:00:33Z</time>
      </trkpt>
      <trkpt lat="52.103825" lon="4.43373">
        <ele>3700.0</ele>
        <time>2020-09-21T14:00:34Z</time>
      </trkpt>
      <trkpt lat="52.103844" lon="4.433756">
        <ele>3700.0</ele>
        <time>2020-09-21T14:00:35Z</time>
      </trkpt>
      <trkpt lat="52.10387" lon="4.4337826">
        <ele>3700.0</ele>
        <time>2020-09-21T14:00:36Z</time>
      </trkpt>
      <trkpt lat="52.10389" lon="4.4338098">
        <ele>3700.0</ele>
        <time>2020-09-21T14:00:37Z</time>
      </trkpt>
      <trkpt lat="52.103916" lon="4.4338355">
        <ele>3700.0</ele>
        <time>2020-09-21T14:00:38Z</time>
      </trkpt>
      <trkpt lat="52.10393" lon="4.4338574">
        <ele>3700.0</ele>
        <time>2020-09-21T14:00:39Z</time>
      </trkpt>
      <trkpt lat="52.10395" lon="4.433876">
        <ele>3700.0</ele>
        <time>2020-09-21T14:00:40Z</time>
      </trkpt>
      <trkpt lat="52.103962" lon="4.4338894">
        <ele>3700.0</ele>
        <time>2020-09-21T14:00:42Z</time>
      </trkpt>
      <trkpt lat="52.103973" lon="4.433898">
        <ele>3700.0</ele>
        <time>2020-09-21T14:00:42Z</time>
      </trkpt>
      <trkpt lat="52.10398" lon="4.4339027">
        <ele>3700.0</ele>
        <time>2020-09-21T14:00:43Z</time>
      </trkpt>
      <trkpt lat="52.103992" lon="4.433904">
        <ele>3700.0</ele>
        <time>2020-09-21T14:00:44Z</time>
      </trkpt>
      <trkpt lat="52.103996" lon="4.433903">
        <ele>3700.0</ele>
        <time>2020-09-21T14:00:45Z</time>
      </trkpt>
      <trkpt lat="52.104004" lon="4.433905">
        <ele>3700.0</ele>
        <time>2020-09-21T14:00:46Z</time>
      </trkpt>
      <trkpt lat="52.104008" lon="4.43391">
        <ele>3700.0</ele>
        <time>2020-09-21T14:00:47Z</time>
      </trkpt>
      <trkpt lat="52.104008" lon="4.433915">
        <ele>3700.0</ele>
        <time>2020-09-21T14:00:49Z</time>
      </trkpt>
      <trkpt lat="52.104008" lon="4.4339204">
        <ele>3700.0</ele>
        <time>2020-09-21T14:00:49Z</time>
      </trkpt>
      <trkpt lat="52.104008" lon="4.4339266">
        <ele>3700.0</ele>
        <time>2020-09-21T14:00:50Z</time>
      </trkpt>
      <trkpt lat="52.104008" lon="4.4339275">
        <ele>3700.0</ele>
        <time>2020-09-21T14:00:51Z</time>
      </trkpt>
      <trkpt lat="52.104008" lon="4.433927">
        <ele>3700.0</ele>
        <time>2020-09-21T14:00:52Z</time>
      </trkpt>
      <trkpt lat="52.104008" lon="4.4339285">
        <ele>3700.0</ele>
        <time>2020-09-21T14:00:53Z</time>
      </trkpt>
      <trkpt lat="52.104008" lon="4.43393">
        <ele>3700.0</ele>
        <time>2020-09-21T14:00:54Z</time>
      </trkpt>
      <trkpt lat="52.104008" lon="4.433933">
        <ele>3700.0</ele>
        <time>2020-09-21T14:00:55Z</time>
      </trkpt>
      <trkpt lat="52.104008" lon="4.433936">
        <ele>3700.0</ele>
        <time>2020-09-21T14:00:56Z</time>
      </trkpt>
      <trkpt lat="52.104004" lon="4.433942">
        <ele>3700.0</ele>
        <time>2020-09-21T14:01:04Z</time>
      </trkpt>
      <trkpt lat="52.104004" lon="4.433941">
        <ele>3700.0</ele>
        <time>2020-09-21T14:01:05Z</time>
      </trkpt>
      <trkpt lat="52.104008" lon="4.4339333">
        <ele>3700.0</ele>
        <time>2020-09-21T14:01:08Z</time>
      </trkpt>
      <trkpt lat="52.10402" lon="4.4339285">
        <ele>3700.0</ele>
        <time>2020-09-21T14:01:44Z</time>
      </trkpt>
      <trkpt lat="52.10402" lon="4.433927">
        <ele>3700.0</ele>
        <time>2020-09-21T14:01:45Z</time>
      </trkpt>
      <trkpt lat="52.10402" lon="4.433925">
        <ele>3700.0</ele>
        <time>2020-09-21T14:01:47Z</time>
      </trkpt>
      <trkpt lat="52.10402" lon="4.4339166">
        <ele>3700.0</ele>
        <time>2020-09-21T14:01:48Z</time>
      </trkpt>
      <trkpt lat="52.10402" lon="4.433912">
        <ele>3700.0</ele>
        <time>2020-09-21T14:01:50Z</time>
      </trkpt>
      <trkpt lat="52.104008" lon="4.43391">
        <ele>3700.0</ele>
        <time>2020-09-21T14:01:52Z</time>
      </trkpt>
      <trkpt lat="52.104008" lon="4.4339094">
        <ele>3700.0</ele>
        <time>2020-09-21T14:01:53Z</time>
      </trkpt>
      <trkpt lat="52.10401" lon="4.433907">
        <ele>3700.0</ele>
        <time>2020-09-21T14:01:54Z</time>
      </trkpt>
      <trkpt lat="52.10402" lon="4.433904">
        <ele>3700.0</ele>
        <time>2020-09-21T14:01:55Z</time>
      </trkpt>
      <trkpt lat="52.104023" lon="4.433903">
        <ele>3700.0</ele>
        <time>2020-09-21T14:01:56Z</time>
      </trkpt>
      <trkpt lat="52.104027" lon="4.433901">
        <ele>3700.0</ele>
        <time>2020-09-21T14:01:57Z</time>
      </trkpt>
      <trkpt lat="52.10404" lon="4.4338975">
        <ele>3700.0</ele>
        <time>2020-09-21T14:01:58Z</time>
      </trkpt>
      <trkpt lat="52.10404" lon="4.4338946">
        <ele>3700.0</ele>
        <time>2020-09-21T14:01:59Z</time>
      </trkpt>
      <trkpt lat="52.104042" lon="4.4338903">
        <ele>3700.0</ele>
        <time>2020-09-21T14:02:01Z</time>
      </trkpt>
      <trkpt lat="52.104042" lon="4.4338965">
        <ele>3700.0</ele>
        <time>2020-09-21T14:02:03Z</time>
      </trkpt>
      <trkpt lat="52.104042" lon="4.4338975">
        <ele>3700.0</ele>
        <time>2020-09-21T14:02:04Z</time>
      </trkpt>
      <trkpt lat="52.104042" lon="4.4338994">
        <ele>3800.0</ele>
        <time>2020-09-21T14:02:05Z</time>
      </trkpt>
      <trkpt lat="52.10405" lon="4.4339023">
        <ele>3800.0</ele>
        <time>2020-09-21T14:02:06Z</time>
      </trkpt>
      <trkpt lat="52.10405" lon="4.4339066">
        <ele>3800.0</ele>
        <time>2020-09-21T14:02:07Z</time>
      </trkpt>
      <trkpt lat="52.104053" lon="4.43391">
        <ele>3800.0</ele>
        <time>2020-09-21T14:02:09Z</time>
      </trkpt>
      <trkpt lat="52.104053" lon="4.4339094">
        <ele>3800.0</ele>
        <time>2020-09-21T14:02:10Z</time>
      </trkpt>
      <trkpt lat="52.10405" lon="4.433909">
        <ele>3800.0</ele>
        <time>2020-09-21T14:02:11Z</time>
      </trkpt>
      <trkpt lat="52.104053" lon="4.4339137">
        <ele>3800.0</ele>
        <time>2020-09-21T14:02:43Z</time>
      </trkpt>
      <trkpt lat="52.104053" lon="4.433922">
        <ele>3800.0</ele>
        <time>2020-09-21T14:02:46Z</time>
      </trkpt>
      <trkpt lat="52.104053" lon="4.4339232">
        <ele>3800.0</ele>
        <time>2020-09-21T14:02:47Z</time>
      </trkpt>
      <trkpt lat="52.104053" lon="4.433926">
        <ele>3800.0</ele>
        <time>2020-09-21T14:02:48Z</time>
      </trkpt>
      <trkpt lat="52.104057" lon="4.4339366">
        <ele>3800.0</ele>
        <time>2020-09-21T14:02:51Z</time>
      </trkpt>
      <trkpt lat="52.104065" lon="4.43394">
        <ele>3800.0</ele>
        <time>2020-09-21T14:02:54Z</time>
      </trkpt>
      <trkpt lat="52.104057" lon="4.433941">
        <ele>3800.0</ele>
        <time>2020-09-21T14:02:55Z</time>
      </trkpt>
      <trkpt lat="52.104057" lon="4.4339414">
        <ele>3800.0</ele>
        <time>2020-09-21T14:02:56Z</time>
      </trkpt>
      <trkpt lat="52.104053" lon="4.4339414">
        <ele>3800.0</ele>
        <time>2020-09-21T14:02:57Z</time>
      </trkpt>
      <trkpt lat="52.104053" lon="4.4339423">
        <ele>3800.0</ele>
        <time>2020-09-21T14:02:58Z</time>
      </trkpt>
      <trkpt lat="52.104053" lon="4.4339433">
        <ele>3800.0</ele>
        <time>2020-09-21T14:02:59Z</time>
      </trkpt>
      <trkpt lat="52.104053" lon="4.4339433">
        <ele>3800.0</ele>
        <time>2020-09-21T14:03:00Z</time>
      </trkpt>
      <trkpt lat="52.104053" lon="4.4339414">
        <ele>3800.0</ele>
        <time>2020-09-21T14:03:01Z</time>
      </trkpt>
      <trkpt lat="52.104053" lon="4.4339375">
        <ele>3800.0</ele>
        <time>2020-09-21T14:03:02Z</time>
      </trkpt>
      <trkpt lat="52.104053" lon="4.4339333">
        <ele>3800.0</ele>
        <time>2020-09-21T14:03:03Z</time>
      </trkpt>
      <trkpt lat="52.104053" lon="4.4339266">
        <ele>3800.0</ele>
        <time>2020-09-21T14:03:04Z</time>
      </trkpt>
      <trkpt lat="52.104053" lon="4.433922">
        <ele>3800.0</ele>
        <time>2020-09-21T14:03:05Z</time>
      </trkpt>
      <trkpt lat="52.10405" lon="4.43392">
        <ele>3800.0</ele>
        <time>2020-09-21T14:03:06Z</time>
      </trkpt>
      <trkpt lat="52.104042" lon="4.4339194">
        <ele>3800.0</ele>
        <time>2020-09-21T14:03:07Z</time>
      </trkpt>
      <trkpt lat="52.10404" lon="4.433923">
        <ele>3800.0</ele>
        <time>2020-09-21T14:03:08Z</time>
      </trkpt>
      <trkpt lat="52.104034" lon="4.433928">
        <ele>3800.0</ele>
        <time>2020-09-21T14:03:09Z</time>
      </trkpt>
      <trkpt lat="52.104027" lon="4.4339314">
        <ele>3800.0</ele>
        <time>2020-09-21T14:03:10Z</time>
      </trkpt>
      <trkpt lat="52.104027" lon="4.4339333">
        <ele>3800.0</ele>
        <time>2020-09-21T14:03:11Z</time>
      </trkpt>
      <trkpt lat="52.104023" lon="4.4339323">
        <ele>3800.0</ele>
        <time>2020-09-21T14:03:12Z</time>
      </trkpt>
      <trkpt lat="52.10402" lon="4.433929">
        <ele>3800.0</ele>
        <time>2020-09-21T14:03:14Z</time>
      </trkpt>
      <trkpt lat="52.10401" lon="4.4339247">
        <ele>3800.0</ele>
        <time>2020-09-21T14:03:14Z</time>
      </trkpt>
      <trkpt lat="52.104008" lon="4.4339166">
        <ele>3800.0</ele>
        <time>2020-09-21T14:03:16Z</time>
      </trkpt>
      <trkpt lat="52.104008" lon="4.4339166">
        <ele>3800.0</ele>
        <time>2020-09-21T14:03:17Z</time>
      </trkpt>
      <trkpt lat="52.104008" lon="4.4339147">
        <ele>3800.0</ele>
        <time>2020-09-21T14:03:18Z</time>
      </trkpt>
      <trkpt lat="52.104008" lon="4.433914">
        <ele>3800.0</ele>
        <time>2020-09-21T14:03:19Z</time>
      </trkpt>
      <trkpt lat="52.104008" lon="4.4339137">
        <ele>3800.0</ele>
        <time>2020-09-21T14:03:20Z</time>
      </trkpt>
      <trkpt lat="52.10401" lon="4.4339123">
        <ele>3800.0</ele>
        <time>2020-09-21T14:03:21Z</time>
      </trkpt>
      <trkpt lat="52.10401" lon="4.433911">
        <ele>3800.0</ele>
        <time>2020-09-21T14:03:22Z</time>
      </trkpt>
      <trkpt lat="52.10401" lon="4.4339237">
        <ele>3800.0</ele>
        <time>2020-09-21T14:03:25Z</time>
      </trkpt>
      <trkpt lat="52.10401" lon="4.4339285">
        <ele>3800.0</ele>
        <time>2020-09-21T14:03:28Z</time>
      </trkpt>
      <trkpt lat="52.10401" lon="4.4339285">
        <ele>3800.0</ele>
        <time>2020-09-21T14:03:29Z</time>
      </trkpt>
      <trkpt lat="52.10401" lon="4.433929">
        <ele>3800.0</ele>
        <time>2020-09-21T14:03:30Z</time>
      </trkpt>
      <trkpt lat="52.10402" lon="4.4339304">
        <ele>3800.0</ele>
        <time>2020-09-21T14:03:31Z</time>
      </trkpt>
      <trkpt lat="52.10402" lon="4.4339314">
        <ele>3800.0</ele>
        <time>2020-09-21T14:03:32Z</time>
      </trkpt>
      <trkpt lat="52.104023" lon="4.4339323">
        <ele>3800.0</ele>
        <time>2020-09-21T14:03:33Z</time>
      </trkpt>
      <trkpt lat="52.10402" lon="4.4339385">
        <ele>3800.0</ele>
        <time>2020-09-21T14:03:38Z</time>
      </trkpt>
      <trkpt lat="52.10402" lon="4.433939">
        <ele>3800.0</ele>
        <time>2020-09-21T14:03:39Z</time>
      </trkpt>
      <trkpt lat="52.10402" lon="4.433938">
        <ele>3800.0</ele>
        <time>2020-09-21T14:03:40Z</time>
      </trkpt>
      <trkpt lat="52.10405" lon="4.4339633">
        <ele>3800.0</ele>
        <time>2020-09-21T14:03:47Z</time>
      </trkpt>
      <trkpt lat="52.104053" lon="4.4339695">
        <ele>3800.0</ele>
        <time>2020-09-21T14:03:47Z</time>
      </trkpt>
      <trkpt lat="52.104065" lon="4.433984">
        <ele>3800.0</ele>
        <time>2020-09-21T14:03:48Z</time>
      </trkpt>
      <trkpt lat="52.104084" lon="4.434004">
        <ele>3800.0</ele>
        <time>2020-09-21T14:03:49Z</time>
      </trkpt>
      <trkpt lat="52.10411" lon="4.4340267">
        <ele>3800.0</ele>
        <time>2020-09-21T14:03:50Z</time>
      </trkpt>
      <trkpt lat="52.10414" lon="4.4340534">
        <ele>3800.0</ele>
        <time>2020-09-21T14:03:51Z</time>
      </trkpt>
      <trkpt lat="52.10417" lon="4.43408">
        <ele>3800.0</ele>
        <time>2020-09-21T14:03:52Z</time>
      </trkpt>
      <trkpt lat="52.104206" lon="4.43411">
        <ele>3800.0</ele>
        <time>2020-09-21T14:03:53Z</time>
      </trkpt>
      <trkpt lat="52.104244" lon="4.43414">
        <ele>3800.0</ele>
        <time>2020-09-21T14:03:54Z</time>
      </trkpt>
      <trkpt lat="52.104275" lon="4.43417">
        <ele>3800.0</ele>
        <time>2020-09-21T14:03:55Z</time>
      </trkpt>
      <trkpt lat="52.10431" lon="4.434201">
        <ele>3800.0</ele>
        <time>2020-09-21T14:03:56Z</time>
      </trkpt>
      <trkpt lat="52.10434" lon="4.434235">
        <ele>3800.0</ele>
        <time>2020-09-21T14:03:57Z</time>
      </trkpt>
      <trkpt lat="52.10438" lon="4.434273">
        <ele>3800.0</ele>
        <time>2020-09-21T14:03:58Z</time>
      </trkpt>
      <trkpt lat="52.104424" lon="4.434312">
        <ele>3800.0</ele>
        <time>2020-09-21T14:03:59Z</time>
      </trkpt>
      <trkpt lat="52.104458" lon="4.4343467">
        <ele>3800.0</ele>
        <time>2020-09-21T14:04:00Z</time>
      </trkpt>
      <trkpt lat="52.104492" lon="4.434382">
        <ele>3800.0</ele>
        <time>2020-09-21T14:04:01Z</time>
      </trkpt>
      <trkpt lat="52.10454" lon="4.4344206">
        <ele>3800.0</ele>
        <time>2020-09-21T14:04:02Z</time>
      </trkpt>
      <trkpt lat="52.10458" lon="4.43446">
        <ele>3800.0</ele>
        <time>2020-09-21T14:04:03Z</time>
      </trkpt>
      <trkpt lat="52.10462" lon="4.434499">
        <ele>3800.0</ele>
        <time>2020-09-21T14:04:04Z</time>
      </trkpt>
      <trkpt lat="52.104664" lon="4.4345345">
        <ele>3800.0</ele>
        <time>2020-09-21T14:04:05Z</time>
      </trkpt>
      <trkpt lat="52.10471" lon="4.4345717">
        <ele>3800.0</ele>
        <time>2020-09-21T14:04:06Z</time>
      </trkpt>
      <trkpt lat="52.10475" lon="4.4346056">
        <ele>3800.0</ele>
        <time>2020-09-21T14:04:08Z</time>
      </trkpt>
      <trkpt lat="52.104797" lon="4.4346356">
        <ele>3800.0</ele>
        <time>2020-09-21T14:04:08Z</time>
      </trkpt>
      <trkpt lat="52.104836" lon="4.4346623">
        <ele>3800.0</ele>
        <time>2020-09-21T14:04:09Z</time>
      </trkpt>
      <trkpt lat="52.104877" lon="4.43469">
        <ele>3800.0</ele>
        <time>2020-09-21T14:04:10Z</time>
      </trkpt>
      <trkpt lat="52.104923" lon="4.4347196">
        <ele>3800.0</ele>
        <time>2020-09-21T14:04:11Z</time>
      </trkpt>
      <trkpt lat="52.104965" lon="4.4347467">
        <ele>3800.0</ele>
        <time>2020-09-21T14:04:12Z</time>
      </trkpt>
      <trkpt lat="52.10501" lon="4.434775">
        <ele>3800.0</ele>
        <time>2020-09-21T14:04:13Z</time>
      </trkpt>
      <trkpt lat="52.105045" lon="4.434801">
        <ele>3800.0</ele>
        <time>2020-09-21T14:04:14Z</time>
      </trkpt>
      <trkpt lat="52.105087" lon="4.4348264">
        <ele>3800.0</ele>
        <time>2020-09-21T14:04:15Z</time>
      </trkpt>
      <trkpt lat="52.105133" lon="4.4348536">
        <ele>3800.0</ele>
        <time>2020-09-21T14:04:16Z</time>
      </trkpt>
      <trkpt lat="52.105175" lon="4.4348807">
        <ele>3800.0</ele>
        <time>2020-09-21T14:04:17Z</time>
      </trkpt>
      <trkpt lat="52.105217" lon="4.434903">
        <ele>3800.0</ele>
        <time>2020-09-21T14:04:18Z</time>
      </trkpt>
      <trkpt lat="52.105263" lon="4.4349256">
        <ele>3800.0</ele>
        <time>2020-09-21T14:04:19Z</time>
      </trkpt>
      <trkpt lat="52.10531" lon="4.434952">
        <ele>3800.0</ele>
        <time>2020-09-21T14:04:20Z</time>
      </trkpt>
      <trkpt lat="52.105503" lon="4.4350634">
        <ele>3800.0</ele>
        <time>2020-09-21T14:04:22Z</time>
      </trkpt>
      <trkpt lat="52.105507" lon="4.4350667">
        <ele>3800.0</ele>
        <time>2020-09-21T14:04:23Z</time>
      </trkpt>
      <trkpt lat="52.105522" lon="4.4350786">
        <ele>3800.0</ele>
        <time>2020-09-21T14:04:24Z</time>
      </trkpt>
      <trkpt lat="52.10555" lon="4.435099">
        <ele>3800.0</ele>
        <time>2020-09-21T14:04:25Z</time>
      </trkpt>
      <trkpt lat="52.10558" lon="4.435123">
        <ele>3800.0</ele>
        <time>2020-09-21T14:04:26Z</time>
      </trkpt>
      <trkpt lat="52.105614" lon="4.4351487">
        <ele>3800.0</ele>
        <time>2020-09-21T14:04:27Z</time>
      </trkpt>
      <trkpt lat="52.10565" lon="4.4351764">
        <ele>3800.0</ele>
        <time>2020-09-21T14:04:28Z</time>
      </trkpt>
      <trkpt lat="52.105694" lon="4.4352026">
        <ele>3800.0</ele>
        <time>2020-09-21T14:04:29Z</time>
      </trkpt>
      <trkpt lat="52.105732" lon="4.4352245">
        <ele>3800.0</ele>
        <time>2020-09-21T14:04:30Z</time>
      </trkpt>
      <trkpt lat="52.105774" lon="4.4352436">
        <ele>3800.0</ele>
        <time>2020-09-21T14:04:31Z</time>
      </trkpt>
      <trkpt lat="52.105816" lon="4.4352617">
        <ele>3800.0</ele>
        <time>2020-09-21T14:04:32Z</time>
      </trkpt>
      <trkpt lat="52.105858" lon="4.43528">
        <ele>3800.0</ele>
        <time>2020-09-21T14:04:33Z</time>
      </trkpt>
      <trkpt lat="52.105896" lon="4.4352956">
        <ele>3800.0</ele>
        <time>2020-09-21T14:04:34Z</time>
      </trkpt>
      <trkpt lat="52.105938" lon="4.4353094">
        <ele>3800.0</ele>
        <time>2020-09-21T14:04:35Z</time>
      </trkpt>
      <trkpt lat="52.10598" lon="4.435324">
        <ele>3800.0</ele>
        <time>2020-09-21T14:04:36Z</time>
      </trkpt>
      <trkpt lat="52.106018" lon="4.435339">
        <ele>3800.0</ele>
        <time>2020-09-21T14:04:37Z</time>
      </trkpt>
      <trkpt lat="52.10606" lon="4.4353547">
        <ele>3800.0</ele>
        <time>2020-09-21T14:04:38Z</time>
      </trkpt>
      <trkpt lat="52.106102" lon="4.4353704">
        <ele>3800.0</ele>
        <time>2020-09-21T14:04:40Z</time>
      </trkpt>
      <trkpt lat="52.106144" lon="4.435388">
        <ele>3800.0</ele>
        <time>2020-09-21T14:04:40Z</time>
      </trkpt>
      <trkpt lat="52.106182" lon="4.4354067">
        <ele>3800.0</ele>
        <time>2020-09-21T14:04:41Z</time>
      </trkpt>
      <trkpt lat="52.10622" lon="4.435424">
        <ele>3800.0</ele>
        <time>2020-09-21T14:04:42Z</time>
      </trkpt>
      <trkpt lat="52.106262" lon="4.435442">
        <ele>3800.0</ele>
        <time>2020-09-21T14:04:43Z</time>
      </trkpt>
      <trkpt lat="52.1063" lon="4.4354587">
        <ele>3800.0</ele>
        <time>2020-09-21T14:04:44Z</time>
      </trkpt>
      <trkpt lat="52.106342" lon="4.4354744">
        <ele>3800.0</ele>
        <time>2020-09-21T14:04:45Z</time>
      </trkpt>
      <trkpt lat="52.106377" lon="4.435487">
        <ele>3800.0</ele>
        <time>2020-09-21T14:04:47Z</time>
      </trkpt>
      <trkpt lat="52.10642" lon="4.4354963">
        <ele>3800.0</ele>
        <time>2020-09-21T14:04:47Z</time>
      </trkpt>
      <trkpt lat="52.10646" lon="4.435509">
        <ele>3800.0</ele>
        <time>2020-09-21T14:04:48Z</time>
      </trkpt>
      <trkpt lat="52.106506" lon="4.435526">
        <ele>3800.0</ele>
        <time>2020-09-21T14:04:49Z</time>
      </trkpt>
      <trkpt lat="52.10655" lon="4.4355464">
        <ele>3800.0</ele>
        <time>2020-09-21T14:04:50Z</time>
      </trkpt>
      <trkpt lat="52.106583" lon="4.4355717">
        <ele>3800.0</ele>
        <time>2020-09-21T14:04:51Z</time>
      </trkpt>
      <trkpt lat="52.106617" lon="4.435599">
        <ele>3800.0</ele>
        <time>2020-09-21T14:04:52Z</time>
      </trkpt>
      <trkpt lat="52.10665" lon="4.4356294">
        <ele>3800.0</ele>
        <time>2020-09-21T14:04:53Z</time>
      </trkpt>
      <trkpt lat="52.10668" lon="4.435661">
        <ele>3800.0</ele>
        <time>2020-09-21T14:04:54Z</time>
      </trkpt>
      <trkpt lat="52.106705" lon="4.4356933">
        <ele>3800.0</ele>
        <time>2020-09-21T14:04:55Z</time>
      </trkpt>
      <trkpt lat="52.10673" lon="4.4357276">
        <ele>3800.0</ele>
        <time>2020-09-21T14:04:56Z</time>
      </trkpt>
      <trkpt lat="52.10676" lon="4.4357595">
        <ele>3800.0</ele>
        <time>2020-09-21T14:04:57Z</time>
      </trkpt>
      <trkpt lat="52.106777" lon="4.4357877">
        <ele>3800.0</ele>
        <time>2020-09-21T14:04:58Z</time>
      </trkpt>
      <trkpt lat="52.106796" lon="4.435809">
        <ele>3900.0</ele>
        <time>2020-09-21T14:04:59Z</time>
      </trkpt>
      <trkpt lat="52.10682" lon="4.4358234">
        <ele>3900.0</ele>
        <time>2020-09-21T14:05:00Z</time>
      </trkpt>
      <trkpt lat="52.10684" lon="4.4358277">
        <ele>3900.0</ele>
        <time>2020-09-21T14:05:01Z</time>
      </trkpt>
      <trkpt lat="52.106853" lon="4.4358244">
        <ele>3900.0</ele>
        <time>2020-09-21T14:05:02Z</time>
      </trkpt>
      <trkpt lat="52.106865" lon="4.435815">
        <ele>3900.0</ele>
        <time>2020-09-21T14:05:03Z</time>
      </trkpt>
      <trkpt lat="52.106876" lon="4.4357996">
        <ele>4000.0</ele>
        <time>2020-09-21T14:05:04Z</time>
      </trkpt>
      <trkpt lat="52.106884" lon="4.4357777">
        <ele>4000.0</ele>
        <time>2020-09-21T14:05:05Z</time>
      </trkpt>
      <trkpt lat="52.106895" lon="4.435752">
        <ele>4000.0</ele>
        <time>2020-09-21T14:05:06Z</time>
      </trkpt>
      <trkpt lat="52.1069" lon="4.4357243">
        <ele>4000.0</ele>
        <time>2020-09-21T14:05:08Z</time>
      </trkpt>
      <trkpt lat="52.106907" lon="4.4356933">
        <ele>4100.0</ele>
        <time>2020-09-21T14:05:08Z</time>
      </trkpt>
      <trkpt lat="52.10691" lon="4.4356613">
        <ele>4100.0</ele>
        <time>2020-09-21T14:05:09Z</time>
      </trkpt>
      <trkpt lat="52.106915" lon="4.4356265">
        <ele>4100.0</ele>
        <time>2020-09-21T14:05:10Z</time>
      </trkpt>
      <trkpt lat="52.106922" lon="4.4355936">
        <ele>4100.0</ele>
        <time>2020-09-21T14:05:11Z</time>
      </trkpt>
      <trkpt lat="52.106922" lon="4.4355597">
        <ele>4100.0</ele>
        <time>2020-09-21T14:05:12Z</time>
      </trkpt>
      <trkpt lat="52.106926" lon="4.435523">
        <ele>4100.0</ele>
        <time>2020-09-21T14:05:13Z</time>
      </trkpt>
      <trkpt lat="52.10693" lon="4.435484">
        <ele>4100.0</ele>
        <time>2020-09-21T14:05:14Z</time>
      </trkpt>
      <trkpt lat="52.106937" lon="4.435441">
        <ele>4100.0</ele>
        <time>2020-09-21T14:05:15Z</time>
      </trkpt>
      <trkpt lat="52.106945" lon="4.4353914">
        <ele>4100.0</ele>
        <time>2020-09-21T14:05:16Z</time>
      </trkpt>
      <trkpt lat="52.106956" lon="4.4353356">
        <ele>4100.0</ele>
        <time>2020-09-21T14:05:17Z</time>
      </trkpt>
      <trkpt lat="52.106968" lon="4.4352746">
        <ele>4000.0</ele>
        <time>2020-09-21T14:05:18Z</time>
      </trkpt>
      <trkpt lat="52.106976" lon="4.435209">
        <ele>4000.0</ele>
        <time>2020-09-21T14:05:19Z</time>
      </trkpt>
      <trkpt lat="52.106983" lon="4.4351363">
        <ele>4000.0</ele>
        <time>2020-09-21T14:05:20Z</time>
      </trkpt>
      <trkpt lat="52.107" lon="4.4350576">
        <ele>3900.0</ele>
        <time>2020-09-21T14:05:21Z</time>
      </trkpt>
      <trkpt lat="52.107014" lon="4.4349737">
        <ele>3900.0</ele>
        <time>2020-09-21T14:05:22Z</time>
      </trkpt>
      <trkpt lat="52.10704" lon="4.434888">
        <ele>3900.0</ele>
        <time>2020-09-21T14:05:23Z</time>
      </trkpt>
      <trkpt lat="52.10707" lon="4.4348044">
        <ele>3800.0</ele>
        <time>2020-09-21T14:05:24Z</time>
      </trkpt>
      <trkpt lat="52.107105" lon="4.4347224">
        <ele>3800.0</ele>
        <time>2020-09-21T14:05:25Z</time>
      </trkpt>
      <trkpt lat="52.107136" lon="4.434644">
        <ele>3800.0</ele>
        <time>2020-09-21T14:05:26Z</time>
      </trkpt>
      <trkpt lat="52.10717" lon="4.4345675">
        <ele>3800.0</ele>
        <time>2020-09-21T14:05:27Z</time>
      </trkpt>
      <trkpt lat="52.10721" lon="4.4344935">
        <ele>3800.0</ele>
        <time>2020-09-21T14:05:29Z</time>
      </trkpt>
      <trkpt lat="52.107243" lon="4.434421">
        <ele>3800.0</ele>
        <time>2020-09-21T14:05:29Z</time>
      </trkpt>
      <trkpt lat="52.10728" lon="4.43435">
        <ele>3700.0</ele>
        <time>2020-09-21T14:05:30Z</time>
      </trkpt>
      <trkpt lat="52.107315" lon="4.434282">
        <ele>3700.0</ele>
        <time>2020-09-21T14:05:31Z</time>
      </trkpt>
      <trkpt lat="52.10734" lon="4.4342117">
        <ele>3700.0</ele>
        <time>2020-09-21T14:05:32Z</time>
      </trkpt>
      <trkpt lat="52.107357" lon="4.434152">
        <ele>3700.0</ele>
        <time>2020-09-21T14:05:33Z</time>
      </trkpt>
      <trkpt lat="52.10736" lon="4.4340982">
        <ele>3700.0</ele>
        <time>2020-09-21T14:05:34Z</time>
      </trkpt>
      <trkpt lat="52.10736" lon="4.434047">
        <ele>3700.0</ele>
        <time>2020-09-21T14:05:35Z</time>
      </trkpt>
      <trkpt lat="52.10736" lon="4.4340005">
        <ele>3700.0</ele>
        <time>2020-09-21T14:05:36Z</time>
      </trkpt>
      <trkpt lat="52.10736" lon="4.4339633">
        <ele>3700.0</ele>
        <time>2020-09-21T14:05:37Z</time>
      </trkpt>
      <trkpt lat="52.107365" lon="4.4339333">
        <ele>3700.0</ele>
        <time>2020-09-21T14:05:39Z</time>
      </trkpt>
      <trkpt lat="52.107376" lon="4.4339075">
        <ele>3700.0</ele>
        <time>2020-09-21T14:05:39Z</time>
      </trkpt>
      <trkpt lat="52.107388" lon="4.4338818">
        <ele>3700.0</ele>
        <time>2020-09-21T14:05:40Z</time>
      </trkpt>
      <trkpt lat="52.1074" lon="4.4338536">
        <ele>3700.0</ele>
        <time>2020-09-21T14:05:41Z</time>
      </trkpt>
      <trkpt lat="52.107414" lon="4.4338255">
        <ele>3700.0</ele>
        <time>2020-09-21T14:05:42Z</time>
      </trkpt>
      <trkpt lat="52.10743" lon="4.4337974">
        <ele>3700.0</ele>
        <time>2020-09-21T14:05:43Z</time>
      </trkpt>
      <trkpt lat="52.107445" lon="4.4337673">
        <ele>3700.0</ele>
        <time>2020-09-21T14:05:44Z</time>
      </trkpt>
      <trkpt lat="52.107464" lon="4.433736">
        <ele>3700.0</ele>
        <time>2020-09-21T14:05:45Z</time>
      </trkpt>
      <trkpt lat="52.10748" lon="4.433703">
        <ele>3700.0</ele>
        <time>2020-09-21T14:05:46Z</time>
      </trkpt>
      <trkpt lat="52.1075" lon="4.4336696">
        <ele>3700.0</ele>
        <time>2020-09-21T14:05:47Z</time>
      </trkpt>
      <trkpt lat="52.107525" lon="4.433633">
        <ele>3700.0</ele>
        <time>2020-09-21T14:05:48Z</time>
      </trkpt>
      <trkpt lat="52.10755" lon="4.433593">
        <ele>3700.0</ele>
        <time>2020-09-21T14:05:49Z</time>
      </trkpt>
      <trkpt lat="52.107574" lon="4.433551">
        <ele>3700.0</ele>
        <time>2020-09-21T14:05:50Z</time>
      </trkpt>
      <trkpt lat="52.1076" lon="4.433508">
        <ele>3700.0</ele>
        <time>2020-09-21T14:05:51Z</time>
      </trkpt>
      <trkpt lat="52.107628" lon="4.4334636">
        <ele>3700.0</ele>
        <time>2020-09-21T14:05:52Z</time>
      </trkpt>
      <trkpt lat="52.107655" lon="4.4334183">
        <ele>3700.0</ele>
        <time>2020-09-21T14:05:53Z</time>
      </trkpt>
      <trkpt lat="52.107677" lon="4.433373">
        <ele>3700.0</ele>
        <time>2020-09-21T14:05:54Z</time>
      </trkpt>
      <trkpt lat="52.107704" lon="4.4333296">
        <ele>3700.0</ele>
        <time>2020-09-21T14:05:55Z</time>
      </trkpt>
      <trkpt lat="52.10773" lon="4.4332848">
        <ele>3700.0</ele>
        <time>2020-09-21T14:05:57Z</time>
      </trkpt>
      <trkpt lat="52.107754" lon="4.433237">
        <ele>3700.0</ele>
        <time>2020-09-21T14:05:57Z</time>
      </trkpt>
      <trkpt lat="52.10778" lon="4.43319">
        <ele>3700.0</ele>
        <time>2020-09-21T14:05:58Z</time>
      </trkpt>
      <trkpt lat="52.107807" lon="4.433141">
        <ele>3700.0</ele>
        <time>2020-09-21T14:05:59Z</time>
      </trkpt>
      <trkpt lat="52.107834" lon="4.4330916">
        <ele>3700.0</ele>
        <time>2020-09-21T14:06:00Z</time>
      </trkpt>
      <trkpt lat="52.107857" lon="4.433039">
        <ele>3700.0</ele>
        <time>2020-09-21T14:06:01Z</time>
      </trkpt>
      <trkpt lat="52.10788" lon="4.432981">
        <ele>3700.0</ele>
        <time>2020-09-21T14:06:02Z</time>
      </trkpt>
      <trkpt lat="52.107903" lon="4.4329205">
        <ele>3700.0</ele>
        <time>2020-09-21T14:06:03Z</time>
      </trkpt>
      <trkpt lat="52.107933" lon="4.4328585">
        <ele>3700.0</ele>
        <time>2020-09-21T14:06:04Z</time>
      </trkpt>
      <trkpt lat="52.10796" lon="4.4328017">
        <ele>3700.0</ele>
        <time>2020-09-21T14:06:05Z</time>
      </trkpt>
      <trkpt lat="52.107986" lon="4.432751">
        <ele>3700.0</ele>
        <time>2020-09-21T14:06:06Z</time>
      </trkpt>
      <trkpt lat="52.108013" lon="4.4327054">
        <ele>3700.0</ele>
        <time>2020-09-21T14:06:07Z</time>
      </trkpt>
      <trkpt lat="52.108032" lon="4.432662">
        <ele>3700.0</ele>
        <time>2020-09-21T14:06:08Z</time>
      </trkpt>
      <trkpt lat="52.108047" lon="4.4326153">
        <ele>3700.0</ele>
        <time>2020-09-21T14:06:09Z</time>
      </trkpt>
      <trkpt lat="52.108067" lon="4.432566">
        <ele>3700.0</ele>
        <time>2020-09-21T14:06:10Z</time>
      </trkpt>
      <trkpt lat="52.108093" lon="4.432516">
        <ele>3700.0</ele>
        <time>2020-09-21T14:06:11Z</time>
      </trkpt>
      <trkpt lat="52.10812" lon="4.432467">
        <ele>3700.0</ele>
        <time>2020-09-21T14:06:13Z</time>
      </trkpt>
      <trkpt lat="52.10815" lon="4.4324174">
        <ele>3700.0</ele>
        <time>2020-09-21T14:06:13Z</time>
      </trkpt>
      <trkpt lat="52.10818" lon="4.432369">
        <ele>3700.0</ele>
        <time>2020-09-21T14:06:14Z</time>
      </trkpt>
      <trkpt lat="52.10821" lon="4.43232">
        <ele>3700.0</ele>
        <time>2020-09-21T14:06:15Z</time>
      </trkpt>
      <trkpt lat="52.10824" lon="4.432271">
        <ele>3700.0</ele>
        <time>2020-09-21T14:06:16Z</time>
      </trkpt>
      <trkpt lat="52.10827" lon="4.432219">
        <ele>3700.0</ele>
        <time>2020-09-21T14:06:17Z</time>
      </trkpt>
      <trkpt lat="52.1083" lon="4.4321666">
        <ele>3700.0</ele>
        <time>2020-09-21T14:06:18Z</time>
      </trkpt>
      <trkpt lat="52.10833" lon="4.432113">
        <ele>3700.0</ele>
        <time>2020-09-21T14:06:19Z</time>
      </trkpt>
      <trkpt lat="52.108353" lon="4.432062">
        <ele>3700.0</ele>
        <time>2020-09-21T14:06:20Z</time>
      </trkpt>
      <trkpt lat="52.108387" lon="4.4320116">
        <ele>3700.0</ele>
        <time>2020-09-21T14:06:21Z</time>
      </trkpt>
      <trkpt lat="52.108418" lon="4.431959">
        <ele>3700.0</ele>
        <time>2020-09-21T14:06:22Z</time>
      </trkpt>
      <trkpt lat="52.108448" lon="4.431905">
        <ele>3800.0</ele>
        <time>2020-09-21T14:06:23Z</time>
      </trkpt>
      <trkpt lat="52.10847" lon="4.4318485">
        <ele>3800.0</ele>
        <time>2020-09-21T14:06:24Z</time>
      </trkpt>
      <trkpt lat="52.1085" lon="4.4317884">
        <ele>3800.0</ele>
        <time>2020-09-21T14:06:25Z</time>
      </trkpt>
      <trkpt lat="52.10853" lon="4.4317245">
        <ele>3800.0</ele>
        <time>2020-09-21T14:06:26Z</time>
      </trkpt>
      <trkpt lat="52.10856" lon="4.4316607">
        <ele>3800.0</ele>
        <time>2020-09-21T14:06:27Z</time>
      </trkpt>
      <trkpt lat="52.108597" lon="4.4315987">
        <ele>3800.0</ele>
        <time>2020-09-21T14:06:28Z</time>
      </trkpt>
      <trkpt lat="52.108627" lon="4.4315343">
        <ele>3800.0</ele>
        <time>2020-09-21T14:06:29Z</time>
      </trkpt>
      <trkpt lat="52.108658" lon="4.43147">
        <ele>3800.0</ele>
        <time>2020-09-21T14:06:30Z</time>
      </trkpt>
      <trkpt lat="52.10869" lon="4.431403">
        <ele>3800.0</ele>
        <time>2020-09-21T14:06:32Z</time>
      </trkpt>
      <trkpt lat="52.10872" lon="4.4313397">
        <ele>3800.0</ele>
        <time>2020-09-21T14:06:32Z</time>
      </trkpt>
      <trkpt lat="52.10875" lon="4.4312806">
        <ele>3800.0</ele>
        <time>2020-09-21T14:06:33Z</time>
      </trkpt>
      <trkpt lat="52.10878" lon="4.431225">
        <ele>3800.0</ele>
        <time>2020-09-21T14:06:34Z</time>
      </trkpt>
      <trkpt lat="52.10881" lon="4.431173">
        <ele>3800.0</ele>
        <time>2020-09-21T14:06:35Z</time>
      </trkpt>
      <trkpt lat="52.10884" lon="4.4311237">
        <ele>3800.0</ele>
        <time>2020-09-21T14:06:36Z</time>
      </trkpt>
      <trkpt lat="52.10887" lon="4.431073">
        <ele>3800.0</ele>
        <time>2020-09-21T14:06:37Z</time>
      </trkpt>
      <trkpt lat="52.108902" lon="4.431022">
        <ele>3800.0</ele>
        <time>2020-09-21T14:06:38Z</time>
      </trkpt>
      <trkpt lat="52.10893" lon="4.430971">
        <ele>3800.0</ele>
        <time>2020-09-21T14:06:39Z</time>
      </trkpt>
      <trkpt lat="52.10896" lon="4.430921">
        <ele>3800.0</ele>
        <time>2020-09-21T14:06:40Z</time>
      </trkpt>
      <trkpt lat="52.108986" lon="4.4308705">
        <ele>3800.0</ele>
        <time>2020-09-21T14:06:41Z</time>
      </trkpt>
      <trkpt lat="52.109016" lon="4.4308205">
        <ele>3800.0</ele>
        <time>2020-09-21T14:06:42Z</time>
      </trkpt>
      <trkpt lat="52.109047" lon="4.4307694">
        <ele>3800.0</ele>
        <time>2020-09-21T14:06:43Z</time>
      </trkpt>
      <trkpt lat="52.109077" lon="4.430718">
        <ele>3800.0</ele>
        <time>2020-09-21T14:06:44Z</time>
      </trkpt>
      <trkpt lat="52.1091" lon="4.430664">
        <ele>3800.0</ele>
        <time>2020-09-21T14:06:45Z</time>
      </trkpt>
      <trkpt lat="52.109135" lon="4.4306073">
        <ele>3800.0</ele>
        <time>2020-09-21T14:06:46Z</time>
      </trkpt>
      <trkpt lat="52.109158" lon="4.4305496">
        <ele>3800.0</ele>
        <time>2020-09-21T14:06:47Z</time>
      </trkpt>
      <trkpt lat="52.109184" lon="4.430491">
        <ele>3800.0</ele>
        <time>2020-09-21T14:06:48Z</time>
      </trkpt>
      <trkpt lat="52.10921" lon="4.430431">
        <ele>3800.0</ele>
        <time>2020-09-21T14:06:50Z</time>
      </trkpt>
      <trkpt lat="52.109234" lon="4.430372">
        <ele>3800.0</ele>
        <time>2020-09-21T14:06:50Z</time>
      </trkpt>
      <trkpt lat="52.109264" lon="4.430315">
        <ele>3800.0</ele>
        <time>2020-09-21T14:06:51Z</time>
      </trkpt>
      <trkpt lat="52.109295" lon="4.4302597">
        <ele>3800.0</ele>
        <time>2020-09-21T14:06:52Z</time>
      </trkpt>
      <trkpt lat="52.10932" lon="4.430206">
        <ele>3800.0</ele>
        <time>2020-09-21T14:06:53Z</time>
      </trkpt>
      <trkpt lat="52.10935" lon="4.4301515">
        <ele>3800.0</ele>
        <time>2020-09-21T14:06:54Z</time>
      </trkpt>
      <trkpt lat="52.10938" lon="4.430096">
        <ele>3800.0</ele>
        <time>2020-09-21T14:06:55Z</time>
      </trkpt>
      <trkpt lat="52.109406" lon="4.430041">
        <ele>3800.0</ele>
        <time>2020-09-21T14:06:56Z</time>
      </trkpt>
      <trkpt lat="52.109436" lon="4.429985">
        <ele>3800.0</ele>
        <time>2020-09-21T14:06:57Z</time>
      </trkpt>
      <trkpt lat="52.10946" lon="4.429931">
        <ele>3800.0</ele>
        <time>2020-09-21T14:06:58Z</time>
      </trkpt>
      <trkpt lat="52.10949" lon="4.4298787">
        <ele>3800.0</ele>
        <time>2020-09-21T14:07:00Z</time>
      </trkpt>
      <trkpt lat="52.109516" lon="4.42983">
        <ele>3800.0</ele>
        <time>2020-09-21T14:07:00Z</time>
      </trkpt>
      <trkpt lat="52.109547" lon="4.429782">
        <ele>3800.0</ele>
        <time>2020-09-21T14:07:01Z</time>
      </trkpt>
      <trkpt lat="52.109577" lon="4.4297314">
        <ele>3800.0</ele>
        <time>2020-09-21T14:07:02Z</time>
      </trkpt>
      <trkpt lat="52.109604" lon="4.4296837">
        <ele>3800.0</ele>
        <time>2020-09-21T14:07:03Z</time>
      </trkpt>
      <trkpt lat="52.109634" lon="4.429632">
        <ele>3800.0</ele>
        <time>2020-09-21T14:07:04Z</time>
      </trkpt>
      <trkpt lat="52.10966" lon="4.429582">
        <ele>3800.0</ele>
        <time>2020-09-21T14:07:05Z</time>
      </trkpt>
      <trkpt lat="52.109684" lon="4.4295335">
        <ele>3800.0</ele>
        <time>2020-09-21T14:07:06Z</time>
      </trkpt>
      <trkpt lat="52.10971" lon="4.4294853">
        <ele>3800.0</ele>
        <time>2020-09-21T14:07:07Z</time>
      </trkpt>
      <trkpt lat="52.109737" lon="4.4294415">
        <ele>3800.0</ele>
        <time>2020-09-21T14:07:08Z</time>
      </trkpt>
      <trkpt lat="52.109756" lon="4.4294024">
        <ele>3800.0</ele>
        <time>2020-09-21T14:07:09Z</time>
      </trkpt>
      <trkpt lat="52.10977" lon="4.429369">
        <ele>3800.0</ele>
        <time>2020-09-21T14:07:10Z</time>
      </trkpt>
      <trkpt lat="52.109783" lon="4.4293456">
        <ele>3800.0</ele>
        <time>2020-09-21T14:07:11Z</time>
      </trkpt>
      <trkpt lat="52.109795" lon="4.4293294">
        <ele>3800.0</ele>
        <time>2020-09-21T14:07:12Z</time>
      </trkpt>
      <trkpt lat="52.1098" lon="4.4293184">
        <ele>3800.0</ele>
        <time>2020-09-21T14:07:13Z</time>
      </trkpt>
      <trkpt lat="52.109802" lon="4.42931">
        <ele>3800.0</ele>
        <time>2020-09-21T14:07:14Z</time>
      </trkpt>
      <trkpt lat="52.10981" lon="4.429289">
        <ele>3800.0</ele>
        <time>2020-09-21T14:07:17Z</time>
      </trkpt>
      <trkpt lat="52.10981" lon="4.429289">
        <ele>3800.0</ele>
        <time>2020-09-21T14:07:18Z</time>
      </trkpt>
      <trkpt lat="52.109814" lon="4.429288">
        <ele>3800.0</ele>
        <time>2020-09-21T14:07:19Z</time>
      </trkpt>
      <trkpt lat="52.109814" lon="4.4292855">
        <ele>3800.0</ele>
        <time>2020-09-21T14:07:20Z</time>
      </trkpt>
      <trkpt lat="52.109818" lon="4.429283">
        <ele>3800.0</ele>
        <time>2020-09-21T14:07:22Z</time>
      </trkpt>
      <trkpt lat="52.109818" lon="4.4292827">
        <ele>3800.0</ele>
        <time>2020-09-21T14:07:22Z</time>
      </trkpt>
      <trkpt lat="52.109814" lon="4.4292827">
        <ele>3800.0</ele>
        <time>2020-09-21T14:07:23Z</time>
      </trkpt>
      <trkpt lat="52.10981" lon="4.4292817">
        <ele>3800.0</ele>
        <time>2020-09-21T14:07:24Z</time>
      </trkpt>
      <trkpt lat="52.109802" lon="4.429281">
        <ele>3800.0</ele>
        <time>2020-09-21T14:07:25Z</time>
      </trkpt>
      <trkpt lat="52.1098" lon="4.429284">
        <ele>3800.0</ele>
        <time>2020-09-21T14:07:26Z</time>
      </trkpt>
      <trkpt lat="52.109783" lon="4.4292903">
        <ele>3800.0</ele>
        <time>2020-09-21T14:07:43Z</time>
      </trkpt>
      <trkpt lat="52.109783" lon="4.4292903">
        <ele>3800.0</ele>
        <time>2020-09-21T14:07:44Z</time>
      </trkpt>
      <trkpt lat="52.10977" lon="4.429289">
        <ele>3800.0</ele>
        <time>2020-09-21T14:07:47Z</time>
      </trkpt>
      <trkpt lat="52.10977" lon="4.429289">
        <ele>3800.0</ele>
        <time>2020-09-21T14:07:50Z</time>
      </trkpt>
      <trkpt lat="52.10977" lon="4.429289">
        <ele>3800.0</ele>
        <time>2020-09-21T14:07:51Z</time>
      </trkpt>
      <trkpt lat="52.109768" lon="4.4292917">
        <ele>3800.0</ele>
        <time>2020-09-21T14:07:54Z</time>
      </trkpt>
      <trkpt lat="52.109764" lon="4.4292917">
        <ele>3800.0</ele>
        <time>2020-09-21T14:07:56Z</time>
      </trkpt>
      <trkpt lat="52.109764" lon="4.4292912">
        <ele>3800.0</ele>
        <time>2020-09-21T14:07:56Z</time>
      </trkpt>
      <trkpt lat="52.109764" lon="4.429291">
        <ele>3800.0</ele>
        <time>2020-09-21T14:07:57Z</time>
      </trkpt>
      <trkpt lat="52.109756" lon="4.4292903">
        <ele>3800.0</ele>
        <time>2020-09-21T14:07:59Z</time>
      </trkpt>
      <trkpt lat="52.10975" lon="4.429275">
        <ele>3800.0</ele>
        <time>2020-09-21T14:08:13Z</time>
      </trkpt>
      <trkpt lat="52.109753" lon="4.429273">
        <ele>3800.0</ele>
        <time>2020-09-21T14:08:14Z</time>
      </trkpt>
      <trkpt lat="52.10975" lon="4.4292593">
        <ele>3800.0</ele>
        <time>2020-09-21T14:08:15Z</time>
      </trkpt>
      <trkpt lat="52.109753" lon="4.4292336">
        <ele>3800.0</ele>
        <time>2020-09-21T14:08:16Z</time>
      </trkpt>
      <trkpt lat="52.109764" lon="4.4292">
        <ele>3800.0</ele>
        <time>2020-09-21T14:08:17Z</time>
      </trkpt>
      <trkpt lat="52.10978" lon="4.4291596">
        <ele>3800.0</ele>
        <time>2020-09-21T14:08:18Z</time>
      </trkpt>
      <trkpt lat="52.109795" lon="4.4291134">
        <ele>3800.0</ele>
        <time>2020-09-21T14:08:19Z</time>
      </trkpt>
      <trkpt lat="52.109818" lon="4.42906">
        <ele>3800.0</ele>
        <time>2020-09-21T14:08:20Z</time>
      </trkpt>
      <trkpt lat="52.109844" lon="4.429001">
        <ele>3800.0</ele>
        <time>2020-09-21T14:08:21Z</time>
      </trkpt>
      <trkpt lat="52.10988" lon="4.428939">
        <ele>3700.0</ele>
        <time>2020-09-21T14:08:22Z</time>
      </trkpt>
      <trkpt lat="52.109917" lon="4.428874">
        <ele>3700.0</ele>
        <time>2020-09-21T14:08:23Z</time>
      </trkpt>
      <trkpt lat="52.10995" lon="4.4288044">
        <ele>3700.0</ele>
        <time>2020-09-21T14:08:24Z</time>
      </trkpt>
      <trkpt lat="52.109993" lon="4.4287357">
        <ele>3700.0</ele>
        <time>2020-09-21T14:08:26Z</time>
      </trkpt>
      <trkpt lat="52.110027" lon="4.428671">
        <ele>3700.0</ele>
        <time>2020-09-21T14:08:26Z</time>
      </trkpt>
      <trkpt lat="52.11007" lon="4.4286103">
        <ele>3600.0</ele>
        <time>2020-09-21T14:08:27Z</time>
      </trkpt>
      <trkpt lat="52.110107" lon="4.428554">
        <ele>3600.0</ele>
        <time>2020-09-21T14:08:28Z</time>
      </trkpt>
      <trkpt lat="52.10986" lon="4.428397">
        <ele>3700.0</ele>
        <time>2020-09-21T14:08:34Z</time>
      </trkpt>
      <trkpt lat="52.109863" lon="4.428382">
        <ele>3700.0</ele>
        <time>2020-09-21T14:08:35Z</time>
      </trkpt>
      <trkpt lat="52.109875" lon="4.428364">
        <ele>3700.0</ele>
        <time>2020-09-21T14:08:37Z</time>
      </trkpt>
      <trkpt lat="52.10989" lon="4.4283257">
        <ele>3700.0</ele>
        <time>2020-09-21T14:08:37Z</time>
      </trkpt>
      <trkpt lat="52.109905" lon="4.428287">
        <ele>3700.0</ele>
        <time>2020-09-21T14:08:38Z</time>
      </trkpt>
      <trkpt lat="52.109905" lon="4.428248">
        <ele>3700.0</ele>
        <time>2020-09-21T14:08:39Z</time>
      </trkpt>
      <trkpt lat="52.109905" lon="4.428208">
        <ele>3700.0</ele>
        <time>2020-09-21T14:08:40Z</time>
      </trkpt>
      <trkpt lat="52.10989" lon="4.428171">
        <ele>3700.0</ele>
        <time>2020-09-21T14:08:41Z</time>
      </trkpt>
      <trkpt lat="52.10987" lon="4.428135">
        <ele>3700.0</ele>
        <time>2020-09-21T14:08:43Z</time>
      </trkpt>
      <trkpt lat="52.109844" lon="4.4281006">
        <ele>3700.0</ele>
        <time>2020-09-21T14:08:43Z</time>
      </trkpt>
      <trkpt lat="52.109818" lon="4.4280643">
        <ele>3700.0</ele>
        <time>2020-09-21T14:08:44Z</time>
      </trkpt>
      <trkpt lat="52.109787" lon="4.428027">
        <ele>3700.0</ele>
        <time>2020-09-21T14:08:45Z</time>
      </trkpt>
      <trkpt lat="52.109764" lon="4.427987">
        <ele>3700.0</ele>
        <time>2020-09-21T14:08:46Z</time>
      </trkpt>
      <trkpt lat="52.109734" lon="4.427948">
        <ele>3700.0</ele>
        <time>2020-09-21T14:08:47Z</time>
      </trkpt>
      <trkpt lat="52.1097" lon="4.42791">
        <ele>3700.0</ele>
        <time>2020-09-21T14:08:48Z</time>
      </trkpt>
      <trkpt lat="52.10967" lon="4.427872">
        <ele>3700.0</ele>
        <time>2020-09-21T14:08:49Z</time>
      </trkpt>
      <trkpt lat="52.10964" lon="4.427834">
        <ele>3700.0</ele>
        <time>2020-09-21T14:08:51Z</time>
      </trkpt>
      <trkpt lat="52.109604" lon="4.4277973">
        <ele>3700.0</ele>
        <time>2020-09-21T14:08:51Z</time>
      </trkpt>
      <trkpt lat="52.10957" lon="4.427759">
        <ele>3700.0</ele>
        <time>2020-09-21T14:08:52Z</time>
      </trkpt>
      <trkpt lat="52.10953" lon="4.4277205">
        <ele>3700.0</ele>
        <time>2020-09-21T14:08:53Z</time>
      </trkpt>
      <trkpt lat="52.109497" lon="4.4276805">
        <ele>3700.0</ele>
        <time>2020-09-21T14:08:54Z</time>
      </trkpt>
      <trkpt lat="52.10946" lon="4.4276404">
        <ele>3700.0</ele>
        <time>2020-09-21T14:08:55Z</time>
      </trkpt>
      <trkpt lat="52.10942" lon="4.4276013">
        <ele>3700.0</ele>
        <time>2020-09-21T14:08:56Z</time>
      </trkpt>
      <trkpt lat="52.10938" lon="4.4275627">
        <ele>3700.0</ele>
        <time>2020-09-21T14:08:57Z</time>
      </trkpt>
      <trkpt lat="52.109337" lon="4.4275274">
        <ele>3700.0</ele>
        <time>2020-09-21T14:08:58Z</time>
      </trkpt>
      <trkpt lat="52.109295" lon="4.4274955">
        <ele>3700.0</ele>
        <time>2020-09-21T14:08:59Z</time>
      </trkpt>
      <trkpt lat="52.109257" lon="4.4274664">
        <ele>3700.0</ele>
        <time>2020-09-21T14:09:00Z</time>
      </trkpt>
      <trkpt lat="52.109215" lon="4.4274344">
        <ele>3700.0</ele>
        <time>2020-09-21T14:09:01Z</time>
      </trkpt>
      <trkpt lat="52.10918" lon="4.427399">
        <ele>3700.0</ele>
        <time>2020-09-21T14:09:02Z</time>
      </trkpt>
      <trkpt lat="52.10914" lon="4.427362">
        <ele>3700.0</ele>
        <time>2020-09-21T14:09:03Z</time>
      </trkpt>
      <trkpt lat="52.109097" lon="4.4273224">
        <ele>3700.0</ele>
        <time>2020-09-21T14:09:04Z</time>
      </trkpt>
      <trkpt lat="52.109055" lon="4.4272814">
        <ele>3700.0</ele>
        <time>2020-09-21T14:09:05Z</time>
      </trkpt>
      <trkpt lat="52.10902" lon="4.427239">
        <ele>3800.0</ele>
        <time>2020-09-21T14:09:06Z</time>
      </trkpt>
      <trkpt lat="52.10898" lon="4.427197">
        <ele>3800.0</ele>
        <time>2020-09-21T14:09:07Z</time>
      </trkpt>
      <trkpt lat="52.108944" lon="4.427154">
        <ele>3800.0</ele>
        <time>2020-09-21T14:09:08Z</time>
      </trkpt>
      <trkpt lat="52.108913" lon="4.4271092">
        <ele>3800.0</ele>
        <time>2020-09-21T14:09:09Z</time>
      </trkpt>
      <trkpt lat="52.108875" lon="4.4270654">
        <ele>3800.0</ele>
        <time>2020-09-21T14:09:10Z</time>
      </trkpt>
      <trkpt lat="52.108845" lon="4.427023">
        <ele>3800.0</ele>
        <time>2020-09-21T14:09:11Z</time>
      </trkpt>
      <trkpt lat="52.10881" lon="4.4269834">
        <ele>3800.0</ele>
        <time>2020-09-21T14:09:12Z</time>
      </trkpt>
      <trkpt lat="52.108776" lon="4.426945">
        <ele>3800.0</ele>
        <time>2020-09-21T14:09:13Z</time>
      </trkpt>
      <trkpt lat="52.108746" lon="4.4269075">
        <ele>3800.0</ele>
        <time>2020-09-21T14:09:14Z</time>
      </trkpt>
      <trkpt lat="52.108707" lon="4.42687">
        <ele>3800.0</ele>
        <time>2020-09-21T14:09:15Z</time>
      </trkpt>
      <trkpt lat="52.10868" lon="4.42683">
        <ele>3800.0</ele>
        <time>2020-09-21T14:09:16Z</time>
      </trkpt>
      <trkpt lat="52.108658" lon="4.426786">
        <ele>3800.0</ele>
        <time>2020-09-21T14:09:17Z</time>
      </trkpt>
      <trkpt lat="52.10863" lon="4.4267397">
        <ele>3800.0</ele>
        <time>2020-09-21T14:09:18Z</time>
      </trkpt>
      <trkpt lat="52.108616" lon="4.426692">
        <ele>3800.0</ele>
        <time>2020-09-21T14:09:19Z</time>
      </trkpt>
      <trkpt lat="52.108604" lon="4.4266405">
        <ele>3800.0</ele>
        <time>2020-09-21T14:09:20Z</time>
      </trkpt>
      <trkpt lat="52.1086" lon="4.426585">
        <ele>3800.0</ele>
        <time>2020-09-21T14:09:21Z</time>
      </trkpt>
      <trkpt lat="52.1086" lon="4.426531">
        <ele>3800.0</ele>
        <time>2020-09-21T14:09:22Z</time>
      </trkpt>
      <trkpt lat="52.1086" lon="4.426479">
        <ele>3800.0</ele>
        <time>2020-09-21T14:09:23Z</time>
      </trkpt>
      <trkpt lat="52.1086" lon="4.426427">
        <ele>3800.0</ele>
        <time>2020-09-21T14:09:24Z</time>
      </trkpt>
      <trkpt lat="52.1086" lon="4.426377">
        <ele>3800.0</ele>
        <time>2020-09-21T14:09:25Z</time>
      </trkpt>
      <trkpt lat="52.108604" lon="4.426319">
        <ele>3800.0</ele>
        <time>2020-09-21T14:09:26Z</time>
      </trkpt>
      <trkpt lat="52.108604" lon="4.4262643">
        <ele>3800.0</ele>
        <time>2020-09-21T14:09:27Z</time>
      </trkpt>
      <trkpt lat="52.108616" lon="4.4262047">
        <ele>3800.0</ele>
        <time>2020-09-21T14:09:28Z</time>
      </trkpt>
      <trkpt lat="52.108627" lon="4.426148">
        <ele>3800.0</ele>
        <time>2020-09-21T14:09:29Z</time>
      </trkpt>
      <trkpt lat="52.108635" lon="4.426093">
        <ele>3800.0</ele>
        <time>2020-09-21T14:09:30Z</time>
      </trkpt>
      <trkpt lat="52.108646" lon="4.4260354">
        <ele>3800.0</ele>
        <time>2020-09-21T14:09:32Z</time>
      </trkpt>
      <trkpt lat="52.10865" lon="4.425977">
        <ele>3800.0</ele>
        <time>2020-09-21T14:09:32Z</time>
      </trkpt>
      <trkpt lat="52.10866" lon="4.425919">
        <ele>3800.0</ele>
        <time>2020-09-21T14:09:33Z</time>
      </trkpt>
      <trkpt lat="52.108673" lon="4.425858">
        <ele>3800.0</ele>
        <time>2020-09-21T14:09:34Z</time>
      </trkpt>
      <trkpt lat="52.10869" lon="4.4257975">
        <ele>3800.0</ele>
        <time>2020-09-21T14:09:35Z</time>
      </trkpt>
      <trkpt lat="52.108696" lon="4.425735">
        <ele>3800.0</ele>
        <time>2020-09-21T14:09:36Z</time>
      </trkpt>
      <trkpt lat="52.10871" lon="4.4256725">
        <ele>3800.0</ele>
        <time>2020-09-21T14:09:37Z</time>
      </trkpt>
      <trkpt lat="52.108734" lon="4.42561">
        <ele>3800.0</ele>
        <time>2020-09-21T14:09:38Z</time>
      </trkpt>
      <trkpt lat="52.108753" lon="4.425544">
        <ele>3800.0</ele>
        <time>2020-09-21T14:09:39Z</time>
      </trkpt>
      <trkpt lat="52.10878" lon="4.425476">
        <ele>3800.0</ele>
        <time>2020-09-21T14:09:40Z</time>
      </trkpt>
      <trkpt lat="52.108807" lon="4.425402">
        <ele>3800.0</ele>
        <time>2020-09-21T14:09:41Z</time>
      </trkpt>
      <trkpt lat="52.10883" lon="4.425334">
        <ele>3800.0</ele>
        <time>2020-09-21T14:09:42Z</time>
      </trkpt>
      <trkpt lat="52.108856" lon="4.4252667">
        <ele>3800.0</ele>
        <time>2020-09-21T14:09:43Z</time>
      </trkpt>
      <trkpt lat="52.108883" lon="4.4252005">
        <ele>3800.0</ele>
        <time>2020-09-21T14:09:44Z</time>
      </trkpt>
      <trkpt lat="52.108906" lon="4.4251394">
        <ele>3800.0</ele>
        <time>2020-09-21T14:09:45Z</time>
      </trkpt>
      <trkpt lat="52.108932" lon="4.4250827">
        <ele>3800.0</ele>
        <time>2020-09-21T14:09:46Z</time>
      </trkpt>
      <trkpt lat="52.108955" lon="4.4250298">
        <ele>3800.0</ele>
        <time>2020-09-21T14:09:47Z</time>
      </trkpt>
      <trkpt lat="52.108974" lon="4.4249845">
        <ele>3800.0</ele>
        <time>2020-09-21T14:09:48Z</time>
      </trkpt>
      <trkpt lat="52.10899" lon="4.424947">
        <ele>3800.0</ele>
        <time>2020-09-21T14:09:49Z</time>
      </trkpt>
      <trkpt lat="52.10901" lon="4.4249077">
        <ele>3800.0</ele>
        <time>2020-09-21T14:09:50Z</time>
      </trkpt>
      <trkpt lat="52.10903" lon="4.424864">
        <ele>3800.0</ele>
        <time>2020-09-21T14:09:51Z</time>
      </trkpt>
      <trkpt lat="52.10905" lon="4.4248166">
        <ele>3800.0</ele>
        <time>2020-09-21T14:09:52Z</time>
      </trkpt>
      <trkpt lat="52.109077" lon="4.424762">
        <ele>3800.0</ele>
        <time>2020-09-21T14:09:53Z</time>
      </trkpt>
      <trkpt lat="52.109108" lon="4.4247007">
        <ele>3800.0</ele>
        <time>2020-09-21T14:09:54Z</time>
      </trkpt>
      <trkpt lat="52.109135" lon="4.424641">
        <ele>3800.0</ele>
        <time>2020-09-21T14:09:55Z</time>
      </trkpt>
      <trkpt lat="52.109158" lon="4.424585">
        <ele>3800.0</ele>
        <time>2020-09-21T14:09:56Z</time>
      </trkpt>
      <trkpt lat="52.109184" lon="4.424529">
        <ele>3800.0</ele>
        <time>2020-09-21T14:09:57Z</time>
      </trkpt>
      <trkpt lat="52.109215" lon="4.42447">
        <ele>3800.0</ele>
        <time>2020-09-21T14:09:58Z</time>
      </trkpt>
      <trkpt lat="52.10924" lon="4.424413">
        <ele>3800.0</ele>
        <time>2020-09-21T14:10:00Z</time>
      </trkpt>
      <trkpt lat="52.10926" lon="4.4243627">
        <ele>3800.0</ele>
        <time>2020-09-21T14:10:00Z</time>
      </trkpt>
      <trkpt lat="52.10928" lon="4.424318">
        <ele>3800.0</ele>
        <time>2020-09-21T14:10:01Z</time>
      </trkpt>
      <trkpt lat="52.109303" lon="4.4242735">
        <ele>3800.0</ele>
        <time>2020-09-21T14:10:02Z</time>
      </trkpt>
      <trkpt lat="52.10932" lon="4.4242244">
        <ele>3800.0</ele>
        <time>2020-09-21T14:10:03Z</time>
      </trkpt>
      <trkpt lat="52.109344" lon="4.424178">
        <ele>3800.0</ele>
        <time>2020-09-21T14:10:04Z</time>
      </trkpt>
      <trkpt lat="52.109375" lon="4.424133">
        <ele>3800.0</ele>
        <time>2020-09-21T14:10:05Z</time>
      </trkpt>
      <trkpt lat="52.109406" lon="4.4240813">
        <ele>3800.0</ele>
        <time>2020-09-21T14:10:06Z</time>
      </trkpt>
      <trkpt lat="52.10944" lon="4.424022">
        <ele>3800.0</ele>
        <time>2020-09-21T14:10:07Z</time>
      </trkpt>
      <trkpt lat="52.109467" lon="4.423961">
        <ele>3800.0</ele>
        <time>2020-09-21T14:10:08Z</time>
      </trkpt>
      <trkpt lat="52.109497" lon="4.423896">
        <ele>3800.0</ele>
        <time>2020-09-21T14:10:09Z</time>
      </trkpt>
      <trkpt lat="52.109524" lon="4.4238276">
        <ele>3800.0</ele>
        <time>2020-09-21T14:10:10Z</time>
      </trkpt>
      <trkpt lat="52.109554" lon="4.4237556">
        <ele>3800.0</ele>
        <time>2020-09-21T14:10:11Z</time>
      </trkpt>
      <trkpt lat="52.109585" lon="4.4236827">
        <ele>3800.0</ele>
        <time>2020-09-21T14:10:12Z</time>
      </trkpt>
      <trkpt lat="52.109608" lon="4.4236054">
        <ele>3800.0</ele>
        <time>2020-09-21T14:10:13Z</time>
      </trkpt>
      <trkpt lat="52.10964" lon="4.423532">
        <ele>3800.0</ele>
        <time>2020-09-21T14:10:14Z</time>
      </trkpt>
      <trkpt lat="52.10967" lon="4.423462">
        <ele>3800.0</ele>
        <time>2020-09-21T14:10:15Z</time>
      </trkpt>
      <trkpt lat="52.1097" lon="4.423392">
        <ele>3800.0</ele>
        <time>2020-09-21T14:10:16Z</time>
      </trkpt>
      <trkpt lat="52.109737" lon="4.423315">
        <ele>3800.0</ele>
        <time>2020-09-21T14:10:17Z</time>
      </trkpt>
      <trkpt lat="52.109768" lon="4.423239">
        <ele>3800.0</ele>
        <time>2020-09-21T14:10:18Z</time>
      </trkpt>
      <trkpt lat="52.109802" lon="4.423165">
        <ele>3800.0</ele>
        <time>2020-09-21T14:10:19Z</time>
      </trkpt>
      <trkpt lat="52.109833" lon="4.423099">
        <ele>3800.0</ele>
        <time>2020-09-21T14:10:21Z</time>
      </trkpt>
      <trkpt lat="52.109863" lon="4.4230356">
        <ele>3800.0</ele>
        <time>2020-09-21T14:10:21Z</time>
      </trkpt>
      <trkpt lat="52.10989" lon="4.42298">
        <ele>3800.0</ele>
        <time>2020-09-21T14:10:22Z</time>
      </trkpt>
      <trkpt lat="52.10992" lon="4.4229283">
        <ele>3800.0</ele>
        <time>2020-09-21T14:10:23Z</time>
      </trkpt>
      <trkpt lat="52.109947" lon="4.4228787">
        <ele>3800.0</ele>
        <time>2020-09-21T14:10:24Z</time>
      </trkpt>
      <trkpt lat="52.109974" lon="4.422833">
        <ele>3800.0</ele>
        <time>2020-09-21T14:10:25Z</time>
      </trkpt>
      <trkpt lat="52.109993" lon="4.4227877">
        <ele>3800.0</ele>
        <time>2020-09-21T14:10:26Z</time>
      </trkpt>
      <trkpt lat="52.11002" lon="4.4227424">
        <ele>3800.0</ele>
        <time>2020-09-21T14:10:27Z</time>
      </trkpt>
      <trkpt lat="52.11004" lon="4.422693">
        <ele>3800.0</ele>
        <time>2020-09-21T14:10:28Z</time>
      </trkpt>
      <trkpt lat="52.110065" lon="4.4226375">
        <ele>3800.0</ele>
        <time>2020-09-21T14:10:29Z</time>
      </trkpt>
      <trkpt lat="52.11009" lon="4.4225774">
        <ele>3800.0</ele>
        <time>2020-09-21T14:10:31Z</time>
      </trkpt>
      <trkpt lat="52.110126" lon="4.4225106">
        <ele>3800.0</ele>
        <time>2020-09-21T14:10:31Z</time>
      </trkpt>
      <trkpt lat="52.110157" lon="4.422447">
        <ele>3800.0</ele>
        <time>2020-09-21T14:10:32Z</time>
      </trkpt>
      <trkpt lat="52.110184" lon="4.42238">
        <ele>3800.0</ele>
        <time>2020-09-21T14:10:33Z</time>
      </trkpt>
      <trkpt lat="52.110207" lon="4.4223175">
        <ele>3800.0</ele>
        <time>2020-09-21T14:10:34Z</time>
      </trkpt>
      <trkpt lat="52.110233" lon="4.4222517">
        <ele>3800.0</ele>
        <time>2020-09-21T14:10:35Z</time>
      </trkpt>
      <trkpt lat="52.11026" lon="4.422186">
        <ele>3800.0</ele>
        <time>2020-09-21T14:10:36Z</time>
      </trkpt>
      <trkpt lat="52.11029" lon="4.422123">
        <ele>3800.0</ele>
        <time>2020-09-21T14:10:37Z</time>
      </trkpt>
      <trkpt lat="52.110325" lon="4.4220705">
        <ele>3800.0</ele>
        <time>2020-09-21T14:10:38Z</time>
      </trkpt>
      <trkpt lat="52.110355" lon="4.42203">
        <ele>3800.0</ele>
        <time>2020-09-21T14:10:39Z</time>
      </trkpt>
      <trkpt lat="52.110386" lon="4.421994">
        <ele>3800.0</ele>
        <time>2020-09-21T14:10:40Z</time>
      </trkpt>
      <trkpt lat="52.110413" lon="4.4219594">
        <ele>3800.0</ele>
        <time>2020-09-21T14:10:41Z</time>
      </trkpt>
      <trkpt lat="52.110443" lon="4.421926">
        <ele>3800.0</ele>
        <time>2020-09-21T14:10:42Z</time>
      </trkpt>
      <trkpt lat="52.110474" lon="4.4218917">
        <ele>3800.0</ele>
        <time>2020-09-21T14:10:43Z</time>
      </trkpt>
      <trkpt lat="52.110504" lon="4.421855">
        <ele>3800.0</ele>
        <time>2020-09-21T14:10:44Z</time>
      </trkpt>
      <trkpt lat="52.11053" lon="4.4218163">
        <ele>3800.0</ele>
        <time>2020-09-21T14:10:45Z</time>
      </trkpt>
      <trkpt lat="52.11056" lon="4.4217753">
        <ele>3800.0</ele>
        <time>2020-09-21T14:10:46Z</time>
      </trkpt>
      <trkpt lat="52.110588" lon="4.4217267">
        <ele>3800.0</ele>
        <time>2020-09-21T14:10:47Z</time>
      </trkpt>
      <trkpt lat="52.11062" lon="4.421681">
        <ele>3800.0</ele>
        <time>2020-09-21T14:10:48Z</time>
      </trkpt>
      <trkpt lat="52.11064" lon="4.421639">
        <ele>3800.0</ele>
        <time>2020-09-21T14:10:49Z</time>
      </trkpt>
      <trkpt lat="52.110676" lon="4.4216003">
        <ele>3800.0</ele>
        <time>2020-09-21T14:10:50Z</time>
      </trkpt>
      <trkpt lat="52.1107" lon="4.4215617">
        <ele>3800.0</ele>
        <time>2020-09-21T14:10:51Z</time>
      </trkpt>
      <trkpt lat="52.11072" lon="4.4215217">
        <ele>3800.0</ele>
        <time>2020-09-21T14:10:53Z</time>
      </trkpt>
      <trkpt lat="52.110744" lon="4.4214854">
        <ele>3800.0</ele>
        <time>2020-09-21T14:10:53Z</time>
      </trkpt>
      <trkpt lat="52.110767" lon="4.421448">
        <ele>3800.0</ele>
        <time>2020-09-21T14:10:54Z</time>
      </trkpt>
      <trkpt lat="52.11079" lon="4.421407">
        <ele>3800.0</ele>
        <time>2020-09-21T14:10:55Z</time>
      </trkpt>
      <trkpt lat="52.110813" lon="4.4213653">
        <ele>3800.0</ele>
        <time>2020-09-21T14:10:56Z</time>
      </trkpt>
      <trkpt lat="52.11082" lon="4.4213243">
        <ele>3800.0</ele>
        <time>2020-09-21T14:10:57Z</time>
      </trkpt>
      <trkpt lat="52.110836" lon="4.4212813">
        <ele>3800.0</ele>
        <time>2020-09-21T14:10:58Z</time>
      </trkpt>
      <trkpt lat="52.11086" lon="4.421235">
        <ele>3800.0</ele>
        <time>2020-09-21T14:10:59Z</time>
      </trkpt>
      <trkpt lat="52.110874" lon="4.4211874">
        <ele>3800.0</ele>
        <time>2020-09-21T14:11:00Z</time>
      </trkpt>
      <trkpt lat="52.11089" lon="4.4211416">
        <ele>3800.0</ele>
        <time>2020-09-21T14:11:01Z</time>
      </trkpt>
      <trkpt lat="52.110905" lon="4.4210987">
        <ele>3800.0</ele>
        <time>2020-09-21T14:11:02Z</time>
      </trkpt>
      <trkpt lat="52.110916" lon="4.421064">
        <ele>3800.0</ele>
        <time>2020-09-21T14:11:03Z</time>
      </trkpt>
      <trkpt lat="52.11092" lon="4.4210343">
        <ele>3800.0</ele>
        <time>2020-09-21T14:11:04Z</time>
      </trkpt>
      <trkpt lat="52.11092" lon="4.421012">
        <ele>3800.0</ele>
        <time>2020-09-21T14:11:05Z</time>
      </trkpt>
      <trkpt lat="52.11092" lon="4.4209943">
        <ele>3800.0</ele>
        <time>2020-09-21T14:11:06Z</time>
      </trkpt>
      <trkpt lat="52.110924" lon="4.420978">
        <ele>3800.0</ele>
        <time>2020-09-21T14:11:07Z</time>
      </trkpt>
      <trkpt lat="52.110935" lon="4.4209666">
        <ele>3800.0</ele>
        <time>2020-09-21T14:11:08Z</time>
      </trkpt>
      <trkpt lat="52.110947" lon="4.4209585">
        <ele>3800.0</ele>
        <time>2020-09-21T14:11:09Z</time>
      </trkpt>
      <trkpt lat="52.110954" lon="4.420956">
        <ele>3800.0</ele>
        <time>2020-09-21T14:11:10Z</time>
      </trkpt>
      <trkpt lat="52.110966" lon="4.420955">
        <ele>3800.0</ele>
        <time>2020-09-21T14:11:11Z</time>
      </trkpt>
      <trkpt lat="52.11097" lon="4.4209566">
        <ele>3800.0</ele>
        <time>2020-09-21T14:11:12Z</time>
      </trkpt>
      <trkpt lat="52.110977" lon="4.420961">
        <ele>3800.0</ele>
        <time>2020-09-21T14:11:14Z</time>
      </trkpt>
      <trkpt lat="52.11098" lon="4.4209676">
        <ele>3800.0</ele>
        <time>2020-09-21T14:11:14Z</time>
      </trkpt>
      <trkpt lat="52.110985" lon="4.4209757">
        <ele>3800.0</ele>
        <time>2020-09-21T14:11:15Z</time>
      </trkpt>
      <trkpt lat="52.110996" lon="4.4209857">
        <ele>3800.0</ele>
        <time>2020-09-21T14:11:16Z</time>
      </trkpt>
      <trkpt lat="52.111008" lon="4.4209976">
        <ele>3800.0</ele>
        <time>2020-09-21T14:11:17Z</time>
      </trkpt>
      <trkpt lat="52.111015" lon="4.4210095">
        <ele>3800.0</ele>
        <time>2020-09-21T14:11:18Z</time>
      </trkpt>
      <trkpt lat="52.11103" lon="4.421023">
        <ele>3800.0</ele>
        <time>2020-09-21T14:11:19Z</time>
      </trkpt>
      <trkpt lat="52.111042" lon="4.4210377">
        <ele>3800.0</ele>
        <time>2020-09-21T14:11:20Z</time>
      </trkpt>
      <trkpt lat="52.111065" lon="4.4210486">
        <ele>3800.0</ele>
        <time>2020-09-21T14:11:21Z</time>
      </trkpt>
      <trkpt lat="52.111084" lon="4.4210577">
        <ele>3800.0</ele>
        <time>2020-09-21T14:11:22Z</time>
      </trkpt>
      <trkpt lat="52.111103" lon="4.4210687">
        <ele>3800.0</ele>
        <time>2020-09-21T14:11:23Z</time>
      </trkpt>
      <trkpt lat="52.111126" lon="4.4210863">
        <ele>3800.0</ele>
        <time>2020-09-21T14:11:25Z</time>
      </trkpt>
      <trkpt lat="52.11114" lon="4.4211063">
        <ele>3800.0</ele>
        <time>2020-09-21T14:11:25Z</time>
      </trkpt>
      <trkpt lat="52.111156" lon="4.4211326">
        <ele>3800.0</ele>
        <time>2020-09-21T14:11:26Z</time>
      </trkpt>
      <trkpt lat="52.11116" lon="4.421154">
        <ele>3800.0</ele>
        <time>2020-09-21T14:11:27Z</time>
      </trkpt>
      <trkpt lat="52.11117" lon="4.4211698">
        <ele>3800.0</ele>
        <time>2020-09-21T14:11:28Z</time>
      </trkpt>
      <trkpt lat="52.111176" lon="4.42118">
        <ele>3800.0</ele>
        <time>2020-09-21T14:11:29Z</time>
      </trkpt>
      <trkpt lat="52.111176" lon="4.4211836">
        <ele>3800.0</ele>
        <time>2020-09-21T14:11:30Z</time>
      </trkpt>
      <trkpt lat="52.11118" lon="4.4211864">
        <ele>3800.0</ele>
        <time>2020-09-21T14:11:31Z</time>
      </trkpt>
      <trkpt lat="52.111187" lon="4.4211893">
        <ele>3800.0</ele>
        <time>2020-09-21T14:11:32Z</time>
      </trkpt>
      <trkpt lat="52.11119" lon="4.4211926">
        <ele>3800.0</ele>
        <time>2020-09-21T14:11:33Z</time>
      </trkpt>
      <trkpt lat="52.111195" lon="4.421196">
        <ele>3800.0</ele>
        <time>2020-09-21T14:11:35Z</time>
      </trkpt>
      <trkpt lat="52.111206" lon="4.421197">
        <ele>3800.0</ele>
        <time>2020-09-21T14:11:35Z</time>
      </trkpt>
      <trkpt lat="52.111217" lon="4.4212">
        <ele>3800.0</ele>
        <time>2020-09-21T14:11:36Z</time>
      </trkpt>
      <trkpt lat="52.111225" lon="4.4212008">
        <ele>3800.0</ele>
        <time>2020-09-21T14:11:37Z</time>
      </trkpt>
      <trkpt lat="52.111225" lon="4.4212">
        <ele>3800.0</ele>
        <time>2020-09-21T14:11:38Z</time>
      </trkpt>
      <trkpt lat="52.111233" lon="4.4212">
        <ele>3800.0</ele>
        <time>2020-09-21T14:11:39Z</time>
      </trkpt>
      <trkpt lat="52.111233" lon="4.421198">
        <ele>3800.0</ele>
        <time>2020-09-21T14:11:40Z</time>
      </trkpt>
      <trkpt lat="52.111233" lon="4.421194">
        <ele>3800.0</ele>
        <time>2020-09-21T14:11:41Z</time>
      </trkpt>
      <trkpt lat="52.111233" lon="4.421191">
        <ele>3800.0</ele>
        <time>2020-09-21T14:11:42Z</time>
      </trkpt>
      <trkpt lat="52.111233" lon="4.4211884">
        <ele>3800.0</ele>
        <time>2020-09-21T14:11:43Z</time>
      </trkpt>
      <trkpt lat="52.111225" lon="4.4211864">
        <ele>3800.0</ele>
        <time>2020-09-21T14:11:44Z</time>
      </trkpt>
      <trkpt lat="52.111225" lon="4.4211855">
        <ele>3800.0</ele>
        <time>2020-09-21T14:11:45Z</time>
      </trkpt>
      <trkpt lat="52.11122" lon="4.4211845">
        <ele>3800.0</ele>
        <time>2020-09-21T14:11:46Z</time>
      </trkpt>
      <trkpt lat="52.11122" lon="4.4211836">
        <ele>3800.0</ele>
        <time>2020-09-21T14:11:47Z</time>
      </trkpt>
      <trkpt lat="52.11122" lon="4.4211783">
        <ele>3800.0</ele>
        <time>2020-09-21T14:11:48Z</time>
      </trkpt>
      <trkpt lat="52.111225" lon="4.421168">
        <ele>3800.0</ele>
        <time>2020-09-21T14:11:49Z</time>
      </trkpt>
      <trkpt lat="52.111225" lon="4.421155">
        <ele>3700.0</ele>
        <time>2020-09-21T14:11:50Z</time>
      </trkpt>
      <trkpt lat="52.111233" lon="4.421144">
        <ele>3700.0</ele>
        <time>2020-09-21T14:11:51Z</time>
      </trkpt>
      <trkpt lat="52.111237" lon="4.421138">
        <ele>3700.0</ele>
        <time>2020-09-21T14:11:53Z</time>
      </trkpt>
      <trkpt lat="52.11124" lon="4.421139">
        <ele>3700.0</ele>
        <time>2020-09-21T14:11:53Z</time>
      </trkpt>
      <trkpt lat="52.111248" lon="4.4211407">
        <ele>3700.0</ele>
        <time>2020-09-21T14:11:54Z</time>
      </trkpt>
      <trkpt lat="52.111248" lon="4.421143">
        <ele>3700.0</ele>
        <time>2020-09-21T14:11:55Z</time>
      </trkpt>
      <trkpt lat="52.111248" lon="4.421148">
        <ele>3700.0</ele>
        <time>2020-09-21T14:11:56Z</time>
      </trkpt>
      <trkpt lat="52.111248" lon="4.4211526">
        <ele>3700.0</ele>
        <time>2020-09-21T14:11:57Z</time>
      </trkpt>
      <trkpt lat="52.111248" lon="4.4211626">
        <ele>3700.0</ele>
        <time>2020-09-21T14:11:59Z</time>
      </trkpt>
      <trkpt lat="52.111248" lon="4.421163">
        <ele>3700.0</ele>
        <time>2020-09-21T14:12:00Z</time>
      </trkpt>
      <trkpt lat="52.111248" lon="4.4211617">
        <ele>3700.0</ele>
        <time>2020-09-21T14:12:01Z</time>
      </trkpt>
      <trkpt lat="52.11125" lon="4.421158">
        <ele>3700.0</ele>
        <time>2020-09-21T14:12:02Z</time>
      </trkpt>
      <trkpt lat="52.11125" lon="4.421151">
        <ele>3700.0</ele>
        <time>2020-09-21T14:12:06Z</time>
      </trkpt>
      <trkpt lat="52.111248" lon="4.4211516">
        <ele>3700.0</ele>
        <time>2020-09-21T14:12:07Z</time>
      </trkpt>
      <trkpt lat="52.111248" lon="4.421156">
        <ele>3700.0</ele>
        <time>2020-09-21T14:12:08Z</time>
      </trkpt>
      <trkpt lat="52.111248" lon="4.42116">
        <ele>3700.0</ele>
        <time>2020-09-21T14:12:09Z</time>
      </trkpt>
      <trkpt lat="52.111248" lon="4.421164">
        <ele>3700.0</ele>
        <time>2020-09-21T14:12:10Z</time>
      </trkpt>
      <trkpt lat="52.11124" lon="4.4211683">
        <ele>3700.0</ele>
        <time>2020-09-21T14:12:11Z</time>
      </trkpt>
      <trkpt lat="52.11124" lon="4.4211726">
        <ele>3700.0</ele>
        <time>2020-09-21T14:12:19Z</time>
      </trkpt>
      <trkpt lat="52.11124" lon="4.421166">
        <ele>3700.0</ele>
        <time>2020-09-21T14:12:26Z</time>
      </trkpt>
      <trkpt lat="52.11124" lon="4.421161">
        <ele>3700.0</ele>
        <time>2020-09-21T14:12:27Z</time>
      </trkpt>
      <trkpt lat="52.111248" lon="4.421152">
        <ele>3700.0</ele>
        <time>2020-09-21T14:12:28Z</time>
      </trkpt>
      <trkpt lat="52.111248" lon="4.4211426">
        <ele>3700.0</ele>
        <time>2020-09-21T14:12:29Z</time>
      </trkpt>
      <trkpt lat="52.111248" lon="4.4211316">
        <ele>3700.0</ele>
        <time>2020-09-21T14:12:31Z</time>
      </trkpt>
      <trkpt lat="52.11124" lon="4.421119">
        <ele>3700.0</ele>
        <time>2020-09-21T14:12:31Z</time>
      </trkpt>
      <trkpt lat="52.111237" lon="4.4211063">
        <ele>3700.0</ele>
        <time>2020-09-21T14:12:32Z</time>
      </trkpt>
      <trkpt lat="52.111233" lon="4.4210925">
        <ele>3700.0</ele>
        <time>2020-09-21T14:12:33Z</time>
      </trkpt>
      <trkpt lat="52.11122" lon="4.4210763">
        <ele>3700.0</ele>
        <time>2020-09-21T14:12:34Z</time>
      </trkpt>
      <trkpt lat="52.111217" lon="4.4210596">
        <ele>3700.0</ele>
        <time>2020-09-21T14:12:35Z</time>
      </trkpt>
      <trkpt lat="52.111217" lon="4.4210424">
        <ele>3700.0</ele>
        <time>2020-09-21T14:12:36Z</time>
      </trkpt>
      <trkpt lat="52.111206" lon="4.4210277">
        <ele>3700.0</ele>
        <time>2020-09-21T14:12:37Z</time>
      </trkpt>
      <trkpt lat="52.111202" lon="4.4210153">
        <ele>3700.0</ele>
        <time>2020-09-21T14:12:38Z</time>
      </trkpt>
      <trkpt lat="52.11119" lon="4.4210043">
        <ele>3700.0</ele>
        <time>2020-09-21T14:12:39Z</time>
      </trkpt>
      <trkpt lat="52.11118" lon="4.420993">
        <ele>3700.0</ele>
        <time>2020-09-21T14:12:40Z</time>
      </trkpt>
      <trkpt lat="52.111164" lon="4.42098">
        <ele>3700.0</ele>
        <time>2020-09-21T14:12:41Z</time>
      </trkpt>
      <trkpt lat="52.111156" lon="4.4209666">
        <ele>3700.0</ele>
        <time>2020-09-21T14:12:42Z</time>
      </trkpt>
      <trkpt lat="52.111145" lon="4.4209547">
        <ele>3700.0</ele>
        <time>2020-09-21T14:12:43Z</time>
      </trkpt>
      <trkpt lat="52.111134" lon="4.4209423">
        <ele>3700.0</ele>
        <time>2020-09-21T14:12:44Z</time>
      </trkpt>
      <trkpt lat="52.111126" lon="4.420927">
        <ele>3700.0</ele>
        <time>2020-09-21T14:12:45Z</time>
      </trkpt>
      <trkpt lat="52.11112" lon="4.420909">
        <ele>3700.0</ele>
        <time>2020-09-21T14:12:46Z</time>
      </trkpt>
      <trkpt lat="52.11111" lon="4.4208903">
        <ele>3700.0</ele>
        <time>2020-09-21T14:12:47Z</time>
      </trkpt>
      <trkpt lat="52.111103" lon="4.4208713">
        <ele>3700.0</ele>
        <time>2020-09-21T14:12:49Z</time>
      </trkpt>
      <trkpt lat="52.111103" lon="4.4208536">
        <ele>3700.0</ele>
        <time>2020-09-21T14:12:49Z</time>
      </trkpt>
      <trkpt lat="52.1111" lon="4.420835">
        <ele>3700.0</ele>
        <time>2020-09-21T14:12:50Z</time>
      </trkpt>
      <trkpt lat="52.111095" lon="4.4208183">
        <ele>3700.0</ele>
        <time>2020-09-21T14:12:51Z</time>
      </trkpt>
      <trkpt lat="52.111088" lon="4.420801">
        <ele>3700.0</ele>
        <time>2020-09-21T14:12:52Z</time>
      </trkpt>
      <trkpt lat="52.111084" lon="4.420786">
        <ele>3700.0</ele>
        <time>2020-09-21T14:12:53Z</time>
      </trkpt>
      <trkpt lat="52.11108" lon="4.4207706">
        <ele>3700.0</ele>
        <time>2020-09-21T14:12:54Z</time>
      </trkpt>
      <trkpt lat="52.11107" lon="4.420756">
        <ele>3700.0</ele>
        <time>2020-09-21T14:12:55Z</time>
      </trkpt>
      <trkpt lat="52.111065" lon="4.4207425">
        <ele>3700.0</ele>
        <time>2020-09-21T14:12:56Z</time>
      </trkpt>
      <trkpt lat="52.111057" lon="4.420731">
        <ele>3700.0</ele>
        <time>2020-09-21T14:12:57Z</time>
      </trkpt>
      <trkpt lat="52.111053" lon="4.420718">
        <ele>3700.0</ele>
        <time>2020-09-21T14:12:59Z</time>
      </trkpt>
      <trkpt lat="52.111053" lon="4.420705">
        <ele>3700.0</ele>
        <time>2020-09-21T14:12:59Z</time>
      </trkpt>
      <trkpt lat="52.111046" lon="4.42069">
        <ele>3700.0</ele>
        <time>2020-09-21T14:13:00Z</time>
      </trkpt>
      <trkpt lat="52.111046" lon="4.420674">
        <ele>3700.0</ele>
        <time>2020-09-21T14:13:01Z</time>
      </trkpt>
      <trkpt lat="52.111046" lon="4.4206576">
        <ele>3700.0</ele>
        <time>2020-09-21T14:13:02Z</time>
      </trkpt>
      <trkpt lat="52.111046" lon="4.420644">
        <ele>3700.0</ele>
        <time>2020-09-21T14:13:03Z</time>
      </trkpt>
      <trkpt lat="52.111046" lon="4.420632">
        <ele>3700.0</ele>
        <time>2020-09-21T14:13:04Z</time>
      </trkpt>
      <trkpt lat="52.111053" lon="4.420618">
        <ele>3700.0</ele>
        <time>2020-09-21T14:13:05Z</time>
      </trkpt>
      <trkpt lat="52.111057" lon="4.4206047">
        <ele>3700.0</ele>
        <time>2020-09-21T14:13:06Z</time>
      </trkpt>
      <trkpt lat="52.111057" lon="4.4205885">
        <ele>3700.0</ele>
        <time>2020-09-21T14:13:07Z</time>
      </trkpt>
      <trkpt lat="52.111065" lon="4.4205694">
        <ele>3700.0</ele>
        <time>2020-09-21T14:13:08Z</time>
      </trkpt>
      <trkpt lat="52.111057" lon="4.4205484">
        <ele>3700.0</ele>
        <time>2020-09-21T14:13:10Z</time>
      </trkpt>
      <trkpt lat="52.111057" lon="4.420527">
        <ele>3700.0</ele>
        <time>2020-09-21T14:13:10Z</time>
      </trkpt>
      <trkpt lat="52.111057" lon="4.420505">
        <ele>3700.0</ele>
        <time>2020-09-21T14:13:11Z</time>
      </trkpt>
      <trkpt lat="52.111057" lon="4.4204865">
        <ele>3700.0</ele>
        <time>2020-09-21T14:13:12Z</time>
      </trkpt>
      <trkpt lat="52.111057" lon="4.420468">
        <ele>3700.0</ele>
        <time>2020-09-21T14:13:13Z</time>
      </trkpt>
      <trkpt lat="52.111053" lon="4.4204497">
        <ele>3700.0</ele>
        <time>2020-09-21T14:13:14Z</time>
      </trkpt>
      <trkpt lat="52.111053" lon="4.420433">
        <ele>3700.0</ele>
        <time>2020-09-21T14:13:15Z</time>
      </trkpt>
      <trkpt lat="52.111046" lon="4.420417">
        <ele>3700.0</ele>
        <time>2020-09-21T14:13:16Z</time>
      </trkpt>
      <trkpt lat="52.111046" lon="4.420401">
        <ele>3700.0</ele>
        <time>2020-09-21T14:13:17Z</time>
      </trkpt>
      <trkpt lat="52.111053" lon="4.4203844">
        <ele>3700.0</ele>
        <time>2020-09-21T14:13:18Z</time>
      </trkpt>
      <trkpt lat="52.111053" lon="4.4203663">
        <ele>3700.0</ele>
        <time>2020-09-21T14:13:20Z</time>
      </trkpt>
      <trkpt lat="52.111053" lon="4.4203467">
        <ele>3700.0</ele>
        <time>2020-09-21T14:13:20Z</time>
      </trkpt>
      <trkpt lat="52.111046" lon="4.420327">
        <ele>3700.0</ele>
        <time>2020-09-21T14:13:21Z</time>
      </trkpt>
      <trkpt lat="52.111042" lon="4.4203053">
        <ele>3700.0</ele>
        <time>2020-09-21T14:13:22Z</time>
      </trkpt>
      <trkpt lat="52.111042" lon="4.4202843">
        <ele>3700.0</ele>
        <time>2020-09-21T14:13:23Z</time>
      </trkpt>
      <trkpt lat="52.11104" lon="4.420264">
        <ele>3700.0</ele>
        <time>2020-09-21T14:13:24Z</time>
      </trkpt>
      <trkpt lat="52.11103" lon="4.4202375">
        <ele>3700.0</ele>
        <time>2020-09-21T14:13:25Z</time>
      </trkpt>
      <trkpt lat="52.11103" lon="4.4202085">
        <ele>3700.0</ele>
        <time>2020-09-21T14:13:26Z</time>
      </trkpt>
      <trkpt lat="52.111027" lon="4.420182">
        <ele>3800.0</ele>
        <time>2020-09-21T14:13:27Z</time>
      </trkpt>
      <trkpt lat="52.111027" lon="4.4201574">
        <ele>3800.0</ele>
        <time>2020-09-21T14:13:28Z</time>
      </trkpt>
      <trkpt lat="52.111023" lon="4.4201345">
        <ele>3800.0</ele>
        <time>2020-09-21T14:13:29Z</time>
      </trkpt>
      <trkpt lat="52.111027" lon="4.4201164">
        <ele>3800.0</ele>
        <time>2020-09-21T14:13:30Z</time>
      </trkpt>
      <trkpt lat="52.111027" lon="4.4201007">
        <ele>3800.0</ele>
        <time>2020-09-21T14:13:31Z</time>
      </trkpt>
      <trkpt lat="52.11103" lon="4.420087">
        <ele>3800.0</ele>
        <time>2020-09-21T14:13:32Z</time>
      </trkpt>
      <trkpt lat="52.11103" lon="4.4200716">
        <ele>3800.0</ele>
        <time>2020-09-21T14:13:33Z</time>
      </trkpt>
      <trkpt lat="52.11104" lon="4.420056">
        <ele>3800.0</ele>
        <time>2020-09-21T14:13:34Z</time>
      </trkpt>
      <trkpt lat="52.111042" lon="4.4200377">
        <ele>3800.0</ele>
        <time>2020-09-21T14:13:35Z</time>
      </trkpt>
      <trkpt lat="52.111046" lon="4.4200196">
        <ele>3800.0</ele>
        <time>2020-09-21T14:13:36Z</time>
      </trkpt>
      <trkpt lat="52.111053" lon="4.4200015">
        <ele>3800.0</ele>
        <time>2020-09-21T14:13:37Z</time>
      </trkpt>
      <trkpt lat="52.111057" lon="4.419987">
        <ele>3800.0</ele>
        <time>2020-09-21T14:13:38Z</time>
      </trkpt>
      <trkpt lat="52.111065" lon="4.419974">
        <ele>3800.0</ele>
        <time>2020-09-21T14:13:39Z</time>
      </trkpt>
      <trkpt lat="52.111073" lon="4.4199634">
        <ele>3800.0</ele>
        <time>2020-09-21T14:13:40Z</time>
      </trkpt>
      <trkpt lat="52.11108" lon="4.4199533">
        <ele>3800.0</ele>
        <time>2020-09-21T14:13:41Z</time>
      </trkpt>
      <trkpt lat="52.111084" lon="4.419939">
        <ele>3800.0</ele>
        <time>2020-09-21T14:13:42Z</time>
      </trkpt>
      <trkpt lat="52.111095" lon="4.4199204">
        <ele>3800.0</ele>
        <time>2020-09-21T14:13:43Z</time>
      </trkpt>
      <trkpt lat="52.1111" lon="4.4199023">
        <ele>3800.0</ele>
        <time>2020-09-21T14:13:44Z</time>
      </trkpt>
      <trkpt lat="52.111103" lon="4.4198875">
        <ele>3800.0</ele>
        <time>2020-09-21T14:13:46Z</time>
      </trkpt>
      <trkpt lat="52.11111" lon="4.4198723">
        <ele>3800.0</ele>
        <time>2020-09-21T14:13:46Z</time>
      </trkpt>
      <trkpt lat="52.111115" lon="4.4198565">
        <ele>3800.0</ele>
        <time>2020-09-21T14:13:47Z</time>
      </trkpt>
      <trkpt lat="52.11112" lon="4.419839">
        <ele>3800.0</ele>
        <time>2020-09-21T14:13:48Z</time>
      </trkpt>
      <trkpt lat="52.111126" lon="4.4198213">
        <ele>3800.0</ele>
        <time>2020-09-21T14:13:49Z</time>
      </trkpt>
      <trkpt lat="52.111126" lon="4.419802">
        <ele>3800.0</ele>
        <time>2020-09-21T14:13:50Z</time>
      </trkpt>
      <trkpt lat="52.11113" lon="4.419783">
        <ele>3800.0</ele>
        <time>2020-09-21T14:13:51Z</time>
      </trkpt>
      <trkpt lat="52.11113" lon="4.419766">
        <ele>3800.0</ele>
        <time>2020-09-21T14:13:52Z</time>
      </trkpt>
      <trkpt lat="52.111134" lon="4.4197507">
        <ele>3800.0</ele>
        <time>2020-09-21T14:13:53Z</time>
      </trkpt>
      <trkpt lat="52.111134" lon="4.419736">
        <ele>3800.0</ele>
        <time>2020-09-21T14:13:54Z</time>
      </trkpt>
      <trkpt lat="52.11114" lon="4.419719">
        <ele>3800.0</ele>
        <time>2020-09-21T14:13:55Z</time>
      </trkpt>
      <trkpt lat="52.11114" lon="4.4197025">
        <ele>3800.0</ele>
        <time>2020-09-21T14:13:56Z</time>
      </trkpt>
      <trkpt lat="52.11114" lon="4.4196873">
        <ele>3800.0</ele>
        <time>2020-09-21T14:13:57Z</time>
      </trkpt>
      <trkpt lat="52.11114" lon="4.419673">
        <ele>3800.0</ele>
        <time>2020-09-21T14:13:58Z</time>
      </trkpt>
      <trkpt lat="52.11114" lon="4.4196596">
        <ele>3800.0</ele>
        <time>2020-09-21T14:13:59Z</time>
      </trkpt>
      <trkpt lat="52.111145" lon="4.4196463">
        <ele>3800.0</ele>
        <time>2020-09-21T14:14:01Z</time>
      </trkpt>
      <trkpt lat="52.11115" lon="4.4196334">
        <ele>3800.0</ele>
        <time>2020-09-21T14:14:01Z</time>
      </trkpt>
      <trkpt lat="52.11116" lon="4.41962">
        <ele>3800.0</ele>
        <time>2020-09-21T14:14:02Z</time>
      </trkpt>
      <trkpt lat="52.11117" lon="4.419606">
        <ele>3800.0</ele>
        <time>2020-09-21T14:14:03Z</time>
      </trkpt>
      <trkpt lat="52.111176" lon="4.419594">
        <ele>3800.0</ele>
        <time>2020-09-21T14:14:04Z</time>
      </trkpt>
      <trkpt lat="52.11118" lon="4.4195795">
        <ele>3800.0</ele>
        <time>2020-09-21T14:14:05Z</time>
      </trkpt>
      <trkpt lat="52.111187" lon="4.4195657">
        <ele>3800.0</ele>
        <time>2020-09-21T14:14:07Z</time>
      </trkpt>
      <trkpt lat="52.11119" lon="4.419552">
        <ele>3800.0</ele>
        <time>2020-09-21T14:14:07Z</time>
      </trkpt>
      <trkpt lat="52.11119" lon="4.419536">
        <ele>3800.0</ele>
        <time>2020-09-21T14:14:08Z</time>
      </trkpt>
      <trkpt lat="52.111195" lon="4.4195194">
        <ele>3800.0</ele>
        <time>2020-09-21T14:14:09Z</time>
      </trkpt>
      <trkpt lat="52.111195" lon="4.4195013">
        <ele>3800.0</ele>
        <time>2020-09-21T14:14:10Z</time>
      </trkpt>
      <trkpt lat="52.111195" lon="4.419483">
        <ele>3800.0</ele>
        <time>2020-09-21T14:14:11Z</time>
      </trkpt>
      <trkpt lat="52.111202" lon="4.419465">
        <ele>3800.0</ele>
        <time>2020-09-21T14:14:13Z</time>
      </trkpt>
      <trkpt lat="52.112835" lon="4.4314084">
        <ele>-300.0</ele>
        <time>2020-09-21T14:41:20Z</time>
      </trkpt>
      <trkpt lat="52.11284" lon="4.4314117">
        <ele>-300.0</ele>
        <time>2020-09-21T14:41:21Z</time>
      </trkpt>
      <trkpt lat="52.11284" lon="4.4314146">
        <ele>-300.0</ele>
        <time>2020-09-21T14:41:22Z</time>
      </trkpt>
      <trkpt lat="52.11284" lon="4.4314146">
        <ele>-300.0</ele>
        <time>2020-09-21T14:41:23Z</time>
      </trkpt>
      <trkpt lat="52.112846" lon="4.4314146">
        <ele>-300.0</ele>
        <time>2020-09-21T14:41:24Z</time>
      </trkpt>
      <trkpt lat="52.112846" lon="4.431422">
        <ele>-300.0</ele>
        <time>2020-09-21T14:41:25Z</time>
      </trkpt>
      <trkpt lat="52.112854" lon="4.4314313">
        <ele>-300.0</ele>
        <time>2020-09-21T14:41:26Z</time>
      </trkpt>
      <trkpt lat="52.112865" lon="4.431442">
        <ele>-300.0</ele>
        <time>2020-09-21T14:41:27Z</time>
      </trkpt>
      <trkpt lat="52.11288" lon="4.4314547">
        <ele>-300.0</ele>
        <time>2020-09-21T14:41:28Z</time>
      </trkpt>
      <trkpt lat="52.112896" lon="4.4314723">
        <ele>-300.0</ele>
        <time>2020-09-21T14:41:29Z</time>
      </trkpt>
      <trkpt lat="52.112915" lon="4.4314923">
        <ele>-300.0</ele>
        <time>2020-09-21T14:41:30Z</time>
      </trkpt>
      <trkpt lat="52.11294" lon="4.4315157">
        <ele>-300.0</ele>
        <time>2020-09-21T14:41:31Z</time>
      </trkpt>
      <trkpt lat="52.11297" lon="4.4315443">
        <ele>-300.0</ele>
        <time>2020-09-21T14:41:32Z</time>
      </trkpt>
      <trkpt lat="52.113" lon="4.43158">
        <ele>-300.0</ele>
        <time>2020-09-21T14:41:33Z</time>
      </trkpt>
      <trkpt lat="52.113026" lon="4.431618">
        <ele>-300.0</ele>
        <time>2020-09-21T14:41:34Z</time>
      </trkpt>
      <trkpt lat="52.11305" lon="4.4316554">
        <ele>-300.0</ele>
        <time>2020-09-21T14:41:35Z</time>
      </trkpt>
      <trkpt lat="52.113075" lon="4.4316945">
        <ele>-300.0</ele>
        <time>2020-09-21T14:41:36Z</time>
      </trkpt>
      <trkpt lat="52.113102" lon="4.4317336">
        <ele>-300.0</ele>
        <time>2020-09-21T14:41:37Z</time>
      </trkpt>
      <trkpt lat="52.113125" lon="4.431774">
        <ele>-300.0</ele>
        <time>2020-09-21T14:41:38Z</time>
      </trkpt>
      <trkpt lat="52.113155" lon="4.431817">
        <ele>-300.0</ele>
        <time>2020-09-21T14:41:39Z</time>
      </trkpt>
      <trkpt lat="52.11319" lon="4.431857">
        <ele>-300.0</ele>
        <time>2020-09-21T14:41:40Z</time>
      </trkpt>
      <trkpt lat="52.113224" lon="4.431895">
        <ele>-300.0</ele>
        <time>2020-09-21T14:41:41Z</time>
      </trkpt>
      <trkpt lat="52.113266" lon="4.431932">
        <ele>-300.0</ele>
        <time>2020-09-21T14:41:42Z</time>
      </trkpt>
      <trkpt lat="52.1133" lon="4.4319673">
        <ele>-300.0</ele>
        <time>2020-09-21T14:41:43Z</time>
      </trkpt>
      <trkpt lat="52.113342" lon="4.4320045">
        <ele>-300.0</ele>
        <time>2020-09-21T14:41:44Z</time>
      </trkpt>
      <trkpt lat="52.113377" lon="4.432042">
        <ele>-300.0</ele>
        <time>2020-09-21T14:41:45Z</time>
      </trkpt>
      <trkpt lat="52.113415" lon="4.4320817">
        <ele>-300.0</ele>
        <time>2020-09-21T14:41:46Z</time>
      </trkpt>
      <trkpt lat="52.113453" lon="4.43212">
        <ele>-300.0</ele>
        <time>2020-09-21T14:41:47Z</time>
      </trkpt>
      <trkpt lat="52.11349" lon="4.432158">
        <ele>-300.0</ele>
        <time>2020-09-21T14:41:48Z</time>
      </trkpt>
      <trkpt lat="52.113525" lon="4.4322004">
        <ele>-300.0</ele>
        <time>2020-09-21T14:41:49Z</time>
      </trkpt>
      <trkpt lat="52.11356" lon="4.432243">
        <ele>-300.0</ele>
        <time>2020-09-21T14:41:50Z</time>
      </trkpt>
      <trkpt lat="52.113598" lon="4.4322853">
        <ele>-300.0</ele>
        <time>2020-09-21T14:41:51Z</time>
      </trkpt>
      <trkpt lat="52.113632" lon="4.4323244">
        <ele>-300.0</ele>
        <time>2020-09-21T14:41:52Z</time>
      </trkpt>
      <trkpt lat="52.113674" lon="4.432363">
        <ele>-300.0</ele>
        <time>2020-09-21T14:41:53Z</time>
      </trkpt>
      <trkpt lat="52.113705" lon="4.432402">
        <ele>-300.0</ele>
        <time>2020-09-21T14:41:54Z</time>
      </trkpt>
      <trkpt lat="52.113735" lon="4.432444">
        <ele>-300.0</ele>
        <time>2020-09-21T14:41:55Z</time>
      </trkpt>
      <trkpt lat="52.113766" lon="4.4324927">
        <ele>-300.0</ele>
        <time>2020-09-21T14:41:56Z</time>
      </trkpt>
      <trkpt lat="52.113796" lon="4.432541">
        <ele>-300.0</ele>
        <time>2020-09-21T14:41:57Z</time>
      </trkpt>
      <trkpt lat="52.113827" lon="4.432589">
        <ele>-300.0</ele>
        <time>2020-09-21T14:41:58Z</time>
      </trkpt>
      <trkpt lat="52.113857" lon="4.432636">
        <ele>-300.0</ele>
        <time>2020-09-21T14:41:59Z</time>
      </trkpt>
      <trkpt lat="52.113888" lon="4.4326825">
        <ele>-300.0</ele>
        <time>2020-09-21T14:42:00Z</time>
      </trkpt>
      <trkpt lat="52.11392" lon="4.432731">
        <ele>-300.0</ele>
        <time>2020-09-21T14:42:01Z</time>
      </trkpt>
      <trkpt lat="52.113956" lon="4.432785">
        <ele>-300.0</ele>
        <time>2020-09-21T14:42:02Z</time>
      </trkpt>
      <trkpt lat="52.11399" lon="4.432835">
        <ele>-300.0</ele>
        <time>2020-09-21T14:42:03Z</time>
      </trkpt>
      <trkpt lat="52.114033" lon="4.4328794">
        <ele>-300.0</ele>
        <time>2020-09-21T14:42:04Z</time>
      </trkpt>
      <trkpt lat="52.114067" lon="4.4329195">
        <ele>-300.0</ele>
        <time>2020-09-21T14:42:05Z</time>
      </trkpt>
      <trkpt lat="52.114105" lon="4.4329586">
        <ele>-300.0</ele>
        <time>2020-09-21T14:42:06Z</time>
      </trkpt>
      <trkpt lat="52.114136" lon="4.432995">
        <ele>-300.0</ele>
        <time>2020-09-21T14:42:07Z</time>
      </trkpt>
      <trkpt lat="52.11417" lon="4.433036">
        <ele>-300.0</ele>
        <time>2020-09-21T14:42:08Z</time>
      </trkpt>
      <trkpt lat="52.1142" lon="4.43308">
        <ele>-300.0</ele>
        <time>2020-09-21T14:42:09Z</time>
      </trkpt>
      <trkpt lat="52.11424" lon="4.4331203">
        <ele>-300.0</ele>
        <time>2020-09-21T14:42:10Z</time>
      </trkpt>
      <trkpt lat="52.114273" lon="4.4331584">
        <ele>-300.0</ele>
        <time>2020-09-21T14:42:11Z</time>
      </trkpt>
      <trkpt lat="52.114307" lon="4.433199">
        <ele>-300.0</ele>
        <time>2020-09-21T14:42:12Z</time>
      </trkpt>
      <trkpt lat="52.114346" lon="4.4332366">
        <ele>-300.0</ele>
        <time>2020-09-21T14:42:13Z</time>
      </trkpt>
      <trkpt lat="52.114388" lon="4.433272">
        <ele>-300.0</ele>
        <time>2020-09-21T14:42:14Z</time>
      </trkpt>
      <trkpt lat="52.114426" lon="4.4333057">
        <ele>-300.0</ele>
        <time>2020-09-21T14:42:15Z</time>
      </trkpt>
      <trkpt lat="52.114464" lon="4.43334">
        <ele>-300.0</ele>
        <time>2020-09-21T14:42:16Z</time>
      </trkpt>
      <trkpt lat="52.114605" lon="4.4334764">
        <ele>-300.0</ele>
        <time>2020-09-21T14:42:18Z</time>
      </trkpt>
      <trkpt lat="52.114613" lon="4.4334817">
        <ele>-300.0</ele>
        <time>2020-09-21T14:42:19Z</time>
      </trkpt>
      <trkpt lat="52.114628" lon="4.433496">
        <ele>-300.0</ele>
        <time>2020-09-21T14:42:20Z</time>
      </trkpt>
      <trkpt lat="52.114647" lon="4.4335184">
        <ele>-300.0</ele>
        <time>2020-09-21T14:42:21Z</time>
      </trkpt>
      <trkpt lat="52.114674" lon="4.4335427">
        <ele>-300.0</ele>
        <time>2020-09-21T14:42:22Z</time>
      </trkpt>
      <trkpt lat="52.114697" lon="4.4335737">
        <ele>-300.0</ele>
        <time>2020-09-21T14:42:23Z</time>
      </trkpt>
      <trkpt lat="52.11473" lon="4.433605">
        <ele>-300.0</ele>
        <time>2020-09-21T14:42:24Z</time>
      </trkpt>
      <trkpt lat="52.11476" lon="4.433637">
        <ele>-300.0</ele>
        <time>2020-09-21T14:42:25Z</time>
      </trkpt>
      <trkpt lat="52.11479" lon="4.43367">
        <ele>-300.0</ele>
        <time>2020-09-21T14:42:26Z</time>
      </trkpt>
      <trkpt lat="52.114822" lon="4.433702">
        <ele>-300.0</ele>
        <time>2020-09-21T14:42:27Z</time>
      </trkpt>
      <trkpt lat="52.114853" lon="4.433735">
        <ele>-300.0</ele>
        <time>2020-09-21T14:42:28Z</time>
      </trkpt>
      <trkpt lat="52.114872" lon="4.433768">
        <ele>-300.0</ele>
        <time>2020-09-21T14:42:29Z</time>
      </trkpt>
      <trkpt lat="52.11489" lon="4.4338007">
        <ele>-300.0</ele>
        <time>2020-09-21T14:42:30Z</time>
      </trkpt>
      <trkpt lat="52.114902" lon="4.4338374">
        <ele>-300.0</ele>
        <time>2020-09-21T14:42:31Z</time>
      </trkpt>
      <trkpt lat="52.114914" lon="4.433879">
        <ele>-300.0</ele>
        <time>2020-09-21T14:42:32Z</time>
      </trkpt>
      <trkpt lat="52.114918" lon="4.4339256">
        <ele>-300.0</ele>
        <time>2020-09-21T14:42:33Z</time>
      </trkpt>
      <trkpt lat="52.114925" lon="4.433976">
        <ele>-300.0</ele>
        <time>2020-09-21T14:42:34Z</time>
      </trkpt>
      <trkpt lat="52.11493" lon="4.4340267">
        <ele>-300.0</ele>
        <time>2020-09-21T14:42:35Z</time>
      </trkpt>
      <trkpt lat="52.114933" lon="4.434072">
        <ele>-300.0</ele>
        <time>2020-09-21T14:42:36Z</time>
      </trkpt>
      <trkpt lat="52.11495" lon="4.4341145">
        <ele>-300.0</ele>
        <time>2020-09-21T14:42:37Z</time>
      </trkpt>
      <trkpt lat="52.114964" lon="4.434156">
        <ele>-300.0</ele>
        <time>2020-09-21T14:42:38Z</time>
      </trkpt>
      <trkpt lat="52.11499" lon="4.434195">
        <ele>-300.0</ele>
        <time>2020-09-21T14:42:39Z</time>
      </trkpt>
      <trkpt lat="52.115017" lon="4.4342303">
        <ele>-300.0</ele>
        <time>2020-09-21T14:42:40Z</time>
      </trkpt>
      <trkpt lat="52.11505" lon="4.434263">
        <ele>-300.0</ele>
        <time>2020-09-21T14:42:41Z</time>
      </trkpt>
      <trkpt lat="52.11508" lon="4.4342947">
        <ele>-300.0</ele>
        <time>2020-09-21T14:42:42Z</time>
      </trkpt>
      <trkpt lat="52.11512" lon="4.4343266">
        <ele>-300.0</ele>
        <time>2020-09-21T14:42:43Z</time>
      </trkpt>
      <trkpt lat="52.11515" lon="4.4343586">
        <ele>-300.0</ele>
        <time>2020-09-21T14:42:44Z</time>
      </trkpt>
      <trkpt lat="52.11518" lon="4.4343905">
        <ele>-300.0</ele>
        <time>2020-09-21T14:42:45Z</time>
      </trkpt>
      <trkpt lat="52.115215" lon="4.434423">
        <ele>-300.0</ele>
        <time>2020-09-21T14:42:46Z</time>
      </trkpt>
      <trkpt lat="52.115257" lon="4.434457">
        <ele>-300.0</ele>
        <time>2020-09-21T14:42:47Z</time>
      </trkpt>
      <trkpt lat="52.115295" lon="4.4344916">
        <ele>-300.0</ele>
        <time>2020-09-21T14:42:48Z</time>
      </trkpt>
      <trkpt lat="52.115337" lon="4.4345317">
        <ele>-300.0</ele>
        <time>2020-09-21T14:42:49Z</time>
      </trkpt>
      <trkpt lat="52.11538" lon="4.4345717">
        <ele>-300.0</ele>
        <time>2020-09-21T14:42:50Z</time>
      </trkpt>
      <trkpt lat="52.115414" lon="4.434613">
        <ele>-300.0</ele>
        <time>2020-09-21T14:42:51Z</time>
      </trkpt>
      <trkpt lat="52.115456" lon="4.4346538">
        <ele>-300.0</ele>
        <time>2020-09-21T14:42:52Z</time>
      </trkpt>
      <trkpt lat="52.115498" lon="4.4346952">
        <ele>-300.0</ele>
        <time>2020-09-21T14:42:53Z</time>
      </trkpt>
      <trkpt lat="52.115532" lon="4.434732">
        <ele>-300.0</ele>
        <time>2020-09-21T14:42:54Z</time>
      </trkpt>
      <trkpt lat="52.11557" lon="4.4347677">
        <ele>-300.0</ele>
        <time>2020-09-21T14:42:55Z</time>
      </trkpt>
      <trkpt lat="52.1156" lon="4.4348025">
        <ele>-300.0</ele>
        <time>2020-09-21T14:42:56Z</time>
      </trkpt>
      <trkpt lat="52.115635" lon="4.4348383">
        <ele>-300.0</ele>
        <time>2020-09-21T14:42:57Z</time>
      </trkpt>
      <trkpt lat="52.11567" lon="4.4348726">
        <ele>-300.0</ele>
        <time>2020-09-21T14:42:58Z</time>
      </trkpt>
      <trkpt lat="52.115803" lon="4.4350066">
        <ele>-300.0</ele>
        <time>2020-09-21T14:43:00Z</time>
      </trkpt>
      <trkpt lat="52.11581" lon="4.4350133">
        <ele>-300.0</ele>
        <time>2020-09-21T14:43:01Z</time>
      </trkpt>
      <trkpt lat="52.11583" lon="4.435029">
        <ele>-300.0</ele>
        <time>2020-09-21T14:43:02Z</time>
      </trkpt>
      <trkpt lat="52.11585" lon="4.4350524">
        <ele>-300.0</ele>
        <time>2020-09-21T14:43:03Z</time>
      </trkpt>
      <trkpt lat="52.11588" lon="4.4350815">
        <ele>-300.0</ele>
        <time>2020-09-21T14:43:04Z</time>
      </trkpt>
      <trkpt lat="52.115917" lon="4.4351096">
        <ele>-300.0</ele>
        <time>2020-09-21T14:43:05Z</time>
      </trkpt>
      <trkpt lat="52.11595" lon="4.4351377">
        <ele>-300.0</ele>
        <time>2020-09-21T14:43:06Z</time>
      </trkpt>
      <trkpt lat="52.115982" lon="4.4351697">
        <ele>-300.0</ele>
        <time>2020-09-21T14:43:07Z</time>
      </trkpt>
      <trkpt lat="52.11602" lon="4.435203">
        <ele>-300.0</ele>
        <time>2020-09-21T14:43:08Z</time>
      </trkpt>
      <trkpt lat="52.11605" lon="4.4352417">
        <ele>-300.0</ele>
        <time>2020-09-21T14:43:09Z</time>
      </trkpt>
      <trkpt lat="52.116093" lon="4.4352803">
        <ele>-300.0</ele>
        <time>2020-09-21T14:43:10Z</time>
      </trkpt>
      <trkpt lat="52.11613" lon="4.4353185">
        <ele>-300.0</ele>
        <time>2020-09-21T14:43:11Z</time>
      </trkpt>
      <trkpt lat="52.116173" lon="4.435357">
        <ele>-300.0</ele>
        <time>2020-09-21T14:43:12Z</time>
      </trkpt>
      <trkpt lat="52.116215" lon="4.4353957">
        <ele>-300.0</ele>
        <time>2020-09-21T14:43:13Z</time>
      </trkpt>
      <trkpt lat="52.11625" lon="4.4354353">
        <ele>-300.0</ele>
        <time>2020-09-21T14:43:14Z</time>
      </trkpt>
      <trkpt lat="52.116287" lon="4.4354744">
        <ele>-300.0</ele>
        <time>2020-09-21T14:43:15Z</time>
      </trkpt>
      <trkpt lat="52.116318" lon="4.4355097">
        <ele>-300.0</ele>
        <time>2020-09-21T14:43:16Z</time>
      </trkpt>
      <trkpt lat="52.116352" lon="4.4355464">
        <ele>-300.0</ele>
        <time>2020-09-21T14:43:17Z</time>
      </trkpt>
      <trkpt lat="52.116383" lon="4.4355836">
        <ele>-300.0</ele>
        <time>2020-09-21T14:43:18Z</time>
      </trkpt>
      <trkpt lat="52.116413" lon="4.4356203">
        <ele>-300.0</ele>
        <time>2020-09-21T14:43:19Z</time>
      </trkpt>
      <trkpt lat="52.116444" lon="4.4356546">
        <ele>-300.0</ele>
        <time>2020-09-21T14:43:20Z</time>
      </trkpt>
      <trkpt lat="52.11648" lon="4.4356875">
        <ele>-300.0</ele>
        <time>2020-09-21T14:43:21Z</time>
      </trkpt>
      <trkpt lat="52.116516" lon="4.435718">
        <ele>-300.0</ele>
        <time>2020-09-21T14:43:22Z</time>
      </trkpt>
      <trkpt lat="52.11655" lon="4.4357467">
        <ele>-300.0</ele>
        <time>2020-09-21T14:43:23Z</time>
      </trkpt>
      <trkpt lat="52.11659" lon="4.435775">
        <ele>-300.0</ele>
        <time>2020-09-21T14:43:24Z</time>
      </trkpt>
      <trkpt lat="52.11662" lon="4.435806">
        <ele>-300.0</ele>
        <time>2020-09-21T14:43:25Z</time>
      </trkpt>
      <trkpt lat="52.116653" lon="4.4358373">
        <ele>-300.0</ele>
        <time>2020-09-21T14:43:26Z</time>
      </trkpt>
      <trkpt lat="52.116684" lon="4.4358683">
        <ele>-300.0</ele>
        <time>2020-09-21T14:43:27Z</time>
      </trkpt>
      <trkpt lat="52.116714" lon="4.4359">
        <ele>-300.0</ele>
        <time>2020-09-21T14:43:28Z</time>
      </trkpt>
      <trkpt lat="52.116753" lon="4.435933">
        <ele>-300.0</ele>
        <time>2020-09-21T14:43:29Z</time>
      </trkpt>
      <trkpt lat="52.116783" lon="4.4359655">
        <ele>-300.0</ele>
        <time>2020-09-21T14:43:30Z</time>
      </trkpt>
      <trkpt lat="52.116817" lon="4.435999">
        <ele>-300.0</ele>
        <time>2020-09-21T14:43:31Z</time>
      </trkpt>
      <trkpt lat="52.116848" lon="4.436032">
        <ele>-300.0</ele>
        <time>2020-09-21T14:43:32Z</time>
      </trkpt>
      <trkpt lat="52.116886" lon="4.436069">
        <ele>-300.0</ele>
        <time>2020-09-21T14:43:33Z</time>
      </trkpt>
      <trkpt lat="52.116917" lon="4.436106">
        <ele>-300.0</ele>
        <time>2020-09-21T14:43:34Z</time>
      </trkpt>
      <trkpt lat="52.11695" lon="4.436143">
        <ele>-300.0</ele>
        <time>2020-09-21T14:43:35Z</time>
      </trkpt>
      <trkpt lat="52.11698" lon="4.436177">
        <ele>-300.0</ele>
        <time>2020-09-21T14:43:36Z</time>
      </trkpt>
      <trkpt lat="52.117012" lon="4.436211">
        <ele>-300.0</ele>
        <time>2020-09-21T14:43:37Z</time>
      </trkpt>
      <trkpt lat="52.117043" lon="4.436245">
        <ele>-300.0</ele>
        <time>2020-09-21T14:43:38Z</time>
      </trkpt>
      <trkpt lat="52.117073" lon="4.4362793">
        <ele>-300.0</ele>
        <time>2020-09-21T14:43:39Z</time>
      </trkpt>
      <trkpt lat="52.117104" lon="4.436313">
        <ele>-300.0</ele>
        <time>2020-09-21T14:43:40Z</time>
      </trkpt>
      <trkpt lat="52.117134" lon="4.4363484">
        <ele>-300.0</ele>
        <time>2020-09-21T14:43:41Z</time>
      </trkpt>
      <trkpt lat="52.117165" lon="4.436384">
        <ele>-300.0</ele>
        <time>2020-09-21T14:43:42Z</time>
      </trkpt>
      <trkpt lat="52.117203" lon="4.4364214">
        <ele>-300.0</ele>
        <time>2020-09-21T14:43:43Z</time>
      </trkpt>
      <trkpt lat="52.117237" lon="4.4364595">
        <ele>-300.0</ele>
        <time>2020-09-21T14:43:44Z</time>
      </trkpt>
      <trkpt lat="52.117268" lon="4.4364977">
        <ele>-300.0</ele>
        <time>2020-09-21T14:43:45Z</time>
      </trkpt>
      <trkpt lat="52.1173" lon="4.436537">
        <ele>-300.0</ele>
        <time>2020-09-21T14:43:46Z</time>
      </trkpt>
      <trkpt lat="52.117325" lon="4.436574">
        <ele>-300.0</ele>
        <time>2020-09-21T14:43:48Z</time>
      </trkpt>
      <trkpt lat="52.117355" lon="4.4366097">
        <ele>-300.0</ele>
        <time>2020-09-21T14:43:48Z</time>
      </trkpt>
      <trkpt lat="52.11739" lon="4.436646">
        <ele>-300.0</ele>
        <time>2020-09-21T14:43:49Z</time>
      </trkpt>
      <trkpt lat="52.11742" lon="4.43668">
        <ele>-300.0</ele>
        <time>2020-09-21T14:43:50Z</time>
      </trkpt>
      <trkpt lat="52.11746" lon="4.436713">
        <ele>-300.0</ele>
        <time>2020-09-21T14:43:51Z</time>
      </trkpt>
      <trkpt lat="52.11749" lon="4.436744">
        <ele>-300.0</ele>
        <time>2020-09-21T14:43:52Z</time>
      </trkpt>
      <trkpt lat="52.11752" lon="4.436776">
        <ele>-300.0</ele>
        <time>2020-09-21T14:43:53Z</time>
      </trkpt>
      <trkpt lat="52.117554" lon="4.4368095">
        <ele>-300.0</ele>
        <time>2020-09-21T14:43:54Z</time>
      </trkpt>
      <trkpt lat="52.117584" lon="4.4368443">
        <ele>-300.0</ele>
        <time>2020-09-21T14:43:55Z</time>
      </trkpt>
      <trkpt lat="52.117615" lon="4.43688">
        <ele>-300.0</ele>
        <time>2020-09-21T14:43:56Z</time>
      </trkpt>
      <trkpt lat="52.117653" lon="4.4369183">
        <ele>-300.0</ele>
        <time>2020-09-21T14:43:57Z</time>
      </trkpt>
      <trkpt lat="52.117683" lon="4.436954">
        <ele>-300.0</ele>
        <time>2020-09-21T14:43:58Z</time>
      </trkpt>
      <trkpt lat="52.117718" lon="4.4369884">
        <ele>-300.0</ele>
        <time>2020-09-21T14:43:59Z</time>
      </trkpt>
      <trkpt lat="52.11775" lon="4.4370246">
        <ele>-300.0</ele>
        <time>2020-09-21T14:44:00Z</time>
      </trkpt>
      <trkpt lat="52.117786" lon="4.4370627">
        <ele>-300.0</ele>
        <time>2020-09-21T14:44:01Z</time>
      </trkpt>
      <trkpt lat="52.117817" lon="4.4371033">
        <ele>-300.0</ele>
        <time>2020-09-21T14:44:02Z</time>
      </trkpt>
      <trkpt lat="52.117847" lon="4.4371424">
        <ele>-300.0</ele>
        <time>2020-09-21T14:44:03Z</time>
      </trkpt>
      <trkpt lat="52.117874" lon="4.437179">
        <ele>-300.0</ele>
        <time>2020-09-21T14:44:04Z</time>
      </trkpt>
      <trkpt lat="52.117905" lon="4.437215">
        <ele>-300.0</ele>
        <time>2020-09-21T14:44:05Z</time>
      </trkpt>
      <trkpt lat="52.117935" lon="4.437254">
        <ele>-300.0</ele>
        <time>2020-09-21T14:44:06Z</time>
      </trkpt>
      <trkpt lat="52.117966" lon="4.437296">
        <ele>-300.0</ele>
        <time>2020-09-21T14:44:07Z</time>
      </trkpt>
      <trkpt lat="52.117996" lon="4.4373364">
        <ele>-300.0</ele>
        <time>2020-09-21T14:44:08Z</time>
      </trkpt>
      <trkpt lat="52.118027" lon="4.4373765">
        <ele>-300.0</ele>
        <time>2020-09-21T14:44:09Z</time>
      </trkpt>
      <trkpt lat="52.118057" lon="4.437414">
        <ele>-300.0</ele>
        <time>2020-09-21T14:44:10Z</time>
      </trkpt>
      <trkpt lat="52.118088" lon="4.437451">
        <ele>-300.0</ele>
        <time>2020-09-21T14:44:11Z</time>
      </trkpt>
      <trkpt lat="52.118122" lon="4.4374914">
        <ele>-300.0</ele>
        <time>2020-09-21T14:44:12Z</time>
      </trkpt>
      <trkpt lat="52.118153" lon="4.437528">
        <ele>-300.0</ele>
        <time>2020-09-21T14:44:13Z</time>
      </trkpt>
      <trkpt lat="52.118183" lon="4.4375653">
        <ele>-300.0</ele>
        <time>2020-09-21T14:44:14Z</time>
      </trkpt>
      <trkpt lat="52.118217" lon="4.437602">
        <ele>-300.0</ele>
        <time>2020-09-21T14:44:15Z</time>
      </trkpt>
      <trkpt lat="52.11824" lon="4.437636">
        <ele>-300.0</ele>
        <time>2020-09-21T14:44:16Z</time>
      </trkpt>
      <trkpt lat="52.11827" lon="4.4376693">
        <ele>-300.0</ele>
        <time>2020-09-21T14:44:17Z</time>
      </trkpt>
      <trkpt lat="52.118298" lon="4.4377036">
        <ele>-300.0</ele>
        <time>2020-09-21T14:44:18Z</time>
      </trkpt>
      <trkpt lat="52.118317" lon="4.43774">
        <ele>-300.0</ele>
        <time>2020-09-21T14:44:19Z</time>
      </trkpt>
      <trkpt lat="52.11834" lon="4.4377785">
        <ele>-300.0</ele>
        <time>2020-09-21T14:44:20Z</time>
      </trkpt>
      <trkpt lat="52.11836" lon="4.437818">
        <ele>-300.0</ele>
        <time>2020-09-21T14:44:21Z</time>
      </trkpt>
      <trkpt lat="52.118374" lon="4.437857">
        <ele>-300.0</ele>
        <time>2020-09-21T14:44:22Z</time>
      </trkpt>
      <trkpt lat="52.118397" lon="4.4378953">
        <ele>-300.0</ele>
        <time>2020-09-21T14:44:23Z</time>
      </trkpt>
      <trkpt lat="52.118416" lon="4.4379315">
        <ele>-300.0</ele>
        <time>2020-09-21T14:44:24Z</time>
      </trkpt>
      <trkpt lat="52.118435" lon="4.437963">
        <ele>-300.0</ele>
        <time>2020-09-21T14:44:25Z</time>
      </trkpt>
      <trkpt lat="52.118458" lon="4.437989">
        <ele>-300.0</ele>
        <time>2020-09-21T14:44:26Z</time>
      </trkpt>
      <trkpt lat="52.118465" lon="4.4380107">
        <ele>-300.0</ele>
        <time>2020-09-21T14:44:27Z</time>
      </trkpt>
      <trkpt lat="52.118477" lon="4.4380274">
        <ele>-300.0</ele>
        <time>2020-09-21T14:44:28Z</time>
      </trkpt>
      <trkpt lat="52.11848" lon="4.43804">
        <ele>-300.0</ele>
        <time>2020-09-21T14:44:29Z</time>
      </trkpt>
      <trkpt lat="52.11849" lon="4.4380507">
        <ele>-300.0</ele>
        <time>2020-09-21T14:44:30Z</time>
      </trkpt>
      <trkpt lat="52.11848" lon="4.438061">
        <ele>-300.0</ele>
        <time>2020-09-21T14:44:31Z</time>
      </trkpt>
      <trkpt lat="52.11848" lon="4.43807">
        <ele>-300.0</ele>
        <time>2020-09-21T14:44:32Z</time>
      </trkpt>
      <trkpt lat="52.11848" lon="4.4380827">
        <ele>-300.0</ele>
        <time>2020-09-21T14:44:33Z</time>
      </trkpt>
      <trkpt lat="52.118477" lon="4.4380946">
        <ele>-300.0</ele>
        <time>2020-09-21T14:44:34Z</time>
      </trkpt>
      <trkpt lat="52.118477" lon="4.4381022">
        <ele>-300.0</ele>
        <time>2020-09-21T14:44:35Z</time>
      </trkpt>
      <trkpt lat="52.11848" lon="4.43811">
        <ele>-300.0</ele>
        <time>2020-09-21T14:44:36Z</time>
      </trkpt>
      <trkpt lat="52.11849" lon="4.438117">
        <ele>-300.0</ele>
        <time>2020-09-21T14:44:37Z</time>
      </trkpt>
      <trkpt lat="52.118496" lon="4.4381247">
        <ele>-300.0</ele>
        <time>2020-09-21T14:44:38Z</time>
      </trkpt>
      <trkpt lat="52.11851" lon="4.438134">
        <ele>-300.0</ele>
        <time>2020-09-21T14:44:39Z</time>
      </trkpt>
      <trkpt lat="52.118534" lon="4.438144">
        <ele>-300.0</ele>
        <time>2020-09-21T14:44:40Z</time>
      </trkpt>
      <trkpt lat="52.118553" lon="4.4381557">
        <ele>-300.0</ele>
        <time>2020-09-21T14:44:41Z</time>
      </trkpt>
      <trkpt lat="52.11858" lon="4.438167">
        <ele>-300.0</ele>
        <time>2020-09-21T14:44:42Z</time>
      </trkpt>
      <trkpt lat="52.118607" lon="4.438179">
        <ele>-300.0</ele>
        <time>2020-09-21T14:44:43Z</time>
      </trkpt>
      <trkpt lat="52.118637" lon="4.4381905">
        <ele>-300.0</ele>
        <time>2020-09-21T14:44:44Z</time>
      </trkpt>
      <trkpt lat="52.11867" lon="4.438205">
        <ele>-300.0</ele>
        <time>2020-09-21T14:44:45Z</time>
      </trkpt>
      <trkpt lat="52.118702" lon="4.438224">
        <ele>-300.0</ele>
        <time>2020-09-21T14:44:46Z</time>
      </trkpt>
      <trkpt lat="52.118736" lon="4.438251">
        <ele>-300.0</ele>
        <time>2020-09-21T14:44:47Z</time>
      </trkpt>
      <trkpt lat="52.118767" lon="4.438283">
        <ele>-300.0</ele>
        <time>2020-09-21T14:44:48Z</time>
      </trkpt>
      <trkpt lat="52.118805" lon="4.4383206">
        <ele>-300.0</ele>
        <time>2020-09-21T14:44:49Z</time>
      </trkpt>
      <trkpt lat="52.11884" lon="4.43836">
        <ele>-300.0</ele>
        <time>2020-09-21T14:44:50Z</time>
      </trkpt>
      <trkpt lat="52.11887" lon="4.4384">
        <ele>-300.0</ele>
        <time>2020-09-21T14:44:51Z</time>
      </trkpt>
      <trkpt lat="52.118908" lon="4.43844">
        <ele>-300.0</ele>
        <time>2020-09-21T14:44:52Z</time>
      </trkpt>
      <trkpt lat="52.11894" lon="4.438478">
        <ele>-300.0</ele>
        <time>2020-09-21T14:44:53Z</time>
      </trkpt>
      <trkpt lat="52.118973" lon="4.4385147">
        <ele>-300.0</ele>
        <time>2020-09-21T14:44:54Z</time>
      </trkpt>
      <trkpt lat="52.119003" lon="4.438551">
        <ele>-300.0</ele>
        <time>2020-09-21T14:44:55Z</time>
      </trkpt>
      <trkpt lat="52.11904" lon="4.438587">
        <ele>-300.0</ele>
        <time>2020-09-21T14:44:56Z</time>
      </trkpt>
      <trkpt lat="52.119072" lon="4.438625">
        <ele>-300.0</ele>
        <time>2020-09-21T14:44:57Z</time>
      </trkpt>
      <trkpt lat="52.119106" lon="4.4386597">
        <ele>-300.0</ele>
        <time>2020-09-21T14:44:58Z</time>
      </trkpt>
      <trkpt lat="52.119137" lon="4.438694">
        <ele>-200.0</ele>
        <time>2020-09-21T14:44:59Z</time>
      </trkpt>
      <trkpt lat="52.119175" lon="4.4387274">
        <ele>-200.0</ele>
        <time>2020-09-21T14:45:00Z</time>
      </trkpt>
      <trkpt lat="52.11921" lon="4.438759">
        <ele>-200.0</ele>
        <time>2020-09-21T14:45:01Z</time>
      </trkpt>
      <trkpt lat="52.119244" lon="4.438789">
        <ele>-200.0</ele>
        <time>2020-09-21T14:45:02Z</time>
      </trkpt>
      <trkpt lat="52.11928" lon="4.438819">
        <ele>-200.0</ele>
        <time>2020-09-21T14:45:03Z</time>
      </trkpt>
      <trkpt lat="52.11932" lon="4.4388537">
        <ele>-200.0</ele>
        <time>2020-09-21T14:45:04Z</time>
      </trkpt>
      <trkpt lat="52.119476" lon="4.4390073">
        <ele>-200.0</ele>
        <time>2020-09-21T14:45:06Z</time>
      </trkpt>
      <trkpt lat="52.119484" lon="4.439017">
        <ele>-200.0</ele>
        <time>2020-09-21T14:45:07Z</time>
      </trkpt>
      <trkpt lat="52.1195" lon="4.4390364">
        <ele>-200.0</ele>
        <time>2020-09-21T14:45:08Z</time>
      </trkpt>
      <trkpt lat="52.11953" lon="4.4390635">
        <ele>-200.0</ele>
        <time>2020-09-21T14:45:09Z</time>
      </trkpt>
      <trkpt lat="52.119564" lon="4.4390955">
        <ele>-200.0</ele>
        <time>2020-09-21T14:45:10Z</time>
      </trkpt>
      <trkpt lat="52.119587" lon="4.4391294">
        <ele>-200.0</ele>
        <time>2020-09-21T14:45:11Z</time>
      </trkpt>
      <trkpt lat="52.119614" lon="4.4391646">
        <ele>-200.0</ele>
        <time>2020-09-21T14:45:12Z</time>
      </trkpt>
      <trkpt lat="52.119644" lon="4.4392033">
        <ele>-200.0</ele>
        <time>2020-09-21T14:45:13Z</time>
      </trkpt>
      <trkpt lat="52.119663" lon="4.4392443">
        <ele>-200.0</ele>
        <time>2020-09-21T14:45:14Z</time>
      </trkpt>
      <trkpt lat="52.11969" lon="4.4392853">
        <ele>-200.0</ele>
        <time>2020-09-21T14:45:15Z</time>
      </trkpt>
      <trkpt lat="52.11971" lon="4.4393244">
        <ele>-200.0</ele>
        <time>2020-09-21T14:45:16Z</time>
      </trkpt>
      <trkpt lat="52.119743" lon="4.439363">
        <ele>-200.0</ele>
        <time>2020-09-21T14:45:17Z</time>
      </trkpt>
      <trkpt lat="52.119766" lon="4.4393992">
        <ele>-200.0</ele>
        <time>2020-09-21T14:45:18Z</time>
      </trkpt>
      <trkpt lat="52.119873" lon="4.4395304">
        <ele>-200.0</ele>
        <time>2020-09-21T14:45:20Z</time>
      </trkpt>
      <trkpt lat="52.11988" lon="4.439539">
        <ele>-200.0</ele>
        <time>2020-09-21T14:45:21Z</time>
      </trkpt>
      <trkpt lat="52.119896" lon="4.439558">
        <ele>-200.0</ele>
        <time>2020-09-21T14:45:22Z</time>
      </trkpt>
      <trkpt lat="52.119915" lon="4.439588">
        <ele>-200.0</ele>
        <time>2020-09-21T14:45:23Z</time>
      </trkpt>
      <trkpt lat="52.119946" lon="4.4396257">
        <ele>-200.0</ele>
        <time>2020-09-21T14:45:24Z</time>
      </trkpt>
      <trkpt lat="52.119984" lon="4.439672">
        <ele>-200.0</ele>
        <time>2020-09-21T14:45:25Z</time>
      </trkpt>
      <trkpt lat="52.120018" lon="4.439719">
        <ele>-200.0</ele>
        <time>2020-09-21T14:45:26Z</time>
      </trkpt>
      <trkpt lat="52.12005" lon="4.4397645">
        <ele>-200.0</ele>
        <time>2020-09-21T14:45:27Z</time>
      </trkpt>
      <trkpt lat="52.120083" lon="4.439808">
        <ele>-200.0</ele>
        <time>2020-09-21T14:45:28Z</time>
      </trkpt>
      <trkpt lat="52.12012" lon="4.4398503">
        <ele>-200.0</ele>
        <time>2020-09-21T14:45:29Z</time>
      </trkpt>
      <trkpt lat="52.120155" lon="4.439893">
        <ele>-200.0</ele>
        <time>2020-09-21T14:45:30Z</time>
      </trkpt>
      <trkpt lat="52.120193" lon="4.4399376">
        <ele>-200.0</ele>
        <time>2020-09-21T14:45:31Z</time>
      </trkpt>
      <trkpt lat="52.120228" lon="4.4399824">
        <ele>-200.0</ele>
        <time>2020-09-21T14:45:32Z</time>
      </trkpt>
      <trkpt lat="52.12027" lon="4.4400263">
        <ele>-200.0</ele>
        <time>2020-09-21T14:45:33Z</time>
      </trkpt>
      <trkpt lat="52.120308" lon="4.440067">
        <ele>-200.0</ele>
        <time>2020-09-21T14:45:33Z</time>
      </trkpt>
      <trkpt lat="52.12035" lon="4.440105">
        <ele>-200.0</ele>
        <time>2020-09-21T14:45:34Z</time>
      </trkpt>
      <trkpt lat="52.120388" lon="4.4401436">
        <ele>-200.0</ele>
        <time>2020-09-21T14:45:35Z</time>
      </trkpt>
      <trkpt lat="52.120426" lon="4.4401827">
        <ele>-200.0</ele>
        <time>2020-09-21T14:45:36Z</time>
      </trkpt>
      <trkpt lat="52.120464" lon="4.440223">
        <ele>-200.0</ele>
        <time>2020-09-21T14:45:37Z</time>
      </trkpt>
      <trkpt lat="52.1205" lon="4.4402614">
        <ele>-200.0</ele>
        <time>2020-09-21T14:45:38Z</time>
      </trkpt>
      <trkpt lat="52.120537" lon="4.440304">
        <ele>-200.0</ele>
        <time>2020-09-21T14:45:39Z</time>
      </trkpt>
      <trkpt lat="52.12056" lon="4.4403496">
        <ele>-200.0</ele>
        <time>2020-09-21T14:45:40Z</time>
      </trkpt>
      <trkpt lat="52.12059" lon="4.4403954">
        <ele>-200.0</ele>
        <time>2020-09-21T14:45:41Z</time>
      </trkpt>
      <trkpt lat="52.12062" lon="4.4404387">
        <ele>-200.0</ele>
        <time>2020-09-21T14:45:42Z</time>
      </trkpt>
      <trkpt lat="52.120647" lon="4.4404798">
        <ele>-200.0</ele>
        <time>2020-09-21T14:45:43Z</time>
      </trkpt>
      <trkpt lat="52.120674" lon="4.440518">
        <ele>-200.0</ele>
        <time>2020-09-21T14:45:44Z</time>
      </trkpt>
      <trkpt lat="52.120705" lon="4.440555">
        <ele>-200.0</ele>
        <time>2020-09-21T14:45:45Z</time>
      </trkpt>
      <trkpt lat="52.120735" lon="4.440589">
        <ele>-200.0</ele>
        <time>2020-09-21T14:45:46Z</time>
      </trkpt>
      <trkpt lat="52.12076" lon="4.4406214">
        <ele>-200.0</ele>
        <time>2020-09-21T14:45:47Z</time>
      </trkpt>
      <trkpt lat="52.120792" lon="4.4406543">
        <ele>-200.0</ele>
        <time>2020-09-21T14:45:48Z</time>
      </trkpt>
      <trkpt lat="52.120815" lon="4.440689">
        <ele>-200.0</ele>
        <time>2020-09-21T14:45:49Z</time>
      </trkpt>
      <trkpt lat="52.120846" lon="4.4407263">
        <ele>-200.0</ele>
        <time>2020-09-21T14:45:50Z</time>
      </trkpt>
      <trkpt lat="52.120876" lon="4.4407663">
        <ele>-200.0</ele>
        <time>2020-09-21T14:45:51Z</time>
      </trkpt>
      <trkpt lat="52.120914" lon="4.440807">
        <ele>-200.0</ele>
        <time>2020-09-21T14:45:52Z</time>
      </trkpt>
      <trkpt lat="52.120945" lon="4.4408464">
        <ele>-200.0</ele>
        <time>2020-09-21T14:45:53Z</time>
      </trkpt>
      <trkpt lat="52.120987" lon="4.440888">
        <ele>-200.0</ele>
        <time>2020-09-21T14:45:54Z</time>
      </trkpt>
      <trkpt lat="52.121033" lon="4.440936">
        <ele>-200.0</ele>
        <time>2020-09-21T14:45:55Z</time>
      </trkpt>
      <trkpt lat="52.12107" lon="4.4409823">
        <ele>-200.0</ele>
        <time>2020-09-21T14:45:56Z</time>
      </trkpt>
      <trkpt lat="52.121113" lon="4.4410276">
        <ele>-200.0</ele>
        <time>2020-09-21T14:45:57Z</time>
      </trkpt>
      <trkpt lat="52.121155" lon="4.4410706">
        <ele>-200.0</ele>
        <time>2020-09-21T14:45:58Z</time>
      </trkpt>
      <trkpt lat="52.121185" lon="4.4411144">
        <ele>-200.0</ele>
        <time>2020-09-21T14:45:59Z</time>
      </trkpt>
      <trkpt lat="52.12122" lon="4.4411607">
        <ele>-200.0</ele>
        <time>2020-09-21T14:46:00Z</time>
      </trkpt>
      <trkpt lat="52.12136" lon="4.441352">
        <ele>-200.0</ele>
        <time>2020-09-21T14:46:02Z</time>
      </trkpt>
      <trkpt lat="52.121365" lon="4.4413633">
        <ele>-200.0</ele>
        <time>2020-09-21T14:46:03Z</time>
      </trkpt>
      <trkpt lat="52.121384" lon="4.441386">
        <ele>-200.0</ele>
        <time>2020-09-21T14:46:04Z</time>
      </trkpt>
      <trkpt lat="52.12141" lon="4.4414186">
        <ele>-200.0</ele>
        <time>2020-09-21T14:46:05Z</time>
      </trkpt>
      <trkpt lat="52.121437" lon="4.4414563">
        <ele>-200.0</ele>
        <time>2020-09-21T14:46:06Z</time>
      </trkpt>
      <trkpt lat="52.121468" lon="4.441497">
        <ele>-200.0</ele>
        <time>2020-09-21T14:46:07Z</time>
      </trkpt>
      <trkpt lat="52.121502" lon="4.4415402">
        <ele>-200.0</ele>
        <time>2020-09-21T14:46:08Z</time>
      </trkpt>
      <trkpt lat="52.12154" lon="4.4415846">
        <ele>-200.0</ele>
        <time>2020-09-21T14:46:09Z</time>
      </trkpt>
      <trkpt lat="52.121574" lon="4.441627">
        <ele>-200.0</ele>
        <time>2020-09-21T14:46:10Z</time>
      </trkpt>
      <trkpt lat="52.121605" lon="4.4416704">
        <ele>-200.0</ele>
        <time>2020-09-21T14:46:11Z</time>
      </trkpt>
      <trkpt lat="52.121647" lon="4.441713">
        <ele>-200.0</ele>
        <time>2020-09-21T14:46:12Z</time>
      </trkpt>
      <trkpt lat="52.12168" lon="4.441754">
        <ele>-200.0</ele>
        <time>2020-09-21T14:46:13Z</time>
      </trkpt>
      <trkpt lat="52.12172" lon="4.4417953">
        <ele>-200.0</ele>
        <time>2020-09-21T14:46:14Z</time>
      </trkpt>
      <trkpt lat="52.121754" lon="4.4418344">
        <ele>-200.0</ele>
        <time>2020-09-21T14:46:15Z</time>
      </trkpt>
      <trkpt lat="52.121788" lon="4.441874">
        <ele>-200.0</ele>
        <time>2020-09-21T14:46:16Z</time>
      </trkpt>
      <trkpt lat="52.12182" lon="4.441915">
        <ele>-200.0</ele>
        <time>2020-09-21T14:46:17Z</time>
      </trkpt>
      <trkpt lat="52.12185" lon="4.441954">
        <ele>-200.0</ele>
        <time>2020-09-21T14:46:18Z</time>
      </trkpt>
      <trkpt lat="52.121876" lon="4.4419928">
        <ele>-200.0</ele>
        <time>2020-09-21T14:46:19Z</time>
      </trkpt>
      <trkpt lat="52.121906" lon="4.442032">
        <ele>-200.0</ele>
        <time>2020-09-21T14:46:20Z</time>
      </trkpt>
      <trkpt lat="52.121937" lon="4.442072">
        <ele>-200.0</ele>
        <time>2020-09-21T14:46:21Z</time>
      </trkpt>
      <trkpt lat="52.121975" lon="4.4421124">
        <ele>-200.0</ele>
        <time>2020-09-21T14:46:22Z</time>
      </trkpt>
      <trkpt lat="52.122005" lon="4.4421535">
        <ele>-200.0</ele>
        <time>2020-09-21T14:46:23Z</time>
      </trkpt>
      <trkpt lat="52.12204" lon="4.4421954">
        <ele>-200.0</ele>
        <time>2020-09-21T14:46:24Z</time>
      </trkpt>
      <trkpt lat="52.12207" lon="4.442236">
        <ele>-200.0</ele>
        <time>2020-09-21T14:46:25Z</time>
      </trkpt>
      <trkpt lat="52.12211" lon="4.442274">
        <ele>-200.0</ele>
        <time>2020-09-21T14:46:26Z</time>
      </trkpt>
      <trkpt lat="52.12214" lon="4.442312">
        <ele>-200.0</ele>
        <time>2020-09-21T14:46:27Z</time>
      </trkpt>
      <trkpt lat="52.122177" lon="4.442348">
        <ele>-200.0</ele>
        <time>2020-09-21T14:46:28Z</time>
      </trkpt>
      <trkpt lat="52.122223" lon="4.442385">
        <ele>-200.0</ele>
        <time>2020-09-21T14:46:29Z</time>
      </trkpt>
      <trkpt lat="52.122265" lon="4.4424214">
        <ele>-200.0</ele>
        <time>2020-09-21T14:46:30Z</time>
      </trkpt>
      <trkpt lat="52.122303" lon="4.442459">
        <ele>-200.0</ele>
        <time>2020-09-21T14:46:31Z</time>
      </trkpt>
      <trkpt lat="52.122337" lon="4.4424996">
        <ele>-200.0</ele>
        <time>2020-09-21T14:46:32Z</time>
      </trkpt>
      <trkpt lat="52.12237" lon="4.4425426">
        <ele>-200.0</ele>
        <time>2020-09-21T14:46:33Z</time>
      </trkpt>
      <trkpt lat="52.12241" lon="4.4425883">
        <ele>-200.0</ele>
        <time>2020-09-21T14:46:34Z</time>
      </trkpt>
      <trkpt lat="52.122444" lon="4.4426365">
        <ele>-200.0</ele>
        <time>2020-09-21T14:46:35Z</time>
      </trkpt>
      <trkpt lat="52.122482" lon="4.4426837">
        <ele>-200.0</ele>
        <time>2020-09-21T14:46:36Z</time>
      </trkpt>
      <trkpt lat="52.122513" lon="4.442727">
        <ele>-200.0</ele>
        <time>2020-09-21T14:46:37Z</time>
      </trkpt>
      <trkpt lat="52.122547" lon="4.442767">
        <ele>-200.0</ele>
        <time>2020-09-21T14:46:38Z</time>
      </trkpt>
      <trkpt lat="52.122578" lon="4.4428043">
        <ele>-200.0</ele>
        <time>2020-09-21T14:46:39Z</time>
      </trkpt>
      <trkpt lat="52.122604" lon="4.4428387">
        <ele>-200.0</ele>
        <time>2020-09-21T14:46:40Z</time>
      </trkpt>
      <trkpt lat="52.122627" lon="4.4428716">
        <ele>-200.0</ele>
        <time>2020-09-21T14:46:41Z</time>
      </trkpt>
      <trkpt lat="52.122654" lon="4.442903">
        <ele>-200.0</ele>
        <time>2020-09-21T14:46:42Z</time>
      </trkpt>
      <trkpt lat="52.12268" lon="4.4429326">
        <ele>-200.0</ele>
        <time>2020-09-21T14:46:43Z</time>
      </trkpt>
      <trkpt lat="52.122707" lon="4.4429607">
        <ele>-200.0</ele>
        <time>2020-09-21T14:46:44Z</time>
      </trkpt>
      <trkpt lat="52.122738" lon="4.4429893">
        <ele>-200.0</ele>
        <time>2020-09-21T14:46:45Z</time>
      </trkpt>
      <trkpt lat="52.12277" lon="4.4430203">
        <ele>-200.0</ele>
        <time>2020-09-21T14:46:46Z</time>
      </trkpt>
      <trkpt lat="52.12279" lon="4.4430556">
        <ele>-200.0</ele>
        <time>2020-09-21T14:46:47Z</time>
      </trkpt>
      <trkpt lat="52.12282" lon="4.4430914">
        <ele>-200.0</ele>
        <time>2020-09-21T14:46:48Z</time>
      </trkpt>
      <trkpt lat="52.122856" lon="4.4431267">
        <ele>-200.0</ele>
        <time>2020-09-21T14:46:49Z</time>
      </trkpt>
      <trkpt lat="52.122887" lon="4.443161">
        <ele>-200.0</ele>
        <time>2020-09-21T14:46:50Z</time>
      </trkpt>
      <trkpt lat="52.122917" lon="4.443197">
        <ele>-200.0</ele>
        <time>2020-09-21T14:46:51Z</time>
      </trkpt>
      <trkpt lat="52.12294" lon="4.4432335">
        <ele>-200.0</ele>
        <time>2020-09-21T14:46:52Z</time>
      </trkpt>
      <trkpt lat="52.122967" lon="4.4432726">
        <ele>-200.0</ele>
        <time>2020-09-21T14:46:53Z</time>
      </trkpt>
      <trkpt lat="52.122993" lon="4.443315">
        <ele>-200.0</ele>
        <time>2020-09-21T14:46:54Z</time>
      </trkpt>
      <trkpt lat="52.123013" lon="4.443361">
        <ele>-200.0</ele>
        <time>2020-09-21T14:46:55Z</time>
      </trkpt>
      <trkpt lat="52.123028" lon="4.443411">
        <ele>-200.0</ele>
        <time>2020-09-21T14:46:56Z</time>
      </trkpt>
      <trkpt lat="52.12304" lon="4.4434657">
        <ele>-200.0</ele>
        <time>2020-09-21T14:46:57Z</time>
      </trkpt>
      <trkpt lat="52.123035" lon="4.4435215">
        <ele>-200.0</ele>
        <time>2020-09-21T14:46:58Z</time>
      </trkpt>
      <trkpt lat="52.123024" lon="4.4435816">
        <ele>-200.0</ele>
        <time>2020-09-21T14:46:59Z</time>
      </trkpt>
      <trkpt lat="52.123013" lon="4.443644">
        <ele>-200.0</ele>
        <time>2020-09-21T14:47:00Z</time>
      </trkpt>
      <trkpt lat="52.122993" lon="4.443704">
        <ele>-200.0</ele>
        <time>2020-09-21T14:47:01Z</time>
      </trkpt>
      <trkpt lat="52.12297" lon="4.443762">
        <ele>-200.0</ele>
        <time>2020-09-21T14:47:02Z</time>
      </trkpt>
      <trkpt lat="52.122948" lon="4.443818">
        <ele>-200.0</ele>
        <time>2020-09-21T14:47:03Z</time>
      </trkpt>
      <trkpt lat="52.122925" lon="4.443875">
        <ele>-200.0</ele>
        <time>2020-09-21T14:47:04Z</time>
      </trkpt>
      <trkpt lat="52.122902" lon="4.4439325">
        <ele>-200.0</ele>
        <time>2020-09-21T14:47:05Z</time>
      </trkpt>
      <trkpt lat="52.122875" lon="4.4439917">
        <ele>-200.0</ele>
        <time>2020-09-21T14:47:06Z</time>
      </trkpt>
      <trkpt lat="52.122856" lon="4.4440517">
        <ele>-200.0</ele>
        <time>2020-09-21T14:47:07Z</time>
      </trkpt>
      <trkpt lat="52.12283" lon="4.444109">
        <ele>-200.0</ele>
        <time>2020-09-21T14:47:08Z</time>
      </trkpt>
      <trkpt lat="52.122803" lon="4.444165">
        <ele>-200.0</ele>
        <time>2020-09-21T14:47:09Z</time>
      </trkpt>
      <trkpt lat="52.122776" lon="4.444222">
        <ele>-200.0</ele>
        <time>2020-09-21T14:47:10Z</time>
      </trkpt>
      <trkpt lat="52.122753" lon="4.4442782">
        <ele>-200.0</ele>
        <time>2020-09-21T14:47:11Z</time>
      </trkpt>
      <trkpt lat="52.122726" lon="4.4443336">
        <ele>-200.0</ele>
        <time>2020-09-21T14:47:12Z</time>
      </trkpt>
      <trkpt lat="52.1227" lon="4.4443855">
        <ele>-200.0</ele>
        <time>2020-09-21T14:47:13Z</time>
      </trkpt>
      <trkpt lat="52.122677" lon="4.4444366">
        <ele>-200.0</ele>
        <time>2020-09-21T14:47:14Z</time>
      </trkpt>
      <trkpt lat="52.12265" lon="4.444487">
        <ele>-200.0</ele>
        <time>2020-09-21T14:47:15Z</time>
      </trkpt>
      <trkpt lat="52.122623" lon="4.4445353">
        <ele>-200.0</ele>
        <time>2020-09-21T14:47:16Z</time>
      </trkpt>
      <trkpt lat="52.122597" lon="4.444586">
        <ele>-200.0</ele>
        <time>2020-09-21T14:47:17Z</time>
      </trkpt>
      <trkpt lat="52.122566" lon="4.4446383">
        <ele>-200.0</ele>
        <time>2020-09-21T14:47:18Z</time>
      </trkpt>
      <trkpt lat="52.122543" lon="4.4446907">
        <ele>-200.0</ele>
        <time>2020-09-21T14:47:19Z</time>
      </trkpt>
      <trkpt lat="52.122513" lon="4.444743">
        <ele>-200.0</ele>
        <time>2020-09-21T14:47:20Z</time>
      </trkpt>
      <trkpt lat="52.122486" lon="4.444795">
        <ele>-200.0</ele>
        <time>2020-09-21T14:47:21Z</time>
      </trkpt>
      <trkpt lat="52.12246" lon="4.444845">
        <ele>-200.0</ele>
        <time>2020-09-21T14:47:22Z</time>
      </trkpt>
      <trkpt lat="52.12244" lon="4.4448953">
        <ele>-200.0</ele>
        <time>2020-09-21T14:47:23Z</time>
      </trkpt>
      <trkpt lat="52.122417" lon="4.4449472">
        <ele>-200.0</ele>
        <time>2020-09-21T14:47:24Z</time>
      </trkpt>
      <trkpt lat="52.122402" lon="4.445002">
        <ele>-200.0</ele>
        <time>2020-09-21T14:47:25Z</time>
      </trkpt>
      <trkpt lat="52.122395" lon="4.4450564">
        <ele>-200.0</ele>
        <time>2020-09-21T14:47:26Z</time>
      </trkpt>
      <trkpt lat="52.122387" lon="4.445111">
        <ele>-200.0</ele>
        <time>2020-09-21T14:47:27Z</time>
      </trkpt>
      <trkpt lat="52.122395" lon="4.4451637">
        <ele>-200.0</ele>
        <time>2020-09-21T14:47:28Z</time>
      </trkpt>
      <trkpt lat="52.1224" lon="4.445215">
        <ele>-200.0</ele>
        <time>2020-09-21T14:47:29Z</time>
      </trkpt>
      <trkpt lat="52.12241" lon="4.445263">
        <ele>-200.0</ele>
        <time>2020-09-21T14:47:30Z</time>
      </trkpt>
      <trkpt lat="52.122425" lon="4.445306">
        <ele>-200.0</ele>
        <time>2020-09-21T14:47:31Z</time>
      </trkpt>
      <trkpt lat="52.122444" lon="4.44535">
        <ele>-200.0</ele>
        <time>2020-09-21T14:47:32Z</time>
      </trkpt>
      <trkpt lat="52.122467" lon="4.4454">
        <ele>-200.0</ele>
        <time>2020-09-21T14:47:33Z</time>
      </trkpt>
      <trkpt lat="52.122482" lon="4.445454">
        <ele>-200.0</ele>
        <time>2020-09-21T14:47:34Z</time>
      </trkpt>
      <trkpt lat="52.1225" lon="4.4455104">
        <ele>-200.0</ele>
        <time>2020-09-21T14:47:35Z</time>
      </trkpt>
      <trkpt lat="52.12252" lon="4.4455695">
        <ele>-200.0</ele>
        <time>2020-09-21T14:47:36Z</time>
      </trkpt>
      <trkpt lat="52.122536" lon="4.4456315">
        <ele>-200.0</ele>
        <time>2020-09-21T14:47:37Z</time>
      </trkpt>
      <trkpt lat="52.12255" lon="4.445694">
        <ele>-200.0</ele>
        <time>2020-09-21T14:47:38Z</time>
      </trkpt>
      <trkpt lat="52.122562" lon="4.445758">
        <ele>-200.0</ele>
        <time>2020-09-21T14:47:39Z</time>
      </trkpt>
      <trkpt lat="52.122574" lon="4.445823">
        <ele>-200.0</ele>
        <time>2020-09-21T14:47:40Z</time>
      </trkpt>
      <trkpt lat="52.122578" lon="4.4458895">
        <ele>-200.0</ele>
        <time>2020-09-21T14:47:41Z</time>
      </trkpt>
      <trkpt lat="52.12258" lon="4.445958">
        <ele>-200.0</ele>
        <time>2020-09-21T14:47:42Z</time>
      </trkpt>
      <trkpt lat="52.122593" lon="4.4460297">
        <ele>-200.0</ele>
        <time>2020-09-21T14:47:43Z</time>
      </trkpt>
      <trkpt lat="52.122604" lon="4.4461045">
        <ele>-200.0</ele>
        <time>2020-09-21T14:47:44Z</time>
      </trkpt>
      <trkpt lat="52.122612" lon="4.4461765">
        <ele>-200.0</ele>
        <time>2020-09-21T14:47:45Z</time>
      </trkpt>
      <trkpt lat="52.122623" lon="4.4462447">
        <ele>-200.0</ele>
        <time>2020-09-21T14:47:46Z</time>
      </trkpt>
      <trkpt lat="52.122635" lon="4.4463115">
        <ele>-200.0</ele>
        <time>2020-09-21T14:47:47Z</time>
      </trkpt>
      <trkpt lat="52.122646" lon="4.4463763">
        <ele>-200.0</ele>
        <time>2020-09-21T14:47:48Z</time>
      </trkpt>
      <trkpt lat="52.12265" lon="4.4464417">
        <ele>-200.0</ele>
        <time>2020-09-21T14:47:49Z</time>
      </trkpt>
      <trkpt lat="52.12266" lon="4.446505">
        <ele>-200.0</ele>
        <time>2020-09-21T14:47:50Z</time>
      </trkpt>
      <trkpt lat="52.12267" lon="4.4465666">
        <ele>-200.0</ele>
        <time>2020-09-21T14:47:51Z</time>
      </trkpt>
      <trkpt lat="52.12268" lon="4.446626">
        <ele>-200.0</ele>
        <time>2020-09-21T14:47:52Z</time>
      </trkpt>
      <trkpt lat="52.122684" lon="4.4466834">
        <ele>-200.0</ele>
        <time>2020-09-21T14:47:53Z</time>
      </trkpt>
      <trkpt lat="52.122696" lon="4.44674">
        <ele>-200.0</ele>
        <time>2020-09-21T14:47:54Z</time>
      </trkpt>
      <trkpt lat="52.12271" lon="4.446795">
        <ele>-200.0</ele>
        <time>2020-09-21T14:47:55Z</time>
      </trkpt>
      <trkpt lat="52.12273" lon="4.4468474">
        <ele>-200.0</ele>
        <time>2020-09-21T14:47:56Z</time>
      </trkpt>
      <trkpt lat="52.122753" lon="4.446896">
        <ele>-200.0</ele>
        <time>2020-09-21T14:47:57Z</time>
      </trkpt>
      <trkpt lat="52.122776" lon="4.446942">
        <ele>-200.0</ele>
        <time>2020-09-21T14:47:58Z</time>
      </trkpt>
      <trkpt lat="52.122807" lon="4.446985">
        <ele>-200.0</ele>
        <time>2020-09-21T14:47:59Z</time>
      </trkpt>
      <trkpt lat="52.122845" lon="4.4470253">
        <ele>-200.0</ele>
        <time>2020-09-21T14:48:00Z</time>
      </trkpt>
      <trkpt lat="52.122875" lon="4.447065">
        <ele>-200.0</ele>
        <time>2020-09-21T14:48:01Z</time>
      </trkpt>
      <trkpt lat="52.12291" lon="4.4471035">
        <ele>-200.0</ele>
        <time>2020-09-21T14:48:02Z</time>
      </trkpt>
      <trkpt lat="52.122948" lon="4.447138">
        <ele>-200.0</ele>
        <time>2020-09-21T14:48:03Z</time>
      </trkpt>
      <trkpt lat="52.122986" lon="4.4471693">
        <ele>-200.0</ele>
        <time>2020-09-21T14:48:04Z</time>
      </trkpt>
      <trkpt lat="52.123024" lon="4.4472017">
        <ele>-200.0</ele>
        <time>2020-09-21T14:48:05Z</time>
      </trkpt>
      <trkpt lat="52.12306" lon="4.447237">
        <ele>-200.0</ele>
        <time>2020-09-21T14:48:06Z</time>
      </trkpt>
      <trkpt lat="52.123096" lon="4.4472737">
        <ele>-200.0</ele>
        <time>2020-09-21T14:48:07Z</time>
      </trkpt>
      <trkpt lat="52.12313" lon="4.447312">
        <ele>-200.0</ele>
        <time>2020-09-21T14:48:08Z</time>
      </trkpt>
      <trkpt lat="52.123173" lon="4.4473515">
        <ele>-200.0</ele>
        <time>2020-09-21T14:48:09Z</time>
      </trkpt>
      <trkpt lat="52.123203" lon="4.4473906">
        <ele>-200.0</ele>
        <time>2020-09-21T14:48:10Z</time>
      </trkpt>
      <trkpt lat="52.123238" lon="4.44743">
        <ele>-200.0</ele>
        <time>2020-09-21T14:48:11Z</time>
      </trkpt>
      <trkpt lat="52.123276" lon="4.447469">
        <ele>-200.0</ele>
        <time>2020-09-21T14:48:12Z</time>
      </trkpt>
      <trkpt lat="52.123306" lon="4.44751">
        <ele>-200.0</ele>
        <time>2020-09-21T14:48:13Z</time>
      </trkpt>
      <trkpt lat="52.12333" lon="4.4475517">
        <ele>-200.0</ele>
        <time>2020-09-21T14:48:14Z</time>
      </trkpt>
      <trkpt lat="52.12336" lon="4.447592">
        <ele>-200.0</ele>
        <time>2020-09-21T14:48:15Z</time>
      </trkpt>
      <trkpt lat="52.12339" lon="4.447631">
        <ele>-200.0</ele>
        <time>2020-09-21T14:48:16Z</time>
      </trkpt>
      <trkpt lat="52.123425" lon="4.4476705">
        <ele>-200.0</ele>
        <time>2020-09-21T14:48:17Z</time>
      </trkpt>
      <trkpt lat="52.123455" lon="4.4477096">
        <ele>-200.0</ele>
        <time>2020-09-21T14:48:18Z</time>
      </trkpt>
      <trkpt lat="52.12349" lon="4.447748">
        <ele>-200.0</ele>
        <time>2020-09-21T14:48:19Z</time>
      </trkpt>
      <trkpt lat="52.12352" lon="4.4477844">
        <ele>-200.0</ele>
        <time>2020-09-21T14:48:20Z</time>
      </trkpt>
      <trkpt lat="52.123554" lon="4.447819">
        <ele>-200.0</ele>
        <time>2020-09-21T14:48:21Z</time>
      </trkpt>
      <trkpt lat="52.123585" lon="4.4478536">
        <ele>-200.0</ele>
        <time>2020-09-21T14:48:22Z</time>
      </trkpt>
      <trkpt lat="52.123623" lon="4.447887">
        <ele>-200.0</ele>
        <time>2020-09-21T14:48:23Z</time>
      </trkpt>
      <trkpt lat="52.123653" lon="4.44792">
        <ele>-200.0</ele>
        <time>2020-09-21T14:48:24Z</time>
      </trkpt>
      <trkpt lat="52.123688" lon="4.447951">
        <ele>-200.0</ele>
        <time>2020-09-21T14:48:25Z</time>
      </trkpt>
      <trkpt lat="52.123726" lon="4.447978">
        <ele>-200.0</ele>
        <time>2020-09-21T14:48:26Z</time>
      </trkpt>
      <trkpt lat="52.123756" lon="4.4480004">
        <ele>-200.0</ele>
        <time>2020-09-21T14:48:27Z</time>
      </trkpt>
      <trkpt lat="52.12379" lon="4.448016">
        <ele>-200.0</ele>
        <time>2020-09-21T14:48:28Z</time>
      </trkpt>
      <trkpt lat="52.12383" lon="4.4480233">
        <ele>-200.0</ele>
        <time>2020-09-21T14:48:29Z</time>
      </trkpt>
      <trkpt lat="52.123863" lon="4.4480243">
        <ele>-200.0</ele>
        <time>2020-09-21T14:48:30Z</time>
      </trkpt>
      <trkpt lat="52.123898" lon="4.448021">
        <ele>-200.0</ele>
        <time>2020-09-21T14:48:31Z</time>
      </trkpt>
      <trkpt lat="52.123936" lon="4.4480133">
        <ele>-200.0</ele>
        <time>2020-09-21T14:48:32Z</time>
      </trkpt>
      <trkpt lat="52.12397" lon="4.448006">
        <ele>-200.0</ele>
        <time>2020-09-21T14:48:33Z</time>
      </trkpt>
      <trkpt lat="52.12401" lon="4.4480014">
        <ele>-200.0</ele>
        <time>2020-09-21T14:48:34Z</time>
      </trkpt>
      <trkpt lat="52.124043" lon="4.4480014">
        <ele>-200.0</ele>
        <time>2020-09-21T14:48:35Z</time>
      </trkpt>
      <trkpt lat="52.124077" lon="4.4480124">
        <ele>-200.0</ele>
        <time>2020-09-21T14:48:36Z</time>
      </trkpt>
      <trkpt lat="52.124115" lon="4.448032">
        <ele>-200.0</ele>
        <time>2020-09-21T14:48:37Z</time>
      </trkpt>
      <trkpt lat="52.12415" lon="4.448056">
        <ele>-200.0</ele>
        <time>2020-09-21T14:48:38Z</time>
      </trkpt>
      <trkpt lat="52.12418" lon="4.448085">
        <ele>-200.0</ele>
        <time>2020-09-21T14:48:39Z</time>
      </trkpt>
      <trkpt lat="52.124218" lon="4.4481173">
        <ele>-200.0</ele>
        <time>2020-09-21T14:48:40Z</time>
      </trkpt>
      <trkpt lat="52.12425" lon="4.4481487">
        <ele>-200.0</ele>
        <time>2020-09-21T14:48:41Z</time>
      </trkpt>
      <trkpt lat="52.124283" lon="4.448183">
        <ele>-200.0</ele>
        <time>2020-09-21T14:48:42Z</time>
      </trkpt>
      <trkpt lat="52.124317" lon="4.4482183">
        <ele>-200.0</ele>
        <time>2020-09-21T14:48:43Z</time>
      </trkpt>
      <trkpt lat="52.124355" lon="4.4482517">
        <ele>-200.0</ele>
        <time>2020-09-21T14:48:44Z</time>
      </trkpt>
      <trkpt lat="52.12439" lon="4.4482846">
        <ele>-200.0</ele>
        <time>2020-09-21T14:48:45Z</time>
      </trkpt>
      <trkpt lat="52.124428" lon="4.4483156">
        <ele>-200.0</ele>
        <time>2020-09-21T14:48:46Z</time>
      </trkpt>
      <trkpt lat="52.12446" lon="4.448346">
        <ele>-200.0</ele>
        <time>2020-09-21T14:48:47Z</time>
      </trkpt>
      <trkpt lat="52.124493" lon="4.448376">
        <ele>-200.0</ele>
        <time>2020-09-21T14:48:48Z</time>
      </trkpt>
      <trkpt lat="52.124527" lon="4.448406">
        <ele>-200.0</ele>
        <time>2020-09-21T14:48:49Z</time>
      </trkpt>
      <trkpt lat="52.124565" lon="4.4484386">
        <ele>-200.0</ele>
        <time>2020-09-21T14:48:50Z</time>
      </trkpt>
      <trkpt lat="52.1246" lon="4.448472">
        <ele>-200.0</ele>
        <time>2020-09-21T14:48:51Z</time>
      </trkpt>
      <trkpt lat="52.12464" lon="4.4485054">
        <ele>-200.0</ele>
        <time>2020-09-21T14:48:52Z</time>
      </trkpt>
      <trkpt lat="52.124676" lon="4.448539">
        <ele>-200.0</ele>
        <time>2020-09-21T14:48:53Z</time>
      </trkpt>
      <trkpt lat="52.124714" lon="4.4485784">
        <ele>-200.0</ele>
        <time>2020-09-21T14:48:54Z</time>
      </trkpt>
      <trkpt lat="52.124752" lon="4.4486194">
        <ele>-200.0</ele>
        <time>2020-09-21T14:48:55Z</time>
      </trkpt>
      <trkpt lat="52.12479" lon="4.4486604">
        <ele>-200.0</ele>
        <time>2020-09-21T14:48:56Z</time>
      </trkpt>
      <trkpt lat="52.124825" lon="4.448701">
        <ele>-200.0</ele>
        <time>2020-09-21T14:48:57Z</time>
      </trkpt>
      <trkpt lat="52.124863" lon="4.4487424">
        <ele>-200.0</ele>
        <time>2020-09-21T14:48:58Z</time>
      </trkpt>
      <trkpt lat="52.124893" lon="4.4487853">
        <ele>-200.0</ele>
        <time>2020-09-21T14:48:59Z</time>
      </trkpt>
      <trkpt lat="52.124924" lon="4.448828">
        <ele>-200.0</ele>
        <time>2020-09-21T14:49:00Z</time>
      </trkpt>
      <trkpt lat="52.124954" lon="4.448871">
        <ele>-200.0</ele>
        <time>2020-09-21T14:49:01Z</time>
      </trkpt>
      <trkpt lat="52.124985" lon="4.448912">
        <ele>-200.0</ele>
        <time>2020-09-21T14:49:02Z</time>
      </trkpt>
      <trkpt lat="52.125015" lon="4.448953">
        <ele>-200.0</ele>
        <time>2020-09-21T14:49:03Z</time>
      </trkpt>
      <trkpt lat="52.12505" lon="4.4489937">
        <ele>-200.0</ele>
        <time>2020-09-21T14:49:04Z</time>
      </trkpt>
      <trkpt lat="52.12508" lon="4.4490337">
        <ele>-200.0</ele>
        <time>2020-09-21T14:49:05Z</time>
      </trkpt>
      <trkpt lat="52.12511" lon="4.4490724">
        <ele>-200.0</ele>
        <time>2020-09-21T14:49:06Z</time>
      </trkpt>
      <trkpt lat="52.12515" lon="4.4491115">
        <ele>-200.0</ele>
        <time>2020-09-21T14:49:07Z</time>
      </trkpt>
      <trkpt lat="52.125183" lon="4.4491477">
        <ele>-200.0</ele>
        <time>2020-09-21T14:49:08Z</time>
      </trkpt>
      <trkpt lat="52.12522" lon="4.4491806">
        <ele>-200.0</ele>
        <time>2020-09-21T14:49:09Z</time>
      </trkpt>
      <trkpt lat="52.125256" lon="4.449213">
        <ele>-200.0</ele>
        <time>2020-09-21T14:49:10Z</time>
      </trkpt>
      <trkpt lat="52.125298" lon="4.4492435">
        <ele>-200.0</ele>
        <time>2020-09-21T14:49:11Z</time>
      </trkpt>
      <trkpt lat="52.125336" lon="4.449272">
        <ele>-200.0</ele>
        <time>2020-09-21T14:49:12Z</time>
      </trkpt>
      <trkpt lat="52.125378" lon="4.449301">
        <ele>-200.0</ele>
        <time>2020-09-21T14:49:13Z</time>
      </trkpt>
      <trkpt lat="52.12542" lon="4.449331">
        <ele>-200.0</ele>
        <time>2020-09-21T14:49:14Z</time>
      </trkpt>
      <trkpt lat="52.125454" lon="4.449364">
        <ele>-200.0</ele>
        <time>2020-09-21T14:49:15Z</time>
      </trkpt>
      <trkpt lat="52.125484" lon="4.449398">
        <ele>-200.0</ele>
        <time>2020-09-21T14:49:16Z</time>
      </trkpt>
      <trkpt lat="52.125515" lon="4.449432">
        <ele>-200.0</ele>
        <time>2020-09-21T14:49:17Z</time>
      </trkpt>
      <trkpt lat="52.12555" lon="4.449469">
        <ele>-200.0</ele>
        <time>2020-09-21T14:49:18Z</time>
      </trkpt>
      <trkpt lat="52.12558" lon="4.4495115">
        <ele>-200.0</ele>
        <time>2020-09-21T14:49:19Z</time>
      </trkpt>
      <trkpt lat="52.12561" lon="4.4495587">
        <ele>-200.0</ele>
        <time>2020-09-21T14:49:20Z</time>
      </trkpt>
      <trkpt lat="52.125645" lon="4.4496055">
        <ele>-200.0</ele>
        <time>2020-09-21T14:49:21Z</time>
      </trkpt>
      <trkpt lat="52.12567" lon="4.4496512">
        <ele>-200.0</ele>
        <time>2020-09-21T14:49:22Z</time>
      </trkpt>
      <trkpt lat="52.1257" lon="4.449696">
        <ele>-200.0</ele>
        <time>2020-09-21T14:49:23Z</time>
      </trkpt>
      <trkpt lat="52.12573" lon="4.449739">
        <ele>-200.0</ele>
        <time>2020-09-21T14:49:24Z</time>
      </trkpt>
      <trkpt lat="52.12576" lon="4.449782">
        <ele>-200.0</ele>
        <time>2020-09-21T14:49:25Z</time>
      </trkpt>
      <trkpt lat="52.12579" lon="4.4498277">
        <ele>-200.0</ele>
        <time>2020-09-21T14:49:26Z</time>
      </trkpt>
      <trkpt lat="52.125824" lon="4.449876">
        <ele>-200.0</ele>
        <time>2020-09-21T14:49:27Z</time>
      </trkpt>
      <trkpt lat="52.125854" lon="4.449925">
        <ele>-200.0</ele>
        <time>2020-09-21T14:49:28Z</time>
      </trkpt>
      <trkpt lat="52.12589" lon="4.44997">
        <ele>-200.0</ele>
        <time>2020-09-21T14:49:29Z</time>
      </trkpt>
      <trkpt lat="52.125923" lon="4.450012">
        <ele>-200.0</ele>
        <time>2020-09-21T14:49:30Z</time>
      </trkpt>
      <trkpt lat="52.125954" lon="4.450049">
        <ele>-200.0</ele>
        <time>2020-09-21T14:49:31Z</time>
      </trkpt>
      <trkpt lat="52.125988" lon="4.45008">
        <ele>-200.0</ele>
        <time>2020-09-21T14:49:32Z</time>
      </trkpt>
      <trkpt lat="52.12602" lon="4.450108">
        <ele>-200.0</ele>
        <time>2020-09-21T14:49:33Z</time>
      </trkpt>
      <trkpt lat="52.126045" lon="4.4501305">
        <ele>-200.0</ele>
        <time>2020-09-21T14:49:34Z</time>
      </trkpt>
      <trkpt lat="52.126064" lon="4.4501467">
        <ele>-200.0</ele>
        <time>2020-09-21T14:49:35Z</time>
      </trkpt>
      <trkpt lat="52.126083" lon="4.4501567">
        <ele>-200.0</ele>
        <time>2020-09-21T14:49:36Z</time>
      </trkpt>
      <trkpt lat="52.126106" lon="4.4501615">
        <ele>-200.0</ele>
        <time>2020-09-21T14:49:37Z</time>
      </trkpt>
      <trkpt lat="52.126133" lon="4.4501595">
        <ele>-200.0</ele>
        <time>2020-09-21T14:49:38Z</time>
      </trkpt>
      <trkpt lat="52.126156" lon="4.4501505">
        <ele>-200.0</ele>
        <time>2020-09-21T14:49:39Z</time>
      </trkpt>
      <trkpt lat="52.126183" lon="4.4501333">
        <ele>-200.0</ele>
        <time>2020-09-21T14:49:40Z</time>
      </trkpt>
      <trkpt lat="52.126213" lon="4.450107">
        <ele>-200.0</ele>
        <time>2020-09-21T14:49:41Z</time>
      </trkpt>
      <trkpt lat="52.12624" lon="4.450071">
        <ele>-200.0</ele>
        <time>2020-09-21T14:49:42Z</time>
      </trkpt>
      <trkpt lat="52.126263" lon="4.4500294">
        <ele>-200.0</ele>
        <time>2020-09-21T14:49:43Z</time>
      </trkpt>
      <trkpt lat="52.12629" lon="4.449983">
        <ele>-200.0</ele>
        <time>2020-09-21T14:49:44Z</time>
      </trkpt>
      <trkpt lat="52.126316" lon="4.449934">
        <ele>-200.0</ele>
        <time>2020-09-21T14:49:45Z</time>
      </trkpt>
      <trkpt lat="52.126343" lon="4.4498854">
        <ele>-200.0</ele>
        <time>2020-09-21T14:49:46Z</time>
      </trkpt>
      <trkpt lat="52.126366" lon="4.4498363">
        <ele>-200.0</ele>
        <time>2020-09-21T14:49:47Z</time>
      </trkpt>
      <trkpt lat="52.126392" lon="4.449786">
        <ele>-200.0</ele>
        <time>2020-09-21T14:49:48Z</time>
      </trkpt>
      <trkpt lat="52.12641" lon="4.449735">
        <ele>-200.0</ele>
        <time>2020-09-21T14:49:48Z</time>
      </trkpt>
      <trkpt lat="52.12644" lon="4.449681">
        <ele>-200.0</ele>
        <time>2020-09-21T14:49:49Z</time>
      </trkpt>
      <trkpt lat="52.126465" lon="4.449626">
        <ele>-200.0</ele>
        <time>2020-09-21T14:49:50Z</time>
      </trkpt>
      <trkpt lat="52.126488" lon="4.449573">
        <ele>-200.0</ele>
        <time>2020-09-21T14:49:51Z</time>
      </trkpt>
      <trkpt lat="52.126514" lon="4.449522">
        <ele>-200.0</ele>
        <time>2020-09-21T14:49:52Z</time>
      </trkpt>
      <trkpt lat="52.12654" lon="4.4494777">
        <ele>-200.0</ele>
        <time>2020-09-21T14:49:53Z</time>
      </trkpt>
      <trkpt lat="52.12657" lon="4.4494305">
        <ele>-200.0</ele>
        <time>2020-09-21T14:49:54Z</time>
      </trkpt>
      <trkpt lat="52.126602" lon="4.449387">
        <ele>-200.0</ele>
        <time>2020-09-21T14:49:55Z</time>
      </trkpt>
      <trkpt lat="52.126633" lon="4.449345">
        <ele>-200.0</ele>
        <time>2020-09-21T14:49:56Z</time>
      </trkpt>
      <trkpt lat="52.126663" lon="4.4493036">
        <ele>-200.0</ele>
        <time>2020-09-21T14:49:57Z</time>
      </trkpt>
      <trkpt lat="52.12669" lon="4.4492598">
        <ele>-200.0</ele>
        <time>2020-09-21T14:49:58Z</time>
      </trkpt>
      <trkpt lat="52.126717" lon="4.449218">
        <ele>-200.0</ele>
        <time>2020-09-21T14:49:59Z</time>
      </trkpt>
      <trkpt lat="52.126747" lon="4.449177">
        <ele>-200.0</ele>
        <time>2020-09-21T14:50:00Z</time>
      </trkpt>
      <trkpt lat="52.12677" lon="4.449146">
        <ele>-200.0</ele>
        <time>2020-09-21T14:50:01Z</time>
      </trkpt>
      <trkpt lat="52.1268" lon="4.4491243">
        <ele>-200.0</ele>
        <time>2020-09-21T14:50:02Z</time>
      </trkpt>
      <trkpt lat="52.12684" lon="4.4491086">
        <ele>-200.0</ele>
        <time>2020-09-21T14:50:03Z</time>
      </trkpt>
      <trkpt lat="52.12687" lon="4.449098">
        <ele>-200.0</ele>
        <time>2020-09-21T14:50:04Z</time>
      </trkpt>
      <trkpt lat="52.126904" lon="4.4490895">
        <ele>-200.0</ele>
        <time>2020-09-21T14:50:05Z</time>
      </trkpt>
      <trkpt lat="52.12694" lon="4.449085">
        <ele>-200.0</ele>
        <time>2020-09-21T14:50:06Z</time>
      </trkpt>
      <trkpt lat="52.12698" lon="4.4490895">
        <ele>-200.0</ele>
        <time>2020-09-21T14:50:07Z</time>
      </trkpt>
      <trkpt lat="52.127018" lon="4.449103">
        <ele>-200.0</ele>
        <time>2020-09-21T14:50:08Z</time>
      </trkpt>
      <trkpt lat="52.127052" lon="4.449126">
        <ele>-200.0</ele>
        <time>2020-09-21T14:50:09Z</time>
      </trkpt>
      <trkpt lat="52.12709" lon="4.449157">
        <ele>-200.0</ele>
        <time>2020-09-21T14:50:10Z</time>
      </trkpt>
      <trkpt lat="52.12712" lon="4.4491963">
        <ele>-200.0</ele>
        <time>2020-09-21T14:50:11Z</time>
      </trkpt>
      <trkpt lat="52.127155" lon="4.449244">
        <ele>-200.0</ele>
        <time>2020-09-21T14:50:12Z</time>
      </trkpt>
      <trkpt lat="52.12719" lon="4.4492955">
        <ele>-200.0</ele>
        <time>2020-09-21T14:50:13Z</time>
      </trkpt>
      <trkpt lat="52.12722" lon="4.449349">
        <ele>-200.0</ele>
        <time>2020-09-21T14:50:14Z</time>
      </trkpt>
      <trkpt lat="52.127247" lon="4.4494014">
        <ele>-200.0</ele>
        <time>2020-09-21T14:50:15Z</time>
      </trkpt>
      <trkpt lat="52.127277" lon="4.4494543">
        <ele>-200.0</ele>
        <time>2020-09-21T14:50:16Z</time>
      </trkpt>
      <trkpt lat="52.127304" lon="4.449506">
        <ele>-200.0</ele>
        <time>2020-09-21T14:50:17Z</time>
      </trkpt>
      <trkpt lat="52.12733" lon="4.4495564">
        <ele>-200.0</ele>
        <time>2020-09-21T14:50:18Z</time>
      </trkpt>
      <trkpt lat="52.127354" lon="4.449605">
        <ele>-200.0</ele>
        <time>2020-09-21T14:50:19Z</time>
      </trkpt>
      <trkpt lat="52.127384" lon="4.449652">
        <ele>-200.0</ele>
        <time>2020-09-21T14:50:20Z</time>
      </trkpt>
      <trkpt lat="52.12741" lon="4.4496984">
        <ele>-200.0</ele>
        <time>2020-09-21T14:50:21Z</time>
      </trkpt>
      <trkpt lat="52.127438" lon="4.449745">
        <ele>-200.0</ele>
        <time>2020-09-21T14:50:22Z</time>
      </trkpt>
      <trkpt lat="52.127464" lon="4.449794">
        <ele>-200.0</ele>
        <time>2020-09-21T14:50:23Z</time>
      </trkpt>
      <trkpt lat="52.127487" lon="4.4498444">
        <ele>-200.0</ele>
        <time>2020-09-21T14:50:24Z</time>
      </trkpt>
      <trkpt lat="52.127514" lon="4.449896">
        <ele>-200.0</ele>
        <time>2020-09-21T14:50:25Z</time>
      </trkpt>
      <trkpt lat="52.12754" lon="4.449948">
        <ele>-200.0</ele>
        <time>2020-09-21T14:50:26Z</time>
      </trkpt>
      <trkpt lat="52.127563" lon="4.4500012">
        <ele>-200.0</ele>
        <time>2020-09-21T14:50:27Z</time>
      </trkpt>
      <trkpt lat="52.12759" lon="4.450053">
        <ele>-200.0</ele>
        <time>2020-09-21T14:50:28Z</time>
      </trkpt>
      <trkpt lat="52.127617" lon="4.450103">
        <ele>-200.0</ele>
        <time>2020-09-21T14:50:29Z</time>
      </trkpt>
      <trkpt lat="52.12764" lon="4.45015">
        <ele>-200.0</ele>
        <time>2020-09-21T14:50:30Z</time>
      </trkpt>
      <trkpt lat="52.127663" lon="4.450194">
        <ele>-200.0</ele>
        <time>2020-09-21T14:50:31Z</time>
      </trkpt>
      <trkpt lat="52.12769" lon="4.4502425">
        <ele>-200.0</ele>
        <time>2020-09-21T14:50:32Z</time>
      </trkpt>
      <trkpt lat="52.127712" lon="4.450291">
        <ele>-200.0</ele>
        <time>2020-09-21T14:50:33Z</time>
      </trkpt>
      <trkpt lat="52.12774" lon="4.450338">
        <ele>-200.0</ele>
        <time>2020-09-21T14:50:34Z</time>
      </trkpt>
      <trkpt lat="52.127766" lon="4.450383">
        <ele>-200.0</ele>
        <time>2020-09-21T14:50:35Z</time>
      </trkpt>
      <trkpt lat="52.12779" lon="4.450427">
        <ele>-200.0</ele>
        <time>2020-09-21T14:50:36Z</time>
      </trkpt>
      <trkpt lat="52.12782" lon="4.4504757">
        <ele>-200.0</ele>
        <time>2020-09-21T14:50:37Z</time>
      </trkpt>
      <trkpt lat="52.127853" lon="4.4505243">
        <ele>-200.0</ele>
        <time>2020-09-21T14:50:38Z</time>
      </trkpt>
      <trkpt lat="52.127876" lon="4.45057">
        <ele>-200.0</ele>
        <time>2020-09-21T14:50:39Z</time>
      </trkpt>
      <trkpt lat="52.1279" lon="4.450614">
        <ele>-200.0</ele>
        <time>2020-09-21T14:50:40Z</time>
      </trkpt>
      <trkpt lat="52.12792" lon="4.4506564">
        <ele>-200.0</ele>
        <time>2020-09-21T14:50:41Z</time>
      </trkpt>
      <trkpt lat="52.127934" lon="4.4506984">
        <ele>-200.0</ele>
        <time>2020-09-21T14:50:42Z</time>
      </trkpt>
      <trkpt lat="52.127953" lon="4.4507346">
        <ele>-200.0</ele>
        <time>2020-09-21T14:50:43Z</time>
      </trkpt>
      <trkpt lat="52.12798" lon="4.4507704">
        <ele>-200.0</ele>
        <time>2020-09-21T14:50:44Z</time>
      </trkpt>
      <trkpt lat="52.12801" lon="4.4508066">
        <ele>-200.0</ele>
        <time>2020-09-21T14:50:45Z</time>
      </trkpt>
      <trkpt lat="52.128036" lon="4.450842">
        <ele>-200.0</ele>
        <time>2020-09-21T14:50:46Z</time>
      </trkpt>
      <trkpt lat="52.128067" lon="4.45088">
        <ele>-200.0</ele>
        <time>2020-09-21T14:50:47Z</time>
      </trkpt>
      <trkpt lat="52.128098" lon="4.4509196">
        <ele>-200.0</ele>
        <time>2020-09-21T14:50:48Z</time>
      </trkpt>
      <trkpt lat="52.128128" lon="4.4509625">
        <ele>-200.0</ele>
        <time>2020-09-21T14:50:49Z</time>
      </trkpt>
      <trkpt lat="52.12816" lon="4.451009">
        <ele>-200.0</ele>
        <time>2020-09-21T14:50:50Z</time>
      </trkpt>
      <trkpt lat="52.12819" lon="4.4510555">
        <ele>-200.0</ele>
        <time>2020-09-21T14:50:51Z</time>
      </trkpt>
      <trkpt lat="52.12822" lon="4.4511003">
        <ele>-200.0</ele>
        <time>2020-09-21T14:50:52Z</time>
      </trkpt>
      <trkpt lat="52.128246" lon="4.451145">
        <ele>-200.0</ele>
        <time>2020-09-21T14:50:53Z</time>
      </trkpt>
      <trkpt lat="52.128273" lon="4.451192">
        <ele>-200.0</ele>
        <time>2020-09-21T14:50:54Z</time>
      </trkpt>
      <trkpt lat="52.128292" lon="4.451241">
        <ele>-200.0</ele>
        <time>2020-09-21T14:50:55Z</time>
      </trkpt>
      <trkpt lat="52.12832" lon="4.451292">
        <ele>-200.0</ele>
        <time>2020-09-21T14:50:56Z</time>
      </trkpt>
      <trkpt lat="52.12834" lon="4.451343">
        <ele>-200.0</ele>
        <time>2020-09-21T14:50:57Z</time>
      </trkpt>
      <trkpt lat="52.128372" lon="4.451396">
        <ele>-200.0</ele>
        <time>2020-09-21T14:50:58Z</time>
      </trkpt>
      <trkpt lat="52.12841" lon="4.4514523">
        <ele>-200.0</ele>
        <time>2020-09-21T14:50:59Z</time>
      </trkpt>
      <trkpt lat="52.12844" lon="4.4515147">
        <ele>-200.0</ele>
        <time>2020-09-21T14:51:00Z</time>
      </trkpt>
      <trkpt lat="52.128475" lon="4.4515796">
        <ele>-200.0</ele>
        <time>2020-09-21T14:51:01Z</time>
      </trkpt>
      <trkpt lat="52.128506" lon="4.451646">
        <ele>-200.0</ele>
        <time>2020-09-21T14:51:02Z</time>
      </trkpt>
      <trkpt lat="52.128536" lon="4.451713">
        <ele>-200.0</ele>
        <time>2020-09-21T14:51:03Z</time>
      </trkpt>
      <trkpt lat="52.128567" lon="4.4517794">
        <ele>-200.0</ele>
        <time>2020-09-21T14:51:04Z</time>
      </trkpt>
      <trkpt lat="52.128597" lon="4.4518447">
        <ele>-200.0</ele>
        <time>2020-09-21T14:51:05Z</time>
      </trkpt>
      <trkpt lat="52.12863" lon="4.45191">
        <ele>-200.0</ele>
        <time>2020-09-21T14:51:06Z</time>
      </trkpt>
      <trkpt lat="52.128662" lon="4.4519753">
        <ele>-200.0</ele>
        <time>2020-09-21T14:51:07Z</time>
      </trkpt>
      <trkpt lat="52.128693" lon="4.45204">
        <ele>-200.0</ele>
        <time>2020-09-21T14:51:08Z</time>
      </trkpt>
      <trkpt lat="52.128723" lon="4.4521055">
        <ele>-200.0</ele>
        <time>2020-09-21T14:51:09Z</time>
      </trkpt>
      <trkpt lat="52.128757" lon="4.452171">
        <ele>-200.0</ele>
        <time>2020-09-21T14:51:10Z</time>
      </trkpt>
      <trkpt lat="52.128788" lon="4.4522357">
        <ele>-200.0</ele>
        <time>2020-09-21T14:51:11Z</time>
      </trkpt>
      <trkpt lat="52.12882" lon="4.452301">
        <ele>-200.0</ele>
        <time>2020-09-21T14:51:12Z</time>
      </trkpt>
      <trkpt lat="52.12885" lon="4.4523664">
        <ele>-200.0</ele>
        <time>2020-09-21T14:51:13Z</time>
      </trkpt>
      <trkpt lat="52.12888" lon="4.4524307">
        <ele>-200.0</ele>
        <time>2020-09-21T14:51:14Z</time>
      </trkpt>
      <trkpt lat="52.128918" lon="4.4524946">
        <ele>-200.0</ele>
        <time>2020-09-21T14:51:15Z</time>
      </trkpt>
      <trkpt lat="52.12895" lon="4.4525585">
        <ele>-200.0</ele>
        <time>2020-09-21T14:51:16Z</time>
      </trkpt>
      <trkpt lat="52.128983" lon="4.4526215">
        <ele>-200.0</ele>
        <time>2020-09-21T14:51:17Z</time>
      </trkpt>
      <trkpt lat="52.129013" lon="4.4526854">
        <ele>-200.0</ele>
        <time>2020-09-21T14:51:18Z</time>
      </trkpt>
      <trkpt lat="52.12905" lon="4.4527516">
        <ele>-200.0</ele>
        <time>2020-09-21T14:51:19Z</time>
      </trkpt>
      <trkpt lat="52.12908" lon="4.452818">
        <ele>-200.0</ele>
        <time>2020-09-21T14:51:20Z</time>
      </trkpt>
      <trkpt lat="52.129116" lon="4.4528837">
        <ele>-200.0</ele>
        <time>2020-09-21T14:51:21Z</time>
      </trkpt>
      <trkpt lat="52.129147" lon="4.452946">
        <ele>-200.0</ele>
        <time>2020-09-21T14:51:22Z</time>
      </trkpt>
      <trkpt lat="52.129177" lon="4.453008">
        <ele>-200.0</ele>
        <time>2020-09-21T14:51:23Z</time>
      </trkpt>
      <trkpt lat="52.129204" lon="4.4530735">
        <ele>-200.0</ele>
        <time>2020-09-21T14:51:24Z</time>
      </trkpt>
      <trkpt lat="52.129223" lon="4.4531393">
        <ele>-200.0</ele>
        <time>2020-09-21T14:51:25Z</time>
      </trkpt>
      <trkpt lat="52.12925" lon="4.453201">
        <ele>-200.0</ele>
        <time>2020-09-21T14:51:26Z</time>
      </trkpt>
      <trkpt lat="52.129276" lon="4.453258">
        <ele>-200.0</ele>
        <time>2020-09-21T14:51:27Z</time>
      </trkpt>
      <trkpt lat="52.129307" lon="4.453313">
        <ele>-200.0</ele>
        <time>2020-09-21T14:51:28Z</time>
      </trkpt>
      <trkpt lat="52.129337" lon="4.4533663">
        <ele>-200.0</ele>
        <time>2020-09-21T14:51:29Z</time>
      </trkpt>
      <trkpt lat="52.12937" lon="4.4534187">
        <ele>-200.0</ele>
        <time>2020-09-21T14:51:30Z</time>
      </trkpt>
      <trkpt lat="52.12941" lon="4.4534674">
        <ele>-200.0</ele>
        <time>2020-09-21T14:51:31Z</time>
      </trkpt>
      <trkpt lat="52.129444" lon="4.453513">
        <ele>-200.0</ele>
        <time>2020-09-21T14:51:32Z</time>
      </trkpt>
      <trkpt lat="52.12948" lon="4.453558">
        <ele>-200.0</ele>
        <time>2020-09-21T14:51:33Z</time>
      </trkpt>
      <trkpt lat="52.12952" lon="4.453603">
        <ele>-200.0</ele>
        <time>2020-09-21T14:51:34Z</time>
      </trkpt>
      <trkpt lat="52.129555" lon="4.4536495">
        <ele>-200.0</ele>
        <time>2020-09-21T14:51:35Z</time>
      </trkpt>
      <trkpt lat="52.129593" lon="4.4537005">
        <ele>-200.0</ele>
        <time>2020-09-21T14:51:36Z</time>
      </trkpt>
      <trkpt lat="52.129627" lon="4.453753">
        <ele>-200.0</ele>
        <time>2020-09-21T14:51:37Z</time>
      </trkpt>
      <trkpt lat="52.129665" lon="4.453807">
        <ele>-200.0</ele>
        <time>2020-09-21T14:51:38Z</time>
      </trkpt>
      <trkpt lat="52.129696" lon="4.4538593">
        <ele>-200.0</ele>
        <time>2020-09-21T14:51:39Z</time>
      </trkpt>
      <trkpt lat="52.12973" lon="4.453911">
        <ele>-200.0</ele>
        <time>2020-09-21T14:51:40Z</time>
      </trkpt>
      <trkpt lat="52.12976" lon="4.453961">
        <ele>-200.0</ele>
        <time>2020-09-21T14:51:41Z</time>
      </trkpt>
      <trkpt lat="52.1298" lon="4.45401">
        <ele>-200.0</ele>
        <time>2020-09-21T14:51:42Z</time>
      </trkpt>
      <trkpt lat="52.12983" lon="4.454058">
        <ele>-200.0</ele>
        <time>2020-09-21T14:51:43Z</time>
      </trkpt>
      <trkpt lat="52.129852" lon="4.454107">
        <ele>-200.0</ele>
        <time>2020-09-21T14:51:44Z</time>
      </trkpt>
      <trkpt lat="52.12988" lon="4.4541554">
        <ele>-200.0</ele>
        <time>2020-09-21T14:51:45Z</time>
      </trkpt>
      <trkpt lat="52.129906" lon="4.454206">
        <ele>-200.0</ele>
        <time>2020-09-21T14:51:46Z</time>
      </trkpt>
      <trkpt lat="52.12993" lon="4.4542575">
        <ele>-200.0</ele>
        <time>2020-09-21T14:51:47Z</time>
      </trkpt>
      <trkpt lat="52.12996" lon="4.454309">
        <ele>-200.0</ele>
        <time>2020-09-21T14:51:48Z</time>
      </trkpt>
      <trkpt lat="52.129993" lon="4.45436">
        <ele>-200.0</ele>
        <time>2020-09-21T14:51:49Z</time>
      </trkpt>
      <trkpt lat="52.130024" lon="4.45441">
        <ele>-200.0</ele>
        <time>2020-09-21T14:51:50Z</time>
      </trkpt>
      <trkpt lat="52.130054" lon="4.4544587">
        <ele>-200.0</ele>
        <time>2020-09-21T14:51:51Z</time>
      </trkpt>
      <trkpt lat="52.13009" lon="4.4545074">
        <ele>-200.0</ele>
        <time>2020-09-21T14:51:52Z</time>
      </trkpt>
      <trkpt lat="52.130123" lon="4.454556">
        <ele>-200.0</ele>
        <time>2020-09-21T14:51:53Z</time>
      </trkpt>
      <trkpt lat="52.13016" lon="4.4546065">
        <ele>-200.0</ele>
        <time>2020-09-21T14:51:54Z</time>
      </trkpt>
      <trkpt lat="52.13019" lon="4.454659">
        <ele>-200.0</ele>
        <time>2020-09-21T14:51:55Z</time>
      </trkpt>
      <trkpt lat="52.130222" lon="4.4547133">
        <ele>-200.0</ele>
        <time>2020-09-21T14:51:56Z</time>
      </trkpt>
      <trkpt lat="52.130253" lon="4.4547687">
        <ele>-200.0</ele>
        <time>2020-09-21T14:51:57Z</time>
      </trkpt>
      <trkpt lat="52.130283" lon="4.454825">
        <ele>-200.0</ele>
        <time>2020-09-21T14:51:58Z</time>
      </trkpt>
      <trkpt lat="52.130314" lon="4.454879">
        <ele>-200.0</ele>
        <time>2020-09-21T14:51:59Z</time>
      </trkpt>
      <trkpt lat="52.130344" lon="4.4549336">
        <ele>-200.0</ele>
        <time>2020-09-21T14:52:00Z</time>
      </trkpt>
      <trkpt lat="52.130375" lon="4.454988">
        <ele>-200.0</ele>
        <time>2020-09-21T14:52:01Z</time>
      </trkpt>
      <trkpt lat="52.130413" lon="4.455044">
        <ele>-200.0</ele>
        <time>2020-09-21T14:52:02Z</time>
      </trkpt>
      <trkpt lat="52.130444" lon="4.455102">
        <ele>-200.0</ele>
        <time>2020-09-21T14:52:03Z</time>
      </trkpt>
      <trkpt lat="52.130474" lon="4.455162">
        <ele>-200.0</ele>
        <time>2020-09-21T14:52:04Z</time>
      </trkpt>
      <trkpt lat="52.130505" lon="4.45522">
        <ele>-200.0</ele>
        <time>2020-09-21T14:52:05Z</time>
      </trkpt>
      <trkpt lat="52.13054" lon="4.455277">
        <ele>-200.0</ele>
        <time>2020-09-21T14:52:06Z</time>
      </trkpt>
      <trkpt lat="52.130577" lon="4.4553328">
        <ele>-200.0</ele>
        <time>2020-09-21T14:52:07Z</time>
      </trkpt>
      <trkpt lat="52.130608" lon="4.455388">
        <ele>-200.0</ele>
        <time>2020-09-21T14:52:08Z</time>
      </trkpt>
      <trkpt lat="52.130642" lon="4.4554415">
        <ele>-200.0</ele>
        <time>2020-09-21T14:52:09Z</time>
      </trkpt>
      <trkpt lat="52.130672" lon="4.455496">
        <ele>-200.0</ele>
        <time>2020-09-21T14:52:10Z</time>
      </trkpt>
      <trkpt lat="52.130707" lon="4.4555507">
        <ele>-200.0</ele>
        <time>2020-09-21T14:52:11Z</time>
      </trkpt>
      <trkpt lat="52.130737" lon="4.4556026">
        <ele>-200.0</ele>
        <time>2020-09-21T14:52:12Z</time>
      </trkpt>
      <trkpt lat="52.130775" lon="4.4556603">
        <ele>-200.0</ele>
        <time>2020-09-21T14:52:13Z</time>
      </trkpt>
      <trkpt lat="52.13081" lon="4.4557176">
        <ele>-200.0</ele>
        <time>2020-09-21T14:52:14Z</time>
      </trkpt>
      <trkpt lat="52.130848" lon="4.455772">
        <ele>-200.0</ele>
        <time>2020-09-21T14:52:15Z</time>
      </trkpt>
      <trkpt lat="52.130882" lon="4.455825">
        <ele>-200.0</ele>
        <time>2020-09-21T14:52:16Z</time>
      </trkpt>
      <trkpt lat="52.130913" lon="4.455879">
        <ele>-200.0</ele>
        <time>2020-09-21T14:52:17Z</time>
      </trkpt>
      <trkpt lat="52.130943" lon="4.4559317">
        <ele>-200.0</ele>
        <time>2020-09-21T14:52:18Z</time>
      </trkpt>
      <trkpt lat="52.13098" lon="4.4559913">
        <ele>-200.0</ele>
        <time>2020-09-21T14:52:19Z</time>
      </trkpt>
      <trkpt lat="52.131012" lon="4.456053">
        <ele>-200.0</ele>
        <time>2020-09-21T14:52:20Z</time>
      </trkpt>
      <trkpt lat="52.131042" lon="4.4561095">
        <ele>-200.0</ele>
        <time>2020-09-21T14:52:21Z</time>
      </trkpt>
      <trkpt lat="52.131073" lon="4.456173">
        <ele>-200.0</ele>
        <time>2020-09-21T14:52:22Z</time>
      </trkpt>
      <trkpt lat="52.131096" lon="4.4562364">
        <ele>-200.0</ele>
        <time>2020-09-21T14:52:23Z</time>
      </trkpt>
      <trkpt lat="52.13113" lon="4.4563003">
        <ele>-200.0</ele>
        <time>2020-09-21T14:52:24Z</time>
      </trkpt>
      <trkpt lat="52.13116" lon="4.456364">
        <ele>-200.0</ele>
        <time>2020-09-21T14:52:25Z</time>
      </trkpt>
      <trkpt lat="52.13119" lon="4.4564285">
        <ele>-200.0</ele>
        <time>2020-09-21T14:52:26Z</time>
      </trkpt>
      <trkpt lat="52.13122" lon="4.4564924">
        <ele>-200.0</ele>
        <time>2020-09-21T14:52:27Z</time>
      </trkpt>
      <trkpt lat="52.131252" lon="4.456558">
        <ele>-200.0</ele>
        <time>2020-09-21T14:52:28Z</time>
      </trkpt>
      <trkpt lat="52.131275" lon="4.4566255">
        <ele>-200.0</ele>
        <time>2020-09-21T14:52:29Z</time>
      </trkpt>
      <trkpt lat="52.131298" lon="4.4566946">
        <ele>-200.0</ele>
        <time>2020-09-21T14:52:30Z</time>
      </trkpt>
      <trkpt lat="52.131325" lon="4.4567637">
        <ele>-200.0</ele>
        <time>2020-09-21T14:52:31Z</time>
      </trkpt>
      <trkpt lat="52.131344" lon="4.4568334">
        <ele>-200.0</ele>
        <time>2020-09-21T14:52:32Z</time>
      </trkpt>
      <trkpt lat="52.131363" lon="4.4569035">
        <ele>-200.0</ele>
        <time>2020-09-21T14:52:33Z</time>
      </trkpt>
      <trkpt lat="52.13139" lon="4.456971">
        <ele>-200.0</ele>
        <time>2020-09-21T14:52:34Z</time>
      </trkpt>
      <trkpt lat="52.131416" lon="4.457036">
        <ele>-200.0</ele>
        <time>2020-09-21T14:52:35Z</time>
      </trkpt>
      <trkpt lat="52.13144" lon="4.4570985">
        <ele>-200.0</ele>
        <time>2020-09-21T14:52:36Z</time>
      </trkpt>
      <trkpt lat="52.131466" lon="4.4571595">
        <ele>-200.0</ele>
        <time>2020-09-21T14:52:37Z</time>
      </trkpt>
      <trkpt lat="52.131493" lon="4.457217">
        <ele>-200.0</ele>
        <time>2020-09-21T14:52:38Z</time>
      </trkpt>
      <trkpt lat="52.131523" lon="4.4572744">
        <ele>-200.0</ele>
        <time>2020-09-21T14:52:39Z</time>
      </trkpt>
      <trkpt lat="52.13155" lon="4.457334">
        <ele>-200.0</ele>
        <time>2020-09-21T14:52:40Z</time>
      </trkpt>
      <trkpt lat="52.131573" lon="4.457395">
        <ele>-200.0</ele>
        <time>2020-09-21T14:52:41Z</time>
      </trkpt>
      <trkpt lat="52.1316" lon="4.4574647">
        <ele>-200.0</ele>
        <time>2020-09-21T14:52:42Z</time>
      </trkpt>
      <trkpt lat="52.131626" lon="4.4575353">
        <ele>-200.0</ele>
        <time>2020-09-21T14:52:43Z</time>
      </trkpt>
      <trkpt lat="52.131657" lon="4.457605">
        <ele>-200.0</ele>
        <time>2020-09-21T14:52:44Z</time>
      </trkpt>
      <trkpt lat="52.13168" lon="4.457674">
        <ele>-200.0</ele>
        <time>2020-09-21T14:52:45Z</time>
      </trkpt>
      <trkpt lat="52.131706" lon="4.457742">
        <ele>-200.0</ele>
        <time>2020-09-21T14:52:46Z</time>
      </trkpt>
      <trkpt lat="52.13173" lon="4.45781">
        <ele>-200.0</ele>
        <time>2020-09-21T14:52:47Z</time>
      </trkpt>
      <trkpt lat="52.131752" lon="4.4578757">
        <ele>-200.0</ele>
        <time>2020-09-21T14:52:48Z</time>
      </trkpt>
      <trkpt lat="52.131775" lon="4.4579396">
        <ele>-200.0</ele>
        <time>2020-09-21T14:52:49Z</time>
      </trkpt>
      <trkpt lat="52.131798" lon="4.4579983">
        <ele>-200.0</ele>
        <time>2020-09-21T14:52:50Z</time>
      </trkpt>
      <trkpt lat="52.13182" lon="4.4580536">
        <ele>-200.0</ele>
        <time>2020-09-21T14:52:51Z</time>
      </trkpt>
      <trkpt lat="52.13184" lon="4.458109">
        <ele>-200.0</ele>
        <time>2020-09-21T14:52:52Z</time>
      </trkpt>
      <trkpt lat="52.13186" lon="4.458163">
        <ele>-200.0</ele>
        <time>2020-09-21T14:52:53Z</time>
      </trkpt>
      <trkpt lat="52.131874" lon="4.4582133">
        <ele>-200.0</ele>
        <time>2020-09-21T14:52:54Z</time>
      </trkpt>
      <trkpt lat="52.13189" lon="4.4582715">
        <ele>-200.0</ele>
        <time>2020-09-21T14:52:55Z</time>
      </trkpt>
      <trkpt lat="52.13191" lon="4.458331">
        <ele>-200.0</ele>
        <time>2020-09-21T14:52:56Z</time>
      </trkpt>
      <trkpt lat="52.131927" lon="4.4583936">
        <ele>-200.0</ele>
        <time>2020-09-21T14:52:57Z</time>
      </trkpt>
      <trkpt lat="52.131954" lon="4.4584575">
        <ele>-200.0</ele>
        <time>2020-09-21T14:52:58Z</time>
      </trkpt>
      <trkpt lat="52.131977" lon="4.4585247">
        <ele>-200.0</ele>
        <time>2020-09-21T14:52:59Z</time>
      </trkpt>
      <trkpt lat="52.132004" lon="4.458593">
        <ele>-200.0</ele>
        <time>2020-09-21T14:53:00Z</time>
      </trkpt>
      <trkpt lat="52.13203" lon="4.4586616">
        <ele>-200.0</ele>
        <time>2020-09-21T14:53:01Z</time>
      </trkpt>
      <trkpt lat="52.13206" lon="4.458727">
        <ele>-200.0</ele>
        <time>2020-09-21T14:53:02Z</time>
      </trkpt>
      <trkpt lat="52.132084" lon="4.4587903">
        <ele>-200.0</ele>
        <time>2020-09-21T14:53:03Z</time>
      </trkpt>
      <trkpt lat="52.13211" lon="4.4588532">
        <ele>-200.0</ele>
        <time>2020-09-21T14:53:04Z</time>
      </trkpt>
      <trkpt lat="52.132137" lon="4.4589167">
        <ele>-200.0</ele>
        <time>2020-09-21T14:53:05Z</time>
      </trkpt>
      <trkpt lat="52.132164" lon="4.458981">
        <ele>-200.0</ele>
        <time>2020-09-21T14:53:06Z</time>
      </trkpt>
      <trkpt lat="52.132187" lon="4.459045">
        <ele>-200.0</ele>
        <time>2020-09-21T14:53:07Z</time>
      </trkpt>
      <trkpt lat="52.132217" lon="4.4591055">
        <ele>-200.0</ele>
        <time>2020-09-21T14:53:08Z</time>
      </trkpt>
      <trkpt lat="52.132244" lon="4.4591684">
        <ele>-200.0</ele>
        <time>2020-09-21T14:53:09Z</time>
      </trkpt>
      <trkpt lat="52.132275" lon="4.459233">
        <ele>-200.0</ele>
        <time>2020-09-21T14:53:10Z</time>
      </trkpt>
      <trkpt lat="52.132305" lon="4.459298">
        <ele>-200.0</ele>
        <time>2020-09-21T14:53:11Z</time>
      </trkpt>
      <trkpt lat="52.132336" lon="4.459364">
        <ele>-200.0</ele>
        <time>2020-09-21T14:53:12Z</time>
      </trkpt>
      <trkpt lat="52.132362" lon="4.459428">
        <ele>-200.0</ele>
        <time>2020-09-21T14:53:13Z</time>
      </trkpt>
      <trkpt lat="52.13239" lon="4.459493">
        <ele>-200.0</ele>
        <time>2020-09-21T14:53:14Z</time>
      </trkpt>
      <trkpt lat="52.132412" lon="4.459562">
        <ele>-200.0</ele>
        <time>2020-09-21T14:53:15Z</time>
      </trkpt>
      <trkpt lat="52.132442" lon="4.459627">
        <ele>-200.0</ele>
        <time>2020-09-21T14:53:16Z</time>
      </trkpt>
      <trkpt lat="52.13247" lon="4.459687">
        <ele>-200.0</ele>
        <time>2020-09-21T14:53:17Z</time>
      </trkpt>
      <trkpt lat="52.132496" lon="4.4597526">
        <ele>-200.0</ele>
        <time>2020-09-21T14:53:18Z</time>
      </trkpt>
      <trkpt lat="52.132526" lon="4.4598145">
        <ele>-200.0</ele>
        <time>2020-09-21T14:53:19Z</time>
      </trkpt>
      <trkpt lat="52.132553" lon="4.4598765">
        <ele>-200.0</ele>
        <time>2020-09-21T14:53:20Z</time>
      </trkpt>
      <trkpt lat="52.132572" lon="4.459939">
        <ele>-200.0</ele>
        <time>2020-09-21T14:53:21Z</time>
      </trkpt>
      <trkpt lat="52.13259" lon="4.459997">
        <ele>-200.0</ele>
        <time>2020-09-21T14:53:22Z</time>
      </trkpt>
      <trkpt lat="52.132618" lon="4.4600606">
        <ele>-200.0</ele>
        <time>2020-09-21T14:53:23Z</time>
      </trkpt>
      <trkpt lat="52.132637" lon="4.460124">
        <ele>-200.0</ele>
        <time>2020-09-21T14:53:24Z</time>
      </trkpt>
      <trkpt lat="52.13266" lon="4.4601884">
        <ele>-200.0</ele>
        <time>2020-09-21T14:53:25Z</time>
      </trkpt>
      <trkpt lat="52.13268" lon="4.460254">
        <ele>-200.0</ele>
        <time>2020-09-21T14:53:26Z</time>
      </trkpt>
      <trkpt lat="52.1327" lon="4.460317">
        <ele>-200.0</ele>
        <time>2020-09-21T14:53:27Z</time>
      </trkpt>
      <trkpt lat="52.132725" lon="4.460382">
        <ele>-200.0</ele>
        <time>2020-09-21T14:53:28Z</time>
      </trkpt>
      <trkpt lat="52.13275" lon="4.460445">
        <ele>-200.0</ele>
        <time>2020-09-21T14:53:29Z</time>
      </trkpt>
      <trkpt lat="52.13278" lon="4.4605026">
        <ele>-200.0</ele>
        <time>2020-09-21T14:53:30Z</time>
      </trkpt>
      <trkpt lat="52.1328" lon="4.460561">
        <ele>-200.0</ele>
        <time>2020-09-21T14:53:31Z</time>
      </trkpt>
      <trkpt lat="52.13283" lon="4.460623">
        <ele>-200.0</ele>
        <time>2020-09-21T14:53:32Z</time>
      </trkpt>
      <trkpt lat="52.132866" lon="4.4606824">
        <ele>-200.0</ele>
        <time>2020-09-21T14:53:33Z</time>
      </trkpt>
      <trkpt lat="52.13289" lon="4.4607444">
        <ele>-200.0</ele>
        <time>2020-09-21T14:53:34Z</time>
      </trkpt>
      <trkpt lat="52.132915" lon="4.4608088">
        <ele>-200.0</ele>
        <time>2020-09-21T14:53:35Z</time>
      </trkpt>
      <trkpt lat="52.132942" lon="4.460875">
        <ele>-200.0</ele>
        <time>2020-09-21T14:53:36Z</time>
      </trkpt>
      <trkpt lat="52.132965" lon="4.460943">
        <ele>-200.0</ele>
        <time>2020-09-21T14:53:37Z</time>
      </trkpt>
      <trkpt lat="52.13299" lon="4.461013">
        <ele>-200.0</ele>
        <time>2020-09-21T14:53:38Z</time>
      </trkpt>
      <trkpt lat="52.13302" lon="4.4610777">
        <ele>-200.0</ele>
        <time>2020-09-21T14:53:39Z</time>
      </trkpt>
      <trkpt lat="52.13304" lon="4.461149">
        <ele>-200.0</ele>
        <time>2020-09-21T14:53:40Z</time>
      </trkpt>
      <trkpt lat="52.133076" lon="4.461218">
        <ele>-200.0</ele>
        <time>2020-09-21T14:53:41Z</time>
      </trkpt>
      <trkpt lat="52.133106" lon="4.4612846">
        <ele>-200.0</ele>
        <time>2020-09-21T14:53:42Z</time>
      </trkpt>
      <trkpt lat="52.133137" lon="4.46135">
        <ele>-200.0</ele>
        <time>2020-09-21T14:53:43Z</time>
      </trkpt>
      <trkpt lat="52.133167" lon="4.461418">
        <ele>-200.0</ele>
        <time>2020-09-21T14:53:44Z</time>
      </trkpt>
      <trkpt lat="52.133198" lon="4.4614882">
        <ele>-200.0</ele>
        <time>2020-09-21T14:53:45Z</time>
      </trkpt>
      <trkpt lat="52.13323" lon="4.4615593">
        <ele>-200.0</ele>
        <time>2020-09-21T14:53:46Z</time>
      </trkpt>
      <trkpt lat="52.133255" lon="4.461631">
        <ele>-200.0</ele>
        <time>2020-09-21T14:53:47Z</time>
      </trkpt>
      <trkpt lat="52.133286" lon="4.4617057">
        <ele>-200.0</ele>
        <time>2020-09-21T14:53:48Z</time>
      </trkpt>
      <trkpt lat="52.13331" lon="4.46178">
        <ele>-200.0</ele>
        <time>2020-09-21T14:53:49Z</time>
      </trkpt>
      <trkpt lat="52.13333" lon="4.4618587">
        <ele>-200.0</ele>
        <time>2020-09-21T14:53:50Z</time>
      </trkpt>
      <trkpt lat="52.133354" lon="4.4619384">
        <ele>-200.0</ele>
        <time>2020-09-21T14:53:51Z</time>
      </trkpt>
      <trkpt lat="52.13338" lon="4.462018">
        <ele>-200.0</ele>
        <time>2020-09-21T14:53:52Z</time>
      </trkpt>
      <trkpt lat="52.1334" lon="4.4620934">
        <ele>-200.0</ele>
        <time>2020-09-21T14:53:53Z</time>
      </trkpt>
      <trkpt lat="52.133423" lon="4.462166">
        <ele>-200.0</ele>
        <time>2020-09-21T14:53:54Z</time>
      </trkpt>
      <trkpt lat="52.13345" lon="4.462233">
        <ele>-200.0</ele>
        <time>2020-09-21T14:53:55Z</time>
      </trkpt>
      <trkpt lat="52.133472" lon="4.4622984">
        <ele>-200.0</ele>
        <time>2020-09-21T14:53:56Z</time>
      </trkpt>
      <trkpt lat="52.133495" lon="4.4623623">
        <ele>-200.0</ele>
        <time>2020-09-21T14:53:57Z</time>
      </trkpt>
      <trkpt lat="52.13352" lon="4.462424">
        <ele>-200.0</ele>
        <time>2020-09-21T14:53:58Z</time>
      </trkpt>
      <trkpt lat="52.133545" lon="4.4624867">
        <ele>-200.0</ele>
        <time>2020-09-21T14:53:59Z</time>
      </trkpt>
      <trkpt lat="52.133564" lon="4.462549">
        <ele>-200.0</ele>
        <time>2020-09-21T14:54:00Z</time>
      </trkpt>
      <trkpt lat="52.13359" lon="4.4626107">
        <ele>-200.0</ele>
        <time>2020-09-21T14:54:01Z</time>
      </trkpt>
      <trkpt lat="52.133606" lon="4.46267">
        <ele>-200.0</ele>
        <time>2020-09-21T14:54:02Z</time>
      </trkpt>
      <trkpt lat="52.133625" lon="4.462728">
        <ele>-200.0</ele>
        <time>2020-09-21T14:54:03Z</time>
      </trkpt>
      <trkpt lat="52.133648" lon="4.462785">
        <ele>-200.0</ele>
        <time>2020-09-21T14:54:03Z</time>
      </trkpt>
      <trkpt lat="52.133663" lon="4.462839">
        <ele>-200.0</ele>
        <time>2020-09-21T14:54:04Z</time>
      </trkpt>
      <trkpt lat="52.133682" lon="4.462893">
        <ele>-200.0</ele>
        <time>2020-09-21T14:54:05Z</time>
      </trkpt>
      <trkpt lat="52.133698" lon="4.4629455">
        <ele>-200.0</ele>
        <time>2020-09-21T14:54:06Z</time>
      </trkpt>
      <trkpt lat="52.13372" lon="4.4629993">
        <ele>-200.0</ele>
        <time>2020-09-21T14:54:07Z</time>
      </trkpt>
      <trkpt lat="52.13374" lon="4.4630523">
        <ele>-200.0</ele>
        <time>2020-09-21T14:54:08Z</time>
      </trkpt>
      <trkpt lat="52.13376" lon="4.463102">
        <ele>-200.0</ele>
        <time>2020-09-21T14:54:09Z</time>
      </trkpt>
      <trkpt lat="52.13378" lon="4.4631586">
        <ele>-200.0</ele>
        <time>2020-09-21T14:54:10Z</time>
      </trkpt>
      <trkpt lat="52.1338" lon="4.463217">
        <ele>-200.0</ele>
        <time>2020-09-21T14:54:11Z</time>
      </trkpt>
      <trkpt lat="52.13382" lon="4.4632754">
        <ele>-200.0</ele>
        <time>2020-09-21T14:54:12Z</time>
      </trkpt>
      <trkpt lat="52.13384" lon="4.4633327">
        <ele>-200.0</ele>
        <time>2020-09-21T14:54:13Z</time>
      </trkpt>
      <trkpt lat="52.133858" lon="4.46339">
        <ele>-200.0</ele>
        <time>2020-09-21T14:54:14Z</time>
      </trkpt>
      <trkpt lat="52.133877" lon="4.4634457">
        <ele>-200.0</ele>
        <time>2020-09-21T14:54:15Z</time>
      </trkpt>
      <trkpt lat="52.1339" lon="4.463499">
        <ele>-200.0</ele>
        <time>2020-09-21T14:54:16Z</time>
      </trkpt>
      <trkpt lat="52.133915" lon="4.4635515">
        <ele>-200.0</ele>
        <time>2020-09-21T14:54:17Z</time>
      </trkpt>
      <trkpt lat="52.133934" lon="4.463603">
        <ele>-200.0</ele>
        <time>2020-09-21T14:54:18Z</time>
      </trkpt>
      <trkpt lat="52.133953" lon="4.4636545">
        <ele>-200.0</ele>
        <time>2020-09-21T14:54:19Z</time>
      </trkpt>
      <trkpt lat="52.13397" lon="4.4637094">
        <ele>-200.0</ele>
        <time>2020-09-21T14:54:20Z</time>
      </trkpt>
      <trkpt lat="52.13399" lon="4.463766">
        <ele>-200.0</ele>
        <time>2020-09-21T14:54:21Z</time>
      </trkpt>
      <trkpt lat="52.13401" lon="4.4638257">
        <ele>-200.0</ele>
        <time>2020-09-21T14:54:22Z</time>
      </trkpt>
      <trkpt lat="52.134033" lon="4.4638863">
        <ele>-200.0</ele>
        <time>2020-09-21T14:54:23Z</time>
      </trkpt>
      <trkpt lat="52.134052" lon="4.4639482">
        <ele>-200.0</ele>
        <time>2020-09-21T14:54:24Z</time>
      </trkpt>
      <trkpt lat="52.13407" lon="4.4640126">
        <ele>-200.0</ele>
        <time>2020-09-21T14:54:25Z</time>
      </trkpt>
      <trkpt lat="52.134094" lon="4.464078">
        <ele>-200.0</ele>
        <time>2020-09-21T14:54:26Z</time>
      </trkpt>
      <trkpt lat="52.134113" lon="4.46414">
        <ele>-200.0</ele>
        <time>2020-09-21T14:54:27Z</time>
      </trkpt>
      <trkpt lat="52.134132" lon="4.4642034">
        <ele>-200.0</ele>
        <time>2020-09-21T14:54:28Z</time>
      </trkpt>
      <trkpt lat="52.134155" lon="4.4642653">
        <ele>-200.0</ele>
        <time>2020-09-21T14:54:29Z</time>
      </trkpt>
      <trkpt lat="52.13417" lon="4.464328">
        <ele>-200.0</ele>
        <time>2020-09-21T14:54:30Z</time>
      </trkpt>
      <trkpt lat="52.134186" lon="4.4643893">
        <ele>-200.0</ele>
        <time>2020-09-21T14:54:31Z</time>
      </trkpt>
      <trkpt lat="52.1342" lon="4.4644475">
        <ele>-200.0</ele>
        <time>2020-09-21T14:54:32Z</time>
      </trkpt>
      <trkpt lat="52.134216" lon="4.464503">
        <ele>-200.0</ele>
        <time>2020-09-21T14:54:33Z</time>
      </trkpt>
      <trkpt lat="52.13423" lon="4.4645596">
        <ele>-200.0</ele>
        <time>2020-09-21T14:54:34Z</time>
      </trkpt>
      <trkpt lat="52.134247" lon="4.464615">
        <ele>-200.0</ele>
        <time>2020-09-21T14:54:35Z</time>
      </trkpt>
      <trkpt lat="52.134262" lon="4.4646673">
        <ele>-200.0</ele>
        <time>2020-09-21T14:54:36Z</time>
      </trkpt>
      <trkpt lat="52.13428" lon="4.4647207">
        <ele>-200.0</ele>
        <time>2020-09-21T14:54:37Z</time>
      </trkpt>
      <trkpt lat="52.134304" lon="4.464779">
        <ele>-200.0</ele>
        <time>2020-09-21T14:54:38Z</time>
      </trkpt>
      <trkpt lat="52.134323" lon="4.464833">
        <ele>-200.0</ele>
        <time>2020-09-21T14:54:39Z</time>
      </trkpt>
      <trkpt lat="52.134342" lon="4.4648857">
        <ele>-200.0</ele>
        <time>2020-09-21T14:54:40Z</time>
      </trkpt>
      <trkpt lat="52.134365" lon="4.464938">
        <ele>-200.0</ele>
        <time>2020-09-21T14:54:41Z</time>
      </trkpt>
      <trkpt lat="52.134388" lon="4.4649897">
        <ele>-200.0</ele>
        <time>2020-09-21T14:54:42Z</time>
      </trkpt>
      <trkpt lat="52.134415" lon="4.46504">
        <ele>-200.0</ele>
        <time>2020-09-21T14:54:43Z</time>
      </trkpt>
      <trkpt lat="52.13444" lon="4.4650927">
        <ele>-200.0</ele>
        <time>2020-09-21T14:54:44Z</time>
      </trkpt>
      <trkpt lat="52.13446" lon="4.46515">
        <ele>-200.0</ele>
        <time>2020-09-21T14:54:45Z</time>
      </trkpt>
      <trkpt lat="52.134483" lon="4.465206">
        <ele>-200.0</ele>
        <time>2020-09-21T14:54:46Z</time>
      </trkpt>
      <trkpt lat="52.1345" lon="4.465265">
        <ele>-200.0</ele>
        <time>2020-09-21T14:54:47Z</time>
      </trkpt>
      <trkpt lat="52.134518" lon="4.4653273">
        <ele>-200.0</ele>
        <time>2020-09-21T14:54:48Z</time>
      </trkpt>
      <trkpt lat="52.134533" lon="4.4653864">
        <ele>-200.0</ele>
        <time>2020-09-21T14:54:49Z</time>
      </trkpt>
      <trkpt lat="52.134552" lon="4.465446">
        <ele>-200.0</ele>
        <time>2020-09-21T14:54:50Z</time>
      </trkpt>
      <trkpt lat="52.134563" lon="4.465509">
        <ele>-200.0</ele>
        <time>2020-09-21T14:54:51Z</time>
      </trkpt>
      <trkpt lat="52.13458" lon="4.465572">
        <ele>-200.0</ele>
        <time>2020-09-21T14:54:52Z</time>
      </trkpt>
      <trkpt lat="52.13459" lon="4.4656353">
        <ele>-200.0</ele>
        <time>2020-09-21T14:54:53Z</time>
      </trkpt>
      <trkpt lat="52.134594" lon="4.4657035">
        <ele>-200.0</ele>
        <time>2020-09-21T14:54:54Z</time>
      </trkpt>
      <trkpt lat="52.134594" lon="4.4657717">
        <ele>-200.0</ele>
        <time>2020-09-21T14:54:55Z</time>
      </trkpt>
      <trkpt lat="52.134594" lon="4.4658427">
        <ele>-100.0</ele>
        <time>2020-09-21T14:54:56Z</time>
      </trkpt>
      <trkpt lat="52.134598" lon="4.465913">
        <ele>-100.0</ele>
        <time>2020-09-21T14:54:57Z</time>
      </trkpt>
      <trkpt lat="52.134605" lon="4.4659786">
        <ele>-100.0</ele>
        <time>2020-09-21T14:54:58Z</time>
      </trkpt>
      <trkpt lat="52.13462" lon="4.4660406">
        <ele>-100.0</ele>
        <time>2020-09-21T14:54:59Z</time>
      </trkpt>
      <trkpt lat="52.134632" lon="4.4661026">
        <ele>-100.0</ele>
        <time>2020-09-21T14:55:00Z</time>
      </trkpt>
      <trkpt lat="52.134647" lon="4.466164">
        <ele>-100.0</ele>
        <time>2020-09-21T14:55:01Z</time>
      </trkpt>
      <trkpt lat="52.134666" lon="4.466228">
        <ele>-100.0</ele>
        <time>2020-09-21T14:55:02Z</time>
      </trkpt>
      <trkpt lat="52.134693" lon="4.4662924">
        <ele>-100.0</ele>
        <time>2020-09-21T14:55:03Z</time>
      </trkpt>
      <trkpt lat="52.134716" lon="4.466357">
        <ele>-100.0</ele>
        <time>2020-09-21T14:55:04Z</time>
      </trkpt>
      <trkpt lat="52.13474" lon="4.466421">
        <ele>-100.0</ele>
        <time>2020-09-21T14:55:05Z</time>
      </trkpt>
      <trkpt lat="52.13476" lon="4.466484">
        <ele>-100.0</ele>
        <time>2020-09-21T14:55:06Z</time>
      </trkpt>
      <trkpt lat="52.13479" lon="4.4665475">
        <ele>-100.0</ele>
        <time>2020-09-21T14:55:07Z</time>
      </trkpt>
      <trkpt lat="52.134815" lon="4.4666066">
        <ele>-100.0</ele>
        <time>2020-09-21T14:55:08Z</time>
      </trkpt>
      <trkpt lat="52.13485" lon="4.466657">
        <ele>-100.0</ele>
        <time>2020-09-21T14:55:09Z</time>
      </trkpt>
      <trkpt lat="52.134888" lon="4.4667">
        <ele>-100.0</ele>
        <time>2020-09-21T14:55:10Z</time>
      </trkpt>
      <trkpt lat="52.13492" lon="4.466733">
        <ele>-100.0</ele>
        <time>2020-09-21T14:55:11Z</time>
      </trkpt>
      <trkpt lat="52.134956" lon="4.466772">
        <ele>-100.0</ele>
        <time>2020-09-21T14:55:12Z</time>
      </trkpt>
      <trkpt lat="52.134995" lon="4.4668136">
        <ele>-100.0</ele>
        <time>2020-09-21T14:55:13Z</time>
      </trkpt>
      <trkpt lat="52.13503" lon="4.4668527">
        <ele>-100.0</ele>
        <time>2020-09-21T14:55:14Z</time>
      </trkpt>
      <trkpt lat="52.135067" lon="4.4668927">
        <ele>-100.0</ele>
        <time>2020-09-21T14:55:15Z</time>
      </trkpt>
      <trkpt lat="52.13509" lon="4.46694">
        <ele>-100.0</ele>
        <time>2020-09-21T14:55:16Z</time>
      </trkpt>
      <trkpt lat="52.135117" lon="4.46699">
        <ele>0.0</ele>
        <time>2020-09-21T14:55:17Z</time>
      </trkpt>
      <trkpt lat="52.135143" lon="4.467043">
        <ele>0.0</ele>
        <time>2020-09-21T14:55:18Z</time>
      </trkpt>
      <trkpt lat="52.135162" lon="4.467093">
        <ele>0.0</ele>
        <time>2020-09-21T14:55:19Z</time>
      </trkpt>
      <trkpt lat="52.13519" lon="4.4671493">
        <ele>0.0</ele>
        <time>2020-09-21T14:55:20Z</time>
      </trkpt>
      <trkpt lat="52.13521" lon="4.467202">
        <ele>0.0</ele>
        <time>2020-09-21T14:55:21Z</time>
      </trkpt>
      <trkpt lat="52.135223" lon="4.467254">
        <ele>0.0</ele>
        <time>2020-09-21T14:55:22Z</time>
      </trkpt>
      <trkpt lat="52.135246" lon="4.4673095">
        <ele>0.0</ele>
        <time>2020-09-21T14:55:23Z</time>
      </trkpt>
      <trkpt lat="52.135265" lon="4.4673643">
        <ele>0.0</ele>
        <time>2020-09-21T14:55:24Z</time>
      </trkpt>
      <trkpt lat="52.135284" lon="4.4674225">
        <ele>0.0</ele>
        <time>2020-09-21T14:55:25Z</time>
      </trkpt>
      <trkpt lat="52.13531" lon="4.4674826">
        <ele>0.0</ele>
        <time>2020-09-21T14:55:26Z</time>
      </trkpt>
      <trkpt lat="52.13533" lon="4.467538">
        <ele>0.0</ele>
        <time>2020-09-21T14:55:27Z</time>
      </trkpt>
      <trkpt lat="52.135353" lon="4.467588">
        <ele>0.0</ele>
        <time>2020-09-21T14:55:28Z</time>
      </trkpt>
      <trkpt lat="52.13537" lon="4.467636">
        <ele>0.0</ele>
        <time>2020-09-21T14:55:29Z</time>
      </trkpt>
      <trkpt lat="52.135384" lon="4.4676766">
        <ele>0.0</ele>
        <time>2020-09-21T14:55:30Z</time>
      </trkpt>
      <trkpt lat="52.135395" lon="4.467709">
        <ele>0.0</ele>
        <time>2020-09-21T14:55:31Z</time>
      </trkpt>
      <trkpt lat="52.135403" lon="4.467734">
        <ele>0.0</ele>
        <time>2020-09-21T14:55:32Z</time>
      </trkpt>
      <trkpt lat="52.135403" lon="4.4677505">
        <ele>0.0</ele>
        <time>2020-09-21T14:55:33Z</time>
      </trkpt>
      <trkpt lat="52.13541" lon="4.4677577">
        <ele>0.0</ele>
        <time>2020-09-21T14:55:34Z</time>
      </trkpt>
      <trkpt lat="52.13541" lon="4.4677587">
        <ele>0.0</ele>
        <time>2020-09-21T14:55:35Z</time>
      </trkpt>
      <trkpt lat="52.13541" lon="4.467756">
        <ele>0.0</ele>
        <time>2020-09-21T14:55:36Z</time>
      </trkpt>
      <trkpt lat="52.135418" lon="4.4677563">
        <ele>0.0</ele>
        <time>2020-09-21T14:55:43Z</time>
      </trkpt>
      <trkpt lat="52.135418" lon="4.4677567">
        <ele>0.0</ele>
        <time>2020-09-21T14:55:44Z</time>
      </trkpt>
      <trkpt lat="52.135418" lon="4.4677796">
        <ele>0.0</ele>
        <time>2020-09-21T14:56:09Z</time>
      </trkpt>
      <trkpt lat="52.135418" lon="4.4677796">
        <ele>0.0</ele>
        <time>2020-09-21T14:56:10Z</time>
      </trkpt>
      <trkpt lat="52.135418" lon="4.4677806">
        <ele>0.0</ele>
        <time>2020-09-21T14:56:11Z</time>
      </trkpt>
      <trkpt lat="52.135418" lon="4.467782">
        <ele>0.0</ele>
        <time>2020-09-21T14:56:12Z</time>
      </trkpt>
      <trkpt lat="52.135414" lon="4.4677835">
        <ele>0.0</ele>
        <time>2020-09-21T14:56:13Z</time>
      </trkpt>
      <trkpt lat="52.13541" lon="4.4677854">
        <ele>0.0</ele>
        <time>2020-09-21T14:56:14Z</time>
      </trkpt>
      <trkpt lat="52.13541" lon="4.4677873">
        <ele>0.0</ele>
        <time>2020-09-21T14:56:15Z</time>
      </trkpt>
      <trkpt lat="52.135403" lon="4.4677896">
        <ele>0.0</ele>
        <time>2020-09-21T14:56:16Z</time>
      </trkpt>
      <trkpt lat="52.13541" lon="4.4678245">
        <ele>0.0</ele>
        <time>2020-09-21T14:56:18Z</time>
      </trkpt>
      <trkpt lat="52.13541" lon="4.467832">
        <ele>0.0</ele>
        <time>2020-09-21T14:56:19Z</time>
      </trkpt>
      <trkpt lat="52.135414" lon="4.4678493">
        <ele>0.0</ele>
        <time>2020-09-21T14:56:20Z</time>
      </trkpt>
      <trkpt lat="52.135426" lon="4.467875">
        <ele>0.0</ele>
        <time>2020-09-21T14:56:21Z</time>
      </trkpt>
      <trkpt lat="52.135433" lon="4.4679065">
        <ele>0.0</ele>
        <time>2020-09-21T14:56:22Z</time>
      </trkpt>
      <trkpt lat="52.135445" lon="4.467943">
        <ele>0.0</ele>
        <time>2020-09-21T14:56:23Z</time>
      </trkpt>
      <trkpt lat="52.13546" lon="4.4679837">
        <ele>0.0</ele>
        <time>2020-09-21T14:56:24Z</time>
      </trkpt>
      <trkpt lat="52.135475" lon="4.468027">
        <ele>0.0</ele>
        <time>2020-09-21T14:56:25Z</time>
      </trkpt>
      <trkpt lat="52.13549" lon="4.4680724">
        <ele>0.0</ele>
        <time>2020-09-21T14:56:26Z</time>
      </trkpt>
      <trkpt lat="52.135506" lon="4.468119">
        <ele>0.0</ele>
        <time>2020-09-21T14:56:27Z</time>
      </trkpt>
      <trkpt lat="52.13552" lon="4.468168">
        <ele>0.0</ele>
        <time>2020-09-21T14:56:28Z</time>
      </trkpt>
      <trkpt lat="52.13554" lon="4.4682198">
        <ele>0.0</ele>
        <time>2020-09-21T14:56:29Z</time>
      </trkpt>
      <trkpt lat="52.135555" lon="4.468275">
        <ele>0.0</ele>
        <time>2020-09-21T14:56:30Z</time>
      </trkpt>
      <trkpt lat="52.13558" lon="4.4683313">
        <ele>100.0</ele>
        <time>2020-09-21T14:56:31Z</time>
      </trkpt>
      <trkpt lat="52.135597" lon="4.4683895">
        <ele>100.0</ele>
        <time>2020-09-21T14:56:32Z</time>
      </trkpt>
      <trkpt lat="52.13562" lon="4.468448">
        <ele>100.0</ele>
        <time>2020-09-21T14:56:33Z</time>
      </trkpt>
      <trkpt lat="52.13564" lon="4.468507">
        <ele>100.0</ele>
        <time>2020-09-21T14:56:34Z</time>
      </trkpt>
      <trkpt lat="52.13566" lon="4.4685664">
        <ele>100.0</ele>
        <time>2020-09-21T14:56:35Z</time>
      </trkpt>
      <trkpt lat="52.13568" lon="4.4686255">
        <ele>100.0</ele>
        <time>2020-09-21T14:56:36Z</time>
      </trkpt>
      <trkpt lat="52.135704" lon="4.4686866">
        <ele>100.0</ele>
        <time>2020-09-21T14:56:37Z</time>
      </trkpt>
      <trkpt lat="52.13573" lon="4.4687524">
        <ele>100.0</ele>
        <time>2020-09-21T14:56:38Z</time>
      </trkpt>
      <trkpt lat="52.135757" lon="4.468814">
        <ele>100.0</ele>
        <time>2020-09-21T14:56:39Z</time>
      </trkpt>
      <trkpt lat="52.135784" lon="4.4688773">
        <ele>0.0</ele>
        <time>2020-09-21T14:56:40Z</time>
      </trkpt>
      <trkpt lat="52.135815" lon="4.468946">
        <ele>0.0</ele>
        <time>2020-09-21T14:56:41Z</time>
      </trkpt>
      <trkpt lat="52.135838" lon="4.4690156">
        <ele>0.0</ele>
        <time>2020-09-21T14:56:42Z</time>
      </trkpt>
      <trkpt lat="52.135868" lon="4.469085">
        <ele>0.0</ele>
        <time>2020-09-21T14:56:43Z</time>
      </trkpt>
      <trkpt lat="52.135895" lon="4.4691553">
        <ele>0.0</ele>
        <time>2020-09-21T14:56:44Z</time>
      </trkpt>
      <trkpt lat="52.135925" lon="4.4692264">
        <ele>0.0</ele>
        <time>2020-09-21T14:56:45Z</time>
      </trkpt>
      <trkpt lat="52.135952" lon="4.4692974">
        <ele>0.0</ele>
        <time>2020-09-21T14:56:46Z</time>
      </trkpt>
      <trkpt lat="52.13598" lon="4.469367">
        <ele>0.0</ele>
        <time>2020-09-21T14:56:47Z</time>
      </trkpt>
      <trkpt lat="52.136" lon="4.469436">
        <ele>0.0</ele>
        <time>2020-09-21T14:56:48Z</time>
      </trkpt>
      <trkpt lat="52.136032" lon="4.4695063">
        <ele>0.0</ele>
        <time>2020-09-21T14:56:49Z</time>
      </trkpt>
      <trkpt lat="52.136055" lon="4.469576">
        <ele>0.0</ele>
        <time>2020-09-21T14:56:50Z</time>
      </trkpt>
      <trkpt lat="52.136086" lon="4.4696474">
        <ele>0.0</ele>
        <time>2020-09-21T14:56:51Z</time>
      </trkpt>
      <trkpt lat="52.13611" lon="4.469725">
        <ele>0.0</ele>
        <time>2020-09-21T14:56:52Z</time>
      </trkpt>
      <trkpt lat="52.13613" lon="4.4698033">
        <ele>0.0</ele>
        <time>2020-09-21T14:56:53Z</time>
      </trkpt>
      <trkpt lat="52.13615" lon="4.469879">
        <ele>0.0</ele>
        <time>2020-09-21T14:56:54Z</time>
      </trkpt>
      <trkpt lat="52.136173" lon="4.4699473">
        <ele>0.0</ele>
        <time>2020-09-21T14:56:55Z</time>
      </trkpt>
      <trkpt lat="52.136192" lon="4.4700203">
        <ele>-100.0</ele>
        <time>2020-09-21T14:56:56Z</time>
      </trkpt>
      <trkpt lat="52.13621" lon="4.4700904">
        <ele>-100.0</ele>
        <time>2020-09-21T14:56:57Z</time>
      </trkpt>
      <trkpt lat="52.13624" lon="4.470157">
        <ele>-100.0</ele>
        <time>2020-09-21T14:56:58Z</time>
      </trkpt>
      <trkpt lat="52.136265" lon="4.470224">
        <ele>-100.0</ele>
        <time>2020-09-21T14:56:59Z</time>
      </trkpt>
      <trkpt lat="52.136288" lon="4.4702907">
        <ele>-100.0</ele>
        <time>2020-09-21T14:57:00Z</time>
      </trkpt>
      <trkpt lat="52.13631" lon="4.470358">
        <ele>-100.0</ele>
        <time>2020-09-21T14:57:01Z</time>
      </trkpt>
      <trkpt lat="52.136333" lon="4.4704237">
        <ele>-100.0</ele>
        <time>2020-09-21T14:57:02Z</time>
      </trkpt>
      <trkpt lat="52.136356" lon="4.4704885">
        <ele>-100.0</ele>
        <time>2020-09-21T14:57:03Z</time>
      </trkpt>
      <trkpt lat="52.136383" lon="4.4705515">
        <ele>-100.0</ele>
        <time>2020-09-21T14:57:04Z</time>
      </trkpt>
      <trkpt lat="52.136406" lon="4.470614">
        <ele>-100.0</ele>
        <time>2020-09-21T14:57:05Z</time>
      </trkpt>
      <trkpt lat="52.136433" lon="4.47068">
        <ele>-100.0</ele>
        <time>2020-09-21T14:57:06Z</time>
      </trkpt>
      <trkpt lat="52.13645" lon="4.470751">
        <ele>-100.0</ele>
        <time>2020-09-21T14:57:07Z</time>
      </trkpt>
      <trkpt lat="52.136475" lon="4.4708233">
        <ele>-100.0</ele>
        <time>2020-09-21T14:57:08Z</time>
      </trkpt>
      <trkpt lat="52.13649" lon="4.4708924">
        <ele>-100.0</ele>
        <time>2020-09-21T14:57:09Z</time>
      </trkpt>
      <trkpt lat="52.136505" lon="4.470967">
        <ele>-100.0</ele>
        <time>2020-09-21T14:57:10Z</time>
      </trkpt>
      <trkpt lat="52.136524" lon="4.4710374">
        <ele>-100.0</ele>
        <time>2020-09-21T14:57:11Z</time>
      </trkpt>
      <trkpt lat="52.13654" lon="4.471104">
        <ele>-100.0</ele>
        <time>2020-09-21T14:57:12Z</time>
      </trkpt>
      <trkpt lat="52.136555" lon="4.471171">
        <ele>-100.0</ele>
        <time>2020-09-21T14:57:13Z</time>
      </trkpt>
      <trkpt lat="52.13657" lon="4.4712377">
        <ele>-100.0</ele>
        <time>2020-09-21T14:57:14Z</time>
      </trkpt>
      <trkpt lat="52.136585" lon="4.4713054">
        <ele>-100.0</ele>
        <time>2020-09-21T14:57:15Z</time>
      </trkpt>
      <trkpt lat="52.1366" lon="4.4713736">
        <ele>-100.0</ele>
        <time>2020-09-21T14:57:16Z</time>
      </trkpt>
      <trkpt lat="52.136616" lon="4.471443">
        <ele>-100.0</ele>
        <time>2020-09-21T14:57:17Z</time>
      </trkpt>
      <trkpt lat="52.13663" lon="4.471513">
        <ele>-100.0</ele>
        <time>2020-09-21T14:57:18Z</time>
      </trkpt>
      <trkpt lat="52.136654" lon="4.471584">
        <ele>-100.0</ele>
        <time>2020-09-21T14:57:19Z</time>
      </trkpt>
      <trkpt lat="52.13667" lon="4.4716554">
        <ele>-100.0</ele>
        <time>2020-09-21T14:57:20Z</time>
      </trkpt>
      <trkpt lat="52.13669" lon="4.471728">
        <ele>-100.0</ele>
        <time>2020-09-21T14:57:21Z</time>
      </trkpt>
      <trkpt lat="52.136707" lon="4.4718">
        <ele>-100.0</ele>
        <time>2020-09-21T14:57:22Z</time>
      </trkpt>
      <trkpt lat="52.136734" lon="4.4718738">
        <ele>-100.0</ele>
        <time>2020-09-21T14:57:23Z</time>
      </trkpt>
      <trkpt lat="52.13676" lon="4.4719486">
        <ele>-100.0</ele>
        <time>2020-09-21T14:57:24Z</time>
      </trkpt>
      <trkpt lat="52.13678" lon="4.4720216">
        <ele>-100.0</ele>
        <time>2020-09-21T14:57:25Z</time>
      </trkpt>
      <trkpt lat="52.136806" lon="4.4720945">
        <ele>-100.0</ele>
        <time>2020-09-21T14:57:26Z</time>
      </trkpt>
      <trkpt lat="52.136833" lon="4.472167">
        <ele>-100.0</ele>
        <time>2020-09-21T14:57:27Z</time>
      </trkpt>
      <trkpt lat="52.136856" lon="4.4722395">
        <ele>-100.0</ele>
        <time>2020-09-21T14:57:28Z</time>
      </trkpt>
      <trkpt lat="52.136883" lon="4.4723163">
        <ele>-100.0</ele>
        <time>2020-09-21T14:57:29Z</time>
      </trkpt>
      <trkpt lat="52.13691" lon="4.4723854">
        <ele>-100.0</ele>
        <time>2020-09-21T14:57:30Z</time>
      </trkpt>
      <trkpt lat="52.13693" lon="4.4724565">
        <ele>-100.0</ele>
        <time>2020-09-21T14:57:31Z</time>
      </trkpt>
      <trkpt lat="52.136955" lon="4.4725266">
        <ele>-100.0</ele>
        <time>2020-09-21T14:57:32Z</time>
      </trkpt>
      <trkpt lat="52.136974" lon="4.4725976">
        <ele>-100.0</ele>
        <time>2020-09-21T14:57:33Z</time>
      </trkpt>
      <trkpt lat="52.137" lon="4.472669">
        <ele>-100.0</ele>
        <time>2020-09-21T14:57:34Z</time>
      </trkpt>
      <trkpt lat="52.137028" lon="4.4727387">
        <ele>-100.0</ele>
        <time>2020-09-21T14:57:35Z</time>
      </trkpt>
      <trkpt lat="52.13705" lon="4.472806">
        <ele>-100.0</ele>
        <time>2020-09-21T14:57:36Z</time>
      </trkpt>
      <trkpt lat="52.13708" lon="4.472871">
        <ele>-100.0</ele>
        <time>2020-09-21T14:57:37Z</time>
      </trkpt>
      <trkpt lat="52.137115" lon="4.4729357">
        <ele>-100.0</ele>
        <time>2020-09-21T14:57:38Z</time>
      </trkpt>
      <trkpt lat="52.137146" lon="4.4730015">
        <ele>-100.0</ele>
        <time>2020-09-21T14:57:39Z</time>
      </trkpt>
      <trkpt lat="52.137177" lon="4.4730716">
        <ele>-100.0</ele>
        <time>2020-09-21T14:57:40Z</time>
      </trkpt>
      <trkpt lat="52.137207" lon="4.4731426">
        <ele>-100.0</ele>
        <time>2020-09-21T14:57:41Z</time>
      </trkpt>
      <trkpt lat="52.137238" lon="4.473214">
        <ele>-100.0</ele>
        <time>2020-09-21T14:57:42Z</time>
      </trkpt>
      <trkpt lat="52.137268" lon="4.473285">
        <ele>-100.0</ele>
        <time>2020-09-21T14:57:43Z</time>
      </trkpt>
      <trkpt lat="52.1373" lon="4.4733577">
        <ele>-100.0</ele>
        <time>2020-09-21T14:57:44Z</time>
      </trkpt>
      <trkpt lat="52.13733" lon="4.4734316">
        <ele>-100.0</ele>
        <time>2020-09-21T14:57:45Z</time>
      </trkpt>
      <trkpt lat="52.13736" lon="4.473506">
        <ele>-100.0</ele>
        <time>2020-09-21T14:57:46Z</time>
      </trkpt>
      <trkpt lat="52.13739" lon="4.473581">
        <ele>-100.0</ele>
        <time>2020-09-21T14:57:47Z</time>
      </trkpt>
      <trkpt lat="52.137417" lon="4.4736567">
        <ele>-100.0</ele>
        <time>2020-09-21T14:57:48Z</time>
      </trkpt>
      <trkpt lat="52.137447" lon="4.4737334">
        <ele>-100.0</ele>
        <time>2020-09-21T14:57:49Z</time>
      </trkpt>
      <trkpt lat="52.13747" lon="4.4738107">
        <ele>-100.0</ele>
        <time>2020-09-21T14:57:50Z</time>
      </trkpt>
      <trkpt lat="52.137505" lon="4.47389">
        <ele>-100.0</ele>
        <time>2020-09-21T14:57:51Z</time>
      </trkpt>
      <trkpt lat="52.137527" lon="4.473969">
        <ele>-100.0</ele>
        <time>2020-09-21T14:57:52Z</time>
      </trkpt>
      <trkpt lat="52.137554" lon="4.4740477">
        <ele>-100.0</ele>
        <time>2020-09-21T14:57:53Z</time>
      </trkpt>
      <trkpt lat="52.13758" lon="4.474125">
        <ele>-100.0</ele>
        <time>2020-09-21T14:57:54Z</time>
      </trkpt>
      <trkpt lat="52.13761" lon="4.4742007">
        <ele>-100.0</ele>
        <time>2020-09-21T14:57:55Z</time>
      </trkpt>
      <trkpt lat="52.137634" lon="4.474275">
        <ele>-100.0</ele>
        <time>2020-09-21T14:57:56Z</time>
      </trkpt>
      <trkpt lat="52.13766" lon="4.4743476">
        <ele>-100.0</ele>
        <time>2020-09-21T14:57:57Z</time>
      </trkpt>
      <trkpt lat="52.137688" lon="4.474421">
        <ele>-100.0</ele>
        <time>2020-09-21T14:57:58Z</time>
      </trkpt>
      <trkpt lat="52.137714" lon="4.474497">
        <ele>-100.0</ele>
        <time>2020-09-21T14:57:59Z</time>
      </trkpt>
      <trkpt lat="52.137737" lon="4.4745727">
        <ele>-100.0</ele>
        <time>2020-09-21T14:58:00Z</time>
      </trkpt>
      <trkpt lat="52.137764" lon="4.4746494">
        <ele>-100.0</ele>
        <time>2020-09-21T14:58:01Z</time>
      </trkpt>
      <trkpt lat="52.13779" lon="4.474724">
        <ele>-100.0</ele>
        <time>2020-09-21T14:58:02Z</time>
      </trkpt>
      <trkpt lat="52.137814" lon="4.4748">
        <ele>-100.0</ele>
        <time>2020-09-21T14:58:03Z</time>
      </trkpt>
      <trkpt lat="52.137844" lon="4.4748774">
        <ele>-100.0</ele>
        <time>2020-09-21T14:58:04Z</time>
      </trkpt>
      <trkpt lat="52.13787" lon="4.474955">
        <ele>-100.0</ele>
        <time>2020-09-21T14:58:05Z</time>
      </trkpt>
      <trkpt lat="52.1379" lon="4.475031">
        <ele>-100.0</ele>
        <time>2020-09-21T14:58:06Z</time>
      </trkpt>
      <trkpt lat="52.13793" lon="4.4751077">
        <ele>-100.0</ele>
        <time>2020-09-21T14:58:07Z</time>
      </trkpt>
      <trkpt lat="52.137962" lon="4.475184">
        <ele>-100.0</ele>
        <time>2020-09-21T14:58:08Z</time>
      </trkpt>
      <trkpt lat="52.137993" lon="4.475261">
        <ele>-100.0</ele>
        <time>2020-09-21T14:58:09Z</time>
      </trkpt>
      <trkpt lat="52.13802" lon="4.4753337">
        <ele>-100.0</ele>
        <time>2020-09-21T14:58:10Z</time>
      </trkpt>
      <trkpt lat="52.138046" lon="4.475413">
        <ele>-100.0</ele>
        <time>2020-09-21T14:58:11Z</time>
      </trkpt>
      <trkpt lat="52.13807" lon="4.47549">
        <ele>-100.0</ele>
        <time>2020-09-21T14:58:12Z</time>
      </trkpt>
      <trkpt lat="52.138096" lon="4.475565">
        <ele>-100.0</ele>
        <time>2020-09-21T14:58:13Z</time>
      </trkpt>
      <trkpt lat="52.138126" lon="4.4756393">
        <ele>-100.0</ele>
        <time>2020-09-21T14:58:14Z</time>
      </trkpt>
      <trkpt lat="52.13815" lon="4.4757137">
        <ele>-100.0</ele>
        <time>2020-09-21T14:58:15Z</time>
      </trkpt>
      <trkpt lat="52.138172" lon="4.4757876">
        <ele>-100.0</ele>
        <time>2020-09-21T14:58:16Z</time>
      </trkpt>
      <trkpt lat="52.1382" lon="4.4758615">
        <ele>-100.0</ele>
        <time>2020-09-21T14:58:17Z</time>
      </trkpt>
      <trkpt lat="52.138226" lon="4.4759374">
        <ele>-100.0</ele>
        <time>2020-09-21T14:58:18Z</time>
      </trkpt>
      <trkpt lat="52.138245" lon="4.476013">
        <ele>-100.0</ele>
        <time>2020-09-21T14:58:18Z</time>
      </trkpt>
      <trkpt lat="52.13827" lon="4.4760895">
        <ele>-100.0</ele>
        <time>2020-09-21T14:58:19Z</time>
      </trkpt>
      <trkpt lat="52.138298" lon="4.4761662">
        <ele>-100.0</ele>
        <time>2020-09-21T14:58:20Z</time>
      </trkpt>
      <trkpt lat="52.13832" lon="4.476244">
        <ele>-100.0</ele>
        <time>2020-09-21T14:58:21Z</time>
      </trkpt>
      <trkpt lat="52.138348" lon="4.4763207">
        <ele>-100.0</ele>
        <time>2020-09-21T14:58:22Z</time>
      </trkpt>
      <trkpt lat="52.138374" lon="4.476398">
        <ele>-100.0</ele>
        <time>2020-09-21T14:58:23Z</time>
      </trkpt>
      <trkpt lat="52.138397" lon="4.476473">
        <ele>-100.0</ele>
        <time>2020-09-21T14:58:24Z</time>
      </trkpt>
      <trkpt lat="52.138428" lon="4.4765496">
        <ele>-100.0</ele>
        <time>2020-09-21T14:58:25Z</time>
      </trkpt>
      <trkpt lat="52.138454" lon="4.4766293">
        <ele>-100.0</ele>
        <time>2020-09-21T14:58:26Z</time>
      </trkpt>
      <trkpt lat="52.138477" lon="4.476708">
        <ele>-100.0</ele>
        <time>2020-09-21T14:58:27Z</time>
      </trkpt>
      <trkpt lat="52.1385" lon="4.4767847">
        <ele>-100.0</ele>
        <time>2020-09-21T14:58:28Z</time>
      </trkpt>
      <trkpt lat="52.138523" lon="4.476862">
        <ele>-100.0</ele>
        <time>2020-09-21T14:58:29Z</time>
      </trkpt>
      <trkpt lat="52.138546" lon="4.4769416">
        <ele>-100.0</ele>
        <time>2020-09-21T14:58:30Z</time>
      </trkpt>
      <trkpt lat="52.138573" lon="4.4770217">
        <ele>-100.0</ele>
        <time>2020-09-21T14:58:31Z</time>
      </trkpt>
      <trkpt lat="52.13859" lon="4.4771004">
        <ele>-100.0</ele>
        <time>2020-09-21T14:58:32Z</time>
      </trkpt>
      <trkpt lat="52.13862" lon="4.4771767">
        <ele>-100.0</ele>
        <time>2020-09-21T14:58:33Z</time>
      </trkpt>
      <trkpt lat="52.138638" lon="4.477253">
        <ele>-100.0</ele>
        <time>2020-09-21T14:58:34Z</time>
      </trkpt>
      <trkpt lat="52.13866" lon="4.4773283">
        <ele>-100.0</ele>
        <time>2020-09-21T14:58:35Z</time>
      </trkpt>
      <trkpt lat="52.13868" lon="4.4774046">
        <ele>-100.0</ele>
        <time>2020-09-21T14:58:36Z</time>
      </trkpt>
      <trkpt lat="52.138706" lon="4.4774833">
        <ele>-100.0</ele>
        <time>2020-09-21T14:58:37Z</time>
      </trkpt>
      <trkpt lat="52.138733" lon="4.477561">
        <ele>-100.0</ele>
        <time>2020-09-21T14:58:38Z</time>
      </trkpt>
      <trkpt lat="52.138756" lon="4.4776354">
        <ele>-100.0</ele>
        <time>2020-09-21T14:58:39Z</time>
      </trkpt>
      <trkpt lat="52.138783" lon="4.477707">
        <ele>-100.0</ele>
        <time>2020-09-21T14:58:40Z</time>
      </trkpt>
      <trkpt lat="52.13881" lon="4.4777737">
        <ele>-100.0</ele>
        <time>2020-09-21T14:58:41Z</time>
      </trkpt>
      <trkpt lat="52.138832" lon="4.4778385">
        <ele>-100.0</ele>
        <time>2020-09-21T14:58:42Z</time>
      </trkpt>
      <trkpt lat="52.13885" lon="4.4779096">
        <ele>-100.0</ele>
        <time>2020-09-21T14:58:43Z</time>
      </trkpt>
      <trkpt lat="52.13887" lon="4.4779778">
        <ele>-100.0</ele>
        <time>2020-09-21T14:58:44Z</time>
      </trkpt>
      <trkpt lat="52.13889" lon="4.478044">
        <ele>-100.0</ele>
        <time>2020-09-21T14:58:45Z</time>
      </trkpt>
      <trkpt lat="52.138912" lon="4.4781094">
        <ele>-100.0</ele>
        <time>2020-09-21T14:58:46Z</time>
      </trkpt>
      <trkpt lat="52.138927" lon="4.478175">
        <ele>-100.0</ele>
        <time>2020-09-21T14:58:47Z</time>
      </trkpt>
      <trkpt lat="52.13895" lon="4.478242">
        <ele>-100.0</ele>
        <time>2020-09-21T14:58:48Z</time>
      </trkpt>
      <trkpt lat="52.138973" lon="4.4783087">
        <ele>-100.0</ele>
        <time>2020-09-21T14:58:49Z</time>
      </trkpt>
      <trkpt lat="52.138996" lon="4.478378">
        <ele>-100.0</ele>
        <time>2020-09-21T14:58:50Z</time>
      </trkpt>
      <trkpt lat="52.139023" lon="4.4784474">
        <ele>-100.0</ele>
        <time>2020-09-21T14:58:51Z</time>
      </trkpt>
      <trkpt lat="52.139046" lon="4.4785175">
        <ele>-100.0</ele>
        <time>2020-09-21T14:58:52Z</time>
      </trkpt>
      <trkpt lat="52.13906" lon="4.478587">
        <ele>-200.0</ele>
        <time>2020-09-21T14:58:53Z</time>
      </trkpt>
      <trkpt lat="52.139065" lon="4.478656">
        <ele>-200.0</ele>
        <time>2020-09-21T14:58:54Z</time>
      </trkpt>
      <trkpt lat="52.13907" lon="4.478722">
        <ele>-200.0</ele>
        <time>2020-09-21T14:58:55Z</time>
      </trkpt>
      <trkpt lat="52.139065" lon="4.4787893">
        <ele>-200.0</ele>
        <time>2020-09-21T14:58:56Z</time>
      </trkpt>
      <trkpt lat="52.13906" lon="4.4788623">
        <ele>-200.0</ele>
        <time>2020-09-21T14:58:57Z</time>
      </trkpt>
      <trkpt lat="52.13905" lon="4.4789295">
        <ele>-200.0</ele>
        <time>2020-09-21T14:58:58Z</time>
      </trkpt>
      <trkpt lat="52.139038" lon="4.4789944">
        <ele>-200.0</ele>
        <time>2020-09-21T14:58:59Z</time>
      </trkpt>
      <trkpt lat="52.139027" lon="4.479052">
        <ele>-200.0</ele>
        <time>2020-09-21T14:59:00Z</time>
      </trkpt>
      <trkpt lat="52.13902" lon="4.479106">
        <ele>-200.0</ele>
        <time>2020-09-21T14:59:01Z</time>
      </trkpt>
      <trkpt lat="52.13902" lon="4.479153">
        <ele>-200.0</ele>
        <time>2020-09-21T14:59:02Z</time>
      </trkpt>
      <trkpt lat="52.13902" lon="4.479189">
        <ele>-200.0</ele>
        <time>2020-09-21T14:59:03Z</time>
      </trkpt>
      <trkpt lat="52.139023" lon="4.479215">
        <ele>-200.0</ele>
        <time>2020-09-21T14:59:04Z</time>
      </trkpt>
      <trkpt lat="52.139034" lon="4.479235">
        <ele>-200.0</ele>
        <time>2020-09-21T14:59:05Z</time>
      </trkpt>
      <trkpt lat="52.13905" lon="4.479256">
        <ele>-200.0</ele>
        <time>2020-09-21T14:59:06Z</time>
      </trkpt>
      <trkpt lat="52.139065" lon="4.4792795">
        <ele>-200.0</ele>
        <time>2020-09-21T14:59:07Z</time>
      </trkpt>
      <trkpt lat="52.139076" lon="4.479303">
        <ele>-200.0</ele>
        <time>2020-09-21T14:59:08Z</time>
      </trkpt>
      <trkpt lat="52.13909" lon="4.479325">
        <ele>-200.0</ele>
        <time>2020-09-21T14:59:09Z</time>
      </trkpt>
      <trkpt lat="52.139107" lon="4.47934">
        <ele>-200.0</ele>
        <time>2020-09-21T14:59:10Z</time>
      </trkpt>
      <trkpt lat="52.139122" lon="4.479346">
        <ele>-200.0</ele>
        <time>2020-09-21T14:59:11Z</time>
      </trkpt>
      <trkpt lat="52.139145" lon="4.479342">
        <ele>-200.0</ele>
        <time>2020-09-21T14:59:12Z</time>
      </trkpt>
      <trkpt lat="52.13917" lon="4.4793286">
        <ele>-300.0</ele>
        <time>2020-09-21T14:59:13Z</time>
      </trkpt>
      <trkpt lat="52.139202" lon="4.479307">
        <ele>-300.0</ele>
        <time>2020-09-21T14:59:14Z</time>
      </trkpt>
      <trkpt lat="52.139233" lon="4.4792814">
        <ele>-300.0</ele>
        <time>2020-09-21T14:59:15Z</time>
      </trkpt>
      <trkpt lat="52.13927" lon="4.479251">
        <ele>-300.0</ele>
        <time>2020-09-21T14:59:16Z</time>
      </trkpt>
      <trkpt lat="52.1393" lon="4.4792213">
        <ele>-400.0</ele>
        <time>2020-09-21T14:59:17Z</time>
      </trkpt>
      <trkpt lat="52.139877" lon="4.4785004">
        <ele>-200.0</ele>
        <time>2020-09-21T14:59:28Z</time>
      </trkpt>
      <trkpt lat="52.139877" lon="4.478516">
        <ele>-200.0</ele>
        <time>2020-09-21T14:59:29Z</time>
      </trkpt>
      <trkpt lat="52.13989" lon="4.4785566">
        <ele>-200.0</ele>
        <time>2020-09-21T14:59:30Z</time>
      </trkpt>
      <trkpt lat="52.139908" lon="4.4785876">
        <ele>-200.0</ele>
        <time>2020-09-21T14:59:31Z</time>
      </trkpt>
      <trkpt lat="52.13993" lon="4.47862">
        <ele>-200.0</ele>
        <time>2020-09-21T14:59:32Z</time>
      </trkpt>
      <trkpt lat="52.13995" lon="4.4786453">
        <ele>-200.0</ele>
        <time>2020-09-21T14:59:33Z</time>
      </trkpt>
      <trkpt lat="52.13997" lon="4.4786706">
        <ele>-200.0</ele>
        <time>2020-09-21T14:59:34Z</time>
      </trkpt>
      <trkpt lat="52.13999" lon="4.4786954">
        <ele>-200.0</ele>
        <time>2020-09-21T14:59:35Z</time>
      </trkpt>
      <trkpt lat="52.14001" lon="4.478721">
        <ele>-200.0</ele>
        <time>2020-09-21T14:59:36Z</time>
      </trkpt>
      <trkpt lat="52.140034" lon="4.478742">
        <ele>-200.0</ele>
        <time>2020-09-21T14:59:37Z</time>
      </trkpt>
      <trkpt lat="52.140038" lon="4.4787555">
        <ele>-200.0</ele>
        <time>2020-09-21T14:59:38Z</time>
      </trkpt>
      <trkpt lat="52.140038" lon="4.4787645">
        <ele>-200.0</ele>
        <time>2020-09-21T14:59:39Z</time>
      </trkpt>
      <trkpt lat="52.140034" lon="4.4787765">
        <ele>-200.0</ele>
        <time>2020-09-21T14:59:40Z</time>
      </trkpt>
      <trkpt lat="52.140026" lon="4.4787903">
        <ele>-200.0</ele>
        <time>2020-09-21T14:59:41Z</time>
      </trkpt>
      <trkpt lat="52.140026" lon="4.4787965">
        <ele>-200.0</ele>
        <time>2020-09-21T14:59:42Z</time>
      </trkpt>
      <trkpt lat="52.140026" lon="4.4787974">
        <ele>-200.0</ele>
        <time>2020-09-21T14:59:43Z</time>
      </trkpt>
      <trkpt lat="52.14002" lon="4.4788">
        <ele>-200.0</ele>
        <time>2020-09-21T14:59:46Z</time>
      </trkpt>
      <trkpt lat="52.14002" lon="4.478799">
        <ele>-200.0</ele>
        <time>2020-09-21T14:59:47Z</time>
      </trkpt>
      <trkpt lat="52.14002" lon="4.4787974">
        <ele>-200.0</ele>
        <time>2020-09-21T14:59:48Z</time>
      </trkpt>
      <trkpt lat="52.14002" lon="4.478797">
        <ele>-200.0</ele>
        <time>2020-09-21T14:59:49Z</time>
      </trkpt>
      <trkpt lat="52.14002" lon="4.4787955">
        <ele>-200.0</ele>
        <time>2020-09-21T14:59:50Z</time>
      </trkpt>
      <trkpt lat="52.14002" lon="4.4787946">
        <ele>-200.0</ele>
        <time>2020-09-21T14:59:51Z</time>
      </trkpt>
      <trkpt lat="52.14001" lon="4.4787955">
        <ele>-200.0</ele>
        <time>2020-09-21T14:59:52Z</time>
      </trkpt>
      <trkpt lat="52.14001" lon="4.4788084">
        <ele>-200.0</ele>
        <time>2020-09-21T14:59:54Z</time>
      </trkpt>
      <trkpt lat="52.14001" lon="4.478812">
        <ele>-200.0</ele>
        <time>2020-09-21T14:59:55Z</time>
      </trkpt>
      <trkpt lat="52.14002" lon="4.4788213">
        <ele>-200.0</ele>
        <time>2020-09-21T14:59:56Z</time>
      </trkpt>
      <trkpt lat="52.14002" lon="4.478836">
        <ele>-200.0</ele>
        <time>2020-09-21T14:59:57Z</time>
      </trkpt>
      <trkpt lat="52.140022" lon="4.478855">
        <ele>-200.0</ele>
        <time>2020-09-21T14:59:58Z</time>
      </trkpt>
      <trkpt lat="52.140034" lon="4.478875">
        <ele>-200.0</ele>
        <time>2020-09-21T14:59:59Z</time>
      </trkpt>
      <trkpt lat="52.140038" lon="4.478898">
        <ele>-200.0</ele>
        <time>2020-09-21T15:00:00Z</time>
      </trkpt>
      <trkpt lat="52.14005" lon="4.4789305">
        <ele>-200.0</ele>
        <time>2020-09-21T15:00:01Z</time>
      </trkpt>
      <trkpt lat="52.140053" lon="4.4789667">
        <ele>-200.0</ele>
        <time>2020-09-21T15:00:02Z</time>
      </trkpt>
      <trkpt lat="52.140057" lon="4.4790044">
        <ele>-200.0</ele>
        <time>2020-09-21T15:00:03Z</time>
      </trkpt>
      <trkpt lat="52.140057" lon="4.479039">
        <ele>-200.0</ele>
        <time>2020-09-21T15:00:04Z</time>
      </trkpt>
      <trkpt lat="52.140057" lon="4.479075">
        <ele>-200.0</ele>
        <time>2020-09-21T15:00:05Z</time>
      </trkpt>
      <trkpt lat="52.140053" lon="4.47911">
        <ele>-200.0</ele>
        <time>2020-09-21T15:00:06Z</time>
      </trkpt>
      <trkpt lat="52.140053" lon="4.479144">
        <ele>-200.0</ele>
        <time>2020-09-21T15:00:07Z</time>
      </trkpt>
      <trkpt lat="52.14005" lon="4.4791756">
        <ele>-200.0</ele>
        <time>2020-09-21T15:00:08Z</time>
      </trkpt>
      <trkpt lat="52.14005" lon="4.479207">
        <ele>-200.0</ele>
        <time>2020-09-21T15:00:09Z</time>
      </trkpt>
      <trkpt lat="52.14004" lon="4.4792404">
        <ele>-200.0</ele>
        <time>2020-09-21T15:00:10Z</time>
      </trkpt>
      <trkpt lat="52.140038" lon="4.479272">
        <ele>-200.0</ele>
        <time>2020-09-21T15:00:11Z</time>
      </trkpt>
      <trkpt lat="52.140034" lon="4.4793043">
        <ele>-200.0</ele>
        <time>2020-09-21T15:00:12Z</time>
      </trkpt>
      <trkpt lat="52.140026" lon="4.47934">
        <ele>-200.0</ele>
        <time>2020-09-21T15:00:13Z</time>
      </trkpt>
      <trkpt lat="52.14002" lon="4.4793773">
        <ele>-200.0</ele>
        <time>2020-09-21T15:00:14Z</time>
      </trkpt>
      <trkpt lat="52.14001" lon="4.479412">
        <ele>-200.0</ele>
        <time>2020-09-21T15:00:15Z</time>
      </trkpt>
      <trkpt lat="52.14001" lon="4.479441">
        <ele>-200.0</ele>
        <time>2020-09-21T15:00:16Z</time>
      </trkpt>
      <trkpt lat="52.14001" lon="4.479465">
        <ele>-200.0</ele>
        <time>2020-09-21T15:00:17Z</time>
      </trkpt>
      <trkpt lat="52.14002" lon="4.4794807">
        <ele>-200.0</ele>
        <time>2020-09-21T15:00:18Z</time>
      </trkpt>
      <trkpt lat="52.140022" lon="4.479488">
        <ele>-200.0</ele>
        <time>2020-09-21T15:00:19Z</time>
      </trkpt>
      <trkpt lat="52.140026" lon="4.479486">
        <ele>-200.0</ele>
        <time>2020-09-21T15:00:20Z</time>
      </trkpt>
      <trkpt lat="52.140026" lon="4.479475">
        <ele>-200.0</ele>
        <time>2020-09-21T15:00:21Z</time>
      </trkpt>
      <trkpt lat="52.140026" lon="4.479456">
        <ele>-200.0</ele>
        <time>2020-09-21T15:00:22Z</time>
      </trkpt>
      <trkpt lat="52.140026" lon="4.479429">
        <ele>-200.0</ele>
        <time>2020-09-21T15:00:23Z</time>
      </trkpt>
      <trkpt lat="52.140026" lon="4.4793954">
        <ele>-200.0</ele>
        <time>2020-09-21T15:00:24Z</time>
      </trkpt>
      <trkpt lat="52.140034" lon="4.4793572">
        <ele>-200.0</ele>
        <time>2020-09-21T15:00:25Z</time>
      </trkpt>
      <trkpt lat="52.140038" lon="4.4793158">
        <ele>-200.0</ele>
        <time>2020-09-21T15:00:26Z</time>
      </trkpt>
      <trkpt lat="52.14004" lon="4.479269">
        <ele>-200.0</ele>
        <time>2020-09-21T15:00:27Z</time>
      </trkpt>
      <trkpt lat="52.14005" lon="4.479223">
        <ele>-200.0</ele>
        <time>2020-09-21T15:00:28Z</time>
      </trkpt>
      <trkpt lat="52.140053" lon="4.4791746">
        <ele>-200.0</ele>
        <time>2020-09-21T15:00:29Z</time>
      </trkpt>
      <trkpt lat="52.140064" lon="4.479125">
        <ele>-200.0</ele>
        <time>2020-09-21T15:00:30Z</time>
      </trkpt>
      <trkpt lat="52.14008" lon="4.479076">
        <ele>-200.0</ele>
        <time>2020-09-21T15:00:31Z</time>
      </trkpt>
      <trkpt lat="52.140102" lon="4.47903">
        <ele>-200.0</ele>
        <time>2020-09-21T15:00:32Z</time>
      </trkpt>
      <trkpt lat="52.140125" lon="4.478988">
        <ele>-200.0</ele>
        <time>2020-09-21T15:00:33Z</time>
      </trkpt>
      <trkpt lat="52.140156" lon="4.4789486">
        <ele>-200.0</ele>
        <time>2020-09-21T15:00:34Z</time>
      </trkpt>
      <trkpt lat="52.140186" lon="4.47891">
        <ele>-200.0</ele>
        <time>2020-09-21T15:00:35Z</time>
      </trkpt>
      <trkpt lat="52.14022" lon="4.4788704">
        <ele>-200.0</ele>
        <time>2020-09-21T15:00:36Z</time>
      </trkpt>
      <trkpt lat="52.14025" lon="4.478832">
        <ele>-200.0</ele>
        <time>2020-09-21T15:00:37Z</time>
      </trkpt>
      <trkpt lat="52.14029" lon="4.478796">
        <ele>-200.0</ele>
        <time>2020-09-21T15:00:38Z</time>
      </trkpt>
      <trkpt lat="52.14032" lon="4.4787602">
        <ele>-200.0</ele>
        <time>2020-09-21T15:00:39Z</time>
      </trkpt>
      <trkpt lat="52.140354" lon="4.4787254">
        <ele>-200.0</ele>
        <time>2020-09-21T15:00:40Z</time>
      </trkpt>
      <trkpt lat="52.140392" lon="4.478687">
        <ele>-200.0</ele>
        <time>2020-09-21T15:00:41Z</time>
      </trkpt>
      <trkpt lat="52.140423" lon="4.478647">
        <ele>-200.0</ele>
        <time>2020-09-21T15:00:42Z</time>
      </trkpt>
      <trkpt lat="52.140457" lon="4.4786077">
        <ele>-200.0</ele>
        <time>2020-09-21T15:00:43Z</time>
      </trkpt>
      <trkpt lat="52.14049" lon="4.478566">
        <ele>-200.0</ele>
        <time>2020-09-21T15:00:44Z</time>
      </trkpt>
      <trkpt lat="52.14053" lon="4.478526">
        <ele>-200.0</ele>
        <time>2020-09-21T15:00:45Z</time>
      </trkpt>
      <trkpt lat="52.140568" lon="4.478482">
        <ele>-200.0</ele>
        <time>2020-09-21T15:00:46Z</time>
      </trkpt>
      <trkpt lat="52.140606" lon="4.4784384">
        <ele>-200.0</ele>
        <time>2020-09-21T15:00:47Z</time>
      </trkpt>
      <trkpt lat="52.14064" lon="4.4783983">
        <ele>-200.0</ele>
        <time>2020-09-21T15:00:48Z</time>
      </trkpt>
      <trkpt lat="52.14068" lon="4.47836">
        <ele>-200.0</ele>
        <time>2020-09-21T15:00:49Z</time>
      </trkpt>
      <trkpt lat="52.140713" lon="4.4783235">
        <ele>-200.0</ele>
        <time>2020-09-21T15:00:50Z</time>
      </trkpt>
      <trkpt lat="52.140747" lon="4.478289">
        <ele>-200.0</ele>
        <time>2020-09-21T15:00:51Z</time>
      </trkpt>
      <trkpt lat="52.14079" lon="4.4782543">
        <ele>-200.0</ele>
        <time>2020-09-21T15:00:52Z</time>
      </trkpt>
      <trkpt lat="52.140827" lon="4.478221">
        <ele>-200.0</ele>
        <time>2020-09-21T15:00:53Z</time>
      </trkpt>
      <trkpt lat="52.140865" lon="4.4781876">
        <ele>-200.0</ele>
        <time>2020-09-21T15:00:54Z</time>
      </trkpt>
      <trkpt lat="52.140903" lon="4.4781547">
        <ele>-200.0</ele>
        <time>2020-09-21T15:00:55Z</time>
      </trkpt>
      <trkpt lat="52.14094" lon="4.4781227">
        <ele>-200.0</ele>
        <time>2020-09-21T15:00:56Z</time>
      </trkpt>
      <trkpt lat="52.14098" lon="4.478096">
        <ele>-200.0</ele>
        <time>2020-09-21T15:00:57Z</time>
      </trkpt>
      <trkpt lat="52.141014" lon="4.4780674">
        <ele>-200.0</ele>
        <time>2020-09-21T15:00:58Z</time>
      </trkpt>
      <trkpt lat="52.141052" lon="4.478038">
        <ele>-200.0</ele>
        <time>2020-09-21T15:00:59Z</time>
      </trkpt>
      <trkpt lat="52.141087" lon="4.478006">
        <ele>-200.0</ele>
        <time>2020-09-21T15:01:00Z</time>
      </trkpt>
      <trkpt lat="52.14112" lon="4.4779754">
        <ele>-200.0</ele>
        <time>2020-09-21T15:01:01Z</time>
      </trkpt>
      <trkpt lat="52.14116" lon="4.47794">
        <ele>-200.0</ele>
        <time>2020-09-21T15:01:02Z</time>
      </trkpt>
      <trkpt lat="52.141193" lon="4.477906">
        <ele>-200.0</ele>
        <time>2020-09-21T15:01:03Z</time>
      </trkpt>
      <trkpt lat="52.14124" lon="4.477869">
        <ele>-200.0</ele>
        <time>2020-09-21T15:01:04Z</time>
      </trkpt>
      <trkpt lat="52.14128" lon="4.4778314">
        <ele>-200.0</ele>
        <time>2020-09-21T15:01:05Z</time>
      </trkpt>
      <trkpt lat="52.141323" lon="4.4777937">
        <ele>-200.0</ele>
        <time>2020-09-21T15:01:06Z</time>
      </trkpt>
      <trkpt lat="52.141357" lon="4.477756">
        <ele>-200.0</ele>
        <time>2020-09-21T15:01:07Z</time>
      </trkpt>
      <trkpt lat="52.1414" lon="4.477719">
        <ele>-200.0</ele>
        <time>2020-09-21T15:01:08Z</time>
      </trkpt>
      <trkpt lat="52.14144" lon="4.4776807">
        <ele>-200.0</ele>
        <time>2020-09-21T15:01:09Z</time>
      </trkpt>
      <trkpt lat="52.14148" lon="4.477641">
        <ele>-200.0</ele>
        <time>2020-09-21T15:01:10Z</time>
      </trkpt>
      <trkpt lat="52.14152" lon="4.477602">
        <ele>-200.0</ele>
        <time>2020-09-21T15:01:11Z</time>
      </trkpt>
      <trkpt lat="52.141563" lon="4.4775643">
        <ele>-200.0</ele>
        <time>2020-09-21T15:01:12Z</time>
      </trkpt>
      <trkpt lat="52.141598" lon="4.47753">
        <ele>-200.0</ele>
        <time>2020-09-21T15:01:13Z</time>
      </trkpt>
      <trkpt lat="52.14164" lon="4.477499">
        <ele>-200.0</ele>
        <time>2020-09-21T15:01:14Z</time>
      </trkpt>
      <trkpt lat="52.14167" lon="4.4774714">
        <ele>-200.0</ele>
        <time>2020-09-21T15:01:15Z</time>
      </trkpt>
      <trkpt lat="52.1417" lon="4.4774485">
        <ele>-200.0</ele>
        <time>2020-09-21T15:01:16Z</time>
      </trkpt>
      <trkpt lat="52.141727" lon="4.4774294">
        <ele>-200.0</ele>
        <time>2020-09-21T15:01:17Z</time>
      </trkpt>
      <trkpt lat="52.141754" lon="4.4774137">
        <ele>-200.0</ele>
        <time>2020-09-21T15:01:18Z</time>
      </trkpt>
      <trkpt lat="52.14177" lon="4.4774027">
        <ele>-200.0</ele>
        <time>2020-09-21T15:01:19Z</time>
      </trkpt>
      <trkpt lat="52.141785" lon="4.477395">
        <ele>-200.0</ele>
        <time>2020-09-21T15:01:20Z</time>
      </trkpt>
      <trkpt lat="52.141792" lon="4.4773903">
        <ele>-200.0</ele>
        <time>2020-09-21T15:01:21Z</time>
      </trkpt>
      <trkpt lat="52.1418" lon="4.477386">
        <ele>-200.0</ele>
        <time>2020-09-21T15:01:22Z</time>
      </trkpt>
      <trkpt lat="52.141815" lon="4.4773755">
        <ele>-200.0</ele>
        <time>2020-09-21T15:01:24Z</time>
      </trkpt>
      <trkpt lat="52.141815" lon="4.477376">
        <ele>-200.0</ele>
        <time>2020-09-21T15:01:25Z</time>
      </trkpt>
      <trkpt lat="52.141815" lon="4.4773755">
        <ele>-200.0</ele>
        <time>2020-09-21T15:01:26Z</time>
      </trkpt>
      <trkpt lat="52.141815" lon="4.477375">
        <ele>-200.0</ele>
        <time>2020-09-21T15:01:27Z</time>
      </trkpt>
      <trkpt lat="52.141815" lon="4.477375">
        <ele>-200.0</ele>
        <time>2020-09-21T15:01:28Z</time>
      </trkpt>
      <trkpt lat="52.141815" lon="4.477374">
        <ele>-200.0</ele>
        <time>2020-09-21T15:01:29Z</time>
      </trkpt>
      <trkpt lat="52.14182" lon="4.4773707">
        <ele>-200.0</ele>
        <time>2020-09-21T15:01:30Z</time>
      </trkpt>
      <trkpt lat="52.14182" lon="4.4773703">
        <ele>-200.0</ele>
        <time>2020-09-21T15:01:31Z</time>
      </trkpt>
      <trkpt lat="52.14182" lon="4.477367">
        <ele>-200.0</ele>
        <time>2020-09-21T15:01:32Z</time>
      </trkpt>
      <trkpt lat="52.14182" lon="4.4773626">
        <ele>-200.0</ele>
        <time>2020-09-21T15:01:33Z</time>
      </trkpt>
      <trkpt lat="52.14182" lon="4.477358">
        <ele>-200.0</ele>
        <time>2020-09-21T15:01:34Z</time>
      </trkpt>
      <trkpt lat="52.14182" lon="4.477352">
        <ele>-200.0</ele>
        <time>2020-09-21T15:01:35Z</time>
      </trkpt>
      <trkpt lat="52.141823" lon="4.4773407">
        <ele>-200.0</ele>
        <time>2020-09-21T15:01:37Z</time>
      </trkpt>
      <trkpt lat="52.14183" lon="4.4773417">
        <ele>-200.0</ele>
        <time>2020-09-21T15:01:38Z</time>
      </trkpt>
      <trkpt lat="52.14183" lon="4.4773436">
        <ele>-200.0</ele>
        <time>2020-09-21T15:01:39Z</time>
      </trkpt>
      <trkpt lat="52.141834" lon="4.4773464">
        <ele>-200.0</ele>
        <time>2020-09-21T15:01:40Z</time>
      </trkpt>
      <trkpt lat="52.141834" lon="4.4773474">
        <ele>-200.0</ele>
        <time>2020-09-21T15:01:41Z</time>
      </trkpt>
      <trkpt lat="52.141838" lon="4.4773483">
        <ele>-200.0</ele>
        <time>2020-09-21T15:01:42Z</time>
      </trkpt>
      <trkpt lat="52.141838" lon="4.477348">
        <ele>-200.0</ele>
        <time>2020-09-21T15:01:43Z</time>
      </trkpt>
      <trkpt lat="52.141838" lon="4.4773464">
        <ele>-200.0</ele>
        <time>2020-09-21T15:01:44Z</time>
      </trkpt>
      <trkpt lat="52.141838" lon="4.4773445">
        <ele>-200.0</ele>
        <time>2020-09-21T15:01:45Z</time>
      </trkpt>
      <trkpt lat="52.141834" lon="4.477343">
        <ele>-200.0</ele>
        <time>2020-09-21T15:01:46Z</time>
      </trkpt>
      <trkpt lat="52.141834" lon="4.4773417">
        <ele>-200.0</ele>
        <time>2020-09-21T15:01:47Z</time>
      </trkpt>
      <trkpt lat="52.14183" lon="4.4773417">
        <ele>-200.0</ele>
        <time>2020-09-21T15:01:48Z</time>
      </trkpt>
      <trkpt lat="52.141823" lon="4.4773355">
        <ele>-200.0</ele>
        <time>2020-09-21T15:01:51Z</time>
      </trkpt>
      <trkpt lat="52.141823" lon="4.4773326">
        <ele>-200.0</ele>
        <time>2020-09-21T15:01:52Z</time>
      </trkpt>
      <trkpt lat="52.14182" lon="4.477328">
        <ele>-200.0</ele>
        <time>2020-09-21T15:01:53Z</time>
      </trkpt>
      <trkpt lat="52.141815" lon="4.477323">
        <ele>-200.0</ele>
        <time>2020-09-21T15:01:54Z</time>
      </trkpt>
      <trkpt lat="52.141808" lon="4.4773164">
        <ele>-200.0</ele>
        <time>2020-09-21T15:01:55Z</time>
      </trkpt>
      <trkpt lat="52.141808" lon="4.4773107">
        <ele>-200.0</ele>
        <time>2020-09-21T15:01:56Z</time>
      </trkpt>
      <trkpt lat="52.141804" lon="4.477305">
        <ele>-200.0</ele>
        <time>2020-09-21T15:01:57Z</time>
      </trkpt>
      <trkpt lat="52.141804" lon="4.477299">
        <ele>-200.0</ele>
        <time>2020-09-21T15:01:58Z</time>
      </trkpt>
      <trkpt lat="52.141804" lon="4.477296">
        <ele>-200.0</ele>
        <time>2020-09-21T15:01:59Z</time>
      </trkpt>
      <trkpt lat="52.141804" lon="4.4772954">
        <ele>-200.0</ele>
        <time>2020-09-21T15:02:00Z</time>
      </trkpt>
      <trkpt lat="52.141804" lon="4.4772973">
        <ele>-200.0</ele>
        <time>2020-09-21T15:02:01Z</time>
      </trkpt>
      <trkpt lat="52.141804" lon="4.4773006">
        <ele>-200.0</ele>
        <time>2020-09-21T15:02:02Z</time>
      </trkpt>
      <trkpt lat="52.141804" lon="4.477304">
        <ele>-200.0</ele>
        <time>2020-09-21T15:02:03Z</time>
      </trkpt>
      <trkpt lat="52.141808" lon="4.4773154">
        <ele>-200.0</ele>
        <time>2020-09-21T15:02:05Z</time>
      </trkpt>
      <trkpt lat="52.141815" lon="4.477324">
        <ele>-200.0</ele>
        <time>2020-09-21T15:02:07Z</time>
      </trkpt>
      <trkpt lat="52.141815" lon="4.477323">
        <ele>-200.0</ele>
        <time>2020-09-21T15:02:08Z</time>
      </trkpt>
      <trkpt lat="52.141815" lon="4.4773226">
        <ele>-200.0</ele>
        <time>2020-09-21T15:02:09Z</time>
      </trkpt>
      <trkpt lat="52.141815" lon="4.4773235">
        <ele>-200.0</ele>
        <time>2020-09-21T15:02:10Z</time>
      </trkpt>
      <trkpt lat="52.141815" lon="4.477322">
        <ele>-200.0</ele>
        <time>2020-09-21T15:02:12Z</time>
      </trkpt>
      <trkpt lat="52.14182" lon="4.477332">
        <ele>-200.0</ele>
        <time>2020-09-21T15:02:14Z</time>
      </trkpt>
      <trkpt lat="52.14183" lon="4.477359">
        <ele>-200.0</ele>
        <time>2020-09-21T15:02:17Z</time>
      </trkpt>
      <trkpt lat="52.141823" lon="4.477354">
        <ele>-200.0</ele>
        <time>2020-09-21T15:02:34Z</time>
      </trkpt>
      <trkpt lat="52.14182" lon="4.477352">
        <ele>-200.0</ele>
        <time>2020-09-21T15:02:36Z</time>
      </trkpt>
      <trkpt lat="52.14182" lon="4.477351">
        <ele>-200.0</ele>
        <time>2020-09-21T15:02:37Z</time>
      </trkpt>
      <trkpt lat="52.14182" lon="4.4773455">
        <ele>-200.0</ele>
        <time>2020-09-21T15:02:45Z</time>
      </trkpt>
      <trkpt lat="52.14182" lon="4.4773436">
        <ele>-200.0</ele>
        <time>2020-09-21T15:02:46Z</time>
      </trkpt>
      <trkpt lat="52.14182" lon="4.4773397">
        <ele>-200.0</ele>
        <time>2020-09-21T15:02:47Z</time>
      </trkpt>
      <trkpt lat="52.14182" lon="4.477335">
        <ele>-200.0</ele>
        <time>2020-09-21T15:02:48Z</time>
      </trkpt>
      <trkpt lat="52.141815" lon="4.477314">
        <ele>-200.0</ele>
        <time>2020-09-21T15:02:57Z</time>
      </trkpt>
      <trkpt lat="52.14182" lon="4.4773088">
        <ele>-200.0</ele>
        <time>2020-09-21T15:03:03Z</time>
      </trkpt>
      <trkpt lat="52.14183" lon="4.4773026">
        <ele>-200.0</ele>
        <time>2020-09-21T15:03:04Z</time>
      </trkpt>
      <trkpt lat="52.141838" lon="4.477292">
        <ele>-200.0</ele>
        <time>2020-09-21T15:03:05Z</time>
      </trkpt>
      <trkpt lat="52.14186" lon="4.4772773">
        <ele>-200.0</ele>
        <time>2020-09-21T15:03:06Z</time>
      </trkpt>
      <trkpt lat="52.14189" lon="4.4772606">
        <ele>-200.0</ele>
        <time>2020-09-21T15:03:07Z</time>
      </trkpt>
      <trkpt lat="52.141922" lon="4.4772434">
        <ele>-200.0</ele>
        <time>2020-09-21T15:03:08Z</time>
      </trkpt>
      <trkpt lat="52.141956" lon="4.4772253">
        <ele>-200.0</ele>
        <time>2020-09-21T15:03:09Z</time>
      </trkpt>
      <trkpt lat="52.141994" lon="4.477206">
        <ele>-200.0</ele>
        <time>2020-09-21T15:03:10Z</time>
      </trkpt>
      <trkpt lat="52.142033" lon="4.477187">
        <ele>-200.0</ele>
        <time>2020-09-21T15:03:11Z</time>
      </trkpt>
      <trkpt lat="52.142075" lon="4.477166">
        <ele>-200.0</ele>
        <time>2020-09-21T15:03:12Z</time>
      </trkpt>
      <trkpt lat="52.14212" lon="4.477142">
        <ele>-200.0</ele>
        <time>2020-09-21T15:03:13Z</time>
      </trkpt>
      <trkpt lat="52.142162" lon="4.4771194">
        <ele>-200.0</ele>
        <time>2020-09-21T15:03:14Z</time>
      </trkpt>
      <trkpt lat="52.142204" lon="4.4770966">
        <ele>-200.0</ele>
        <time>2020-09-21T15:03:15Z</time>
      </trkpt>
      <trkpt lat="52.142254" lon="4.4770722">
        <ele>-200.0</ele>
        <time>2020-09-21T15:03:17Z</time>
      </trkpt>
      <trkpt lat="52.1423" lon="4.4770503">
        <ele>-200.0</ele>
        <time>2020-09-21T15:03:17Z</time>
      </trkpt>
      <trkpt lat="52.142345" lon="4.4770274">
        <ele>-200.0</ele>
        <time>2020-09-21T15:03:18Z</time>
      </trkpt>
      <trkpt lat="52.14239" lon="4.477008">
        <ele>-200.0</ele>
        <time>2020-09-21T15:03:19Z</time>
      </trkpt>
      <trkpt lat="52.142437" lon="4.476988">
        <ele>-200.0</ele>
        <time>2020-09-21T15:03:20Z</time>
      </trkpt>
      <trkpt lat="52.14248" lon="4.4769707">
        <ele>-200.0</ele>
        <time>2020-09-21T15:03:21Z</time>
      </trkpt>
      <trkpt lat="52.142525" lon="4.4769535">
        <ele>-200.0</ele>
        <time>2020-09-21T15:03:23Z</time>
      </trkpt>
      <trkpt lat="52.142567" lon="4.4769373">
        <ele>-200.0</ele>
        <time>2020-09-21T15:03:23Z</time>
      </trkpt>
      <trkpt lat="52.142612" lon="4.476921">
        <ele>-200.0</ele>
        <time>2020-09-21T15:03:24Z</time>
      </trkpt>
      <trkpt lat="52.142654" lon="4.476906">
        <ele>-200.0</ele>
        <time>2020-09-21T15:03:25Z</time>
      </trkpt>
      <trkpt lat="52.1427" lon="4.4768906">
        <ele>-200.0</ele>
        <time>2020-09-21T15:03:26Z</time>
      </trkpt>
      <trkpt lat="52.14288" lon="4.4768224">
        <ele>-200.0</ele>
        <time>2020-09-21T15:03:28Z</time>
      </trkpt>
      <trkpt lat="52.142887" lon="4.476816">
        <ele>-200.0</ele>
        <time>2020-09-21T15:03:29Z</time>
      </trkpt>
      <trkpt lat="52.14291" lon="4.4768043">
        <ele>-200.0</ele>
        <time>2020-09-21T15:03:30Z</time>
      </trkpt>
      <trkpt lat="52.14294" lon="4.476789">
        <ele>-200.0</ele>
        <time>2020-09-21T15:03:31Z</time>
      </trkpt>
      <trkpt lat="52.142975" lon="4.476772">
        <ele>-200.0</ele>
        <time>2020-09-21T15:03:32Z</time>
      </trkpt>
      <trkpt lat="52.143013" lon="4.4767556">
        <ele>-200.0</ele>
        <time>2020-09-21T15:03:33Z</time>
      </trkpt>
      <trkpt lat="52.14305" lon="4.4767413">
        <ele>-200.0</ele>
        <time>2020-09-21T15:03:34Z</time>
      </trkpt>
      <trkpt lat="52.143093" lon="4.476729">
        <ele>-200.0</ele>
        <time>2020-09-21T15:03:35Z</time>
      </trkpt>
      <trkpt lat="52.14314" lon="4.47672">
        <ele>-200.0</ele>
        <time>2020-09-21T15:03:36Z</time>
      </trkpt>
      <trkpt lat="52.14318" lon="4.476712">
        <ele>-200.0</ele>
        <time>2020-09-21T15:03:37Z</time>
      </trkpt>
      <trkpt lat="52.143227" lon="4.476699">
        <ele>-200.0</ele>
        <time>2020-09-21T15:03:39Z</time>
      </trkpt>
      <trkpt lat="52.14327" lon="4.4766817">
        <ele>-200.0</ele>
        <time>2020-09-21T15:03:39Z</time>
      </trkpt>
      <trkpt lat="52.143314" lon="4.4766607">
        <ele>-200.0</ele>
        <time>2020-09-21T15:03:40Z</time>
      </trkpt>
      <trkpt lat="52.143356" lon="4.4766383">
        <ele>-200.0</ele>
        <time>2020-09-21T15:03:41Z</time>
      </trkpt>
      <trkpt lat="52.143394" lon="4.476614">
        <ele>-200.0</ele>
        <time>2020-09-21T15:03:42Z</time>
      </trkpt>
      <trkpt lat="52.143436" lon="4.476592">
        <ele>-200.0</ele>
        <time>2020-09-21T15:03:43Z</time>
      </trkpt>
      <trkpt lat="52.143482" lon="4.4765735">
        <ele>-200.0</ele>
        <time>2020-09-21T15:03:44Z</time>
      </trkpt>
      <trkpt lat="52.143528" lon="4.4765587">
        <ele>-200.0</ele>
        <time>2020-09-21T15:03:45Z</time>
      </trkpt>
      <trkpt lat="52.143574" lon="4.4765472">
        <ele>-200.0</ele>
        <time>2020-09-21T15:03:46Z</time>
      </trkpt>
      <trkpt lat="52.143616" lon="4.476536">
        <ele>-200.0</ele>
        <time>2020-09-21T15:03:47Z</time>
      </trkpt>
      <trkpt lat="52.143665" lon="4.4765196">
        <ele>-200.0</ele>
        <time>2020-09-21T15:03:48Z</time>
      </trkpt>
      <trkpt lat="52.143715" lon="4.476498">
        <ele>-200.0</ele>
        <time>2020-09-21T15:03:49Z</time>
      </trkpt>
      <trkpt lat="52.14376" lon="4.476479">
        <ele>-200.0</ele>
        <time>2020-09-21T15:03:50Z</time>
      </trkpt>
      <trkpt lat="52.143806" lon="4.47646">
        <ele>-200.0</ele>
        <time>2020-09-21T15:03:51Z</time>
      </trkpt>
      <trkpt lat="52.143845" lon="4.4764404">
        <ele>-200.0</ele>
        <time>2020-09-21T15:03:52Z</time>
      </trkpt>
      <trkpt lat="52.143894" lon="4.47642">
        <ele>-200.0</ele>
        <time>2020-09-21T15:03:53Z</time>
      </trkpt>
      <trkpt lat="52.143932" lon="4.476401">
        <ele>-200.0</ele>
        <time>2020-09-21T15:03:54Z</time>
      </trkpt>
      <trkpt lat="52.143986" lon="4.4763813">
        <ele>-200.0</ele>
        <time>2020-09-21T15:03:55Z</time>
      </trkpt>
      <trkpt lat="52.14403" lon="4.4763665">
        <ele>-200.0</ele>
        <time>2020-09-21T15:03:57Z</time>
      </trkpt>
      <trkpt lat="52.14408" lon="4.476352">
        <ele>-200.0</ele>
        <time>2020-09-21T15:03:57Z</time>
      </trkpt>
      <trkpt lat="52.144127" lon="4.4763403">
        <ele>-200.0</ele>
        <time>2020-09-21T15:03:58Z</time>
      </trkpt>
      <trkpt lat="52.14418" lon="4.476329">
        <ele>-200.0</ele>
        <time>2020-09-21T15:03:59Z</time>
      </trkpt>
      <trkpt lat="52.144226" lon="4.47632">
        <ele>-200.0</ele>
        <time>2020-09-21T15:04:00Z</time>
      </trkpt>
      <trkpt lat="52.144276" lon="4.4763103">
        <ele>-200.0</ele>
        <time>2020-09-21T15:04:01Z</time>
      </trkpt>
      <trkpt lat="52.14432" lon="4.476297">
        <ele>-200.0</ele>
        <time>2020-09-21T15:04:02Z</time>
      </trkpt>
      <trkpt lat="52.144367" lon="4.476283">
        <ele>-200.0</ele>
        <time>2020-09-21T15:04:03Z</time>
      </trkpt>
      <trkpt lat="52.14442" lon="4.4762683">
        <ele>-200.0</ele>
        <time>2020-09-21T15:04:04Z</time>
      </trkpt>
      <trkpt lat="52.144466" lon="4.476254">
        <ele>-200.0</ele>
        <time>2020-09-21T15:04:05Z</time>
      </trkpt>
      <trkpt lat="52.144512" lon="4.4762387">
        <ele>-200.0</ele>
        <time>2020-09-21T15:04:06Z</time>
      </trkpt>
      <trkpt lat="52.144554" lon="4.476226">
        <ele>-200.0</ele>
        <time>2020-09-21T15:04:07Z</time>
      </trkpt>
      <trkpt lat="52.1446" lon="4.476214">
        <ele>-200.0</ele>
        <time>2020-09-21T15:04:08Z</time>
      </trkpt>
      <trkpt lat="52.14464" lon="4.4762015">
        <ele>-200.0</ele>
        <time>2020-09-21T15:04:09Z</time>
      </trkpt>
      <trkpt lat="52.14468" lon="4.476187">
        <ele>-200.0</ele>
        <time>2020-09-21T15:04:10Z</time>
      </trkpt>
      <trkpt lat="52.144722" lon="4.4761724">
        <ele>-200.0</ele>
        <time>2020-09-21T15:04:11Z</time>
      </trkpt>
      <trkpt lat="52.144764" lon="4.4761605">
        <ele>-200.0</ele>
        <time>2020-09-21T15:04:12Z</time>
      </trkpt>
      <trkpt lat="52.144802" lon="4.476146">
        <ele>-200.0</ele>
        <time>2020-09-21T15:04:13Z</time>
      </trkpt>
      <trkpt lat="52.144844" lon="4.476131">
        <ele>-100.0</ele>
        <time>2020-09-21T15:04:14Z</time>
      </trkpt>
      <trkpt lat="52.144882" lon="4.4761157">
        <ele>-100.0</ele>
        <time>2020-09-21T15:04:15Z</time>
      </trkpt>
      <trkpt lat="52.14492" lon="4.4760995">
        <ele>-100.0</ele>
        <time>2020-09-21T15:04:16Z</time>
      </trkpt>
      <trkpt lat="52.144962" lon="4.4760823">
        <ele>-100.0</ele>
        <time>2020-09-21T15:04:18Z</time>
      </trkpt>
      <trkpt lat="52.145008" lon="4.4760633">
        <ele>-100.0</ele>
        <time>2020-09-21T15:04:18Z</time>
      </trkpt>
      <trkpt lat="52.145054" lon="4.4760456">
        <ele>-100.0</ele>
        <time>2020-09-21T15:04:19Z</time>
      </trkpt>
      <trkpt lat="52.1451" lon="4.47603">
        <ele>-100.0</ele>
        <time>2020-09-21T15:04:20Z</time>
      </trkpt>
      <trkpt lat="52.145157" lon="4.476013">
        <ele>-100.0</ele>
        <time>2020-09-21T15:04:21Z</time>
      </trkpt>
      <trkpt lat="52.145206" lon="4.4759974">
        <ele>-100.0</ele>
        <time>2020-09-21T15:04:22Z</time>
      </trkpt>
      <trkpt lat="52.14526" lon="4.475986">
        <ele>-100.0</ele>
        <time>2020-09-21T15:04:23Z</time>
      </trkpt>
      <trkpt lat="52.14531" lon="4.4759717">
        <ele>-100.0</ele>
        <time>2020-09-21T15:04:24Z</time>
      </trkpt>
      <trkpt lat="52.145355" lon="4.475958">
        <ele>-100.0</ele>
        <time>2020-09-21T15:04:25Z</time>
      </trkpt>
      <trkpt lat="52.1454" lon="4.4759526">
        <ele>-100.0</ele>
        <time>2020-09-21T15:04:26Z</time>
      </trkpt>
      <trkpt lat="52.14545" lon="4.475953">
        <ele>-100.0</ele>
        <time>2020-09-21T15:04:27Z</time>
      </trkpt>
      <trkpt lat="52.145496" lon="4.475958">
        <ele>-100.0</ele>
        <time>2020-09-21T15:04:29Z</time>
      </trkpt>
      <trkpt lat="52.145535" lon="4.4759636">
        <ele>-100.0</ele>
        <time>2020-09-21T15:04:29Z</time>
      </trkpt>
      <trkpt lat="52.14558" lon="4.4759607">
        <ele>-100.0</ele>
        <time>2020-09-21T15:04:30Z</time>
      </trkpt>
      <trkpt lat="52.145622" lon="4.4759564">
        <ele>-100.0</ele>
        <time>2020-09-21T15:04:31Z</time>
      </trkpt>
      <trkpt lat="52.145668" lon="4.4759526">
        <ele>-100.0</ele>
        <time>2020-09-21T15:04:32Z</time>
      </trkpt>
      <trkpt lat="52.145714" lon="4.475947">
        <ele>-100.0</ele>
        <time>2020-09-21T15:04:33Z</time>
      </trkpt>
      <trkpt lat="52.145756" lon="4.4759355">
        <ele>-100.0</ele>
        <time>2020-09-21T15:04:34Z</time>
      </trkpt>
      <trkpt lat="52.145798" lon="4.475913">
        <ele>-100.0</ele>
        <time>2020-09-21T15:04:35Z</time>
      </trkpt>
      <trkpt lat="52.145832" lon="4.4758835">
        <ele>-100.0</ele>
        <time>2020-09-21T15:04:36Z</time>
      </trkpt>
      <trkpt lat="52.145878" lon="4.4758534">
        <ele>-100.0</ele>
        <time>2020-09-21T15:04:37Z</time>
      </trkpt>
      <trkpt lat="52.145916" lon="4.4758267">
        <ele>-100.0</ele>
        <time>2020-09-21T15:04:39Z</time>
      </trkpt>
      <trkpt lat="52.145954" lon="4.4758058">
        <ele>-100.0</ele>
        <time>2020-09-21T15:04:39Z</time>
      </trkpt>
      <trkpt lat="52.145996" lon="4.475787">
        <ele>-100.0</ele>
        <time>2020-09-21T15:04:40Z</time>
      </trkpt>
      <trkpt lat="52.146038" lon="4.475771">
        <ele>-100.0</ele>
        <time>2020-09-21T15:04:41Z</time>
      </trkpt>
      <trkpt lat="52.146072" lon="4.4757557">
        <ele>-100.0</ele>
        <time>2020-09-21T15:04:42Z</time>
      </trkpt>
      <trkpt lat="52.146114" lon="4.4757423">
        <ele>-100.0</ele>
        <time>2020-09-21T15:04:43Z</time>
      </trkpt>
      <trkpt lat="52.146156" lon="4.4757285">
        <ele>-100.0</ele>
        <time>2020-09-21T15:04:44Z</time>
      </trkpt>
      <trkpt lat="52.146202" lon="4.4757137">
        <ele>-100.0</ele>
        <time>2020-09-21T15:04:45Z</time>
      </trkpt>
      <trkpt lat="52.146244" lon="4.475698">
        <ele>-100.0</ele>
        <time>2020-09-21T15:04:46Z</time>
      </trkpt>
      <trkpt lat="52.146282" lon="4.475682">
        <ele>-100.0</ele>
        <time>2020-09-21T15:04:47Z</time>
      </trkpt>
      <trkpt lat="52.146324" lon="4.4756637">
        <ele>-100.0</ele>
        <time>2020-09-21T15:04:48Z</time>
      </trkpt>
      <trkpt lat="52.146366" lon="4.4756446">
        <ele>-100.0</ele>
        <time>2020-09-21T15:04:49Z</time>
      </trkpt>
      <trkpt lat="52.146408" lon="4.4756274">
        <ele>-100.0</ele>
        <time>2020-09-21T15:04:50Z</time>
      </trkpt>
      <trkpt lat="52.146446" lon="4.47561">
        <ele>-100.0</ele>
        <time>2020-09-21T15:04:51Z</time>
      </trkpt>
      <trkpt lat="52.14649" lon="4.475591">
        <ele>-100.0</ele>
        <time>2020-09-21T15:04:52Z</time>
      </trkpt>
      <trkpt lat="52.14653" lon="4.4755707">
        <ele>-100.0</ele>
        <time>2020-09-21T15:04:53Z</time>
      </trkpt>
      <trkpt lat="52.146572" lon="4.4755507">
        <ele>-100.0</ele>
        <time>2020-09-21T15:04:54Z</time>
      </trkpt>
      <trkpt lat="52.146618" lon="4.4755316">
        <ele>-100.0</ele>
        <time>2020-09-21T15:04:55Z</time>
      </trkpt>
      <trkpt lat="52.146656" lon="4.4755154">
        <ele>-100.0</ele>
        <time>2020-09-21T15:04:56Z</time>
      </trkpt>
      <trkpt lat="52.1467" lon="4.4755025">
        <ele>-100.0</ele>
        <time>2020-09-21T15:04:57Z</time>
      </trkpt>
      <trkpt lat="52.146748" lon="4.475492">
        <ele>-100.0</ele>
        <time>2020-09-21T15:04:58Z</time>
      </trkpt>
      <trkpt lat="52.14679" lon="4.475479">
        <ele>-100.0</ele>
        <time>2020-09-21T15:04:59Z</time>
      </trkpt>
      <trkpt lat="52.14683" lon="4.4754677">
        <ele>-100.0</ele>
        <time>2020-09-21T15:05:00Z</time>
      </trkpt>
      <trkpt lat="52.146873" lon="4.47546">
        <ele>-100.0</ele>
        <time>2020-09-21T15:05:01Z</time>
      </trkpt>
      <trkpt lat="52.14691" lon="4.4754543">
        <ele>-100.0</ele>
        <time>2020-09-21T15:05:02Z</time>
      </trkpt>
      <trkpt lat="52.146954" lon="4.475448">
        <ele>-100.0</ele>
        <time>2020-09-21T15:05:03Z</time>
      </trkpt>
      <trkpt lat="52.146984" lon="4.475441">
        <ele>-100.0</ele>
        <time>2020-09-21T15:05:04Z</time>
      </trkpt>
      <trkpt lat="52.147026" lon="4.4754367">
        <ele>-100.0</ele>
        <time>2020-09-21T15:05:05Z</time>
      </trkpt>
      <trkpt lat="52.14707" lon="4.4754357">
        <ele>-100.0</ele>
        <time>2020-09-21T15:05:06Z</time>
      </trkpt>
      <trkpt lat="52.147114" lon="4.4754376">
        <ele>-100.0</ele>
        <time>2020-09-21T15:05:08Z</time>
      </trkpt>
      <trkpt lat="52.147156" lon="4.4754405">
        <ele>-100.0</ele>
        <time>2020-09-21T15:05:08Z</time>
      </trkpt>
      <trkpt lat="52.147194" lon="4.4754453">
        <ele>-100.0</ele>
        <time>2020-09-21T15:05:09Z</time>
      </trkpt>
      <trkpt lat="52.147236" lon="4.4754477">
        <ele>-100.0</ele>
        <time>2020-09-21T15:05:10Z</time>
      </trkpt>
      <trkpt lat="52.14728" lon="4.4754453">
        <ele>-100.0</ele>
        <time>2020-09-21T15:05:11Z</time>
      </trkpt>
      <trkpt lat="52.147324" lon="4.4754376">
        <ele>-100.0</ele>
        <time>2020-09-21T15:05:12Z</time>
      </trkpt>
      <trkpt lat="52.147366" lon="4.475426">
        <ele>-100.0</ele>
        <time>2020-09-21T15:05:13Z</time>
      </trkpt>
      <trkpt lat="52.14741" lon="4.475413">
        <ele>-100.0</ele>
        <time>2020-09-21T15:05:14Z</time>
      </trkpt>
      <trkpt lat="52.14745" lon="4.4753995">
        <ele>-100.0</ele>
        <time>2020-09-21T15:05:15Z</time>
      </trkpt>
      <trkpt lat="52.147503" lon="4.4753838">
        <ele>-100.0</ele>
        <time>2020-09-21T15:05:16Z</time>
      </trkpt>
      <trkpt lat="52.147545" lon="4.4753633">
        <ele>-100.0</ele>
        <time>2020-09-21T15:05:18Z</time>
      </trkpt>
      <trkpt lat="52.14759" lon="4.4753356">
        <ele>-100.0</ele>
        <time>2020-09-21T15:05:18Z</time>
      </trkpt>
      <trkpt lat="52.14763" lon="4.4753013">
        <ele>-100.0</ele>
        <time>2020-09-21T15:05:19Z</time>
      </trkpt>
      <trkpt lat="52.14767" lon="4.475266">
        <ele>-100.0</ele>
        <time>2020-09-21T15:05:20Z</time>
      </trkpt>
      <trkpt lat="52.147717" lon="4.4752336">
        <ele>-100.0</ele>
        <time>2020-09-21T15:05:21Z</time>
      </trkpt>
      <trkpt lat="52.147762" lon="4.475204">
        <ele>-100.0</ele>
        <time>2020-09-21T15:05:22Z</time>
      </trkpt>
      <trkpt lat="52.147808" lon="4.475176">
        <ele>-100.0</ele>
        <time>2020-09-21T15:05:23Z</time>
      </trkpt>
      <trkpt lat="52.147854" lon="4.4751477">
        <ele>-100.0</ele>
        <time>2020-09-21T15:05:24Z</time>
      </trkpt>
      <trkpt lat="52.147907" lon="4.475124">
        <ele>-100.0</ele>
        <time>2020-09-21T15:05:25Z</time>
      </trkpt>
      <trkpt lat="52.147953" lon="4.475104">
        <ele>-100.0</ele>
        <time>2020-09-21T15:05:26Z</time>
      </trkpt>
      <trkpt lat="52.148003" lon="4.475087">
        <ele>-100.0</ele>
        <time>2020-09-21T15:05:27Z</time>
      </trkpt>
      <trkpt lat="52.148045" lon="4.4750676">
        <ele>-100.0</ele>
        <time>2020-09-21T15:05:29Z</time>
      </trkpt>
      <trkpt lat="52.14809" lon="4.4750495">
        <ele>-100.0</ele>
        <time>2020-09-21T15:05:29Z</time>
      </trkpt>
      <trkpt lat="52.148136" lon="4.475033">
        <ele>-100.0</ele>
        <time>2020-09-21T15:05:30Z</time>
      </trkpt>
      <trkpt lat="52.14819" lon="4.475018">
        <ele>-100.0</ele>
        <time>2020-09-21T15:05:31Z</time>
      </trkpt>
      <trkpt lat="52.148228" lon="4.475">
        <ele>-100.0</ele>
        <time>2020-09-21T15:05:32Z</time>
      </trkpt>
      <trkpt lat="52.14827" lon="4.4749794">
        <ele>-100.0</ele>
        <time>2020-09-21T15:05:33Z</time>
      </trkpt>
      <trkpt lat="52.14831" lon="4.47496">
        <ele>-100.0</ele>
        <time>2020-09-21T15:05:34Z</time>
      </trkpt>
      <trkpt lat="52.148357" lon="4.4749403">
        <ele>-100.0</ele>
        <time>2020-09-21T15:05:35Z</time>
      </trkpt>
      <trkpt lat="52.148407" lon="4.474922">
        <ele>-100.0</ele>
        <time>2020-09-21T15:05:36Z</time>
      </trkpt>
      <trkpt lat="52.148453" lon="4.474905">
        <ele>-100.0</ele>
        <time>2020-09-21T15:05:37Z</time>
      </trkpt>
      <trkpt lat="52.148506" lon="4.474887">
        <ele>-100.0</ele>
        <time>2020-09-21T15:05:38Z</time>
      </trkpt>
      <trkpt lat="52.148552" lon="4.4748693">
        <ele>-100.0</ele>
        <time>2020-09-21T15:05:39Z</time>
      </trkpt>
      <trkpt lat="52.148598" lon="4.4748526">
        <ele>-100.0</ele>
        <time>2020-09-21T15:05:40Z</time>
      </trkpt>
      <trkpt lat="52.148647" lon="4.4748363">
        <ele>-100.0</ele>
        <time>2020-09-21T15:05:41Z</time>
      </trkpt>
      <trkpt lat="52.148697" lon="4.4748206">
        <ele>-100.0</ele>
        <time>2020-09-21T15:05:42Z</time>
      </trkpt>
      <trkpt lat="52.148735" lon="4.4748054">
        <ele>-100.0</ele>
        <time>2020-09-21T15:05:43Z</time>
      </trkpt>
      <trkpt lat="52.14879" lon="4.4747868">
        <ele>-100.0</ele>
        <time>2020-09-21T15:05:44Z</time>
      </trkpt>
      <trkpt lat="52.148834" lon="4.474768">
        <ele>-100.0</ele>
        <time>2020-09-21T15:05:45Z</time>
      </trkpt>
      <trkpt lat="52.14888" lon="4.4747505">
        <ele>-100.0</ele>
        <time>2020-09-21T15:05:46Z</time>
      </trkpt>
      <trkpt lat="52.14893" lon="4.4747334">
        <ele>-100.0</ele>
        <time>2020-09-21T15:05:47Z</time>
      </trkpt>
      <trkpt lat="52.148975" lon="4.474718">
        <ele>-100.0</ele>
        <time>2020-09-21T15:05:48Z</time>
      </trkpt>
      <trkpt lat="52.14903" lon="4.474702">
        <ele>-100.0</ele>
        <time>2020-09-21T15:05:49Z</time>
      </trkpt>
      <trkpt lat="52.14908" lon="4.4746857">
        <ele>-100.0</ele>
        <time>2020-09-21T15:05:50Z</time>
      </trkpt>
      <trkpt lat="52.149124" lon="4.4746685">
        <ele>-100.0</ele>
        <time>2020-09-21T15:05:51Z</time>
      </trkpt>
      <trkpt lat="52.14917" lon="4.4746532">
        <ele>-100.0</ele>
        <time>2020-09-21T15:05:52Z</time>
      </trkpt>
      <trkpt lat="52.149216" lon="4.4746366">
        <ele>-100.0</ele>
        <time>2020-09-21T15:05:53Z</time>
      </trkpt>
      <trkpt lat="52.14926" lon="4.4746194">
        <ele>-100.0</ele>
        <time>2020-09-21T15:05:54Z</time>
      </trkpt>
      <trkpt lat="52.14931" lon="4.4746027">
        <ele>-100.0</ele>
        <time>2020-09-21T15:05:55Z</time>
      </trkpt>
      <trkpt lat="52.14935" lon="4.474589">
        <ele>-100.0</ele>
        <time>2020-09-21T15:05:56Z</time>
      </trkpt>
      <trkpt lat="52.149387" lon="4.4745765">
        <ele>-100.0</ele>
        <time>2020-09-21T15:05:57Z</time>
      </trkpt>
      <trkpt lat="52.149426" lon="4.4745684">
        <ele>-100.0</ele>
        <time>2020-09-21T15:05:58Z</time>
      </trkpt>
      <trkpt lat="52.149467" lon="4.4745636">
        <ele>-100.0</ele>
        <time>2020-09-21T15:05:59Z</time>
      </trkpt>
      <trkpt lat="52.14951" lon="4.4745607">
        <ele>-100.0</ele>
        <time>2020-09-21T15:06:01Z</time>
      </trkpt>
      <trkpt lat="52.14954" lon="4.47456">
        <ele>-100.0</ele>
        <time>2020-09-21T15:06:01Z</time>
      </trkpt>
      <trkpt lat="52.14957" lon="4.474559">
        <ele>-100.0</ele>
        <time>2020-09-21T15:06:02Z</time>
      </trkpt>
      <trkpt lat="52.1496" lon="4.4745607">
        <ele>-100.0</ele>
        <time>2020-09-21T15:06:03Z</time>
      </trkpt>
      <trkpt lat="52.14962" lon="4.4745636">
        <ele>-100.0</ele>
        <time>2020-09-21T15:06:04Z</time>
      </trkpt>
      <trkpt lat="52.149635" lon="4.474568">
        <ele>-100.0</ele>
        <time>2020-09-21T15:06:05Z</time>
      </trkpt>
      <trkpt lat="52.149647" lon="4.474572">
        <ele>-100.0</ele>
        <time>2020-09-21T15:06:06Z</time>
      </trkpt>
      <trkpt lat="52.14966" lon="4.4745765">
        <ele>-100.0</ele>
        <time>2020-09-21T15:06:07Z</time>
      </trkpt>
      <trkpt lat="52.149677" lon="4.474588">
        <ele>-100.0</ele>
        <time>2020-09-21T15:06:09Z</time>
      </trkpt>
      <trkpt lat="52.149677" lon="4.4745903">
        <ele>-100.0</ele>
        <time>2020-09-21T15:06:10Z</time>
      </trkpt>
      <trkpt lat="52.149677" lon="4.474595">
        <ele>-100.0</ele>
        <time>2020-09-21T15:06:11Z</time>
      </trkpt>
      <trkpt lat="52.149673" lon="4.4745965">
        <ele>-100.0</ele>
        <time>2020-09-21T15:06:12Z</time>
      </trkpt>
      <trkpt lat="52.149673" lon="4.4746094">
        <ele>-100.0</ele>
        <time>2020-09-21T15:06:14Z</time>
      </trkpt>
      <trkpt lat="52.149673" lon="4.4746103">
        <ele>-100.0</ele>
        <time>2020-09-21T15:06:15Z</time>
      </trkpt>
      <trkpt lat="52.149673" lon="4.474613">
        <ele>-100.0</ele>
        <time>2020-09-21T15:06:16Z</time>
      </trkpt>
      <trkpt lat="52.149677" lon="4.4746184">
        <ele>-100.0</ele>
        <time>2020-09-21T15:06:17Z</time>
      </trkpt>
      <trkpt lat="52.149677" lon="4.4746227">
        <ele>-100.0</ele>
        <time>2020-09-21T15:06:18Z</time>
      </trkpt>
      <trkpt lat="52.149677" lon="4.474625">
        <ele>-100.0</ele>
        <time>2020-09-21T15:06:19Z</time>
      </trkpt>
      <trkpt lat="52.149677" lon="4.474626">
        <ele>-100.0</ele>
        <time>2020-09-21T15:06:30Z</time>
      </trkpt>
      <trkpt lat="52.149677" lon="4.4746213">
        <ele>-100.0</ele>
        <time>2020-09-21T15:06:32Z</time>
      </trkpt>
      <trkpt lat="52.149673" lon="4.4746127">
        <ele>-100.0</ele>
        <time>2020-09-21T15:06:35Z</time>
      </trkpt>
      <trkpt lat="52.149673" lon="4.4746118">
        <ele>-100.0</ele>
        <time>2020-09-21T15:06:36Z</time>
      </trkpt>
      <trkpt lat="52.149673" lon="4.4746103">
        <ele>-100.0</ele>
        <time>2020-09-21T15:06:37Z</time>
      </trkpt>
      <trkpt lat="52.149673" lon="4.4746084">
        <ele>-100.0</ele>
        <time>2020-09-21T15:06:38Z</time>
      </trkpt>
      <trkpt lat="52.14967" lon="4.4745946">
        <ele>-100.0</ele>
        <time>2020-09-21T15:06:54Z</time>
      </trkpt>
      <trkpt lat="52.149673" lon="4.474593">
        <ele>-100.0</ele>
        <time>2020-09-21T15:06:55Z</time>
      </trkpt>
      <trkpt lat="52.14969" lon="4.474589">
        <ele>-100.0</ele>
        <time>2020-09-21T15:06:57Z</time>
      </trkpt>
      <trkpt lat="52.149708" lon="4.474581">
        <ele>-100.0</ele>
        <time>2020-09-21T15:06:57Z</time>
      </trkpt>
      <trkpt lat="52.149734" lon="4.4745684">
        <ele>-100.0</ele>
        <time>2020-09-21T15:06:58Z</time>
      </trkpt>
      <trkpt lat="52.14977" lon="4.474552">
        <ele>-100.0</ele>
        <time>2020-09-21T15:06:59Z</time>
      </trkpt>
      <trkpt lat="52.1498" lon="4.4745345">
        <ele>-100.0</ele>
        <time>2020-09-21T15:07:00Z</time>
      </trkpt>
      <trkpt lat="52.14984" lon="4.474515">
        <ele>-100.0</ele>
        <time>2020-09-21T15:07:01Z</time>
      </trkpt>
      <trkpt lat="52.149883" lon="4.4744935">
        <ele>-100.0</ele>
        <time>2020-09-21T15:07:02Z</time>
      </trkpt>
      <trkpt lat="52.149925" lon="4.47447">
        <ele>-100.0</ele>
        <time>2020-09-21T15:07:03Z</time>
      </trkpt>
      <trkpt lat="52.14997" lon="4.474448">
        <ele>-100.0</ele>
        <time>2020-09-21T15:07:04Z</time>
      </trkpt>
      <trkpt lat="52.15001" lon="4.4744267">
        <ele>-100.0</ele>
        <time>2020-09-21T15:07:05Z</time>
      </trkpt>
      <trkpt lat="52.15005" lon="4.4744062">
        <ele>-100.0</ele>
        <time>2020-09-21T15:07:06Z</time>
      </trkpt>
      <trkpt lat="52.150097" lon="4.4743867">
        <ele>-100.0</ele>
        <time>2020-09-21T15:07:08Z</time>
      </trkpt>
      <trkpt lat="52.15014" lon="4.4743695">
        <ele>-100.0</ele>
        <time>2020-09-21T15:07:08Z</time>
      </trkpt>
      <trkpt lat="52.150185" lon="4.4743557">
        <ele>-100.0</ele>
        <time>2020-09-21T15:07:09Z</time>
      </trkpt>
      <trkpt lat="52.15023" lon="4.4743447">
        <ele>-100.0</ele>
        <time>2020-09-21T15:07:10Z</time>
      </trkpt>
      <trkpt lat="52.150276" lon="4.4743323">
        <ele>-100.0</ele>
        <time>2020-09-21T15:07:11Z</time>
      </trkpt>
      <trkpt lat="52.150322" lon="4.4743195">
        <ele>-100.0</ele>
        <time>2020-09-21T15:07:12Z</time>
      </trkpt>
      <trkpt lat="52.150368" lon="4.4743056">
        <ele>-100.0</ele>
        <time>2020-09-21T15:07:13Z</time>
      </trkpt>
      <trkpt lat="52.15041" lon="4.474292">
        <ele>-100.0</ele>
        <time>2020-09-21T15:07:14Z</time>
      </trkpt>
      <trkpt lat="52.150455" lon="4.474278">
        <ele>-100.0</ele>
        <time>2020-09-21T15:07:15Z</time>
      </trkpt>
      <trkpt lat="52.1505" lon="4.474265">
        <ele>-100.0</ele>
        <time>2020-09-21T15:07:16Z</time>
      </trkpt>
      <trkpt lat="52.150547" lon="4.474252">
        <ele>-100.0</ele>
        <time>2020-09-21T15:07:17Z</time>
      </trkpt>
      <trkpt lat="52.1506" lon="4.4742403">
        <ele>-100.0</ele>
        <time>2020-09-21T15:07:18Z</time>
      </trkpt>
      <trkpt lat="52.150646" lon="4.47423">
        <ele>-100.0</ele>
        <time>2020-09-21T15:07:19Z</time>
      </trkpt>
      <trkpt lat="52.15069" lon="4.4742193">
        <ele>-100.0</ele>
        <time>2020-09-21T15:07:20Z</time>
      </trkpt>
      <trkpt lat="52.150734" lon="4.4742074">
        <ele>-100.0</ele>
        <time>2020-09-21T15:07:21Z</time>
      </trkpt>
      <trkpt lat="52.15078" lon="4.474195">
        <ele>-100.0</ele>
        <time>2020-09-21T15:07:22Z</time>
      </trkpt>
      <trkpt lat="52.150826" lon="4.474181">
        <ele>-100.0</ele>
        <time>2020-09-21T15:07:23Z</time>
      </trkpt>
      <trkpt lat="52.15087" lon="4.474164">
        <ele>-100.0</ele>
        <time>2020-09-21T15:07:24Z</time>
      </trkpt>
      <trkpt lat="52.150906" lon="4.4741464">
        <ele>-100.0</ele>
        <time>2020-09-21T15:07:25Z</time>
      </trkpt>
      <trkpt lat="52.15095" lon="4.4741273">
        <ele>-100.0</ele>
        <time>2020-09-21T15:07:26Z</time>
      </trkpt>
      <trkpt lat="52.150993" lon="4.4741077">
        <ele>-100.0</ele>
        <time>2020-09-21T15:07:27Z</time>
      </trkpt>
      <trkpt lat="52.15104" lon="4.4740887">
        <ele>-100.0</ele>
        <time>2020-09-21T15:07:29Z</time>
      </trkpt>
      <trkpt lat="52.15108" lon="4.4740696">
        <ele>-100.0</ele>
        <time>2020-09-21T15:07:29Z</time>
      </trkpt>
      <trkpt lat="52.151123" lon="4.474051">
        <ele>-100.0</ele>
        <time>2020-09-21T15:07:30Z</time>
      </trkpt>
      <trkpt lat="52.15117" lon="4.4740295">
        <ele>-100.0</ele>
        <time>2020-09-21T15:07:31Z</time>
      </trkpt>
      <trkpt lat="52.151215" lon="4.4740086">
        <ele>-100.0</ele>
        <time>2020-09-21T15:07:32Z</time>
      </trkpt>
      <trkpt lat="52.151257" lon="4.4739914">
        <ele>-100.0</ele>
        <time>2020-09-21T15:07:33Z</time>
      </trkpt>
      <trkpt lat="52.151295" lon="4.4739757">
        <ele>-100.0</ele>
        <time>2020-09-21T15:07:34Z</time>
      </trkpt>
      <trkpt lat="52.151337" lon="4.4739585">
        <ele>-100.0</ele>
        <time>2020-09-21T15:07:35Z</time>
      </trkpt>
      <trkpt lat="52.151382" lon="4.473942">
        <ele>-100.0</ele>
        <time>2020-09-21T15:07:36Z</time>
      </trkpt>
      <trkpt lat="52.151424" lon="4.473925">
        <ele>-100.0</ele>
        <time>2020-09-21T15:07:37Z</time>
      </trkpt>
      <trkpt lat="52.151466" lon="4.4739113">
        <ele>-100.0</ele>
        <time>2020-09-21T15:07:38Z</time>
      </trkpt>
      <trkpt lat="52.151505" lon="4.4739">
        <ele>-100.0</ele>
        <time>2020-09-21T15:07:39Z</time>
      </trkpt>
      <trkpt lat="52.151546" lon="4.473887">
        <ele>-100.0</ele>
        <time>2020-09-21T15:07:40Z</time>
      </trkpt>
      <trkpt lat="52.151592" lon="4.473871">
        <ele>-100.0</ele>
        <time>2020-09-21T15:07:41Z</time>
      </trkpt>
      <trkpt lat="52.151638" lon="4.473853">
        <ele>-100.0</ele>
        <time>2020-09-21T15:07:42Z</time>
      </trkpt>
      <trkpt lat="52.15168" lon="4.473837">
        <ele>-100.0</ele>
        <time>2020-09-21T15:07:43Z</time>
      </trkpt>
      <trkpt lat="52.151726" lon="4.473818">
        <ele>-100.0</ele>
        <time>2020-09-21T15:07:44Z</time>
      </trkpt>
      <trkpt lat="52.15177" lon="4.473798">
        <ele>-100.0</ele>
        <time>2020-09-21T15:07:45Z</time>
      </trkpt>
      <trkpt lat="52.151817" lon="4.4737782">
        <ele>-100.0</ele>
        <time>2020-09-21T15:07:46Z</time>
      </trkpt>
      <trkpt lat="52.15187" lon="4.4737606">
        <ele>-100.0</ele>
        <time>2020-09-21T15:07:47Z</time>
      </trkpt>
      <trkpt lat="52.151917" lon="4.473746">
        <ele>-100.0</ele>
        <time>2020-09-21T15:07:48Z</time>
      </trkpt>
      <trkpt lat="52.151966" lon="4.4737296">
        <ele>-100.0</ele>
        <time>2020-09-21T15:07:50Z</time>
      </trkpt>
      <trkpt lat="52.15202" lon="4.4737144">
        <ele>-100.0</ele>
        <time>2020-09-21T15:07:50Z</time>
      </trkpt>
      <trkpt lat="52.152065" lon="4.473697">
        <ele>-100.0</ele>
        <time>2020-09-21T15:07:51Z</time>
      </trkpt>
      <trkpt lat="52.152115" lon="4.473677">
        <ele>-100.0</ele>
        <time>2020-09-21T15:07:52Z</time>
      </trkpt>
      <trkpt lat="52.15216" lon="4.473658">
        <ele>-100.0</ele>
        <time>2020-09-21T15:07:53Z</time>
      </trkpt>
      <trkpt lat="52.152214" lon="4.4736404">
        <ele>-100.0</ele>
        <time>2020-09-21T15:07:54Z</time>
      </trkpt>
      <trkpt lat="52.152264" lon="4.473625">
        <ele>-100.0</ele>
        <time>2020-09-21T15:07:55Z</time>
      </trkpt>
      <trkpt lat="52.15231" lon="4.473612">
        <ele>-100.0</ele>
        <time>2020-09-21T15:07:56Z</time>
      </trkpt>
      <trkpt lat="52.152363" lon="4.473599">
        <ele>-100.0</ele>
        <time>2020-09-21T15:07:58Z</time>
      </trkpt>
      <trkpt lat="52.152412" lon="4.473586">
        <ele>-100.0</ele>
        <time>2020-09-21T15:07:58Z</time>
      </trkpt>
      <trkpt lat="52.152462" lon="4.4735723">
        <ele>-100.0</ele>
        <time>2020-09-21T15:07:59Z</time>
      </trkpt>
      <trkpt lat="52.152508" lon="4.4735575">
        <ele>-100.0</ele>
        <time>2020-09-21T15:08:00Z</time>
      </trkpt>
      <trkpt lat="52.152557" lon="4.4735403">
        <ele>-100.0</ele>
        <time>2020-09-21T15:08:01Z</time>
      </trkpt>
      <trkpt lat="52.152603" lon="4.473522">
        <ele>-100.0</ele>
        <time>2020-09-21T15:08:02Z</time>
      </trkpt>
      <trkpt lat="52.15265" lon="4.4735007">
        <ele>-100.0</ele>
        <time>2020-09-21T15:08:03Z</time>
      </trkpt>
      <trkpt lat="52.152687" lon="4.4734783">
        <ele>-100.0</ele>
        <time>2020-09-21T15:08:04Z</time>
      </trkpt>
      <trkpt lat="52.152733" lon="4.4734616">
        <ele>-100.0</ele>
        <time>2020-09-21T15:08:05Z</time>
      </trkpt>
      <trkpt lat="52.152775" lon="4.473446">
        <ele>-100.0</ele>
        <time>2020-09-21T15:08:06Z</time>
      </trkpt>
      <trkpt lat="52.152813" lon="4.4734282">
        <ele>-100.0</ele>
        <time>2020-09-21T15:08:07Z</time>
      </trkpt>
      <trkpt lat="52.15285" lon="4.4734116">
        <ele>-100.0</ele>
        <time>2020-09-21T15:08:08Z</time>
      </trkpt>
      <trkpt lat="52.15289" lon="4.4733953">
        <ele>-100.0</ele>
        <time>2020-09-21T15:08:09Z</time>
      </trkpt>
      <trkpt lat="52.152927" lon="4.4733796">
        <ele>-100.0</ele>
        <time>2020-09-21T15:08:10Z</time>
      </trkpt>
      <trkpt lat="52.15297" lon="4.4733644">
        <ele>-100.0</ele>
        <time>2020-09-21T15:08:11Z</time>
      </trkpt>
      <trkpt lat="52.15301" lon="4.4733505">
        <ele>-100.0</ele>
        <time>2020-09-21T15:08:12Z</time>
      </trkpt>
      <trkpt lat="52.153053" lon="4.4733396">
        <ele>-100.0</ele>
        <time>2020-09-21T15:08:13Z</time>
      </trkpt>
      <trkpt lat="52.15309" lon="4.4733286">
        <ele>-100.0</ele>
        <time>2020-09-21T15:08:14Z</time>
      </trkpt>
      <trkpt lat="52.153133" lon="4.4733152">
        <ele>-100.0</ele>
        <time>2020-09-21T15:08:15Z</time>
      </trkpt>
      <trkpt lat="52.15318" lon="4.4733033">
        <ele>-100.0</ele>
        <time>2020-09-21T15:08:16Z</time>
      </trkpt>
      <trkpt lat="52.15322" lon="4.4732943">
        <ele>-100.0</ele>
        <time>2020-09-21T15:08:17Z</time>
      </trkpt>
      <trkpt lat="52.153263" lon="4.4732866">
        <ele>-100.0</ele>
        <time>2020-09-21T15:08:19Z</time>
      </trkpt>
      <trkpt lat="52.1533" lon="4.4732776">
        <ele>-100.0</ele>
        <time>2020-09-21T15:08:19Z</time>
      </trkpt>
      <trkpt lat="52.153343" lon="4.473264">
        <ele>-100.0</ele>
        <time>2020-09-21T15:08:20Z</time>
      </trkpt>
      <trkpt lat="52.15338" lon="4.4732494">
        <ele>-100.0</ele>
        <time>2020-09-21T15:08:21Z</time>
      </trkpt>
      <trkpt lat="52.153416" lon="4.473234">
        <ele>-100.0</ele>
        <time>2020-09-21T15:08:22Z</time>
      </trkpt>
      <trkpt lat="52.15345" lon="4.473216">
        <ele>-100.0</ele>
        <time>2020-09-21T15:08:23Z</time>
      </trkpt>
      <trkpt lat="52.15349" lon="4.473195">
        <ele>-100.0</ele>
        <time>2020-09-21T15:08:24Z</time>
      </trkpt>
      <trkpt lat="52.15353" lon="4.473174">
        <ele>-100.0</ele>
        <time>2020-09-21T15:08:25Z</time>
      </trkpt>
      <trkpt lat="52.15357" lon="4.473154">
        <ele>-100.0</ele>
        <time>2020-09-21T15:08:26Z</time>
      </trkpt>
      <trkpt lat="52.15361" lon="4.4731364">
        <ele>-100.0</ele>
        <time>2020-09-21T15:08:27Z</time>
      </trkpt>
      <trkpt lat="52.153656" lon="4.473121">
        <ele>-100.0</ele>
        <time>2020-09-21T15:08:28Z</time>
      </trkpt>
      <trkpt lat="52.1537" lon="4.4731054">
        <ele>-100.0</ele>
        <time>2020-09-21T15:08:29Z</time>
      </trkpt>
      <trkpt lat="52.153748" lon="4.473086">
        <ele>-100.0</ele>
        <time>2020-09-21T15:08:30Z</time>
      </trkpt>
      <trkpt lat="52.15379" lon="4.473065">
        <ele>-100.0</ele>
        <time>2020-09-21T15:08:31Z</time>
      </trkpt>
      <trkpt lat="52.15383" lon="4.4730463">
        <ele>-100.0</ele>
        <time>2020-09-21T15:08:32Z</time>
      </trkpt>
      <trkpt lat="52.153877" lon="4.473029">
        <ele>-100.0</ele>
        <time>2020-09-21T15:08:33Z</time>
      </trkpt>
      <trkpt lat="52.153923" lon="4.473009">
        <ele>-100.0</ele>
        <time>2020-09-21T15:08:34Z</time>
      </trkpt>
      <trkpt lat="52.153965" lon="4.4729886">
        <ele>-100.0</ele>
        <time>2020-09-21T15:08:35Z</time>
      </trkpt>
      <trkpt lat="52.15401" lon="4.472966">
        <ele>-100.0</ele>
        <time>2020-09-21T15:08:36Z</time>
      </trkpt>
      <trkpt lat="52.15405" lon="4.472945">
        <ele>-100.0</ele>
        <time>2020-09-21T15:08:37Z</time>
      </trkpt>
      <trkpt lat="52.1541" lon="4.472925">
        <ele>-100.0</ele>
        <time>2020-09-21T15:08:38Z</time>
      </trkpt>
      <trkpt lat="52.154144" lon="4.472905">
        <ele>-100.0</ele>
        <time>2020-09-21T15:08:40Z</time>
      </trkpt>
      <trkpt lat="52.154182" lon="4.472885">
        <ele>-100.0</ele>
        <time>2020-09-21T15:08:40Z</time>
      </trkpt>
      <trkpt lat="52.154224" lon="4.4728637">
        <ele>-100.0</ele>
        <time>2020-09-21T15:08:41Z</time>
      </trkpt>
      <trkpt lat="52.154266" lon="4.472841">
        <ele>-100.0</ele>
        <time>2020-09-21T15:08:42Z</time>
      </trkpt>
      <trkpt lat="52.154312" lon="4.472816">
        <ele>-100.0</ele>
        <time>2020-09-21T15:08:43Z</time>
      </trkpt>
      <trkpt lat="52.154358" lon="4.472792">
        <ele>-100.0</ele>
        <time>2020-09-21T15:08:44Z</time>
      </trkpt>
      <trkpt lat="52.1544" lon="4.4727683">
        <ele>-100.0</ele>
        <time>2020-09-21T15:08:45Z</time>
      </trkpt>
      <trkpt lat="52.154446" lon="4.4727435">
        <ele>-100.0</ele>
        <time>2020-09-21T15:08:46Z</time>
      </trkpt>
      <trkpt lat="52.15449" lon="4.472715">
        <ele>-100.0</ele>
        <time>2020-09-21T15:08:47Z</time>
      </trkpt>
      <trkpt lat="52.154533" lon="4.472686">
        <ele>-100.0</ele>
        <time>2020-09-21T15:08:48Z</time>
      </trkpt>
      <trkpt lat="52.15458" lon="4.4726553">
        <ele>-100.0</ele>
        <time>2020-09-21T15:08:49Z</time>
      </trkpt>
      <trkpt lat="52.154617" lon="4.472624">
        <ele>-100.0</ele>
        <time>2020-09-21T15:08:50Z</time>
      </trkpt>
      <trkpt lat="52.15466" lon="4.472592">
        <ele>-100.0</ele>
        <time>2020-09-21T15:08:51Z</time>
      </trkpt>
      <trkpt lat="52.1547" lon="4.4725575">
        <ele>-100.0</ele>
        <time>2020-09-21T15:08:52Z</time>
      </trkpt>
      <trkpt lat="52.154743" lon="4.4725237">
        <ele>-100.0</ele>
        <time>2020-09-21T15:08:53Z</time>
      </trkpt>
      <trkpt lat="52.15478" lon="4.4724894">
        <ele>-100.0</ele>
        <time>2020-09-21T15:08:54Z</time>
      </trkpt>
      <trkpt lat="52.15481" lon="4.472453">
        <ele>-100.0</ele>
        <time>2020-09-21T15:08:55Z</time>
      </trkpt>
      <trkpt lat="52.154842" lon="4.472425">
        <ele>-100.0</ele>
        <time>2020-09-21T15:08:56Z</time>
      </trkpt>
      <trkpt lat="52.154877" lon="4.472405">
        <ele>-100.0</ele>
        <time>2020-09-21T15:08:57Z</time>
      </trkpt>
      <trkpt lat="52.154907" lon="4.4723945">
        <ele>-100.0</ele>
        <time>2020-09-21T15:08:58Z</time>
      </trkpt>
      <trkpt lat="52.154938" lon="4.4723945">
        <ele>-100.0</ele>
        <time>2020-09-21T15:08:59Z</time>
      </trkpt>
      <trkpt lat="52.15496" lon="4.472401">
        <ele>-100.0</ele>
        <time>2020-09-21T15:09:00Z</time>
      </trkpt>
      <trkpt lat="52.15499" lon="4.4724116">
        <ele>-100.0</ele>
        <time>2020-09-21T15:09:01Z</time>
      </trkpt>
      <trkpt lat="52.15502" lon="4.472427">
        <ele>-100.0</ele>
        <time>2020-09-21T15:09:02Z</time>
      </trkpt>
      <trkpt lat="52.15505" lon="4.472444">
        <ele>-100.0</ele>
        <time>2020-09-21T15:09:03Z</time>
      </trkpt>
      <trkpt lat="52.15508" lon="4.472461">
        <ele>-100.0</ele>
        <time>2020-09-21T15:09:04Z</time>
      </trkpt>
      <trkpt lat="52.15511" lon="4.47248">
        <ele>-100.0</ele>
        <time>2020-09-21T15:09:05Z</time>
      </trkpt>
      <trkpt lat="52.155148" lon="4.4724975">
        <ele>-100.0</ele>
        <time>2020-09-21T15:09:06Z</time>
      </trkpt>
      <trkpt lat="52.15518" lon="4.472512">
        <ele>-100.0</ele>
        <time>2020-09-21T15:09:07Z</time>
      </trkpt>
      <trkpt lat="52.155216" lon="4.472525">
        <ele>-100.0</ele>
        <time>2020-09-21T15:09:09Z</time>
      </trkpt>
      <trkpt lat="52.155254" lon="4.4725356">
        <ele>-100.0</ele>
        <time>2020-09-21T15:09:09Z</time>
      </trkpt>
      <trkpt lat="52.155296" lon="4.472544">
        <ele>-100.0</ele>
        <time>2020-09-21T15:09:10Z</time>
      </trkpt>
      <trkpt lat="52.155334" lon="4.4725494">
        <ele>-100.0</ele>
        <time>2020-09-21T15:09:11Z</time>
      </trkpt>
      <trkpt lat="52.155373" lon="4.472551">
        <ele>-100.0</ele>
        <time>2020-09-21T15:09:12Z</time>
      </trkpt>
      <trkpt lat="52.15541" lon="4.4725504">
        <ele>-100.0</ele>
        <time>2020-09-21T15:09:13Z</time>
      </trkpt>
      <trkpt lat="52.155453" lon="4.472547">
        <ele>-100.0</ele>
        <time>2020-09-21T15:09:14Z</time>
      </trkpt>
      <trkpt lat="52.155495" lon="4.472541">
        <ele>-100.0</ele>
        <time>2020-09-21T15:09:15Z</time>
      </trkpt>
      <trkpt lat="52.15553" lon="4.472534">
        <ele>-100.0</ele>
        <time>2020-09-21T15:09:16Z</time>
      </trkpt>
      <trkpt lat="52.155567" lon="4.4725323">
        <ele>-100.0</ele>
        <time>2020-09-21T15:09:17Z</time>
      </trkpt>
      <trkpt lat="52.155605" lon="4.4725356">
        <ele>-100.0</ele>
        <time>2020-09-21T15:09:18Z</time>
      </trkpt>
      <trkpt lat="52.155647" lon="4.4725432">
        <ele>-100.0</ele>
        <time>2020-09-21T15:09:19Z</time>
      </trkpt>
      <trkpt lat="52.15569" lon="4.4725547">
        <ele>-100.0</ele>
        <time>2020-09-21T15:09:20Z</time>
      </trkpt>
      <trkpt lat="52.15573" lon="4.4725685">
        <ele>-100.0</ele>
        <time>2020-09-21T15:09:21Z</time>
      </trkpt>
      <trkpt lat="52.155777" lon="4.472583">
        <ele>-100.0</ele>
        <time>2020-09-21T15:09:22Z</time>
      </trkpt>
      <trkpt lat="52.15581" lon="4.472601">
        <ele>-100.0</ele>
        <time>2020-09-21T15:09:23Z</time>
      </trkpt>
      <trkpt lat="52.155853" lon="4.4726267">
        <ele>-100.0</ele>
        <time>2020-09-21T15:09:24Z</time>
      </trkpt>
      <trkpt lat="52.155895" lon="4.4726534">
        <ele>-100.0</ele>
        <time>2020-09-21T15:09:25Z</time>
      </trkpt>
      <trkpt lat="52.155933" lon="4.4726815">
        <ele>-100.0</ele>
        <time>2020-09-21T15:09:26Z</time>
      </trkpt>
      <trkpt lat="52.155975" lon="4.4727135">
        <ele>-100.0</ele>
        <time>2020-09-21T15:09:27Z</time>
      </trkpt>
      <trkpt lat="52.156017" lon="4.4727473">
        <ele>-100.0</ele>
        <time>2020-09-21T15:09:28Z</time>
      </trkpt>
      <trkpt lat="52.15606" lon="4.4727817">
        <ele>-100.0</ele>
        <time>2020-09-21T15:09:30Z</time>
      </trkpt>
      <trkpt lat="52.156097" lon="4.4728193">
        <ele>-100.0</ele>
        <time>2020-09-21T15:09:30Z</time>
      </trkpt>
      <trkpt lat="52.156136" lon="4.4728575">
        <ele>-100.0</ele>
        <time>2020-09-21T15:09:31Z</time>
      </trkpt>
      <trkpt lat="52.15617" lon="4.472895">
        <ele>-100.0</ele>
        <time>2020-09-21T15:09:32Z</time>
      </trkpt>
      <trkpt lat="52.15621" lon="4.472932">
        <ele>-100.0</ele>
        <time>2020-09-21T15:09:33Z</time>
      </trkpt>
      <trkpt lat="52.156254" lon="4.47297">
        <ele>-100.0</ele>
        <time>2020-09-21T15:09:34Z</time>
      </trkpt>
      <trkpt lat="52.15629" lon="4.4730067">
        <ele>-100.0</ele>
        <time>2020-09-21T15:09:35Z</time>
      </trkpt>
      <trkpt lat="52.15633" lon="4.4730434">
        <ele>-100.0</ele>
        <time>2020-09-21T15:09:36Z</time>
      </trkpt>
      <trkpt lat="52.15637" lon="4.473078">
        <ele>-100.0</ele>
        <time>2020-09-21T15:09:37Z</time>
      </trkpt>
      <trkpt lat="52.15641" lon="4.4731126">
        <ele>-100.0</ele>
        <time>2020-09-21T15:09:38Z</time>
      </trkpt>
      <trkpt lat="52.15645" lon="4.47315">
        <ele>-100.0</ele>
        <time>2020-09-21T15:09:40Z</time>
      </trkpt>
      <trkpt lat="52.156487" lon="4.4731913">
        <ele>-100.0</ele>
        <time>2020-09-21T15:09:40Z</time>
      </trkpt>
      <trkpt lat="52.15653" lon="4.4732347">
        <ele>-100.0</ele>
        <time>2020-09-21T15:09:41Z</time>
      </trkpt>
      <trkpt lat="52.15657" lon="4.473276">
        <ele>-100.0</ele>
        <time>2020-09-21T15:09:42Z</time>
      </trkpt>
      <trkpt lat="52.156612" lon="4.4733157">
        <ele>-100.0</ele>
        <time>2020-09-21T15:09:43Z</time>
      </trkpt>
      <trkpt lat="52.156647" lon="4.4733515">
        <ele>-100.0</ele>
        <time>2020-09-21T15:09:44Z</time>
      </trkpt>
      <trkpt lat="52.15668" lon="4.4733877">
        <ele>-100.0</ele>
        <time>2020-09-21T15:09:45Z</time>
      </trkpt>
      <trkpt lat="52.15671" lon="4.473424">
        <ele>-100.0</ele>
        <time>2020-09-21T15:09:46Z</time>
      </trkpt>
      <trkpt lat="52.15675" lon="4.473459">
        <ele>-100.0</ele>
        <time>2020-09-21T15:09:47Z</time>
      </trkpt>
      <trkpt lat="52.156788" lon="4.473494">
        <ele>-100.0</ele>
        <time>2020-09-21T15:09:48Z</time>
      </trkpt>
      <trkpt lat="52.156822" lon="4.473527">
        <ele>-100.0</ele>
        <time>2020-09-21T15:09:49Z</time>
      </trkpt>
      <trkpt lat="52.156857" lon="4.4735627">
        <ele>-100.0</ele>
        <time>2020-09-21T15:09:51Z</time>
      </trkpt>
      <trkpt lat="52.15689" lon="4.4736047">
        <ele>-100.0</ele>
        <time>2020-09-21T15:09:51Z</time>
      </trkpt>
      <trkpt lat="52.15693" lon="4.473645">
        <ele>-100.0</ele>
        <time>2020-09-21T15:09:52Z</time>
      </trkpt>
      <trkpt lat="52.156967" lon="4.4736867">
        <ele>-100.0</ele>
        <time>2020-09-21T15:09:53Z</time>
      </trkpt>
      <trkpt lat="52.157005" lon="4.4737244">
        <ele>-100.0</ele>
        <time>2020-09-21T15:09:54Z</time>
      </trkpt>
      <trkpt lat="52.15704" lon="4.473759">
        <ele>-100.0</ele>
        <time>2020-09-21T15:09:55Z</time>
      </trkpt>
      <trkpt lat="52.15708" lon="4.473794">
        <ele>-100.0</ele>
        <time>2020-09-21T15:09:56Z</time>
      </trkpt>
      <trkpt lat="52.157116" lon="4.4738245">
        <ele>-100.0</ele>
        <time>2020-09-21T15:09:57Z</time>
      </trkpt>
      <trkpt lat="52.157154" lon="4.4738564">
        <ele>-100.0</ele>
        <time>2020-09-21T15:09:58Z</time>
      </trkpt>
      <trkpt lat="52.15719" lon="4.4738884">
        <ele>-100.0</ele>
        <time>2020-09-21T15:09:59Z</time>
      </trkpt>
      <trkpt lat="52.15722" lon="4.473917">
        <ele>-100.0</ele>
        <time>2020-09-21T15:10:00Z</time>
      </trkpt>
      <trkpt lat="52.157257" lon="4.473946">
        <ele>-100.0</ele>
        <time>2020-09-21T15:10:01Z</time>
      </trkpt>
      <trkpt lat="52.15729" lon="4.4739738">
        <ele>-100.0</ele>
        <time>2020-09-21T15:10:03Z</time>
      </trkpt>
      <trkpt lat="52.157326" lon="4.4740024">
        <ele>-100.0</ele>
        <time>2020-09-21T15:10:03Z</time>
      </trkpt>
      <trkpt lat="52.157364" lon="4.474033">
        <ele>-100.0</ele>
        <time>2020-09-21T15:10:04Z</time>
      </trkpt>
      <trkpt lat="52.157406" lon="4.474064">
        <ele>-100.0</ele>
        <time>2020-09-21T15:10:05Z</time>
      </trkpt>
      <trkpt lat="52.15744" lon="4.474094">
        <ele>-100.0</ele>
        <time>2020-09-21T15:10:06Z</time>
      </trkpt>
      <trkpt lat="52.157475" lon="4.474124">
        <ele>-100.0</ele>
        <time>2020-09-21T15:10:07Z</time>
      </trkpt>
      <trkpt lat="52.157505" lon="4.4741564">
        <ele>-100.0</ele>
        <time>2020-09-21T15:10:08Z</time>
      </trkpt>
      <trkpt lat="52.157543" lon="4.4741855">
        <ele>-100.0</ele>
        <time>2020-09-21T15:10:09Z</time>
      </trkpt>
      <trkpt lat="52.15757" lon="4.4742074">
        <ele>-100.0</ele>
        <time>2020-09-21T15:10:10Z</time>
      </trkpt>
      <trkpt lat="52.1576" lon="4.4742293">
        <ele>-100.0</ele>
        <time>2020-09-21T15:10:11Z</time>
      </trkpt>
      <trkpt lat="52.157635" lon="4.474255">
        <ele>-100.0</ele>
        <time>2020-09-21T15:10:13Z</time>
      </trkpt>
      <trkpt lat="52.15767" lon="4.474284">
        <ele>-100.0</ele>
        <time>2020-09-21T15:10:13Z</time>
      </trkpt>
      <trkpt lat="52.157707" lon="4.4743123">
        <ele>-100.0</ele>
        <time>2020-09-21T15:10:14Z</time>
      </trkpt>
      <trkpt lat="52.15774" lon="4.47434">
        <ele>-100.0</ele>
        <time>2020-09-21T15:10:15Z</time>
      </trkpt>
      <trkpt lat="52.15778" lon="4.474367">
        <ele>-100.0</ele>
        <time>2020-09-21T15:10:16Z</time>
      </trkpt>
      <trkpt lat="52.157814" lon="4.474396">
        <ele>-100.0</ele>
        <time>2020-09-21T15:10:17Z</time>
      </trkpt>
      <trkpt lat="52.157856" lon="4.4744277">
        <ele>-100.0</ele>
        <time>2020-09-21T15:10:18Z</time>
      </trkpt>
      <trkpt lat="52.157894" lon="4.4744596">
        <ele>-100.0</ele>
        <time>2020-09-21T15:10:19Z</time>
      </trkpt>
      <trkpt lat="52.157936" lon="4.474495">
        <ele>-100.0</ele>
        <time>2020-09-21T15:10:20Z</time>
      </trkpt>
      <trkpt lat="52.157978" lon="4.4745317">
        <ele>-100.0</ele>
        <time>2020-09-21T15:10:21Z</time>
      </trkpt>
      <trkpt lat="52.15802" lon="4.474571">
        <ele>-100.0</ele>
        <time>2020-09-21T15:10:22Z</time>
      </trkpt>
      <trkpt lat="52.158066" lon="4.4746103">
        <ele>-100.0</ele>
        <time>2020-09-21T15:10:24Z</time>
      </trkpt>
      <trkpt lat="52.1581" lon="4.4746504">
        <ele>-100.0</ele>
        <time>2020-09-21T15:10:24Z</time>
      </trkpt>
      <trkpt lat="52.158142" lon="4.4746876">
        <ele>-100.0</ele>
        <time>2020-09-21T15:10:25Z</time>
      </trkpt>
      <trkpt lat="52.158184" lon="4.474726">
        <ele>-100.0</ele>
        <time>2020-09-21T15:10:26Z</time>
      </trkpt>
      <trkpt lat="52.158222" lon="4.4747653">
        <ele>-100.0</ele>
        <time>2020-09-21T15:10:27Z</time>
      </trkpt>
      <trkpt lat="52.158264" lon="4.4748077">
        <ele>-100.0</ele>
        <time>2020-09-21T15:10:28Z</time>
      </trkpt>
      <trkpt lat="52.15831" lon="4.474853">
        <ele>-100.0</ele>
        <time>2020-09-21T15:10:29Z</time>
      </trkpt>
      <trkpt lat="52.15835" lon="4.4749026">
        <ele>-100.0</ele>
        <time>2020-09-21T15:10:30Z</time>
      </trkpt>
      <trkpt lat="52.158386" lon="4.47495">
        <ele>-100.0</ele>
        <time>2020-09-21T15:10:31Z</time>
      </trkpt>
      <trkpt lat="52.158424" lon="4.4749966">
        <ele>-100.0</ele>
        <time>2020-09-21T15:10:32Z</time>
      </trkpt>
      <trkpt lat="52.15846" lon="4.4750495">
        <ele>-100.0</ele>
        <time>2020-09-21T15:10:34Z</time>
      </trkpt>
      <trkpt lat="52.15849" lon="4.4751015">
        <ele>-100.0</ele>
        <time>2020-09-21T15:10:34Z</time>
      </trkpt>
      <trkpt lat="52.15852" lon="4.4751577">
        <ele>-100.0</ele>
        <time>2020-09-21T15:10:35Z</time>
      </trkpt>
      <trkpt lat="52.15855" lon="4.4752197">
        <ele>-100.0</ele>
        <time>2020-09-21T15:10:36Z</time>
      </trkpt>
      <trkpt lat="52.15858" lon="4.475282">
        <ele>-100.0</ele>
        <time>2020-09-21T15:10:37Z</time>
      </trkpt>
      <trkpt lat="52.158607" lon="4.4753494">
        <ele>-100.0</ele>
        <time>2020-09-21T15:10:38Z</time>
      </trkpt>
      <trkpt lat="52.158634" lon="4.4754186">
        <ele>-100.0</ele>
        <time>2020-09-21T15:10:39Z</time>
      </trkpt>
      <trkpt lat="52.158653" lon="4.4754944">
        <ele>-100.0</ele>
        <time>2020-09-21T15:10:40Z</time>
      </trkpt>
      <trkpt lat="52.158672" lon="4.475565">
        <ele>-100.0</ele>
        <time>2020-09-21T15:10:41Z</time>
      </trkpt>
      <trkpt lat="52.1587" lon="4.4756403">
        <ele>-100.0</ele>
        <time>2020-09-21T15:10:42Z</time>
      </trkpt>
      <trkpt lat="52.158726" lon="4.475716">
        <ele>-100.0</ele>
        <time>2020-09-21T15:10:43Z</time>
      </trkpt>
      <trkpt lat="52.158752" lon="4.4757895">
        <ele>-100.0</ele>
        <time>2020-09-21T15:10:45Z</time>
      </trkpt>
      <trkpt lat="52.158775" lon="4.4758606">
        <ele>-100.0</ele>
        <time>2020-09-21T15:10:45Z</time>
      </trkpt>
      <trkpt lat="52.158806" lon="4.4759307">
        <ele>-100.0</ele>
        <time>2020-09-21T15:10:46Z</time>
      </trkpt>
      <trkpt lat="52.158833" lon="4.4760084">
        <ele>-100.0</ele>
        <time>2020-09-21T15:10:47Z</time>
      </trkpt>
      <trkpt lat="52.158863" lon="4.4760857">
        <ele>-100.0</ele>
        <time>2020-09-21T15:10:48Z</time>
      </trkpt>
      <trkpt lat="52.15889" lon="4.476161">
        <ele>-100.0</ele>
        <time>2020-09-21T15:10:49Z</time>
      </trkpt>
      <trkpt lat="52.158913" lon="4.4762306">
        <ele>-100.0</ele>
        <time>2020-09-21T15:10:50Z</time>
      </trkpt>
      <trkpt lat="52.15894" lon="4.4763007">
        <ele>-100.0</ele>
        <time>2020-09-21T15:10:51Z</time>
      </trkpt>
      <trkpt lat="52.158962" lon="4.4763703">
        <ele>-100.0</ele>
        <time>2020-09-21T15:10:52Z</time>
      </trkpt>
      <trkpt lat="52.15898" lon="4.4764433">
        <ele>-100.0</ele>
        <time>2020-09-21T15:10:53Z</time>
      </trkpt>
      <trkpt lat="52.159" lon="4.4765153">
        <ele>-100.0</ele>
        <time>2020-09-21T15:10:54Z</time>
      </trkpt>
      <trkpt lat="52.159023" lon="4.4765816">
        <ele>-100.0</ele>
        <time>2020-09-21T15:10:55Z</time>
      </trkpt>
      <trkpt lat="52.159046" lon="4.476652">
        <ele>-100.0</ele>
        <time>2020-09-21T15:10:56Z</time>
      </trkpt>
      <trkpt lat="52.159073" lon="4.476721">
        <ele>-100.0</ele>
        <time>2020-09-21T15:10:57Z</time>
      </trkpt>
      <trkpt lat="52.159103" lon="4.476787">
        <ele>-100.0</ele>
        <time>2020-09-21T15:10:58Z</time>
      </trkpt>
      <trkpt lat="52.159126" lon="4.476854">
        <ele>-100.0</ele>
        <time>2020-09-21T15:10:59Z</time>
      </trkpt>
      <trkpt lat="52.159145" lon="4.476917">
        <ele>-100.0</ele>
        <time>2020-09-21T15:11:00Z</time>
      </trkpt>
      <trkpt lat="52.159164" lon="4.476976">
        <ele>-100.0</ele>
        <time>2020-09-21T15:11:01Z</time>
      </trkpt>
      <trkpt lat="52.159187" lon="4.4770374">
        <ele>0.0</ele>
        <time>2020-09-21T15:11:03Z</time>
      </trkpt>
      <trkpt lat="52.159195" lon="4.4770975">
        <ele>0.0</ele>
        <time>2020-09-21T15:11:03Z</time>
      </trkpt>
      <trkpt lat="52.159206" lon="4.477155">
        <ele>0.0</ele>
        <time>2020-09-21T15:11:03Z</time>
      </trkpt>
      <trkpt lat="52.159218" lon="4.4772086">
        <ele>0.0</ele>
        <time>2020-09-21T15:11:04Z</time>
      </trkpt>
      <trkpt lat="52.159233" lon="4.4772553">
        <ele>0.0</ele>
        <time>2020-09-21T15:11:05Z</time>
      </trkpt>
      <trkpt lat="52.15924" lon="4.4773035">
        <ele>0.0</ele>
        <time>2020-09-21T15:11:06Z</time>
      </trkpt>
      <trkpt lat="52.159256" lon="4.4773498">
        <ele>0.0</ele>
        <time>2020-09-21T15:11:07Z</time>
      </trkpt>
      <trkpt lat="52.159264" lon="4.477393">
        <ele>0.0</ele>
        <time>2020-09-21T15:11:08Z</time>
      </trkpt>
      <trkpt lat="52.15928" lon="4.4774404">
        <ele>0.0</ele>
        <time>2020-09-21T15:11:09Z</time>
      </trkpt>
      <trkpt lat="52.159294" lon="4.477491">
        <ele>0.0</ele>
        <time>2020-09-21T15:11:10Z</time>
      </trkpt>
      <trkpt lat="52.159313" lon="4.477545">
        <ele>0.0</ele>
        <time>2020-09-21T15:11:12Z</time>
      </trkpt>
      <trkpt lat="52.15933" lon="4.4776">
        <ele>0.0</ele>
        <time>2020-09-21T15:11:12Z</time>
      </trkpt>
      <trkpt lat="52.15935" lon="4.4776554">
        <ele>0.0</ele>
        <time>2020-09-21T15:11:13Z</time>
      </trkpt>
      <trkpt lat="52.159367" lon="4.4777083">
        <ele>0.0</ele>
        <time>2020-09-21T15:11:14Z</time>
      </trkpt>
      <trkpt lat="52.15938" lon="4.4777603">
        <ele>0.0</ele>
        <time>2020-09-21T15:11:15Z</time>
      </trkpt>
      <trkpt lat="52.15939" lon="4.4778094">
        <ele>0.0</ele>
        <time>2020-09-21T15:11:16Z</time>
      </trkpt>
      <trkpt lat="52.1594" lon="4.4778504">
        <ele>0.0</ele>
        <time>2020-09-21T15:11:17Z</time>
      </trkpt>
      <trkpt lat="52.159405" lon="4.4778814">
        <ele>0.0</ele>
        <time>2020-09-21T15:11:18Z</time>
      </trkpt>
      <trkpt lat="52.159416" lon="4.4779058">
        <ele>0.0</ele>
        <time>2020-09-21T15:11:19Z</time>
      </trkpt>
      <trkpt lat="52.159416" lon="4.4779253">
        <ele>0.0</ele>
        <time>2020-09-21T15:11:20Z</time>
      </trkpt>
      <trkpt lat="52.15942" lon="4.477941">
        <ele>0.0</ele>
        <time>2020-09-21T15:11:21Z</time>
      </trkpt>
      <trkpt lat="52.15942" lon="4.4779525">
        <ele>0.0</ele>
        <time>2020-09-21T15:11:23Z</time>
      </trkpt>
      <trkpt lat="52.159428" lon="4.477963">
        <ele>0.0</ele>
        <time>2020-09-21T15:11:23Z</time>
      </trkpt>
      <trkpt lat="52.159428" lon="4.477974">
        <ele>0.0</ele>
        <time>2020-09-21T15:11:24Z</time>
      </trkpt>
      <trkpt lat="52.15943" lon="4.477988">
        <ele>0.0</ele>
        <time>2020-09-21T15:11:25Z</time>
      </trkpt>
      <trkpt lat="52.159435" lon="4.478007">
        <ele>0.0</ele>
        <time>2020-09-21T15:11:26Z</time>
      </trkpt>
      <trkpt lat="52.159443" lon="4.4780316">
        <ele>0.0</ele>
        <time>2020-09-21T15:11:27Z</time>
      </trkpt>
      <trkpt lat="52.159447" lon="4.4780602">
        <ele>0.0</ele>
        <time>2020-09-21T15:11:28Z</time>
      </trkpt>
      <trkpt lat="52.15946" lon="4.4780927">
        <ele>0.0</ele>
        <time>2020-09-21T15:11:29Z</time>
      </trkpt>
      <trkpt lat="52.159462" lon="4.478127">
        <ele>0.0</ele>
        <time>2020-09-21T15:11:30Z</time>
      </trkpt>
      <trkpt lat="52.159466" lon="4.4781637">
        <ele>0.0</ele>
        <time>2020-09-21T15:11:31Z</time>
      </trkpt>
      <trkpt lat="52.159477" lon="4.478197">
        <ele>0.0</ele>
        <time>2020-09-21T15:11:32Z</time>
      </trkpt>
      <trkpt lat="52.15948" lon="4.478223">
        <ele>0.0</ele>
        <time>2020-09-21T15:11:33Z</time>
      </trkpt>
      <trkpt lat="52.15948" lon="4.4782405">
        <ele>0.0</ele>
        <time>2020-09-21T15:11:34Z</time>
      </trkpt>
      <trkpt lat="52.15949" lon="4.478252">
        <ele>0.0</ele>
        <time>2020-09-21T15:11:35Z</time>
      </trkpt>
      <trkpt lat="52.159492" lon="4.47826">
        <ele>0.0</ele>
        <time>2020-09-21T15:11:36Z</time>
      </trkpt>
      <trkpt lat="52.159504" lon="4.4782667">
        <ele>0.0</ele>
        <time>2020-09-21T15:11:37Z</time>
      </trkpt>
      <trkpt lat="52.159508" lon="4.4782763">
        <ele>0.0</ele>
        <time>2020-09-21T15:11:38Z</time>
      </trkpt>
      <trkpt lat="52.159523" lon="4.478291">
        <ele>0.0</ele>
        <time>2020-09-21T15:11:39Z</time>
      </trkpt>
      <trkpt lat="52.159534" lon="4.4783144">
        <ele>0.0</ele>
        <time>2020-09-21T15:11:40Z</time>
      </trkpt>
      <trkpt lat="52.159546" lon="4.4783444">
        <ele>0.0</ele>
        <time>2020-09-21T15:11:41Z</time>
      </trkpt>
      <trkpt lat="52.159554" lon="4.4783816">
        <ele>0.0</ele>
        <time>2020-09-21T15:11:42Z</time>
      </trkpt>
      <trkpt lat="52.159565" lon="4.4784245">
        <ele>0.0</ele>
        <time>2020-09-21T15:11:44Z</time>
      </trkpt>
      <trkpt lat="52.159576" lon="4.478473">
        <ele>0.0</ele>
        <time>2020-09-21T15:11:44Z</time>
      </trkpt>
      <trkpt lat="52.159584" lon="4.478527">
        <ele>0.0</ele>
        <time>2020-09-21T15:11:45Z</time>
      </trkpt>
      <trkpt lat="52.1596" lon="4.4785833">
        <ele>0.0</ele>
        <time>2020-09-21T15:11:46Z</time>
      </trkpt>
      <trkpt lat="52.159622" lon="4.478641">
        <ele>0.0</ele>
        <time>2020-09-21T15:11:47Z</time>
      </trkpt>
      <trkpt lat="52.15964" lon="4.4787">
        <ele>0.0</ele>
        <time>2020-09-21T15:11:48Z</time>
      </trkpt>
      <trkpt lat="52.15966" lon="4.478762">
        <ele>0.0</ele>
        <time>2020-09-21T15:11:49Z</time>
      </trkpt>
      <trkpt lat="52.159683" lon="4.4788275">
        <ele>0.0</ele>
        <time>2020-09-21T15:11:50Z</time>
      </trkpt>
      <trkpt lat="52.1597" lon="4.4788947">
        <ele>0.0</ele>
        <time>2020-09-21T15:11:52Z</time>
      </trkpt>
      <trkpt lat="52.159714" lon="4.478964">
        <ele>0.0</ele>
        <time>2020-09-21T15:11:52Z</time>
      </trkpt>
      <trkpt lat="52.15973" lon="4.479037">
        <ele>0.0</ele>
        <time>2020-09-21T15:11:53Z</time>
      </trkpt>
      <trkpt lat="52.159744" lon="4.4791083">
        <ele>0.0</ele>
        <time>2020-09-21T15:11:54Z</time>
      </trkpt>
      <trkpt lat="52.15976" lon="4.4791756">
        <ele>0.0</ele>
        <time>2020-09-21T15:11:55Z</time>
      </trkpt>
      <trkpt lat="52.15977" lon="4.4792414">
        <ele>0.0</ele>
        <time>2020-09-21T15:11:56Z</time>
      </trkpt>
      <trkpt lat="52.159786" lon="4.4793096">
        <ele>0.0</ele>
        <time>2020-09-21T15:11:57Z</time>
      </trkpt>
      <trkpt lat="52.159794" lon="4.479377">
        <ele>0.0</ele>
        <time>2020-09-21T15:11:58Z</time>
      </trkpt>
      <trkpt lat="52.159805" lon="4.479443">
        <ele>0.0</ele>
        <time>2020-09-21T15:11:59Z</time>
      </trkpt>
      <trkpt lat="52.159817" lon="4.479504">
        <ele>0.0</ele>
        <time>2020-09-21T15:12:00Z</time>
      </trkpt>
      <trkpt lat="52.159824" lon="4.479566">
        <ele>0.0</ele>
        <time>2020-09-21T15:12:02Z</time>
      </trkpt>
      <trkpt lat="52.159832" lon="4.479632">
        <ele>0.0</ele>
        <time>2020-09-21T15:12:02Z</time>
      </trkpt>
      <trkpt lat="52.159836" lon="4.479692">
        <ele>100.0</ele>
        <time>2020-09-21T15:12:03Z</time>
      </trkpt>
      <trkpt lat="52.159847" lon="4.479753">
        <ele>100.0</ele>
        <time>2020-09-21T15:12:04Z</time>
      </trkpt>
      <trkpt lat="52.15985" lon="4.4798126">
        <ele>100.0</ele>
        <time>2020-09-21T15:12:05Z</time>
      </trkpt>
      <trkpt lat="52.159855" lon="4.4798703">
        <ele>100.0</ele>
        <time>2020-09-21T15:12:06Z</time>
      </trkpt>
      <trkpt lat="52.159866" lon="4.4799304">
        <ele>100.0</ele>
        <time>2020-09-21T15:12:07Z</time>
      </trkpt>
      <trkpt lat="52.159878" lon="4.4799933">
        <ele>100.0</ele>
        <time>2020-09-21T15:12:08Z</time>
      </trkpt>
      <trkpt lat="52.15988" lon="4.48006">
        <ele>100.0</ele>
        <time>2020-09-21T15:12:09Z</time>
      </trkpt>
      <trkpt lat="52.15989" lon="4.480126">
        <ele>100.0</ele>
        <time>2020-09-21T15:12:10Z</time>
      </trkpt>
      <trkpt lat="52.159897" lon="4.4802036">
        <ele>100.0</ele>
        <time>2020-09-21T15:12:11Z</time>
      </trkpt>
      <trkpt lat="52.159904" lon="4.4802785">
        <ele>100.0</ele>
        <time>2020-09-21T15:12:13Z</time>
      </trkpt>
      <trkpt lat="52.159912" lon="4.4803615">
        <ele>100.0</ele>
        <time>2020-09-21T15:12:13Z</time>
      </trkpt>
      <trkpt lat="52.15992" lon="4.480437">
        <ele>100.0</ele>
        <time>2020-09-21T15:12:14Z</time>
      </trkpt>
      <trkpt lat="52.159935" lon="4.4805174">
        <ele>100.0</ele>
        <time>2020-09-21T15:12:15Z</time>
      </trkpt>
      <trkpt lat="52.159943" lon="4.480594">
        <ele>100.0</ele>
        <time>2020-09-21T15:12:16Z</time>
      </trkpt>
      <trkpt lat="52.159954" lon="4.480663">
        <ele>100.0</ele>
        <time>2020-09-21T15:12:17Z</time>
      </trkpt>
      <trkpt lat="52.159966" lon="4.48073">
        <ele>100.0</ele>
        <time>2020-09-21T15:12:18Z</time>
      </trkpt>
      <trkpt lat="52.159973" lon="4.4807987">
        <ele>100.0</ele>
        <time>2020-09-21T15:12:19Z</time>
      </trkpt>
      <trkpt lat="52.15998" lon="4.4808683">
        <ele>100.0</ele>
        <time>2020-09-21T15:12:20Z</time>
      </trkpt>
      <trkpt lat="52.15999" lon="4.4809384">
        <ele>100.0</ele>
        <time>2020-09-21T15:12:21Z</time>
      </trkpt>
      <trkpt lat="52.159996" lon="4.4810076">
        <ele>0.0</ele>
        <time>2020-09-21T15:12:22Z</time>
      </trkpt>
      <trkpt lat="52.16" lon="4.4810767">
        <ele>0.0</ele>
        <time>2020-09-21T15:12:24Z</time>
      </trkpt>
      <trkpt lat="52.160004" lon="4.4811463">
        <ele>0.0</ele>
        <time>2020-09-21T15:12:24Z</time>
      </trkpt>
      <trkpt lat="52.16001" lon="4.4812164">
        <ele>0.0</ele>
        <time>2020-09-21T15:12:25Z</time>
      </trkpt>
      <trkpt lat="52.160015" lon="4.4812865">
        <ele>0.0</ele>
        <time>2020-09-21T15:12:26Z</time>
      </trkpt>
      <trkpt lat="52.160015" lon="4.4813566">
        <ele>0.0</ele>
        <time>2020-09-21T15:12:27Z</time>
      </trkpt>
      <trkpt lat="52.16002" lon="4.4814262">
        <ele>0.0</ele>
        <time>2020-09-21T15:12:28Z</time>
      </trkpt>
      <trkpt lat="52.160027" lon="4.4814954">
        <ele>0.0</ele>
        <time>2020-09-21T15:12:29Z</time>
      </trkpt>
      <trkpt lat="52.16003" lon="4.481562">
        <ele>0.0</ele>
        <time>2020-09-21T15:12:30Z</time>
      </trkpt>
      <trkpt lat="52.16004" lon="4.481631">
        <ele>0.0</ele>
        <time>2020-09-21T15:12:31Z</time>
      </trkpt>
      <trkpt lat="52.160046" lon="4.4816923">
        <ele>0.0</ele>
        <time>2020-09-21T15:12:32Z</time>
      </trkpt>
      <trkpt lat="52.160057" lon="4.4817553">
        <ele>0.0</ele>
        <time>2020-09-21T15:12:33Z</time>
      </trkpt>
      <trkpt lat="52.160065" lon="4.481812">
        <ele>0.0</ele>
        <time>2020-09-21T15:12:34Z</time>
      </trkpt>
      <trkpt lat="52.160072" lon="4.4818716">
        <ele>0.0</ele>
        <time>2020-09-21T15:12:35Z</time>
      </trkpt>
      <trkpt lat="52.160076" lon="4.481932">
        <ele>0.0</ele>
        <time>2020-09-21T15:12:36Z</time>
      </trkpt>
      <trkpt lat="52.160076" lon="4.4819946">
        <ele>0.0</ele>
        <time>2020-09-21T15:12:37Z</time>
      </trkpt>
      <trkpt lat="52.160084" lon="4.4820595">
        <ele>0.0</ele>
        <time>2020-09-21T15:12:38Z</time>
      </trkpt>
      <trkpt lat="52.160088" lon="4.4821258">
        <ele>0.0</ele>
        <time>2020-09-21T15:12:39Z</time>
      </trkpt>
      <trkpt lat="52.16009" lon="4.4821944">
        <ele>0.0</ele>
        <time>2020-09-21T15:12:40Z</time>
      </trkpt>
      <trkpt lat="52.1601" lon="4.4822674">
        <ele>0.0</ele>
        <time>2020-09-21T15:12:41Z</time>
      </trkpt>
      <trkpt lat="52.160103" lon="4.4823384">
        <ele>0.0</ele>
        <time>2020-09-21T15:12:42Z</time>
      </trkpt>
      <trkpt lat="52.160107" lon="4.4824076">
        <ele>0.0</ele>
        <time>2020-09-21T15:12:43Z</time>
      </trkpt>
      <trkpt lat="52.160114" lon="4.4824758">
        <ele>0.0</ele>
        <time>2020-09-21T15:12:45Z</time>
      </trkpt>
      <trkpt lat="52.160122" lon="4.4825377">
        <ele>0.0</ele>
        <time>2020-09-21T15:12:45Z</time>
      </trkpt>
      <trkpt lat="52.16013" lon="4.4826">
        <ele>0.0</ele>
        <time>2020-09-21T15:12:46Z</time>
      </trkpt>
      <trkpt lat="52.160133" lon="4.482667">
        <ele>0.0</ele>
        <time>2020-09-21T15:12:47Z</time>
      </trkpt>
      <trkpt lat="52.160137" lon="4.482731">
        <ele>0.0</ele>
        <time>2020-09-21T15:12:48Z</time>
      </trkpt>
      <trkpt lat="52.160145" lon="4.482795">
        <ele>0.0</ele>
        <time>2020-09-21T15:12:49Z</time>
      </trkpt>
      <trkpt lat="52.16015" lon="4.4828568">
        <ele>0.0</ele>
        <time>2020-09-21T15:12:50Z</time>
      </trkpt>
      <trkpt lat="52.16016" lon="4.4829154">
        <ele>0.0</ele>
        <time>2020-09-21T15:12:51Z</time>
      </trkpt>
      <trkpt lat="52.160164" lon="4.4829736">
        <ele>0.0</ele>
        <time>2020-09-21T15:12:52Z</time>
      </trkpt>
      <trkpt lat="52.160168" lon="4.4830294">
        <ele>0.0</ele>
        <time>2020-09-21T15:12:53Z</time>
      </trkpt>
      <trkpt lat="52.16018" lon="4.483083">
        <ele>0.0</ele>
        <time>2020-09-21T15:12:54Z</time>
      </trkpt>
      <trkpt lat="52.160183" lon="4.4831343">
        <ele>0.0</ele>
        <time>2020-09-21T15:12:55Z</time>
      </trkpt>
      <trkpt lat="52.160194" lon="4.483184">
        <ele>0.0</ele>
        <time>2020-09-21T15:12:56Z</time>
      </trkpt>
      <trkpt lat="52.1602" lon="4.483238">
        <ele>0.0</ele>
        <time>2020-09-21T15:12:57Z</time>
      </trkpt>
      <trkpt lat="52.160206" lon="4.4832916">
        <ele>0.0</ele>
        <time>2020-09-21T15:12:58Z</time>
      </trkpt>
      <trkpt lat="52.160213" lon="4.483345">
        <ele>0.0</ele>
        <time>2020-09-21T15:12:59Z</time>
      </trkpt>
      <trkpt lat="52.16022" lon="4.483402">
        <ele>0.0</ele>
        <time>2020-09-21T15:13:00Z</time>
      </trkpt>
      <trkpt lat="52.160225" lon="4.4834576">
        <ele>0.0</ele>
        <time>2020-09-21T15:13:01Z</time>
      </trkpt>
      <trkpt lat="52.16023" lon="4.4835143">
        <ele>0.0</ele>
        <time>2020-09-21T15:13:03Z</time>
      </trkpt>
      <trkpt lat="52.16023" lon="4.483573">
        <ele>0.0</ele>
        <time>2020-09-21T15:13:03Z</time>
      </trkpt>
      <trkpt lat="52.160236" lon="4.4836392">
        <ele>0.0</ele>
        <time>2020-09-21T15:13:04Z</time>
      </trkpt>
      <trkpt lat="52.16024" lon="4.4836993">
        <ele>0.0</ele>
        <time>2020-09-21T15:13:05Z</time>
      </trkpt>
      <trkpt lat="52.160244" lon="4.483758">
        <ele>0.0</ele>
        <time>2020-09-21T15:13:06Z</time>
      </trkpt>
      <trkpt lat="52.160244" lon="4.4838204">
        <ele>0.0</ele>
        <time>2020-09-21T15:13:07Z</time>
      </trkpt>
      <trkpt lat="52.16025" lon="4.4838843">
        <ele>0.0</ele>
        <time>2020-09-21T15:13:08Z</time>
      </trkpt>
      <trkpt lat="52.160255" lon="4.4839525">
        <ele>0.0</ele>
        <time>2020-09-21T15:13:09Z</time>
      </trkpt>
      <trkpt lat="52.16026" lon="4.4840198">
        <ele>0.0</ele>
        <time>2020-09-21T15:13:10Z</time>
      </trkpt>
      <trkpt lat="52.16026" lon="4.4840894">
        <ele>0.0</ele>
        <time>2020-09-21T15:13:11Z</time>
      </trkpt>
      <trkpt lat="52.16026" lon="4.4841638">
        <ele>0.0</ele>
        <time>2020-09-21T15:13:12Z</time>
      </trkpt>
      <trkpt lat="52.160267" lon="4.484234">
        <ele>0.0</ele>
        <time>2020-09-21T15:13:14Z</time>
      </trkpt>
      <trkpt lat="52.160267" lon="4.4842997">
        <ele>0.0</ele>
        <time>2020-09-21T15:13:14Z</time>
      </trkpt>
      <trkpt lat="52.160267" lon="4.484364">
        <ele>0.0</ele>
        <time>2020-09-21T15:13:15Z</time>
      </trkpt>
      <trkpt lat="52.160267" lon="4.4844227">
        <ele>0.0</ele>
        <time>2020-09-21T15:13:16Z</time>
      </trkpt>
      <trkpt lat="52.160267" lon="4.4844837">
        <ele>0.0</ele>
        <time>2020-09-21T15:13:17Z</time>
      </trkpt>
      <trkpt lat="52.160267" lon="4.484545">
        <ele>0.0</ele>
        <time>2020-09-21T15:13:18Z</time>
      </trkpt>
      <trkpt lat="52.160267" lon="4.4846063">
        <ele>0.0</ele>
        <time>2020-09-21T15:13:19Z</time>
      </trkpt>
      <trkpt lat="52.160267" lon="4.4846673">
        <ele>0.0</ele>
        <time>2020-09-21T15:13:20Z</time>
      </trkpt>
      <trkpt lat="52.160267" lon="4.48473">
        <ele>0.0</ele>
        <time>2020-09-21T15:13:21Z</time>
      </trkpt>
      <trkpt lat="52.160267" lon="4.48479">
        <ele>0.0</ele>
        <time>2020-09-21T15:13:22Z</time>
      </trkpt>
      <trkpt lat="52.16027" lon="4.4848456">
        <ele>0.0</ele>
        <time>2020-09-21T15:13:24Z</time>
      </trkpt>
      <trkpt lat="52.160286" lon="4.484898">
        <ele>0.0</ele>
        <time>2020-09-21T15:13:24Z</time>
      </trkpt>
      <trkpt lat="52.1603" lon="4.484944">
        <ele>0.0</ele>
        <time>2020-09-21T15:13:25Z</time>
      </trkpt>
      <trkpt lat="52.160328" lon="4.484983">
        <ele>0.0</ele>
        <time>2020-09-21T15:13:26Z</time>
      </trkpt>
      <trkpt lat="52.16036" lon="4.485014">
        <ele>0.0</ele>
        <time>2020-09-21T15:13:27Z</time>
      </trkpt>
      <trkpt lat="52.16039" lon="4.4850383">
        <ele>0.0</ele>
        <time>2020-09-21T15:13:28Z</time>
      </trkpt>
      <trkpt lat="52.16043" lon="4.4850597">
        <ele>0.0</ele>
        <time>2020-09-21T15:13:29Z</time>
      </trkpt>
      <trkpt lat="52.160465" lon="4.4850802">
        <ele>0.0</ele>
        <time>2020-09-21T15:13:30Z</time>
      </trkpt>
      <trkpt lat="52.160496" lon="4.4850965">
        <ele>0.0</ele>
        <time>2020-09-21T15:13:31Z</time>
      </trkpt>
      <trkpt lat="52.160534" lon="4.4851074">
        <ele>0.0</ele>
        <time>2020-09-21T15:13:32Z</time>
      </trkpt>
      <trkpt lat="52.160557" lon="4.485116">
        <ele>0.0</ele>
        <time>2020-09-21T15:13:33Z</time>
      </trkpt>
      <trkpt lat="52.160583" lon="4.4851227">
        <ele>0.0</ele>
        <time>2020-09-21T15:13:35Z</time>
      </trkpt>
      <trkpt lat="52.16061" lon="4.485134">
        <ele>0.0</ele>
        <time>2020-09-21T15:13:35Z</time>
      </trkpt>
      <trkpt lat="52.16064" lon="4.485147">
        <ele>0.0</ele>
        <time>2020-09-21T15:13:36Z</time>
      </trkpt>
      <trkpt lat="52.16067" lon="4.4851604">
        <ele>0.0</ele>
        <time>2020-09-21T15:13:37Z</time>
      </trkpt>
      <trkpt lat="52.1607" lon="4.485172">
        <ele>0.0</ele>
        <time>2020-09-21T15:13:38Z</time>
      </trkpt>
      <trkpt lat="52.160732" lon="4.4851813">
        <ele>0.0</ele>
        <time>2020-09-21T15:13:39Z</time>
      </trkpt>
      <trkpt lat="52.160767" lon="4.4851894">
        <ele>0.0</ele>
        <time>2020-09-21T15:13:40Z</time>
      </trkpt>
      <trkpt lat="52.160797" lon="4.485198">
        <ele>0.0</ele>
        <time>2020-09-21T15:13:41Z</time>
      </trkpt>
      <trkpt lat="52.160835" lon="4.4852076">
        <ele>0.0</ele>
        <time>2020-09-21T15:13:42Z</time>
      </trkpt>
      <trkpt lat="52.160866" lon="4.4852204">
        <ele>0.0</ele>
        <time>2020-09-21T15:13:43Z</time>
      </trkpt>
      <trkpt lat="52.160892" lon="4.4852347">
        <ele>0.0</ele>
        <time>2020-09-21T15:13:45Z</time>
      </trkpt>
      <trkpt lat="52.160923" lon="4.485249">
        <ele>0.0</ele>
        <time>2020-09-21T15:13:45Z</time>
      </trkpt>
      <trkpt lat="52.160946" lon="4.485264">
        <ele>0.0</ele>
        <time>2020-09-21T15:13:46Z</time>
      </trkpt>
      <trkpt lat="52.16096" lon="4.4852757">
        <ele>0.0</ele>
        <time>2020-09-21T15:13:47Z</time>
      </trkpt>
      <trkpt lat="52.160976" lon="4.4852853">
        <ele>0.0</ele>
        <time>2020-09-21T15:13:48Z</time>
      </trkpt>
      <trkpt lat="52.16099" lon="4.485293">
        <ele>0.0</ele>
        <time>2020-09-21T15:13:49Z</time>
      </trkpt>
      <trkpt lat="52.161" lon="4.4853005">
        <ele>0.0</ele>
        <time>2020-09-21T15:13:50Z</time>
      </trkpt>
      <trkpt lat="52.161003" lon="4.4853067">
        <ele>0.0</ele>
        <time>2020-09-21T15:13:51Z</time>
      </trkpt>
      <trkpt lat="52.161003" lon="4.4853115">
        <ele>0.0</ele>
        <time>2020-09-21T15:13:53Z</time>
      </trkpt>
      <trkpt lat="52.161003" lon="4.4853134">
        <ele>0.0</ele>
        <time>2020-09-21T15:13:53Z</time>
      </trkpt>
      <trkpt lat="52.161003" lon="4.4853153">
        <ele>0.0</ele>
        <time>2020-09-21T15:13:54Z</time>
      </trkpt>
      <trkpt lat="52.161003" lon="4.485318">
        <ele>0.0</ele>
        <time>2020-09-21T15:13:55Z</time>
      </trkpt>
      <trkpt lat="52.161" lon="4.4853234">
        <ele>0.0</ele>
        <time>2020-09-21T15:13:56Z</time>
      </trkpt>
      <trkpt lat="52.161" lon="4.485328">
        <ele>0.0</ele>
        <time>2020-09-21T15:13:57Z</time>
      </trkpt>
      <trkpt lat="52.16099" lon="4.485334">
        <ele>0.0</ele>
        <time>2020-09-21T15:13:58Z</time>
      </trkpt>
      <trkpt lat="52.16099" lon="4.4853387">
        <ele>0.0</ele>
        <time>2020-09-21T15:13:59Z</time>
      </trkpt>
      <trkpt lat="52.161" lon="4.4853387">
        <ele>0.0</ele>
        <time>2020-09-21T15:14:00Z</time>
      </trkpt>
      <trkpt lat="52.161003" lon="4.4853415">
        <ele>0.0</ele>
        <time>2020-09-21T15:14:01Z</time>
      </trkpt>
      <trkpt lat="52.161003" lon="4.4853473">
        <ele>0.0</ele>
        <time>2020-09-21T15:14:02Z</time>
      </trkpt>
      <trkpt lat="52.161003" lon="4.4853554">
        <ele>0.0</ele>
        <time>2020-09-21T15:14:03Z</time>
      </trkpt>
      <trkpt lat="52.161" lon="4.485367">
        <ele>0.0</ele>
        <time>2020-09-21T15:14:04Z</time>
      </trkpt>
      <trkpt lat="52.16099" lon="4.485379">
        <ele>0.0</ele>
        <time>2020-09-21T15:14:05Z</time>
      </trkpt>
      <trkpt lat="52.160988" lon="4.4853897">
        <ele>0.0</ele>
        <time>2020-09-21T15:14:06Z</time>
      </trkpt>
      <trkpt lat="52.160984" lon="4.4853983">
        <ele>0.0</ele>
        <time>2020-09-21T15:14:07Z</time>
      </trkpt>
      <trkpt lat="52.160988" lon="4.4854035">
        <ele>0.0</ele>
        <time>2020-09-21T15:14:08Z</time>
      </trkpt>
      <trkpt lat="52.16099" lon="4.4854083">
        <ele>0.0</ele>
        <time>2020-09-21T15:14:09Z</time>
      </trkpt>
      <trkpt lat="52.16099" lon="4.4854136">
        <ele>0.0</ele>
        <time>2020-09-21T15:14:10Z</time>
      </trkpt>
      <trkpt lat="52.16099" lon="4.4854155">
        <ele>0.0</ele>
        <time>2020-09-21T15:14:11Z</time>
      </trkpt>
      <trkpt lat="52.16099" lon="4.485416">
        <ele>0.0</ele>
        <time>2020-09-21T15:14:12Z</time>
      </trkpt>
      <trkpt lat="52.160988" lon="4.485415">
        <ele>0.0</ele>
        <time>2020-09-21T15:14:14Z</time>
      </trkpt>
      <trkpt lat="52.160988" lon="4.4854164">
        <ele>0.0</ele>
        <time>2020-09-21T15:14:14Z</time>
      </trkpt>
      <trkpt lat="52.160988" lon="4.485419">
        <ele>0.0</ele>
        <time>2020-09-21T15:14:15Z</time>
      </trkpt>
      <trkpt lat="52.160988" lon="4.485426">
        <ele>0.0</ele>
        <time>2020-09-21T15:14:16Z</time>
      </trkpt>
      <trkpt lat="52.16099" lon="4.4854326">
        <ele>0.0</ele>
        <time>2020-09-21T15:14:17Z</time>
      </trkpt>
      <trkpt lat="52.161" lon="4.485439">
        <ele>0.0</ele>
        <time>2020-09-21T15:14:18Z</time>
      </trkpt>
      <trkpt lat="52.161" lon="4.4854417">
        <ele>0.0</ele>
        <time>2020-09-21T15:14:19Z</time>
      </trkpt>
      <trkpt lat="52.161003" lon="4.485449">
        <ele>0.0</ele>
        <time>2020-09-21T15:14:28Z</time>
      </trkpt>
      <trkpt lat="52.160988" lon="4.485447">
        <ele>0.0</ele>
        <time>2020-09-21T15:14:40Z</time>
      </trkpt>
      <trkpt lat="52.160988" lon="4.485447">
        <ele>0.0</ele>
        <time>2020-09-21T15:14:41Z</time>
      </trkpt>
      <trkpt lat="52.160976" lon="4.485449">
        <ele>0.0</ele>
        <time>2020-09-21T15:14:46Z</time>
      </trkpt>
      <trkpt lat="52.160976" lon="4.485449">
        <ele>0.0</ele>
        <time>2020-09-21T15:14:47Z</time>
      </trkpt>
      <trkpt lat="52.160976" lon="4.485449">
        <ele>0.0</ele>
        <time>2020-09-21T15:14:48Z</time>
      </trkpt>
      <trkpt lat="52.160973" lon="4.485449">
        <ele>0.0</ele>
        <time>2020-09-21T15:14:49Z</time>
      </trkpt>
      <trkpt lat="52.16097" lon="4.485448">
        <ele>0.0</ele>
        <time>2020-09-21T15:14:50Z</time>
      </trkpt>
      <trkpt lat="52.160954" lon="4.4854517">
        <ele>0.0</ele>
        <time>2020-09-21T15:15:18Z</time>
      </trkpt>
      <trkpt lat="52.160946" lon="4.4854517">
        <ele>0.0</ele>
        <time>2020-09-21T15:15:19Z</time>
      </trkpt>
      <trkpt lat="52.160946" lon="4.485452">
        <ele>0.0</ele>
        <time>2020-09-21T15:15:20Z</time>
      </trkpt>
      <trkpt lat="52.160942" lon="4.4854527">
        <ele>0.0</ele>
        <time>2020-09-21T15:15:21Z</time>
      </trkpt>
      <trkpt lat="52.16094" lon="4.4854603">
        <ele>0.0</ele>
        <time>2020-09-21T15:15:42Z</time>
      </trkpt>
      <trkpt lat="52.16094" lon="4.4854636">
        <ele>0.0</ele>
        <time>2020-09-21T15:15:45Z</time>
      </trkpt>
      <trkpt lat="52.16094" lon="4.485464">
        <ele>0.0</ele>
        <time>2020-09-21T15:15:46Z</time>
      </trkpt>
      <trkpt lat="52.16094" lon="4.485466">
        <ele>0.0</ele>
        <time>2020-09-21T15:15:47Z</time>
      </trkpt>
      <trkpt lat="52.16094" lon="4.485479">
        <ele>0.0</ele>
        <time>2020-09-21T15:15:50Z</time>
      </trkpt>
      <trkpt lat="52.16094" lon="4.485479">
        <ele>0.0</ele>
        <time>2020-09-21T15:15:50Z</time>
      </trkpt>
      <trkpt lat="52.160942" lon="4.48548">
        <ele>0.0</ele>
        <time>2020-09-21T15:15:51Z</time>
      </trkpt>
      <trkpt lat="52.160946" lon="4.4854836">
        <ele>0.0</ele>
        <time>2020-09-21T15:15:53Z</time>
      </trkpt>
      <trkpt lat="52.160957" lon="4.4854803">
        <ele>0.0</ele>
        <time>2020-09-21T15:16:10Z</time>
      </trkpt>
      <trkpt lat="52.160957" lon="4.485479">
        <ele>0.0</ele>
        <time>2020-09-21T15:16:11Z</time>
      </trkpt>
      <trkpt lat="52.160957" lon="4.485476">
        <ele>0.0</ele>
        <time>2020-09-21T15:16:12Z</time>
      </trkpt>
      <trkpt lat="52.160957" lon="4.485473">
        <ele>0.0</ele>
        <time>2020-09-21T15:16:13Z</time>
      </trkpt>
      <trkpt lat="52.16096" lon="4.4854693">
        <ele>0.0</ele>
        <time>2020-09-21T15:16:14Z</time>
      </trkpt>
      <trkpt lat="52.160976" lon="4.4854555">
        <ele>0.0</ele>
        <time>2020-09-21T15:16:44Z</time>
      </trkpt>
      <trkpt lat="52.160976" lon="4.4854555">
        <ele>0.0</ele>
        <time>2020-09-21T15:16:45Z</time>
      </trkpt>
      <trkpt lat="52.160984" lon="4.485456">
        <ele>0.0</ele>
        <time>2020-09-21T15:16:46Z</time>
      </trkpt>
      <trkpt lat="52.160984" lon="4.4854565">
        <ele>0.0</ele>
        <time>2020-09-21T15:16:47Z</time>
      </trkpt>
      <trkpt lat="52.16099" lon="4.485457">
        <ele>0.0</ele>
        <time>2020-09-21T15:16:49Z</time>
      </trkpt>
      <trkpt lat="52.161" lon="4.485457">
        <ele>0.0</ele>
        <time>2020-09-21T15:16:50Z</time>
      </trkpt>
      <trkpt lat="52.161007" lon="4.4854603">
        <ele>0.0</ele>
        <time>2020-09-21T15:16:57Z</time>
      </trkpt>
      <trkpt lat="52.161007" lon="4.4854636">
        <ele>0.0</ele>
        <time>2020-09-21T15:16:59Z</time>
      </trkpt>
      <trkpt lat="52.161007" lon="4.485464">
        <ele>0.0</ele>
        <time>2020-09-21T15:17:01Z</time>
      </trkpt>
      <trkpt lat="52.161015" lon="4.4854684">
        <ele>0.0</ele>
        <time>2020-09-21T15:17:02Z</time>
      </trkpt>
      <trkpt lat="52.161015" lon="4.485469">
        <ele>0.0</ele>
        <time>2020-09-21T15:17:03Z</time>
      </trkpt>
      <trkpt lat="52.161015" lon="4.4854736">
        <ele>0.0</ele>
        <time>2020-09-21T15:17:06Z</time>
      </trkpt>
      <trkpt lat="52.161022" lon="4.485479">
        <ele>0.0</ele>
        <time>2020-09-21T15:17:11Z</time>
      </trkpt>
      <trkpt lat="52.16103" lon="4.485481">
        <ele>0.0</ele>
        <time>2020-09-21T15:17:12Z</time>
      </trkpt>
      <trkpt lat="52.16104" lon="4.4854846">
        <ele>0.0</ele>
        <time>2020-09-21T15:17:14Z</time>
      </trkpt>
      <trkpt lat="52.16106" lon="4.4854894">
        <ele>0.0</ele>
        <time>2020-09-21T15:17:14Z</time>
      </trkpt>
      <trkpt lat="52.161087" lon="4.485493">
        <ele>0.0</ele>
        <time>2020-09-21T15:17:15Z</time>
      </trkpt>
      <trkpt lat="52.161118" lon="4.4854975">
        <ele>0.0</ele>
        <time>2020-09-21T15:17:16Z</time>
      </trkpt>
      <trkpt lat="52.161148" lon="4.485504">
        <ele>0.0</ele>
        <time>2020-09-21T15:17:17Z</time>
      </trkpt>
      <trkpt lat="52.161182" lon="4.485514">
        <ele>0.0</ele>
        <time>2020-09-21T15:17:18Z</time>
      </trkpt>
      <trkpt lat="52.161217" lon="4.485527">
        <ele>0.0</ele>
        <time>2020-09-21T15:17:19Z</time>
      </trkpt>
      <trkpt lat="52.16125" lon="4.485537">
        <ele>0.0</ele>
        <time>2020-09-21T15:17:20Z</time>
      </trkpt>
      <trkpt lat="52.16128" lon="4.4855423">
        <ele>0.0</ele>
        <time>2020-09-21T15:17:21Z</time>
      </trkpt>
      <trkpt lat="52.161304" lon="4.485544">
        <ele>0.0</ele>
        <time>2020-09-21T15:17:22Z</time>
      </trkpt>
      <trkpt lat="52.16133" lon="4.4855456">
        <ele>0.0</ele>
        <time>2020-09-21T15:17:23Z</time>
      </trkpt>
      <trkpt lat="52.161358" lon="4.485549">
        <ele>0.0</ele>
        <time>2020-09-21T15:17:25Z</time>
      </trkpt>
      <trkpt lat="52.16138" lon="4.485551">
        <ele>0.0</ele>
        <time>2020-09-21T15:17:25Z</time>
      </trkpt>
      <trkpt lat="52.16141" lon="4.485553">
        <ele>0.0</ele>
        <time>2020-09-21T15:17:26Z</time>
      </trkpt>
      <trkpt lat="52.161438" lon="4.485555">
        <ele>0.0</ele>
        <time>2020-09-21T15:17:27Z</time>
      </trkpt>
      <trkpt lat="52.16147" lon="4.4855576">
        <ele>0.0</ele>
        <time>2020-09-21T15:17:28Z</time>
      </trkpt>
      <trkpt lat="52.1615" lon="4.4855614">
        <ele>0.0</ele>
        <time>2020-09-21T15:17:29Z</time>
      </trkpt>
      <trkpt lat="52.16153" lon="4.4855657">
        <ele>0.0</ele>
        <time>2020-09-21T15:17:30Z</time>
      </trkpt>
      <trkpt lat="52.16156" lon="4.4855695">
        <ele>0.0</ele>
        <time>2020-09-21T15:17:31Z</time>
      </trkpt>
      <trkpt lat="52.161587" lon="4.485573">
        <ele>0.0</ele>
        <time>2020-09-21T15:17:32Z</time>
      </trkpt>
      <trkpt lat="52.161613" lon="4.4855757">
        <ele>0.0</ele>
        <time>2020-09-21T15:17:33Z</time>
      </trkpt>
      <trkpt lat="52.16164" lon="4.485578">
        <ele>0.0</ele>
        <time>2020-09-21T15:17:35Z</time>
      </trkpt>
      <trkpt lat="52.16166" lon="4.485581">
        <ele>0.0</ele>
        <time>2020-09-21T15:17:35Z</time>
      </trkpt>
      <trkpt lat="52.161686" lon="4.485586">
        <ele>0.0</ele>
        <time>2020-09-21T15:17:36Z</time>
      </trkpt>
      <trkpt lat="52.161705" lon="4.485595">
        <ele>0.0</ele>
        <time>2020-09-21T15:17:37Z</time>
      </trkpt>
      <trkpt lat="52.16173" lon="4.485606">
        <ele>0.0</ele>
        <time>2020-09-21T15:17:38Z</time>
      </trkpt>
      <trkpt lat="52.161755" lon="4.48562">
        <ele>0.0</ele>
        <time>2020-09-21T15:17:39Z</time>
      </trkpt>
      <trkpt lat="52.16178" lon="4.485633">
        <ele>0.0</ele>
        <time>2020-09-21T15:17:40Z</time>
      </trkpt>
      <trkpt lat="52.161808" lon="4.4856424">
        <ele>0.0</ele>
        <time>2020-09-21T15:17:41Z</time>
      </trkpt>
      <trkpt lat="52.161827" lon="4.485648">
        <ele>0.0</ele>
        <time>2020-09-21T15:17:42Z</time>
      </trkpt>
      <trkpt lat="52.161854" lon="4.4856544">
        <ele>0.0</ele>
        <time>2020-09-21T15:17:43Z</time>
      </trkpt>
      <trkpt lat="52.161873" lon="4.48566">
        <ele>0.0</ele>
        <time>2020-09-21T15:17:44Z</time>
      </trkpt>
      <trkpt lat="52.1619" lon="4.4856677">
        <ele>0.0</ele>
        <time>2020-09-21T15:17:46Z</time>
      </trkpt>
      <trkpt lat="52.161926" lon="4.4856734">
        <ele>0.0</ele>
        <time>2020-09-21T15:17:46Z</time>
      </trkpt>
      <trkpt lat="52.16195" lon="4.4856825">
        <ele>0.0</ele>
        <time>2020-09-21T15:17:47Z</time>
      </trkpt>
      <trkpt lat="52.161972" lon="4.4856877">
        <ele>0.0</ele>
        <time>2020-09-21T15:17:48Z</time>
      </trkpt>
      <trkpt lat="52.161995" lon="4.48569">
        <ele>0.0</ele>
        <time>2020-09-21T15:17:49Z</time>
      </trkpt>
      <trkpt lat="52.16202" lon="4.485689">
        <ele>0.0</ele>
        <time>2020-09-21T15:17:50Z</time>
      </trkpt>
      <trkpt lat="52.16205" lon="4.485691">
        <ele>0.0</ele>
        <time>2020-09-21T15:17:51Z</time>
      </trkpt>
      <trkpt lat="52.16208" lon="4.4856954">
        <ele>0.0</ele>
        <time>2020-09-21T15:17:52Z</time>
      </trkpt>
      <trkpt lat="52.16211" lon="4.4857035">
        <ele>0.0</ele>
        <time>2020-09-21T15:17:54Z</time>
      </trkpt>
      <trkpt lat="52.16214" lon="4.4857144">
        <ele>0.0</ele>
        <time>2020-09-21T15:17:54Z</time>
      </trkpt>
      <trkpt lat="52.162174" lon="4.4857306">
        <ele>0.0</ele>
        <time>2020-09-21T15:17:55Z</time>
      </trkpt>
      <trkpt lat="52.162216" lon="4.4857454">
        <ele>0.0</ele>
        <time>2020-09-21T15:17:56Z</time>
      </trkpt>
      <trkpt lat="52.162243" lon="4.4857574">
        <ele>0.0</ele>
        <time>2020-09-21T15:17:57Z</time>
      </trkpt>
      <trkpt lat="52.162277" lon="4.4857717">
        <ele>0.0</ele>
        <time>2020-09-21T15:17:58Z</time>
      </trkpt>
      <trkpt lat="52.162308" lon="4.485784">
        <ele>0.0</ele>
        <time>2020-09-21T15:17:59Z</time>
      </trkpt>
      <trkpt lat="52.16234" lon="4.485793">
        <ele>0.0</ele>
        <time>2020-09-21T15:18:00Z</time>
      </trkpt>
      <trkpt lat="52.162376" lon="4.4858007">
        <ele>0.0</ele>
        <time>2020-09-21T15:18:01Z</time>
      </trkpt>
      <trkpt lat="52.162407" lon="4.4858103">
        <ele>0.0</ele>
        <time>2020-09-21T15:18:02Z</time>
      </trkpt>
      <trkpt lat="52.162437" lon="4.4858203">
        <ele>0.0</ele>
        <time>2020-09-21T15:18:03Z</time>
      </trkpt>
      <trkpt lat="52.162468" lon="4.48583">
        <ele>0.0</ele>
        <time>2020-09-21T15:18:04Z</time>
      </trkpt>
      <trkpt lat="52.1625" lon="4.4858427">
        <ele>0.0</ele>
        <time>2020-09-21T15:18:05Z</time>
      </trkpt>
      <trkpt lat="52.16253" lon="4.4858594">
        <ele>0.0</ele>
        <time>2020-09-21T15:18:06Z</time>
      </trkpt>
      <trkpt lat="52.16256" lon="4.485875">
        <ele>0.0</ele>
        <time>2020-09-21T15:18:07Z</time>
      </trkpt>
      <trkpt lat="52.16259" lon="4.485892">
        <ele>0.0</ele>
        <time>2020-09-21T15:18:08Z</time>
      </trkpt>
      <trkpt lat="52.162617" lon="4.485907">
        <ele>0.0</ele>
        <time>2020-09-21T15:18:09Z</time>
      </trkpt>
      <trkpt lat="52.162643" lon="4.48592">
        <ele>0.0</ele>
        <time>2020-09-21T15:18:10Z</time>
      </trkpt>
      <trkpt lat="52.162666" lon="4.485932">
        <ele>0.0</ele>
        <time>2020-09-21T15:18:11Z</time>
      </trkpt>
      <trkpt lat="52.162693" lon="4.4859424">
        <ele>0.0</ele>
        <time>2020-09-21T15:18:12Z</time>
      </trkpt>
      <trkpt lat="52.162712" lon="4.485953">
        <ele>0.0</ele>
        <time>2020-09-21T15:18:13Z</time>
      </trkpt>
      <trkpt lat="52.162735" lon="4.4859633">
        <ele>0.0</ele>
        <time>2020-09-21T15:18:15Z</time>
      </trkpt>
      <trkpt lat="52.162743" lon="4.485973">
        <ele>0.0</ele>
        <time>2020-09-21T15:18:15Z</time>
      </trkpt>
      <trkpt lat="52.162754" lon="4.485982">
        <ele>0.0</ele>
        <time>2020-09-21T15:18:16Z</time>
      </trkpt>
      <trkpt lat="52.162777" lon="4.48599">
        <ele>0.0</ele>
        <time>2020-09-21T15:18:18Z</time>
      </trkpt>
      <trkpt lat="52.16278" lon="4.4859924">
        <ele>0.0</ele>
        <time>2020-09-21T15:18:19Z</time>
      </trkpt>
      <trkpt lat="52.16278" lon="4.485996">
        <ele>0.0</ele>
        <time>2020-09-21T15:18:20Z</time>
      </trkpt>
      <trkpt lat="52.162785" lon="4.4859996">
        <ele>0.0</ele>
        <time>2020-09-21T15:18:21Z</time>
      </trkpt>
      <trkpt lat="52.162785" lon="4.4860053">
        <ele>0.0</ele>
        <time>2020-09-21T15:18:22Z</time>
      </trkpt>
      <trkpt lat="52.162785" lon="4.4860077">
        <ele>0.0</ele>
        <time>2020-09-21T15:18:23Z</time>
      </trkpt>
      <trkpt lat="52.162785" lon="4.4860053">
        <ele>0.0</ele>
        <time>2020-09-21T15:18:24Z</time>
      </trkpt>
      <trkpt lat="52.162785" lon="4.485999">
        <ele>0.0</ele>
        <time>2020-09-21T15:18:26Z</time>
      </trkpt>
      <trkpt lat="52.162785" lon="4.485996">
        <ele>0.0</ele>
        <time>2020-09-21T15:18:26Z</time>
      </trkpt>
      <trkpt lat="52.162785" lon="4.4859953">
        <ele>0.0</ele>
        <time>2020-09-21T15:18:27Z</time>
      </trkpt>
      <trkpt lat="52.16278" lon="4.485988">
        <ele>0.0</ele>
        <time>2020-09-21T15:18:29Z</time>
      </trkpt>
      <trkpt lat="52.16278" lon="4.485987">
        <ele>0.0</ele>
        <time>2020-09-21T15:18:30Z</time>
      </trkpt>
      <trkpt lat="52.162777" lon="4.485982">
        <ele>0.0</ele>
        <time>2020-09-21T15:18:32Z</time>
      </trkpt>
      <trkpt lat="52.16278" lon="4.485985">
        <ele>0.0</ele>
        <time>2020-09-21T15:18:35Z</time>
      </trkpt>
      <trkpt lat="52.16278" lon="4.4859877">
        <ele>0.0</ele>
        <time>2020-09-21T15:18:36Z</time>
      </trkpt>
      <trkpt lat="52.16278" lon="4.485994">
        <ele>0.0</ele>
        <time>2020-09-21T15:18:37Z</time>
      </trkpt>
      <trkpt lat="52.16278" lon="4.4860024">
        <ele>0.0</ele>
        <time>2020-09-21T15:18:38Z</time>
      </trkpt>
      <trkpt lat="52.16278" lon="4.48601">
        <ele>0.0</ele>
        <time>2020-09-21T15:18:39Z</time>
      </trkpt>
      <trkpt lat="52.16278" lon="4.4860196">
        <ele>0.0</ele>
        <time>2020-09-21T15:18:40Z</time>
      </trkpt>
      <trkpt lat="52.162785" lon="4.4860277">
        <ele>0.0</ele>
        <time>2020-09-21T15:18:41Z</time>
      </trkpt>
      <trkpt lat="52.162785" lon="4.4860306">
        <ele>0.0</ele>
        <time>2020-09-21T15:18:42Z</time>
      </trkpt>
      <trkpt lat="52.162792" lon="4.4860287">
        <ele>0.0</ele>
        <time>2020-09-21T15:18:43Z</time>
      </trkpt>
      <trkpt lat="52.162796" lon="4.4860244">
        <ele>0.0</ele>
        <time>2020-09-21T15:18:44Z</time>
      </trkpt>
      <trkpt lat="52.1628" lon="4.486013">
        <ele>0.0</ele>
        <time>2020-09-21T15:18:46Z</time>
      </trkpt>
      <trkpt lat="52.1628" lon="4.486014">
        <ele>0.0</ele>
        <time>2020-09-21T15:18:47Z</time>
      </trkpt>
      <trkpt lat="52.1628" lon="4.486016">
        <ele>0.0</ele>
        <time>2020-09-21T15:18:48Z</time>
      </trkpt>
      <trkpt lat="52.1628" lon="4.486017">
        <ele>0.0</ele>
        <time>2020-09-21T15:18:49Z</time>
      </trkpt>
      <trkpt lat="52.162796" lon="4.4860187">
        <ele>0.0</ele>
        <time>2020-09-21T15:18:50Z</time>
      </trkpt>
      <trkpt lat="52.162796" lon="4.4860187">
        <ele>0.0</ele>
        <time>2020-09-21T15:18:51Z</time>
      </trkpt>
      <trkpt lat="52.162796" lon="4.486027">
        <ele>0.0</ele>
        <time>2020-09-21T15:19:08Z</time>
      </trkpt>
      <trkpt lat="52.162796" lon="4.4860272">
        <ele>0.0</ele>
        <time>2020-09-21T15:19:09Z</time>
      </trkpt>
      <trkpt lat="52.16278" lon="4.4860363">
        <ele>0.0</ele>
        <time>2020-09-21T15:19:24Z</time>
      </trkpt>
      <trkpt lat="52.16278" lon="4.4860353">
        <ele>0.0</ele>
        <time>2020-09-21T15:19:25Z</time>
      </trkpt>
      <trkpt lat="52.162785" lon="4.486024">
        <ele>0.0</ele>
        <time>2020-09-21T15:19:26Z</time>
      </trkpt>
      <trkpt lat="52.162792" lon="4.485997">
        <ele>0.0</ele>
        <time>2020-09-21T15:19:27Z</time>
      </trkpt>
      <trkpt lat="52.1628" lon="4.485963">
        <ele>0.0</ele>
        <time>2020-09-21T15:19:28Z</time>
      </trkpt>
      <trkpt lat="52.162807" lon="4.485922">
        <ele>0.0</ele>
        <time>2020-09-21T15:19:30Z</time>
      </trkpt>
      <trkpt lat="52.162807" lon="4.485876">
        <ele>0.0</ele>
        <time>2020-09-21T15:19:30Z</time>
      </trkpt>
      <trkpt lat="52.1628" lon="4.485826">
        <ele>0.0</ele>
        <time>2020-09-21T15:19:31Z</time>
      </trkpt>
      <trkpt lat="52.162796" lon="4.485775">
        <ele>0.0</ele>
        <time>2020-09-21T15:19:32Z</time>
      </trkpt>
      <trkpt lat="52.162796" lon="4.4857264">
        <ele>0.0</ele>
        <time>2020-09-21T15:19:33Z</time>
      </trkpt>
      <trkpt lat="52.162792" lon="4.4856706">
        <ele>0.0</ele>
        <time>2020-09-21T15:19:33Z</time>
      </trkpt>
      <trkpt lat="52.162796" lon="4.4856167">
        <ele>0.0</ele>
        <time>2020-09-21T15:19:34Z</time>
      </trkpt>
      <trkpt lat="52.162796" lon="4.485562">
        <ele>0.0</ele>
        <time>2020-09-21T15:19:35Z</time>
      </trkpt>
      <trkpt lat="52.162796" lon="4.485506">
        <ele>0.0</ele>
        <time>2020-09-21T15:19:36Z</time>
      </trkpt>
      <trkpt lat="52.162796" lon="4.4854474">
        <ele>0.0</ele>
        <time>2020-09-21T15:19:37Z</time>
      </trkpt>
      <trkpt lat="52.162796" lon="4.4853916">
        <ele>0.0</ele>
        <time>2020-09-21T15:19:39Z</time>
      </trkpt>
      <trkpt lat="52.162792" lon="4.4853315">
        <ele>0.0</ele>
        <time>2020-09-21T15:19:39Z</time>
      </trkpt>
      <trkpt lat="52.162785" lon="4.485271">
        <ele>0.0</ele>
        <time>2020-09-21T15:19:40Z</time>
      </trkpt>
      <trkpt lat="52.162785" lon="4.4852085">
        <ele>0.0</ele>
        <time>2020-09-21T15:19:41Z</time>
      </trkpt>
      <trkpt lat="52.162785" lon="4.485148">
        <ele>0.0</ele>
        <time>2020-09-21T15:19:42Z</time>
      </trkpt>
      <trkpt lat="52.162785" lon="4.4850903">
        <ele>0.0</ele>
        <time>2020-09-21T15:19:43Z</time>
      </trkpt>
      <trkpt lat="52.16278" lon="4.485036">
        <ele>0.0</ele>
        <time>2020-09-21T15:19:44Z</time>
      </trkpt>
      <trkpt lat="52.16278" lon="4.484985">
        <ele>0.0</ele>
        <time>2020-09-21T15:19:45Z</time>
      </trkpt>
      <trkpt lat="52.16278" lon="4.484939">
        <ele>0.0</ele>
        <time>2020-09-21T15:19:46Z</time>
      </trkpt>
      <trkpt lat="52.16278" lon="4.4848967">
        <ele>0.0</ele>
        <time>2020-09-21T15:19:47Z</time>
      </trkpt>
      <trkpt lat="52.16278" lon="4.484856">
        <ele>0.0</ele>
        <time>2020-09-21T15:19:48Z</time>
      </trkpt>
      <trkpt lat="52.162785" lon="4.4848175">
        <ele>0.0</ele>
        <time>2020-09-21T15:19:49Z</time>
      </trkpt>
      <trkpt lat="52.162785" lon="4.48478">
        <ele>0.0</ele>
        <time>2020-09-21T15:19:50Z</time>
      </trkpt>
      <trkpt lat="52.162785" lon="4.484746">
        <ele>0.0</ele>
        <time>2020-09-21T15:19:51Z</time>
      </trkpt>
      <trkpt lat="52.16278" lon="4.4847193">
        <ele>0.0</ele>
        <time>2020-09-21T15:19:52Z</time>
      </trkpt>
      <trkpt lat="52.162777" lon="4.484695">
        <ele>0.0</ele>
        <time>2020-09-21T15:19:53Z</time>
      </trkpt>
      <trkpt lat="52.16277" lon="4.4846783">
        <ele>0.0</ele>
        <time>2020-09-21T15:19:54Z</time>
      </trkpt>
      <trkpt lat="52.162766" lon="4.4846673">
        <ele>0.0</ele>
        <time>2020-09-21T15:19:55Z</time>
      </trkpt>
      <trkpt lat="52.162754" lon="4.484663">
        <ele>0.0</ele>
        <time>2020-09-21T15:19:57Z</time>
      </trkpt>
      <trkpt lat="52.16274" lon="4.484662">
        <ele>0.0</ele>
        <time>2020-09-21T15:19:57Z</time>
      </trkpt>
      <trkpt lat="52.162727" lon="4.4846625">
        <ele>0.0</ele>
        <time>2020-09-21T15:19:58Z</time>
      </trkpt>
      <trkpt lat="52.16272" lon="4.4846625">
        <ele>0.0</ele>
        <time>2020-09-21T15:19:59Z</time>
      </trkpt>
      <trkpt lat="52.16271" lon="4.484665">
        <ele>0.0</ele>
        <time>2020-09-21T15:20:00Z</time>
      </trkpt>
      <trkpt lat="52.162704" lon="4.48467">
        <ele>0.0</ele>
        <time>2020-09-21T15:20:01Z</time>
      </trkpt>
      <trkpt lat="52.162697" lon="4.484676">
        <ele>0.0</ele>
        <time>2020-09-21T15:20:02Z</time>
      </trkpt>
      <trkpt lat="52.162693" lon="4.484682">
        <ele>0.0</ele>
        <time>2020-09-21T15:20:03Z</time>
      </trkpt>
      <trkpt lat="52.16268" lon="4.4846883">
        <ele>0.0</ele>
        <time>2020-09-21T15:20:04Z</time>
      </trkpt>
      <trkpt lat="52.162674" lon="4.484692">
        <ele>0.0</ele>
        <time>2020-09-21T15:20:05Z</time>
      </trkpt>
      <trkpt lat="52.162666" lon="4.4846935">
        <ele>0.0</ele>
        <time>2020-09-21T15:20:06Z</time>
      </trkpt>
      <trkpt lat="52.16266" lon="4.484694">
        <ele>0.0</ele>
        <time>2020-09-21T15:20:08Z</time>
      </trkpt>
      <trkpt lat="52.16266" lon="4.4846916">
        <ele>0.0</ele>
        <time>2020-09-21T15:20:08Z</time>
      </trkpt>
      <trkpt lat="52.16265" lon="4.4846888">
        <ele>0.0</ele>
        <time>2020-09-21T15:20:09Z</time>
      </trkpt>
      <trkpt lat="52.162647" lon="4.484688">
        <ele>0.0</ele>
        <time>2020-09-21T15:20:10Z</time>
      </trkpt>
      <trkpt lat="52.162643" lon="4.484689">
        <ele>0.0</ele>
        <time>2020-09-21T15:20:11Z</time>
      </trkpt>
      <trkpt lat="52.162636" lon="4.484693">
        <ele>0.0</ele>
        <time>2020-09-21T15:20:12Z</time>
      </trkpt>
      <trkpt lat="52.162636" lon="4.4846916">
        <ele>0.0</ele>
        <time>2020-09-21T15:20:13Z</time>
      </trkpt>
      <trkpt lat="52.162643" lon="4.484688">
        <ele>0.0</ele>
        <time>2020-09-21T15:20:14Z</time>
      </trkpt>
      <trkpt lat="52.162647" lon="4.484684">
        <ele>0.0</ele>
        <time>2020-09-21T15:20:15Z</time>
      </trkpt>
      <trkpt lat="52.16265" lon="4.484682">
        <ele>0.0</ele>
        <time>2020-09-21T15:20:16Z</time>
      </trkpt>
      <trkpt lat="52.16266" lon="4.484681">
        <ele>0.0</ele>
        <time>2020-09-21T15:20:17Z</time>
      </trkpt>
      <trkpt lat="52.162666" lon="4.484679">
        <ele>0.0</ele>
        <time>2020-09-21T15:20:18Z</time>
      </trkpt>
      <trkpt lat="52.162678" lon="4.4846745">
        <ele>0.0</ele>
        <time>2020-09-21T15:20:19Z</time>
      </trkpt>
      <trkpt lat="52.16269" lon="4.484669">
        <ele>0.0</ele>
        <time>2020-09-21T15:20:20Z</time>
      </trkpt>
      <trkpt lat="52.162697" lon="4.4846616">
        <ele>0.0</ele>
        <time>2020-09-21T15:20:21Z</time>
      </trkpt>
      <trkpt lat="52.162704" lon="4.4846525">
        <ele>0.0</ele>
        <time>2020-09-21T15:20:22Z</time>
      </trkpt>
      <trkpt lat="52.16271" lon="4.48464">
        <ele>0.0</ele>
        <time>2020-09-21T15:20:23Z</time>
      </trkpt>
      <trkpt lat="52.162704" lon="4.4846263">
        <ele>0.0</ele>
        <time>2020-09-21T15:20:24Z</time>
      </trkpt>
      <trkpt lat="52.16269" lon="4.4846153">
        <ele>0.0</ele>
        <time>2020-09-21T15:20:25Z</time>
      </trkpt>
      <trkpt lat="52.162666" lon="4.484611">
        <ele>0.0</ele>
        <time>2020-09-21T15:20:26Z</time>
      </trkpt>
      <trkpt lat="52.162647" lon="4.484612">
        <ele>0.0</ele>
        <time>2020-09-21T15:20:27Z</time>
      </trkpt>
      <trkpt lat="52.16262" lon="4.484618">
        <ele>0.0</ele>
        <time>2020-09-21T15:20:29Z</time>
      </trkpt>
      <trkpt lat="52.162598" lon="4.4846287">
        <ele>0.0</ele>
        <time>2020-09-21T15:20:29Z</time>
      </trkpt>
      <trkpt lat="52.162563" lon="4.4846416">
        <ele>0.0</ele>
        <time>2020-09-21T15:20:30Z</time>
      </trkpt>
      <trkpt lat="52.162533" lon="4.4846563">
        <ele>0.0</ele>
        <time>2020-09-21T15:20:31Z</time>
      </trkpt>
      <trkpt lat="52.1625" lon="4.484669">
        <ele>0.0</ele>
        <time>2020-09-21T15:20:32Z</time>
      </trkpt>
      <trkpt lat="52.162464" lon="4.4846764">
        <ele>0.0</ele>
        <time>2020-09-21T15:20:33Z</time>
      </trkpt>
      <trkpt lat="52.162426" lon="4.4846835">
        <ele>0.0</ele>
        <time>2020-09-21T15:20:34Z</time>
      </trkpt>
      <trkpt lat="52.16239" lon="4.4846916">
        <ele>0.0</ele>
        <time>2020-09-21T15:20:35Z</time>
      </trkpt>
      <trkpt lat="52.162354" lon="4.484701">
        <ele>0.0</ele>
        <time>2020-09-21T15:20:36Z</time>
      </trkpt>
      <trkpt lat="52.162315" lon="4.484711">
        <ele>0.0</ele>
        <time>2020-09-21T15:20:37Z</time>
      </trkpt>
      <trkpt lat="52.162277" lon="4.484722">
        <ele>0.0</ele>
        <time>2020-09-21T15:20:38Z</time>
      </trkpt>
      <trkpt lat="52.16224" lon="4.4847302">
        <ele>0.0</ele>
        <time>2020-09-21T15:20:39Z</time>
      </trkpt>
      <trkpt lat="52.162197" lon="4.4847374">
        <ele>0.0</ele>
        <time>2020-09-21T15:20:40Z</time>
      </trkpt>
      <trkpt lat="52.162155" lon="4.484741">
        <ele>0.0</ele>
        <time>2020-09-21T15:20:41Z</time>
      </trkpt>
      <trkpt lat="52.16212" lon="4.484741">
        <ele>0.0</ele>
        <time>2020-09-21T15:20:42Z</time>
      </trkpt>
      <trkpt lat="52.16208" lon="4.4847374">
        <ele>0.0</ele>
        <time>2020-09-21T15:20:43Z</time>
      </trkpt>
      <trkpt lat="52.162045" lon="4.484737">
        <ele>0.0</ele>
        <time>2020-09-21T15:20:44Z</time>
      </trkpt>
      <trkpt lat="52.162003" lon="4.484744">
        <ele>0.0</ele>
        <time>2020-09-21T15:20:45Z</time>
      </trkpt>
      <trkpt lat="52.161964" lon="4.4847536">
        <ele>0.0</ele>
        <time>2020-09-21T15:20:46Z</time>
      </trkpt>
      <trkpt lat="52.161934" lon="4.4847665">
        <ele>0.0</ele>
        <time>2020-09-21T15:20:47Z</time>
      </trkpt>
      <trkpt lat="52.161903" lon="4.4847846">
        <ele>0.0</ele>
        <time>2020-09-21T15:20:48Z</time>
      </trkpt>
      <trkpt lat="52.16188" lon="4.4848094">
        <ele>0.0</ele>
        <time>2020-09-21T15:20:49Z</time>
      </trkpt>
      <trkpt lat="52.161854" lon="4.484842">
        <ele>0.0</ele>
        <time>2020-09-21T15:20:50Z</time>
      </trkpt>
      <trkpt lat="52.161835" lon="4.484883">
        <ele>0.0</ele>
        <time>2020-09-21T15:20:51Z</time>
      </trkpt>
      <trkpt lat="52.16181" lon="4.4849286">
        <ele>0.0</ele>
        <time>2020-09-21T15:20:52Z</time>
      </trkpt>
      <trkpt lat="52.161793" lon="4.484975">
        <ele>0.0</ele>
        <time>2020-09-21T15:20:53Z</time>
      </trkpt>
      <trkpt lat="52.16177" lon="4.485021">
        <ele>0.0</ele>
        <time>2020-09-21T15:20:54Z</time>
      </trkpt>
      <trkpt lat="52.161762" lon="4.4850693">
        <ele>0.0</ele>
        <time>2020-09-21T15:20:55Z</time>
      </trkpt>
      <trkpt lat="52.161747" lon="4.4851174">
        <ele>0.0</ele>
        <time>2020-09-21T15:20:56Z</time>
      </trkpt>
      <trkpt lat="52.161736" lon="4.4851665">
        <ele>0.0</ele>
        <time>2020-09-21T15:20:57Z</time>
      </trkpt>
      <trkpt lat="52.161724" lon="4.485216">
        <ele>0.0</ele>
        <time>2020-09-21T15:20:58Z</time>
      </trkpt>
      <trkpt lat="52.161716" lon="4.4852667">
        <ele>0.0</ele>
        <time>2020-09-21T15:20:59Z</time>
      </trkpt>
      <trkpt lat="52.1617" lon="4.4853144">
        <ele>0.0</ele>
        <time>2020-09-21T15:21:00Z</time>
      </trkpt>
      <trkpt lat="52.16168" lon="4.485358">
        <ele>0.0</ele>
        <time>2020-09-21T15:21:01Z</time>
      </trkpt>
      <trkpt lat="52.161655" lon="4.485392">
        <ele>0.0</ele>
        <time>2020-09-21T15:21:02Z</time>
      </trkpt>
      <trkpt lat="52.161625" lon="4.4854126">
        <ele>0.0</ele>
        <time>2020-09-21T15:21:03Z</time>
      </trkpt>
      <trkpt lat="52.16159" lon="4.4854236">
        <ele>0.0</ele>
        <time>2020-09-21T15:21:04Z</time>
      </trkpt>
      <trkpt lat="52.161556" lon="4.4854293">
        <ele>0.0</ele>
        <time>2020-09-21T15:21:05Z</time>
      </trkpt>
      <trkpt lat="52.161522" lon="4.485431">
        <ele>0.0</ele>
        <time>2020-09-21T15:21:06Z</time>
      </trkpt>
      <trkpt lat="52.16148" lon="4.485431">
        <ele>0.0</ele>
        <time>2020-09-21T15:21:07Z</time>
      </trkpt>
      <trkpt lat="52.161446" lon="4.4854274">
        <ele>0.0</ele>
        <time>2020-09-21T15:21:08Z</time>
      </trkpt>
      <trkpt lat="52.161407" lon="4.4854255">
        <ele>0.0</ele>
        <time>2020-09-21T15:21:09Z</time>
      </trkpt>
      <trkpt lat="52.161373" lon="4.4854207">
        <ele>0.0</ele>
        <time>2020-09-21T15:21:10Z</time>
      </trkpt>
      <trkpt lat="52.16133" lon="4.485415">
        <ele>0.0</ele>
        <time>2020-09-21T15:21:11Z</time>
      </trkpt>
      <trkpt lat="52.161297" lon="4.4854074">
        <ele>0.0</ele>
        <time>2020-09-21T15:21:12Z</time>
      </trkpt>
      <trkpt lat="52.16126" lon="4.485401">
        <ele>0.0</ele>
        <time>2020-09-21T15:21:13Z</time>
      </trkpt>
      <trkpt lat="52.161217" lon="4.485392">
        <ele>0.0</ele>
        <time>2020-09-21T15:21:14Z</time>
      </trkpt>
      <trkpt lat="52.161182" lon="4.485381">
        <ele>0.0</ele>
        <time>2020-09-21T15:21:15Z</time>
      </trkpt>
      <trkpt lat="52.16115" lon="4.485365">
        <ele>0.0</ele>
        <time>2020-09-21T15:21:16Z</time>
      </trkpt>
      <trkpt lat="52.16112" lon="4.4853487">
        <ele>0.0</ele>
        <time>2020-09-21T15:21:17Z</time>
      </trkpt>
      <trkpt lat="52.16109" lon="4.485337">
        <ele>0.0</ele>
        <time>2020-09-21T15:21:19Z</time>
      </trkpt>
      <trkpt lat="52.161064" lon="4.485323">
        <ele>0.0</ele>
        <time>2020-09-21T15:21:19Z</time>
      </trkpt>
      <trkpt lat="52.161045" lon="4.4853115">
        <ele>0.0</ele>
        <time>2020-09-21T15:21:20Z</time>
      </trkpt>
      <trkpt lat="52.161022" lon="4.485299">
        <ele>0.0</ele>
        <time>2020-09-21T15:21:21Z</time>
      </trkpt>
      <trkpt lat="52.161003" lon="4.485284">
        <ele>0.0</ele>
        <time>2020-09-21T15:21:22Z</time>
      </trkpt>
      <trkpt lat="52.160984" lon="4.4852734">
        <ele>0.0</ele>
        <time>2020-09-21T15:21:23Z</time>
      </trkpt>
      <trkpt lat="52.16097" lon="4.4852657">
        <ele>0.0</ele>
        <time>2020-09-21T15:21:24Z</time>
      </trkpt>
      <trkpt lat="52.160954" lon="4.485262">
        <ele>0.0</ele>
        <time>2020-09-21T15:21:25Z</time>
      </trkpt>
      <trkpt lat="52.16094" lon="4.4852657">
        <ele>0.0</ele>
        <time>2020-09-21T15:21:26Z</time>
      </trkpt>
      <trkpt lat="52.160927" lon="4.4852777">
        <ele>0.0</ele>
        <time>2020-09-21T15:21:27Z</time>
      </trkpt>
      <trkpt lat="52.160915" lon="4.485294">
        <ele>0.0</ele>
        <time>2020-09-21T15:21:28Z</time>
      </trkpt>
      <trkpt lat="52.16091" lon="4.485313">
        <ele>0.0</ele>
        <time>2020-09-21T15:21:29Z</time>
      </trkpt>
      <trkpt lat="52.160915" lon="4.4853354">
        <ele>0.0</ele>
        <time>2020-09-21T15:21:30Z</time>
      </trkpt>
      <trkpt lat="52.16093" lon="4.4853554">
        <ele>0.0</ele>
        <time>2020-09-21T15:21:31Z</time>
      </trkpt>
      <trkpt lat="52.160954" lon="4.485375">
        <ele>0.0</ele>
        <time>2020-09-21T15:21:32Z</time>
      </trkpt>
      <trkpt lat="52.160973" lon="4.485394">
        <ele>0.0</ele>
        <time>2020-09-21T15:21:33Z</time>
      </trkpt>
      <trkpt lat="52.161" lon="4.485412">
        <ele>0.0</ele>
        <time>2020-09-21T15:21:34Z</time>
      </trkpt>
      <trkpt lat="52.161022" lon="4.485428">
        <ele>0.0</ele>
        <time>2020-09-21T15:21:35Z</time>
      </trkpt>
      <trkpt lat="52.16106" lon="4.4854393">
        <ele>0.0</ele>
        <time>2020-09-21T15:21:36Z</time>
      </trkpt>
      <trkpt lat="52.161095" lon="4.485448">
        <ele>0.0</ele>
        <time>2020-09-21T15:21:37Z</time>
      </trkpt>
      <trkpt lat="52.161133" lon="4.485454">
        <ele>0.0</ele>
        <time>2020-09-21T15:21:38Z</time>
      </trkpt>
      <trkpt lat="52.161167" lon="4.4854608">
        <ele>0.0</ele>
        <time>2020-09-21T15:21:40Z</time>
      </trkpt>
      <trkpt lat="52.1612" lon="4.4854693">
        <ele>0.0</ele>
        <time>2020-09-21T15:21:40Z</time>
      </trkpt>
      <trkpt lat="52.16125" lon="4.4854794">
        <ele>0.0</ele>
        <time>2020-09-21T15:21:41Z</time>
      </trkpt>
      <trkpt lat="52.16129" lon="4.4854894">
        <ele>0.0</ele>
        <time>2020-09-21T15:21:42Z</time>
      </trkpt>
      <trkpt lat="52.16133" lon="4.4855">
        <ele>0.0</ele>
        <time>2020-09-21T15:21:43Z</time>
      </trkpt>
      <trkpt lat="52.161366" lon="4.48551">
        <ele>0.0</ele>
        <time>2020-09-21T15:21:44Z</time>
      </trkpt>
      <trkpt lat="52.161407" lon="4.485521">
        <ele>0.0</ele>
        <time>2020-09-21T15:21:45Z</time>
      </trkpt>
      <trkpt lat="52.16145" lon="4.485532">
        <ele>0.0</ele>
        <time>2020-09-21T15:21:46Z</time>
      </trkpt>
      <trkpt lat="52.16149" lon="4.485543">
        <ele>0.0</ele>
        <time>2020-09-21T15:21:47Z</time>
      </trkpt>
      <trkpt lat="52.161526" lon="4.485551">
        <ele>0.0</ele>
        <time>2020-09-21T15:21:48Z</time>
      </trkpt>
      <trkpt lat="52.161556" lon="4.485559">
        <ele>0.0</ele>
        <time>2020-09-21T15:21:49Z</time>
      </trkpt>
      <trkpt lat="52.16159" lon="4.485569">
        <ele>0.0</ele>
        <time>2020-09-21T15:21:50Z</time>
      </trkpt>
      <trkpt lat="52.161625" lon="4.485579">
        <ele>0.0</ele>
        <time>2020-09-21T15:21:51Z</time>
      </trkpt>
      <trkpt lat="52.161644" lon="4.485587">
        <ele>0.0</ele>
        <time>2020-09-21T15:21:52Z</time>
      </trkpt>
      <trkpt lat="52.16166" lon="4.485595">
        <ele>0.0</ele>
        <time>2020-09-21T15:21:53Z</time>
      </trkpt>
      <trkpt lat="52.161694" lon="4.4856014">
        <ele>0.0</ele>
        <time>2020-09-21T15:21:55Z</time>
      </trkpt>
      <trkpt lat="52.161694" lon="4.4856">
        <ele>0.0</ele>
        <time>2020-09-21T15:21:56Z</time>
      </trkpt>
      <trkpt lat="52.1617" lon="4.485599">
        <ele>0.0</ele>
        <time>2020-09-21T15:21:57Z</time>
      </trkpt>
      <trkpt lat="52.16171" lon="4.485599">
        <ele>0.0</ele>
        <time>2020-09-21T15:21:59Z</time>
      </trkpt>
      <trkpt lat="52.161724" lon="4.4856033">
        <ele>0.0</ele>
        <time>2020-09-21T15:21:59Z</time>
      </trkpt>
      <trkpt lat="52.16174" lon="4.485607">
        <ele>0.0</ele>
        <time>2020-09-21T15:22:00Z</time>
      </trkpt>
      <trkpt lat="52.16177" lon="4.4856124">
        <ele>0.0</ele>
        <time>2020-09-21T15:22:01Z</time>
      </trkpt>
      <trkpt lat="52.161808" lon="4.485622">
        <ele>0.0</ele>
        <time>2020-09-21T15:22:02Z</time>
      </trkpt>
      <trkpt lat="52.16185" lon="4.485635">
        <ele>0.0</ele>
        <time>2020-09-21T15:22:03Z</time>
      </trkpt>
      <trkpt lat="52.16189" lon="4.4856477">
        <ele>0.0</ele>
        <time>2020-09-21T15:22:04Z</time>
      </trkpt>
      <trkpt lat="52.16193" lon="4.485666">
        <ele>0.0</ele>
        <time>2020-09-21T15:22:05Z</time>
      </trkpt>
      <trkpt lat="52.16198" lon="4.4856844">
        <ele>0.0</ele>
        <time>2020-09-21T15:22:06Z</time>
      </trkpt>
      <trkpt lat="52.162033" lon="4.485707">
        <ele>0.0</ele>
        <time>2020-09-21T15:22:07Z</time>
      </trkpt>
      <trkpt lat="52.162083" lon="4.4857306">
        <ele>0.0</ele>
        <time>2020-09-21T15:22:08Z</time>
      </trkpt>
      <trkpt lat="52.162136" lon="4.4857574">
        <ele>0.0</ele>
        <time>2020-09-21T15:22:09Z</time>
      </trkpt>
      <trkpt lat="52.162186" lon="4.485786">
        <ele>0.0</ele>
        <time>2020-09-21T15:22:10Z</time>
      </trkpt>
      <trkpt lat="52.16223" lon="4.485813">
        <ele>0.0</ele>
        <time>2020-09-21T15:22:11Z</time>
      </trkpt>
      <trkpt lat="52.162277" lon="4.485836">
        <ele>0.0</ele>
        <time>2020-09-21T15:22:12Z</time>
      </trkpt>
      <trkpt lat="52.16232" lon="4.4858537">
        <ele>0.0</ele>
        <time>2020-09-21T15:22:13Z</time>
      </trkpt>
      <trkpt lat="52.162365" lon="4.485868">
        <ele>0.0</ele>
        <time>2020-09-21T15:22:14Z</time>
      </trkpt>
      <trkpt lat="52.162407" lon="4.4858847">
        <ele>0.0</ele>
        <time>2020-09-21T15:22:15Z</time>
      </trkpt>
      <trkpt lat="52.16245" lon="4.4859">
        <ele>0.0</ele>
        <time>2020-09-21T15:22:16Z</time>
      </trkpt>
      <trkpt lat="52.162495" lon="4.4859157">
        <ele>0.0</ele>
        <time>2020-09-21T15:22:17Z</time>
      </trkpt>
      <trkpt lat="52.162533" lon="4.4859242">
        <ele>0.0</ele>
        <time>2020-09-21T15:22:18Z</time>
      </trkpt>
      <trkpt lat="52.162575" lon="4.485935">
        <ele>0.0</ele>
        <time>2020-09-21T15:22:20Z</time>
      </trkpt>
      <trkpt lat="52.16262" lon="4.4859447">
        <ele>0.0</ele>
        <time>2020-09-21T15:22:20Z</time>
      </trkpt>
      <trkpt lat="52.162663" lon="4.4859548">
        <ele>0.0</ele>
        <time>2020-09-21T15:22:21Z</time>
      </trkpt>
      <trkpt lat="52.162704" lon="4.4859624">
        <ele>0.0</ele>
        <time>2020-09-21T15:22:22Z</time>
      </trkpt>
      <trkpt lat="52.16275" lon="4.4859653">
        <ele>0.0</ele>
        <time>2020-09-21T15:22:23Z</time>
      </trkpt>
      <trkpt lat="52.162792" lon="4.485966">
        <ele>0.0</ele>
        <time>2020-09-21T15:22:24Z</time>
      </trkpt>
      <trkpt lat="52.16284" lon="4.485966">
        <ele>0.0</ele>
        <time>2020-09-21T15:22:25Z</time>
      </trkpt>
      <trkpt lat="52.16289" lon="4.485966">
        <ele>0.0</ele>
        <time>2020-09-21T15:22:26Z</time>
      </trkpt>
      <trkpt lat="52.162945" lon="4.4859705">
        <ele>0.0</ele>
        <time>2020-09-21T15:22:27Z</time>
      </trkpt>
      <trkpt lat="52.162994" lon="4.4859767">
        <ele>0.0</ele>
        <time>2020-09-21T15:22:28Z</time>
      </trkpt>
      <trkpt lat="52.16304" lon="4.4859843">
        <ele>0.0</ele>
        <time>2020-09-21T15:22:29Z</time>
      </trkpt>
      <trkpt lat="52.163094" lon="4.4859953">
        <ele>0.0</ele>
        <time>2020-09-21T15:22:30Z</time>
      </trkpt>
      <trkpt lat="52.163143" lon="4.4860063">
        <ele>0.0</ele>
        <time>2020-09-21T15:22:31Z</time>
      </trkpt>
      <trkpt lat="52.163197" lon="4.486017">
        <ele>0.0</ele>
        <time>2020-09-21T15:22:32Z</time>
      </trkpt>
      <trkpt lat="52.163242" lon="4.4860277">
        <ele>0.0</ele>
        <time>2020-09-21T15:22:33Z</time>
      </trkpt>
      <trkpt lat="52.16329" lon="4.486039">
        <ele>0.0</ele>
        <time>2020-09-21T15:22:34Z</time>
      </trkpt>
      <trkpt lat="52.163326" lon="4.48605">
        <ele>0.0</ele>
        <time>2020-09-21T15:22:35Z</time>
      </trkpt>
      <trkpt lat="52.163376" lon="4.48606">
        <ele>0.0</ele>
        <time>2020-09-21T15:22:36Z</time>
      </trkpt>
      <trkpt lat="52.16341" lon="4.48607">
        <ele>0.0</ele>
        <time>2020-09-21T15:22:37Z</time>
      </trkpt>
      <trkpt lat="52.163452" lon="4.4860806">
        <ele>0.0</ele>
        <time>2020-09-21T15:22:38Z</time>
      </trkpt>
      <trkpt lat="52.16349" lon="4.4860926">
        <ele>0.0</ele>
        <time>2020-09-21T15:22:39Z</time>
      </trkpt>
      <trkpt lat="52.16353" lon="4.486106">
        <ele>0.0</ele>
        <time>2020-09-21T15:22:41Z</time>
      </trkpt>
      <trkpt lat="52.163563" lon="4.486121">
        <ele>0.0</ele>
        <time>2020-09-21T15:22:41Z</time>
      </trkpt>
      <trkpt lat="52.163593" lon="4.4861445">
        <ele>0.0</ele>
        <time>2020-09-21T15:22:42Z</time>
      </trkpt>
      <trkpt lat="52.16362" lon="4.486181">
        <ele>0.0</ele>
        <time>2020-09-21T15:22:43Z</time>
      </trkpt>
      <trkpt lat="52.16364" lon="4.486229">
        <ele>0.0</ele>
        <time>2020-09-21T15:22:44Z</time>
      </trkpt>
      <trkpt lat="52.163654" lon="4.4862814">
        <ele>0.0</ele>
        <time>2020-09-21T15:22:45Z</time>
      </trkpt>
      <trkpt lat="52.16367" lon="4.486339">
        <ele>0.0</ele>
        <time>2020-09-21T15:22:46Z</time>
      </trkpt>
      <trkpt lat="52.163677" lon="4.486393">
        <ele>0.0</ele>
        <time>2020-09-21T15:22:47Z</time>
      </trkpt>
      <trkpt lat="52.16368" lon="4.48645">
        <ele>0.0</ele>
        <time>2020-09-21T15:22:48Z</time>
      </trkpt>
      <trkpt lat="52.163685" lon="4.4865084">
        <ele>0.0</ele>
        <time>2020-09-21T15:22:50Z</time>
      </trkpt>
      <trkpt lat="52.163685" lon="4.4865723">
        <ele>0.0</ele>
        <time>2020-09-21T15:22:50Z</time>
      </trkpt>
      <trkpt lat="52.16368" lon="4.4866357">
        <ele>0.0</ele>
        <time>2020-09-21T15:22:51Z</time>
      </trkpt>
      <trkpt lat="52.16368" lon="4.4866986">
        <ele>0.0</ele>
        <time>2020-09-21T15:22:52Z</time>
      </trkpt>
      <trkpt lat="52.16368" lon="4.486761">
        <ele>0.0</ele>
        <time>2020-09-21T15:22:53Z</time>
      </trkpt>
      <trkpt lat="52.16368" lon="4.4868236">
        <ele>0.0</ele>
        <time>2020-09-21T15:22:54Z</time>
      </trkpt>
      <trkpt lat="52.16368" lon="4.4868865">
        <ele>0.0</ele>
        <time>2020-09-21T15:22:55Z</time>
      </trkpt>
      <trkpt lat="52.16368" lon="4.486953">
        <ele>0.0</ele>
        <time>2020-09-21T15:22:56Z</time>
      </trkpt>
      <trkpt lat="52.16368" lon="4.48702">
        <ele>0.0</ele>
        <time>2020-09-21T15:22:57Z</time>
      </trkpt>
      <trkpt lat="52.163677" lon="4.487088">
        <ele>0.0</ele>
        <time>2020-09-21T15:22:58Z</time>
      </trkpt>
      <trkpt lat="52.16367" lon="4.4871554">
        <ele>0.0</ele>
        <time>2020-09-21T15:22:59Z</time>
      </trkpt>
      <trkpt lat="52.163666" lon="4.4872203">
        <ele>0.0</ele>
        <time>2020-09-21T15:23:00Z</time>
      </trkpt>
      <trkpt lat="52.163654" lon="4.487284">
        <ele>0.0</ele>
        <time>2020-09-21T15:23:01Z</time>
      </trkpt>
      <trkpt lat="52.163647" lon="4.487342">
        <ele>0.0</ele>
        <time>2020-09-21T15:23:02Z</time>
      </trkpt>
      <trkpt lat="52.163635" lon="4.4874005">
        <ele>0.0</ele>
        <time>2020-09-21T15:23:03Z</time>
      </trkpt>
      <trkpt lat="52.16363" lon="4.487463">
        <ele>0.0</ele>
        <time>2020-09-21T15:23:04Z</time>
      </trkpt>
      <trkpt lat="52.163624" lon="4.487525">
        <ele>0.0</ele>
        <time>2020-09-21T15:23:05Z</time>
      </trkpt>
      <trkpt lat="52.16362" lon="4.4875865">
        <ele>0.0</ele>
        <time>2020-09-21T15:23:06Z</time>
      </trkpt>
      <trkpt lat="52.16362" lon="4.4876437">
        <ele>0.0</ele>
        <time>2020-09-21T15:23:07Z</time>
      </trkpt>
      <trkpt lat="52.16362" lon="4.4877">
        <ele>0.0</ele>
        <time>2020-09-21T15:23:08Z</time>
      </trkpt>
      <trkpt lat="52.163616" lon="4.4877553">
        <ele>0.0</ele>
        <time>2020-09-21T15:23:10Z</time>
      </trkpt>
      <trkpt lat="52.163616" lon="4.4878106">
        <ele>0.0</ele>
        <time>2020-09-21T15:23:10Z</time>
      </trkpt>
      <trkpt lat="52.16361" lon="4.487868">
        <ele>0.0</ele>
        <time>2020-09-21T15:23:11Z</time>
      </trkpt>
      <trkpt lat="52.16361" lon="4.4879227">
        <ele>0.0</ele>
        <time>2020-09-21T15:23:12Z</time>
      </trkpt>
      <trkpt lat="52.16361" lon="4.487972">
        <ele>0.0</ele>
        <time>2020-09-21T15:23:13Z</time>
      </trkpt>
      <trkpt lat="52.16361" lon="4.488011">
        <ele>0.0</ele>
        <time>2020-09-21T15:23:14Z</time>
      </trkpt>
      <trkpt lat="52.16361" lon="4.4880424">
        <ele>0.0</ele>
        <time>2020-09-21T15:23:15Z</time>
      </trkpt>
      <trkpt lat="52.163616" lon="4.4880633">
        <ele>0.0</ele>
        <time>2020-09-21T15:23:16Z</time>
      </trkpt>
      <trkpt lat="52.163616" lon="4.4880757">
        <ele>0.0</ele>
        <time>2020-09-21T15:23:17Z</time>
      </trkpt>
      <trkpt lat="52.16362" lon="4.4880834">
        <ele>0.0</ele>
        <time>2020-09-21T15:23:18Z</time>
      </trkpt>
      <trkpt lat="52.163624" lon="4.488089">
        <ele>0.0</ele>
        <time>2020-09-21T15:23:19Z</time>
      </trkpt>
      <trkpt lat="52.163624" lon="4.4880924">
        <ele>0.0</ele>
        <time>2020-09-21T15:23:20Z</time>
      </trkpt>
      <trkpt lat="52.16363" lon="4.488094">
        <ele>0.0</ele>
        <time>2020-09-21T15:23:21Z</time>
      </trkpt>
      <trkpt lat="52.16363" lon="4.4880967">
        <ele>0.0</ele>
        <time>2020-09-21T15:23:22Z</time>
      </trkpt>
      <trkpt lat="52.16363" lon="4.4880977">
        <ele>0.0</ele>
        <time>2020-09-21T15:23:24Z</time>
      </trkpt>
      <trkpt lat="52.16363" lon="4.4880977">
        <ele>0.0</ele>
        <time>2020-09-21T15:23:24Z</time>
      </trkpt>
      <trkpt lat="52.163624" lon="4.488097">
        <ele>0.0</ele>
        <time>2020-09-21T15:23:25Z</time>
      </trkpt>
      <trkpt lat="52.163624" lon="4.488097">
        <ele>0.0</ele>
        <time>2020-09-21T15:23:26Z</time>
      </trkpt>
      <trkpt lat="52.163624" lon="4.4881">
        <ele>0.0</ele>
        <time>2020-09-21T15:23:27Z</time>
      </trkpt>
      <trkpt lat="52.16363" lon="4.4881024">
        <ele>0.0</ele>
        <time>2020-09-21T15:23:28Z</time>
      </trkpt>
      <trkpt lat="52.16364" lon="4.488108">
        <ele>0.0</ele>
        <time>2020-09-21T15:23:29Z</time>
      </trkpt>
      <trkpt lat="52.16365" lon="4.4881144">
        <ele>0.0</ele>
        <time>2020-09-21T15:23:30Z</time>
      </trkpt>
      <trkpt lat="52.163666" lon="4.4881215">
        <ele>0.0</ele>
        <time>2020-09-21T15:23:31Z</time>
      </trkpt>
      <trkpt lat="52.16368" lon="4.488129">
        <ele>0.0</ele>
        <time>2020-09-21T15:23:32Z</time>
      </trkpt>
      <trkpt lat="52.1637" lon="4.488137">
        <ele>0.0</ele>
        <time>2020-09-21T15:23:33Z</time>
      </trkpt>
      <trkpt lat="52.163723" lon="4.488145">
        <ele>0.0</ele>
        <time>2020-09-21T15:23:34Z</time>
      </trkpt>
      <trkpt lat="52.16373" lon="4.488149">
        <ele>0.0</ele>
        <time>2020-09-21T15:23:35Z</time>
      </trkpt>
      <trkpt lat="52.163742" lon="4.4881473">
        <ele>0.0</ele>
        <time>2020-09-21T15:23:36Z</time>
      </trkpt>
      <trkpt lat="52.163754" lon="4.488135">
        <ele>0.0</ele>
        <time>2020-09-21T15:23:37Z</time>
      </trkpt>
      <trkpt lat="52.163765" lon="4.488114">
        <ele>0.0</ele>
        <time>2020-09-21T15:23:38Z</time>
      </trkpt>
      <trkpt lat="52.16378" lon="4.488087">
        <ele>0.0</ele>
        <time>2020-09-21T15:23:39Z</time>
      </trkpt>
      <trkpt lat="52.163795" lon="4.48806">
        <ele>0.0</ele>
        <time>2020-09-21T15:23:40Z</time>
      </trkpt>
      <trkpt lat="52.16381" lon="4.4880357">
        <ele>0.0</ele>
        <time>2020-09-21T15:23:41Z</time>
      </trkpt>
      <trkpt lat="52.16383" lon="4.4880133">
        <ele>0.0</ele>
        <time>2020-09-21T15:23:42Z</time>
      </trkpt>
      <trkpt lat="52.163857" lon="4.487993">
        <ele>0.0</ele>
        <time>2020-09-21T15:23:43Z</time>
      </trkpt>
      <trkpt lat="52.16388" lon="4.4879737">
        <ele>0.0</ele>
        <time>2020-09-21T15:23:45Z</time>
      </trkpt>
      <trkpt lat="52.163906" lon="4.487956">
        <ele>0.0</ele>
        <time>2020-09-21T15:23:45Z</time>
      </trkpt>
      <trkpt lat="52.163937" lon="4.487943">
        <ele>0.0</ele>
        <time>2020-09-21T15:23:46Z</time>
      </trkpt>
      <trkpt lat="52.163975" lon="4.487933">
        <ele>0.0</ele>
        <time>2020-09-21T15:23:47Z</time>
      </trkpt>
      <trkpt lat="52.164005" lon="4.4879246">
        <ele>0.0</ele>
        <time>2020-09-21T15:23:48Z</time>
      </trkpt>
      <trkpt lat="52.16404" lon="4.487919">
        <ele>0.0</ele>
        <time>2020-09-21T15:23:48Z</time>
      </trkpt>
      <trkpt lat="52.164074" lon="4.487915">
        <ele>0.0</ele>
        <time>2020-09-21T15:23:49Z</time>
      </trkpt>
      <trkpt lat="52.164112" lon="4.487909">
        <ele>0.0</ele>
        <time>2020-09-21T15:23:50Z</time>
      </trkpt>
      <trkpt lat="52.164146" lon="4.4879007">
        <ele>0.0</ele>
        <time>2020-09-21T15:23:51Z</time>
      </trkpt>
      <trkpt lat="52.164185" lon="4.4878974">
        <ele>0.0</ele>
        <time>2020-09-21T15:23:52Z</time>
      </trkpt>
      <trkpt lat="52.16422" lon="4.487892">
        <ele>0.0</ele>
        <time>2020-09-21T15:23:53Z</time>
      </trkpt>
      <trkpt lat="52.164253" lon="4.487886">
        <ele>0.0</ele>
        <time>2020-09-21T15:23:54Z</time>
      </trkpt>
      <trkpt lat="52.164295" lon="4.4878826">
        <ele>0.0</ele>
        <time>2020-09-21T15:23:55Z</time>
      </trkpt>
      <trkpt lat="52.164333" lon="4.4878745">
        <ele>0.0</ele>
        <time>2020-09-21T15:23:56Z</time>
      </trkpt>
      <trkpt lat="52.16437" lon="4.4878592">
        <ele>0.0</ele>
        <time>2020-09-21T15:23:57Z</time>
      </trkpt>
      <trkpt lat="52.164402" lon="4.4878306">
        <ele>0.0</ele>
        <time>2020-09-21T15:23:58Z</time>
      </trkpt>
      <trkpt lat="52.16443" lon="4.4877925">
        <ele>0.0</ele>
        <time>2020-09-21T15:23:59Z</time>
      </trkpt>
      <trkpt lat="52.164455" lon="4.487748">
        <ele>0.0</ele>
        <time>2020-09-21T15:24:00Z</time>
      </trkpt>
      <trkpt lat="52.16448" lon="4.487697">
        <ele>0.0</ele>
        <time>2020-09-21T15:24:02Z</time>
      </trkpt>
      <trkpt lat="52.1645" lon="4.487641">
        <ele>0.0</ele>
        <time>2020-09-21T15:24:02Z</time>
      </trkpt>
      <trkpt lat="52.16452" lon="4.4875813">
        <ele>0.0</ele>
        <time>2020-09-21T15:24:03Z</time>
      </trkpt>
      <trkpt lat="52.164543" lon="4.4875207">
        <ele>0.0</ele>
        <time>2020-09-21T15:24:04Z</time>
      </trkpt>
      <trkpt lat="52.16456" lon="4.4874578">
        <ele>0.0</ele>
        <time>2020-09-21T15:24:05Z</time>
      </trkpt>
      <trkpt lat="52.164577" lon="4.4873967">
        <ele>0.0</ele>
        <time>2020-09-21T15:24:06Z</time>
      </trkpt>
      <trkpt lat="52.164597" lon="4.487337">
        <ele>0.0</ele>
        <time>2020-09-21T15:24:07Z</time>
      </trkpt>
      <trkpt lat="52.16462" lon="4.487275">
        <ele>0.0</ele>
        <time>2020-09-21T15:24:08Z</time>
      </trkpt>
      <trkpt lat="52.16464" lon="4.487216">
        <ele>0.0</ele>
        <time>2020-09-21T15:24:09Z</time>
      </trkpt>
      <trkpt lat="52.164658" lon="4.487161">
        <ele>0.0</ele>
        <time>2020-09-21T15:24:10Z</time>
      </trkpt>
      <trkpt lat="52.164673" lon="4.4871073">
        <ele>0.0</ele>
        <time>2020-09-21T15:24:11Z</time>
      </trkpt>
      <trkpt lat="52.164696" lon="4.4870524">
        <ele>0.0</ele>
        <time>2020-09-21T15:24:13Z</time>
      </trkpt>
      <trkpt lat="52.164715" lon="4.4869995">
        <ele>0.0</ele>
        <time>2020-09-21T15:24:13Z</time>
      </trkpt>
      <trkpt lat="52.164738" lon="4.4869456">
        <ele>0.0</ele>
        <time>2020-09-21T15:24:14Z</time>
      </trkpt>
      <trkpt lat="52.16476" lon="4.4868917">
        <ele>0.0</ele>
        <time>2020-09-21T15:24:15Z</time>
      </trkpt>
      <trkpt lat="52.164787" lon="4.486837">
        <ele>0.0</ele>
        <time>2020-09-21T15:24:16Z</time>
      </trkpt>
      <trkpt lat="52.164814" lon="4.4867835">
        <ele>0.0</ele>
        <time>2020-09-21T15:24:17Z</time>
      </trkpt>
      <trkpt lat="52.164837" lon="4.486731">
        <ele>0.0</ele>
        <time>2020-09-21T15:24:18Z</time>
      </trkpt>
      <trkpt lat="52.164864" lon="4.4866805">
        <ele>0.0</ele>
        <time>2020-09-21T15:24:19Z</time>
      </trkpt>
      <trkpt lat="52.164894" lon="4.486633">
        <ele>0.0</ele>
        <time>2020-09-21T15:24:20Z</time>
      </trkpt>
      <trkpt lat="52.16492" lon="4.486592">
        <ele>0.0</ele>
        <time>2020-09-21T15:24:21Z</time>
      </trkpt>
      <trkpt lat="52.16495" lon="4.4865556">
        <ele>0.0</ele>
        <time>2020-09-21T15:24:22Z</time>
      </trkpt>
      <trkpt lat="52.16498" lon="4.48653">
        <ele>0.0</ele>
        <time>2020-09-21T15:24:23Z</time>
      </trkpt>
      <trkpt lat="52.165016" lon="4.486513">
        <ele>0.0</ele>
        <time>2020-09-21T15:24:24Z</time>
      </trkpt>
      <trkpt lat="52.165047" lon="4.4865026">
        <ele>0.0</ele>
        <time>2020-09-21T15:24:25Z</time>
      </trkpt>
      <trkpt lat="52.165085" lon="4.4864964">
        <ele>0.0</ele>
        <time>2020-09-21T15:24:26Z</time>
      </trkpt>
      <trkpt lat="52.16512" lon="4.4864936">
        <ele>0.0</ele>
        <time>2020-09-21T15:24:27Z</time>
      </trkpt>
      <trkpt lat="52.16516" lon="4.4864926">
        <ele>0.0</ele>
        <time>2020-09-21T15:24:28Z</time>
      </trkpt>
      <trkpt lat="52.165203" lon="4.4864936">
        <ele>0.0</ele>
        <time>2020-09-21T15:24:29Z</time>
      </trkpt>
      <trkpt lat="52.16524" lon="4.486493">
        <ele>0.0</ele>
        <time>2020-09-21T15:24:30Z</time>
      </trkpt>
      <trkpt lat="52.165283" lon="4.4864917">
        <ele>0.0</ele>
        <time>2020-09-21T15:24:31Z</time>
      </trkpt>
      <trkpt lat="52.165325" lon="4.48649">
        <ele>0.0</ele>
        <time>2020-09-21T15:24:32Z</time>
      </trkpt>
      <trkpt lat="52.16537" lon="4.486487">
        <ele>0.0</ele>
        <time>2020-09-21T15:24:34Z</time>
      </trkpt>
      <trkpt lat="52.165417" lon="4.486482">
        <ele>0.0</ele>
        <time>2020-09-21T15:24:34Z</time>
      </trkpt>
      <trkpt lat="52.16546" lon="4.486476">
        <ele>0.0</ele>
        <time>2020-09-21T15:24:35Z</time>
      </trkpt>
      <trkpt lat="52.165504" lon="4.4864674">
        <ele>0.0</ele>
        <time>2020-09-21T15:24:36Z</time>
      </trkpt>
      <trkpt lat="52.16555" lon="4.486456">
        <ele>0.0</ele>
        <time>2020-09-21T15:24:37Z</time>
      </trkpt>
      <trkpt lat="52.165592" lon="4.486442">
        <ele>0.0</ele>
        <time>2020-09-21T15:24:38Z</time>
      </trkpt>
      <trkpt lat="52.165638" lon="4.4864283">
        <ele>0.0</ele>
        <time>2020-09-21T15:24:39Z</time>
      </trkpt>
      <trkpt lat="52.16568" lon="4.4864144">
        <ele>0.0</ele>
        <time>2020-09-21T15:24:40Z</time>
      </trkpt>
      <trkpt lat="52.165718" lon="4.4863987">
        <ele>0.0</ele>
        <time>2020-09-21T15:24:41Z</time>
      </trkpt>
      <trkpt lat="52.16576" lon="4.4863815">
        <ele>0.0</ele>
        <time>2020-09-21T15:24:42Z</time>
      </trkpt>
      <trkpt lat="52.165802" lon="4.4863615">
        <ele>0.0</ele>
        <time>2020-09-21T15:24:43Z</time>
      </trkpt>
      <trkpt lat="52.16584" lon="4.4863386">
        <ele>0.0</ele>
        <time>2020-09-21T15:24:44Z</time>
      </trkpt>
      <trkpt lat="52.16588" lon="4.4863143">
        <ele>0.0</ele>
        <time>2020-09-21T15:24:45Z</time>
      </trkpt>
      <trkpt lat="52.165913" lon="4.4862905">
        <ele>0.0</ele>
        <time>2020-09-21T15:24:46Z</time>
      </trkpt>
      <trkpt lat="52.16595" lon="4.486267">
        <ele>0.0</ele>
        <time>2020-09-21T15:24:47Z</time>
      </trkpt>
      <trkpt lat="52.165985" lon="4.4862456">
        <ele>0.0</ele>
        <time>2020-09-21T15:24:48Z</time>
      </trkpt>
      <trkpt lat="52.166016" lon="4.486226">
        <ele>0.0</ele>
        <time>2020-09-21T15:24:49Z</time>
      </trkpt>
      <trkpt lat="52.16605" lon="4.486216">
        <ele>0.0</ele>
        <time>2020-09-21T15:24:50Z</time>
      </trkpt>
      <trkpt lat="52.166084" lon="4.486219">
        <ele>0.0</ele>
        <time>2020-09-21T15:24:52Z</time>
      </trkpt>
      <trkpt lat="52.166115" lon="4.4862366">
        <ele>0.0</ele>
        <time>2020-09-21T15:24:52Z</time>
      </trkpt>
      <trkpt lat="52.166138" lon="4.486268">
        <ele>0.0</ele>
        <time>2020-09-21T15:24:53Z</time>
      </trkpt>
      <trkpt lat="52.166164" lon="4.4863048">
        <ele>0.0</ele>
        <time>2020-09-21T15:24:54Z</time>
      </trkpt>
      <trkpt lat="52.16619" lon="4.4863415">
        <ele>0.0</ele>
        <time>2020-09-21T15:24:55Z</time>
      </trkpt>
      <trkpt lat="52.166214" lon="4.486378">
        <ele>0.0</ele>
        <time>2020-09-21T15:24:56Z</time>
      </trkpt>
      <trkpt lat="52.166245" lon="4.4864163">
        <ele>0.0</ele>
        <time>2020-09-21T15:24:57Z</time>
      </trkpt>
      <trkpt lat="52.16628" lon="4.486456">
        <ele>0.0</ele>
        <time>2020-09-21T15:24:58Z</time>
      </trkpt>
      <trkpt lat="52.16631" lon="4.4864964">
        <ele>0.0</ele>
        <time>2020-09-21T15:24:59Z</time>
      </trkpt>
      <trkpt lat="52.166332" lon="4.4865346">
        <ele>0.0</ele>
        <time>2020-09-21T15:25:00Z</time>
      </trkpt>
      <trkpt lat="52.166363" lon="4.4865685">
        <ele>0.0</ele>
        <time>2020-09-21T15:25:01Z</time>
      </trkpt>
      <trkpt lat="52.1664" lon="4.4865985">
        <ele>0.0</ele>
        <time>2020-09-21T15:25:02Z</time>
      </trkpt>
      <trkpt lat="52.16643" lon="4.486627">
        <ele>0.0</ele>
        <time>2020-09-21T15:25:03Z</time>
      </trkpt>
      <trkpt lat="52.166466" lon="4.4866524">
        <ele>0.0</ele>
        <time>2020-09-21T15:25:04Z</time>
      </trkpt>
      <trkpt lat="52.166496" lon="4.486675">
        <ele>0.0</ele>
        <time>2020-09-21T15:25:05Z</time>
      </trkpt>
      <trkpt lat="52.16654" lon="4.486697">
        <ele>0.0</ele>
        <time>2020-09-21T15:25:06Z</time>
      </trkpt>
      <trkpt lat="52.166573" lon="4.4867163">
        <ele>0.0</ele>
        <time>2020-09-21T15:25:07Z</time>
      </trkpt>
      <trkpt lat="52.166615" lon="4.4867268">
        <ele>0.0</ele>
        <time>2020-09-21T15:25:08Z</time>
      </trkpt>
      <trkpt lat="52.16666" lon="4.486733">
        <ele>0.0</ele>
        <time>2020-09-21T15:25:09Z</time>
      </trkpt>
      <trkpt lat="52.166702" lon="4.4867363">
        <ele>0.0</ele>
        <time>2020-09-21T15:25:10Z</time>
      </trkpt>
      <trkpt lat="52.166744" lon="4.4867396">
        <ele>0.0</ele>
        <time>2020-09-21T15:25:11Z</time>
      </trkpt>
      <trkpt lat="52.16679" lon="4.486745">
        <ele>0.0</ele>
        <time>2020-09-21T15:25:13Z</time>
      </trkpt>
      <trkpt lat="52.166832" lon="4.4867506">
        <ele>0.0</ele>
        <time>2020-09-21T15:25:13Z</time>
      </trkpt>
      <trkpt lat="52.166866" lon="4.486755">
        <ele>0.0</ele>
        <time>2020-09-21T15:25:14Z</time>
      </trkpt>
      <trkpt lat="52.16691" lon="4.486757">
        <ele>0.0</ele>
        <time>2020-09-21T15:25:15Z</time>
      </trkpt>
      <trkpt lat="52.166943" lon="4.4867563">
        <ele>0.0</ele>
        <time>2020-09-21T15:25:16Z</time>
      </trkpt>
      <trkpt lat="52.166977" lon="4.4867563">
        <ele>0.0</ele>
        <time>2020-09-21T15:25:17Z</time>
      </trkpt>
      <trkpt lat="52.16702" lon="4.486759">
        <ele>0.0</ele>
        <time>2020-09-21T15:25:18Z</time>
      </trkpt>
      <trkpt lat="52.16706" lon="4.486763">
        <ele>0.0</ele>
        <time>2020-09-21T15:25:19Z</time>
      </trkpt>
      <trkpt lat="52.167107" lon="4.4867697">
        <ele>0.0</ele>
        <time>2020-09-21T15:25:20Z</time>
      </trkpt>
      <trkpt lat="52.167152" lon="4.4867754">
        <ele>0.0</ele>
        <time>2020-09-21T15:25:21Z</time>
      </trkpt>
      <trkpt lat="52.167194" lon="4.4867797">
        <ele>0.0</ele>
        <time>2020-09-21T15:25:22Z</time>
      </trkpt>
      <trkpt lat="52.167236" lon="4.4867816">
        <ele>0.0</ele>
        <time>2020-09-21T15:25:24Z</time>
      </trkpt>
      <trkpt lat="52.16727" lon="4.486784">
        <ele>0.0</ele>
        <time>2020-09-21T15:25:24Z</time>
      </trkpt>
      <trkpt lat="52.167305" lon="4.4867854">
        <ele>0.0</ele>
        <time>2020-09-21T15:25:25Z</time>
      </trkpt>
      <trkpt lat="52.167343" lon="4.486788">
        <ele>0.0</ele>
        <time>2020-09-21T15:25:26Z</time>
      </trkpt>
      <trkpt lat="52.167377" lon="4.4867883">
        <ele>0.0</ele>
        <time>2020-09-21T15:25:27Z</time>
      </trkpt>
      <trkpt lat="52.167408" lon="4.486785">
        <ele>0.0</ele>
        <time>2020-09-21T15:25:28Z</time>
      </trkpt>
      <trkpt lat="52.167446" lon="4.486777">
        <ele>0.0</ele>
        <time>2020-09-21T15:25:29Z</time>
      </trkpt>
      <trkpt lat="52.16747" lon="4.4867597">
        <ele>0.0</ele>
        <time>2020-09-21T15:25:30Z</time>
      </trkpt>
      <trkpt lat="52.167496" lon="4.4867387">
        <ele>0.0</ele>
        <time>2020-09-21T15:25:31Z</time>
      </trkpt>
      <trkpt lat="52.167522" lon="4.486719">
        <ele>0.0</ele>
        <time>2020-09-21T15:25:32Z</time>
      </trkpt>
      <trkpt lat="52.16754" lon="4.486706">
        <ele>0.0</ele>
        <time>2020-09-21T15:25:34Z</time>
      </trkpt>
      <trkpt lat="52.16757" lon="4.486699">
        <ele>0.0</ele>
        <time>2020-09-21T15:25:34Z</time>
      </trkpt>
      <trkpt lat="52.16759" lon="4.486703">
        <ele>0.0</ele>
        <time>2020-09-21T15:25:35Z</time>
      </trkpt>
      <trkpt lat="52.167614" lon="4.4867144">
        <ele>0.0</ele>
        <time>2020-09-21T15:25:36Z</time>
      </trkpt>
      <trkpt lat="52.16764" lon="4.4867315">
        <ele>0.0</ele>
        <time>2020-09-21T15:25:37Z</time>
      </trkpt>
      <trkpt lat="52.16767" lon="4.486753">
        <ele>0.0</ele>
        <time>2020-09-21T15:25:38Z</time>
      </trkpt>
      <trkpt lat="52.1677" lon="4.486777">
        <ele>0.0</ele>
        <time>2020-09-21T15:25:39Z</time>
      </trkpt>
      <trkpt lat="52.167736" lon="4.486803">
        <ele>0.0</ele>
        <time>2020-09-21T15:25:40Z</time>
      </trkpt>
      <trkpt lat="52.167767" lon="4.4868283">
        <ele>0.0</ele>
        <time>2020-09-21T15:25:41Z</time>
      </trkpt>
      <trkpt lat="52.167805" lon="4.4868517">
        <ele>0.0</ele>
        <time>2020-09-21T15:25:42Z</time>
      </trkpt>
      <trkpt lat="52.167835" lon="4.486873">
        <ele>0.0</ele>
        <time>2020-09-21T15:25:43Z</time>
      </trkpt>
      <trkpt lat="52.167866" lon="4.4868984">
        <ele>0.0</ele>
        <time>2020-09-21T15:25:45Z</time>
      </trkpt>
      <trkpt lat="52.16789" lon="4.4869294">
        <ele>0.0</ele>
        <time>2020-09-21T15:25:45Z</time>
      </trkpt>
      <trkpt lat="52.16791" lon="4.4869704">
        <ele>0.0</ele>
        <time>2020-09-21T15:25:46Z</time>
      </trkpt>
      <trkpt lat="52.167927" lon="4.487016">
        <ele>0.0</ele>
        <time>2020-09-21T15:25:47Z</time>
      </trkpt>
      <trkpt lat="52.167934" lon="4.4870653">
        <ele>0.0</ele>
        <time>2020-09-21T15:25:48Z</time>
      </trkpt>
      <trkpt lat="52.167946" lon="4.487116">
        <ele>0.0</ele>
        <time>2020-09-21T15:25:49Z</time>
      </trkpt>
      <trkpt lat="52.167957" lon="4.487166">
        <ele>0.0</ele>
        <time>2020-09-21T15:25:51Z</time>
      </trkpt>
      <trkpt lat="52.167965" lon="4.4872146">
        <ele>0.0</ele>
        <time>2020-09-21T15:25:52Z</time>
      </trkpt>
      <trkpt lat="52.16798" lon="4.487265">
        <ele>0.0</ele>
        <time>2020-09-21T15:25:52Z</time>
      </trkpt>
      <trkpt lat="52.168" lon="4.487308">
        <ele>0.0</ele>
        <time>2020-09-21T15:25:53Z</time>
      </trkpt>
      <trkpt lat="52.16802" lon="4.487343">
        <ele>0.0</ele>
        <time>2020-09-21T15:25:54Z</time>
      </trkpt>
      <trkpt lat="52.168045" lon="4.4873743">
        <ele>0.0</ele>
        <time>2020-09-21T15:25:55Z</time>
      </trkpt>
      <trkpt lat="52.168076" lon="4.487407">
        <ele>0.0</ele>
        <time>2020-09-21T15:25:56Z</time>
      </trkpt>
      <trkpt lat="52.168106" lon="4.4874473">
        <ele>0.0</ele>
        <time>2020-09-21T15:25:57Z</time>
      </trkpt>
      <trkpt lat="52.16814" lon="4.4874887">
        <ele>0.0</ele>
        <time>2020-09-21T15:25:58Z</time>
      </trkpt>
      <trkpt lat="52.168182" lon="4.4875255">
        <ele>0.0</ele>
        <time>2020-09-21T15:25:59Z</time>
      </trkpt>
      <trkpt lat="52.168217" lon="4.4875655">
        <ele>0.0</ele>
        <time>2020-09-21T15:26:00Z</time>
      </trkpt>
      <trkpt lat="52.168255" lon="4.487605">
        <ele>0.0</ele>
        <time>2020-09-21T15:26:01Z</time>
      </trkpt>
      <trkpt lat="52.16829" lon="4.4876437">
        <ele>0.0</ele>
        <time>2020-09-21T15:26:02Z</time>
      </trkpt>
      <trkpt lat="52.168324" lon="4.4876795">
        <ele>0.0</ele>
        <time>2020-09-21T15:26:03Z</time>
      </trkpt>
      <trkpt lat="52.168354" lon="4.4877157">
        <ele>0.0</ele>
        <time>2020-09-21T15:26:04Z</time>
      </trkpt>
      <trkpt lat="52.168392" lon="4.4877486">
        <ele>0.0</ele>
        <time>2020-09-21T15:26:05Z</time>
      </trkpt>
      <trkpt lat="52.168427" lon="4.487782">
        <ele>0.0</ele>
        <time>2020-09-21T15:26:06Z</time>
      </trkpt>
      <trkpt lat="52.168465" lon="4.4878144">
        <ele>0.0</ele>
        <time>2020-09-21T15:26:07Z</time>
      </trkpt>
      <trkpt lat="52.1685" lon="4.487846">
        <ele>0.0</ele>
        <time>2020-09-21T15:26:08Z</time>
      </trkpt>
      <trkpt lat="52.16853" lon="4.4878793">
        <ele>0.0</ele>
        <time>2020-09-21T15:26:09Z</time>
      </trkpt>
      <trkpt lat="52.16856" lon="4.487915">
        <ele>0.0</ele>
        <time>2020-09-21T15:26:10Z</time>
      </trkpt>
      <trkpt lat="52.16859" lon="4.4879484">
        <ele>0.0</ele>
        <time>2020-09-21T15:26:11Z</time>
      </trkpt>
      <trkpt lat="52.16862" lon="4.4879813">
        <ele>0.0</ele>
        <time>2020-09-21T15:26:12Z</time>
      </trkpt>
      <trkpt lat="52.168648" lon="4.488009">
        <ele>0.0</ele>
        <time>2020-09-21T15:26:13Z</time>
      </trkpt>
      <trkpt lat="52.168674" lon="4.488034">
        <ele>0.0</ele>
        <time>2020-09-21T15:26:14Z</time>
      </trkpt>
      <trkpt lat="52.16869" lon="4.488057">
        <ele>0.0</ele>
        <time>2020-09-21T15:26:15Z</time>
      </trkpt>
      <trkpt lat="52.16871" lon="4.4880786">
        <ele>0.0</ele>
        <time>2020-09-21T15:26:16Z</time>
      </trkpt>
      <trkpt lat="52.168724" lon="4.4880953">
        <ele>0.0</ele>
        <time>2020-09-21T15:26:17Z</time>
      </trkpt>
      <trkpt lat="52.168724" lon="4.4881077">
        <ele>0.0</ele>
        <time>2020-09-21T15:26:18Z</time>
      </trkpt>
      <trkpt lat="52.168724" lon="4.488117">
        <ele>0.0</ele>
        <time>2020-09-21T15:26:19Z</time>
      </trkpt>
      <trkpt lat="52.168724" lon="4.4881215">
        <ele>0.0</ele>
        <time>2020-09-21T15:26:20Z</time>
      </trkpt>
      <trkpt lat="52.16872" lon="4.4881225">
        <ele>0.0</ele>
        <time>2020-09-21T15:26:21Z</time>
      </trkpt>
      <trkpt lat="52.16872" lon="4.4881215">
        <ele>0.0</ele>
        <time>2020-09-21T15:26:22Z</time>
      </trkpt>
      <trkpt lat="52.168724" lon="4.488118">
        <ele>0.0</ele>
        <time>2020-09-21T15:26:24Z</time>
      </trkpt>
      <trkpt lat="52.168724" lon="4.4881153">
        <ele>0.0</ele>
        <time>2020-09-21T15:26:24Z</time>
      </trkpt>
      <trkpt lat="52.168736" lon="4.4881077">
        <ele>0.0</ele>
        <time>2020-09-21T15:26:27Z</time>
      </trkpt>
      <trkpt lat="52.168736" lon="4.4881067">
        <ele>0.0</ele>
        <time>2020-09-21T15:26:28Z</time>
      </trkpt>
      <trkpt lat="52.168736" lon="4.4881053">
        <ele>0.0</ele>
        <time>2020-09-21T15:26:29Z</time>
      </trkpt>
      <trkpt lat="52.168728" lon="4.4881077">
        <ele>0.0</ele>
        <time>2020-09-21T15:26:41Z</time>
      </trkpt>
      <trkpt lat="52.168728" lon="4.4881124">
        <ele>0.0</ele>
        <time>2020-09-21T15:26:46Z</time>
      </trkpt>
      <trkpt lat="52.168728" lon="4.488119">
        <ele>0.0</ele>
        <time>2020-09-21T15:26:48Z</time>
      </trkpt>
      <trkpt lat="52.168724" lon="4.4881225">
        <ele>0.0</ele>
        <time>2020-09-21T15:26:50Z</time>
      </trkpt>
      <trkpt lat="52.168724" lon="4.488125">
        <ele>0.0</ele>
        <time>2020-09-21T15:26:51Z</time>
      </trkpt>
      <trkpt lat="52.168724" lon="4.4881277">
        <ele>0.0</ele>
        <time>2020-09-21T15:26:52Z</time>
      </trkpt>
      <trkpt lat="52.168724" lon="4.488131">
        <ele>0.0</ele>
        <time>2020-09-21T15:26:55Z</time>
      </trkpt>
      <trkpt lat="52.168724" lon="4.488128">
        <ele>0.0</ele>
        <time>2020-09-21T15:26:56Z</time>
      </trkpt>
      <trkpt lat="52.168724" lon="4.4881225">
        <ele>0.0</ele>
        <time>2020-09-21T15:26:57Z</time>
      </trkpt>
      <trkpt lat="52.168724" lon="4.4881144">
        <ele>0.0</ele>
        <time>2020-09-21T15:26:58Z</time>
      </trkpt>
      <trkpt lat="52.16872" lon="4.4881077">
        <ele>0.0</ele>
        <time>2020-09-21T15:26:59Z</time>
      </trkpt>
      <trkpt lat="52.168713" lon="4.488102">
        <ele>0.0</ele>
        <time>2020-09-21T15:27:00Z</time>
      </trkpt>
      <trkpt lat="52.168713" lon="4.488098">
        <ele>0.0</ele>
        <time>2020-09-21T15:27:02Z</time>
      </trkpt>
      <trkpt lat="52.16871" lon="4.4880958">
        <ele>0.0</ele>
        <time>2020-09-21T15:27:02Z</time>
      </trkpt>
      <trkpt lat="52.168705" lon="4.488088">
        <ele>0.0</ele>
        <time>2020-09-21T15:27:03Z</time>
      </trkpt>
      <trkpt lat="52.168697" lon="4.4880824">
        <ele>0.0</ele>
        <time>2020-09-21T15:27:04Z</time>
      </trkpt>
      <trkpt lat="52.168697" lon="4.488076">
        <ele>0.0</ele>
        <time>2020-09-21T15:27:06Z</time>
      </trkpt>
      <trkpt lat="52.168697" lon="4.488078">
        <ele>0.0</ele>
        <time>2020-09-21T15:27:07Z</time>
      </trkpt>
      <trkpt lat="52.168697" lon="4.4880824">
        <ele>0.0</ele>
        <time>2020-09-21T15:27:08Z</time>
      </trkpt>
      <trkpt lat="52.168705" lon="4.488085">
        <ele>0.0</ele>
        <time>2020-09-21T15:27:09Z</time>
      </trkpt>
      <trkpt lat="52.168705" lon="4.488086">
        <ele>0.0</ele>
        <time>2020-09-21T15:27:10Z</time>
      </trkpt>
      <trkpt lat="52.168713" lon="4.488081">
        <ele>0.0</ele>
        <time>2020-09-21T15:27:13Z</time>
      </trkpt>
      <trkpt lat="52.168724" lon="4.4880943">
        <ele>0.0</ele>
        <time>2020-09-21T15:27:14Z</time>
      </trkpt>
      <trkpt lat="52.168724" lon="4.488096">
        <ele>0.0</ele>
        <time>2020-09-21T15:27:15Z</time>
      </trkpt>
      <trkpt lat="52.168728" lon="4.488097">
        <ele>0.0</ele>
        <time>2020-09-21T15:27:16Z</time>
      </trkpt>
      <trkpt lat="52.16874" lon="4.48809">
        <ele>0.0</ele>
        <time>2020-09-21T15:27:17Z</time>
      </trkpt>
      <trkpt lat="52.168743" lon="4.4880795">
        <ele>0.0</ele>
        <time>2020-09-21T15:27:18Z</time>
      </trkpt>
      <trkpt lat="52.16875" lon="4.4880795">
        <ele>0.0</ele>
        <time>2020-09-21T15:27:20Z</time>
      </trkpt>
      <trkpt lat="52.16875" lon="4.4880834">
        <ele>0.0</ele>
        <time>2020-09-21T15:27:21Z</time>
      </trkpt>
      <trkpt lat="52.16875" lon="4.488089">
        <ele>0.0</ele>
        <time>2020-09-21T15:27:23Z</time>
      </trkpt>
      <trkpt lat="52.16875" lon="4.4880934">
        <ele>0.0</ele>
        <time>2020-09-21T15:27:23Z</time>
      </trkpt>
      <trkpt lat="52.16875" lon="4.488094">
        <ele>0.0</ele>
        <time>2020-09-21T15:27:24Z</time>
      </trkpt>
      <trkpt lat="52.168755" lon="4.488094">
        <ele>0.0</ele>
        <time>2020-09-21T15:27:25Z</time>
      </trkpt>
      <trkpt lat="52.168755" lon="4.488093">
        <ele>0.0</ele>
        <time>2020-09-21T15:27:26Z</time>
      </trkpt>
      <trkpt lat="52.168755" lon="4.48809">
        <ele>0.0</ele>
        <time>2020-09-21T15:27:27Z</time>
      </trkpt>
      <trkpt lat="52.16875" lon="4.4880877">
        <ele>0.0</ele>
        <time>2020-09-21T15:27:28Z</time>
      </trkpt>
      <trkpt lat="52.16875" lon="4.488085">
        <ele>0.0</ele>
        <time>2020-09-21T15:27:30Z</time>
      </trkpt>
      <trkpt lat="52.16875" lon="4.4880834">
        <ele>0.0</ele>
        <time>2020-09-21T15:27:30Z</time>
      </trkpt>
      <trkpt lat="52.168755" lon="4.4880805">
        <ele>0.0</ele>
        <time>2020-09-21T15:27:31Z</time>
      </trkpt>
      <trkpt lat="52.168755" lon="4.4880743">
        <ele>0.0</ele>
        <time>2020-09-21T15:27:32Z</time>
      </trkpt>
      <trkpt lat="52.168755" lon="4.4880676">
        <ele>0.0</ele>
        <time>2020-09-21T15:27:33Z</time>
      </trkpt>
      <trkpt lat="52.168762" lon="4.488041">
        <ele>0.0</ele>
        <time>2020-09-21T15:27:35Z</time>
      </trkpt>
      <trkpt lat="52.168762" lon="4.488041">
        <ele>0.0</ele>
        <time>2020-09-21T15:27:36Z</time>
      </trkpt>
      <trkpt lat="52.168762" lon="4.4880395">
        <ele>0.0</ele>
        <time>2020-09-21T15:27:37Z</time>
      </trkpt>
      <trkpt lat="52.168766" lon="4.4880385">
        <ele>0.0</ele>
        <time>2020-09-21T15:27:38Z</time>
      </trkpt>
      <trkpt lat="52.168755" lon="4.488043">
        <ele>0.0</ele>
        <time>2020-09-21T15:28:00Z</time>
      </trkpt>
      <trkpt lat="52.16875" lon="4.488043">
        <ele>0.0</ele>
        <time>2020-09-21T15:28:03Z</time>
      </trkpt>
      <trkpt lat="52.16875" lon="4.4880443">
        <ele>0.0</ele>
        <time>2020-09-21T15:28:05Z</time>
      </trkpt>
      <trkpt lat="52.168743" lon="4.488045">
        <ele>0.0</ele>
        <time>2020-09-21T15:28:06Z</time>
      </trkpt>
      <trkpt lat="52.168743" lon="4.4880476">
        <ele>0.0</ele>
        <time>2020-09-21T15:28:07Z</time>
      </trkpt>
      <trkpt lat="52.168743" lon="4.4880505">
        <ele>0.0</ele>
        <time>2020-09-21T15:28:08Z</time>
      </trkpt>
      <trkpt lat="52.168736" lon="4.488075">
        <ele>0.0</ele>
        <time>2020-09-21T15:28:13Z</time>
      </trkpt>
      <trkpt lat="52.16874" lon="4.4880776">
        <ele>0.0</ele>
        <time>2020-09-21T15:28:25Z</time>
      </trkpt>
      <trkpt lat="52.16874" lon="4.4880595">
        <ele>0.0</ele>
        <time>2020-09-21T15:28:34Z</time>
      </trkpt>
      <trkpt lat="52.16874" lon="4.488056">
        <ele>0.0</ele>
        <time>2020-09-21T15:28:35Z</time>
      </trkpt>
      <trkpt lat="52.16874" lon="4.488052">
        <ele>0.0</ele>
        <time>2020-09-21T15:28:37Z</time>
      </trkpt>
      <trkpt lat="52.16874" lon="4.488047">
        <ele>0.0</ele>
        <time>2020-09-21T15:28:37Z</time>
      </trkpt>
      <trkpt lat="52.168736" lon="4.4880347">
        <ele>0.0</ele>
        <time>2020-09-21T15:28:40Z</time>
      </trkpt>
      <trkpt lat="52.168728" lon="4.4880357">
        <ele>0.0</ele>
        <time>2020-09-21T15:28:41Z</time>
      </trkpt>
      <trkpt lat="52.16872" lon="4.4880404">
        <ele>0.0</ele>
        <time>2020-09-21T15:28:42Z</time>
      </trkpt>
      <trkpt lat="52.16871" lon="4.4880466">
        <ele>0.0</ele>
        <time>2020-09-21T15:28:43Z</time>
      </trkpt>
      <trkpt lat="52.168694" lon="4.488053">
        <ele>0.0</ele>
        <time>2020-09-21T15:28:44Z</time>
      </trkpt>
      <trkpt lat="52.16868" lon="4.488056">
        <ele>0.0</ele>
        <time>2020-09-21T15:28:45Z</time>
      </trkpt>
      <trkpt lat="52.168667" lon="4.488056">
        <ele>0.0</ele>
        <time>2020-09-21T15:28:46Z</time>
      </trkpt>
      <trkpt lat="52.16862" lon="4.488056">
        <ele>0.0</ele>
        <time>2020-09-21T15:28:50Z</time>
      </trkpt>
      <trkpt lat="52.16862" lon="4.488058">
        <ele>0.0</ele>
        <time>2020-09-21T15:28:51Z</time>
      </trkpt>
      <trkpt lat="52.16862" lon="4.488061">
        <ele>0.0</ele>
        <time>2020-09-21T15:28:52Z</time>
      </trkpt>
      <trkpt lat="52.16863" lon="4.488062">
        <ele>0.0</ele>
        <time>2020-09-21T15:28:53Z</time>
      </trkpt>
      <trkpt lat="52.168633" lon="4.488062">
        <ele>0.0</ele>
        <time>2020-09-21T15:28:54Z</time>
      </trkpt>
      <trkpt lat="52.168644" lon="4.4880576">
        <ele>0.0</ele>
        <time>2020-09-21T15:28:55Z</time>
      </trkpt>
      <trkpt lat="52.168648" lon="4.4880533">
        <ele>0.0</ele>
        <time>2020-09-21T15:28:56Z</time>
      </trkpt>
      <trkpt lat="52.16865" lon="4.4880495">
        <ele>0.0</ele>
        <time>2020-09-21T15:28:58Z</time>
      </trkpt>
      <trkpt lat="52.16865" lon="4.488052">
        <ele>0.0</ele>
        <time>2020-09-21T15:28:58Z</time>
      </trkpt>
      <trkpt lat="52.16866" lon="4.488057">
        <ele>0.0</ele>
        <time>2020-09-21T15:28:59Z</time>
      </trkpt>
      <trkpt lat="52.16866" lon="4.488068">
        <ele>0.0</ele>
        <time>2020-09-21T15:29:00Z</time>
      </trkpt>
      <trkpt lat="52.168663" lon="4.4880805">
        <ele>0.0</ele>
        <time>2020-09-21T15:29:01Z</time>
      </trkpt>
      <trkpt lat="52.168663" lon="4.4880924">
        <ele>0.0</ele>
        <time>2020-09-21T15:29:02Z</time>
      </trkpt>
      <trkpt lat="52.16866" lon="4.488105">
        <ele>0.0</ele>
        <time>2020-09-21T15:29:03Z</time>
      </trkpt>
      <trkpt lat="52.16866" lon="4.4881167">
        <ele>0.0</ele>
        <time>2020-09-21T15:29:04Z</time>
      </trkpt>
      <trkpt lat="52.16866" lon="4.4881287">
        <ele>0.0</ele>
        <time>2020-09-21T15:29:05Z</time>
      </trkpt>
      <trkpt lat="52.168667" lon="4.4881396">
        <ele>0.0</ele>
        <time>2020-09-21T15:29:06Z</time>
      </trkpt>
      <trkpt lat="52.168667" lon="4.488151">
        <ele>0.0</ele>
        <time>2020-09-21T15:29:07Z</time>
      </trkpt>
      <trkpt lat="52.168674" lon="4.488167">
        <ele>0.0</ele>
        <time>2020-09-21T15:29:08Z</time>
      </trkpt>
      <trkpt lat="52.168674" lon="4.488183">
        <ele>0.0</ele>
        <time>2020-09-21T15:29:09Z</time>
      </trkpt>
      <trkpt lat="52.16868" lon="4.4881997">
        <ele>0.0</ele>
        <time>2020-09-21T15:29:10Z</time>
      </trkpt>
      <trkpt lat="52.16868" lon="4.4882145">
        <ele>0.0</ele>
        <time>2020-09-21T15:29:11Z</time>
      </trkpt>
      <trkpt lat="52.16868" lon="4.48823">
        <ele>0.0</ele>
        <time>2020-09-21T15:29:12Z</time>
      </trkpt>
      <trkpt lat="52.16868" lon="4.488247">
        <ele>0.0</ele>
        <time>2020-09-21T15:29:13Z</time>
      </trkpt>
      <trkpt lat="52.168674" lon="4.4882665">
        <ele>0.0</ele>
        <time>2020-09-21T15:29:14Z</time>
      </trkpt>
      <trkpt lat="52.168667" lon="4.488286">
        <ele>0.0</ele>
        <time>2020-09-21T15:29:15Z</time>
      </trkpt>
      <trkpt lat="52.168663" lon="4.488307">
        <ele>0.0</ele>
        <time>2020-09-21T15:29:16Z</time>
      </trkpt>
      <trkpt lat="52.16866" lon="4.4883304">
        <ele>0.0</ele>
        <time>2020-09-21T15:29:17Z</time>
      </trkpt>
      <trkpt lat="52.16866" lon="4.488351">
        <ele>0.0</ele>
        <time>2020-09-21T15:29:18Z</time>
      </trkpt>
      <trkpt lat="52.168648" lon="4.4883676">
        <ele>0.0</ele>
        <time>2020-09-21T15:29:19Z</time>
      </trkpt>
      <trkpt lat="52.168644" lon="4.4883847">
        <ele>0.0</ele>
        <time>2020-09-21T15:29:20Z</time>
      </trkpt>
      <trkpt lat="52.168636" lon="4.4884005">
        <ele>0.0</ele>
        <time>2020-09-21T15:29:21Z</time>
      </trkpt>
      <trkpt lat="52.168633" lon="4.4884133">
        <ele>0.0</ele>
        <time>2020-09-21T15:29:22Z</time>
      </trkpt>
      <trkpt lat="52.16862" lon="4.4884195">
        <ele>0.0</ele>
        <time>2020-09-21T15:29:23Z</time>
      </trkpt>
      <trkpt lat="52.168613" lon="4.488425">
        <ele>0.0</ele>
        <time>2020-09-21T15:29:24Z</time>
      </trkpt>
      <trkpt lat="52.168602" lon="4.4884305">
        <ele>0.0</ele>
        <time>2020-09-21T15:29:25Z</time>
      </trkpt>
      <trkpt lat="52.16859" lon="4.488434">
        <ele>0.0</ele>
        <time>2020-09-21T15:29:26Z</time>
      </trkpt>
      <trkpt lat="52.168583" lon="4.488434">
        <ele>0.0</ele>
        <time>2020-09-21T15:29:27Z</time>
      </trkpt>
      <trkpt lat="52.168575" lon="4.4884324">
        <ele>0.0</ele>
        <time>2020-09-21T15:29:29Z</time>
      </trkpt>
      <trkpt lat="52.168568" lon="4.4884305">
        <ele>0.0</ele>
        <time>2020-09-21T15:29:29Z</time>
      </trkpt>
      <trkpt lat="52.16856" lon="4.488435">
        <ele>0.0</ele>
        <time>2020-09-21T15:29:30Z</time>
      </trkpt>
      <trkpt lat="52.168545" lon="4.488446">
        <ele>0.0</ele>
        <time>2020-09-21T15:29:32Z</time>
      </trkpt>
      <trkpt lat="52.16854" lon="4.4884434">
        <ele>0.0</ele>
        <time>2020-09-21T15:29:33Z</time>
      </trkpt>
      <trkpt lat="52.168533" lon="4.4884295">
        <ele>0.0</ele>
        <time>2020-09-21T15:29:35Z</time>
      </trkpt>
      <trkpt lat="52.168533" lon="4.4884267">
        <ele>0.0</ele>
        <time>2020-09-21T15:29:36Z</time>
      </trkpt>
      <trkpt lat="52.168545" lon="4.488425">
        <ele>0.0</ele>
        <time>2020-09-21T15:29:37Z</time>
      </trkpt>
      <trkpt lat="52.16855" lon="4.4884224">
        <ele>0.0</ele>
        <time>2020-09-21T15:29:38Z</time>
      </trkpt>
      <trkpt lat="52.168568" lon="4.4884143">
        <ele>0.0</ele>
        <time>2020-09-21T15:29:41Z</time>
      </trkpt>
      <trkpt lat="52.168568" lon="4.488415">
        <ele>0.0</ele>
        <time>2020-09-21T15:29:41Z</time>
      </trkpt>
      <trkpt lat="52.168568" lon="4.488417">
        <ele>0.0</ele>
        <time>2020-09-21T15:29:42Z</time>
      </trkpt>
      <trkpt lat="52.16856" lon="4.488417">
        <ele>0.0</ele>
        <time>2020-09-21T15:29:43Z</time>
      </trkpt>
      <trkpt lat="52.168556" lon="4.488418">
        <ele>0.0</ele>
        <time>2020-09-21T15:29:44Z</time>
      </trkpt>
      <trkpt lat="52.16855" lon="4.488418">
        <ele>0.0</ele>
        <time>2020-09-21T15:29:45Z</time>
      </trkpt>
      <trkpt lat="52.16855" lon="4.488417">
        <ele>0.0</ele>
        <time>2020-09-21T15:29:46Z</time>
      </trkpt>
      <trkpt lat="52.168545" lon="4.488415">
        <ele>0.0</ele>
        <time>2020-09-21T15:29:47Z</time>
      </trkpt>
      <trkpt lat="52.16854" lon="4.488409">
        <ele>0.0</ele>
        <time>2020-09-21T15:29:49Z</time>
      </trkpt>
      <trkpt lat="52.168533" lon="4.4884014">
        <ele>0.0</ele>
        <time>2020-09-21T15:29:49Z</time>
      </trkpt>
      <trkpt lat="52.168526" lon="4.4883995">
        <ele>0.0</ele>
        <time>2020-09-21T15:29:50Z</time>
      </trkpt>
      <trkpt lat="52.168518" lon="4.488396">
        <ele>0.0</ele>
        <time>2020-09-21T15:29:51Z</time>
      </trkpt>
      <trkpt lat="52.16851" lon="4.4883933">
        <ele>0.0</ele>
        <time>2020-09-21T15:29:52Z</time>
      </trkpt>
      <trkpt lat="52.16851" lon="4.488394">
        <ele>0.0</ele>
        <time>2020-09-21T15:29:53Z</time>
      </trkpt>
      <trkpt lat="52.168495" lon="4.4883957">
        <ele>0.0</ele>
        <time>2020-09-21T15:29:55Z</time>
      </trkpt>
      <trkpt lat="52.168495" lon="4.4883947">
        <ele>0.0</ele>
        <time>2020-09-21T15:29:56Z</time>
      </trkpt>
      <trkpt lat="52.168484" lon="4.4883895">
        <ele>0.0</ele>
        <time>2020-09-21T15:29:58Z</time>
      </trkpt>
      <trkpt lat="52.168484" lon="4.48839">
        <ele>0.0</ele>
        <time>2020-09-21T15:30:00Z</time>
      </trkpt>
      <trkpt lat="52.16848" lon="4.4883914">
        <ele>0.0</ele>
        <time>2020-09-21T15:30:00Z</time>
      </trkpt>
      <trkpt lat="52.16848" lon="4.4883995">
        <ele>0.0</ele>
        <time>2020-09-21T15:30:02Z</time>
      </trkpt>
      <trkpt lat="52.16848" lon="4.4883995">
        <ele>0.0</ele>
        <time>2020-09-21T15:30:03Z</time>
      </trkpt>
      <trkpt lat="52.16848" lon="4.488399">
        <ele>0.0</ele>
        <time>2020-09-21T15:30:04Z</time>
      </trkpt>
      <trkpt lat="52.16848" lon="4.488401">
        <ele>0.0</ele>
        <time>2020-09-21T15:30:05Z</time>
      </trkpt>
      <trkpt lat="52.168472" lon="4.488403">
        <ele>0.0</ele>
        <time>2020-09-21T15:30:06Z</time>
      </trkpt>
      <trkpt lat="52.168472" lon="4.488406">
        <ele>0.0</ele>
        <time>2020-09-21T15:30:07Z</time>
      </trkpt>
      <trkpt lat="52.16847" lon="4.4884105">
        <ele>0.0</ele>
        <time>2020-09-21T15:30:08Z</time>
      </trkpt>
      <trkpt lat="52.16847" lon="4.4884167">
        <ele>0.0</ele>
        <time>2020-09-21T15:30:09Z</time>
      </trkpt>
      <trkpt lat="52.168465" lon="4.488422">
        <ele>0.0</ele>
        <time>2020-09-21T15:30:11Z</time>
      </trkpt>
      <trkpt lat="52.16845" lon="4.4884257">
        <ele>0.0</ele>
        <time>2020-09-21T15:30:12Z</time>
      </trkpt>
      <trkpt lat="52.168453" lon="4.488429">
        <ele>0.0</ele>
        <time>2020-09-21T15:30:26Z</time>
      </trkpt>
      <trkpt lat="52.168453" lon="4.4884357">
        <ele>0.0</ele>
        <time>2020-09-21T15:30:30Z</time>
      </trkpt>
      <trkpt lat="52.168453" lon="4.4884357">
        <ele>0.0</ele>
        <time>2020-09-21T15:30:31Z</time>
      </trkpt>
      <trkpt lat="52.16845" lon="4.488435">
        <ele>0.0</ele>
        <time>2020-09-21T15:30:32Z</time>
      </trkpt>
      <trkpt lat="52.16845" lon="4.4884353">
        <ele>0.0</ele>
        <time>2020-09-21T15:30:33Z</time>
      </trkpt>
      <trkpt lat="52.16844" lon="4.4884357">
        <ele>0.0</ele>
        <time>2020-09-21T15:30:34Z</time>
      </trkpt>
      <trkpt lat="52.168438" lon="4.4884343">
        <ele>0.0</ele>
        <time>2020-09-21T15:30:35Z</time>
      </trkpt>
      <trkpt lat="52.168427" lon="4.488429">
        <ele>0.0</ele>
        <time>2020-09-21T15:30:36Z</time>
      </trkpt>
      <trkpt lat="52.16842" lon="4.4884224">
        <ele>0.0</ele>
        <time>2020-09-21T15:30:37Z</time>
      </trkpt>
      <trkpt lat="52.168404" lon="4.488412">
        <ele>0.0</ele>
        <time>2020-09-21T15:30:38Z</time>
      </trkpt>
      <trkpt lat="52.16839" lon="4.4884057">
        <ele>0.0</ele>
        <time>2020-09-21T15:30:39Z</time>
      </trkpt>
      <trkpt lat="52.16838" lon="4.4884005">
        <ele>0.0</ele>
        <time>2020-09-21T15:30:40Z</time>
      </trkpt>
      <trkpt lat="52.16836" lon="4.4883995">
        <ele>0.0</ele>
        <time>2020-09-21T15:30:43Z</time>
      </trkpt>
      <trkpt lat="52.16836" lon="4.4884024">
        <ele>0.0</ele>
        <time>2020-09-21T15:30:45Z</time>
      </trkpt>
      <trkpt lat="52.16836" lon="4.488403">
        <ele>0.0</ele>
        <time>2020-09-21T15:30:46Z</time>
      </trkpt>
      <trkpt lat="52.16836" lon="4.4884043">
        <ele>0.0</ele>
        <time>2020-09-21T15:30:47Z</time>
      </trkpt>
      <trkpt lat="52.16836" lon="4.488405">
        <ele>0.0</ele>
        <time>2020-09-21T15:30:48Z</time>
      </trkpt>
      <trkpt lat="52.16836" lon="4.488407">
        <ele>0.0</ele>
        <time>2020-09-21T15:30:49Z</time>
      </trkpt>
      <trkpt lat="52.16836" lon="4.4884076">
        <ele>0.0</ele>
        <time>2020-09-21T15:30:50Z</time>
      </trkpt>
      <trkpt lat="52.16836" lon="4.488411">
        <ele>0.0</ele>
        <time>2020-09-21T15:30:54Z</time>
      </trkpt>
      <trkpt lat="52.16836" lon="4.4884133">
        <ele>0.0</ele>
        <time>2020-09-21T15:30:55Z</time>
      </trkpt>
      <trkpt lat="52.168354" lon="4.4884176">
        <ele>0.0</ele>
        <time>2020-09-21T15:30:56Z</time>
      </trkpt>
      <trkpt lat="52.168354" lon="4.488422">
        <ele>0.0</ele>
        <time>2020-09-21T15:30:57Z</time>
      </trkpt>
      <trkpt lat="52.168354" lon="4.488429">
        <ele>0.0</ele>
        <time>2020-09-21T15:30:58Z</time>
      </trkpt>
      <trkpt lat="52.16836" lon="4.4884367">
        <ele>0.0</ele>
        <time>2020-09-21T15:31:00Z</time>
      </trkpt>
      <trkpt lat="52.16837" lon="4.4884453">
        <ele>0.0</ele>
        <time>2020-09-21T15:31:00Z</time>
      </trkpt>
      <trkpt lat="52.16838" lon="4.488456">
        <ele>0.0</ele>
        <time>2020-09-21T15:31:01Z</time>
      </trkpt>
      <trkpt lat="52.16839" lon="4.4884615">
        <ele>0.0</ele>
        <time>2020-09-21T15:31:02Z</time>
      </trkpt>
      <trkpt lat="52.168392" lon="4.488462">
        <ele>0.0</ele>
        <time>2020-09-21T15:31:03Z</time>
      </trkpt>
      <trkpt lat="52.168392" lon="4.488451">
        <ele>0.0</ele>
        <time>2020-09-21T15:31:06Z</time>
      </trkpt>
      <trkpt lat="52.168392" lon="4.488451">
        <ele>0.0</ele>
        <time>2020-09-21T15:31:07Z</time>
      </trkpt>
      <trkpt lat="52.168392" lon="4.48845">
        <ele>0.0</ele>
        <time>2020-09-21T15:31:08Z</time>
      </trkpt>
      <trkpt lat="52.168396" lon="4.4884453">
        <ele>0.0</ele>
        <time>2020-09-21T15:31:09Z</time>
      </trkpt>
      <trkpt lat="52.168404" lon="4.4884396">
        <ele>0.0</ele>
        <time>2020-09-21T15:31:10Z</time>
      </trkpt>
      <trkpt lat="52.168404" lon="4.4884324">
        <ele>0.0</ele>
        <time>2020-09-21T15:31:11Z</time>
      </trkpt>
      <trkpt lat="52.168407" lon="4.4884257">
        <ele>0.0</ele>
        <time>2020-09-21T15:31:12Z</time>
      </trkpt>
      <trkpt lat="52.168407" lon="4.4884186">
        <ele>0.0</ele>
        <time>2020-09-21T15:31:13Z</time>
      </trkpt>
      <trkpt lat="52.168407" lon="4.4884124">
        <ele>0.0</ele>
        <time>2020-09-21T15:31:14Z</time>
      </trkpt>
      <trkpt lat="52.168407" lon="4.488409">
        <ele>0.0</ele>
        <time>2020-09-21T15:31:15Z</time>
      </trkpt>
      <trkpt lat="52.168407" lon="4.488403">
        <ele>0.0</ele>
        <time>2020-09-21T15:31:16Z</time>
      </trkpt>
      <trkpt lat="52.168407" lon="4.4883947">
        <ele>0.0</ele>
        <time>2020-09-21T15:31:17Z</time>
      </trkpt>
      <trkpt lat="52.168407" lon="4.488385">
        <ele>0.0</ele>
        <time>2020-09-21T15:31:18Z</time>
      </trkpt>
      <trkpt lat="52.168407" lon="4.4883733">
        <ele>0.0</ele>
        <time>2020-09-21T15:31:19Z</time>
      </trkpt>
      <trkpt lat="52.168407" lon="4.488361">
        <ele>0.0</ele>
        <time>2020-09-21T15:31:20Z</time>
      </trkpt>
      <trkpt lat="52.168407" lon="4.488349">
        <ele>0.0</ele>
        <time>2020-09-21T15:31:21Z</time>
      </trkpt>
      <trkpt lat="52.168404" lon="4.488336">
        <ele>0.0</ele>
        <time>2020-09-21T15:31:22Z</time>
      </trkpt>
      <trkpt lat="52.168404" lon="4.488324">
        <ele>0.0</ele>
        <time>2020-09-21T15:31:23Z</time>
      </trkpt>
      <trkpt lat="52.168404" lon="4.488314">
        <ele>0.0</ele>
        <time>2020-09-21T15:31:24Z</time>
      </trkpt>
      <trkpt lat="52.168404" lon="4.4883065">
        <ele>0.0</ele>
        <time>2020-09-21T15:31:25Z</time>
      </trkpt>
      <trkpt lat="52.168404" lon="4.488302">
        <ele>0.0</ele>
        <time>2020-09-21T15:31:27Z</time>
      </trkpt>
      <trkpt lat="52.168407" lon="4.4883018">
        <ele>0.0</ele>
        <time>2020-09-21T15:31:27Z</time>
      </trkpt>
      <trkpt lat="52.168407" lon="4.4883056">
        <ele>0.0</ele>
        <time>2020-09-21T15:31:28Z</time>
      </trkpt>
      <trkpt lat="52.168407" lon="4.48831">
        <ele>0.0</ele>
        <time>2020-09-21T15:31:29Z</time>
      </trkpt>
      <trkpt lat="52.16841" lon="4.488314">
        <ele>0.0</ele>
        <time>2020-09-21T15:31:30Z</time>
      </trkpt>
      <trkpt lat="52.16841" lon="4.488318">
        <ele>0.0</ele>
        <time>2020-09-21T15:31:31Z</time>
      </trkpt>
      <trkpt lat="52.168423" lon="4.488343">
        <ele>0.0</ele>
        <time>2020-09-21T15:31:48Z</time>
      </trkpt>
      <trkpt lat="52.168423" lon="4.4883437">
        <ele>0.0</ele>
        <time>2020-09-21T15:31:49Z</time>
      </trkpt>
      <trkpt lat="52.168423" lon="4.4883456">
        <ele>0.0</ele>
        <time>2020-09-21T15:31:50Z</time>
      </trkpt>
      <trkpt lat="52.16842" lon="4.4883676">
        <ele>0.0</ele>
        <time>2020-09-21T15:32:04Z</time>
      </trkpt>
      <trkpt lat="52.16842" lon="4.4883676">
        <ele>0.0</ele>
        <time>2020-09-21T15:32:05Z</time>
      </trkpt>
      <trkpt lat="52.16841" lon="4.4883695">
        <ele>0.0</ele>
        <time>2020-09-21T15:32:07Z</time>
      </trkpt>
      <trkpt lat="52.16841" lon="4.4883695">
        <ele>0.0</ele>
        <time>2020-09-21T15:32:09Z</time>
      </trkpt>
      <trkpt lat="52.168407" lon="4.488372">
        <ele>0.0</ele>
        <time>2020-09-21T15:32:09Z</time>
      </trkpt>
      <trkpt lat="52.168407" lon="4.488376">
        <ele>0.0</ele>
        <time>2020-09-21T15:32:10Z</time>
      </trkpt>
      <trkpt lat="52.168407" lon="4.488381">
        <ele>0.0</ele>
        <time>2020-09-21T15:32:11Z</time>
      </trkpt>
      <trkpt lat="52.168407" lon="4.488386">
        <ele>0.0</ele>
        <time>2020-09-21T15:32:12Z</time>
      </trkpt>
      <trkpt lat="52.168404" lon="4.4883904">
        <ele>0.0</ele>
        <time>2020-09-21T15:32:13Z</time>
      </trkpt>
      <trkpt lat="52.168404" lon="4.4883943">
        <ele>0.0</ele>
        <time>2020-09-21T15:32:14Z</time>
      </trkpt>
      <trkpt lat="52.168404" lon="4.4883976">
        <ele>0.0</ele>
        <time>2020-09-21T15:32:15Z</time>
      </trkpt>
      <trkpt lat="52.168404" lon="4.4884076">
        <ele>0.0</ele>
        <time>2020-09-21T15:32:17Z</time>
      </trkpt>
      <trkpt lat="52.168396" lon="4.488408">
        <ele>0.0</ele>
        <time>2020-09-21T15:32:18Z</time>
      </trkpt>
      <trkpt lat="52.168396" lon="4.4884095">
        <ele>0.0</ele>
        <time>2020-09-21T15:32:19Z</time>
      </trkpt>
      <trkpt lat="52.168396" lon="4.488413">
        <ele>0.0</ele>
        <time>2020-09-21T15:32:19Z</time>
      </trkpt>
      <trkpt lat="52.168396" lon="4.488419">
        <ele>0.0</ele>
        <time>2020-09-21T15:32:20Z</time>
      </trkpt>
      <trkpt lat="52.168404" lon="4.4884305">
        <ele>0.0</ele>
        <time>2020-09-21T15:32:21Z</time>
      </trkpt>
      <trkpt lat="52.168407" lon="4.488445">
        <ele>0.0</ele>
        <time>2020-09-21T15:32:22Z</time>
      </trkpt>
      <trkpt lat="52.16842" lon="4.48846">
        <ele>0.0</ele>
        <time>2020-09-21T15:32:23Z</time>
      </trkpt>
      <trkpt lat="52.168423" lon="4.4884753">
        <ele>0.0</ele>
        <time>2020-09-21T15:32:24Z</time>
      </trkpt>
      <trkpt lat="52.168427" lon="4.4884887">
        <ele>0.0</ele>
        <time>2020-09-21T15:32:25Z</time>
      </trkpt>
      <trkpt lat="52.168434" lon="4.4884987">
        <ele>0.0</ele>
        <time>2020-09-21T15:32:26Z</time>
      </trkpt>
      <trkpt lat="52.16845" lon="4.488538">
        <ele>0.0</ele>
        <time>2020-09-21T15:32:28Z</time>
      </trkpt>
      <trkpt lat="52.168453" lon="4.4885397">
        <ele>0.0</ele>
        <time>2020-09-21T15:32:29Z</time>
      </trkpt>
      <trkpt lat="52.168457" lon="4.4885426">
        <ele>0.0</ele>
        <time>2020-09-21T15:32:30Z</time>
      </trkpt>
      <trkpt lat="52.168465" lon="4.4885473">
        <ele>0.0</ele>
        <time>2020-09-21T15:32:31Z</time>
      </trkpt>
      <trkpt lat="52.16847" lon="4.488554">
        <ele>0.0</ele>
        <time>2020-09-21T15:32:32Z</time>
      </trkpt>
      <trkpt lat="52.168472" lon="4.4885616">
        <ele>0.0</ele>
        <time>2020-09-21T15:32:33Z</time>
      </trkpt>
      <trkpt lat="52.16848" lon="4.488568">
        <ele>0.0</ele>
        <time>2020-09-21T15:32:34Z</time>
      </trkpt>
      <trkpt lat="52.16848" lon="4.488569">
        <ele>0.0</ele>
        <time>2020-09-21T15:32:35Z</time>
      </trkpt>
      <trkpt lat="52.168472" lon="4.4885707">
        <ele>0.0</ele>
        <time>2020-09-21T15:32:36Z</time>
      </trkpt>
      <trkpt lat="52.168472" lon="4.4885726">
        <ele>0.0</ele>
        <time>2020-09-21T15:32:39Z</time>
      </trkpt>
      <trkpt lat="52.16848" lon="4.4885697">
        <ele>0.0</ele>
        <time>2020-09-21T15:32:41Z</time>
      </trkpt>
      <trkpt lat="52.16848" lon="4.488567">
        <ele>0.0</ele>
        <time>2020-09-21T15:32:41Z</time>
      </trkpt>
      <trkpt lat="52.168484" lon="4.488566">
        <ele>0.0</ele>
        <time>2020-09-21T15:32:42Z</time>
      </trkpt>
      <trkpt lat="52.168488" lon="4.4885674">
        <ele>0.0</ele>
        <time>2020-09-21T15:32:43Z</time>
      </trkpt>
      <trkpt lat="52.1685" lon="4.488572">
        <ele>0.0</ele>
        <time>2020-09-21T15:32:44Z</time>
      </trkpt>
      <trkpt lat="52.168503" lon="4.4885798">
        <ele>0.0</ele>
        <time>2020-09-21T15:32:45Z</time>
      </trkpt>
      <trkpt lat="52.168514" lon="4.4885874">
        <ele>0.0</ele>
        <time>2020-09-21T15:32:46Z</time>
      </trkpt>
      <trkpt lat="52.168518" lon="4.488595">
        <ele>0.0</ele>
        <time>2020-09-21T15:32:47Z</time>
      </trkpt>
      <trkpt lat="52.168526" lon="4.488603">
        <ele>0.0</ele>
        <time>2020-09-21T15:32:48Z</time>
      </trkpt>
      <trkpt lat="52.168526" lon="4.4886117">
        <ele>0.0</ele>
        <time>2020-09-21T15:32:49Z</time>
      </trkpt>
      <trkpt lat="52.168526" lon="4.488624">
        <ele>0.0</ele>
        <time>2020-09-21T15:32:50Z</time>
      </trkpt>
      <trkpt lat="52.168526" lon="4.488637">
        <ele>0.0</ele>
        <time>2020-09-21T15:32:51Z</time>
      </trkpt>
      <trkpt lat="52.168526" lon="4.4886494">
        <ele>0.0</ele>
        <time>2020-09-21T15:32:52Z</time>
      </trkpt>
      <trkpt lat="52.16853" lon="4.4886575">
        <ele>0.0</ele>
        <time>2020-09-21T15:32:53Z</time>
      </trkpt>
      <trkpt lat="52.16853" lon="4.4886627">
        <ele>0.0</ele>
        <time>2020-09-21T15:32:54Z</time>
      </trkpt>
      <trkpt lat="52.16854" lon="4.488665">
        <ele>0.0</ele>
        <time>2020-09-21T15:32:55Z</time>
      </trkpt>
      <trkpt lat="52.168545" lon="4.488664">
        <ele>0.0</ele>
        <time>2020-09-21T15:32:56Z</time>
      </trkpt>
      <trkpt lat="52.168556" lon="4.4886594">
        <ele>0.0</ele>
        <time>2020-09-21T15:32:57Z</time>
      </trkpt>
      <trkpt lat="52.168568" lon="4.488654">
        <ele>0.0</ele>
        <time>2020-09-21T15:32:59Z</time>
      </trkpt>
      <trkpt lat="52.168575" lon="4.4886484">
        <ele>0.0</ele>
        <time>2020-09-21T15:32:59Z</time>
      </trkpt>
      <trkpt lat="52.168587" lon="4.4886417">
        <ele>0.0</ele>
        <time>2020-09-21T15:33:00Z</time>
      </trkpt>
      <trkpt lat="52.1686" lon="4.488631">
        <ele>0.0</ele>
        <time>2020-09-21T15:33:01Z</time>
      </trkpt>
      <trkpt lat="52.168602" lon="4.488621">
        <ele>0.0</ele>
        <time>2020-09-21T15:33:02Z</time>
      </trkpt>
      <trkpt lat="52.168613" lon="4.488607">
        <ele>0.0</ele>
        <time>2020-09-21T15:33:03Z</time>
      </trkpt>
      <trkpt lat="52.168617" lon="4.4885907">
        <ele>0.0</ele>
        <time>2020-09-21T15:33:04Z</time>
      </trkpt>
      <trkpt lat="52.168617" lon="4.4885755">
        <ele>0.0</ele>
        <time>2020-09-21T15:33:05Z</time>
      </trkpt>
      <trkpt lat="52.16862" lon="4.4885583">
        <ele>0.0</ele>
        <time>2020-09-21T15:33:06Z</time>
      </trkpt>
      <trkpt lat="52.16863" lon="4.4885406">
        <ele>0.0</ele>
        <time>2020-09-21T15:33:07Z</time>
      </trkpt>
      <trkpt lat="52.168633" lon="4.488523">
        <ele>0.0</ele>
        <time>2020-09-21T15:33:08Z</time>
      </trkpt>
      <trkpt lat="52.168636" lon="4.4885015">
        <ele>0.0</ele>
        <time>2020-09-21T15:33:09Z</time>
      </trkpt>
      <trkpt lat="52.168648" lon="4.488479">
        <ele>0.0</ele>
        <time>2020-09-21T15:33:10Z</time>
      </trkpt>
      <trkpt lat="52.16865" lon="4.488459">
        <ele>0.0</ele>
        <time>2020-09-21T15:33:11Z</time>
      </trkpt>
      <trkpt lat="52.16865" lon="4.4884415">
        <ele>0.0</ele>
        <time>2020-09-21T15:33:12Z</time>
      </trkpt>
      <trkpt lat="52.16865" lon="4.4884267">
        <ele>0.0</ele>
        <time>2020-09-21T15:33:13Z</time>
      </trkpt>
      <trkpt lat="52.16866" lon="4.4884133">
        <ele>0.0</ele>
        <time>2020-09-21T15:33:14Z</time>
      </trkpt>
      <trkpt lat="52.16866" lon="4.4883986">
        <ele>0.0</ele>
        <time>2020-09-21T15:33:15Z</time>
      </trkpt>
      <trkpt lat="52.16866" lon="4.4883857">
        <ele>0.0</ele>
        <time>2020-09-21T15:33:16Z</time>
      </trkpt>
      <trkpt lat="52.16866" lon="4.4883757">
        <ele>0.0</ele>
        <time>2020-09-21T15:33:17Z</time>
      </trkpt>
      <trkpt lat="52.168674" lon="4.4883323">
        <ele>0.0</ele>
        <time>2020-09-21T15:33:19Z</time>
      </trkpt>
      <trkpt lat="52.168674" lon="4.488332">
        <ele>0.0</ele>
        <time>2020-09-21T15:33:20Z</time>
      </trkpt>
      <trkpt lat="52.16868" lon="4.4883323">
        <ele>0.0</ele>
        <time>2020-09-21T15:33:21Z</time>
      </trkpt>
      <trkpt lat="52.168682" lon="4.488321">
        <ele>0.0</ele>
        <time>2020-09-21T15:33:22Z</time>
      </trkpt>
      <trkpt lat="52.16869" lon="4.4883094">
        <ele>0.0</ele>
        <time>2020-09-21T15:33:23Z</time>
      </trkpt>
      <trkpt lat="52.168694" lon="4.4883003">
        <ele>0.0</ele>
        <time>2020-09-21T15:33:24Z</time>
      </trkpt>
      <trkpt lat="52.168697" lon="4.48829">
        <ele>0.0</ele>
        <time>2020-09-21T15:33:25Z</time>
      </trkpt>
      <trkpt lat="52.168705" lon="4.4882784">
        <ele>0.0</ele>
        <time>2020-09-21T15:33:26Z</time>
      </trkpt>
      <trkpt lat="52.16871" lon="4.488271">
        <ele>0.0</ele>
        <time>2020-09-21T15:33:27Z</time>
      </trkpt>
      <trkpt lat="52.16871" lon="4.488256">
        <ele>0.0</ele>
        <time>2020-09-21T15:33:29Z</time>
      </trkpt>
      <trkpt lat="52.16871" lon="4.488257">
        <ele>0.0</ele>
        <time>2020-09-21T15:33:31Z</time>
      </trkpt>
      <trkpt lat="52.16871" lon="4.488259">
        <ele>0.0</ele>
        <time>2020-09-21T15:33:31Z</time>
      </trkpt>
      <trkpt lat="52.16871" lon="4.48826">
        <ele>0.0</ele>
        <time>2020-09-21T15:33:32Z</time>
      </trkpt>
      <trkpt lat="52.168705" lon="4.4882584">
        <ele>0.0</ele>
        <time>2020-09-21T15:33:33Z</time>
      </trkpt>
      <trkpt lat="52.168705" lon="4.4882584">
        <ele>0.0</ele>
        <time>2020-09-21T15:33:34Z</time>
      </trkpt>
      <trkpt lat="52.168705" lon="4.4882584">
        <ele>0.0</ele>
        <time>2020-09-21T15:33:35Z</time>
      </trkpt>
      <trkpt lat="52.168705" lon="4.4882574">
        <ele>0.0</ele>
        <time>2020-09-21T15:33:36Z</time>
      </trkpt>
      <trkpt lat="52.168705" lon="4.4882584">
        <ele>0.0</ele>
        <time>2020-09-21T15:33:37Z</time>
      </trkpt>
      <trkpt lat="52.168697" lon="4.4882636">
        <ele>0.0</ele>
        <time>2020-09-21T15:33:38Z</time>
      </trkpt>
      <trkpt lat="52.168697" lon="4.4882727">
        <ele>0.0</ele>
        <time>2020-09-21T15:33:39Z</time>
      </trkpt>
      <trkpt lat="52.168705" lon="4.488276">
        <ele>0.0</ele>
        <time>2020-09-21T15:33:40Z</time>
      </trkpt>
      <trkpt lat="52.16871" lon="4.488276">
        <ele>0.0</ele>
        <time>2020-09-21T15:33:42Z</time>
      </trkpt>
      <trkpt lat="52.168713" lon="4.4882736">
        <ele>0.0</ele>
        <time>2020-09-21T15:33:42Z</time>
      </trkpt>
      <trkpt lat="52.168724" lon="4.4882717">
        <ele>0.0</ele>
        <time>2020-09-21T15:33:43Z</time>
      </trkpt>
      <trkpt lat="52.168728" lon="4.488272">
        <ele>0.0</ele>
        <time>2020-09-21T15:33:44Z</time>
      </trkpt>
      <trkpt lat="52.168728" lon="4.4882736">
        <ele>0.0</ele>
        <time>2020-09-21T15:33:45Z</time>
      </trkpt>
      <trkpt lat="52.168728" lon="4.488274">
        <ele>0.0</ele>
        <time>2020-09-21T15:33:46Z</time>
      </trkpt>
      <trkpt lat="52.168728" lon="4.488271">
        <ele>0.0</ele>
        <time>2020-09-21T15:33:47Z</time>
      </trkpt>
      <trkpt lat="52.168728" lon="4.48827">
        <ele>0.0</ele>
        <time>2020-09-21T15:33:48Z</time>
      </trkpt>
      <trkpt lat="52.168724" lon="4.48827">
        <ele>0.0</ele>
        <time>2020-09-21T15:33:50Z</time>
      </trkpt>
      <trkpt lat="52.168724" lon="4.488272">
        <ele>0.0</ele>
        <time>2020-09-21T15:33:50Z</time>
      </trkpt>
      <trkpt lat="52.168728" lon="4.4882703">
        <ele>0.0</ele>
        <time>2020-09-21T15:33:51Z</time>
      </trkpt>
      <trkpt lat="52.168736" lon="4.4882684">
        <ele>0.0</ele>
        <time>2020-09-21T15:33:52Z</time>
      </trkpt>
      <trkpt lat="52.16874" lon="4.488264">
        <ele>0.0</ele>
        <time>2020-09-21T15:33:53Z</time>
      </trkpt>
      <trkpt lat="52.16875" lon="4.4882593">
        <ele>0.0</ele>
        <time>2020-09-21T15:33:54Z</time>
      </trkpt>
      <trkpt lat="52.168762" lon="4.4882526">
        <ele>0.0</ele>
        <time>2020-09-21T15:33:55Z</time>
      </trkpt>
      <trkpt lat="52.16877" lon="4.488248">
        <ele>0.0</ele>
        <time>2020-09-21T15:33:56Z</time>
      </trkpt>
      <trkpt lat="52.168777" lon="4.488242">
        <ele>0.0</ele>
        <time>2020-09-21T15:33:57Z</time>
      </trkpt>
      <trkpt lat="52.168785" lon="4.488237">
        <ele>0.0</ele>
        <time>2020-09-21T15:33:58Z</time>
      </trkpt>
      <trkpt lat="52.16878" lon="4.488236">
        <ele>0.0</ele>
        <time>2020-09-21T15:34:00Z</time>
      </trkpt>
      <trkpt lat="52.16878" lon="4.488238">
        <ele>0.0</ele>
        <time>2020-09-21T15:34:00Z</time>
      </trkpt>
      <trkpt lat="52.168777" lon="4.4882374">
        <ele>0.0</ele>
        <time>2020-09-21T15:34:01Z</time>
      </trkpt>
      <trkpt lat="52.168777" lon="4.488236">
        <ele>0.0</ele>
        <time>2020-09-21T15:34:02Z</time>
      </trkpt>
      <trkpt lat="52.16878" lon="4.4882326">
        <ele>0.0</ele>
        <time>2020-09-21T15:34:04Z</time>
      </trkpt>
      <trkpt lat="52.16878" lon="4.4882345">
        <ele>0.0</ele>
        <time>2020-09-21T15:34:05Z</time>
      </trkpt>
      <trkpt lat="52.168785" lon="4.488236">
        <ele>0.0</ele>
        <time>2020-09-21T15:34:06Z</time>
      </trkpt>
      <trkpt lat="52.168793" lon="4.4882374">
        <ele>0.0</ele>
        <time>2020-09-21T15:34:07Z</time>
      </trkpt>
      <trkpt lat="52.168793" lon="4.4882393">
        <ele>0.0</ele>
        <time>2020-09-21T15:34:08Z</time>
      </trkpt>
      <trkpt lat="52.168797" lon="4.488242">
        <ele>0.0</ele>
        <time>2020-09-21T15:34:09Z</time>
      </trkpt>
      <trkpt lat="52.168797" lon="4.488249">
        <ele>0.0</ele>
        <time>2020-09-21T15:34:11Z</time>
      </trkpt>
      <trkpt lat="52.168797" lon="4.4882517">
        <ele>0.0</ele>
        <time>2020-09-21T15:34:11Z</time>
      </trkpt>
      <trkpt lat="52.1688" lon="4.4882526">
        <ele>0.0</ele>
        <time>2020-09-21T15:34:12Z</time>
      </trkpt>
      <trkpt lat="52.16881" lon="4.48825">
        <ele>0.0</ele>
        <time>2020-09-21T15:34:13Z</time>
      </trkpt>
      <trkpt lat="52.168816" lon="4.488249">
        <ele>0.0</ele>
        <time>2020-09-21T15:34:14Z</time>
      </trkpt>
      <trkpt lat="52.168827" lon="4.4882483">
        <ele>0.0</ele>
        <time>2020-09-21T15:34:15Z</time>
      </trkpt>
      <trkpt lat="52.168827" lon="4.4882464">
        <ele>0.0</ele>
        <time>2020-09-21T15:34:16Z</time>
      </trkpt>
      <trkpt lat="52.16883" lon="4.48825">
        <ele>0.0</ele>
        <time>2020-09-21T15:34:17Z</time>
      </trkpt>
      <trkpt lat="52.16883" lon="4.488254">
        <ele>0.0</ele>
        <time>2020-09-21T15:34:18Z</time>
      </trkpt>
      <trkpt lat="52.168827" lon="4.4882603">
        <ele>0.0</ele>
        <time>2020-09-21T15:34:19Z</time>
      </trkpt>
      <trkpt lat="52.168823" lon="4.4882636">
        <ele>0.0</ele>
        <time>2020-09-21T15:34:20Z</time>
      </trkpt>
      <trkpt lat="52.168816" lon="4.4882665">
        <ele>0.0</ele>
        <time>2020-09-21T15:34:22Z</time>
      </trkpt>
      <trkpt lat="52.16881" lon="4.4882674">
        <ele>0.0</ele>
        <time>2020-09-21T15:34:22Z</time>
      </trkpt>
      <trkpt lat="52.1688" lon="4.4882655">
        <ele>0.0</ele>
        <time>2020-09-21T15:34:23Z</time>
      </trkpt>
      <trkpt lat="52.168793" lon="4.488262">
        <ele>0.0</ele>
        <time>2020-09-21T15:34:24Z</time>
      </trkpt>
      <trkpt lat="52.16878" lon="4.4882565">
        <ele>0.0</ele>
        <time>2020-09-21T15:34:25Z</time>
      </trkpt>
      <trkpt lat="52.16878" lon="4.4882483">
        <ele>0.0</ele>
        <time>2020-09-21T15:34:26Z</time>
      </trkpt>
      <trkpt lat="52.168777" lon="4.488241">
        <ele>0.0</ele>
        <time>2020-09-21T15:34:27Z</time>
      </trkpt>
      <trkpt lat="52.16877" lon="4.488235">
        <ele>0.0</ele>
        <time>2020-09-21T15:34:28Z</time>
      </trkpt>
      <trkpt lat="52.168766" lon="4.488227">
        <ele>0.0</ele>
        <time>2020-09-21T15:34:29Z</time>
      </trkpt>
      <trkpt lat="52.168762" lon="4.488219">
        <ele>0.0</ele>
        <time>2020-09-21T15:34:30Z</time>
      </trkpt>
      <trkpt lat="52.168755" lon="4.4882116">
        <ele>0.0</ele>
        <time>2020-09-21T15:34:31Z</time>
      </trkpt>
      <trkpt lat="52.16875" lon="4.488202">
        <ele>0.0</ele>
        <time>2020-09-21T15:34:32Z</time>
      </trkpt>
      <trkpt lat="52.16874" lon="4.4881935">
        <ele>0.0</ele>
        <time>2020-09-21T15:34:33Z</time>
      </trkpt>
      <trkpt lat="52.168728" lon="4.4881816">
        <ele>0.0</ele>
        <time>2020-09-21T15:34:34Z</time>
      </trkpt>
      <trkpt lat="52.16872" lon="4.488168">
        <ele>0.0</ele>
        <time>2020-09-21T15:34:35Z</time>
      </trkpt>
      <trkpt lat="52.16871" lon="4.488153">
        <ele>0.0</ele>
        <time>2020-09-21T15:34:36Z</time>
      </trkpt>
      <trkpt lat="52.168697" lon="4.4881372">
        <ele>0.0</ele>
        <time>2020-09-21T15:34:37Z</time>
      </trkpt>
      <trkpt lat="52.16869" lon="4.4881234">
        <ele>0.0</ele>
        <time>2020-09-21T15:34:38Z</time>
      </trkpt>
      <trkpt lat="52.168674" lon="4.4881134">
        <ele>0.0</ele>
        <time>2020-09-21T15:34:39Z</time>
      </trkpt>
      <trkpt lat="52.16866" lon="4.4881015">
        <ele>0.0</ele>
        <time>2020-09-21T15:34:40Z</time>
      </trkpt>
      <trkpt lat="52.168636" lon="4.488051">
        <ele>0.0</ele>
        <time>2020-09-21T15:34:43Z</time>
      </trkpt>
      <trkpt lat="52.168636" lon="4.48805">
        <ele>0.0</ele>
        <time>2020-09-21T15:34:43Z</time>
      </trkpt>
      <trkpt lat="52.168644" lon="4.488047">
        <ele>0.0</ele>
        <time>2020-09-21T15:34:44Z</time>
      </trkpt>
      <trkpt lat="52.168644" lon="4.4880404">
        <ele>0.0</ele>
        <time>2020-09-21T15:34:45Z</time>
      </trkpt>
      <trkpt lat="52.16865" lon="4.488033">
        <ele>0.0</ele>
        <time>2020-09-21T15:34:46Z</time>
      </trkpt>
      <trkpt lat="52.168663" lon="4.488032">
        <ele>0.0</ele>
        <time>2020-09-21T15:34:47Z</time>
      </trkpt>
      <trkpt lat="52.168674" lon="4.4880347">
        <ele>0.0</ele>
        <time>2020-09-21T15:34:48Z</time>
      </trkpt>
      <trkpt lat="52.16868" lon="4.4880414">
        <ele>0.0</ele>
        <time>2020-09-21T15:34:50Z</time>
      </trkpt>
      <trkpt lat="52.168682" lon="4.4880447">
        <ele>0.0</ele>
        <time>2020-09-21T15:34:50Z</time>
      </trkpt>
      <trkpt lat="52.168682" lon="4.4880457">
        <ele>0.0</ele>
        <time>2020-09-21T15:34:51Z</time>
      </trkpt>
      <trkpt lat="52.16869" lon="4.4880424">
        <ele>0.0</ele>
        <time>2020-09-21T15:34:52Z</time>
      </trkpt>
      <trkpt lat="52.16869" lon="4.488043">
        <ele>0.0</ele>
        <time>2020-09-21T15:34:53Z</time>
      </trkpt>
      <trkpt lat="52.16869" lon="4.488044">
        <ele>0.0</ele>
        <time>2020-09-21T15:34:54Z</time>
      </trkpt>
      <trkpt lat="52.16869" lon="4.488044">
        <ele>0.0</ele>
        <time>2020-09-21T15:34:55Z</time>
      </trkpt>
      <trkpt lat="52.168694" lon="4.4880447">
        <ele>0.0</ele>
        <time>2020-09-21T15:34:56Z</time>
      </trkpt>
      <trkpt lat="52.168705" lon="4.488046">
        <ele>0.0</ele>
        <time>2020-09-21T15:34:57Z</time>
      </trkpt>
    </trkseg>
  </trk>
</gpx>
